<?xml version="1.0" encoding="UTF-8" standalone="no" ?>
<gpx xmlns="http://www.topografix.com/GPX/1/1" xmlns:xsi="http://www.w3.org/2001/XMLSchema-instance" xsi:schemaLocation="http://www.topografix.com/GPX/1/1 http://www.topografix.com/GPX/1/1/gpx.xsd" version="1.1" creator="VisuGPX - https://www.visugpx.com">
  <metadata>
    <name>Vélo du matin</name>
  </metadata>
  <trk>
    <name><![CDATA[Vélo du matin_1]]></name>
    <trkseg>
      <trkpt lat="48.87308" lon="7.46215">
        <ele>212</ele>
        <time>2021-08-08T04:42:17Z</time>
      </trkpt>
      <trkpt lat="48.87311" lon="7.46209">
        <ele>212</ele>
        <time>2021-08-08T04:42:18Z</time>
      </trkpt>
      <trkpt lat="48.87311" lon="7.46209">
        <ele>212</ele>
        <time>2021-08-08T04:42:19Z</time>
      </trkpt>
      <trkpt lat="48.87315" lon="7.46198">
        <ele>212</ele>
        <time>2021-08-08T04:42:20Z</time>
      </trkpt>
      <trkpt lat="48.87317" lon="7.46192">
        <ele>212</ele>
        <time>2021-08-08T04:42:21Z</time>
      </trkpt>
      <trkpt lat="48.87317" lon="7.46192">
        <ele>212</ele>
        <time>2021-08-08T04:42:22Z</time>
      </trkpt>
      <trkpt lat="48.87323" lon="7.46182">
        <ele>212</ele>
        <time>2021-08-08T04:42:23Z</time>
      </trkpt>
      <trkpt lat="48.87323" lon="7.46182">
        <ele>212</ele>
        <time>2021-08-08T04:42:24Z</time>
      </trkpt>
      <trkpt lat="48.87329" lon="7.46172">
        <ele>212</ele>
        <time>2021-08-08T04:42:25Z</time>
      </trkpt>
      <trkpt lat="48.87329" lon="7.46172">
        <ele>212</ele>
        <time>2021-08-08T04:42:26Z</time>
      </trkpt>
      <trkpt lat="48.87335" lon="7.46164">
        <ele>212</ele>
        <time>2021-08-08T04:42:27Z</time>
      </trkpt>
      <trkpt lat="48.87335" lon="7.46164">
        <ele>212</ele>
        <time>2021-08-08T04:42:28Z</time>
      </trkpt>
      <trkpt lat="48.87341" lon="7.46155">
        <ele>212</ele>
        <time>2021-08-08T04:42:29Z</time>
      </trkpt>
      <trkpt lat="48.87345" lon="7.46151">
        <ele>212</ele>
        <time>2021-08-08T04:42:30Z</time>
      </trkpt>
      <trkpt lat="48.87348" lon="7.46146">
        <ele>212</ele>
        <time>2021-08-08T04:42:31Z</time>
      </trkpt>
      <trkpt lat="48.87348" lon="7.46146">
        <ele>212</ele>
        <time>2021-08-08T04:42:32Z</time>
      </trkpt>
      <trkpt lat="48.87355" lon="7.4614">
        <ele>212</ele>
        <time>2021-08-08T04:42:33Z</time>
      </trkpt>
      <trkpt lat="48.87355" lon="7.4614">
        <ele>212</ele>
        <time>2021-08-08T04:42:34Z</time>
      </trkpt>
      <trkpt lat="48.87362" lon="7.46137">
        <ele>212</ele>
        <time>2021-08-08T04:42:35Z</time>
      </trkpt>
      <trkpt lat="48.87362" lon="7.46137">
        <ele>212</ele>
        <time>2021-08-08T04:42:36Z</time>
      </trkpt>
      <trkpt lat="48.87368" lon="7.4614">
        <ele>212</ele>
        <time>2021-08-08T04:42:37Z</time>
      </trkpt>
      <trkpt lat="48.87368" lon="7.4614">
        <ele>212</ele>
        <time>2021-08-08T04:42:38Z</time>
      </trkpt>
      <trkpt lat="48.87373" lon="7.46148">
        <ele>212</ele>
        <time>2021-08-08T04:42:39Z</time>
      </trkpt>
      <trkpt lat="48.87373" lon="7.46148">
        <ele>212</ele>
        <time>2021-08-08T04:42:40Z</time>
      </trkpt>
      <trkpt lat="48.87377" lon="7.46157">
        <ele>212</ele>
        <time>2021-08-08T04:42:41Z</time>
      </trkpt>
      <trkpt lat="48.87377" lon="7.46157">
        <ele>212</ele>
        <time>2021-08-08T04:42:42Z</time>
      </trkpt>
      <trkpt lat="48.8738" lon="7.46163">
        <ele>212</ele>
        <time>2021-08-08T04:42:43Z</time>
      </trkpt>
      <trkpt lat="48.8738" lon="7.46163">
        <ele>212</ele>
        <time>2021-08-08T04:42:44Z</time>
      </trkpt>
      <trkpt lat="48.87384" lon="7.46169">
        <ele>212</ele>
        <time>2021-08-08T04:42:45Z</time>
      </trkpt>
      <trkpt lat="48.87384" lon="7.46169">
        <ele>212</ele>
        <time>2021-08-08T04:42:46Z</time>
      </trkpt>
      <trkpt lat="48.87388" lon="7.46174">
        <ele>212</ele>
        <time>2021-08-08T04:42:47Z</time>
      </trkpt>
      <trkpt lat="48.87388" lon="7.46174">
        <ele>212</ele>
        <time>2021-08-08T04:42:48Z</time>
      </trkpt>
      <trkpt lat="48.87393" lon="7.46178">
        <ele>212</ele>
        <time>2021-08-08T04:42:49Z</time>
      </trkpt>
      <trkpt lat="48.87393" lon="7.46178">
        <ele>212</ele>
        <time>2021-08-08T04:42:50Z</time>
      </trkpt>
      <trkpt lat="48.87401" lon="7.46176">
        <ele>212</ele>
        <time>2021-08-08T04:42:51Z</time>
      </trkpt>
      <trkpt lat="48.87401" lon="7.46176">
        <ele>212</ele>
        <time>2021-08-08T04:42:52Z</time>
      </trkpt>
      <trkpt lat="48.87407" lon="7.46167">
        <ele>212</ele>
        <time>2021-08-08T04:42:53Z</time>
      </trkpt>
      <trkpt lat="48.87409" lon="7.46162">
        <ele>212</ele>
        <time>2021-08-08T04:42:54Z</time>
      </trkpt>
      <trkpt lat="48.87409" lon="7.46162">
        <ele>212</ele>
        <time>2021-08-08T04:42:55Z</time>
      </trkpt>
      <trkpt lat="48.87415" lon="7.46152">
        <ele>212</ele>
        <time>2021-08-08T04:42:56Z</time>
      </trkpt>
      <trkpt lat="48.87415" lon="7.46152">
        <ele>212</ele>
        <time>2021-08-08T04:42:57Z</time>
      </trkpt>
      <trkpt lat="48.87421" lon="7.46143">
        <ele>212</ele>
        <time>2021-08-08T04:42:58Z</time>
      </trkpt>
      <trkpt lat="48.87425" lon="7.46139">
        <ele>212</ele>
        <time>2021-08-08T04:42:59Z</time>
      </trkpt>
      <trkpt lat="48.87425" lon="7.46139">
        <ele>212</ele>
        <time>2021-08-08T04:43:00Z</time>
      </trkpt>
      <trkpt lat="48.87431" lon="7.46131">
        <ele>212</ele>
        <time>2021-08-08T04:43:01Z</time>
      </trkpt>
      <trkpt lat="48.87431" lon="7.46131">
        <ele>212</ele>
        <time>2021-08-08T04:43:02Z</time>
      </trkpt>
      <trkpt lat="48.87438" lon="7.46123">
        <ele>212</ele>
        <time>2021-08-08T04:43:03Z</time>
      </trkpt>
      <trkpt lat="48.87438" lon="7.46123">
        <ele>212</ele>
        <time>2021-08-08T04:43:04Z</time>
      </trkpt>
      <trkpt lat="48.87446" lon="7.46117">
        <ele>212</ele>
        <time>2021-08-08T04:43:05Z</time>
      </trkpt>
      <trkpt lat="48.87446" lon="7.46117">
        <ele>212</ele>
        <time>2021-08-08T04:43:06Z</time>
      </trkpt>
      <trkpt lat="48.87453" lon="7.46111">
        <ele>212</ele>
        <time>2021-08-08T04:43:07Z</time>
      </trkpt>
      <trkpt lat="48.87453" lon="7.46111">
        <ele>212</ele>
        <time>2021-08-08T04:43:08Z</time>
      </trkpt>
      <trkpt lat="48.87459" lon="7.46103">
        <ele>212</ele>
        <time>2021-08-08T04:43:09Z</time>
      </trkpt>
      <trkpt lat="48.87459" lon="7.46103">
        <ele>212</ele>
        <time>2021-08-08T04:43:10Z</time>
      </trkpt>
      <trkpt lat="48.87464" lon="7.46096">
        <ele>212</ele>
        <time>2021-08-08T04:43:11Z</time>
      </trkpt>
      <trkpt lat="48.87464" lon="7.46096">
        <ele>212</ele>
        <time>2021-08-08T04:43:12Z</time>
      </trkpt>
      <trkpt lat="48.8747" lon="7.46091">
        <ele>213</ele>
        <time>2021-08-08T04:43:13Z</time>
      </trkpt>
      <trkpt lat="48.8747" lon="7.46091">
        <ele>213</ele>
        <time>2021-08-08T04:43:14Z</time>
      </trkpt>
      <trkpt lat="48.87476" lon="7.46085">
        <ele>213</ele>
        <time>2021-08-08T04:43:15Z</time>
      </trkpt>
      <trkpt lat="48.87476" lon="7.46085">
        <ele>213</ele>
        <time>2021-08-08T04:43:16Z</time>
      </trkpt>
      <trkpt lat="48.87482" lon="7.46081">
        <ele>213</ele>
        <time>2021-08-08T04:43:17Z</time>
      </trkpt>
      <trkpt lat="48.87485" lon="7.46079">
        <ele>213</ele>
        <time>2021-08-08T04:43:18Z</time>
      </trkpt>
      <trkpt lat="48.87485" lon="7.46079">
        <ele>214</ele>
        <time>2021-08-08T04:43:19Z</time>
      </trkpt>
      <trkpt lat="48.8749" lon="7.46075">
        <ele>214</ele>
        <time>2021-08-08T04:43:20Z</time>
      </trkpt>
      <trkpt lat="48.8749" lon="7.46075">
        <ele>214</ele>
        <time>2021-08-08T04:43:21Z</time>
      </trkpt>
      <trkpt lat="48.87495" lon="7.46072">
        <ele>214</ele>
        <time>2021-08-08T04:43:22Z</time>
      </trkpt>
      <trkpt lat="48.87495" lon="7.46072">
        <ele>214</ele>
        <time>2021-08-08T04:43:23Z</time>
      </trkpt>
      <trkpt lat="48.87499" lon="7.46068">
        <ele>214</ele>
        <time>2021-08-08T04:43:24Z</time>
      </trkpt>
      <trkpt lat="48.87499" lon="7.46068">
        <ele>215</ele>
        <time>2021-08-08T04:43:25Z</time>
      </trkpt>
      <trkpt lat="48.87503" lon="7.46065">
        <ele>215</ele>
        <time>2021-08-08T04:43:26Z</time>
      </trkpt>
      <trkpt lat="48.87503" lon="7.46065">
        <ele>215</ele>
        <time>2021-08-08T04:43:27Z</time>
      </trkpt>
      <trkpt lat="48.87508" lon="7.46062">
        <ele>215</ele>
        <time>2021-08-08T04:43:28Z</time>
      </trkpt>
      <trkpt lat="48.87508" lon="7.46062">
        <ele>215</ele>
        <time>2021-08-08T04:43:29Z</time>
      </trkpt>
      <trkpt lat="48.87511" lon="7.4606">
        <ele>215</ele>
        <time>2021-08-08T04:43:30Z</time>
      </trkpt>
      <trkpt lat="48.87513" lon="7.46058">
        <ele>215</ele>
        <time>2021-08-08T04:43:31Z</time>
      </trkpt>
      <trkpt lat="48.87513" lon="7.46058">
        <ele>216</ele>
        <time>2021-08-08T04:43:32Z</time>
      </trkpt>
      <trkpt lat="48.87516" lon="7.46056">
        <ele>216</ele>
        <time>2021-08-08T04:43:33Z</time>
      </trkpt>
      <trkpt lat="48.87518" lon="7.46055">
        <ele>216</ele>
        <time>2021-08-08T04:43:34Z</time>
      </trkpt>
      <trkpt lat="48.87518" lon="7.46055">
        <ele>216</ele>
        <time>2021-08-08T04:43:35Z</time>
      </trkpt>
      <trkpt lat="48.87521" lon="7.46053">
        <ele>216</ele>
        <time>2021-08-08T04:43:36Z</time>
      </trkpt>
      <trkpt lat="48.87523" lon="7.46052">
        <ele>216</ele>
        <time>2021-08-08T04:43:37Z</time>
      </trkpt>
      <trkpt lat="48.87523" lon="7.46052">
        <ele>217</ele>
        <time>2021-08-08T04:43:38Z</time>
      </trkpt>
      <trkpt lat="48.87526" lon="7.46049">
        <ele>217</ele>
        <time>2021-08-08T04:43:39Z</time>
      </trkpt>
      <trkpt lat="48.87526" lon="7.46049">
        <ele>217</ele>
        <time>2021-08-08T04:43:40Z</time>
      </trkpt>
      <trkpt lat="48.87529" lon="7.46046">
        <ele>217</ele>
        <time>2021-08-08T04:43:41Z</time>
      </trkpt>
      <trkpt lat="48.87529" lon="7.46046">
        <ele>218</ele>
        <time>2021-08-08T04:43:42Z</time>
      </trkpt>
      <trkpt lat="48.87532" lon="7.46044">
        <ele>218</ele>
        <time>2021-08-08T04:43:43Z</time>
      </trkpt>
      <trkpt lat="48.87534" lon="7.46043">
        <ele>218</ele>
        <time>2021-08-08T04:43:44Z</time>
      </trkpt>
      <trkpt lat="48.87534" lon="7.46043">
        <ele>218</ele>
        <time>2021-08-08T04:43:45Z</time>
      </trkpt>
      <trkpt lat="48.87536" lon="7.46041">
        <ele>218</ele>
        <time>2021-08-08T04:43:46Z</time>
      </trkpt>
      <trkpt lat="48.87536" lon="7.46041">
        <ele>218</ele>
        <time>2021-08-08T04:43:47Z</time>
      </trkpt>
      <trkpt lat="48.87539" lon="7.46039">
        <ele>219</ele>
        <time>2021-08-08T04:43:48Z</time>
      </trkpt>
      <trkpt lat="48.87539" lon="7.46039">
        <ele>219</ele>
        <time>2021-08-08T04:43:49Z</time>
      </trkpt>
      <trkpt lat="48.87542" lon="7.46037">
        <ele>219</ele>
        <time>2021-08-08T04:43:50Z</time>
      </trkpt>
      <trkpt lat="48.87544" lon="7.46036">
        <ele>219</ele>
        <time>2021-08-08T04:43:51Z</time>
      </trkpt>
      <trkpt lat="48.87544" lon="7.46036">
        <ele>219</ele>
        <time>2021-08-08T04:43:52Z</time>
      </trkpt>
      <trkpt lat="48.87546" lon="7.46034">
        <ele>219</ele>
        <time>2021-08-08T04:43:53Z</time>
      </trkpt>
      <trkpt lat="48.87546" lon="7.46034">
        <ele>219</ele>
        <time>2021-08-08T04:43:54Z</time>
      </trkpt>
      <trkpt lat="48.87549" lon="7.46032">
        <ele>219</ele>
        <time>2021-08-08T04:43:55Z</time>
      </trkpt>
      <trkpt lat="48.87549" lon="7.46032">
        <ele>219</ele>
        <time>2021-08-08T04:43:56Z</time>
      </trkpt>
      <trkpt lat="48.87552" lon="7.4603">
        <ele>219</ele>
        <time>2021-08-08T04:43:57Z</time>
      </trkpt>
      <trkpt lat="48.87552" lon="7.4603">
        <ele>220</ele>
        <time>2021-08-08T04:43:58Z</time>
      </trkpt>
      <trkpt lat="48.87554" lon="7.46027">
        <ele>220</ele>
        <time>2021-08-08T04:43:59Z</time>
      </trkpt>
      <trkpt lat="48.87555" lon="7.46026">
        <ele>220</ele>
        <time>2021-08-08T04:44:00Z</time>
      </trkpt>
      <trkpt lat="48.87556" lon="7.46025">
        <ele>221</ele>
        <time>2021-08-08T04:44:01Z</time>
      </trkpt>
      <trkpt lat="48.87556" lon="7.46025">
        <ele>221</ele>
        <time>2021-08-08T04:44:02Z</time>
      </trkpt>
      <trkpt lat="48.87559" lon="7.46022">
        <ele>221</ele>
        <time>2021-08-08T04:44:03Z</time>
      </trkpt>
      <trkpt lat="48.87561" lon="7.46021">
        <ele>221</ele>
        <time>2021-08-08T04:44:04Z</time>
      </trkpt>
      <trkpt lat="48.87561" lon="7.46021">
        <ele>221</ele>
        <time>2021-08-08T04:44:05Z</time>
      </trkpt>
      <trkpt lat="48.87563" lon="7.46019">
        <ele>221</ele>
        <time>2021-08-08T04:44:06Z</time>
      </trkpt>
      <trkpt lat="48.87563" lon="7.46019">
        <ele>222</ele>
        <time>2021-08-08T04:44:07Z</time>
      </trkpt>
      <trkpt lat="48.87567" lon="7.46017">
        <ele>222</ele>
        <time>2021-08-08T04:44:08Z</time>
      </trkpt>
      <trkpt lat="48.87568" lon="7.46016">
        <ele>222</ele>
        <time>2021-08-08T04:44:09Z</time>
      </trkpt>
      <trkpt lat="48.87568" lon="7.46016">
        <ele>222</ele>
        <time>2021-08-08T04:44:10Z</time>
      </trkpt>
      <trkpt lat="48.8757" lon="7.46013">
        <ele>222</ele>
        <time>2021-08-08T04:44:11Z</time>
      </trkpt>
      <trkpt lat="48.8757" lon="7.46013">
        <ele>222</ele>
        <time>2021-08-08T04:44:12Z</time>
      </trkpt>
      <trkpt lat="48.87573" lon="7.4601">
        <ele>223</ele>
        <time>2021-08-08T04:44:13Z</time>
      </trkpt>
      <trkpt lat="48.87573" lon="7.4601">
        <ele>223</ele>
        <time>2021-08-08T04:44:14Z</time>
      </trkpt>
      <trkpt lat="48.87575" lon="7.46007">
        <ele>223</ele>
        <time>2021-08-08T04:44:15Z</time>
      </trkpt>
      <trkpt lat="48.87575" lon="7.46007">
        <ele>223</ele>
        <time>2021-08-08T04:44:16Z</time>
      </trkpt>
      <trkpt lat="48.87577" lon="7.46004">
        <ele>223</ele>
        <time>2021-08-08T04:44:17Z</time>
      </trkpt>
      <trkpt lat="48.87578" lon="7.46003">
        <ele>223</ele>
        <time>2021-08-08T04:44:18Z</time>
      </trkpt>
      <trkpt lat="48.87578" lon="7.46003">
        <ele>223</ele>
        <time>2021-08-08T04:44:19Z</time>
      </trkpt>
      <trkpt lat="48.87581" lon="7.45999">
        <ele>223</ele>
        <time>2021-08-08T04:44:20Z</time>
      </trkpt>
      <trkpt lat="48.87582" lon="7.45998">
        <ele>224</ele>
        <time>2021-08-08T04:44:21Z</time>
      </trkpt>
      <trkpt lat="48.87582" lon="7.45998">
        <ele>224</ele>
        <time>2021-08-08T04:44:22Z</time>
      </trkpt>
      <trkpt lat="48.87585" lon="7.45993">
        <ele>224</ele>
        <time>2021-08-08T04:44:23Z</time>
      </trkpt>
      <trkpt lat="48.87585" lon="7.45993">
        <ele>224</ele>
        <time>2021-08-08T04:44:24Z</time>
      </trkpt>
      <trkpt lat="48.87588" lon="7.45988">
        <ele>224</ele>
        <time>2021-08-08T04:44:25Z</time>
      </trkpt>
      <trkpt lat="48.87588" lon="7.45988">
        <ele>224</ele>
        <time>2021-08-08T04:44:26Z</time>
      </trkpt>
      <trkpt lat="48.87593" lon="7.4598">
        <ele>224</ele>
        <time>2021-08-08T04:44:27Z</time>
      </trkpt>
      <trkpt lat="48.87593" lon="7.4598">
        <ele>224</ele>
        <time>2021-08-08T04:44:28Z</time>
      </trkpt>
      <trkpt lat="48.87599" lon="7.45971">
        <ele>223</ele>
        <time>2021-08-08T04:44:29Z</time>
      </trkpt>
      <trkpt lat="48.87603" lon="7.45966">
        <ele>223</ele>
        <time>2021-08-08T04:44:30Z</time>
      </trkpt>
      <trkpt lat="48.87607" lon="7.4596">
        <ele>223</ele>
        <time>2021-08-08T04:44:31Z</time>
      </trkpt>
      <trkpt lat="48.87607" lon="7.4596">
        <ele>223</ele>
        <time>2021-08-08T04:44:32Z</time>
      </trkpt>
      <trkpt lat="48.87615" lon="7.45948">
        <ele>223</ele>
        <time>2021-08-08T04:44:33Z</time>
      </trkpt>
      <trkpt lat="48.87618" lon="7.45943">
        <ele>223</ele>
        <time>2021-08-08T04:44:34Z</time>
      </trkpt>
      <trkpt lat="48.87618" lon="7.45943">
        <ele>222</ele>
        <time>2021-08-08T04:44:35Z</time>
      </trkpt>
      <trkpt lat="48.87625" lon="7.45933">
        <ele>222</ele>
        <time>2021-08-08T04:44:36Z</time>
      </trkpt>
      <trkpt lat="48.87625" lon="7.45933">
        <ele>222</ele>
        <time>2021-08-08T04:44:37Z</time>
      </trkpt>
      <trkpt lat="48.87632" lon="7.45924">
        <ele>222</ele>
        <time>2021-08-08T04:44:38Z</time>
      </trkpt>
      <trkpt lat="48.87635" lon="7.45921">
        <ele>222</ele>
        <time>2021-08-08T04:44:39Z</time>
      </trkpt>
      <trkpt lat="48.87635" lon="7.45921">
        <ele>222</ele>
        <time>2021-08-08T04:44:40Z</time>
      </trkpt>
      <trkpt lat="48.8764" lon="7.45914">
        <ele>222</ele>
        <time>2021-08-08T04:44:41Z</time>
      </trkpt>
      <trkpt lat="48.8764" lon="7.45914">
        <ele>222</ele>
        <time>2021-08-08T04:44:42Z</time>
      </trkpt>
      <trkpt lat="48.87644" lon="7.45908">
        <ele>223</ele>
        <time>2021-08-08T04:44:43Z</time>
      </trkpt>
      <trkpt lat="48.87644" lon="7.45908">
        <ele>223</ele>
        <time>2021-08-08T04:44:44Z</time>
      </trkpt>
      <trkpt lat="48.87647" lon="7.45902">
        <ele>223</ele>
        <time>2021-08-08T04:44:45Z</time>
      </trkpt>
      <trkpt lat="48.87647" lon="7.45902">
        <ele>223</ele>
        <time>2021-08-08T04:44:46Z</time>
      </trkpt>
      <trkpt lat="48.87651" lon="7.45897">
        <ele>223</ele>
        <time>2021-08-08T04:44:47Z</time>
      </trkpt>
      <trkpt lat="48.87651" lon="7.45897">
        <ele>223</ele>
        <time>2021-08-08T04:44:48Z</time>
      </trkpt>
      <trkpt lat="48.87655" lon="7.4589">
        <ele>224</ele>
        <time>2021-08-08T04:44:49Z</time>
      </trkpt>
      <trkpt lat="48.87655" lon="7.4589">
        <ele>224</ele>
        <time>2021-08-08T04:44:50Z</time>
      </trkpt>
      <trkpt lat="48.87659" lon="7.45882">
        <ele>224</ele>
        <time>2021-08-08T04:44:51Z</time>
      </trkpt>
      <trkpt lat="48.87659" lon="7.45882">
        <ele>224</ele>
        <time>2021-08-08T04:44:52Z</time>
      </trkpt>
      <trkpt lat="48.87663" lon="7.45872">
        <ele>224</ele>
        <time>2021-08-08T04:44:53Z</time>
      </trkpt>
      <trkpt lat="48.87663" lon="7.45872">
        <ele>224</ele>
        <time>2021-08-08T04:44:54Z</time>
      </trkpt>
      <trkpt lat="48.87669" lon="7.45863">
        <ele>224</ele>
        <time>2021-08-08T04:44:55Z</time>
      </trkpt>
      <trkpt lat="48.87669" lon="7.45863">
        <ele>224</ele>
        <time>2021-08-08T04:44:56Z</time>
      </trkpt>
      <trkpt lat="48.87675" lon="7.45854">
        <ele>224</ele>
        <time>2021-08-08T04:44:57Z</time>
      </trkpt>
      <trkpt lat="48.87677" lon="7.45849">
        <ele>224</ele>
        <time>2021-08-08T04:44:58Z</time>
      </trkpt>
      <trkpt lat="48.87677" lon="7.45849">
        <ele>224</ele>
        <time>2021-08-08T04:44:59Z</time>
      </trkpt>
      <trkpt lat="48.87684" lon="7.45841">
        <ele>223</ele>
        <time>2021-08-08T04:45:00Z</time>
      </trkpt>
      <trkpt lat="48.87687" lon="7.45837">
        <ele>223</ele>
        <time>2021-08-08T04:45:01Z</time>
      </trkpt>
      <trkpt lat="48.87687" lon="7.45837">
        <ele>223</ele>
        <time>2021-08-08T04:45:02Z</time>
      </trkpt>
      <trkpt lat="48.87693" lon="7.45827">
        <ele>223</ele>
        <time>2021-08-08T04:45:03Z</time>
      </trkpt>
      <trkpt lat="48.87693" lon="7.45827">
        <ele>223</ele>
        <time>2021-08-08T04:45:04Z</time>
      </trkpt>
      <trkpt lat="48.87699" lon="7.45817">
        <ele>223</ele>
        <time>2021-08-08T04:45:05Z</time>
      </trkpt>
      <trkpt lat="48.87703" lon="7.45811">
        <ele>222</ele>
        <time>2021-08-08T04:45:06Z</time>
      </trkpt>
      <trkpt lat="48.87703" lon="7.45811">
        <ele>222</ele>
        <time>2021-08-08T04:45:07Z</time>
      </trkpt>
      <trkpt lat="48.87709" lon="7.45797">
        <ele>222</ele>
        <time>2021-08-08T04:45:08Z</time>
      </trkpt>
      <trkpt lat="48.87714" lon="7.4579">
        <ele>222</ele>
        <time>2021-08-08T04:45:09Z</time>
      </trkpt>
      <trkpt lat="48.87714" lon="7.4579">
        <ele>221</ele>
        <time>2021-08-08T04:45:10Z</time>
      </trkpt>
      <trkpt lat="48.87724" lon="7.45782">
        <ele>221</ele>
        <time>2021-08-08T04:45:11Z</time>
      </trkpt>
      <trkpt lat="48.87724" lon="7.45782">
        <ele>221</ele>
        <time>2021-08-08T04:45:12Z</time>
      </trkpt>
      <trkpt lat="48.87736" lon="7.45783">
        <ele>221</ele>
        <time>2021-08-08T04:45:13Z</time>
      </trkpt>
      <trkpt lat="48.87736" lon="7.45783">
        <ele>221</ele>
        <time>2021-08-08T04:45:14Z</time>
      </trkpt>
      <trkpt lat="48.87745" lon="7.45776">
        <ele>221</ele>
        <time>2021-08-08T04:45:15Z</time>
      </trkpt>
      <trkpt lat="48.87745" lon="7.45776">
        <ele>220</ele>
        <time>2021-08-08T04:45:16Z</time>
      </trkpt>
      <trkpt lat="48.8775" lon="7.45759">
        <ele>220</ele>
        <time>2021-08-08T04:45:17Z</time>
      </trkpt>
      <trkpt lat="48.8775" lon="7.45759">
        <ele>220</ele>
        <time>2021-08-08T04:45:18Z</time>
      </trkpt>
      <trkpt lat="48.87751" lon="7.45741">
        <ele>220</ele>
        <time>2021-08-08T04:45:19Z</time>
      </trkpt>
      <trkpt lat="48.87753" lon="7.45733">
        <ele>220</ele>
        <time>2021-08-08T04:45:20Z</time>
      </trkpt>
      <trkpt lat="48.87756" lon="7.45726">
        <ele>220</ele>
        <time>2021-08-08T04:45:21Z</time>
      </trkpt>
      <trkpt lat="48.87756" lon="7.45726">
        <ele>220</ele>
        <time>2021-08-08T04:45:22Z</time>
      </trkpt>
      <trkpt lat="48.87763" lon="7.45714">
        <ele>220</ele>
        <time>2021-08-08T04:45:23Z</time>
      </trkpt>
      <trkpt lat="48.87767" lon="7.45709">
        <ele>220</ele>
        <time>2021-08-08T04:45:24Z</time>
      </trkpt>
      <trkpt lat="48.87767" lon="7.45709">
        <ele>220</ele>
        <time>2021-08-08T04:45:25Z</time>
      </trkpt>
      <trkpt lat="48.87773" lon="7.45697">
        <ele>220</ele>
        <time>2021-08-08T04:45:26Z</time>
      </trkpt>
      <trkpt lat="48.87773" lon="7.45697">
        <ele>220</ele>
        <time>2021-08-08T04:45:27Z</time>
      </trkpt>
      <trkpt lat="48.8778" lon="7.45686">
        <ele>220</ele>
        <time>2021-08-08T04:45:28Z</time>
      </trkpt>
      <trkpt lat="48.87783" lon="7.4568">
        <ele>220</ele>
        <time>2021-08-08T04:45:29Z</time>
      </trkpt>
      <trkpt lat="48.87783" lon="7.4568">
        <ele>221</ele>
        <time>2021-08-08T04:45:30Z</time>
      </trkpt>
      <trkpt lat="48.87789" lon="7.45669">
        <ele>221</ele>
        <time>2021-08-08T04:45:31Z</time>
      </trkpt>
      <trkpt lat="48.87789" lon="7.45669">
        <ele>221</ele>
        <time>2021-08-08T04:45:32Z</time>
      </trkpt>
      <trkpt lat="48.87795" lon="7.45659">
        <ele>221</ele>
        <time>2021-08-08T04:45:33Z</time>
      </trkpt>
      <trkpt lat="48.87795" lon="7.45659">
        <ele>221</ele>
        <time>2021-08-08T04:45:34Z</time>
      </trkpt>
      <trkpt lat="48.87801" lon="7.4565">
        <ele>221</ele>
        <time>2021-08-08T04:45:35Z</time>
      </trkpt>
      <trkpt lat="48.87804" lon="7.45645">
        <ele>222</ele>
        <time>2021-08-08T04:45:36Z</time>
      </trkpt>
      <trkpt lat="48.87804" lon="7.45645">
        <ele>222</ele>
        <time>2021-08-08T04:45:37Z</time>
      </trkpt>
      <trkpt lat="48.87809" lon="7.45636">
        <ele>222</ele>
        <time>2021-08-08T04:45:38Z</time>
      </trkpt>
      <trkpt lat="48.87812" lon="7.45632">
        <ele>222</ele>
        <time>2021-08-08T04:45:39Z</time>
      </trkpt>
      <trkpt lat="48.87812" lon="7.45632">
        <ele>222</ele>
        <time>2021-08-08T04:45:40Z</time>
      </trkpt>
      <trkpt lat="48.87818" lon="7.45623">
        <ele>222</ele>
        <time>2021-08-08T04:45:41Z</time>
      </trkpt>
      <trkpt lat="48.87818" lon="7.45623">
        <ele>223</ele>
        <time>2021-08-08T04:45:42Z</time>
      </trkpt>
      <trkpt lat="48.87824" lon="7.45614">
        <ele>223</ele>
        <time>2021-08-08T04:45:43Z</time>
      </trkpt>
      <trkpt lat="48.87824" lon="7.45614">
        <ele>223</ele>
        <time>2021-08-08T04:45:44Z</time>
      </trkpt>
      <trkpt lat="48.8783" lon="7.45607">
        <ele>223</ele>
        <time>2021-08-08T04:45:45Z</time>
      </trkpt>
      <trkpt lat="48.8783" lon="7.45607">
        <ele>223</ele>
        <time>2021-08-08T04:45:46Z</time>
      </trkpt>
      <trkpt lat="48.87836" lon="7.45599">
        <ele>223</ele>
        <time>2021-08-08T04:45:47Z</time>
      </trkpt>
      <trkpt lat="48.87836" lon="7.45599">
        <ele>223</ele>
        <time>2021-08-08T04:45:48Z</time>
      </trkpt>
      <trkpt lat="48.87842" lon="7.45591">
        <ele>224</ele>
        <time>2021-08-08T04:45:49Z</time>
      </trkpt>
      <trkpt lat="48.87842" lon="7.45591">
        <ele>224</ele>
        <time>2021-08-08T04:45:50Z</time>
      </trkpt>
      <trkpt lat="48.87847" lon="7.45584">
        <ele>224</ele>
        <time>2021-08-08T04:45:51Z</time>
      </trkpt>
      <trkpt lat="48.87847" lon="7.45584">
        <ele>224</ele>
        <time>2021-08-08T04:45:52Z</time>
      </trkpt>
      <trkpt lat="48.87853" lon="7.45577">
        <ele>224</ele>
        <time>2021-08-08T04:45:53Z</time>
      </trkpt>
      <trkpt lat="48.87853" lon="7.45577">
        <ele>224</ele>
        <time>2021-08-08T04:45:54Z</time>
      </trkpt>
      <trkpt lat="48.87858" lon="7.45571">
        <ele>224</ele>
        <time>2021-08-08T04:45:55Z</time>
      </trkpt>
      <trkpt lat="48.87858" lon="7.45571">
        <ele>224</ele>
        <time>2021-08-08T04:45:56Z</time>
      </trkpt>
      <trkpt lat="48.87863" lon="7.45566">
        <ele>224</ele>
        <time>2021-08-08T04:45:57Z</time>
      </trkpt>
      <trkpt lat="48.87863" lon="7.45566">
        <ele>224</ele>
        <time>2021-08-08T04:45:58Z</time>
      </trkpt>
      <trkpt lat="48.87868" lon="7.45561">
        <ele>224</ele>
        <time>2021-08-08T04:45:59Z</time>
      </trkpt>
      <trkpt lat="48.87868" lon="7.45561">
        <ele>224</ele>
        <time>2021-08-08T04:46:00Z</time>
      </trkpt>
      <trkpt lat="48.87873" lon="7.45555">
        <ele>212</ele>
        <time>2021-08-08T04:46:01Z</time>
      </trkpt>
      <trkpt lat="48.87873" lon="7.45555">
        <ele>212</ele>
        <time>2021-08-08T04:46:02Z</time>
      </trkpt>
      <trkpt lat="48.87878" lon="7.4555">
        <ele>212</ele>
        <time>2021-08-08T04:46:03Z</time>
      </trkpt>
      <trkpt lat="48.87878" lon="7.4555">
        <ele>212</ele>
        <time>2021-08-08T04:46:04Z</time>
      </trkpt>
      <trkpt lat="48.87882" lon="7.45546">
        <ele>213</ele>
        <time>2021-08-08T04:46:05Z</time>
      </trkpt>
      <trkpt lat="48.87882" lon="7.45546">
        <ele>213</ele>
        <time>2021-08-08T04:46:06Z</time>
      </trkpt>
      <trkpt lat="48.87887" lon="7.45541">
        <ele>213</ele>
        <time>2021-08-08T04:46:07Z</time>
      </trkpt>
      <trkpt lat="48.87887" lon="7.45541">
        <ele>213</ele>
        <time>2021-08-08T04:46:08Z</time>
      </trkpt>
      <trkpt lat="48.87891" lon="7.45536">
        <ele>214</ele>
        <time>2021-08-08T04:46:09Z</time>
      </trkpt>
      <trkpt lat="48.87891" lon="7.45536">
        <ele>214</ele>
        <time>2021-08-08T04:46:10Z</time>
      </trkpt>
      <trkpt lat="48.87895" lon="7.45531">
        <ele>214</ele>
        <time>2021-08-08T04:46:11Z</time>
      </trkpt>
      <trkpt lat="48.87898" lon="7.45529">
        <ele>214</ele>
        <time>2021-08-08T04:46:12Z</time>
      </trkpt>
      <trkpt lat="48.87898" lon="7.45529">
        <ele>214</ele>
        <time>2021-08-08T04:46:13Z</time>
      </trkpt>
      <trkpt lat="48.87901" lon="7.45525">
        <ele>214</ele>
        <time>2021-08-08T04:46:14Z</time>
      </trkpt>
      <trkpt lat="48.87903" lon="7.45523">
        <ele>215</ele>
        <time>2021-08-08T04:46:15Z</time>
      </trkpt>
      <trkpt lat="48.87903" lon="7.45523">
        <ele>215</ele>
        <time>2021-08-08T04:46:16Z</time>
      </trkpt>
      <trkpt lat="48.87907" lon="7.45518">
        <ele>215</ele>
        <time>2021-08-08T04:46:17Z</time>
      </trkpt>
      <trkpt lat="48.87907" lon="7.45518">
        <ele>215</ele>
        <time>2021-08-08T04:46:18Z</time>
      </trkpt>
      <trkpt lat="48.87911" lon="7.45514">
        <ele>216</ele>
        <time>2021-08-08T04:46:19Z</time>
      </trkpt>
      <trkpt lat="48.87911" lon="7.45514">
        <ele>216</ele>
        <time>2021-08-08T04:46:20Z</time>
      </trkpt>
      <trkpt lat="48.87914" lon="7.45509">
        <ele>216</ele>
        <time>2021-08-08T04:46:21Z</time>
      </trkpt>
      <trkpt lat="48.87914" lon="7.45509">
        <ele>216</ele>
        <time>2021-08-08T04:46:22Z</time>
      </trkpt>
      <trkpt lat="48.87918" lon="7.45505">
        <ele>217</ele>
        <time>2021-08-08T04:46:23Z</time>
      </trkpt>
      <trkpt lat="48.8792" lon="7.45504">
        <ele>217</ele>
        <time>2021-08-08T04:46:24Z</time>
      </trkpt>
      <trkpt lat="48.87922" lon="7.45502">
        <ele>217</ele>
        <time>2021-08-08T04:46:25Z</time>
      </trkpt>
      <trkpt lat="48.87922" lon="7.45502">
        <ele>217</ele>
        <time>2021-08-08T04:46:26Z</time>
      </trkpt>
      <trkpt lat="48.87926" lon="7.45498">
        <ele>217</ele>
        <time>2021-08-08T04:46:27Z</time>
      </trkpt>
      <trkpt lat="48.87926" lon="7.45498">
        <ele>218</ele>
        <time>2021-08-08T04:46:28Z</time>
      </trkpt>
      <trkpt lat="48.87929" lon="7.45495">
        <ele>218</ele>
        <time>2021-08-08T04:46:29Z</time>
      </trkpt>
      <trkpt lat="48.87931" lon="7.45493">
        <ele>218</ele>
        <time>2021-08-08T04:46:30Z</time>
      </trkpt>
      <trkpt lat="48.87932" lon="7.45491">
        <ele>218</ele>
        <time>2021-08-08T04:46:31Z</time>
      </trkpt>
      <trkpt lat="48.87932" lon="7.45491">
        <ele>219</ele>
        <time>2021-08-08T04:46:32Z</time>
      </trkpt>
      <trkpt lat="48.87935" lon="7.45487">
        <ele>219</ele>
        <time>2021-08-08T04:46:33Z</time>
      </trkpt>
      <trkpt lat="48.87935" lon="7.45487">
        <ele>219</ele>
        <time>2021-08-08T04:46:34Z</time>
      </trkpt>
      <trkpt lat="48.87939" lon="7.45484">
        <ele>219</ele>
        <time>2021-08-08T04:46:35Z</time>
      </trkpt>
      <trkpt lat="48.87939" lon="7.45484">
        <ele>219</ele>
        <time>2021-08-08T04:46:36Z</time>
      </trkpt>
      <trkpt lat="48.87942" lon="7.4548">
        <ele>219</ele>
        <time>2021-08-08T04:46:37Z</time>
      </trkpt>
      <trkpt lat="48.87942" lon="7.4548">
        <ele>219</ele>
        <time>2021-08-08T04:46:38Z</time>
      </trkpt>
      <trkpt lat="48.87945" lon="7.45477">
        <ele>219</ele>
        <time>2021-08-08T04:46:39Z</time>
      </trkpt>
      <trkpt lat="48.87945" lon="7.45477">
        <ele>219</ele>
        <time>2021-08-08T04:46:40Z</time>
      </trkpt>
      <trkpt lat="48.87948" lon="7.45473">
        <ele>220</ele>
        <time>2021-08-08T04:46:41Z</time>
      </trkpt>
      <trkpt lat="48.8795" lon="7.45471">
        <ele>220</ele>
        <time>2021-08-08T04:46:42Z</time>
      </trkpt>
      <trkpt lat="48.87951" lon="7.4547">
        <ele>220</ele>
        <time>2021-08-08T04:46:43Z</time>
      </trkpt>
      <trkpt lat="48.87951" lon="7.4547">
        <ele>221</ele>
        <time>2021-08-08T04:46:44Z</time>
      </trkpt>
      <trkpt lat="48.87954" lon="7.45466">
        <ele>221</ele>
        <time>2021-08-08T04:46:45Z</time>
      </trkpt>
      <trkpt lat="48.87954" lon="7.45466">
        <ele>221</ele>
        <time>2021-08-08T04:46:46Z</time>
      </trkpt>
      <trkpt lat="48.87957" lon="7.45463">
        <ele>221</ele>
        <time>2021-08-08T04:46:47Z</time>
      </trkpt>
      <trkpt lat="48.87958" lon="7.45461">
        <ele>222</ele>
        <time>2021-08-08T04:46:48Z</time>
      </trkpt>
      <trkpt lat="48.8796" lon="7.45459">
        <ele>222</ele>
        <time>2021-08-08T04:46:49Z</time>
      </trkpt>
      <trkpt lat="48.8796" lon="7.45459">
        <ele>222</ele>
        <time>2021-08-08T04:46:50Z</time>
      </trkpt>
      <trkpt lat="48.87962" lon="7.45455">
        <ele>222</ele>
        <time>2021-08-08T04:46:51Z</time>
      </trkpt>
      <trkpt lat="48.87962" lon="7.45455">
        <ele>223</ele>
        <time>2021-08-08T04:46:52Z</time>
      </trkpt>
      <trkpt lat="48.87965" lon="7.45452">
        <ele>223</ele>
        <time>2021-08-08T04:46:53Z</time>
      </trkpt>
      <trkpt lat="48.87965" lon="7.45452">
        <ele>223</ele>
        <time>2021-08-08T04:46:54Z</time>
      </trkpt>
      <trkpt lat="48.87967" lon="7.45448">
        <ele>223</ele>
        <time>2021-08-08T04:46:55Z</time>
      </trkpt>
      <trkpt lat="48.87967" lon="7.45448">
        <ele>224</ele>
        <time>2021-08-08T04:46:56Z</time>
      </trkpt>
      <trkpt lat="48.87969" lon="7.45443">
        <ele>224</ele>
        <time>2021-08-08T04:46:57Z</time>
      </trkpt>
      <trkpt lat="48.87969" lon="7.4544">
        <ele>224</ele>
        <time>2021-08-08T04:46:58Z</time>
      </trkpt>
      <trkpt lat="48.87969" lon="7.4544">
        <ele>224</ele>
        <time>2021-08-08T04:46:59Z</time>
      </trkpt>
      <trkpt lat="48.8797" lon="7.45435">
        <ele>224</ele>
        <time>2021-08-08T04:47:00Z</time>
      </trkpt>
      <trkpt lat="48.8797" lon="7.45435">
        <ele>224</ele>
        <time>2021-08-08T04:47:01Z</time>
      </trkpt>
      <trkpt lat="48.87972" lon="7.45429">
        <ele>224</ele>
        <time>2021-08-08T04:47:02Z</time>
      </trkpt>
      <trkpt lat="48.87972" lon="7.45429">
        <ele>224</ele>
        <time>2021-08-08T04:47:03Z</time>
      </trkpt>
      <trkpt lat="48.87972" lon="7.45424">
        <ele>224</ele>
        <time>2021-08-08T04:47:04Z</time>
      </trkpt>
      <trkpt lat="48.87972" lon="7.45424">
        <ele>224</ele>
        <time>2021-08-08T04:47:05Z</time>
      </trkpt>
      <trkpt lat="48.87974" lon="7.45418">
        <ele>224</ele>
        <time>2021-08-08T04:47:06Z</time>
      </trkpt>
      <trkpt lat="48.87974" lon="7.45415">
        <ele>224</ele>
        <time>2021-08-08T04:47:07Z</time>
      </trkpt>
      <trkpt lat="48.87974" lon="7.45415">
        <ele>225</ele>
        <time>2021-08-08T04:47:08Z</time>
      </trkpt>
      <trkpt lat="48.87975" lon="7.45408">
        <ele>225</ele>
        <time>2021-08-08T04:47:09Z</time>
      </trkpt>
      <trkpt lat="48.87975" lon="7.45408">
        <ele>225</ele>
        <time>2021-08-08T04:47:10Z</time>
      </trkpt>
      <trkpt lat="48.87976" lon="7.45401">
        <ele>225</ele>
        <time>2021-08-08T04:47:11Z</time>
      </trkpt>
      <trkpt lat="48.87977" lon="7.45398">
        <ele>225</ele>
        <time>2021-08-08T04:47:12Z</time>
      </trkpt>
      <trkpt lat="48.87977" lon="7.45398">
        <ele>225</ele>
        <time>2021-08-08T04:47:13Z</time>
      </trkpt>
      <trkpt lat="48.87978" lon="7.45392">
        <ele>226</ele>
        <time>2021-08-08T04:47:14Z</time>
      </trkpt>
      <trkpt lat="48.87978" lon="7.45389">
        <ele>226</ele>
        <time>2021-08-08T04:47:15Z</time>
      </trkpt>
      <trkpt lat="48.87978" lon="7.45389">
        <ele>226</ele>
        <time>2021-08-08T04:47:16Z</time>
      </trkpt>
      <trkpt lat="48.8798" lon="7.45384">
        <ele>226</ele>
        <time>2021-08-08T04:47:17Z</time>
      </trkpt>
      <trkpt lat="48.87981" lon="7.45381">
        <ele>226</ele>
        <time>2021-08-08T04:47:18Z</time>
      </trkpt>
      <trkpt lat="48.87981" lon="7.45381">
        <ele>226</ele>
        <time>2021-08-08T04:47:19Z</time>
      </trkpt>
      <trkpt lat="48.87982" lon="7.45376">
        <ele>226</ele>
        <time>2021-08-08T04:47:20Z</time>
      </trkpt>
      <trkpt lat="48.87983" lon="7.45373">
        <ele>226</ele>
        <time>2021-08-08T04:47:21Z</time>
      </trkpt>
      <trkpt lat="48.87983" lon="7.45373">
        <ele>226</ele>
        <time>2021-08-08T04:47:22Z</time>
      </trkpt>
      <trkpt lat="48.87985" lon="7.45367">
        <ele>226</ele>
        <time>2021-08-08T04:47:23Z</time>
      </trkpt>
      <trkpt lat="48.87985" lon="7.45367">
        <ele>227</ele>
        <time>2021-08-08T04:47:24Z</time>
      </trkpt>
      <trkpt lat="48.87987" lon="7.45363">
        <ele>227</ele>
        <time>2021-08-08T04:47:25Z</time>
      </trkpt>
      <trkpt lat="48.87987" lon="7.45363">
        <ele>227</ele>
        <time>2021-08-08T04:47:26Z</time>
      </trkpt>
      <trkpt lat="48.87989" lon="7.45359">
        <ele>227</ele>
        <time>2021-08-08T04:47:27Z</time>
      </trkpt>
      <trkpt lat="48.8799" lon="7.45357">
        <ele>227</ele>
        <time>2021-08-08T04:47:28Z</time>
      </trkpt>
      <trkpt lat="48.8799" lon="7.45357">
        <ele>227</ele>
        <time>2021-08-08T04:47:29Z</time>
      </trkpt>
      <trkpt lat="48.87992" lon="7.45353">
        <ele>227</ele>
        <time>2021-08-08T04:47:30Z</time>
      </trkpt>
      <trkpt lat="48.87993" lon="7.45351">
        <ele>227</ele>
        <time>2021-08-08T04:47:31Z</time>
      </trkpt>
      <trkpt lat="48.87994" lon="7.45349">
        <ele>227</ele>
        <time>2021-08-08T04:47:32Z</time>
      </trkpt>
      <trkpt lat="48.87994" lon="7.45349">
        <ele>227</ele>
        <time>2021-08-08T04:47:33Z</time>
      </trkpt>
      <trkpt lat="48.87996" lon="7.45346">
        <ele>228</ele>
        <time>2021-08-08T04:47:34Z</time>
      </trkpt>
      <trkpt lat="48.87996" lon="7.45346">
        <ele>228</ele>
        <time>2021-08-08T04:47:35Z</time>
      </trkpt>
      <trkpt lat="48.87999" lon="7.45345">
        <ele>228</ele>
        <time>2021-08-08T04:47:36Z</time>
      </trkpt>
      <trkpt lat="48.88001" lon="7.45345">
        <ele>229</ele>
        <time>2021-08-08T04:47:37Z</time>
      </trkpt>
      <trkpt lat="48.88001" lon="7.45345">
        <ele>229</ele>
        <time>2021-08-08T04:47:38Z</time>
      </trkpt>
      <trkpt lat="48.88004" lon="7.45343">
        <ele>229</ele>
        <time>2021-08-08T04:47:39Z</time>
      </trkpt>
      <trkpt lat="48.88006" lon="7.45343">
        <ele>229</ele>
        <time>2021-08-08T04:47:40Z</time>
      </trkpt>
      <trkpt lat="48.88006" lon="7.45343">
        <ele>230</ele>
        <time>2021-08-08T04:47:41Z</time>
      </trkpt>
      <trkpt lat="48.88008" lon="7.45342">
        <ele>230</ele>
        <time>2021-08-08T04:47:42Z</time>
      </trkpt>
      <trkpt lat="48.8801" lon="7.45342">
        <ele>230</ele>
        <time>2021-08-08T04:47:43Z</time>
      </trkpt>
      <trkpt lat="48.88011" lon="7.45342">
        <ele>230</ele>
        <time>2021-08-08T04:47:44Z</time>
      </trkpt>
      <trkpt lat="48.88011" lon="7.45342">
        <ele>230</ele>
        <time>2021-08-08T04:47:45Z</time>
      </trkpt>
      <trkpt lat="48.88014" lon="7.45342">
        <ele>230</ele>
        <time>2021-08-08T04:47:46Z</time>
      </trkpt>
      <trkpt lat="48.88014" lon="7.45342">
        <ele>230</ele>
        <time>2021-08-08T04:47:47Z</time>
      </trkpt>
      <trkpt lat="48.88016" lon="7.45343">
        <ele>231</ele>
        <time>2021-08-08T04:47:48Z</time>
      </trkpt>
      <trkpt lat="48.88018" lon="7.45343">
        <ele>231</ele>
        <time>2021-08-08T04:47:49Z</time>
      </trkpt>
      <trkpt lat="48.88021" lon="7.45341">
        <ele>231</ele>
        <time>2021-08-08T04:47:50Z</time>
      </trkpt>
      <trkpt lat="48.88023" lon="7.4534">
        <ele>231</ele>
        <time>2021-08-08T04:47:51Z</time>
      </trkpt>
      <trkpt lat="48.88023" lon="7.4534">
        <ele>232</ele>
        <time>2021-08-08T04:47:52Z</time>
      </trkpt>
      <trkpt lat="48.88027" lon="7.45339">
        <ele>232</ele>
        <time>2021-08-08T04:47:53Z</time>
      </trkpt>
      <trkpt lat="48.88027" lon="7.45339">
        <ele>232</ele>
        <time>2021-08-08T04:47:54Z</time>
      </trkpt>
      <trkpt lat="48.88028" lon="7.45337">
        <ele>232</ele>
        <time>2021-08-08T04:47:55Z</time>
      </trkpt>
      <trkpt lat="48.88028" lon="7.45337">
        <ele>233</ele>
        <time>2021-08-08T04:47:56Z</time>
      </trkpt>
      <trkpt lat="48.88031" lon="7.45339">
        <ele>233</ele>
        <time>2021-08-08T04:47:57Z</time>
      </trkpt>
      <trkpt lat="48.88031" lon="7.45339">
        <ele>233</ele>
        <time>2021-08-08T04:47:58Z</time>
      </trkpt>
      <trkpt lat="48.88032" lon="7.45339">
        <ele>233</ele>
        <time>2021-08-08T04:47:59Z</time>
      </trkpt>
      <trkpt lat="48.88033" lon="7.45339">
        <ele>234</ele>
        <time>2021-08-08T04:48:00Z</time>
      </trkpt>
      <trkpt lat="48.88033" lon="7.4534">
        <ele>234</ele>
        <time>2021-08-08T04:48:01Z</time>
      </trkpt>
      <trkpt lat="48.88033" lon="7.4534">
        <ele>234</ele>
        <time>2021-08-08T04:48:02Z</time>
      </trkpt>
      <trkpt lat="48.88035" lon="7.45341">
        <ele>234</ele>
        <time>2021-08-08T04:48:03Z</time>
      </trkpt>
      <trkpt lat="48.88035" lon="7.45341">
        <ele>234</ele>
        <time>2021-08-08T04:48:04Z</time>
      </trkpt>
      <trkpt lat="48.88035" lon="7.45341">
        <ele>234</ele>
        <time>2021-08-08T04:48:05Z</time>
      </trkpt>
      <trkpt lat="48.88035" lon="7.45341">
        <ele>234</ele>
        <time>2021-08-08T04:48:07Z</time>
      </trkpt>
      <trkpt lat="48.8804" lon="7.45343">
        <ele>234</ele>
        <time>2021-08-08T04:48:08Z</time>
      </trkpt>
      <trkpt lat="48.88042" lon="7.45344">
        <ele>234</ele>
        <time>2021-08-08T04:48:09Z</time>
      </trkpt>
      <trkpt lat="48.88042" lon="7.45344">
        <ele>234</ele>
        <time>2021-08-08T04:48:10Z</time>
      </trkpt>
      <trkpt lat="48.88046" lon="7.45344">
        <ele>234</ele>
        <time>2021-08-08T04:48:11Z</time>
      </trkpt>
      <trkpt lat="48.88046" lon="7.45344">
        <ele>234</ele>
        <time>2021-08-08T04:48:12Z</time>
      </trkpt>
      <trkpt lat="48.8805" lon="7.45344">
        <ele>235</ele>
        <time>2021-08-08T04:48:13Z</time>
      </trkpt>
      <trkpt lat="48.8805" lon="7.45344">
        <ele>235</ele>
        <time>2021-08-08T04:48:14Z</time>
      </trkpt>
      <trkpt lat="48.88054" lon="7.45343">
        <ele>235</ele>
        <time>2021-08-08T04:48:15Z</time>
      </trkpt>
      <trkpt lat="48.88054" lon="7.45343">
        <ele>235</ele>
        <time>2021-08-08T04:48:16Z</time>
      </trkpt>
      <trkpt lat="48.88056" lon="7.45343">
        <ele>236</ele>
        <time>2021-08-08T04:48:17Z</time>
      </trkpt>
      <trkpt lat="48.88056" lon="7.45343">
        <ele>236</ele>
        <time>2021-08-08T04:48:18Z</time>
      </trkpt>
      <trkpt lat="48.88058" lon="7.45344">
        <ele>236</ele>
        <time>2021-08-08T04:48:19Z</time>
      </trkpt>
      <trkpt lat="48.88058" lon="7.45344">
        <ele>236</ele>
        <time>2021-08-08T04:48:20Z</time>
      </trkpt>
      <trkpt lat="48.88061" lon="7.45343">
        <ele>236</ele>
        <time>2021-08-08T04:48:23Z</time>
      </trkpt>
      <trkpt lat="48.88061" lon="7.45343">
        <ele>237</ele>
        <time>2021-08-08T04:48:24Z</time>
      </trkpt>
      <trkpt lat="48.88065" lon="7.45345">
        <ele>237</ele>
        <time>2021-08-08T04:48:25Z</time>
      </trkpt>
      <trkpt lat="48.88065" lon="7.45345">
        <ele>237</ele>
        <time>2021-08-08T04:48:26Z</time>
      </trkpt>
      <trkpt lat="48.8807" lon="7.45345">
        <ele>237</ele>
        <time>2021-08-08T04:48:27Z</time>
      </trkpt>
      <trkpt lat="48.8807" lon="7.45345">
        <ele>238</ele>
        <time>2021-08-08T04:48:28Z</time>
      </trkpt>
      <trkpt lat="48.88072" lon="7.45345">
        <ele>238</ele>
        <time>2021-08-08T04:48:29Z</time>
      </trkpt>
      <trkpt lat="48.88072" lon="7.45345">
        <ele>238</ele>
        <time>2021-08-08T04:48:30Z</time>
      </trkpt>
      <trkpt lat="48.88074" lon="7.45344">
        <ele>238</ele>
        <time>2021-08-08T04:48:31Z</time>
      </trkpt>
      <trkpt lat="48.88074" lon="7.45344">
        <ele>239</ele>
        <time>2021-08-08T04:48:32Z</time>
      </trkpt>
      <trkpt lat="48.88075" lon="7.45342">
        <ele>239</ele>
        <time>2021-08-08T04:48:33Z</time>
      </trkpt>
      <trkpt lat="48.88075" lon="7.45342">
        <ele>239</ele>
        <time>2021-08-08T04:48:34Z</time>
      </trkpt>
      <trkpt lat="48.88076" lon="7.4534">
        <ele>239</ele>
        <time>2021-08-08T04:48:35Z</time>
      </trkpt>
      <trkpt lat="48.88077" lon="7.45339">
        <ele>239</ele>
        <time>2021-08-08T04:48:36Z</time>
      </trkpt>
      <trkpt lat="48.88077" lon="7.45339">
        <ele>239</ele>
        <time>2021-08-08T04:48:37Z</time>
      </trkpt>
      <trkpt lat="48.88077" lon="7.45339">
        <ele>240</ele>
        <time>2021-08-08T04:48:38Z</time>
      </trkpt>
      <trkpt lat="48.88078" lon="7.45336">
        <ele>240</ele>
        <time>2021-08-08T04:48:39Z</time>
      </trkpt>
      <trkpt lat="48.88078" lon="7.45336">
        <ele>240</ele>
        <time>2021-08-08T04:48:40Z</time>
      </trkpt>
      <trkpt lat="48.88078" lon="7.45333">
        <ele>241</ele>
        <time>2021-08-08T04:48:41Z</time>
      </trkpt>
      <trkpt lat="48.88078" lon="7.45333">
        <ele>241</ele>
        <time>2021-08-08T04:48:42Z</time>
      </trkpt>
      <trkpt lat="48.88078" lon="7.45331">
        <ele>241</ele>
        <time>2021-08-08T04:48:43Z</time>
      </trkpt>
      <trkpt lat="48.88078" lon="7.45331">
        <ele>241</ele>
        <time>2021-08-08T04:48:44Z</time>
      </trkpt>
      <trkpt lat="48.88081" lon="7.45327">
        <ele>241</ele>
        <time>2021-08-08T04:48:45Z</time>
      </trkpt>
      <trkpt lat="48.88081" lon="7.45327">
        <ele>241</ele>
        <time>2021-08-08T04:48:46Z</time>
      </trkpt>
      <trkpt lat="48.88082" lon="7.45324">
        <ele>242</ele>
        <time>2021-08-08T04:48:47Z</time>
      </trkpt>
      <trkpt lat="48.88082" lon="7.45322">
        <ele>242</ele>
        <time>2021-08-08T04:48:48Z</time>
      </trkpt>
      <trkpt lat="48.88082" lon="7.45322">
        <ele>242</ele>
        <time>2021-08-08T04:48:49Z</time>
      </trkpt>
      <trkpt lat="48.88083" lon="7.45319">
        <ele>242</ele>
        <time>2021-08-08T04:48:50Z</time>
      </trkpt>
      <trkpt lat="48.88083" lon="7.45317">
        <ele>242</ele>
        <time>2021-08-08T04:48:51Z</time>
      </trkpt>
      <trkpt lat="48.88083" lon="7.45317">
        <ele>243</ele>
        <time>2021-08-08T04:48:52Z</time>
      </trkpt>
      <trkpt lat="48.88082" lon="7.45314">
        <ele>243</ele>
        <time>2021-08-08T04:48:53Z</time>
      </trkpt>
      <trkpt lat="48.8808" lon="7.45312">
        <ele>243</ele>
        <time>2021-08-08T04:48:54Z</time>
      </trkpt>
      <trkpt lat="48.8808" lon="7.45312">
        <ele>243</ele>
        <time>2021-08-08T04:48:55Z</time>
      </trkpt>
      <trkpt lat="48.88079" lon="7.45308">
        <ele>244</ele>
        <time>2021-08-08T04:48:56Z</time>
      </trkpt>
      <trkpt lat="48.88079" lon="7.45306">
        <ele>244</ele>
        <time>2021-08-08T04:48:57Z</time>
      </trkpt>
      <trkpt lat="48.88079" lon="7.45306">
        <ele>244</ele>
        <time>2021-08-08T04:48:58Z</time>
      </trkpt>
      <trkpt lat="48.88076" lon="7.45303">
        <ele>244</ele>
        <time>2021-08-08T04:48:59Z</time>
      </trkpt>
      <trkpt lat="48.88076" lon="7.45303">
        <ele>244</ele>
        <time>2021-08-08T04:49:00Z</time>
      </trkpt>
      <trkpt lat="48.88074" lon="7.453">
        <ele>244</ele>
        <time>2021-08-08T04:49:01Z</time>
      </trkpt>
      <trkpt lat="48.88074" lon="7.453">
        <ele>244</ele>
        <time>2021-08-08T04:49:02Z</time>
      </trkpt>
      <trkpt lat="48.88073" lon="7.45299">
        <ele>244</ele>
        <time>2021-08-08T04:49:03Z</time>
      </trkpt>
      <trkpt lat="48.88072" lon="7.45297">
        <ele>245</ele>
        <time>2021-08-08T04:49:04Z</time>
      </trkpt>
      <trkpt lat="48.88072" lon="7.45297">
        <ele>245</ele>
        <time>2021-08-08T04:49:05Z</time>
      </trkpt>
      <trkpt lat="48.88072" lon="7.45295">
        <ele>245</ele>
        <time>2021-08-08T04:49:06Z</time>
      </trkpt>
      <trkpt lat="48.88071" lon="7.45294">
        <ele>245</ele>
        <time>2021-08-08T04:49:07Z</time>
      </trkpt>
      <trkpt lat="48.88071" lon="7.45294">
        <ele>246</ele>
        <time>2021-08-08T04:49:08Z</time>
      </trkpt>
      <trkpt lat="48.8807" lon="7.45291">
        <ele>246</ele>
        <time>2021-08-08T04:49:09Z</time>
      </trkpt>
      <trkpt lat="48.88069" lon="7.4529">
        <ele>246</ele>
        <time>2021-08-08T04:49:10Z</time>
      </trkpt>
      <trkpt lat="48.88069" lon="7.4529">
        <ele>246</ele>
        <time>2021-08-08T04:49:11Z</time>
      </trkpt>
      <trkpt lat="48.88067" lon="7.45287">
        <ele>248</ele>
        <time>2021-08-08T04:49:12Z</time>
      </trkpt>
      <trkpt lat="48.88066" lon="7.45285">
        <ele>248</ele>
        <time>2021-08-08T04:49:13Z</time>
      </trkpt>
      <trkpt lat="48.88066" lon="7.45285">
        <ele>248</ele>
        <time>2021-08-08T04:49:14Z</time>
      </trkpt>
      <trkpt lat="48.88064" lon="7.45282">
        <ele>248</ele>
        <time>2021-08-08T04:49:15Z</time>
      </trkpt>
      <trkpt lat="48.88064" lon="7.45282">
        <ele>248</ele>
        <time>2021-08-08T04:49:16Z</time>
      </trkpt>
      <trkpt lat="48.88062" lon="7.4528">
        <ele>248</ele>
        <time>2021-08-08T04:49:17Z</time>
      </trkpt>
      <trkpt lat="48.88062" lon="7.4528">
        <ele>248</ele>
        <time>2021-08-08T04:49:18Z</time>
      </trkpt>
      <trkpt lat="48.88061" lon="7.45277">
        <ele>248</ele>
        <time>2021-08-08T04:49:19Z</time>
      </trkpt>
      <trkpt lat="48.88061" lon="7.45277">
        <ele>249</ele>
        <time>2021-08-08T04:49:20Z</time>
      </trkpt>
      <trkpt lat="48.8806" lon="7.45275">
        <ele>249</ele>
        <time>2021-08-08T04:49:21Z</time>
      </trkpt>
      <trkpt lat="48.8806" lon="7.45275">
        <ele>249</ele>
        <time>2021-08-08T04:49:22Z</time>
      </trkpt>
      <trkpt lat="48.88057" lon="7.45272">
        <ele>249</ele>
        <time>2021-08-08T04:49:23Z</time>
      </trkpt>
      <trkpt lat="48.88057" lon="7.45272">
        <ele>250</ele>
        <time>2021-08-08T04:49:24Z</time>
      </trkpt>
      <trkpt lat="48.88055" lon="7.45268">
        <ele>250</ele>
        <time>2021-08-08T04:49:25Z</time>
      </trkpt>
      <trkpt lat="48.88055" lon="7.45268">
        <ele>250</ele>
        <time>2021-08-08T04:49:26Z</time>
      </trkpt>
      <trkpt lat="48.88053" lon="7.45265">
        <ele>250</ele>
        <time>2021-08-08T04:49:27Z</time>
      </trkpt>
      <trkpt lat="48.88053" lon="7.45265">
        <ele>250</ele>
        <time>2021-08-08T04:49:28Z</time>
      </trkpt>
      <trkpt lat="48.88051" lon="7.45261">
        <ele>251</ele>
        <time>2021-08-08T04:49:29Z</time>
      </trkpt>
      <trkpt lat="48.88051" lon="7.45261">
        <ele>251</ele>
        <time>2021-08-08T04:49:30Z</time>
      </trkpt>
      <trkpt lat="48.88049" lon="7.45259">
        <ele>251</ele>
        <time>2021-08-08T04:49:31Z</time>
      </trkpt>
      <trkpt lat="48.88049" lon="7.45259">
        <ele>251</ele>
        <time>2021-08-08T04:49:32Z</time>
      </trkpt>
      <trkpt lat="48.88047" lon="7.45256">
        <ele>252</ele>
        <time>2021-08-08T04:49:33Z</time>
      </trkpt>
      <trkpt lat="48.88047" lon="7.45256">
        <ele>252</ele>
        <time>2021-08-08T04:49:34Z</time>
      </trkpt>
      <trkpt lat="48.88046" lon="7.45254">
        <ele>252</ele>
        <time>2021-08-08T04:49:35Z</time>
      </trkpt>
      <trkpt lat="48.88044" lon="7.45253">
        <ele>253</ele>
        <time>2021-08-08T04:49:36Z</time>
      </trkpt>
      <trkpt lat="48.88043" lon="7.45251">
        <ele>253</ele>
        <time>2021-08-08T04:49:37Z</time>
      </trkpt>
      <trkpt lat="48.88043" lon="7.45251">
        <ele>253</ele>
        <time>2021-08-08T04:49:38Z</time>
      </trkpt>
      <trkpt lat="48.88042" lon="7.45248">
        <ele>253</ele>
        <time>2021-08-08T04:49:39Z</time>
      </trkpt>
      <trkpt lat="48.88041" lon="7.45246">
        <ele>253</ele>
        <time>2021-08-08T04:49:40Z</time>
      </trkpt>
      <trkpt lat="48.88041" lon="7.45246">
        <ele>253</ele>
        <time>2021-08-08T04:49:41Z</time>
      </trkpt>
      <trkpt lat="48.8804" lon="7.45243">
        <ele>254</ele>
        <time>2021-08-08T04:49:42Z</time>
      </trkpt>
      <trkpt lat="48.88039" lon="7.45241">
        <ele>254</ele>
        <time>2021-08-08T04:49:43Z</time>
      </trkpt>
      <trkpt lat="48.88039" lon="7.45241">
        <ele>254</ele>
        <time>2021-08-08T04:49:44Z</time>
      </trkpt>
      <trkpt lat="48.88038" lon="7.45238">
        <ele>254</ele>
        <time>2021-08-08T04:49:45Z</time>
      </trkpt>
      <trkpt lat="48.88038" lon="7.45238">
        <ele>255</ele>
        <time>2021-08-08T04:49:46Z</time>
      </trkpt>
      <trkpt lat="48.88037" lon="7.45235">
        <ele>255</ele>
        <time>2021-08-08T04:49:47Z</time>
      </trkpt>
      <trkpt lat="48.88037" lon="7.45235">
        <ele>255</ele>
        <time>2021-08-08T04:49:48Z</time>
      </trkpt>
      <trkpt lat="48.88036" lon="7.45232">
        <ele>255</ele>
        <time>2021-08-08T04:49:49Z</time>
      </trkpt>
      <trkpt lat="48.88036" lon="7.45232">
        <ele>255</ele>
        <time>2021-08-08T04:49:50Z</time>
      </trkpt>
      <trkpt lat="48.88035" lon="7.45229">
        <ele>255</ele>
        <time>2021-08-08T04:49:51Z</time>
      </trkpt>
      <trkpt lat="48.88035" lon="7.45228">
        <ele>256</ele>
        <time>2021-08-08T04:49:52Z</time>
      </trkpt>
      <trkpt lat="48.88035" lon="7.45228">
        <ele>256</ele>
        <time>2021-08-08T04:49:53Z</time>
      </trkpt>
      <trkpt lat="48.88033" lon="7.45225">
        <ele>256</ele>
        <time>2021-08-08T04:49:54Z</time>
      </trkpt>
      <trkpt lat="48.88033" lon="7.45223">
        <ele>256</ele>
        <time>2021-08-08T04:49:55Z</time>
      </trkpt>
      <trkpt lat="48.88033" lon="7.45223">
        <ele>257</ele>
        <time>2021-08-08T04:49:56Z</time>
      </trkpt>
      <trkpt lat="48.88031" lon="7.4522">
        <ele>257</ele>
        <time>2021-08-08T04:49:57Z</time>
      </trkpt>
      <trkpt lat="48.88031" lon="7.4522">
        <ele>257</ele>
        <time>2021-08-08T04:49:58Z</time>
      </trkpt>
      <trkpt lat="48.88029" lon="7.45216">
        <ele>257</ele>
        <time>2021-08-08T04:49:59Z</time>
      </trkpt>
      <trkpt lat="48.88029" lon="7.45216">
        <ele>258</ele>
        <time>2021-08-08T04:50:00Z</time>
      </trkpt>
      <trkpt lat="48.88027" lon="7.45211">
        <ele>258</ele>
        <time>2021-08-08T04:50:01Z</time>
      </trkpt>
      <trkpt lat="48.88027" lon="7.45211">
        <ele>258</ele>
        <time>2021-08-08T04:50:02Z</time>
      </trkpt>
      <trkpt lat="48.88025" lon="7.45208">
        <ele>258</ele>
        <time>2021-08-08T04:50:03Z</time>
      </trkpt>
      <trkpt lat="48.88025" lon="7.45206">
        <ele>258</ele>
        <time>2021-08-08T04:50:04Z</time>
      </trkpt>
      <trkpt lat="48.88025" lon="7.45206">
        <ele>258</ele>
        <time>2021-08-08T04:50:05Z</time>
      </trkpt>
      <trkpt lat="48.88024" lon="7.45203">
        <ele>259</ele>
        <time>2021-08-08T04:50:06Z</time>
      </trkpt>
      <trkpt lat="48.88024" lon="7.45201">
        <ele>259</ele>
        <time>2021-08-08T04:50:07Z</time>
      </trkpt>
      <trkpt lat="48.88024" lon="7.45201">
        <ele>259</ele>
        <time>2021-08-08T04:50:08Z</time>
      </trkpt>
      <trkpt lat="48.88023" lon="7.45198">
        <ele>259</ele>
        <time>2021-08-08T04:50:09Z</time>
      </trkpt>
      <trkpt lat="48.88023" lon="7.45198">
        <ele>259</ele>
        <time>2021-08-08T04:50:10Z</time>
      </trkpt>
      <trkpt lat="48.88022" lon="7.45195">
        <ele>259</ele>
        <time>2021-08-08T04:50:11Z</time>
      </trkpt>
      <trkpt lat="48.88022" lon="7.45194">
        <ele>260</ele>
        <time>2021-08-08T04:50:12Z</time>
      </trkpt>
      <trkpt lat="48.88022" lon="7.45194">
        <ele>260</ele>
        <time>2021-08-08T04:50:13Z</time>
      </trkpt>
      <trkpt lat="48.88022" lon="7.45191">
        <ele>260</ele>
        <time>2021-08-08T04:50:14Z</time>
      </trkpt>
      <trkpt lat="48.88022" lon="7.45189">
        <ele>260</ele>
        <time>2021-08-08T04:50:15Z</time>
      </trkpt>
      <trkpt lat="48.88022" lon="7.45189">
        <ele>260</ele>
        <time>2021-08-08T04:50:16Z</time>
      </trkpt>
      <trkpt lat="48.8802" lon="7.45186">
        <ele>260</ele>
        <time>2021-08-08T04:50:17Z</time>
      </trkpt>
      <trkpt lat="48.8802" lon="7.45186">
        <ele>260</ele>
        <time>2021-08-08T04:50:18Z</time>
      </trkpt>
      <trkpt lat="48.88019" lon="7.45183">
        <ele>260</ele>
        <time>2021-08-08T04:50:19Z</time>
      </trkpt>
      <trkpt lat="48.88019" lon="7.45183">
        <ele>261</ele>
        <time>2021-08-08T04:50:20Z</time>
      </trkpt>
      <trkpt lat="48.88019" lon="7.45179">
        <ele>261</ele>
        <time>2021-08-08T04:50:21Z</time>
      </trkpt>
      <trkpt lat="48.88019" lon="7.45179">
        <ele>261</ele>
        <time>2021-08-08T04:50:22Z</time>
      </trkpt>
      <trkpt lat="48.88018" lon="7.45175">
        <ele>261</ele>
        <time>2021-08-08T04:50:23Z</time>
      </trkpt>
      <trkpt lat="48.88017" lon="7.45173">
        <ele>262</ele>
        <time>2021-08-08T04:50:24Z</time>
      </trkpt>
      <trkpt lat="48.88016" lon="7.45171">
        <ele>262</ele>
        <time>2021-08-08T04:50:25Z</time>
      </trkpt>
      <trkpt lat="48.88016" lon="7.45171">
        <ele>262</ele>
        <time>2021-08-08T04:50:26Z</time>
      </trkpt>
      <trkpt lat="48.88015" lon="7.45168">
        <ele>262</ele>
        <time>2021-08-08T04:50:27Z</time>
      </trkpt>
      <trkpt lat="48.88015" lon="7.45168">
        <ele>262</ele>
        <time>2021-08-08T04:50:28Z</time>
      </trkpt>
      <trkpt lat="48.88014" lon="7.45163">
        <ele>262</ele>
        <time>2021-08-08T04:50:29Z</time>
      </trkpt>
      <trkpt lat="48.88015" lon="7.45161">
        <ele>263</ele>
        <time>2021-08-08T04:50:30Z</time>
      </trkpt>
      <trkpt lat="48.88014" lon="7.45159">
        <ele>263</ele>
        <time>2021-08-08T04:50:31Z</time>
      </trkpt>
      <trkpt lat="48.88014" lon="7.45159">
        <ele>263</ele>
        <time>2021-08-08T04:50:32Z</time>
      </trkpt>
      <trkpt lat="48.88013" lon="7.45154">
        <ele>263</ele>
        <time>2021-08-08T04:50:33Z</time>
      </trkpt>
      <trkpt lat="48.88013" lon="7.45152">
        <ele>263</ele>
        <time>2021-08-08T04:50:34Z</time>
      </trkpt>
      <trkpt lat="48.88013" lon="7.45152">
        <ele>264</ele>
        <time>2021-08-08T04:50:35Z</time>
      </trkpt>
      <trkpt lat="48.88013" lon="7.45148">
        <ele>264</ele>
        <time>2021-08-08T04:50:36Z</time>
      </trkpt>
      <trkpt lat="48.88012" lon="7.45146">
        <ele>264</ele>
        <time>2021-08-08T04:50:37Z</time>
      </trkpt>
      <trkpt lat="48.88012" lon="7.45146">
        <ele>264</ele>
        <time>2021-08-08T04:50:38Z</time>
      </trkpt>
      <trkpt lat="48.88011" lon="7.45142">
        <ele>264</ele>
        <time>2021-08-08T04:50:39Z</time>
      </trkpt>
      <trkpt lat="48.88012" lon="7.4514">
        <ele>264</ele>
        <time>2021-08-08T04:50:40Z</time>
      </trkpt>
      <trkpt lat="48.88012" lon="7.4514">
        <ele>264</ele>
        <time>2021-08-08T04:50:41Z</time>
      </trkpt>
      <trkpt lat="48.88011" lon="7.45137">
        <ele>265</ele>
        <time>2021-08-08T04:50:42Z</time>
      </trkpt>
      <trkpt lat="48.88011" lon="7.45135">
        <ele>265</ele>
        <time>2021-08-08T04:50:43Z</time>
      </trkpt>
      <trkpt lat="48.8801" lon="7.45133">
        <ele>265</ele>
        <time>2021-08-08T04:50:44Z</time>
      </trkpt>
      <trkpt lat="48.8801" lon="7.45133">
        <ele>265</ele>
        <time>2021-08-08T04:50:45Z</time>
      </trkpt>
      <trkpt lat="48.88009" lon="7.4513">
        <ele>265</ele>
        <time>2021-08-08T04:50:46Z</time>
      </trkpt>
      <trkpt lat="48.88009" lon="7.4513">
        <ele>265</ele>
        <time>2021-08-08T04:50:47Z</time>
      </trkpt>
      <trkpt lat="48.8801" lon="7.45126">
        <ele>266</ele>
        <time>2021-08-08T04:50:48Z</time>
      </trkpt>
      <trkpt lat="48.88009" lon="7.45124">
        <ele>266</ele>
        <time>2021-08-08T04:50:49Z</time>
      </trkpt>
      <trkpt lat="48.88009" lon="7.45124">
        <ele>266</ele>
        <time>2021-08-08T04:50:50Z</time>
      </trkpt>
      <trkpt lat="48.88009" lon="7.45121">
        <ele>266</ele>
        <time>2021-08-08T04:50:51Z</time>
      </trkpt>
      <trkpt lat="48.88009" lon="7.45121">
        <ele>267</ele>
        <time>2021-08-08T04:50:52Z</time>
      </trkpt>
      <trkpt lat="48.88008" lon="7.45118">
        <ele>267</ele>
        <time>2021-08-08T04:50:53Z</time>
      </trkpt>
      <trkpt lat="48.88008" lon="7.45117">
        <ele>267</ele>
        <time>2021-08-08T04:50:54Z</time>
      </trkpt>
      <trkpt lat="48.88007" lon="7.45115">
        <ele>267</ele>
        <time>2021-08-08T04:50:55Z</time>
      </trkpt>
      <trkpt lat="48.88007" lon="7.45114">
        <ele>267</ele>
        <time>2021-08-08T04:50:56Z</time>
      </trkpt>
      <trkpt lat="48.88007" lon="7.45114">
        <ele>267</ele>
        <time>2021-08-08T04:50:57Z</time>
      </trkpt>
      <trkpt lat="48.88008" lon="7.45108">
        <ele>268</ele>
        <time>2021-08-08T04:50:58Z</time>
      </trkpt>
      <trkpt lat="48.88008" lon="7.45108">
        <ele>268</ele>
        <time>2021-08-08T04:50:59Z</time>
      </trkpt>
      <trkpt lat="48.88008" lon="7.451">
        <ele>268</ele>
        <time>2021-08-08T04:51:00Z</time>
      </trkpt>
      <trkpt lat="48.88008" lon="7.451">
        <ele>268</ele>
        <time>2021-08-08T04:51:01Z</time>
      </trkpt>
      <trkpt lat="48.88006" lon="7.45094">
        <ele>269</ele>
        <time>2021-08-08T04:51:02Z</time>
      </trkpt>
      <trkpt lat="48.88006" lon="7.45094">
        <ele>269</ele>
        <time>2021-08-08T04:51:03Z</time>
      </trkpt>
      <trkpt lat="48.88005" lon="7.4509">
        <ele>269</ele>
        <time>2021-08-08T04:51:04Z</time>
      </trkpt>
      <trkpt lat="48.88005" lon="7.45088">
        <ele>269</ele>
        <time>2021-08-08T04:51:05Z</time>
      </trkpt>
      <trkpt lat="48.88005" lon="7.45088">
        <ele>270</ele>
        <time>2021-08-08T04:51:06Z</time>
      </trkpt>
      <trkpt lat="48.88005" lon="7.45087">
        <ele>270</ele>
        <time>2021-08-08T04:51:07Z</time>
      </trkpt>
      <trkpt lat="48.88005" lon="7.45087">
        <ele>270</ele>
        <time>2021-08-08T04:51:08Z</time>
      </trkpt>
      <trkpt lat="48.88004" lon="7.45084">
        <ele>270</ele>
        <time>2021-08-08T04:51:09Z</time>
      </trkpt>
      <trkpt lat="48.88004" lon="7.45084">
        <ele>271</ele>
        <time>2021-08-08T04:51:10Z</time>
      </trkpt>
      <trkpt lat="48.88003" lon="7.45081">
        <ele>271</ele>
        <time>2021-08-08T04:51:11Z</time>
      </trkpt>
      <trkpt lat="48.88003" lon="7.45081">
        <ele>271</ele>
        <time>2021-08-08T04:51:12Z</time>
      </trkpt>
      <trkpt lat="48.88003" lon="7.45078">
        <ele>271</ele>
        <time>2021-08-08T04:51:13Z</time>
      </trkpt>
      <trkpt lat="48.88003" lon="7.45078">
        <ele>272</ele>
        <time>2021-08-08T04:51:14Z</time>
      </trkpt>
      <trkpt lat="48.88002" lon="7.45076">
        <ele>272</ele>
        <time>2021-08-08T04:51:15Z</time>
      </trkpt>
      <trkpt lat="48.88002" lon="7.45075">
        <ele>272</ele>
        <time>2021-08-08T04:51:16Z</time>
      </trkpt>
      <trkpt lat="48.88002" lon="7.45075">
        <ele>272</ele>
        <time>2021-08-08T04:51:17Z</time>
      </trkpt>
      <trkpt lat="48.88001" lon="7.45073">
        <ele>272</ele>
        <time>2021-08-08T04:51:18Z</time>
      </trkpt>
      <trkpt lat="48.88001" lon="7.45073">
        <ele>272</ele>
        <time>2021-08-08T04:51:19Z</time>
      </trkpt>
      <trkpt lat="48.88001" lon="7.4507">
        <ele>273</ele>
        <time>2021-08-08T04:51:20Z</time>
      </trkpt>
      <trkpt lat="48.88" lon="7.45069">
        <ele>273</ele>
        <time>2021-08-08T04:51:21Z</time>
      </trkpt>
      <trkpt lat="48.88" lon="7.45069">
        <ele>273</ele>
        <time>2021-08-08T04:51:22Z</time>
      </trkpt>
      <trkpt lat="48.88" lon="7.45067">
        <ele>273</ele>
        <time>2021-08-08T04:51:23Z</time>
      </trkpt>
      <trkpt lat="48.88" lon="7.45067">
        <ele>273</ele>
        <time>2021-08-08T04:51:24Z</time>
      </trkpt>
      <trkpt lat="48.87997" lon="7.45065">
        <ele>273</ele>
        <time>2021-08-08T04:51:25Z</time>
      </trkpt>
      <trkpt lat="48.87997" lon="7.45063">
        <ele>273</ele>
        <time>2021-08-08T04:51:26Z</time>
      </trkpt>
      <trkpt lat="48.87997" lon="7.45063">
        <ele>273</ele>
        <time>2021-08-08T04:51:27Z</time>
      </trkpt>
      <trkpt lat="48.87996" lon="7.45059">
        <ele>273</ele>
        <time>2021-08-08T04:51:28Z</time>
      </trkpt>
      <trkpt lat="48.87996" lon="7.45059">
        <ele>273</ele>
        <time>2021-08-08T04:51:29Z</time>
      </trkpt>
      <trkpt lat="48.87994" lon="7.45056">
        <ele>273</ele>
        <time>2021-08-08T04:51:30Z</time>
      </trkpt>
      <trkpt lat="48.87994" lon="7.45056">
        <ele>274</ele>
        <time>2021-08-08T04:51:31Z</time>
      </trkpt>
      <trkpt lat="48.87992" lon="7.45049">
        <ele>274</ele>
        <time>2021-08-08T04:51:32Z</time>
      </trkpt>
      <trkpt lat="48.87992" lon="7.45049">
        <ele>274</ele>
        <time>2021-08-08T04:51:33Z</time>
      </trkpt>
      <trkpt lat="48.87987" lon="7.45045">
        <ele>274</ele>
        <time>2021-08-08T04:51:34Z</time>
      </trkpt>
      <trkpt lat="48.87987" lon="7.45043">
        <ele>274</ele>
        <time>2021-08-08T04:51:35Z</time>
      </trkpt>
      <trkpt lat="48.87987" lon="7.45043">
        <ele>274</ele>
        <time>2021-08-08T04:51:36Z</time>
      </trkpt>
      <trkpt lat="48.87985" lon="7.45039">
        <ele>274</ele>
        <time>2021-08-08T04:51:37Z</time>
      </trkpt>
      <trkpt lat="48.87985" lon="7.45039">
        <ele>274</ele>
        <time>2021-08-08T04:51:38Z</time>
      </trkpt>
      <trkpt lat="48.87984" lon="7.45036">
        <ele>275</ele>
        <time>2021-08-08T04:51:39Z</time>
      </trkpt>
      <trkpt lat="48.87984" lon="7.45036">
        <ele>275</ele>
        <time>2021-08-08T04:51:40Z</time>
      </trkpt>
      <trkpt lat="48.87981" lon="7.45032">
        <ele>275</ele>
        <time>2021-08-08T04:51:41Z</time>
      </trkpt>
      <trkpt lat="48.87981" lon="7.45032">
        <ele>275</ele>
        <time>2021-08-08T04:51:42Z</time>
      </trkpt>
      <trkpt lat="48.87979" lon="7.45027">
        <ele>275</ele>
        <time>2021-08-08T04:51:43Z</time>
      </trkpt>
      <trkpt lat="48.87978" lon="7.45025">
        <ele>275</ele>
        <time>2021-08-08T04:51:44Z</time>
      </trkpt>
      <trkpt lat="48.87978" lon="7.45025">
        <ele>275</ele>
        <time>2021-08-08T04:51:45Z</time>
      </trkpt>
      <trkpt lat="48.87976" lon="7.45022">
        <ele>275</ele>
        <time>2021-08-08T04:51:46Z</time>
      </trkpt>
      <trkpt lat="48.87976" lon="7.45022">
        <ele>276</ele>
        <time>2021-08-08T04:51:47Z</time>
      </trkpt>
      <trkpt lat="48.87976" lon="7.4502">
        <ele>276</ele>
        <time>2021-08-08T04:51:48Z</time>
      </trkpt>
      <trkpt lat="48.87975" lon="7.45018">
        <ele>276</ele>
        <time>2021-08-08T04:51:49Z</time>
      </trkpt>
      <trkpt lat="48.87975" lon="7.45018">
        <ele>276</ele>
        <time>2021-08-08T04:51:50Z</time>
      </trkpt>
      <trkpt lat="48.87975" lon="7.45015">
        <ele>276</ele>
        <time>2021-08-08T04:51:51Z</time>
      </trkpt>
      <trkpt lat="48.87975" lon="7.45015">
        <ele>276</ele>
        <time>2021-08-08T04:51:52Z</time>
      </trkpt>
      <trkpt lat="48.87975" lon="7.45011">
        <ele>276</ele>
        <time>2021-08-08T04:51:53Z</time>
      </trkpt>
      <trkpt lat="48.87975" lon="7.45011">
        <ele>276</ele>
        <time>2021-08-08T04:51:54Z</time>
      </trkpt>
      <trkpt lat="48.87976" lon="7.45006">
        <ele>276</ele>
        <time>2021-08-08T04:51:55Z</time>
      </trkpt>
      <trkpt lat="48.87976" lon="7.45006">
        <ele>276</ele>
        <time>2021-08-08T04:51:56Z</time>
      </trkpt>
      <trkpt lat="48.87975" lon="7.45002">
        <ele>276</ele>
        <time>2021-08-08T04:51:57Z</time>
      </trkpt>
      <trkpt lat="48.87975" lon="7.45002">
        <ele>276</ele>
        <time>2021-08-08T04:51:58Z</time>
      </trkpt>
      <trkpt lat="48.87973" lon="7.44998">
        <ele>276</ele>
        <time>2021-08-08T04:51:59Z</time>
      </trkpt>
      <trkpt lat="48.87973" lon="7.44996">
        <ele>276</ele>
        <time>2021-08-08T04:52:00Z</time>
      </trkpt>
      <trkpt lat="48.87973" lon="7.44996">
        <ele>277</ele>
        <time>2021-08-08T04:52:01Z</time>
      </trkpt>
      <trkpt lat="48.87972" lon="7.44992">
        <ele>277</ele>
        <time>2021-08-08T04:52:02Z</time>
      </trkpt>
      <trkpt lat="48.87972" lon="7.44992">
        <ele>277</ele>
        <time>2021-08-08T04:52:03Z</time>
      </trkpt>
      <trkpt lat="48.87971" lon="7.44985">
        <ele>277</ele>
        <time>2021-08-08T04:52:04Z</time>
      </trkpt>
      <trkpt lat="48.8797" lon="7.44981">
        <ele>277</ele>
        <time>2021-08-08T04:52:05Z</time>
      </trkpt>
      <trkpt lat="48.87969" lon="7.44977">
        <ele>277</ele>
        <time>2021-08-08T04:52:06Z</time>
      </trkpt>
      <trkpt lat="48.87969" lon="7.44977">
        <ele>277</ele>
        <time>2021-08-08T04:52:07Z</time>
      </trkpt>
      <trkpt lat="48.87968" lon="7.44971">
        <ele>277</ele>
        <time>2021-08-08T04:52:08Z</time>
      </trkpt>
      <trkpt lat="48.87968" lon="7.44967">
        <ele>278</ele>
        <time>2021-08-08T04:52:09Z</time>
      </trkpt>
      <trkpt lat="48.87968" lon="7.44967">
        <ele>278</ele>
        <time>2021-08-08T04:52:10Z</time>
      </trkpt>
      <trkpt lat="48.87967" lon="7.44963">
        <ele>278</ele>
        <time>2021-08-08T04:52:11Z</time>
      </trkpt>
      <trkpt lat="48.87967" lon="7.44963">
        <ele>278</ele>
        <time>2021-08-08T04:52:12Z</time>
      </trkpt>
      <trkpt lat="48.87967" lon="7.44959">
        <ele>278</ele>
        <time>2021-08-08T04:52:13Z</time>
      </trkpt>
      <trkpt lat="48.87967" lon="7.44959">
        <ele>278</ele>
        <time>2021-08-08T04:52:14Z</time>
      </trkpt>
      <trkpt lat="48.87965" lon="7.44954">
        <ele>279</ele>
        <time>2021-08-08T04:52:15Z</time>
      </trkpt>
      <trkpt lat="48.87964" lon="7.44953">
        <ele>279</ele>
        <time>2021-08-08T04:52:16Z</time>
      </trkpt>
      <trkpt lat="48.87964" lon="7.44953">
        <ele>279</ele>
        <time>2021-08-08T04:52:17Z</time>
      </trkpt>
      <trkpt lat="48.87961" lon="7.44948">
        <ele>279</ele>
        <time>2021-08-08T04:52:18Z</time>
      </trkpt>
      <trkpt lat="48.8796" lon="7.44946">
        <ele>280</ele>
        <time>2021-08-08T04:52:19Z</time>
      </trkpt>
      <trkpt lat="48.8796" lon="7.44946">
        <ele>280</ele>
        <time>2021-08-08T04:52:20Z</time>
      </trkpt>
      <trkpt lat="48.87959" lon="7.44942">
        <ele>280</ele>
        <time>2021-08-08T04:52:21Z</time>
      </trkpt>
      <trkpt lat="48.87959" lon="7.44942">
        <ele>280</ele>
        <time>2021-08-08T04:52:22Z</time>
      </trkpt>
      <trkpt lat="48.87958" lon="7.44939">
        <ele>280</ele>
        <time>2021-08-08T04:52:23Z</time>
      </trkpt>
      <trkpt lat="48.87958" lon="7.44937">
        <ele>280</ele>
        <time>2021-08-08T04:52:24Z</time>
      </trkpt>
      <trkpt lat="48.87958" lon="7.44937">
        <ele>280</ele>
        <time>2021-08-08T04:52:25Z</time>
      </trkpt>
      <trkpt lat="48.87956" lon="7.44932">
        <ele>280</ele>
        <time>2021-08-08T04:52:26Z</time>
      </trkpt>
      <trkpt lat="48.87956" lon="7.44932">
        <ele>280</ele>
        <time>2021-08-08T04:52:27Z</time>
      </trkpt>
      <trkpt lat="48.87955" lon="7.44925">
        <ele>280</ele>
        <time>2021-08-08T04:52:28Z</time>
      </trkpt>
      <trkpt lat="48.87955" lon="7.44925">
        <ele>280</ele>
        <time>2021-08-08T04:52:29Z</time>
      </trkpt>
      <trkpt lat="48.87954" lon="7.44917">
        <ele>280</ele>
        <time>2021-08-08T04:52:30Z</time>
      </trkpt>
      <trkpt lat="48.87954" lon="7.44917">
        <ele>280</ele>
        <time>2021-08-08T04:52:31Z</time>
      </trkpt>
      <trkpt lat="48.87956" lon="7.44906">
        <ele>280</ele>
        <time>2021-08-08T04:52:32Z</time>
      </trkpt>
      <trkpt lat="48.87956" lon="7.44906">
        <ele>280</ele>
        <time>2021-08-08T04:52:33Z</time>
      </trkpt>
      <trkpt lat="48.87957" lon="7.44898">
        <ele>280</ele>
        <time>2021-08-08T04:52:34Z</time>
      </trkpt>
      <trkpt lat="48.87956" lon="7.44892">
        <ele>280</ele>
        <time>2021-08-08T04:52:35Z</time>
      </trkpt>
      <trkpt lat="48.87956" lon="7.44892">
        <ele>280</ele>
        <time>2021-08-08T04:52:36Z</time>
      </trkpt>
      <trkpt lat="48.87955" lon="7.44881">
        <ele>280</ele>
        <time>2021-08-08T04:52:37Z</time>
      </trkpt>
      <trkpt lat="48.87955" lon="7.44881">
        <ele>280</ele>
        <time>2021-08-08T04:52:38Z</time>
      </trkpt>
      <trkpt lat="48.87954" lon="7.44873">
        <ele>280</ele>
        <time>2021-08-08T04:52:39Z</time>
      </trkpt>
      <trkpt lat="48.87953" lon="7.44868">
        <ele>280</ele>
        <time>2021-08-08T04:52:40Z</time>
      </trkpt>
      <trkpt lat="48.87953" lon="7.44868">
        <ele>280</ele>
        <time>2021-08-08T04:52:41Z</time>
      </trkpt>
      <trkpt lat="48.87953" lon="7.44861">
        <ele>280</ele>
        <time>2021-08-08T04:52:42Z</time>
      </trkpt>
      <trkpt lat="48.87952" lon="7.44858">
        <ele>280</ele>
        <time>2021-08-08T04:52:43Z</time>
      </trkpt>
      <trkpt lat="48.87952" lon="7.44858">
        <ele>280</ele>
        <time>2021-08-08T04:52:44Z</time>
      </trkpt>
      <trkpt lat="48.87951" lon="7.44853">
        <ele>280</ele>
        <time>2021-08-08T04:52:45Z</time>
      </trkpt>
      <trkpt lat="48.87951" lon="7.44853">
        <ele>280</ele>
        <time>2021-08-08T04:52:46Z</time>
      </trkpt>
      <trkpt lat="48.87949" lon="7.44847">
        <ele>280</ele>
        <time>2021-08-08T04:52:47Z</time>
      </trkpt>
      <trkpt lat="48.87949" lon="7.44847">
        <ele>280</ele>
        <time>2021-08-08T04:52:48Z</time>
      </trkpt>
      <trkpt lat="48.87949" lon="7.44841">
        <ele>280</ele>
        <time>2021-08-08T04:52:49Z</time>
      </trkpt>
      <trkpt lat="48.87949" lon="7.44841">
        <ele>281</ele>
        <time>2021-08-08T04:52:50Z</time>
      </trkpt>
      <trkpt lat="48.87948" lon="7.44835">
        <ele>281</ele>
        <time>2021-08-08T04:52:51Z</time>
      </trkpt>
      <trkpt lat="48.87948" lon="7.44835">
        <ele>281</ele>
        <time>2021-08-08T04:52:52Z</time>
      </trkpt>
      <trkpt lat="48.87947" lon="7.4483">
        <ele>281</ele>
        <time>2021-08-08T04:52:53Z</time>
      </trkpt>
      <trkpt lat="48.87947" lon="7.4483">
        <ele>281</ele>
        <time>2021-08-08T04:52:54Z</time>
      </trkpt>
      <trkpt lat="48.87947" lon="7.44825">
        <ele>281</ele>
        <time>2021-08-08T04:52:55Z</time>
      </trkpt>
      <trkpt lat="48.87947" lon="7.44825">
        <ele>281</ele>
        <time>2021-08-08T04:52:56Z</time>
      </trkpt>
      <trkpt lat="48.87946" lon="7.4482">
        <ele>281</ele>
        <time>2021-08-08T04:52:57Z</time>
      </trkpt>
      <trkpt lat="48.87946" lon="7.4482">
        <ele>282</ele>
        <time>2021-08-08T04:52:58Z</time>
      </trkpt>
      <trkpt lat="48.87945" lon="7.44815">
        <ele>282</ele>
        <time>2021-08-08T04:52:59Z</time>
      </trkpt>
      <trkpt lat="48.87944" lon="7.44814">
        <ele>282</ele>
        <time>2021-08-08T04:53:00Z</time>
      </trkpt>
      <trkpt lat="48.87944" lon="7.44814">
        <ele>282</ele>
        <time>2021-08-08T04:53:01Z</time>
      </trkpt>
      <trkpt lat="48.87941" lon="7.44808">
        <ele>283</ele>
        <time>2021-08-08T04:53:02Z</time>
      </trkpt>
      <trkpt lat="48.87941" lon="7.44808">
        <ele>283</ele>
        <time>2021-08-08T04:53:03Z</time>
      </trkpt>
      <trkpt lat="48.87939" lon="7.44802">
        <ele>283</ele>
        <time>2021-08-08T04:53:04Z</time>
      </trkpt>
      <trkpt lat="48.87939" lon="7.44802">
        <ele>283</ele>
        <time>2021-08-08T04:53:05Z</time>
      </trkpt>
      <trkpt lat="48.87936" lon="7.44793">
        <ele>283</ele>
        <time>2021-08-08T04:53:06Z</time>
      </trkpt>
      <trkpt lat="48.87935" lon="7.44789">
        <ele>283</ele>
        <time>2021-08-08T04:53:07Z</time>
      </trkpt>
      <trkpt lat="48.87935" lon="7.44789">
        <ele>283</ele>
        <time>2021-08-08T04:53:08Z</time>
      </trkpt>
      <trkpt lat="48.87933" lon="7.44778">
        <ele>283</ele>
        <time>2021-08-08T04:53:09Z</time>
      </trkpt>
      <trkpt lat="48.87933" lon="7.44778">
        <ele>283</ele>
        <time>2021-08-08T04:53:10Z</time>
      </trkpt>
      <trkpt lat="48.87931" lon="7.44766">
        <ele>283</ele>
        <time>2021-08-08T04:53:11Z</time>
      </trkpt>
      <trkpt lat="48.8793" lon="7.44761">
        <ele>283</ele>
        <time>2021-08-08T04:53:12Z</time>
      </trkpt>
      <trkpt lat="48.8793" lon="7.44761">
        <ele>283</ele>
        <time>2021-08-08T04:53:13Z</time>
      </trkpt>
      <trkpt lat="48.87928" lon="7.44746">
        <ele>283</ele>
        <time>2021-08-08T04:53:14Z</time>
      </trkpt>
      <trkpt lat="48.87928" lon="7.44746">
        <ele>283</ele>
        <time>2021-08-08T04:53:15Z</time>
      </trkpt>
      <trkpt lat="48.87925" lon="7.44732">
        <ele>283</ele>
        <time>2021-08-08T04:53:16Z</time>
      </trkpt>
      <trkpt lat="48.87925" lon="7.44732">
        <ele>283</ele>
        <time>2021-08-08T04:53:17Z</time>
      </trkpt>
      <trkpt lat="48.87922" lon="7.44721">
        <ele>282</ele>
        <time>2021-08-08T04:53:18Z</time>
      </trkpt>
      <trkpt lat="48.87921" lon="7.44716">
        <ele>282</ele>
        <time>2021-08-08T04:53:19Z</time>
      </trkpt>
      <trkpt lat="48.87921" lon="7.44716">
        <ele>282</ele>
        <time>2021-08-08T04:53:20Z</time>
      </trkpt>
      <trkpt lat="48.87919" lon="7.44708">
        <ele>282</ele>
        <time>2021-08-08T04:53:21Z</time>
      </trkpt>
      <trkpt lat="48.87919" lon="7.44708">
        <ele>282</ele>
        <time>2021-08-08T04:53:22Z</time>
      </trkpt>
      <trkpt lat="48.87916" lon="7.44702">
        <ele>282</ele>
        <time>2021-08-08T04:53:23Z</time>
      </trkpt>
      <trkpt lat="48.87916" lon="7.44702">
        <ele>282</ele>
        <time>2021-08-08T04:53:24Z</time>
      </trkpt>
      <trkpt lat="48.87914" lon="7.44698">
        <ele>282</ele>
        <time>2021-08-08T04:53:25Z</time>
      </trkpt>
      <trkpt lat="48.87914" lon="7.44695">
        <ele>283</ele>
        <time>2021-08-08T04:53:26Z</time>
      </trkpt>
      <trkpt lat="48.87914" lon="7.4469">
        <ele>283</ele>
        <time>2021-08-08T04:53:27Z</time>
      </trkpt>
      <trkpt lat="48.87914" lon="7.4469">
        <ele>283</ele>
        <time>2021-08-08T04:53:28Z</time>
      </trkpt>
      <trkpt lat="48.87913" lon="7.44683">
        <ele>283</ele>
        <time>2021-08-08T04:53:29Z</time>
      </trkpt>
      <trkpt lat="48.87913" lon="7.44679">
        <ele>283</ele>
        <time>2021-08-08T04:53:30Z</time>
      </trkpt>
      <trkpt lat="48.87912" lon="7.44676">
        <ele>283</ele>
        <time>2021-08-08T04:53:31Z</time>
      </trkpt>
      <trkpt lat="48.87912" lon="7.44676">
        <ele>284</ele>
        <time>2021-08-08T04:53:32Z</time>
      </trkpt>
      <trkpt lat="48.87911" lon="7.4467">
        <ele>284</ele>
        <time>2021-08-08T04:53:33Z</time>
      </trkpt>
      <trkpt lat="48.87911" lon="7.4467">
        <ele>284</ele>
        <time>2021-08-08T04:53:34Z</time>
      </trkpt>
      <trkpt lat="48.87911" lon="7.44664">
        <ele>284</ele>
        <time>2021-08-08T04:53:35Z</time>
      </trkpt>
      <trkpt lat="48.87912" lon="7.4466">
        <ele>285</ele>
        <time>2021-08-08T04:53:36Z</time>
      </trkpt>
      <trkpt lat="48.87912" lon="7.4466">
        <ele>285</ele>
        <time>2021-08-08T04:53:37Z</time>
      </trkpt>
      <trkpt lat="48.87911" lon="7.44647">
        <ele>285</ele>
        <time>2021-08-08T04:53:38Z</time>
      </trkpt>
      <trkpt lat="48.87911" lon="7.44643">
        <ele>285</ele>
        <time>2021-08-08T04:53:39Z</time>
      </trkpt>
      <trkpt lat="48.87911" lon="7.44643">
        <ele>285</ele>
        <time>2021-08-08T04:53:40Z</time>
      </trkpt>
      <trkpt lat="48.87909" lon="7.44637">
        <ele>285</ele>
        <time>2021-08-08T04:53:41Z</time>
      </trkpt>
      <trkpt lat="48.87908" lon="7.44634">
        <ele>286</ele>
        <time>2021-08-08T04:53:42Z</time>
      </trkpt>
      <trkpt lat="48.87908" lon="7.44634">
        <ele>286</ele>
        <time>2021-08-08T04:53:43Z</time>
      </trkpt>
      <trkpt lat="48.87907" lon="7.44628">
        <ele>286</ele>
        <time>2021-08-08T04:53:44Z</time>
      </trkpt>
      <trkpt lat="48.87906" lon="7.44624">
        <ele>286</ele>
        <time>2021-08-08T04:53:45Z</time>
      </trkpt>
      <trkpt lat="48.87906" lon="7.44624">
        <ele>286</ele>
        <time>2021-08-08T04:53:46Z</time>
      </trkpt>
      <trkpt lat="48.87905" lon="7.44619">
        <ele>286</ele>
        <time>2021-08-08T04:53:47Z</time>
      </trkpt>
      <trkpt lat="48.87905" lon="7.44619">
        <ele>286</ele>
        <time>2021-08-08T04:53:48Z</time>
      </trkpt>
      <trkpt lat="48.87904" lon="7.44615">
        <ele>286</ele>
        <time>2021-08-08T04:53:49Z</time>
      </trkpt>
      <trkpt lat="48.87904" lon="7.44615">
        <ele>286</ele>
        <time>2021-08-08T04:53:50Z</time>
      </trkpt>
      <trkpt lat="48.87902" lon="7.44611">
        <ele>286</ele>
        <time>2021-08-08T04:53:51Z</time>
      </trkpt>
      <trkpt lat="48.87902" lon="7.44611">
        <ele>286</ele>
        <time>2021-08-08T04:53:52Z</time>
      </trkpt>
      <trkpt lat="48.87901" lon="7.44606">
        <ele>287</ele>
        <time>2021-08-08T04:53:53Z</time>
      </trkpt>
      <trkpt lat="48.87901" lon="7.44606">
        <ele>287</ele>
        <time>2021-08-08T04:53:54Z</time>
      </trkpt>
      <trkpt lat="48.87899" lon="7.44598">
        <ele>287</ele>
        <time>2021-08-08T04:53:55Z</time>
      </trkpt>
      <trkpt lat="48.87899" lon="7.44598">
        <ele>287</ele>
        <time>2021-08-08T04:53:56Z</time>
      </trkpt>
      <trkpt lat="48.87898" lon="7.44591">
        <ele>287</ele>
        <time>2021-08-08T04:53:57Z</time>
      </trkpt>
      <trkpt lat="48.87898" lon="7.44591">
        <ele>287</ele>
        <time>2021-08-08T04:53:58Z</time>
      </trkpt>
      <trkpt lat="48.87899" lon="7.44586">
        <ele>287</ele>
        <time>2021-08-08T04:53:59Z</time>
      </trkpt>
      <trkpt lat="48.87899" lon="7.44583">
        <ele>287</ele>
        <time>2021-08-08T04:54:00Z</time>
      </trkpt>
      <trkpt lat="48.879" lon="7.4458">
        <ele>288</ele>
        <time>2021-08-08T04:54:01Z</time>
      </trkpt>
      <trkpt lat="48.879" lon="7.4458">
        <ele>288</ele>
        <time>2021-08-08T04:54:02Z</time>
      </trkpt>
      <trkpt lat="48.87901" lon="7.44573">
        <ele>288</ele>
        <time>2021-08-08T04:54:03Z</time>
      </trkpt>
      <trkpt lat="48.87901" lon="7.44573">
        <ele>288</ele>
        <time>2021-08-08T04:54:04Z</time>
      </trkpt>
      <trkpt lat="48.87903" lon="7.44566">
        <ele>289</ele>
        <time>2021-08-08T04:54:05Z</time>
      </trkpt>
      <trkpt lat="48.87903" lon="7.44566">
        <ele>289</ele>
        <time>2021-08-08T04:54:06Z</time>
      </trkpt>
      <trkpt lat="48.87903" lon="7.44559">
        <ele>289</ele>
        <time>2021-08-08T04:54:07Z</time>
      </trkpt>
      <trkpt lat="48.87903" lon="7.44553">
        <ele>289</ele>
        <time>2021-08-08T04:54:08Z</time>
      </trkpt>
      <trkpt lat="48.87903" lon="7.44549">
        <ele>290</ele>
        <time>2021-08-08T04:54:09Z</time>
      </trkpt>
      <trkpt lat="48.87903" lon="7.44549">
        <ele>290</ele>
        <time>2021-08-08T04:54:10Z</time>
      </trkpt>
      <trkpt lat="48.87903" lon="7.44542">
        <ele>290</ele>
        <time>2021-08-08T04:54:11Z</time>
      </trkpt>
      <trkpt lat="48.87903" lon="7.44542">
        <ele>290</ele>
        <time>2021-08-08T04:54:12Z</time>
      </trkpt>
      <trkpt lat="48.87905" lon="7.44535">
        <ele>290</ele>
        <time>2021-08-08T04:54:13Z</time>
      </trkpt>
      <trkpt lat="48.87905" lon="7.44532">
        <ele>290</ele>
        <time>2021-08-08T04:54:14Z</time>
      </trkpt>
      <trkpt lat="48.87905" lon="7.44529">
        <ele>290</ele>
        <time>2021-08-08T04:54:15Z</time>
      </trkpt>
      <trkpt lat="48.87905" lon="7.44529">
        <ele>290</ele>
        <time>2021-08-08T04:54:16Z</time>
      </trkpt>
      <trkpt lat="48.87905" lon="7.44524">
        <ele>290</ele>
        <time>2021-08-08T04:54:17Z</time>
      </trkpt>
      <trkpt lat="48.87905" lon="7.44524">
        <ele>290</ele>
        <time>2021-08-08T04:54:18Z</time>
      </trkpt>
      <trkpt lat="48.87905" lon="7.44518">
        <ele>290</ele>
        <time>2021-08-08T04:54:19Z</time>
      </trkpt>
      <trkpt lat="48.87905" lon="7.44515">
        <ele>291</ele>
        <time>2021-08-08T04:54:20Z</time>
      </trkpt>
      <trkpt lat="48.87905" lon="7.44515">
        <ele>291</ele>
        <time>2021-08-08T04:54:21Z</time>
      </trkpt>
      <trkpt lat="48.87905" lon="7.44509">
        <ele>291</ele>
        <time>2021-08-08T04:54:22Z</time>
      </trkpt>
      <trkpt lat="48.87905" lon="7.44509">
        <ele>291</ele>
        <time>2021-08-08T04:54:23Z</time>
      </trkpt>
      <trkpt lat="48.87905" lon="7.44501">
        <ele>291</ele>
        <time>2021-08-08T04:54:24Z</time>
      </trkpt>
      <trkpt lat="48.87905" lon="7.44501">
        <ele>291</ele>
        <time>2021-08-08T04:54:25Z</time>
      </trkpt>
      <trkpt lat="48.87906" lon="7.44494">
        <ele>291</ele>
        <time>2021-08-08T04:54:26Z</time>
      </trkpt>
      <trkpt lat="48.87906" lon="7.44491">
        <ele>291</ele>
        <time>2021-08-08T04:54:27Z</time>
      </trkpt>
      <trkpt lat="48.87906" lon="7.44491">
        <ele>291</ele>
        <time>2021-08-08T04:54:28Z</time>
      </trkpt>
      <trkpt lat="48.87904" lon="7.44485">
        <ele>291</ele>
        <time>2021-08-08T04:54:29Z</time>
      </trkpt>
      <trkpt lat="48.87904" lon="7.44485">
        <ele>291</ele>
        <time>2021-08-08T04:54:30Z</time>
      </trkpt>
      <trkpt lat="48.87902" lon="7.44481">
        <ele>292</ele>
        <time>2021-08-08T04:54:31Z</time>
      </trkpt>
      <trkpt lat="48.87902" lon="7.44481">
        <ele>292</ele>
        <time>2021-08-08T04:54:32Z</time>
      </trkpt>
      <trkpt lat="48.87901" lon="7.44476">
        <ele>292</ele>
        <time>2021-08-08T04:54:33Z</time>
      </trkpt>
      <trkpt lat="48.87901" lon="7.44476">
        <ele>292</ele>
        <time>2021-08-08T04:54:34Z</time>
      </trkpt>
      <trkpt lat="48.87901" lon="7.44471">
        <ele>292</ele>
        <time>2021-08-08T04:54:35Z</time>
      </trkpt>
      <trkpt lat="48.87901" lon="7.44471">
        <ele>292</ele>
        <time>2021-08-08T04:54:36Z</time>
      </trkpt>
      <trkpt lat="48.87901" lon="7.44464">
        <ele>293</ele>
        <time>2021-08-08T04:54:37Z</time>
      </trkpt>
      <trkpt lat="48.87901" lon="7.44464">
        <ele>293</ele>
        <time>2021-08-08T04:54:38Z</time>
      </trkpt>
      <trkpt lat="48.87903" lon="7.44454">
        <ele>293</ele>
        <time>2021-08-08T04:54:39Z</time>
      </trkpt>
      <trkpt lat="48.87903" lon="7.44454">
        <ele>293</ele>
        <time>2021-08-08T04:54:40Z</time>
      </trkpt>
      <trkpt lat="48.87903" lon="7.44447">
        <ele>293</ele>
        <time>2021-08-08T04:54:41Z</time>
      </trkpt>
      <trkpt lat="48.87903" lon="7.44447">
        <ele>293</ele>
        <time>2021-08-08T04:54:42Z</time>
      </trkpt>
      <trkpt lat="48.87903" lon="7.44437">
        <ele>293</ele>
        <time>2021-08-08T04:54:43Z</time>
      </trkpt>
      <trkpt lat="48.87903" lon="7.44437">
        <ele>293</ele>
        <time>2021-08-08T04:54:44Z</time>
      </trkpt>
      <trkpt lat="48.87901" lon="7.44427">
        <ele>293</ele>
        <time>2021-08-08T04:54:45Z</time>
      </trkpt>
      <trkpt lat="48.879" lon="7.44421">
        <ele>294</ele>
        <time>2021-08-08T04:54:46Z</time>
      </trkpt>
      <trkpt lat="48.879" lon="7.44421">
        <ele>294</ele>
        <time>2021-08-08T04:54:47Z</time>
      </trkpt>
      <trkpt lat="48.87899" lon="7.44413">
        <ele>294</ele>
        <time>2021-08-08T04:54:48Z</time>
      </trkpt>
      <trkpt lat="48.87899" lon="7.44409">
        <ele>294</ele>
        <time>2021-08-08T04:54:49Z</time>
      </trkpt>
      <trkpt lat="48.87899" lon="7.44409">
        <ele>294</ele>
        <time>2021-08-08T04:54:50Z</time>
      </trkpt>
      <trkpt lat="48.87901" lon="7.44398">
        <ele>294</ele>
        <time>2021-08-08T04:54:51Z</time>
      </trkpt>
      <trkpt lat="48.87901" lon="7.44398">
        <ele>294</ele>
        <time>2021-08-08T04:54:52Z</time>
      </trkpt>
      <trkpt lat="48.87902" lon="7.44391">
        <ele>294</ele>
        <time>2021-08-08T04:54:53Z</time>
      </trkpt>
      <trkpt lat="48.87901" lon="7.44386">
        <ele>294</ele>
        <time>2021-08-08T04:54:54Z</time>
      </trkpt>
      <trkpt lat="48.87901" lon="7.44381">
        <ele>295</ele>
        <time>2021-08-08T04:54:55Z</time>
      </trkpt>
      <trkpt lat="48.87901" lon="7.44381">
        <ele>295</ele>
        <time>2021-08-08T04:54:56Z</time>
      </trkpt>
      <trkpt lat="48.87899" lon="7.44373">
        <ele>295</ele>
        <time>2021-08-08T04:54:57Z</time>
      </trkpt>
      <trkpt lat="48.87899" lon="7.44373">
        <ele>295</ele>
        <time>2021-08-08T04:54:58Z</time>
      </trkpt>
      <trkpt lat="48.87896" lon="7.44365">
        <ele>295</ele>
        <time>2021-08-08T04:54:59Z</time>
      </trkpt>
      <trkpt lat="48.87896" lon="7.44361">
        <ele>295</ele>
        <time>2021-08-08T04:55:00Z</time>
      </trkpt>
      <trkpt lat="48.87894" lon="7.44357">
        <ele>295</ele>
        <time>2021-08-08T04:55:01Z</time>
      </trkpt>
      <trkpt lat="48.87894" lon="7.44357">
        <ele>295</ele>
        <time>2021-08-08T04:55:02Z</time>
      </trkpt>
      <trkpt lat="48.87891" lon="7.44349">
        <ele>295</ele>
        <time>2021-08-08T04:55:03Z</time>
      </trkpt>
      <trkpt lat="48.87891" lon="7.44349">
        <ele>295</ele>
        <time>2021-08-08T04:55:04Z</time>
      </trkpt>
      <trkpt lat="48.8789" lon="7.44343">
        <ele>295</ele>
        <time>2021-08-08T04:55:05Z</time>
      </trkpt>
      <trkpt lat="48.8789" lon="7.44343">
        <ele>296</ele>
        <time>2021-08-08T04:55:06Z</time>
      </trkpt>
      <trkpt lat="48.87888" lon="7.44335">
        <ele>296</ele>
        <time>2021-08-08T04:55:07Z</time>
      </trkpt>
      <trkpt lat="48.87888" lon="7.44335">
        <ele>296</ele>
        <time>2021-08-08T04:55:08Z</time>
      </trkpt>
      <trkpt lat="48.87886" lon="7.44328">
        <ele>296</ele>
        <time>2021-08-08T04:55:09Z</time>
      </trkpt>
      <trkpt lat="48.87886" lon="7.44328">
        <ele>296</ele>
        <time>2021-08-08T04:55:10Z</time>
      </trkpt>
      <trkpt lat="48.87882" lon="7.44313">
        <ele>296</ele>
        <time>2021-08-08T04:55:11Z</time>
      </trkpt>
      <trkpt lat="48.87882" lon="7.44313">
        <ele>296</ele>
        <time>2021-08-08T04:55:12Z</time>
      </trkpt>
      <trkpt lat="48.87877" lon="7.44305">
        <ele>296</ele>
        <time>2021-08-08T04:55:13Z</time>
      </trkpt>
      <trkpt lat="48.87877" lon="7.44305">
        <ele>296</ele>
        <time>2021-08-08T04:55:14Z</time>
      </trkpt>
      <trkpt lat="48.87872" lon="7.44293">
        <ele>296</ele>
        <time>2021-08-08T04:55:15Z</time>
      </trkpt>
      <trkpt lat="48.87872" lon="7.44293">
        <ele>296</ele>
        <time>2021-08-08T04:55:16Z</time>
      </trkpt>
      <trkpt lat="48.87867" lon="7.44283">
        <ele>295</ele>
        <time>2021-08-08T04:55:17Z</time>
      </trkpt>
      <trkpt lat="48.87867" lon="7.44283">
        <ele>295</ele>
        <time>2021-08-08T04:55:18Z</time>
      </trkpt>
      <trkpt lat="48.87862" lon="7.44274">
        <ele>295</ele>
        <time>2021-08-08T04:55:19Z</time>
      </trkpt>
      <trkpt lat="48.87859" lon="7.44269">
        <ele>295</ele>
        <time>2021-08-08T04:55:20Z</time>
      </trkpt>
      <trkpt lat="48.87858" lon="7.44265">
        <ele>294</ele>
        <time>2021-08-08T04:55:21Z</time>
      </trkpt>
      <trkpt lat="48.87858" lon="7.44265">
        <ele>294</ele>
        <time>2021-08-08T04:55:22Z</time>
      </trkpt>
      <trkpt lat="48.87855" lon="7.44258">
        <ele>294</ele>
        <time>2021-08-08T04:55:23Z</time>
      </trkpt>
      <trkpt lat="48.87855" lon="7.44258">
        <ele>294</ele>
        <time>2021-08-08T04:55:24Z</time>
      </trkpt>
      <trkpt lat="48.87854" lon="7.44252">
        <ele>294</ele>
        <time>2021-08-08T04:55:25Z</time>
      </trkpt>
      <trkpt lat="48.87854" lon="7.44252">
        <ele>294</ele>
        <time>2021-08-08T04:55:26Z</time>
      </trkpt>
      <trkpt lat="48.8785" lon="7.44247">
        <ele>293</ele>
        <time>2021-08-08T04:55:27Z</time>
      </trkpt>
      <trkpt lat="48.8785" lon="7.44247">
        <ele>293</ele>
        <time>2021-08-08T04:55:28Z</time>
      </trkpt>
      <trkpt lat="48.87847" lon="7.44238">
        <ele>293</ele>
        <time>2021-08-08T04:55:29Z</time>
      </trkpt>
      <trkpt lat="48.87847" lon="7.44238">
        <ele>293</ele>
        <time>2021-08-08T04:55:30Z</time>
      </trkpt>
      <trkpt lat="48.87844" lon="7.44231">
        <ele>293</ele>
        <time>2021-08-08T04:55:31Z</time>
      </trkpt>
      <trkpt lat="48.87842" lon="7.44227">
        <ele>293</ele>
        <time>2021-08-08T04:55:32Z</time>
      </trkpt>
      <trkpt lat="48.87841" lon="7.44223">
        <ele>293</ele>
        <time>2021-08-08T04:55:33Z</time>
      </trkpt>
      <trkpt lat="48.87841" lon="7.44223">
        <ele>293</ele>
        <time>2021-08-08T04:55:34Z</time>
      </trkpt>
      <trkpt lat="48.87837" lon="7.44218">
        <ele>292</ele>
        <time>2021-08-08T04:55:35Z</time>
      </trkpt>
      <trkpt lat="48.87837" lon="7.44218">
        <ele>292</ele>
        <time>2021-08-08T04:55:36Z</time>
      </trkpt>
      <trkpt lat="48.87834" lon="7.44212">
        <ele>292</ele>
        <time>2021-08-08T04:55:37Z</time>
      </trkpt>
      <trkpt lat="48.87834" lon="7.44212">
        <ele>292</ele>
        <time>2021-08-08T04:55:38Z</time>
      </trkpt>
      <trkpt lat="48.87827" lon="7.44202">
        <ele>292</ele>
        <time>2021-08-08T04:55:39Z</time>
      </trkpt>
      <trkpt lat="48.87823" lon="7.44198">
        <ele>292</ele>
        <time>2021-08-08T04:55:40Z</time>
      </trkpt>
      <trkpt lat="48.87823" lon="7.44198">
        <ele>292</ele>
        <time>2021-08-08T04:55:41Z</time>
      </trkpt>
      <trkpt lat="48.87812" lon="7.44182">
        <ele>292</ele>
        <time>2021-08-08T04:55:42Z</time>
      </trkpt>
      <trkpt lat="48.8781" lon="7.44169">
        <ele>292</ele>
        <time>2021-08-08T04:55:43Z</time>
      </trkpt>
      <trkpt lat="48.8781" lon="7.44169">
        <ele>292</ele>
        <time>2021-08-08T04:55:44Z</time>
      </trkpt>
      <trkpt lat="48.8781" lon="7.44156">
        <ele>292</ele>
        <time>2021-08-08T04:55:45Z</time>
      </trkpt>
      <trkpt lat="48.8781" lon="7.44156">
        <ele>292</ele>
        <time>2021-08-08T04:55:46Z</time>
      </trkpt>
      <trkpt lat="48.8781" lon="7.44147">
        <ele>291</ele>
        <time>2021-08-08T04:55:47Z</time>
      </trkpt>
      <trkpt lat="48.8781" lon="7.44143">
        <ele>291</ele>
        <time>2021-08-08T04:55:48Z</time>
      </trkpt>
      <trkpt lat="48.8781" lon="7.44143">
        <ele>291</ele>
        <time>2021-08-08T04:55:49Z</time>
      </trkpt>
      <trkpt lat="48.87809" lon="7.44137">
        <ele>291</ele>
        <time>2021-08-08T04:55:50Z</time>
      </trkpt>
      <trkpt lat="48.87809" lon="7.44134">
        <ele>291</ele>
        <time>2021-08-08T04:55:51Z</time>
      </trkpt>
      <trkpt lat="48.87809" lon="7.44134">
        <ele>291</ele>
        <time>2021-08-08T04:55:52Z</time>
      </trkpt>
      <trkpt lat="48.87809" lon="7.44128">
        <ele>291</ele>
        <time>2021-08-08T04:55:53Z</time>
      </trkpt>
      <trkpt lat="48.87809" lon="7.44128">
        <ele>291</ele>
        <time>2021-08-08T04:55:54Z</time>
      </trkpt>
      <trkpt lat="48.87809" lon="7.44121">
        <ele>291</ele>
        <time>2021-08-08T04:55:55Z</time>
      </trkpt>
      <trkpt lat="48.87809" lon="7.44121">
        <ele>291</ele>
        <time>2021-08-08T04:55:56Z</time>
      </trkpt>
      <trkpt lat="48.87808" lon="7.44113">
        <ele>291</ele>
        <time>2021-08-08T04:55:57Z</time>
      </trkpt>
      <trkpt lat="48.87808" lon="7.44113">
        <ele>291</ele>
        <time>2021-08-08T04:55:58Z</time>
      </trkpt>
      <trkpt lat="48.87809" lon="7.44106">
        <ele>291</ele>
        <time>2021-08-08T04:55:59Z</time>
      </trkpt>
      <trkpt lat="48.87809" lon="7.44106">
        <ele>291</ele>
        <time>2021-08-08T04:56:00Z</time>
      </trkpt>
      <trkpt lat="48.87809" lon="7.44098">
        <ele>291</ele>
        <time>2021-08-08T04:56:01Z</time>
      </trkpt>
      <trkpt lat="48.87809" lon="7.44098">
        <ele>291</ele>
        <time>2021-08-08T04:56:02Z</time>
      </trkpt>
      <trkpt lat="48.8781" lon="7.44092">
        <ele>291</ele>
        <time>2021-08-08T04:56:03Z</time>
      </trkpt>
      <trkpt lat="48.8781" lon="7.44092">
        <ele>291</ele>
        <time>2021-08-08T04:56:04Z</time>
      </trkpt>
      <trkpt lat="48.8781" lon="7.44086">
        <ele>292</ele>
        <time>2021-08-08T04:56:05Z</time>
      </trkpt>
      <trkpt lat="48.87809" lon="7.44083">
        <ele>292</ele>
        <time>2021-08-08T04:56:06Z</time>
      </trkpt>
      <trkpt lat="48.87809" lon="7.44083">
        <ele>292</ele>
        <time>2021-08-08T04:56:07Z</time>
      </trkpt>
      <trkpt lat="48.8781" lon="7.44076">
        <ele>292</ele>
        <time>2021-08-08T04:56:08Z</time>
      </trkpt>
      <trkpt lat="48.8781" lon="7.44073">
        <ele>292</ele>
        <time>2021-08-08T04:56:09Z</time>
      </trkpt>
      <trkpt lat="48.8781" lon="7.44073">
        <ele>293</ele>
        <time>2021-08-08T04:56:10Z</time>
      </trkpt>
      <trkpt lat="48.87811" lon="7.44069">
        <ele>293</ele>
        <time>2021-08-08T04:56:11Z</time>
      </trkpt>
      <trkpt lat="48.87811" lon="7.44066">
        <ele>293</ele>
        <time>2021-08-08T04:56:12Z</time>
      </trkpt>
      <trkpt lat="48.87811" lon="7.44063">
        <ele>293</ele>
        <time>2021-08-08T04:56:13Z</time>
      </trkpt>
      <trkpt lat="48.87811" lon="7.44063">
        <ele>293</ele>
        <time>2021-08-08T04:56:14Z</time>
      </trkpt>
      <trkpt lat="48.8781" lon="7.44054">
        <ele>293</ele>
        <time>2021-08-08T04:56:15Z</time>
      </trkpt>
      <trkpt lat="48.8781" lon="7.44054">
        <ele>293</ele>
        <time>2021-08-08T04:56:16Z</time>
      </trkpt>
      <trkpt lat="48.8781" lon="7.44042">
        <ele>293</ele>
        <time>2021-08-08T04:56:17Z</time>
      </trkpt>
      <trkpt lat="48.87812" lon="7.44036">
        <ele>293</ele>
        <time>2021-08-08T04:56:18Z</time>
      </trkpt>
      <trkpt lat="48.87812" lon="7.44033">
        <ele>293</ele>
        <time>2021-08-08T04:56:19Z</time>
      </trkpt>
      <trkpt lat="48.87812" lon="7.44033">
        <ele>294</ele>
        <time>2021-08-08T04:56:20Z</time>
      </trkpt>
      <trkpt lat="48.87813" lon="7.44028">
        <ele>294</ele>
        <time>2021-08-08T04:56:21Z</time>
      </trkpt>
      <trkpt lat="48.87813" lon="7.44028">
        <ele>294</ele>
        <time>2021-08-08T04:56:22Z</time>
      </trkpt>
      <trkpt lat="48.87813" lon="7.44023">
        <ele>294</ele>
        <time>2021-08-08T04:56:23Z</time>
      </trkpt>
      <trkpt lat="48.87812" lon="7.4402">
        <ele>295</ele>
        <time>2021-08-08T04:56:24Z</time>
      </trkpt>
      <trkpt lat="48.87812" lon="7.44017">
        <ele>295</ele>
        <time>2021-08-08T04:56:25Z</time>
      </trkpt>
      <trkpt lat="48.87812" lon="7.44017">
        <ele>295</ele>
        <time>2021-08-08T04:56:26Z</time>
      </trkpt>
      <trkpt lat="48.87811" lon="7.44012">
        <ele>295</ele>
        <time>2021-08-08T04:56:27Z</time>
      </trkpt>
      <trkpt lat="48.87811" lon="7.44012">
        <ele>296</ele>
        <time>2021-08-08T04:56:28Z</time>
      </trkpt>
      <trkpt lat="48.87811" lon="7.44005">
        <ele>296</ele>
        <time>2021-08-08T04:56:29Z</time>
      </trkpt>
      <trkpt lat="48.87811" lon="7.44005">
        <ele>296</ele>
        <time>2021-08-08T04:56:30Z</time>
      </trkpt>
      <trkpt lat="48.8781" lon="7.43996">
        <ele>296</ele>
        <time>2021-08-08T04:56:31Z</time>
      </trkpt>
      <trkpt lat="48.8781" lon="7.43996">
        <ele>296</ele>
        <time>2021-08-08T04:56:32Z</time>
      </trkpt>
      <trkpt lat="48.8781" lon="7.43991">
        <ele>296</ele>
        <time>2021-08-08T04:56:33Z</time>
      </trkpt>
      <trkpt lat="48.8781" lon="7.43991">
        <ele>296</ele>
        <time>2021-08-08T04:56:34Z</time>
      </trkpt>
      <trkpt lat="48.87808" lon="7.43984">
        <ele>296</ele>
        <time>2021-08-08T04:56:35Z</time>
      </trkpt>
      <trkpt lat="48.87808" lon="7.43984">
        <ele>296</ele>
        <time>2021-08-08T04:56:36Z</time>
      </trkpt>
      <trkpt lat="48.87807" lon="7.43977">
        <ele>296</ele>
        <time>2021-08-08T04:56:37Z</time>
      </trkpt>
      <trkpt lat="48.87807" lon="7.43977">
        <ele>296</ele>
        <time>2021-08-08T04:56:38Z</time>
      </trkpt>
      <trkpt lat="48.87805" lon="7.4397">
        <ele>296</ele>
        <time>2021-08-08T04:56:39Z</time>
      </trkpt>
      <trkpt lat="48.87805" lon="7.4397">
        <ele>296</ele>
        <time>2021-08-08T04:56:40Z</time>
      </trkpt>
      <trkpt lat="48.87805" lon="7.43964">
        <ele>296</ele>
        <time>2021-08-08T04:56:41Z</time>
      </trkpt>
      <trkpt lat="48.87805" lon="7.43964">
        <ele>296</ele>
        <time>2021-08-08T04:56:42Z</time>
      </trkpt>
      <trkpt lat="48.87804" lon="7.43956">
        <ele>296</ele>
        <time>2021-08-08T04:56:43Z</time>
      </trkpt>
      <trkpt lat="48.87804" lon="7.43956">
        <ele>296</ele>
        <time>2021-08-08T04:56:44Z</time>
      </trkpt>
      <trkpt lat="48.87802" lon="7.43949">
        <ele>296</ele>
        <time>2021-08-08T04:56:45Z</time>
      </trkpt>
      <trkpt lat="48.87802" lon="7.43949">
        <ele>296</ele>
        <time>2021-08-08T04:56:46Z</time>
      </trkpt>
      <trkpt lat="48.878" lon="7.43938">
        <ele>296</ele>
        <time>2021-08-08T04:56:47Z</time>
      </trkpt>
      <trkpt lat="48.87799" lon="7.43934">
        <ele>296</ele>
        <time>2021-08-08T04:56:48Z</time>
      </trkpt>
      <trkpt lat="48.87799" lon="7.43934">
        <ele>296</ele>
        <time>2021-08-08T04:56:49Z</time>
      </trkpt>
      <trkpt lat="48.87797" lon="7.43926">
        <ele>296</ele>
        <time>2021-08-08T04:56:50Z</time>
      </trkpt>
      <trkpt lat="48.87796" lon="7.43922">
        <ele>296</ele>
        <time>2021-08-08T04:56:51Z</time>
      </trkpt>
      <trkpt lat="48.87796" lon="7.43922">
        <ele>296</ele>
        <time>2021-08-08T04:56:52Z</time>
      </trkpt>
      <trkpt lat="48.87793" lon="7.43915">
        <ele>296</ele>
        <time>2021-08-08T04:56:53Z</time>
      </trkpt>
      <trkpt lat="48.87791" lon="7.43911">
        <ele>296</ele>
        <time>2021-08-08T04:56:54Z</time>
      </trkpt>
      <trkpt lat="48.87791" lon="7.43908">
        <ele>296</ele>
        <time>2021-08-08T04:56:55Z</time>
      </trkpt>
      <trkpt lat="48.87791" lon="7.43908">
        <ele>296</ele>
        <time>2021-08-08T04:56:56Z</time>
      </trkpt>
      <trkpt lat="48.87788" lon="7.43901">
        <ele>296</ele>
        <time>2021-08-08T04:56:57Z</time>
      </trkpt>
      <trkpt lat="48.87786" lon="7.43898">
        <ele>296</ele>
        <time>2021-08-08T04:56:58Z</time>
      </trkpt>
      <trkpt lat="48.87785" lon="7.43896">
        <ele>296</ele>
        <time>2021-08-08T04:56:59Z</time>
      </trkpt>
      <trkpt lat="48.87785" lon="7.43896">
        <ele>296</ele>
        <time>2021-08-08T04:57:00Z</time>
      </trkpt>
      <trkpt lat="48.87783" lon="7.43891">
        <ele>296</ele>
        <time>2021-08-08T04:57:01Z</time>
      </trkpt>
      <trkpt lat="48.87783" lon="7.43891">
        <ele>296</ele>
        <time>2021-08-08T04:57:02Z</time>
      </trkpt>
      <trkpt lat="48.87781" lon="7.43885">
        <ele>296</ele>
        <time>2021-08-08T04:57:03Z</time>
      </trkpt>
      <trkpt lat="48.87781" lon="7.43885">
        <ele>296</ele>
        <time>2021-08-08T04:57:04Z</time>
      </trkpt>
      <trkpt lat="48.87777" lon="7.43877">
        <ele>296</ele>
        <time>2021-08-08T04:57:05Z</time>
      </trkpt>
      <trkpt lat="48.87776" lon="7.43872">
        <ele>296</ele>
        <time>2021-08-08T04:57:06Z</time>
      </trkpt>
      <trkpt lat="48.87776" lon="7.43866">
        <ele>296</ele>
        <time>2021-08-08T04:57:07Z</time>
      </trkpt>
      <trkpt lat="48.87776" lon="7.43866">
        <ele>296</ele>
        <time>2021-08-08T04:57:08Z</time>
      </trkpt>
      <trkpt lat="48.87776" lon="7.43856">
        <ele>296</ele>
        <time>2021-08-08T04:57:09Z</time>
      </trkpt>
      <trkpt lat="48.87776" lon="7.43856">
        <ele>296</ele>
        <time>2021-08-08T04:57:10Z</time>
      </trkpt>
      <trkpt lat="48.87775" lon="7.43847">
        <ele>296</ele>
        <time>2021-08-08T04:57:11Z</time>
      </trkpt>
      <trkpt lat="48.87775" lon="7.43847">
        <ele>296</ele>
        <time>2021-08-08T04:57:12Z</time>
      </trkpt>
      <trkpt lat="48.87773" lon="7.43838">
        <ele>296</ele>
        <time>2021-08-08T04:57:13Z</time>
      </trkpt>
      <trkpt lat="48.87773" lon="7.43838">
        <ele>296</ele>
        <time>2021-08-08T04:57:14Z</time>
      </trkpt>
      <trkpt lat="48.87772" lon="7.4383">
        <ele>296</ele>
        <time>2021-08-08T04:57:15Z</time>
      </trkpt>
      <trkpt lat="48.87772" lon="7.4383">
        <ele>296</ele>
        <time>2021-08-08T04:57:16Z</time>
      </trkpt>
      <trkpt lat="48.8777" lon="7.43819">
        <ele>296</ele>
        <time>2021-08-08T04:57:17Z</time>
      </trkpt>
      <trkpt lat="48.8777" lon="7.43815">
        <ele>296</ele>
        <time>2021-08-08T04:57:18Z</time>
      </trkpt>
      <trkpt lat="48.8777" lon="7.43815">
        <ele>296</ele>
        <time>2021-08-08T04:57:19Z</time>
      </trkpt>
      <trkpt lat="48.87768" lon="7.43807">
        <ele>296</ele>
        <time>2021-08-08T04:57:20Z</time>
      </trkpt>
      <trkpt lat="48.87767" lon="7.43803">
        <ele>296</ele>
        <time>2021-08-08T04:57:21Z</time>
      </trkpt>
      <trkpt lat="48.87767" lon="7.43803">
        <ele>296</ele>
        <time>2021-08-08T04:57:22Z</time>
      </trkpt>
      <trkpt lat="48.87767" lon="7.43796">
        <ele>297</ele>
        <time>2021-08-08T04:57:23Z</time>
      </trkpt>
      <trkpt lat="48.87766" lon="7.43793">
        <ele>297</ele>
        <time>2021-08-08T04:57:24Z</time>
      </trkpt>
      <trkpt lat="48.87766" lon="7.43793">
        <ele>297</ele>
        <time>2021-08-08T04:57:25Z</time>
      </trkpt>
      <trkpt lat="48.87765" lon="7.43786">
        <ele>297</ele>
        <time>2021-08-08T04:57:26Z</time>
      </trkpt>
      <trkpt lat="48.87765" lon="7.43786">
        <ele>298</ele>
        <time>2021-08-08T04:57:27Z</time>
      </trkpt>
      <trkpt lat="48.87762" lon="7.43778">
        <ele>298</ele>
        <time>2021-08-08T04:57:28Z</time>
      </trkpt>
      <trkpt lat="48.87761" lon="7.43774">
        <ele>298</ele>
        <time>2021-08-08T04:57:29Z</time>
      </trkpt>
      <trkpt lat="48.87761" lon="7.43774">
        <ele>298</ele>
        <time>2021-08-08T04:57:30Z</time>
      </trkpt>
      <trkpt lat="48.8776" lon="7.43767">
        <ele>298</ele>
        <time>2021-08-08T04:57:31Z</time>
      </trkpt>
      <trkpt lat="48.8776" lon="7.43767">
        <ele>298</ele>
        <time>2021-08-08T04:57:32Z</time>
      </trkpt>
      <trkpt lat="48.87761" lon="7.43759">
        <ele>299</ele>
        <time>2021-08-08T04:57:33Z</time>
      </trkpt>
      <trkpt lat="48.87761" lon="7.43759">
        <ele>299</ele>
        <time>2021-08-08T04:57:34Z</time>
      </trkpt>
      <trkpt lat="48.87759" lon="7.43751">
        <ele>299</ele>
        <time>2021-08-08T04:57:35Z</time>
      </trkpt>
      <trkpt lat="48.87758" lon="7.43747">
        <ele>299</ele>
        <time>2021-08-08T04:57:36Z</time>
      </trkpt>
      <trkpt lat="48.87758" lon="7.43743">
        <ele>300</ele>
        <time>2021-08-08T04:57:37Z</time>
      </trkpt>
      <trkpt lat="48.87758" lon="7.43743">
        <ele>300</ele>
        <time>2021-08-08T04:57:38Z</time>
      </trkpt>
      <trkpt lat="48.87757" lon="7.43734">
        <ele>300</ele>
        <time>2021-08-08T04:57:39Z</time>
      </trkpt>
      <trkpt lat="48.87757" lon="7.43734">
        <ele>300</ele>
        <time>2021-08-08T04:57:40Z</time>
      </trkpt>
      <trkpt lat="48.87756" lon="7.43726">
        <ele>300</ele>
        <time>2021-08-08T04:57:41Z</time>
      </trkpt>
      <trkpt lat="48.87756" lon="7.43726">
        <ele>300</ele>
        <time>2021-08-08T04:57:42Z</time>
      </trkpt>
      <trkpt lat="48.87754" lon="7.43718">
        <ele>301</ele>
        <time>2021-08-08T04:57:43Z</time>
      </trkpt>
      <trkpt lat="48.87754" lon="7.43718">
        <ele>301</ele>
        <time>2021-08-08T04:57:44Z</time>
      </trkpt>
      <trkpt lat="48.87752" lon="7.43708">
        <ele>301</ele>
        <time>2021-08-08T04:57:45Z</time>
      </trkpt>
      <trkpt lat="48.87752" lon="7.43708">
        <ele>301</ele>
        <time>2021-08-08T04:57:46Z</time>
      </trkpt>
      <trkpt lat="48.87749" lon="7.43701">
        <ele>301</ele>
        <time>2021-08-08T04:57:47Z</time>
      </trkpt>
      <trkpt lat="48.87749" lon="7.43701">
        <ele>301</ele>
        <time>2021-08-08T04:57:48Z</time>
      </trkpt>
      <trkpt lat="48.87747" lon="7.43688">
        <ele>301</ele>
        <time>2021-08-08T04:57:49Z</time>
      </trkpt>
      <trkpt lat="48.87747" lon="7.43688">
        <ele>301</ele>
        <time>2021-08-08T04:57:50Z</time>
      </trkpt>
      <trkpt lat="48.87746" lon="7.43677">
        <ele>301</ele>
        <time>2021-08-08T04:57:51Z</time>
      </trkpt>
      <trkpt lat="48.87746" lon="7.43677">
        <ele>301</ele>
        <time>2021-08-08T04:57:52Z</time>
      </trkpt>
      <trkpt lat="48.87743" lon="7.43666">
        <ele>301</ele>
        <time>2021-08-08T04:57:53Z</time>
      </trkpt>
      <trkpt lat="48.87743" lon="7.43666">
        <ele>301</ele>
        <time>2021-08-08T04:57:54Z</time>
      </trkpt>
      <trkpt lat="48.87742" lon="7.43656">
        <ele>301</ele>
        <time>2021-08-08T04:57:55Z</time>
      </trkpt>
      <trkpt lat="48.87742" lon="7.43656">
        <ele>301</ele>
        <time>2021-08-08T04:57:56Z</time>
      </trkpt>
      <trkpt lat="48.87741" lon="7.43646">
        <ele>301</ele>
        <time>2021-08-08T04:57:57Z</time>
      </trkpt>
      <trkpt lat="48.8774" lon="7.4364">
        <ele>301</ele>
        <time>2021-08-08T04:57:58Z</time>
      </trkpt>
      <trkpt lat="48.8774" lon="7.4364">
        <ele>301</ele>
        <time>2021-08-08T04:57:59Z</time>
      </trkpt>
      <trkpt lat="48.87739" lon="7.43632">
        <ele>301</ele>
        <time>2021-08-08T04:58:00Z</time>
      </trkpt>
      <trkpt lat="48.8774" lon="7.43627">
        <ele>301</ele>
        <time>2021-08-08T04:58:01Z</time>
      </trkpt>
      <trkpt lat="48.8774" lon="7.43627">
        <ele>301</ele>
        <time>2021-08-08T04:58:02Z</time>
      </trkpt>
      <trkpt lat="48.8774" lon="7.43615">
        <ele>301</ele>
        <time>2021-08-08T04:58:03Z</time>
      </trkpt>
      <trkpt lat="48.8774" lon="7.43615">
        <ele>301</ele>
        <time>2021-08-08T04:58:04Z</time>
      </trkpt>
      <trkpt lat="48.8774" lon="7.43601">
        <ele>300</ele>
        <time>2021-08-08T04:58:05Z</time>
      </trkpt>
      <trkpt lat="48.8774" lon="7.43601">
        <ele>300</ele>
        <time>2021-08-08T04:58:06Z</time>
      </trkpt>
      <trkpt lat="48.87738" lon="7.43587">
        <ele>300</ele>
        <time>2021-08-08T04:58:07Z</time>
      </trkpt>
      <trkpt lat="48.87738" lon="7.43587">
        <ele>300</ele>
        <time>2021-08-08T04:58:08Z</time>
      </trkpt>
      <trkpt lat="48.87737" lon="7.43572">
        <ele>300</ele>
        <time>2021-08-08T04:58:09Z</time>
      </trkpt>
      <trkpt lat="48.87737" lon="7.43572">
        <ele>299</ele>
        <time>2021-08-08T04:58:10Z</time>
      </trkpt>
      <trkpt lat="48.87738" lon="7.43561">
        <ele>299</ele>
        <time>2021-08-08T04:58:11Z</time>
      </trkpt>
      <trkpt lat="48.87738" lon="7.43561">
        <ele>299</ele>
        <time>2021-08-08T04:58:12Z</time>
      </trkpt>
      <trkpt lat="48.87737" lon="7.43552">
        <ele>299</ele>
        <time>2021-08-08T04:58:13Z</time>
      </trkpt>
      <trkpt lat="48.87736" lon="7.43546">
        <ele>299</ele>
        <time>2021-08-08T04:58:14Z</time>
      </trkpt>
      <trkpt lat="48.87735" lon="7.43541">
        <ele>299</ele>
        <time>2021-08-08T04:58:15Z</time>
      </trkpt>
      <trkpt lat="48.87735" lon="7.43541">
        <ele>299</ele>
        <time>2021-08-08T04:58:16Z</time>
      </trkpt>
      <trkpt lat="48.87734" lon="7.43526">
        <ele>299</ele>
        <time>2021-08-08T04:58:17Z</time>
      </trkpt>
      <trkpt lat="48.87734" lon="7.43526">
        <ele>298</ele>
        <time>2021-08-08T04:58:18Z</time>
      </trkpt>
      <trkpt lat="48.87732" lon="7.43504">
        <ele>298</ele>
        <time>2021-08-08T04:58:19Z</time>
      </trkpt>
      <trkpt lat="48.87732" lon="7.43504">
        <ele>298</ele>
        <time>2021-08-08T04:58:20Z</time>
      </trkpt>
      <trkpt lat="48.8773" lon="7.43484">
        <ele>298</ele>
        <time>2021-08-08T04:58:21Z</time>
      </trkpt>
      <trkpt lat="48.8773" lon="7.43484">
        <ele>298</ele>
        <time>2021-08-08T04:58:22Z</time>
      </trkpt>
      <trkpt lat="48.87729" lon="7.43471">
        <ele>298</ele>
        <time>2021-08-08T04:58:23Z</time>
      </trkpt>
      <trkpt lat="48.87729" lon="7.43471">
        <ele>298</ele>
        <time>2021-08-08T04:58:24Z</time>
      </trkpt>
      <trkpt lat="48.87731" lon="7.43457">
        <ele>298</ele>
        <time>2021-08-08T04:58:25Z</time>
      </trkpt>
      <trkpt lat="48.87731" lon="7.43457">
        <ele>298</ele>
        <time>2021-08-08T04:58:26Z</time>
      </trkpt>
      <trkpt lat="48.87732" lon="7.43442">
        <ele>297</ele>
        <time>2021-08-08T04:58:27Z</time>
      </trkpt>
      <trkpt lat="48.87732" lon="7.43442">
        <ele>297</ele>
        <time>2021-08-08T04:58:28Z</time>
      </trkpt>
      <trkpt lat="48.87731" lon="7.43429">
        <ele>297</ele>
        <time>2021-08-08T04:58:29Z</time>
      </trkpt>
      <trkpt lat="48.87731" lon="7.43429">
        <ele>297</ele>
        <time>2021-08-08T04:58:30Z</time>
      </trkpt>
      <trkpt lat="48.87729" lon="7.43417">
        <ele>297</ele>
        <time>2021-08-08T04:58:31Z</time>
      </trkpt>
      <trkpt lat="48.87729" lon="7.43417">
        <ele>297</ele>
        <time>2021-08-08T04:58:32Z</time>
      </trkpt>
      <trkpt lat="48.87728" lon="7.43405">
        <ele>297</ele>
        <time>2021-08-08T04:58:33Z</time>
      </trkpt>
      <trkpt lat="48.87728" lon="7.43405">
        <ele>297</ele>
        <time>2021-08-08T04:58:34Z</time>
      </trkpt>
      <trkpt lat="48.87727" lon="7.43393">
        <ele>297</ele>
        <time>2021-08-08T04:58:35Z</time>
      </trkpt>
      <trkpt lat="48.87727" lon="7.43393">
        <ele>297</ele>
        <time>2021-08-08T04:58:36Z</time>
      </trkpt>
      <trkpt lat="48.87726" lon="7.4338">
        <ele>297</ele>
        <time>2021-08-08T04:58:37Z</time>
      </trkpt>
      <trkpt lat="48.87726" lon="7.43373">
        <ele>297</ele>
        <time>2021-08-08T04:58:38Z</time>
      </trkpt>
      <trkpt lat="48.87726" lon="7.43373">
        <ele>297</ele>
        <time>2021-08-08T04:58:39Z</time>
      </trkpt>
      <trkpt lat="48.87725" lon="7.43357">
        <ele>297</ele>
        <time>2021-08-08T04:58:40Z</time>
      </trkpt>
      <trkpt lat="48.87725" lon="7.43357">
        <ele>297</ele>
        <time>2021-08-08T04:58:41Z</time>
      </trkpt>
      <trkpt lat="48.87724" lon="7.43344">
        <ele>297</ele>
        <time>2021-08-08T04:58:42Z</time>
      </trkpt>
      <trkpt lat="48.87723" lon="7.43338">
        <ele>297</ele>
        <time>2021-08-08T04:58:43Z</time>
      </trkpt>
      <trkpt lat="48.87723" lon="7.43338">
        <ele>297</ele>
        <time>2021-08-08T04:58:44Z</time>
      </trkpt>
      <trkpt lat="48.8772" lon="7.43328">
        <ele>297</ele>
        <time>2021-08-08T04:58:45Z</time>
      </trkpt>
      <trkpt lat="48.8772" lon="7.43328">
        <ele>297</ele>
        <time>2021-08-08T04:58:46Z</time>
      </trkpt>
      <trkpt lat="48.87718" lon="7.43318">
        <ele>296</ele>
        <time>2021-08-08T04:58:47Z</time>
      </trkpt>
      <trkpt lat="48.87718" lon="7.43318">
        <ele>296</ele>
        <time>2021-08-08T04:58:48Z</time>
      </trkpt>
      <trkpt lat="48.87718" lon="7.43306">
        <ele>296</ele>
        <time>2021-08-08T04:58:49Z</time>
      </trkpt>
      <trkpt lat="48.87718" lon="7.43306">
        <ele>296</ele>
        <time>2021-08-08T04:58:50Z</time>
      </trkpt>
      <trkpt lat="48.87716" lon="7.43286">
        <ele>296</ele>
        <time>2021-08-08T04:58:51Z</time>
      </trkpt>
      <trkpt lat="48.87716" lon="7.43286">
        <ele>296</ele>
        <time>2021-08-08T04:58:52Z</time>
      </trkpt>
      <trkpt lat="48.87715" lon="7.43271">
        <ele>296</ele>
        <time>2021-08-08T04:58:53Z</time>
      </trkpt>
      <trkpt lat="48.87715" lon="7.43271">
        <ele>296</ele>
        <time>2021-08-08T04:58:54Z</time>
      </trkpt>
      <trkpt lat="48.87714" lon="7.43257">
        <ele>296</ele>
        <time>2021-08-08T04:58:55Z</time>
      </trkpt>
      <trkpt lat="48.87714" lon="7.43257">
        <ele>296</ele>
        <time>2021-08-08T04:58:56Z</time>
      </trkpt>
      <trkpt lat="48.87714" lon="7.43245">
        <ele>296</ele>
        <time>2021-08-08T04:58:57Z</time>
      </trkpt>
      <trkpt lat="48.87714" lon="7.43245">
        <ele>295</ele>
        <time>2021-08-08T04:58:58Z</time>
      </trkpt>
      <trkpt lat="48.87713" lon="7.43234">
        <ele>295</ele>
        <time>2021-08-08T04:58:59Z</time>
      </trkpt>
      <trkpt lat="48.87712" lon="7.43229">
        <ele>295</ele>
        <time>2021-08-08T04:59:00Z</time>
      </trkpt>
      <trkpt lat="48.87712" lon="7.43229">
        <ele>295</ele>
        <time>2021-08-08T04:59:01Z</time>
      </trkpt>
      <trkpt lat="48.87712" lon="7.43219">
        <ele>294</ele>
        <time>2021-08-08T04:59:02Z</time>
      </trkpt>
      <trkpt lat="48.87713" lon="7.43213">
        <ele>294</ele>
        <time>2021-08-08T04:59:03Z</time>
      </trkpt>
      <trkpt lat="48.87713" lon="7.43213">
        <ele>293</ele>
        <time>2021-08-08T04:59:04Z</time>
      </trkpt>
      <trkpt lat="48.87714" lon="7.43198">
        <ele>293</ele>
        <time>2021-08-08T04:59:05Z</time>
      </trkpt>
      <trkpt lat="48.87714" lon="7.43198">
        <ele>292</ele>
        <time>2021-08-08T04:59:06Z</time>
      </trkpt>
      <trkpt lat="48.87715" lon="7.43181">
        <ele>292</ele>
        <time>2021-08-08T04:59:07Z</time>
      </trkpt>
      <trkpt lat="48.87715" lon="7.43181">
        <ele>291</ele>
        <time>2021-08-08T04:59:08Z</time>
      </trkpt>
      <trkpt lat="48.87714" lon="7.43166">
        <ele>291</ele>
        <time>2021-08-08T04:59:09Z</time>
      </trkpt>
      <trkpt lat="48.87714" lon="7.43166">
        <ele>290</ele>
        <time>2021-08-08T04:59:10Z</time>
      </trkpt>
      <trkpt lat="48.87714" lon="7.43148">
        <ele>290</ele>
        <time>2021-08-08T04:59:11Z</time>
      </trkpt>
      <trkpt lat="48.87714" lon="7.4314">
        <ele>288</ele>
        <time>2021-08-08T04:59:12Z</time>
      </trkpt>
      <trkpt lat="48.87714" lon="7.4314">
        <ele>288</ele>
        <time>2021-08-08T04:59:13Z</time>
      </trkpt>
      <trkpt lat="48.87715" lon="7.43123">
        <ele>287</ele>
        <time>2021-08-08T04:59:14Z</time>
      </trkpt>
      <trkpt lat="48.87715" lon="7.43115">
        <ele>287</ele>
        <time>2021-08-08T04:59:15Z</time>
      </trkpt>
      <trkpt lat="48.87715" lon="7.43115">
        <ele>285</ele>
        <time>2021-08-08T04:59:16Z</time>
      </trkpt>
      <trkpt lat="48.87714" lon="7.431">
        <ele>285</ele>
        <time>2021-08-08T04:59:17Z</time>
      </trkpt>
      <trkpt lat="48.87714" lon="7.431">
        <ele>283</ele>
        <time>2021-08-08T04:59:18Z</time>
      </trkpt>
      <trkpt lat="48.87713" lon="7.43084">
        <ele>283</ele>
        <time>2021-08-08T04:59:19Z</time>
      </trkpt>
      <trkpt lat="48.87713" lon="7.43084">
        <ele>282</ele>
        <time>2021-08-08T04:59:20Z</time>
      </trkpt>
      <trkpt lat="48.87714" lon="7.43063">
        <ele>282</ele>
        <time>2021-08-08T04:59:21Z</time>
      </trkpt>
      <trkpt lat="48.87714" lon="7.43063">
        <ele>280</ele>
        <time>2021-08-08T04:59:22Z</time>
      </trkpt>
      <trkpt lat="48.87716" lon="7.4304">
        <ele>280</ele>
        <time>2021-08-08T04:59:23Z</time>
      </trkpt>
      <trkpt lat="48.87716" lon="7.4304">
        <ele>278</ele>
        <time>2021-08-08T04:59:24Z</time>
      </trkpt>
      <trkpt lat="48.87717" lon="7.43019">
        <ele>278</ele>
        <time>2021-08-08T04:59:25Z</time>
      </trkpt>
      <trkpt lat="48.87717" lon="7.43019">
        <ele>277</ele>
        <time>2021-08-08T04:59:26Z</time>
      </trkpt>
      <trkpt lat="48.87718" lon="7.42999">
        <ele>277</ele>
        <time>2021-08-08T04:59:27Z</time>
      </trkpt>
      <trkpt lat="48.87718" lon="7.42999">
        <ele>275</ele>
        <time>2021-08-08T04:59:28Z</time>
      </trkpt>
      <trkpt lat="48.87719" lon="7.42978">
        <ele>275</ele>
        <time>2021-08-08T04:59:29Z</time>
      </trkpt>
      <trkpt lat="48.87719" lon="7.42978">
        <ele>273</ele>
        <time>2021-08-08T04:59:30Z</time>
      </trkpt>
      <trkpt lat="48.8772" lon="7.42959">
        <ele>273</ele>
        <time>2021-08-08T04:59:31Z</time>
      </trkpt>
      <trkpt lat="48.8772" lon="7.42959">
        <ele>272</ele>
        <time>2021-08-08T04:59:32Z</time>
      </trkpt>
      <trkpt lat="48.87719" lon="7.42942">
        <ele>272</ele>
        <time>2021-08-08T04:59:33Z</time>
      </trkpt>
      <trkpt lat="48.87719" lon="7.42942">
        <ele>270</ele>
        <time>2021-08-08T04:59:34Z</time>
      </trkpt>
      <trkpt lat="48.87719" lon="7.42921">
        <ele>270</ele>
        <time>2021-08-08T04:59:35Z</time>
      </trkpt>
      <trkpt lat="48.87719" lon="7.42921">
        <ele>268</ele>
        <time>2021-08-08T04:59:36Z</time>
      </trkpt>
      <trkpt lat="48.87719" lon="7.42901">
        <ele>268</ele>
        <time>2021-08-08T04:59:37Z</time>
      </trkpt>
      <trkpt lat="48.87719" lon="7.42901">
        <ele>266</ele>
        <time>2021-08-08T04:59:38Z</time>
      </trkpt>
      <trkpt lat="48.87719" lon="7.42881">
        <ele>266</ele>
        <time>2021-08-08T04:59:39Z</time>
      </trkpt>
      <trkpt lat="48.87719" lon="7.42881">
        <ele>264</ele>
        <time>2021-08-08T04:59:40Z</time>
      </trkpt>
      <trkpt lat="48.8772" lon="7.42862">
        <ele>264</ele>
        <time>2021-08-08T04:59:41Z</time>
      </trkpt>
      <trkpt lat="48.8772" lon="7.42852">
        <ele>262</ele>
        <time>2021-08-08T04:59:42Z</time>
      </trkpt>
      <trkpt lat="48.8772" lon="7.42852">
        <ele>262</ele>
        <time>2021-08-08T04:59:43Z</time>
      </trkpt>
      <trkpt lat="48.87721" lon="7.42834">
        <ele>260</ele>
        <time>2021-08-08T04:59:44Z</time>
      </trkpt>
      <trkpt lat="48.87722" lon="7.42824">
        <ele>260</ele>
        <time>2021-08-08T04:59:45Z</time>
      </trkpt>
      <trkpt lat="48.87722" lon="7.42824">
        <ele>257</ele>
        <time>2021-08-08T04:59:46Z</time>
      </trkpt>
      <trkpt lat="48.87724" lon="7.42805">
        <ele>257</ele>
        <time>2021-08-08T04:59:47Z</time>
      </trkpt>
      <trkpt lat="48.87724" lon="7.42805">
        <ele>254</ele>
        <time>2021-08-08T04:59:48Z</time>
      </trkpt>
      <trkpt lat="48.87724" lon="7.42786">
        <ele>251</ele>
        <time>2021-08-08T04:59:49Z</time>
      </trkpt>
      <trkpt lat="48.87723" lon="7.42777">
        <ele>251</ele>
        <time>2021-08-08T04:59:50Z</time>
      </trkpt>
      <trkpt lat="48.87722" lon="7.42768">
        <ele>249</ele>
        <time>2021-08-08T04:59:51Z</time>
      </trkpt>
      <trkpt lat="48.87722" lon="7.42768">
        <ele>249</ele>
        <time>2021-08-08T04:59:52Z</time>
      </trkpt>
      <trkpt lat="48.87723" lon="7.42754">
        <ele>247</ele>
        <time>2021-08-08T04:59:53Z</time>
      </trkpt>
      <trkpt lat="48.87723" lon="7.42754">
        <ele>247</ele>
        <time>2021-08-08T04:59:54Z</time>
      </trkpt>
      <trkpt lat="48.87722" lon="7.4274">
        <ele>246</ele>
        <time>2021-08-08T04:59:55Z</time>
      </trkpt>
      <trkpt lat="48.87722" lon="7.4274">
        <ele>246</ele>
        <time>2021-08-08T04:59:56Z</time>
      </trkpt>
      <trkpt lat="48.8772" lon="7.42725">
        <ele>245</ele>
        <time>2021-08-08T04:59:57Z</time>
      </trkpt>
      <trkpt lat="48.8772" lon="7.42725">
        <ele>245</ele>
        <time>2021-08-08T04:59:58Z</time>
      </trkpt>
      <trkpt lat="48.87723" lon="7.4271">
        <ele>244</ele>
        <time>2021-08-08T04:59:59Z</time>
      </trkpt>
      <trkpt lat="48.87723" lon="7.427">
        <ele>244</ele>
        <time>2021-08-08T05:00:00Z</time>
      </trkpt>
      <trkpt lat="48.87723" lon="7.42691">
        <ele>243</ele>
        <time>2021-08-08T05:00:01Z</time>
      </trkpt>
      <trkpt lat="48.87723" lon="7.42681">
        <ele>243</ele>
        <time>2021-08-08T05:00:02Z</time>
      </trkpt>
      <trkpt lat="48.87723" lon="7.42681">
        <ele>241</ele>
        <time>2021-08-08T05:00:03Z</time>
      </trkpt>
      <trkpt lat="48.8772" lon="7.42658">
        <ele>241</ele>
        <time>2021-08-08T05:00:04Z</time>
      </trkpt>
      <trkpt lat="48.8772" lon="7.42658">
        <ele>240</ele>
        <time>2021-08-08T05:00:05Z</time>
      </trkpt>
      <trkpt lat="48.87717" lon="7.42635">
        <ele>240</ele>
        <time>2021-08-08T05:00:06Z</time>
      </trkpt>
      <trkpt lat="48.87714" lon="7.42622">
        <ele>240</ele>
        <time>2021-08-08T05:00:07Z</time>
      </trkpt>
      <trkpt lat="48.87714" lon="7.42622">
        <ele>240</ele>
        <time>2021-08-08T05:00:08Z</time>
      </trkpt>
      <trkpt lat="48.87711" lon="7.42599">
        <ele>239</ele>
        <time>2021-08-08T05:00:09Z</time>
      </trkpt>
      <trkpt lat="48.87709" lon="7.42587">
        <ele>239</ele>
        <time>2021-08-08T05:00:10Z</time>
      </trkpt>
      <trkpt lat="48.87708" lon="7.42576">
        <ele>239</ele>
        <time>2021-08-08T05:00:11Z</time>
      </trkpt>
      <trkpt lat="48.87708" lon="7.42576">
        <ele>239</ele>
        <time>2021-08-08T05:00:12Z</time>
      </trkpt>
      <trkpt lat="48.87705" lon="7.42553">
        <ele>238</ele>
        <time>2021-08-08T05:00:13Z</time>
      </trkpt>
      <trkpt lat="48.87705" lon="7.42553">
        <ele>238</ele>
        <time>2021-08-08T05:00:14Z</time>
      </trkpt>
      <trkpt lat="48.87701" lon="7.42532">
        <ele>238</ele>
        <time>2021-08-08T05:00:15Z</time>
      </trkpt>
      <trkpt lat="48.87701" lon="7.42532">
        <ele>238</ele>
        <time>2021-08-08T05:00:16Z</time>
      </trkpt>
      <trkpt lat="48.87696" lon="7.42511">
        <ele>237</ele>
        <time>2021-08-08T05:00:17Z</time>
      </trkpt>
      <trkpt lat="48.87696" lon="7.42511">
        <ele>237</ele>
        <time>2021-08-08T05:00:18Z</time>
      </trkpt>
      <trkpt lat="48.87694" lon="7.4249">
        <ele>237</ele>
        <time>2021-08-08T05:00:19Z</time>
      </trkpt>
      <trkpt lat="48.87694" lon="7.4249">
        <ele>237</ele>
        <time>2021-08-08T05:00:20Z</time>
      </trkpt>
      <trkpt lat="48.8769" lon="7.42468">
        <ele>236</ele>
        <time>2021-08-08T05:00:21Z</time>
      </trkpt>
      <trkpt lat="48.8769" lon="7.42468">
        <ele>236</ele>
        <time>2021-08-08T05:00:22Z</time>
      </trkpt>
      <trkpt lat="48.87685" lon="7.42447">
        <ele>236</ele>
        <time>2021-08-08T05:00:23Z</time>
      </trkpt>
      <trkpt lat="48.87685" lon="7.42447">
        <ele>236</ele>
        <time>2021-08-08T05:00:24Z</time>
      </trkpt>
      <trkpt lat="48.87681" lon="7.42426">
        <ele>236</ele>
        <time>2021-08-08T05:00:25Z</time>
      </trkpt>
      <trkpt lat="48.87681" lon="7.42426">
        <ele>236</ele>
        <time>2021-08-08T05:00:26Z</time>
      </trkpt>
      <trkpt lat="48.87676" lon="7.42406">
        <ele>235</ele>
        <time>2021-08-08T05:00:27Z</time>
      </trkpt>
      <trkpt lat="48.87676" lon="7.42406">
        <ele>235</ele>
        <time>2021-08-08T05:00:28Z</time>
      </trkpt>
      <trkpt lat="48.87671" lon="7.42386">
        <ele>235</ele>
        <time>2021-08-08T05:00:29Z</time>
      </trkpt>
      <trkpt lat="48.87671" lon="7.42386">
        <ele>235</ele>
        <time>2021-08-08T05:00:30Z</time>
      </trkpt>
      <trkpt lat="48.87666" lon="7.42367">
        <ele>235</ele>
        <time>2021-08-08T05:00:31Z</time>
      </trkpt>
      <trkpt lat="48.87666" lon="7.42367">
        <ele>235</ele>
        <time>2021-08-08T05:00:32Z</time>
      </trkpt>
      <trkpt lat="48.87662" lon="7.42348">
        <ele>234</ele>
        <time>2021-08-08T05:00:33Z</time>
      </trkpt>
      <trkpt lat="48.8766" lon="7.42339">
        <ele>234</ele>
        <time>2021-08-08T05:00:34Z</time>
      </trkpt>
      <trkpt lat="48.8766" lon="7.42339">
        <ele>234</ele>
        <time>2021-08-08T05:00:35Z</time>
      </trkpt>
      <trkpt lat="48.87655" lon="7.4232">
        <ele>234</ele>
        <time>2021-08-08T05:00:36Z</time>
      </trkpt>
      <trkpt lat="48.87652" lon="7.42311">
        <ele>234</ele>
        <time>2021-08-08T05:00:37Z</time>
      </trkpt>
      <trkpt lat="48.87652" lon="7.42311">
        <ele>234</ele>
        <time>2021-08-08T05:00:38Z</time>
      </trkpt>
      <trkpt lat="48.87648" lon="7.42293">
        <ele>234</ele>
        <time>2021-08-08T05:00:39Z</time>
      </trkpt>
      <trkpt lat="48.87646" lon="7.42284">
        <ele>233</ele>
        <time>2021-08-08T05:00:40Z</time>
      </trkpt>
      <trkpt lat="48.87646" lon="7.42284">
        <ele>233</ele>
        <time>2021-08-08T05:00:41Z</time>
      </trkpt>
      <trkpt lat="48.8764" lon="7.42269">
        <ele>233</ele>
        <time>2021-08-08T05:00:42Z</time>
      </trkpt>
      <trkpt lat="48.8764" lon="7.42269">
        <ele>233</ele>
        <time>2021-08-08T05:00:43Z</time>
      </trkpt>
      <trkpt lat="48.87635" lon="7.42252">
        <ele>233</ele>
        <time>2021-08-08T05:00:44Z</time>
      </trkpt>
      <trkpt lat="48.87633" lon="7.42244">
        <ele>233</ele>
        <time>2021-08-08T05:00:45Z</time>
      </trkpt>
      <trkpt lat="48.87633" lon="7.42244">
        <ele>233</ele>
        <time>2021-08-08T05:00:46Z</time>
      </trkpt>
      <trkpt lat="48.87631" lon="7.42228">
        <ele>233</ele>
        <time>2021-08-08T05:00:47Z</time>
      </trkpt>
      <trkpt lat="48.87631" lon="7.42228">
        <ele>233</ele>
        <time>2021-08-08T05:00:48Z</time>
      </trkpt>
      <trkpt lat="48.87628" lon="7.42213">
        <ele>233</ele>
        <time>2021-08-08T05:00:49Z</time>
      </trkpt>
      <trkpt lat="48.87628" lon="7.42213">
        <ele>233</ele>
        <time>2021-08-08T05:00:50Z</time>
      </trkpt>
      <trkpt lat="48.87627" lon="7.422">
        <ele>232</ele>
        <time>2021-08-08T05:00:51Z</time>
      </trkpt>
      <trkpt lat="48.87627" lon="7.422">
        <ele>232</ele>
        <time>2021-08-08T05:00:52Z</time>
      </trkpt>
      <trkpt lat="48.87626" lon="7.42185">
        <ele>232</ele>
        <time>2021-08-08T05:00:53Z</time>
      </trkpt>
      <trkpt lat="48.87626" lon="7.42185">
        <ele>232</ele>
        <time>2021-08-08T05:00:54Z</time>
      </trkpt>
      <trkpt lat="48.87622" lon="7.42169">
        <ele>232</ele>
        <time>2021-08-08T05:00:55Z</time>
      </trkpt>
      <trkpt lat="48.87622" lon="7.42169">
        <ele>232</ele>
        <time>2021-08-08T05:00:56Z</time>
      </trkpt>
      <trkpt lat="48.87619" lon="7.42158">
        <ele>232</ele>
        <time>2021-08-08T05:00:57Z</time>
      </trkpt>
      <trkpt lat="48.87619" lon="7.42152">
        <ele>232</ele>
        <time>2021-08-08T05:00:58Z</time>
      </trkpt>
      <trkpt lat="48.87619" lon="7.42152">
        <ele>232</ele>
        <time>2021-08-08T05:00:59Z</time>
      </trkpt>
      <trkpt lat="48.87619" lon="7.42141">
        <ele>232</ele>
        <time>2021-08-08T05:01:00Z</time>
      </trkpt>
      <trkpt lat="48.87618" lon="7.42134">
        <ele>232</ele>
        <time>2021-08-08T05:01:01Z</time>
      </trkpt>
      <trkpt lat="48.87618" lon="7.42134">
        <ele>232</ele>
        <time>2021-08-08T05:01:02Z</time>
      </trkpt>
      <trkpt lat="48.87617" lon="7.42121">
        <ele>231</ele>
        <time>2021-08-08T05:01:03Z</time>
      </trkpt>
      <trkpt lat="48.87617" lon="7.42121">
        <ele>231</ele>
        <time>2021-08-08T05:01:04Z</time>
      </trkpt>
      <trkpt lat="48.87616" lon="7.42105">
        <ele>231</ele>
        <time>2021-08-08T05:01:05Z</time>
      </trkpt>
      <trkpt lat="48.87616" lon="7.42105">
        <ele>231</ele>
        <time>2021-08-08T05:01:06Z</time>
      </trkpt>
      <trkpt lat="48.87617" lon="7.42091">
        <ele>231</ele>
        <time>2021-08-08T05:01:07Z</time>
      </trkpt>
      <trkpt lat="48.87617" lon="7.42091">
        <ele>231</ele>
        <time>2021-08-08T05:01:08Z</time>
      </trkpt>
      <trkpt lat="48.8762" lon="7.42081">
        <ele>230</ele>
        <time>2021-08-08T05:01:09Z</time>
      </trkpt>
      <trkpt lat="48.87622" lon="7.42074">
        <ele>230</ele>
        <time>2021-08-08T05:01:10Z</time>
      </trkpt>
      <trkpt lat="48.87622" lon="7.42074">
        <ele>230</ele>
        <time>2021-08-08T05:01:11Z</time>
      </trkpt>
      <trkpt lat="48.87624" lon="7.42059">
        <ele>230</ele>
        <time>2021-08-08T05:01:12Z</time>
      </trkpt>
      <trkpt lat="48.87625" lon="7.42051">
        <ele>229</ele>
        <time>2021-08-08T05:01:13Z</time>
      </trkpt>
      <trkpt lat="48.87625" lon="7.42051">
        <ele>229</ele>
        <time>2021-08-08T05:01:14Z</time>
      </trkpt>
      <trkpt lat="48.87624" lon="7.42034">
        <ele>229</ele>
        <time>2021-08-08T05:01:15Z</time>
      </trkpt>
      <trkpt lat="48.87624" lon="7.42034">
        <ele>229</ele>
        <time>2021-08-08T05:01:16Z</time>
      </trkpt>
      <trkpt lat="48.87623" lon="7.42017">
        <ele>228</ele>
        <time>2021-08-08T05:01:17Z</time>
      </trkpt>
      <trkpt lat="48.87623" lon="7.42017">
        <ele>228</ele>
        <time>2021-08-08T05:01:18Z</time>
      </trkpt>
      <trkpt lat="48.87622" lon="7.41998">
        <ele>228</ele>
        <time>2021-08-08T05:01:19Z</time>
      </trkpt>
      <trkpt lat="48.87622" lon="7.41998">
        <ele>228</ele>
        <time>2021-08-08T05:01:20Z</time>
      </trkpt>
      <trkpt lat="48.87623" lon="7.41977">
        <ele>227</ele>
        <time>2021-08-08T05:01:21Z</time>
      </trkpt>
      <trkpt lat="48.87624" lon="7.41967">
        <ele>227</ele>
        <time>2021-08-08T05:01:22Z</time>
      </trkpt>
      <trkpt lat="48.87624" lon="7.41967">
        <ele>227</ele>
        <time>2021-08-08T05:01:23Z</time>
      </trkpt>
      <trkpt lat="48.87627" lon="7.41946">
        <ele>227</ele>
        <time>2021-08-08T05:01:24Z</time>
      </trkpt>
      <trkpt lat="48.87627" lon="7.41946">
        <ele>226</ele>
        <time>2021-08-08T05:01:25Z</time>
      </trkpt>
      <trkpt lat="48.87628" lon="7.41925">
        <ele>226</ele>
        <time>2021-08-08T05:01:26Z</time>
      </trkpt>
      <trkpt lat="48.87628" lon="7.41925">
        <ele>225</ele>
        <time>2021-08-08T05:01:27Z</time>
      </trkpt>
      <trkpt lat="48.8763" lon="7.41902">
        <ele>225</ele>
        <time>2021-08-08T05:01:28Z</time>
      </trkpt>
      <trkpt lat="48.8763" lon="7.41902">
        <ele>224</ele>
        <time>2021-08-08T05:01:29Z</time>
      </trkpt>
      <trkpt lat="48.87633" lon="7.41877">
        <ele>224</ele>
        <time>2021-08-08T05:01:30Z</time>
      </trkpt>
      <trkpt lat="48.87634" lon="7.41865">
        <ele>223</ele>
        <time>2021-08-08T05:01:31Z</time>
      </trkpt>
      <trkpt lat="48.87634" lon="7.41865">
        <ele>223</ele>
        <time>2021-08-08T05:01:32Z</time>
      </trkpt>
      <trkpt lat="48.87638" lon="7.41839">
        <ele>222</ele>
        <time>2021-08-08T05:01:33Z</time>
      </trkpt>
      <trkpt lat="48.87638" lon="7.41839">
        <ele>222</ele>
        <time>2021-08-08T05:01:34Z</time>
      </trkpt>
      <trkpt lat="48.87645" lon="7.41814">
        <ele>221</ele>
        <time>2021-08-08T05:01:35Z</time>
      </trkpt>
      <trkpt lat="48.87651" lon="7.41803">
        <ele>221</ele>
        <time>2021-08-08T05:01:36Z</time>
      </trkpt>
      <trkpt lat="48.87651" lon="7.41803">
        <ele>220</ele>
        <time>2021-08-08T05:01:37Z</time>
      </trkpt>
      <trkpt lat="48.87663" lon="7.41782">
        <ele>220</ele>
        <time>2021-08-08T05:01:38Z</time>
      </trkpt>
      <trkpt lat="48.87663" lon="7.41782">
        <ele>218</ele>
        <time>2021-08-08T05:01:39Z</time>
      </trkpt>
      <trkpt lat="48.87676" lon="7.41761">
        <ele>218</ele>
        <time>2021-08-08T05:01:40Z</time>
      </trkpt>
      <trkpt lat="48.87682" lon="7.4175">
        <ele>217</ele>
        <time>2021-08-08T05:01:41Z</time>
      </trkpt>
      <trkpt lat="48.87682" lon="7.4175">
        <ele>217</ele>
        <time>2021-08-08T05:01:42Z</time>
      </trkpt>
      <trkpt lat="48.87694" lon="7.41728">
        <ele>216</ele>
        <time>2021-08-08T05:01:43Z</time>
      </trkpt>
      <trkpt lat="48.87694" lon="7.41728">
        <ele>215</ele>
        <time>2021-08-08T05:01:44Z</time>
      </trkpt>
      <trkpt lat="48.87705" lon="7.41704">
        <ele>215</ele>
        <time>2021-08-08T05:01:45Z</time>
      </trkpt>
      <trkpt lat="48.87705" lon="7.41704">
        <ele>214</ele>
        <time>2021-08-08T05:01:46Z</time>
      </trkpt>
      <trkpt lat="48.87716" lon="7.41681">
        <ele>214</ele>
        <time>2021-08-08T05:01:47Z</time>
      </trkpt>
      <trkpt lat="48.87722" lon="7.4167">
        <ele>213</ele>
        <time>2021-08-08T05:01:48Z</time>
      </trkpt>
      <trkpt lat="48.87722" lon="7.4167">
        <ele>213</ele>
        <time>2021-08-08T05:01:49Z</time>
      </trkpt>
      <trkpt lat="48.87733" lon="7.41647">
        <ele>212</ele>
        <time>2021-08-08T05:01:50Z</time>
      </trkpt>
      <trkpt lat="48.87739" lon="7.41636">
        <ele>212</ele>
        <time>2021-08-08T05:01:51Z</time>
      </trkpt>
      <trkpt lat="48.87739" lon="7.41636">
        <ele>211</ele>
        <time>2021-08-08T05:01:52Z</time>
      </trkpt>
      <trkpt lat="48.8775" lon="7.41613">
        <ele>211</ele>
        <time>2021-08-08T05:01:53Z</time>
      </trkpt>
      <trkpt lat="48.8775" lon="7.41613">
        <ele>210</ele>
        <time>2021-08-08T05:01:54Z</time>
      </trkpt>
      <trkpt lat="48.87762" lon="7.41593">
        <ele>210</ele>
        <time>2021-08-08T05:01:55Z</time>
      </trkpt>
      <trkpt lat="48.87762" lon="7.41593">
        <ele>209</ele>
        <time>2021-08-08T05:01:56Z</time>
      </trkpt>
      <trkpt lat="48.87772" lon="7.41575">
        <ele>209</ele>
        <time>2021-08-08T05:01:57Z</time>
      </trkpt>
      <trkpt lat="48.87772" lon="7.41575">
        <ele>208</ele>
        <time>2021-08-08T05:01:58Z</time>
      </trkpt>
      <trkpt lat="48.87777" lon="7.41567">
        <ele>208</ele>
        <time>2021-08-08T05:01:59Z</time>
      </trkpt>
      <trkpt lat="48.87782" lon="7.41564">
        <ele>208</ele>
        <time>2021-08-08T05:02:00Z</time>
      </trkpt>
      <trkpt lat="48.87787" lon="7.41562">
        <ele>208</ele>
        <time>2021-08-08T05:02:01Z</time>
      </trkpt>
      <trkpt lat="48.87787" lon="7.41562">
        <ele>207</ele>
        <time>2021-08-08T05:02:02Z</time>
      </trkpt>
      <trkpt lat="48.87798" lon="7.41556">
        <ele>207</ele>
        <time>2021-08-08T05:02:03Z</time>
      </trkpt>
      <trkpt lat="48.87798" lon="7.41556">
        <ele>207</ele>
        <time>2021-08-08T05:02:04Z</time>
      </trkpt>
      <trkpt lat="48.8781" lon="7.41547">
        <ele>207</ele>
        <time>2021-08-08T05:02:05Z</time>
      </trkpt>
      <trkpt lat="48.8781" lon="7.41547">
        <ele>206</ele>
        <time>2021-08-08T05:02:06Z</time>
      </trkpt>
      <trkpt lat="48.87823" lon="7.41538">
        <ele>206</ele>
        <time>2021-08-08T05:02:07Z</time>
      </trkpt>
      <trkpt lat="48.87823" lon="7.41538">
        <ele>205</ele>
        <time>2021-08-08T05:02:08Z</time>
      </trkpt>
      <trkpt lat="48.87835" lon="7.41521">
        <ele>205</ele>
        <time>2021-08-08T05:02:09Z</time>
      </trkpt>
      <trkpt lat="48.87835" lon="7.41521">
        <ele>204</ele>
        <time>2021-08-08T05:02:10Z</time>
      </trkpt>
      <trkpt lat="48.87843" lon="7.41499">
        <ele>204</ele>
        <time>2021-08-08T05:02:11Z</time>
      </trkpt>
      <trkpt lat="48.87843" lon="7.41499">
        <ele>203</ele>
        <time>2021-08-08T05:02:12Z</time>
      </trkpt>
      <trkpt lat="48.87851" lon="7.41475">
        <ele>203</ele>
        <time>2021-08-08T05:02:13Z</time>
      </trkpt>
      <trkpt lat="48.87851" lon="7.41475">
        <ele>203</ele>
        <time>2021-08-08T05:02:14Z</time>
      </trkpt>
      <trkpt lat="48.87858" lon="7.41452">
        <ele>203</ele>
        <time>2021-08-08T05:02:15Z</time>
      </trkpt>
      <trkpt lat="48.87858" lon="7.41452">
        <ele>202</ele>
        <time>2021-08-08T05:02:16Z</time>
      </trkpt>
      <trkpt lat="48.87866" lon="7.41431">
        <ele>202</ele>
        <time>2021-08-08T05:02:17Z</time>
      </trkpt>
      <trkpt lat="48.87866" lon="7.41431">
        <ele>202</ele>
        <time>2021-08-08T05:02:18Z</time>
      </trkpt>
      <trkpt lat="48.87876" lon="7.41414">
        <ele>202</ele>
        <time>2021-08-08T05:02:19Z</time>
      </trkpt>
      <trkpt lat="48.87876" lon="7.41414">
        <ele>202</ele>
        <time>2021-08-08T05:02:20Z</time>
      </trkpt>
      <trkpt lat="48.87886" lon="7.414">
        <ele>202</ele>
        <time>2021-08-08T05:02:21Z</time>
      </trkpt>
      <trkpt lat="48.87886" lon="7.414">
        <ele>202</ele>
        <time>2021-08-08T05:02:22Z</time>
      </trkpt>
      <trkpt lat="48.87893" lon="7.41382">
        <ele>202</ele>
        <time>2021-08-08T05:02:23Z</time>
      </trkpt>
      <trkpt lat="48.87893" lon="7.41382">
        <ele>202</ele>
        <time>2021-08-08T05:02:24Z</time>
      </trkpt>
      <trkpt lat="48.87896" lon="7.41364">
        <ele>201</ele>
        <time>2021-08-08T05:02:25Z</time>
      </trkpt>
      <trkpt lat="48.87896" lon="7.41364">
        <ele>201</ele>
        <time>2021-08-08T05:02:26Z</time>
      </trkpt>
      <trkpt lat="48.87897" lon="7.41348">
        <ele>201</ele>
        <time>2021-08-08T05:02:27Z</time>
      </trkpt>
      <trkpt lat="48.87898" lon="7.41341">
        <ele>201</ele>
        <time>2021-08-08T05:02:28Z</time>
      </trkpt>
      <trkpt lat="48.87898" lon="7.41341">
        <ele>201</ele>
        <time>2021-08-08T05:02:29Z</time>
      </trkpt>
      <trkpt lat="48.87901" lon="7.41328">
        <ele>201</ele>
        <time>2021-08-08T05:02:30Z</time>
      </trkpt>
      <trkpt lat="48.87903" lon="7.41322">
        <ele>201</ele>
        <time>2021-08-08T05:02:31Z</time>
      </trkpt>
      <trkpt lat="48.87903" lon="7.41322">
        <ele>201</ele>
        <time>2021-08-08T05:02:32Z</time>
      </trkpt>
      <trkpt lat="48.87905" lon="7.41313">
        <ele>202</ele>
        <time>2021-08-08T05:02:33Z</time>
      </trkpt>
      <trkpt lat="48.87906" lon="7.41309">
        <ele>202</ele>
        <time>2021-08-08T05:02:34Z</time>
      </trkpt>
      <trkpt lat="48.87906" lon="7.41309">
        <ele>202</ele>
        <time>2021-08-08T05:02:35Z</time>
      </trkpt>
      <trkpt lat="48.87905" lon="7.41301">
        <ele>202</ele>
        <time>2021-08-08T05:02:36Z</time>
      </trkpt>
      <trkpt lat="48.87904" lon="7.41297">
        <ele>202</ele>
        <time>2021-08-08T05:02:37Z</time>
      </trkpt>
      <trkpt lat="48.87904" lon="7.41297">
        <ele>202</ele>
        <time>2021-08-08T05:02:38Z</time>
      </trkpt>
      <trkpt lat="48.87901" lon="7.41291">
        <ele>203</ele>
        <time>2021-08-08T05:02:39Z</time>
      </trkpt>
      <trkpt lat="48.87901" lon="7.41291">
        <ele>203</ele>
        <time>2021-08-08T05:02:40Z</time>
      </trkpt>
      <trkpt lat="48.87899" lon="7.41285">
        <ele>203</ele>
        <time>2021-08-08T05:02:41Z</time>
      </trkpt>
      <trkpt lat="48.87899" lon="7.41285">
        <ele>204</ele>
        <time>2021-08-08T05:02:42Z</time>
      </trkpt>
      <trkpt lat="48.87897" lon="7.41279">
        <ele>204</ele>
        <time>2021-08-08T05:02:43Z</time>
      </trkpt>
      <trkpt lat="48.87897" lon="7.41279">
        <ele>204</ele>
        <time>2021-08-08T05:02:44Z</time>
      </trkpt>
      <trkpt lat="48.87895" lon="7.41274">
        <ele>204</ele>
        <time>2021-08-08T05:02:45Z</time>
      </trkpt>
      <trkpt lat="48.87895" lon="7.41274">
        <ele>205</ele>
        <time>2021-08-08T05:02:46Z</time>
      </trkpt>
      <trkpt lat="48.87893" lon="7.41269">
        <ele>205</ele>
        <time>2021-08-08T05:02:47Z</time>
      </trkpt>
      <trkpt lat="48.87893" lon="7.41269">
        <ele>206</ele>
        <time>2021-08-08T05:02:48Z</time>
      </trkpt>
      <trkpt lat="48.87891" lon="7.41265">
        <ele>206</ele>
        <time>2021-08-08T05:02:49Z</time>
      </trkpt>
      <trkpt lat="48.87891" lon="7.41265">
        <ele>206</ele>
        <time>2021-08-08T05:02:50Z</time>
      </trkpt>
      <trkpt lat="48.87888" lon="7.41261">
        <ele>206</ele>
        <time>2021-08-08T05:02:51Z</time>
      </trkpt>
      <trkpt lat="48.87888" lon="7.41261">
        <ele>207</ele>
        <time>2021-08-08T05:02:52Z</time>
      </trkpt>
      <trkpt lat="48.87887" lon="7.41256">
        <ele>207</ele>
        <time>2021-08-08T05:02:53Z</time>
      </trkpt>
      <trkpt lat="48.87887" lon="7.41256">
        <ele>207</ele>
        <time>2021-08-08T05:02:54Z</time>
      </trkpt>
      <trkpt lat="48.87886" lon="7.41251">
        <ele>207</ele>
        <time>2021-08-08T05:02:55Z</time>
      </trkpt>
      <trkpt lat="48.87886" lon="7.41251">
        <ele>208</ele>
        <time>2021-08-08T05:02:56Z</time>
      </trkpt>
      <trkpt lat="48.87885" lon="7.41245">
        <ele>208</ele>
        <time>2021-08-08T05:02:57Z</time>
      </trkpt>
      <trkpt lat="48.87885" lon="7.41245">
        <ele>208</ele>
        <time>2021-08-08T05:02:58Z</time>
      </trkpt>
      <trkpt lat="48.87884" lon="7.41238">
        <ele>208</ele>
        <time>2021-08-08T05:02:59Z</time>
      </trkpt>
      <trkpt lat="48.87884" lon="7.41235">
        <ele>208</ele>
        <time>2021-08-08T05:03:00Z</time>
      </trkpt>
      <trkpt lat="48.87884" lon="7.41235">
        <ele>208</ele>
        <time>2021-08-08T05:03:01Z</time>
      </trkpt>
      <trkpt lat="48.87883" lon="7.4123">
        <ele>208</ele>
        <time>2021-08-08T05:03:02Z</time>
      </trkpt>
      <trkpt lat="48.87883" lon="7.41227">
        <ele>208</ele>
        <time>2021-08-08T05:03:03Z</time>
      </trkpt>
      <trkpt lat="48.87883" lon="7.41224">
        <ele>209</ele>
        <time>2021-08-08T05:03:04Z</time>
      </trkpt>
      <trkpt lat="48.87883" lon="7.41224">
        <ele>209</ele>
        <time>2021-08-08T05:03:05Z</time>
      </trkpt>
      <trkpt lat="48.87882" lon="7.41218">
        <ele>209</ele>
        <time>2021-08-08T05:03:06Z</time>
      </trkpt>
      <trkpt lat="48.87882" lon="7.41216">
        <ele>209</ele>
        <time>2021-08-08T05:03:07Z</time>
      </trkpt>
      <trkpt lat="48.87882" lon="7.41216">
        <ele>210</ele>
        <time>2021-08-08T05:03:08Z</time>
      </trkpt>
      <trkpt lat="48.87882" lon="7.4121">
        <ele>210</ele>
        <time>2021-08-08T05:03:09Z</time>
      </trkpt>
      <trkpt lat="48.87882" lon="7.4121">
        <ele>210</ele>
        <time>2021-08-08T05:03:10Z</time>
      </trkpt>
      <trkpt lat="48.87881" lon="7.41205">
        <ele>210</ele>
        <time>2021-08-08T05:03:11Z</time>
      </trkpt>
      <trkpt lat="48.87881" lon="7.41202">
        <ele>210</ele>
        <time>2021-08-08T05:03:12Z</time>
      </trkpt>
      <trkpt lat="48.87881" lon="7.41202">
        <ele>210</ele>
        <time>2021-08-08T05:03:13Z</time>
      </trkpt>
      <trkpt lat="48.87881" lon="7.41196">
        <ele>211</ele>
        <time>2021-08-08T05:03:14Z</time>
      </trkpt>
      <trkpt lat="48.87881" lon="7.41193">
        <ele>211</ele>
        <time>2021-08-08T05:03:15Z</time>
      </trkpt>
      <trkpt lat="48.87881" lon="7.41193">
        <ele>211</ele>
        <time>2021-08-08T05:03:16Z</time>
      </trkpt>
      <trkpt lat="48.87881" lon="7.41188">
        <ele>211</ele>
        <time>2021-08-08T05:03:17Z</time>
      </trkpt>
      <trkpt lat="48.8788" lon="7.41185">
        <ele>211</ele>
        <time>2021-08-08T05:03:18Z</time>
      </trkpt>
      <trkpt lat="48.8788" lon="7.41181">
        <ele>211</ele>
        <time>2021-08-08T05:03:19Z</time>
      </trkpt>
      <trkpt lat="48.8788" lon="7.41181">
        <ele>212</ele>
        <time>2021-08-08T05:03:20Z</time>
      </trkpt>
      <trkpt lat="48.8788" lon="7.41175">
        <ele>212</ele>
        <time>2021-08-08T05:03:21Z</time>
      </trkpt>
      <trkpt lat="48.8788" lon="7.41172">
        <ele>213</ele>
        <time>2021-08-08T05:03:22Z</time>
      </trkpt>
      <trkpt lat="48.8788" lon="7.41172">
        <ele>213</ele>
        <time>2021-08-08T05:03:23Z</time>
      </trkpt>
      <trkpt lat="48.87879" lon="7.41164">
        <ele>213</ele>
        <time>2021-08-08T05:03:24Z</time>
      </trkpt>
      <trkpt lat="48.87879" lon="7.41162">
        <ele>213</ele>
        <time>2021-08-08T05:03:25Z</time>
      </trkpt>
      <trkpt lat="48.87879" lon="7.41162">
        <ele>214</ele>
        <time>2021-08-08T05:03:26Z</time>
      </trkpt>
      <trkpt lat="48.87877" lon="7.41156">
        <ele>214</ele>
        <time>2021-08-08T05:03:27Z</time>
      </trkpt>
      <trkpt lat="48.87877" lon="7.41156">
        <ele>214</ele>
        <time>2021-08-08T05:03:28Z</time>
      </trkpt>
      <trkpt lat="48.87876" lon="7.4115">
        <ele>214</ele>
        <time>2021-08-08T05:03:29Z</time>
      </trkpt>
      <trkpt lat="48.87876" lon="7.4115">
        <ele>215</ele>
        <time>2021-08-08T05:03:30Z</time>
      </trkpt>
      <trkpt lat="48.87874" lon="7.41146">
        <ele>215</ele>
        <time>2021-08-08T05:03:31Z</time>
      </trkpt>
      <trkpt lat="48.87874" lon="7.41146">
        <ele>215</ele>
        <time>2021-08-08T05:03:32Z</time>
      </trkpt>
      <trkpt lat="48.87872" lon="7.41142">
        <ele>215</ele>
        <time>2021-08-08T05:03:33Z</time>
      </trkpt>
      <trkpt lat="48.87872" lon="7.41142">
        <ele>216</ele>
        <time>2021-08-08T05:03:34Z</time>
      </trkpt>
      <trkpt lat="48.87869" lon="7.41137">
        <ele>216</ele>
        <time>2021-08-08T05:03:35Z</time>
      </trkpt>
      <trkpt lat="48.87868" lon="7.41135">
        <ele>216</ele>
        <time>2021-08-08T05:03:36Z</time>
      </trkpt>
      <trkpt lat="48.87867" lon="7.41132">
        <ele>216</ele>
        <time>2021-08-08T05:03:37Z</time>
      </trkpt>
      <trkpt lat="48.87867" lon="7.41132">
        <ele>216</ele>
        <time>2021-08-08T05:03:38Z</time>
      </trkpt>
      <trkpt lat="48.87864" lon="7.41127">
        <ele>216</ele>
        <time>2021-08-08T05:03:39Z</time>
      </trkpt>
      <trkpt lat="48.87864" lon="7.41127">
        <ele>216</ele>
        <time>2021-08-08T05:03:40Z</time>
      </trkpt>
      <trkpt lat="48.87859" lon="7.41119">
        <ele>217</ele>
        <time>2021-08-08T05:03:41Z</time>
      </trkpt>
      <trkpt lat="48.87859" lon="7.41119">
        <ele>217</ele>
        <time>2021-08-08T05:03:42Z</time>
      </trkpt>
      <trkpt lat="48.87853" lon="7.41111">
        <ele>217</ele>
        <time>2021-08-08T05:03:43Z</time>
      </trkpt>
      <trkpt lat="48.87853" lon="7.41111">
        <ele>217</ele>
        <time>2021-08-08T05:03:44Z</time>
      </trkpt>
      <trkpt lat="48.87847" lon="7.41102">
        <ele>217</ele>
        <time>2021-08-08T05:03:45Z</time>
      </trkpt>
      <trkpt lat="48.87847" lon="7.41102">
        <ele>217</ele>
        <time>2021-08-08T05:03:46Z</time>
      </trkpt>
      <trkpt lat="48.87841" lon="7.41093">
        <ele>217</ele>
        <time>2021-08-08T05:03:47Z</time>
      </trkpt>
      <trkpt lat="48.87841" lon="7.41093">
        <ele>217</ele>
        <time>2021-08-08T05:03:48Z</time>
      </trkpt>
      <trkpt lat="48.87837" lon="7.4108">
        <ele>216</ele>
        <time>2021-08-08T05:03:49Z</time>
      </trkpt>
      <trkpt lat="48.87835" lon="7.41073">
        <ele>216</ele>
        <time>2021-08-08T05:03:50Z</time>
      </trkpt>
      <trkpt lat="48.87833" lon="7.41065">
        <ele>216</ele>
        <time>2021-08-08T05:03:51Z</time>
      </trkpt>
      <trkpt lat="48.87833" lon="7.41065">
        <ele>216</ele>
        <time>2021-08-08T05:03:52Z</time>
      </trkpt>
      <trkpt lat="48.87831" lon="7.4105">
        <ele>216</ele>
        <time>2021-08-08T05:03:53Z</time>
      </trkpt>
      <trkpt lat="48.87831" lon="7.4105">
        <ele>216</ele>
        <time>2021-08-08T05:03:54Z</time>
      </trkpt>
      <trkpt lat="48.8783" lon="7.41035">
        <ele>216</ele>
        <time>2021-08-08T05:03:55Z</time>
      </trkpt>
      <trkpt lat="48.8783" lon="7.41035">
        <ele>216</ele>
        <time>2021-08-08T05:03:56Z</time>
      </trkpt>
      <trkpt lat="48.87831" lon="7.4102">
        <ele>215</ele>
        <time>2021-08-08T05:03:57Z</time>
      </trkpt>
      <trkpt lat="48.87831" lon="7.4102">
        <ele>215</ele>
        <time>2021-08-08T05:03:58Z</time>
      </trkpt>
      <trkpt lat="48.87833" lon="7.41005">
        <ele>215</ele>
        <time>2021-08-08T05:03:59Z</time>
      </trkpt>
      <trkpt lat="48.87833" lon="7.41005">
        <ele>215</ele>
        <time>2021-08-08T05:04:00Z</time>
      </trkpt>
      <trkpt lat="48.87835" lon="7.40991">
        <ele>215</ele>
        <time>2021-08-08T05:04:01Z</time>
      </trkpt>
      <trkpt lat="48.87835" lon="7.40991">
        <ele>215</ele>
        <time>2021-08-08T05:04:02Z</time>
      </trkpt>
      <trkpt lat="48.87837" lon="7.40976">
        <ele>215</ele>
        <time>2021-08-08T05:04:03Z</time>
      </trkpt>
      <trkpt lat="48.87837" lon="7.40976">
        <ele>215</ele>
        <time>2021-08-08T05:04:04Z</time>
      </trkpt>
      <trkpt lat="48.87839" lon="7.40961">
        <ele>214</ele>
        <time>2021-08-08T05:04:05Z</time>
      </trkpt>
      <trkpt lat="48.87839" lon="7.40961">
        <ele>214</ele>
        <time>2021-08-08T05:04:06Z</time>
      </trkpt>
      <trkpt lat="48.87841" lon="7.40947">
        <ele>214</ele>
        <time>2021-08-08T05:04:07Z</time>
      </trkpt>
      <trkpt lat="48.87841" lon="7.40947">
        <ele>214</ele>
        <time>2021-08-08T05:04:08Z</time>
      </trkpt>
      <trkpt lat="48.87843" lon="7.40934">
        <ele>214</ele>
        <time>2021-08-08T05:04:09Z</time>
      </trkpt>
      <trkpt lat="48.87843" lon="7.40934">
        <ele>214</ele>
        <time>2021-08-08T05:04:10Z</time>
      </trkpt>
      <trkpt lat="48.87845" lon="7.40921">
        <ele>214</ele>
        <time>2021-08-08T05:04:11Z</time>
      </trkpt>
      <trkpt lat="48.87845" lon="7.40921">
        <ele>214</ele>
        <time>2021-08-08T05:04:12Z</time>
      </trkpt>
      <trkpt lat="48.87847" lon="7.40909">
        <ele>214</ele>
        <time>2021-08-08T05:04:13Z</time>
      </trkpt>
      <trkpt lat="48.87847" lon="7.40909">
        <ele>214</ele>
        <time>2021-08-08T05:04:14Z</time>
      </trkpt>
      <trkpt lat="48.87851" lon="7.40898">
        <ele>214</ele>
        <time>2021-08-08T05:04:15Z</time>
      </trkpt>
      <trkpt lat="48.87854" lon="7.40895">
        <ele>214</ele>
        <time>2021-08-08T05:04:16Z</time>
      </trkpt>
      <trkpt lat="48.87854" lon="7.40895">
        <ele>214</ele>
        <time>2021-08-08T05:04:17Z</time>
      </trkpt>
      <trkpt lat="48.8786" lon="7.40893">
        <ele>214</ele>
        <time>2021-08-08T05:04:18Z</time>
      </trkpt>
      <trkpt lat="48.8786" lon="7.40893">
        <ele>215</ele>
        <time>2021-08-08T05:04:19Z</time>
      </trkpt>
      <trkpt lat="48.87867" lon="7.40895">
        <ele>215</ele>
        <time>2021-08-08T05:04:20Z</time>
      </trkpt>
      <trkpt lat="48.87869" lon="7.40898">
        <ele>215</ele>
        <time>2021-08-08T05:04:21Z</time>
      </trkpt>
      <trkpt lat="48.87869" lon="7.40898">
        <ele>215</ele>
        <time>2021-08-08T05:04:22Z</time>
      </trkpt>
      <trkpt lat="48.87873" lon="7.40905">
        <ele>215</ele>
        <time>2021-08-08T05:04:23Z</time>
      </trkpt>
      <trkpt lat="48.87873" lon="7.40905">
        <ele>215</ele>
        <time>2021-08-08T05:04:24Z</time>
      </trkpt>
      <trkpt lat="48.87876" lon="7.40913">
        <ele>216</ele>
        <time>2021-08-08T05:04:25Z</time>
      </trkpt>
      <trkpt lat="48.87876" lon="7.40913">
        <ele>216</ele>
        <time>2021-08-08T05:04:26Z</time>
      </trkpt>
      <trkpt lat="48.8788" lon="7.40922">
        <ele>216</ele>
        <time>2021-08-08T05:04:27Z</time>
      </trkpt>
      <trkpt lat="48.8788" lon="7.40922">
        <ele>216</ele>
        <time>2021-08-08T05:04:28Z</time>
      </trkpt>
      <trkpt lat="48.87885" lon="7.4093">
        <ele>216</ele>
        <time>2021-08-08T05:04:29Z</time>
      </trkpt>
      <trkpt lat="48.87885" lon="7.4093">
        <ele>216</ele>
        <time>2021-08-08T05:04:30Z</time>
      </trkpt>
      <trkpt lat="48.87889" lon="7.40939">
        <ele>216</ele>
        <time>2021-08-08T05:04:31Z</time>
      </trkpt>
      <trkpt lat="48.87889" lon="7.40939">
        <ele>216</ele>
        <time>2021-08-08T05:04:32Z</time>
      </trkpt>
      <trkpt lat="48.87894" lon="7.40945">
        <ele>217</ele>
        <time>2021-08-08T05:04:33Z</time>
      </trkpt>
      <trkpt lat="48.87897" lon="7.40948">
        <ele>217</ele>
        <time>2021-08-08T05:04:34Z</time>
      </trkpt>
      <trkpt lat="48.87897" lon="7.40948">
        <ele>217</ele>
        <time>2021-08-08T05:04:35Z</time>
      </trkpt>
      <trkpt lat="48.87903" lon="7.40952">
        <ele>217</ele>
        <time>2021-08-08T05:04:36Z</time>
      </trkpt>
      <trkpt lat="48.87905" lon="7.40953">
        <ele>217</ele>
        <time>2021-08-08T05:04:37Z</time>
      </trkpt>
      <trkpt lat="48.87908" lon="7.40955">
        <ele>218</ele>
        <time>2021-08-08T05:04:38Z</time>
      </trkpt>
      <trkpt lat="48.87908" lon="7.40955">
        <ele>218</ele>
        <time>2021-08-08T05:04:39Z</time>
      </trkpt>
      <trkpt lat="48.87914" lon="7.40957">
        <ele>218</ele>
        <time>2021-08-08T05:04:40Z</time>
      </trkpt>
      <trkpt lat="48.87914" lon="7.40957">
        <ele>218</ele>
        <time>2021-08-08T05:04:41Z</time>
      </trkpt>
      <trkpt lat="48.8792" lon="7.4096">
        <ele>218</ele>
        <time>2021-08-08T05:04:42Z</time>
      </trkpt>
      <trkpt lat="48.87922" lon="7.4096">
        <ele>218</ele>
        <time>2021-08-08T05:04:43Z</time>
      </trkpt>
      <trkpt lat="48.87922" lon="7.4096">
        <ele>218</ele>
        <time>2021-08-08T05:04:44Z</time>
      </trkpt>
      <trkpt lat="48.87927" lon="7.40963">
        <ele>218</ele>
        <time>2021-08-08T05:04:45Z</time>
      </trkpt>
      <trkpt lat="48.87927" lon="7.40963">
        <ele>218</ele>
        <time>2021-08-08T05:04:46Z</time>
      </trkpt>
      <trkpt lat="48.87933" lon="7.40966">
        <ele>218</ele>
        <time>2021-08-08T05:04:47Z</time>
      </trkpt>
      <trkpt lat="48.87933" lon="7.40966">
        <ele>219</ele>
        <time>2021-08-08T05:04:48Z</time>
      </trkpt>
      <trkpt lat="48.87939" lon="7.4097">
        <ele>219</ele>
        <time>2021-08-08T05:04:49Z</time>
      </trkpt>
      <trkpt lat="48.87939" lon="7.4097">
        <ele>219</ele>
        <time>2021-08-08T05:04:50Z</time>
      </trkpt>
      <trkpt lat="48.87943" lon="7.40975">
        <ele>219</ele>
        <time>2021-08-08T05:04:51Z</time>
      </trkpt>
      <trkpt lat="48.87943" lon="7.40975">
        <ele>220</ele>
        <time>2021-08-08T05:04:52Z</time>
      </trkpt>
      <trkpt lat="48.87949" lon="7.4098">
        <ele>220</ele>
        <time>2021-08-08T05:04:53Z</time>
      </trkpt>
      <trkpt lat="48.87951" lon="7.40983">
        <ele>220</ele>
        <time>2021-08-08T05:04:54Z</time>
      </trkpt>
      <trkpt lat="48.87951" lon="7.40983">
        <ele>220</ele>
        <time>2021-08-08T05:04:55Z</time>
      </trkpt>
      <trkpt lat="48.87956" lon="7.4099">
        <ele>220</ele>
        <time>2021-08-08T05:04:56Z</time>
      </trkpt>
      <trkpt lat="48.8796" lon="7.40992">
        <ele>220</ele>
        <time>2021-08-08T05:04:57Z</time>
      </trkpt>
      <trkpt lat="48.8796" lon="7.40992">
        <ele>221</ele>
        <time>2021-08-08T05:04:58Z</time>
      </trkpt>
      <trkpt lat="48.87964" lon="7.40996">
        <ele>221</ele>
        <time>2021-08-08T05:04:59Z</time>
      </trkpt>
      <trkpt lat="48.87964" lon="7.40996">
        <ele>221</ele>
        <time>2021-08-08T05:05:00Z</time>
      </trkpt>
      <trkpt lat="48.87968" lon="7.41">
        <ele>221</ele>
        <time>2021-08-08T05:05:01Z</time>
      </trkpt>
      <trkpt lat="48.87968" lon="7.41">
        <ele>221</ele>
        <time>2021-08-08T05:05:02Z</time>
      </trkpt>
      <trkpt lat="48.87972" lon="7.41005">
        <ele>221</ele>
        <time>2021-08-08T05:05:03Z</time>
      </trkpt>
      <trkpt lat="48.87972" lon="7.41005">
        <ele>221</ele>
        <time>2021-08-08T05:05:04Z</time>
      </trkpt>
      <trkpt lat="48.87976" lon="7.41011">
        <ele>221</ele>
        <time>2021-08-08T05:05:05Z</time>
      </trkpt>
      <trkpt lat="48.87978" lon="7.41014">
        <ele>222</ele>
        <time>2021-08-08T05:05:06Z</time>
      </trkpt>
      <trkpt lat="48.87978" lon="7.41014">
        <ele>222</ele>
        <time>2021-08-08T05:05:07Z</time>
      </trkpt>
      <trkpt lat="48.87982" lon="7.41019">
        <ele>222</ele>
        <time>2021-08-08T05:05:08Z</time>
      </trkpt>
      <trkpt lat="48.87984" lon="7.41022">
        <ele>222</ele>
        <time>2021-08-08T05:05:09Z</time>
      </trkpt>
      <trkpt lat="48.87984" lon="7.41022">
        <ele>222</ele>
        <time>2021-08-08T05:05:10Z</time>
      </trkpt>
      <trkpt lat="48.87987" lon="7.41028">
        <ele>222</ele>
        <time>2021-08-08T05:05:11Z</time>
      </trkpt>
      <trkpt lat="48.87987" lon="7.41028">
        <ele>222</ele>
        <time>2021-08-08T05:05:12Z</time>
      </trkpt>
      <trkpt lat="48.87993" lon="7.41034">
        <ele>222</ele>
        <time>2021-08-08T05:05:13Z</time>
      </trkpt>
      <trkpt lat="48.87993" lon="7.41034">
        <ele>222</ele>
        <time>2021-08-08T05:05:14Z</time>
      </trkpt>
      <trkpt lat="48.87999" lon="7.4104">
        <ele>222</ele>
        <time>2021-08-08T05:05:15Z</time>
      </trkpt>
      <trkpt lat="48.87999" lon="7.4104">
        <ele>222</ele>
        <time>2021-08-08T05:05:16Z</time>
      </trkpt>
      <trkpt lat="48.88005" lon="7.41045">
        <ele>222</ele>
        <time>2021-08-08T05:05:17Z</time>
      </trkpt>
      <trkpt lat="48.88005" lon="7.41045">
        <ele>222</ele>
        <time>2021-08-08T05:05:18Z</time>
      </trkpt>
      <trkpt lat="48.8801" lon="7.41049">
        <ele>222</ele>
        <time>2021-08-08T05:05:19Z</time>
      </trkpt>
      <trkpt lat="48.8801" lon="7.41049">
        <ele>222</ele>
        <time>2021-08-08T05:05:20Z</time>
      </trkpt>
      <trkpt lat="48.88017" lon="7.41051">
        <ele>222</ele>
        <time>2021-08-08T05:05:21Z</time>
      </trkpt>
      <trkpt lat="48.88017" lon="7.41051">
        <ele>222</ele>
        <time>2021-08-08T05:05:22Z</time>
      </trkpt>
      <trkpt lat="48.88023" lon="7.4105">
        <ele>222</ele>
        <time>2021-08-08T05:05:23Z</time>
      </trkpt>
      <trkpt lat="48.88023" lon="7.4105">
        <ele>222</ele>
        <time>2021-08-08T05:05:24Z</time>
      </trkpt>
      <trkpt lat="48.88028" lon="7.41046">
        <ele>222</ele>
        <time>2021-08-08T05:05:25Z</time>
      </trkpt>
      <trkpt lat="48.88031" lon="7.41045">
        <ele>222</ele>
        <time>2021-08-08T05:05:26Z</time>
      </trkpt>
      <trkpt lat="48.88031" lon="7.41045">
        <ele>222</ele>
        <time>2021-08-08T05:05:27Z</time>
      </trkpt>
      <trkpt lat="48.88035" lon="7.41043">
        <ele>223</ele>
        <time>2021-08-08T05:05:28Z</time>
      </trkpt>
      <trkpt lat="48.88035" lon="7.41043">
        <ele>223</ele>
        <time>2021-08-08T05:05:29Z</time>
      </trkpt>
      <trkpt lat="48.88039" lon="7.41041">
        <ele>223</ele>
        <time>2021-08-08T05:05:30Z</time>
      </trkpt>
      <trkpt lat="48.88039" lon="7.41041">
        <ele>224</ele>
        <time>2021-08-08T05:05:31Z</time>
      </trkpt>
      <trkpt lat="48.88044" lon="7.4104">
        <ele>224</ele>
        <time>2021-08-08T05:05:32Z</time>
      </trkpt>
      <trkpt lat="48.88044" lon="7.4104">
        <ele>224</ele>
        <time>2021-08-08T05:05:33Z</time>
      </trkpt>
      <trkpt lat="48.88048" lon="7.41039">
        <ele>224</ele>
        <time>2021-08-08T05:05:34Z</time>
      </trkpt>
      <trkpt lat="48.88048" lon="7.41039">
        <ele>225</ele>
        <time>2021-08-08T05:05:35Z</time>
      </trkpt>
      <trkpt lat="48.88052" lon="7.41039">
        <ele>225</ele>
        <time>2021-08-08T05:05:36Z</time>
      </trkpt>
      <trkpt lat="48.88052" lon="7.41039">
        <ele>225</ele>
        <time>2021-08-08T05:05:37Z</time>
      </trkpt>
      <trkpt lat="48.88056" lon="7.41041">
        <ele>225</ele>
        <time>2021-08-08T05:05:38Z</time>
      </trkpt>
      <trkpt lat="48.88058" lon="7.41042">
        <ele>226</ele>
        <time>2021-08-08T05:05:39Z</time>
      </trkpt>
      <trkpt lat="48.8806" lon="7.41043">
        <ele>226</ele>
        <time>2021-08-08T05:05:40Z</time>
      </trkpt>
      <trkpt lat="48.88063" lon="7.41044">
        <ele>226</ele>
        <time>2021-08-08T05:05:41Z</time>
      </trkpt>
      <trkpt lat="48.88065" lon="7.41045">
        <ele>226</ele>
        <time>2021-08-08T05:05:42Z</time>
      </trkpt>
      <trkpt lat="48.88065" lon="7.41045">
        <ele>227</ele>
        <time>2021-08-08T05:05:43Z</time>
      </trkpt>
      <trkpt lat="48.88069" lon="7.41048">
        <ele>227</ele>
        <time>2021-08-08T05:05:44Z</time>
      </trkpt>
      <trkpt lat="48.88069" lon="7.41048">
        <ele>227</ele>
        <time>2021-08-08T05:05:45Z</time>
      </trkpt>
      <trkpt lat="48.88073" lon="7.41051">
        <ele>227</ele>
        <time>2021-08-08T05:05:46Z</time>
      </trkpt>
      <trkpt lat="48.88073" lon="7.41051">
        <ele>227</ele>
        <time>2021-08-08T05:05:47Z</time>
      </trkpt>
      <trkpt lat="48.88077" lon="7.41053">
        <ele>227</ele>
        <time>2021-08-08T05:05:48Z</time>
      </trkpt>
      <trkpt lat="48.88079" lon="7.41055">
        <ele>228</ele>
        <time>2021-08-08T05:05:49Z</time>
      </trkpt>
      <trkpt lat="48.88079" lon="7.41055">
        <ele>228</ele>
        <time>2021-08-08T05:05:50Z</time>
      </trkpt>
      <trkpt lat="48.88083" lon="7.41059">
        <ele>228</ele>
        <time>2021-08-08T05:05:51Z</time>
      </trkpt>
      <trkpt lat="48.88083" lon="7.41059">
        <ele>228</ele>
        <time>2021-08-08T05:05:52Z</time>
      </trkpt>
      <trkpt lat="48.88086" lon="7.4106">
        <ele>229</ele>
        <time>2021-08-08T05:05:53Z</time>
      </trkpt>
      <trkpt lat="48.88086" lon="7.4106">
        <ele>229</ele>
        <time>2021-08-08T05:05:54Z</time>
      </trkpt>
      <trkpt lat="48.8809" lon="7.41063">
        <ele>229</ele>
        <time>2021-08-08T05:05:55Z</time>
      </trkpt>
      <trkpt lat="48.8809" lon="7.41063">
        <ele>229</ele>
        <time>2021-08-08T05:05:56Z</time>
      </trkpt>
      <trkpt lat="48.88093" lon="7.41066">
        <ele>230</ele>
        <time>2021-08-08T05:05:57Z</time>
      </trkpt>
      <trkpt lat="48.88093" lon="7.41066">
        <ele>230</ele>
        <time>2021-08-08T05:05:58Z</time>
      </trkpt>
      <trkpt lat="48.88096" lon="7.41066">
        <ele>230</ele>
        <time>2021-08-08T05:05:59Z</time>
      </trkpt>
      <trkpt lat="48.88096" lon="7.41066">
        <ele>230</ele>
        <time>2021-08-08T05:06:00Z</time>
      </trkpt>
      <trkpt lat="48.881" lon="7.4107">
        <ele>230</ele>
        <time>2021-08-08T05:06:01Z</time>
      </trkpt>
      <trkpt lat="48.881" lon="7.4107">
        <ele>230</ele>
        <time>2021-08-08T05:06:02Z</time>
      </trkpt>
      <trkpt lat="48.88101" lon="7.41075">
        <ele>230</ele>
        <time>2021-08-08T05:06:03Z</time>
      </trkpt>
      <trkpt lat="48.88101" lon="7.41075">
        <ele>230</ele>
        <time>2021-08-08T05:06:04Z</time>
      </trkpt>
      <trkpt lat="48.88103" lon="7.4108">
        <ele>230</ele>
        <time>2021-08-08T05:06:05Z</time>
      </trkpt>
      <trkpt lat="48.88103" lon="7.4108">
        <ele>230</ele>
        <time>2021-08-08T05:06:06Z</time>
      </trkpt>
      <trkpt lat="48.88105" lon="7.41086">
        <ele>231</ele>
        <time>2021-08-08T05:06:07Z</time>
      </trkpt>
      <trkpt lat="48.88105" lon="7.41086">
        <ele>231</ele>
        <time>2021-08-08T05:06:08Z</time>
      </trkpt>
      <trkpt lat="48.88109" lon="7.41093">
        <ele>231</ele>
        <time>2021-08-08T05:06:09Z</time>
      </trkpt>
      <trkpt lat="48.8811" lon="7.41096">
        <ele>231</ele>
        <time>2021-08-08T05:06:10Z</time>
      </trkpt>
      <trkpt lat="48.8811" lon="7.41096">
        <ele>232</ele>
        <time>2021-08-08T05:06:11Z</time>
      </trkpt>
      <trkpt lat="48.88113" lon="7.41103">
        <ele>232</ele>
        <time>2021-08-08T05:06:12Z</time>
      </trkpt>
      <trkpt lat="48.88115" lon="7.41107">
        <ele>232</ele>
        <time>2021-08-08T05:06:13Z</time>
      </trkpt>
      <trkpt lat="48.88115" lon="7.41107">
        <ele>232</ele>
        <time>2021-08-08T05:06:14Z</time>
      </trkpt>
      <trkpt lat="48.88116" lon="7.41114">
        <ele>232</ele>
        <time>2021-08-08T05:06:15Z</time>
      </trkpt>
      <trkpt lat="48.88116" lon="7.41114">
        <ele>232</ele>
        <time>2021-08-08T05:06:16Z</time>
      </trkpt>
      <trkpt lat="48.88119" lon="7.4112">
        <ele>233</ele>
        <time>2021-08-08T05:06:17Z</time>
      </trkpt>
      <trkpt lat="48.88119" lon="7.4112">
        <ele>233</ele>
        <time>2021-08-08T05:06:18Z</time>
      </trkpt>
      <trkpt lat="48.88122" lon="7.41129">
        <ele>233</ele>
        <time>2021-08-08T05:06:19Z</time>
      </trkpt>
      <trkpt lat="48.88122" lon="7.41129">
        <ele>233</ele>
        <time>2021-08-08T05:06:20Z</time>
      </trkpt>
      <trkpt lat="48.88123" lon="7.41136">
        <ele>234</ele>
        <time>2021-08-08T05:06:21Z</time>
      </trkpt>
      <trkpt lat="48.88123" lon="7.41136">
        <ele>234</ele>
        <time>2021-08-08T05:06:22Z</time>
      </trkpt>
      <trkpt lat="48.88124" lon="7.41142">
        <ele>234</ele>
        <time>2021-08-08T05:06:23Z</time>
      </trkpt>
      <trkpt lat="48.88125" lon="7.41146">
        <ele>234</ele>
        <time>2021-08-08T05:06:24Z</time>
      </trkpt>
      <trkpt lat="48.88125" lon="7.4115">
        <ele>234</ele>
        <time>2021-08-08T05:06:25Z</time>
      </trkpt>
      <trkpt lat="48.88125" lon="7.4115">
        <ele>234</ele>
        <time>2021-08-08T05:06:26Z</time>
      </trkpt>
      <trkpt lat="48.88126" lon="7.41156">
        <ele>235</ele>
        <time>2021-08-08T05:06:27Z</time>
      </trkpt>
      <trkpt lat="48.88127" lon="7.41159">
        <ele>235</ele>
        <time>2021-08-08T05:06:28Z</time>
      </trkpt>
      <trkpt lat="48.88127" lon="7.41159">
        <ele>235</ele>
        <time>2021-08-08T05:06:29Z</time>
      </trkpt>
      <trkpt lat="48.88127" lon="7.41166">
        <ele>236</ele>
        <time>2021-08-08T05:06:30Z</time>
      </trkpt>
      <trkpt lat="48.88127" lon="7.41166">
        <ele>236</ele>
        <time>2021-08-08T05:06:31Z</time>
      </trkpt>
      <trkpt lat="48.88128" lon="7.41175">
        <ele>236</ele>
        <time>2021-08-08T05:06:32Z</time>
      </trkpt>
      <trkpt lat="48.88128" lon="7.41175">
        <ele>236</ele>
        <time>2021-08-08T05:06:33Z</time>
      </trkpt>
      <trkpt lat="48.88129" lon="7.41184">
        <ele>236</ele>
        <time>2021-08-08T05:06:34Z</time>
      </trkpt>
      <trkpt lat="48.8813" lon="7.41187">
        <ele>236</ele>
        <time>2021-08-08T05:06:35Z</time>
      </trkpt>
      <trkpt lat="48.8813" lon="7.41187">
        <ele>236</ele>
        <time>2021-08-08T05:06:36Z</time>
      </trkpt>
      <trkpt lat="48.88131" lon="7.41195">
        <ele>237</ele>
        <time>2021-08-08T05:06:37Z</time>
      </trkpt>
      <trkpt lat="48.88131" lon="7.41195">
        <ele>237</ele>
        <time>2021-08-08T05:06:38Z</time>
      </trkpt>
      <trkpt lat="48.88133" lon="7.41203">
        <ele>237</ele>
        <time>2021-08-08T05:06:39Z</time>
      </trkpt>
      <trkpt lat="48.88133" lon="7.41203">
        <ele>237</ele>
        <time>2021-08-08T05:06:40Z</time>
      </trkpt>
      <trkpt lat="48.88135" lon="7.41209">
        <ele>237</ele>
        <time>2021-08-08T05:06:41Z</time>
      </trkpt>
      <trkpt lat="48.88135" lon="7.41209">
        <ele>237</ele>
        <time>2021-08-08T05:06:42Z</time>
      </trkpt>
      <trkpt lat="48.88137" lon="7.41216">
        <ele>238</ele>
        <time>2021-08-08T05:06:43Z</time>
      </trkpt>
      <trkpt lat="48.88138" lon="7.41218">
        <ele>238</ele>
        <time>2021-08-08T05:06:44Z</time>
      </trkpt>
      <trkpt lat="48.88138" lon="7.41218">
        <ele>238</ele>
        <time>2021-08-08T05:06:45Z</time>
      </trkpt>
      <trkpt lat="48.88139" lon="7.41224">
        <ele>238</ele>
        <time>2021-08-08T05:06:46Z</time>
      </trkpt>
      <trkpt lat="48.88139" lon="7.41224">
        <ele>238</ele>
        <time>2021-08-08T05:06:47Z</time>
      </trkpt>
      <trkpt lat="48.88141" lon="7.41231">
        <ele>238</ele>
        <time>2021-08-08T05:06:48Z</time>
      </trkpt>
      <trkpt lat="48.88142" lon="7.41234">
        <ele>238</ele>
        <time>2021-08-08T05:06:49Z</time>
      </trkpt>
      <trkpt lat="48.88142" lon="7.41234">
        <ele>238</ele>
        <time>2021-08-08T05:06:50Z</time>
      </trkpt>
      <trkpt lat="48.88143" lon="7.4124">
        <ele>239</ele>
        <time>2021-08-08T05:06:51Z</time>
      </trkpt>
      <trkpt lat="48.88143" lon="7.41244">
        <ele>239</ele>
        <time>2021-08-08T05:06:52Z</time>
      </trkpt>
      <trkpt lat="48.88143" lon="7.41244">
        <ele>239</ele>
        <time>2021-08-08T05:06:53Z</time>
      </trkpt>
      <trkpt lat="48.88145" lon="7.41252">
        <ele>239</ele>
        <time>2021-08-08T05:06:54Z</time>
      </trkpt>
      <trkpt lat="48.88146" lon="7.41256">
        <ele>239</ele>
        <time>2021-08-08T05:06:55Z</time>
      </trkpt>
      <trkpt lat="48.88146" lon="7.41256">
        <ele>239</ele>
        <time>2021-08-08T05:06:56Z</time>
      </trkpt>
      <trkpt lat="48.88149" lon="7.41264">
        <ele>239</ele>
        <time>2021-08-08T05:06:57Z</time>
      </trkpt>
      <trkpt lat="48.88149" lon="7.41264">
        <ele>239</ele>
        <time>2021-08-08T05:06:58Z</time>
      </trkpt>
      <trkpt lat="48.8815" lon="7.41271">
        <ele>239</ele>
        <time>2021-08-08T05:06:59Z</time>
      </trkpt>
      <trkpt lat="48.88151" lon="7.41275">
        <ele>239</ele>
        <time>2021-08-08T05:07:00Z</time>
      </trkpt>
      <trkpt lat="48.88151" lon="7.41275">
        <ele>239</ele>
        <time>2021-08-08T05:07:01Z</time>
      </trkpt>
      <trkpt lat="48.88152" lon="7.41283">
        <ele>239</ele>
        <time>2021-08-08T05:07:02Z</time>
      </trkpt>
      <trkpt lat="48.88152" lon="7.41283">
        <ele>240</ele>
        <time>2021-08-08T05:07:03Z</time>
      </trkpt>
      <trkpt lat="48.88153" lon="7.4129">
        <ele>240</ele>
        <time>2021-08-08T05:07:04Z</time>
      </trkpt>
      <trkpt lat="48.88153" lon="7.4129">
        <ele>240</ele>
        <time>2021-08-08T05:07:05Z</time>
      </trkpt>
      <trkpt lat="48.88155" lon="7.41299">
        <ele>240</ele>
        <time>2021-08-08T05:07:06Z</time>
      </trkpt>
      <trkpt lat="48.88156" lon="7.41304">
        <ele>240</ele>
        <time>2021-08-08T05:07:07Z</time>
      </trkpt>
      <trkpt lat="48.88156" lon="7.41304">
        <ele>240</ele>
        <time>2021-08-08T05:07:08Z</time>
      </trkpt>
      <trkpt lat="48.88159" lon="7.41311">
        <ele>240</ele>
        <time>2021-08-08T05:07:09Z</time>
      </trkpt>
      <trkpt lat="48.88159" lon="7.41311">
        <ele>241</ele>
        <time>2021-08-08T05:07:10Z</time>
      </trkpt>
      <trkpt lat="48.8816" lon="7.41317">
        <ele>241</ele>
        <time>2021-08-08T05:07:11Z</time>
      </trkpt>
      <trkpt lat="48.8816" lon="7.41317">
        <ele>241</ele>
        <time>2021-08-08T05:07:12Z</time>
      </trkpt>
      <trkpt lat="48.88162" lon="7.41325">
        <ele>241</ele>
        <time>2021-08-08T05:07:13Z</time>
      </trkpt>
      <trkpt lat="48.88162" lon="7.41325">
        <ele>242</ele>
        <time>2021-08-08T05:07:14Z</time>
      </trkpt>
      <trkpt lat="48.88163" lon="7.41331">
        <ele>242</ele>
        <time>2021-08-08T05:07:15Z</time>
      </trkpt>
      <trkpt lat="48.88163" lon="7.41331">
        <ele>242</ele>
        <time>2021-08-08T05:07:16Z</time>
      </trkpt>
      <trkpt lat="48.88165" lon="7.41337">
        <ele>242</ele>
        <time>2021-08-08T05:07:17Z</time>
      </trkpt>
      <trkpt lat="48.88165" lon="7.41337">
        <ele>242</ele>
        <time>2021-08-08T05:07:18Z</time>
      </trkpt>
      <trkpt lat="48.88167" lon="7.41345">
        <ele>242</ele>
        <time>2021-08-08T05:07:19Z</time>
      </trkpt>
      <trkpt lat="48.88168" lon="7.41349">
        <ele>243</ele>
        <time>2021-08-08T05:07:20Z</time>
      </trkpt>
      <trkpt lat="48.88168" lon="7.41349">
        <ele>243</ele>
        <time>2021-08-08T05:07:21Z</time>
      </trkpt>
      <trkpt lat="48.88171" lon="7.41356">
        <ele>243</ele>
        <time>2021-08-08T05:07:22Z</time>
      </trkpt>
      <trkpt lat="48.88171" lon="7.41356">
        <ele>243</ele>
        <time>2021-08-08T05:07:23Z</time>
      </trkpt>
      <trkpt lat="48.88173" lon="7.41361">
        <ele>243</ele>
        <time>2021-08-08T05:07:24Z</time>
      </trkpt>
      <trkpt lat="48.88174" lon="7.41364">
        <ele>244</ele>
        <time>2021-08-08T05:07:25Z</time>
      </trkpt>
      <trkpt lat="48.88174" lon="7.41364">
        <ele>244</ele>
        <time>2021-08-08T05:07:26Z</time>
      </trkpt>
      <trkpt lat="48.88176" lon="7.41372">
        <ele>244</ele>
        <time>2021-08-08T05:07:27Z</time>
      </trkpt>
      <trkpt lat="48.88176" lon="7.41372">
        <ele>244</ele>
        <time>2021-08-08T05:07:28Z</time>
      </trkpt>
      <trkpt lat="48.88179" lon="7.41379">
        <ele>245</ele>
        <time>2021-08-08T05:07:29Z</time>
      </trkpt>
      <trkpt lat="48.88179" lon="7.41379">
        <ele>245</ele>
        <time>2021-08-08T05:07:30Z</time>
      </trkpt>
      <trkpt lat="48.8818" lon="7.41385">
        <ele>245</ele>
        <time>2021-08-08T05:07:31Z</time>
      </trkpt>
      <trkpt lat="48.8818" lon="7.41385">
        <ele>245</ele>
        <time>2021-08-08T05:07:32Z</time>
      </trkpt>
      <trkpt lat="48.88183" lon="7.41391">
        <ele>245</ele>
        <time>2021-08-08T05:07:33Z</time>
      </trkpt>
      <trkpt lat="48.88183" lon="7.41391">
        <ele>245</ele>
        <time>2021-08-08T05:07:34Z</time>
      </trkpt>
      <trkpt lat="48.88186" lon="7.41398">
        <ele>245</ele>
        <time>2021-08-08T05:07:35Z</time>
      </trkpt>
      <trkpt lat="48.88187" lon="7.41401">
        <ele>245</ele>
        <time>2021-08-08T05:07:36Z</time>
      </trkpt>
      <trkpt lat="48.88187" lon="7.41401">
        <ele>245</ele>
        <time>2021-08-08T05:07:37Z</time>
      </trkpt>
      <trkpt lat="48.88189" lon="7.41406">
        <ele>246</ele>
        <time>2021-08-08T05:07:38Z</time>
      </trkpt>
      <trkpt lat="48.88189" lon="7.41406">
        <ele>246</ele>
        <time>2021-08-08T05:07:39Z</time>
      </trkpt>
      <trkpt lat="48.88191" lon="7.41412">
        <ele>246</ele>
        <time>2021-08-08T05:07:40Z</time>
      </trkpt>
      <trkpt lat="48.88191" lon="7.41412">
        <ele>246</ele>
        <time>2021-08-08T05:07:41Z</time>
      </trkpt>
      <trkpt lat="48.88193" lon="7.41418">
        <ele>246</ele>
        <time>2021-08-08T05:07:42Z</time>
      </trkpt>
      <trkpt lat="48.88193" lon="7.41418">
        <ele>247</ele>
        <time>2021-08-08T05:07:43Z</time>
      </trkpt>
      <trkpt lat="48.88195" lon="7.41425">
        <ele>247</ele>
        <time>2021-08-08T05:07:44Z</time>
      </trkpt>
      <trkpt lat="48.88195" lon="7.41427">
        <ele>247</ele>
        <time>2021-08-08T05:07:45Z</time>
      </trkpt>
      <trkpt lat="48.88195" lon="7.41427">
        <ele>247</ele>
        <time>2021-08-08T05:07:46Z</time>
      </trkpt>
      <trkpt lat="48.88197" lon="7.41432">
        <ele>248</ele>
        <time>2021-08-08T05:07:47Z</time>
      </trkpt>
      <trkpt lat="48.88197" lon="7.41432">
        <ele>248</ele>
        <time>2021-08-08T05:07:48Z</time>
      </trkpt>
      <trkpt lat="48.88199" lon="7.41437">
        <ele>248</ele>
        <time>2021-08-08T05:07:49Z</time>
      </trkpt>
      <trkpt lat="48.88199" lon="7.41437">
        <ele>248</ele>
        <time>2021-08-08T05:07:50Z</time>
      </trkpt>
      <trkpt lat="48.88202" lon="7.41443">
        <ele>248</ele>
        <time>2021-08-08T05:07:51Z</time>
      </trkpt>
      <trkpt lat="48.88202" lon="7.41443">
        <ele>248</ele>
        <time>2021-08-08T05:07:52Z</time>
      </trkpt>
      <trkpt lat="48.88205" lon="7.41448">
        <ele>249</ele>
        <time>2021-08-08T05:07:53Z</time>
      </trkpt>
      <trkpt lat="48.88206" lon="7.41451">
        <ele>249</ele>
        <time>2021-08-08T05:07:54Z</time>
      </trkpt>
      <trkpt lat="48.88207" lon="7.41454">
        <ele>249</ele>
        <time>2021-08-08T05:07:55Z</time>
      </trkpt>
      <trkpt lat="48.88207" lon="7.41454">
        <ele>249</ele>
        <time>2021-08-08T05:07:56Z</time>
      </trkpt>
      <trkpt lat="48.8821" lon="7.4146">
        <ele>249</ele>
        <time>2021-08-08T05:07:57Z</time>
      </trkpt>
      <trkpt lat="48.8821" lon="7.4146">
        <ele>249</ele>
        <time>2021-08-08T05:07:58Z</time>
      </trkpt>
      <trkpt lat="48.88214" lon="7.41466">
        <ele>249</ele>
        <time>2021-08-08T05:07:59Z</time>
      </trkpt>
      <trkpt lat="48.88214" lon="7.41466">
        <ele>249</ele>
        <time>2021-08-08T05:08:00Z</time>
      </trkpt>
      <trkpt lat="48.88217" lon="7.41471">
        <ele>249</ele>
        <time>2021-08-08T05:08:01Z</time>
      </trkpt>
      <trkpt lat="48.88217" lon="7.41471">
        <ele>250</ele>
        <time>2021-08-08T05:08:02Z</time>
      </trkpt>
      <trkpt lat="48.8822" lon="7.41476">
        <ele>250</ele>
        <time>2021-08-08T05:08:03Z</time>
      </trkpt>
      <trkpt lat="48.8822" lon="7.41476">
        <ele>250</ele>
        <time>2021-08-08T05:08:04Z</time>
      </trkpt>
      <trkpt lat="48.88225" lon="7.41484">
        <ele>250</ele>
        <time>2021-08-08T05:08:05Z</time>
      </trkpt>
      <trkpt lat="48.88225" lon="7.41484">
        <ele>250</ele>
        <time>2021-08-08T05:08:06Z</time>
      </trkpt>
      <trkpt lat="48.8823" lon="7.41491">
        <ele>250</ele>
        <time>2021-08-08T05:08:07Z</time>
      </trkpt>
      <trkpt lat="48.8823" lon="7.41491">
        <ele>250</ele>
        <time>2021-08-08T05:08:08Z</time>
      </trkpt>
      <trkpt lat="48.88234" lon="7.41498">
        <ele>251</ele>
        <time>2021-08-08T05:08:09Z</time>
      </trkpt>
      <trkpt lat="48.88234" lon="7.41498">
        <ele>251</ele>
        <time>2021-08-08T05:08:10Z</time>
      </trkpt>
      <trkpt lat="48.8824" lon="7.41504">
        <ele>251</ele>
        <time>2021-08-08T05:08:11Z</time>
      </trkpt>
      <trkpt lat="48.8824" lon="7.41504">
        <ele>251</ele>
        <time>2021-08-08T05:08:12Z</time>
      </trkpt>
      <trkpt lat="48.88245" lon="7.41506">
        <ele>251</ele>
        <time>2021-08-08T05:08:13Z</time>
      </trkpt>
      <trkpt lat="48.88245" lon="7.41506">
        <ele>251</ele>
        <time>2021-08-08T05:08:14Z</time>
      </trkpt>
      <trkpt lat="48.88249" lon="7.41506">
        <ele>252</ele>
        <time>2021-08-08T05:08:15Z</time>
      </trkpt>
      <trkpt lat="48.88249" lon="7.41506">
        <ele>252</ele>
        <time>2021-08-08T05:08:16Z</time>
      </trkpt>
      <trkpt lat="48.88252" lon="7.41504">
        <ele>252</ele>
        <time>2021-08-08T05:08:17Z</time>
      </trkpt>
      <trkpt lat="48.88253" lon="7.41501">
        <ele>252</ele>
        <time>2021-08-08T05:08:18Z</time>
      </trkpt>
      <trkpt lat="48.88253" lon="7.41501">
        <ele>253</ele>
        <time>2021-08-08T05:08:19Z</time>
      </trkpt>
      <trkpt lat="48.88253" lon="7.41496">
        <ele>253</ele>
        <time>2021-08-08T05:08:20Z</time>
      </trkpt>
      <trkpt lat="48.88253" lon="7.41494">
        <ele>253</ele>
        <time>2021-08-08T05:08:21Z</time>
      </trkpt>
      <trkpt lat="48.88253" lon="7.41494">
        <ele>253</ele>
        <time>2021-08-08T05:08:22Z</time>
      </trkpt>
      <trkpt lat="48.88252" lon="7.41488">
        <ele>253</ele>
        <time>2021-08-08T05:08:23Z</time>
      </trkpt>
      <trkpt lat="48.88252" lon="7.41488">
        <ele>253</ele>
        <time>2021-08-08T05:08:24Z</time>
      </trkpt>
      <trkpt lat="48.88252" lon="7.41482">
        <ele>253</ele>
        <time>2021-08-08T05:08:25Z</time>
      </trkpt>
      <trkpt lat="48.88252" lon="7.41482">
        <ele>253</ele>
        <time>2021-08-08T05:08:26Z</time>
      </trkpt>
      <trkpt lat="48.88251" lon="7.41474">
        <ele>253</ele>
        <time>2021-08-08T05:08:27Z</time>
      </trkpt>
      <trkpt lat="48.88251" lon="7.41474">
        <ele>253</ele>
        <time>2021-08-08T05:08:28Z</time>
      </trkpt>
      <trkpt lat="48.8825" lon="7.41468">
        <ele>253</ele>
        <time>2021-08-08T05:08:29Z</time>
      </trkpt>
      <trkpt lat="48.8825" lon="7.41468">
        <ele>253</ele>
        <time>2021-08-08T05:08:30Z</time>
      </trkpt>
      <trkpt lat="48.88248" lon="7.41462">
        <ele>253</ele>
        <time>2021-08-08T05:08:31Z</time>
      </trkpt>
      <trkpt lat="48.88248" lon="7.41462">
        <ele>253</ele>
        <time>2021-08-08T05:08:32Z</time>
      </trkpt>
      <trkpt lat="48.88247" lon="7.41456">
        <ele>254</ele>
        <time>2021-08-08T05:08:33Z</time>
      </trkpt>
      <trkpt lat="48.88247" lon="7.41456">
        <ele>254</ele>
        <time>2021-08-08T05:08:34Z</time>
      </trkpt>
      <trkpt lat="48.88243" lon="7.4145">
        <ele>254</ele>
        <time>2021-08-08T05:08:35Z</time>
      </trkpt>
      <trkpt lat="48.88243" lon="7.4145">
        <ele>254</ele>
        <time>2021-08-08T05:08:36Z</time>
      </trkpt>
      <trkpt lat="48.88241" lon="7.41444">
        <ele>254</ele>
        <time>2021-08-08T05:08:37Z</time>
      </trkpt>
      <trkpt lat="48.88241" lon="7.41444">
        <ele>254</ele>
        <time>2021-08-08T05:08:38Z</time>
      </trkpt>
      <trkpt lat="48.88239" lon="7.41436">
        <ele>254</ele>
        <time>2021-08-08T05:08:39Z</time>
      </trkpt>
      <trkpt lat="48.88239" lon="7.41436">
        <ele>254</ele>
        <time>2021-08-08T05:08:40Z</time>
      </trkpt>
      <trkpt lat="48.88237" lon="7.41426">
        <ele>255</ele>
        <time>2021-08-08T05:08:41Z</time>
      </trkpt>
      <trkpt lat="48.88236" lon="7.41422">
        <ele>255</ele>
        <time>2021-08-08T05:08:42Z</time>
      </trkpt>
      <trkpt lat="48.88236" lon="7.41417">
        <ele>255</ele>
        <time>2021-08-08T05:08:43Z</time>
      </trkpt>
      <trkpt lat="48.88236" lon="7.41417">
        <ele>255</ele>
        <time>2021-08-08T05:08:44Z</time>
      </trkpt>
      <trkpt lat="48.88235" lon="7.41408">
        <ele>255</ele>
        <time>2021-08-08T05:08:45Z</time>
      </trkpt>
      <trkpt lat="48.88235" lon="7.41408">
        <ele>255</ele>
        <time>2021-08-08T05:08:46Z</time>
      </trkpt>
      <trkpt lat="48.88235" lon="7.414">
        <ele>255</ele>
        <time>2021-08-08T05:08:47Z</time>
      </trkpt>
      <trkpt lat="48.88235" lon="7.414">
        <ele>255</ele>
        <time>2021-08-08T05:08:48Z</time>
      </trkpt>
      <trkpt lat="48.88238" lon="7.41393">
        <ele>256</ele>
        <time>2021-08-08T05:08:49Z</time>
      </trkpt>
      <trkpt lat="48.88238" lon="7.41393">
        <ele>256</ele>
        <time>2021-08-08T05:08:50Z</time>
      </trkpt>
      <trkpt lat="48.88239" lon="7.41387">
        <ele>256</ele>
        <time>2021-08-08T05:08:51Z</time>
      </trkpt>
      <trkpt lat="48.88239" lon="7.41387">
        <ele>256</ele>
        <time>2021-08-08T05:08:52Z</time>
      </trkpt>
      <trkpt lat="48.8824" lon="7.4138">
        <ele>256</ele>
        <time>2021-08-08T05:08:53Z</time>
      </trkpt>
      <trkpt lat="48.8824" lon="7.41376">
        <ele>256</ele>
        <time>2021-08-08T05:08:54Z</time>
      </trkpt>
      <trkpt lat="48.8824" lon="7.41376">
        <ele>256</ele>
        <time>2021-08-08T05:08:55Z</time>
      </trkpt>
      <trkpt lat="48.88239" lon="7.41368">
        <ele>256</ele>
        <time>2021-08-08T05:08:56Z</time>
      </trkpt>
      <trkpt lat="48.88239" lon="7.41364">
        <ele>256</ele>
        <time>2021-08-08T05:08:57Z</time>
      </trkpt>
      <trkpt lat="48.88239" lon="7.4136">
        <ele>256</ele>
        <time>2021-08-08T05:08:58Z</time>
      </trkpt>
      <trkpt lat="48.88239" lon="7.4136">
        <ele>257</ele>
        <time>2021-08-08T05:08:59Z</time>
      </trkpt>
      <trkpt lat="48.88238" lon="7.41351">
        <ele>257</ele>
        <time>2021-08-08T05:09:00Z</time>
      </trkpt>
      <trkpt lat="48.88239" lon="7.41346">
        <ele>257</ele>
        <time>2021-08-08T05:09:01Z</time>
      </trkpt>
      <trkpt lat="48.88239" lon="7.41346">
        <ele>257</ele>
        <time>2021-08-08T05:09:02Z</time>
      </trkpt>
      <trkpt lat="48.88239" lon="7.41337">
        <ele>257</ele>
        <time>2021-08-08T05:09:03Z</time>
      </trkpt>
      <trkpt lat="48.88239" lon="7.41333">
        <ele>257</ele>
        <time>2021-08-08T05:09:04Z</time>
      </trkpt>
      <trkpt lat="48.88239" lon="7.41333">
        <ele>257</ele>
        <time>2021-08-08T05:09:05Z</time>
      </trkpt>
      <trkpt lat="48.8824" lon="7.41325">
        <ele>257</ele>
        <time>2021-08-08T05:09:06Z</time>
      </trkpt>
      <trkpt lat="48.8824" lon="7.41325">
        <ele>257</ele>
        <time>2021-08-08T05:09:07Z</time>
      </trkpt>
      <trkpt lat="48.88242" lon="7.41315">
        <ele>257</ele>
        <time>2021-08-08T05:09:08Z</time>
      </trkpt>
      <trkpt lat="48.88244" lon="7.41311">
        <ele>257</ele>
        <time>2021-08-08T05:09:09Z</time>
      </trkpt>
      <trkpt lat="48.88244" lon="7.41311">
        <ele>257</ele>
        <time>2021-08-08T05:09:10Z</time>
      </trkpt>
      <trkpt lat="48.88246" lon="7.41304">
        <ele>258</ele>
        <time>2021-08-08T05:09:11Z</time>
      </trkpt>
      <trkpt lat="48.88247" lon="7.413">
        <ele>258</ele>
        <time>2021-08-08T05:09:12Z</time>
      </trkpt>
      <trkpt lat="48.88247" lon="7.413">
        <ele>258</ele>
        <time>2021-08-08T05:09:13Z</time>
      </trkpt>
      <trkpt lat="48.88249" lon="7.41291">
        <ele>258</ele>
        <time>2021-08-08T05:09:14Z</time>
      </trkpt>
      <trkpt lat="48.88251" lon="7.41286">
        <ele>258</ele>
        <time>2021-08-08T05:09:15Z</time>
      </trkpt>
      <trkpt lat="48.88251" lon="7.41286">
        <ele>258</ele>
        <time>2021-08-08T05:09:16Z</time>
      </trkpt>
      <trkpt lat="48.88254" lon="7.41277">
        <ele>258</ele>
        <time>2021-08-08T05:09:17Z</time>
      </trkpt>
      <trkpt lat="48.88254" lon="7.41277">
        <ele>258</ele>
        <time>2021-08-08T05:09:18Z</time>
      </trkpt>
      <trkpt lat="48.88256" lon="7.41268">
        <ele>258</ele>
        <time>2021-08-08T05:09:19Z</time>
      </trkpt>
      <trkpt lat="48.88256" lon="7.41268">
        <ele>258</ele>
        <time>2021-08-08T05:09:20Z</time>
      </trkpt>
      <trkpt lat="48.88258" lon="7.41259">
        <ele>258</ele>
        <time>2021-08-08T05:09:21Z</time>
      </trkpt>
      <trkpt lat="48.88258" lon="7.41259">
        <ele>258</ele>
        <time>2021-08-08T05:09:22Z</time>
      </trkpt>
      <trkpt lat="48.88259" lon="7.41252">
        <ele>258</ele>
        <time>2021-08-08T05:09:23Z</time>
      </trkpt>
      <trkpt lat="48.8826" lon="7.41247">
        <ele>258</ele>
        <time>2021-08-08T05:09:24Z</time>
      </trkpt>
      <trkpt lat="48.8826" lon="7.41247">
        <ele>258</ele>
        <time>2021-08-08T05:09:25Z</time>
      </trkpt>
      <trkpt lat="48.88261" lon="7.41238">
        <ele>258</ele>
        <time>2021-08-08T05:09:26Z</time>
      </trkpt>
      <trkpt lat="48.88262" lon="7.41233">
        <ele>258</ele>
        <time>2021-08-08T05:09:27Z</time>
      </trkpt>
      <trkpt lat="48.88262" lon="7.41233">
        <ele>258</ele>
        <time>2021-08-08T05:09:28Z</time>
      </trkpt>
      <trkpt lat="48.88263" lon="7.41222">
        <ele>258</ele>
        <time>2021-08-08T05:09:29Z</time>
      </trkpt>
      <trkpt lat="48.88263" lon="7.41217">
        <ele>258</ele>
        <time>2021-08-08T05:09:30Z</time>
      </trkpt>
      <trkpt lat="48.88263" lon="7.41217">
        <ele>259</ele>
        <time>2021-08-08T05:09:31Z</time>
      </trkpt>
      <trkpt lat="48.88264" lon="7.4121">
        <ele>259</ele>
        <time>2021-08-08T05:09:32Z</time>
      </trkpt>
      <trkpt lat="48.88264" lon="7.41205">
        <ele>259</ele>
        <time>2021-08-08T05:09:33Z</time>
      </trkpt>
      <trkpt lat="48.88264" lon="7.41205">
        <ele>259</ele>
        <time>2021-08-08T05:09:34Z</time>
      </trkpt>
      <trkpt lat="48.88264" lon="7.41194">
        <ele>259</ele>
        <time>2021-08-08T05:09:35Z</time>
      </trkpt>
      <trkpt lat="48.88264" lon="7.41189">
        <ele>259</ele>
        <time>2021-08-08T05:09:36Z</time>
      </trkpt>
      <trkpt lat="48.88264" lon="7.41189">
        <ele>259</ele>
        <time>2021-08-08T05:09:37Z</time>
      </trkpt>
      <trkpt lat="48.88263" lon="7.41178">
        <ele>259</ele>
        <time>2021-08-08T05:09:38Z</time>
      </trkpt>
      <trkpt lat="48.88263" lon="7.41174">
        <ele>260</ele>
        <time>2021-08-08T05:09:39Z</time>
      </trkpt>
      <trkpt lat="48.88263" lon="7.41174">
        <ele>260</ele>
        <time>2021-08-08T05:09:40Z</time>
      </trkpt>
      <trkpt lat="48.88264" lon="7.41166">
        <ele>260</ele>
        <time>2021-08-08T05:09:41Z</time>
      </trkpt>
      <trkpt lat="48.88265" lon="7.41161">
        <ele>260</ele>
        <time>2021-08-08T05:09:42Z</time>
      </trkpt>
      <trkpt lat="48.88265" lon="7.41156">
        <ele>260</ele>
        <time>2021-08-08T05:09:43Z</time>
      </trkpt>
      <trkpt lat="48.88265" lon="7.41156">
        <ele>260</ele>
        <time>2021-08-08T05:09:44Z</time>
      </trkpt>
      <trkpt lat="48.88266" lon="7.41146">
        <ele>260</ele>
        <time>2021-08-08T05:09:45Z</time>
      </trkpt>
      <trkpt lat="48.88266" lon="7.41146">
        <ele>260</ele>
        <time>2021-08-08T05:09:46Z</time>
      </trkpt>
      <trkpt lat="48.88267" lon="7.41138">
        <ele>261</ele>
        <time>2021-08-08T05:09:47Z</time>
      </trkpt>
      <trkpt lat="48.88267" lon="7.41138">
        <ele>261</ele>
        <time>2021-08-08T05:09:48Z</time>
      </trkpt>
      <trkpt lat="48.88268" lon="7.41129">
        <ele>261</ele>
        <time>2021-08-08T05:09:49Z</time>
      </trkpt>
      <trkpt lat="48.88268" lon="7.41129">
        <ele>261</ele>
        <time>2021-08-08T05:09:50Z</time>
      </trkpt>
      <trkpt lat="48.8827" lon="7.41122">
        <ele>261</ele>
        <time>2021-08-08T05:09:51Z</time>
      </trkpt>
      <trkpt lat="48.8827" lon="7.41122">
        <ele>261</ele>
        <time>2021-08-08T05:09:52Z</time>
      </trkpt>
      <trkpt lat="48.88271" lon="7.41114">
        <ele>261</ele>
        <time>2021-08-08T05:09:53Z</time>
      </trkpt>
      <trkpt lat="48.88271" lon="7.41114">
        <ele>261</ele>
        <time>2021-08-08T05:09:54Z</time>
      </trkpt>
      <trkpt lat="48.88272" lon="7.41105">
        <ele>261</ele>
        <time>2021-08-08T05:09:55Z</time>
      </trkpt>
      <trkpt lat="48.88273" lon="7.411">
        <ele>261</ele>
        <time>2021-08-08T05:09:56Z</time>
      </trkpt>
      <trkpt lat="48.88273" lon="7.41095">
        <ele>262</ele>
        <time>2021-08-08T05:09:57Z</time>
      </trkpt>
      <trkpt lat="48.88273" lon="7.41095">
        <ele>262</ele>
        <time>2021-08-08T05:09:58Z</time>
      </trkpt>
      <trkpt lat="48.88274" lon="7.41086">
        <ele>262</ele>
        <time>2021-08-08T05:09:59Z</time>
      </trkpt>
      <trkpt lat="48.88275" lon="7.41081">
        <ele>262</ele>
        <time>2021-08-08T05:10:00Z</time>
      </trkpt>
      <trkpt lat="48.88276" lon="7.41077">
        <ele>262</ele>
        <time>2021-08-08T05:10:01Z</time>
      </trkpt>
      <trkpt lat="48.88276" lon="7.41077">
        <ele>262</ele>
        <time>2021-08-08T05:10:02Z</time>
      </trkpt>
      <trkpt lat="48.88277" lon="7.41067">
        <ele>262</ele>
        <time>2021-08-08T05:10:03Z</time>
      </trkpt>
      <trkpt lat="48.88277" lon="7.41067">
        <ele>262</ele>
        <time>2021-08-08T05:10:04Z</time>
      </trkpt>
      <trkpt lat="48.88279" lon="7.41058">
        <ele>262</ele>
        <time>2021-08-08T05:10:05Z</time>
      </trkpt>
      <trkpt lat="48.8828" lon="7.41053">
        <ele>262</ele>
        <time>2021-08-08T05:10:06Z</time>
      </trkpt>
      <trkpt lat="48.88281" lon="7.41049">
        <ele>262</ele>
        <time>2021-08-08T05:10:07Z</time>
      </trkpt>
      <trkpt lat="48.88281" lon="7.41049">
        <ele>262</ele>
        <time>2021-08-08T05:10:08Z</time>
      </trkpt>
      <trkpt lat="48.88283" lon="7.41039">
        <ele>262</ele>
        <time>2021-08-08T05:10:09Z</time>
      </trkpt>
      <trkpt lat="48.88284" lon="7.41035">
        <ele>262</ele>
        <time>2021-08-08T05:10:10Z</time>
      </trkpt>
      <trkpt lat="48.88284" lon="7.41035">
        <ele>262</ele>
        <time>2021-08-08T05:10:11Z</time>
      </trkpt>
      <trkpt lat="48.88286" lon="7.41026">
        <ele>262</ele>
        <time>2021-08-08T05:10:12Z</time>
      </trkpt>
      <trkpt lat="48.88287" lon="7.4102">
        <ele>262</ele>
        <time>2021-08-08T05:10:13Z</time>
      </trkpt>
      <trkpt lat="48.88288" lon="7.41013">
        <ele>262</ele>
        <time>2021-08-08T05:10:14Z</time>
      </trkpt>
      <trkpt lat="48.88288" lon="7.41013">
        <ele>262</ele>
        <time>2021-08-08T05:10:15Z</time>
      </trkpt>
      <trkpt lat="48.88289" lon="7.41">
        <ele>262</ele>
        <time>2021-08-08T05:10:16Z</time>
      </trkpt>
      <trkpt lat="48.88289" lon="7.41">
        <ele>262</ele>
        <time>2021-08-08T05:10:17Z</time>
      </trkpt>
      <trkpt lat="48.88291" lon="7.40989">
        <ele>262</ele>
        <time>2021-08-08T05:10:18Z</time>
      </trkpt>
      <trkpt lat="48.88293" lon="7.40984">
        <ele>263</ele>
        <time>2021-08-08T05:10:19Z</time>
      </trkpt>
      <trkpt lat="48.88293" lon="7.40984">
        <ele>263</ele>
        <time>2021-08-08T05:10:20Z</time>
      </trkpt>
      <trkpt lat="48.88296" lon="7.40975">
        <ele>263</ele>
        <time>2021-08-08T05:10:21Z</time>
      </trkpt>
      <trkpt lat="48.88296" lon="7.40975">
        <ele>263</ele>
        <time>2021-08-08T05:10:22Z</time>
      </trkpt>
      <trkpt lat="48.88298" lon="7.40965">
        <ele>263</ele>
        <time>2021-08-08T05:10:23Z</time>
      </trkpt>
      <trkpt lat="48.88299" lon="7.4096">
        <ele>263</ele>
        <time>2021-08-08T05:10:24Z</time>
      </trkpt>
      <trkpt lat="48.88299" lon="7.4096">
        <ele>263</ele>
        <time>2021-08-08T05:10:25Z</time>
      </trkpt>
      <trkpt lat="48.88302" lon="7.40952">
        <ele>263</ele>
        <time>2021-08-08T05:10:26Z</time>
      </trkpt>
      <trkpt lat="48.88304" lon="7.40947">
        <ele>263</ele>
        <time>2021-08-08T05:10:27Z</time>
      </trkpt>
      <trkpt lat="48.88304" lon="7.40947">
        <ele>263</ele>
        <time>2021-08-08T05:10:28Z</time>
      </trkpt>
      <trkpt lat="48.88306" lon="7.40938">
        <ele>263</ele>
        <time>2021-08-08T05:10:29Z</time>
      </trkpt>
      <trkpt lat="48.88308" lon="7.40935">
        <ele>263</ele>
        <time>2021-08-08T05:10:30Z</time>
      </trkpt>
      <trkpt lat="48.8831" lon="7.4093">
        <ele>264</ele>
        <time>2021-08-08T05:10:31Z</time>
      </trkpt>
      <trkpt lat="48.8831" lon="7.4093">
        <ele>264</ele>
        <time>2021-08-08T05:10:32Z</time>
      </trkpt>
      <trkpt lat="48.88313" lon="7.40924">
        <ele>264</ele>
        <time>2021-08-08T05:10:33Z</time>
      </trkpt>
      <trkpt lat="48.88313" lon="7.40924">
        <ele>264</ele>
        <time>2021-08-08T05:10:34Z</time>
      </trkpt>
      <trkpt lat="48.88316" lon="7.40917">
        <ele>264</ele>
        <time>2021-08-08T05:10:35Z</time>
      </trkpt>
      <trkpt lat="48.88316" lon="7.40917">
        <ele>264</ele>
        <time>2021-08-08T05:10:36Z</time>
      </trkpt>
      <trkpt lat="48.88319" lon="7.4091">
        <ele>264</ele>
        <time>2021-08-08T05:10:37Z</time>
      </trkpt>
      <trkpt lat="48.88319" lon="7.4091">
        <ele>264</ele>
        <time>2021-08-08T05:10:38Z</time>
      </trkpt>
      <trkpt lat="48.88323" lon="7.40899">
        <ele>264</ele>
        <time>2021-08-08T05:10:39Z</time>
      </trkpt>
      <trkpt lat="48.88323" lon="7.40899">
        <ele>264</ele>
        <time>2021-08-08T05:10:40Z</time>
      </trkpt>
      <trkpt lat="48.88329" lon="7.40891">
        <ele>265</ele>
        <time>2021-08-08T05:10:41Z</time>
      </trkpt>
      <trkpt lat="48.88329" lon="7.40891">
        <ele>265</ele>
        <time>2021-08-08T05:10:42Z</time>
      </trkpt>
      <trkpt lat="48.88334" lon="7.40882">
        <ele>265</ele>
        <time>2021-08-08T05:10:43Z</time>
      </trkpt>
      <trkpt lat="48.88334" lon="7.40882">
        <ele>265</ele>
        <time>2021-08-08T05:10:44Z</time>
      </trkpt>
      <trkpt lat="48.88339" lon="7.40873">
        <ele>265</ele>
        <time>2021-08-08T05:10:45Z</time>
      </trkpt>
      <trkpt lat="48.88339" lon="7.40873">
        <ele>265</ele>
        <time>2021-08-08T05:10:46Z</time>
      </trkpt>
      <trkpt lat="48.88344" lon="7.40866">
        <ele>265</ele>
        <time>2021-08-08T05:10:47Z</time>
      </trkpt>
      <trkpt lat="48.88347" lon="7.40862">
        <ele>265</ele>
        <time>2021-08-08T05:10:48Z</time>
      </trkpt>
      <trkpt lat="48.88347" lon="7.40862">
        <ele>265</ele>
        <time>2021-08-08T05:10:49Z</time>
      </trkpt>
      <trkpt lat="48.88353" lon="7.40856">
        <ele>265</ele>
        <time>2021-08-08T05:10:50Z</time>
      </trkpt>
      <trkpt lat="48.88355" lon="7.40854">
        <ele>266</ele>
        <time>2021-08-08T05:10:51Z</time>
      </trkpt>
      <trkpt lat="48.88355" lon="7.40854">
        <ele>266</ele>
        <time>2021-08-08T05:10:52Z</time>
      </trkpt>
      <trkpt lat="48.8836" lon="7.40849">
        <ele>266</ele>
        <time>2021-08-08T05:10:53Z</time>
      </trkpt>
      <trkpt lat="48.8836" lon="7.40849">
        <ele>266</ele>
        <time>2021-08-08T05:10:54Z</time>
      </trkpt>
      <trkpt lat="48.88364" lon="7.40844">
        <ele>266</ele>
        <time>2021-08-08T05:10:55Z</time>
      </trkpt>
      <trkpt lat="48.88364" lon="7.40844">
        <ele>266</ele>
        <time>2021-08-08T05:10:56Z</time>
      </trkpt>
      <trkpt lat="48.88369" lon="7.4084">
        <ele>267</ele>
        <time>2021-08-08T05:10:57Z</time>
      </trkpt>
      <trkpt lat="48.88369" lon="7.4084">
        <ele>267</ele>
        <time>2021-08-08T05:10:58Z</time>
      </trkpt>
      <trkpt lat="48.88374" lon="7.40836">
        <ele>267</ele>
        <time>2021-08-08T05:10:59Z</time>
      </trkpt>
      <trkpt lat="48.88377" lon="7.40833">
        <ele>267</ele>
        <time>2021-08-08T05:11:00Z</time>
      </trkpt>
      <trkpt lat="48.8838" lon="7.4083">
        <ele>268</ele>
        <time>2021-08-08T05:11:01Z</time>
      </trkpt>
      <trkpt lat="48.8838" lon="7.4083">
        <ele>268</ele>
        <time>2021-08-08T05:11:02Z</time>
      </trkpt>
      <trkpt lat="48.88385" lon="7.40826">
        <ele>268</ele>
        <time>2021-08-08T05:11:03Z</time>
      </trkpt>
      <trkpt lat="48.88385" lon="7.40826">
        <ele>268</ele>
        <time>2021-08-08T05:11:04Z</time>
      </trkpt>
      <trkpt lat="48.88389" lon="7.40822">
        <ele>269</ele>
        <time>2021-08-08T05:11:05Z</time>
      </trkpt>
      <trkpt lat="48.88389" lon="7.40822">
        <ele>269</ele>
        <time>2021-08-08T05:11:06Z</time>
      </trkpt>
      <trkpt lat="48.88394" lon="7.40819">
        <ele>269</ele>
        <time>2021-08-08T05:11:07Z</time>
      </trkpt>
      <trkpt lat="48.88394" lon="7.40819">
        <ele>269</ele>
        <time>2021-08-08T05:11:08Z</time>
      </trkpt>
      <trkpt lat="48.88398" lon="7.40817">
        <ele>270</ele>
        <time>2021-08-08T05:11:09Z</time>
      </trkpt>
      <trkpt lat="48.88398" lon="7.40817">
        <ele>270</ele>
        <time>2021-08-08T05:11:10Z</time>
      </trkpt>
      <trkpt lat="48.88404" lon="7.40812">
        <ele>270</ele>
        <time>2021-08-08T05:11:11Z</time>
      </trkpt>
      <trkpt lat="48.88406" lon="7.40809">
        <ele>270</ele>
        <time>2021-08-08T05:11:12Z</time>
      </trkpt>
      <trkpt lat="48.88408" lon="7.40809">
        <ele>270</ele>
        <time>2021-08-08T05:11:13Z</time>
      </trkpt>
      <trkpt lat="48.88408" lon="7.40809">
        <ele>271</ele>
        <time>2021-08-08T05:11:14Z</time>
      </trkpt>
      <trkpt lat="48.88412" lon="7.40806">
        <ele>271</ele>
        <time>2021-08-08T05:11:15Z</time>
      </trkpt>
      <trkpt lat="48.88412" lon="7.40806">
        <ele>271</ele>
        <time>2021-08-08T05:11:16Z</time>
      </trkpt>
      <trkpt lat="48.88417" lon="7.40805">
        <ele>271</ele>
        <time>2021-08-08T05:11:17Z</time>
      </trkpt>
      <trkpt lat="48.8842" lon="7.40805">
        <ele>272</ele>
        <time>2021-08-08T05:11:18Z</time>
      </trkpt>
      <trkpt lat="48.8842" lon="7.40805">
        <ele>272</ele>
        <time>2021-08-08T05:11:19Z</time>
      </trkpt>
      <trkpt lat="48.88425" lon="7.40806">
        <ele>272</ele>
        <time>2021-08-08T05:11:20Z</time>
      </trkpt>
      <trkpt lat="48.88427" lon="7.40807">
        <ele>272</ele>
        <time>2021-08-08T05:11:21Z</time>
      </trkpt>
      <trkpt lat="48.88427" lon="7.40807">
        <ele>272</ele>
        <time>2021-08-08T05:11:22Z</time>
      </trkpt>
      <trkpt lat="48.88432" lon="7.40808">
        <ele>272</ele>
        <time>2021-08-08T05:11:23Z</time>
      </trkpt>
      <trkpt lat="48.88432" lon="7.40808">
        <ele>272</ele>
        <time>2021-08-08T05:11:24Z</time>
      </trkpt>
      <trkpt lat="48.88438" lon="7.40809">
        <ele>272</ele>
        <time>2021-08-08T05:11:25Z</time>
      </trkpt>
      <trkpt lat="48.88438" lon="7.40809">
        <ele>272</ele>
        <time>2021-08-08T05:11:26Z</time>
      </trkpt>
      <trkpt lat="48.88443" lon="7.40812">
        <ele>272</ele>
        <time>2021-08-08T05:11:27Z</time>
      </trkpt>
      <trkpt lat="48.88446" lon="7.40813">
        <ele>273</ele>
        <time>2021-08-08T05:11:28Z</time>
      </trkpt>
      <trkpt lat="48.88446" lon="7.40813">
        <ele>273</ele>
        <time>2021-08-08T05:11:29Z</time>
      </trkpt>
      <trkpt lat="48.88452" lon="7.40815">
        <ele>273</ele>
        <time>2021-08-08T05:11:30Z</time>
      </trkpt>
      <trkpt lat="48.88455" lon="7.40816">
        <ele>273</ele>
        <time>2021-08-08T05:11:31Z</time>
      </trkpt>
      <trkpt lat="48.88455" lon="7.40816">
        <ele>273</ele>
        <time>2021-08-08T05:11:32Z</time>
      </trkpt>
      <trkpt lat="48.8846" lon="7.40818">
        <ele>273</ele>
        <time>2021-08-08T05:11:33Z</time>
      </trkpt>
      <trkpt lat="48.8846" lon="7.40818">
        <ele>273</ele>
        <time>2021-08-08T05:11:34Z</time>
      </trkpt>
      <trkpt lat="48.88466" lon="7.4082">
        <ele>273</ele>
        <time>2021-08-08T05:11:35Z</time>
      </trkpt>
      <trkpt lat="48.88466" lon="7.4082">
        <ele>273</ele>
        <time>2021-08-08T05:11:36Z</time>
      </trkpt>
      <trkpt lat="48.88471" lon="7.40822">
        <ele>273</ele>
        <time>2021-08-08T05:11:37Z</time>
      </trkpt>
      <trkpt lat="48.88471" lon="7.40822">
        <ele>273</ele>
        <time>2021-08-08T05:11:38Z</time>
      </trkpt>
      <trkpt lat="48.88476" lon="7.40825">
        <ele>273</ele>
        <time>2021-08-08T05:11:39Z</time>
      </trkpt>
      <trkpt lat="48.88476" lon="7.40825">
        <ele>274</ele>
        <time>2021-08-08T05:11:40Z</time>
      </trkpt>
      <trkpt lat="48.88482" lon="7.40828">
        <ele>274</ele>
        <time>2021-08-08T05:11:41Z</time>
      </trkpt>
      <trkpt lat="48.88482" lon="7.40828">
        <ele>274</ele>
        <time>2021-08-08T05:11:42Z</time>
      </trkpt>
      <trkpt lat="48.88487" lon="7.4083">
        <ele>274</ele>
        <time>2021-08-08T05:11:43Z</time>
      </trkpt>
      <trkpt lat="48.88487" lon="7.4083">
        <ele>275</ele>
        <time>2021-08-08T05:11:44Z</time>
      </trkpt>
      <trkpt lat="48.88492" lon="7.40832">
        <ele>275</ele>
        <time>2021-08-08T05:11:45Z</time>
      </trkpt>
      <trkpt lat="48.88492" lon="7.40832">
        <ele>275</ele>
        <time>2021-08-08T05:11:46Z</time>
      </trkpt>
      <trkpt lat="48.88497" lon="7.40835">
        <ele>275</ele>
        <time>2021-08-08T05:11:47Z</time>
      </trkpt>
      <trkpt lat="48.88497" lon="7.40835">
        <ele>275</ele>
        <time>2021-08-08T05:11:48Z</time>
      </trkpt>
      <trkpt lat="48.88503" lon="7.40838">
        <ele>275</ele>
        <time>2021-08-08T05:11:49Z</time>
      </trkpt>
      <trkpt lat="48.88503" lon="7.40838">
        <ele>276</ele>
        <time>2021-08-08T05:11:50Z</time>
      </trkpt>
      <trkpt lat="48.88508" lon="7.40841">
        <ele>276</ele>
        <time>2021-08-08T05:11:51Z</time>
      </trkpt>
      <trkpt lat="48.88508" lon="7.40841">
        <ele>276</ele>
        <time>2021-08-08T05:11:52Z</time>
      </trkpt>
      <trkpt lat="48.88513" lon="7.40844">
        <ele>276</ele>
        <time>2021-08-08T05:11:53Z</time>
      </trkpt>
      <trkpt lat="48.88513" lon="7.40844">
        <ele>277</ele>
        <time>2021-08-08T05:11:54Z</time>
      </trkpt>
      <trkpt lat="48.88518" lon="7.40846">
        <ele>277</ele>
        <time>2021-08-08T05:11:55Z</time>
      </trkpt>
      <trkpt lat="48.88518" lon="7.40846">
        <ele>277</ele>
        <time>2021-08-08T05:11:56Z</time>
      </trkpt>
      <trkpt lat="48.88523" lon="7.40849">
        <ele>277</ele>
        <time>2021-08-08T05:11:57Z</time>
      </trkpt>
      <trkpt lat="48.88523" lon="7.40849">
        <ele>278</ele>
        <time>2021-08-08T05:11:58Z</time>
      </trkpt>
      <trkpt lat="48.88528" lon="7.40851">
        <ele>278</ele>
        <time>2021-08-08T05:11:59Z</time>
      </trkpt>
      <trkpt lat="48.88528" lon="7.40851">
        <ele>278</ele>
        <time>2021-08-08T05:12:00Z</time>
      </trkpt>
      <trkpt lat="48.88534" lon="7.40852">
        <ele>278</ele>
        <time>2021-08-08T05:12:01Z</time>
      </trkpt>
      <trkpt lat="48.88534" lon="7.40852">
        <ele>278</ele>
        <time>2021-08-08T05:12:02Z</time>
      </trkpt>
      <trkpt lat="48.88539" lon="7.40852">
        <ele>278</ele>
        <time>2021-08-08T05:12:03Z</time>
      </trkpt>
      <trkpt lat="48.88539" lon="7.40852">
        <ele>278</ele>
        <time>2021-08-08T05:12:04Z</time>
      </trkpt>
      <trkpt lat="48.88544" lon="7.4085">
        <ele>278</ele>
        <time>2021-08-08T05:12:05Z</time>
      </trkpt>
      <trkpt lat="48.88544" lon="7.4085">
        <ele>278</ele>
        <time>2021-08-08T05:12:06Z</time>
      </trkpt>
      <trkpt lat="48.88547" lon="7.40847">
        <ele>278</ele>
        <time>2021-08-08T05:12:07Z</time>
      </trkpt>
      <trkpt lat="48.88547" lon="7.40847">
        <ele>279</ele>
        <time>2021-08-08T05:12:08Z</time>
      </trkpt>
      <trkpt lat="48.88553" lon="7.40843">
        <ele>279</ele>
        <time>2021-08-08T05:12:09Z</time>
      </trkpt>
      <trkpt lat="48.88555" lon="7.4084">
        <ele>279</ele>
        <time>2021-08-08T05:12:10Z</time>
      </trkpt>
      <trkpt lat="48.88555" lon="7.4084">
        <ele>279</ele>
        <time>2021-08-08T05:12:11Z</time>
      </trkpt>
      <trkpt lat="48.88562" lon="7.40832">
        <ele>279</ele>
        <time>2021-08-08T05:12:12Z</time>
      </trkpt>
      <trkpt lat="48.88565" lon="7.40829">
        <ele>279</ele>
        <time>2021-08-08T05:12:13Z</time>
      </trkpt>
      <trkpt lat="48.88565" lon="7.40829">
        <ele>279</ele>
        <time>2021-08-08T05:12:14Z</time>
      </trkpt>
      <trkpt lat="48.8857" lon="7.40823">
        <ele>279</ele>
        <time>2021-08-08T05:12:15Z</time>
      </trkpt>
      <trkpt lat="48.8857" lon="7.40823">
        <ele>279</ele>
        <time>2021-08-08T05:12:16Z</time>
      </trkpt>
      <trkpt lat="48.88574" lon="7.40817">
        <ele>279</ele>
        <time>2021-08-08T05:12:17Z</time>
      </trkpt>
      <trkpt lat="48.88574" lon="7.40817">
        <ele>279</ele>
        <time>2021-08-08T05:12:18Z</time>
      </trkpt>
      <trkpt lat="48.88578" lon="7.40811">
        <ele>279</ele>
        <time>2021-08-08T05:12:19Z</time>
      </trkpt>
      <trkpt lat="48.88578" lon="7.40811">
        <ele>279</ele>
        <time>2021-08-08T05:12:20Z</time>
      </trkpt>
      <trkpt lat="48.88581" lon="7.40804">
        <ele>279</ele>
        <time>2021-08-08T05:12:21Z</time>
      </trkpt>
      <trkpt lat="48.88581" lon="7.40804">
        <ele>279</ele>
        <time>2021-08-08T05:12:22Z</time>
      </trkpt>
      <trkpt lat="48.88584" lon="7.40797">
        <ele>279</ele>
        <time>2021-08-08T05:12:23Z</time>
      </trkpt>
      <trkpt lat="48.88585" lon="7.40793">
        <ele>279</ele>
        <time>2021-08-08T05:12:24Z</time>
      </trkpt>
      <trkpt lat="48.88585" lon="7.40793">
        <ele>280</ele>
        <time>2021-08-08T05:12:25Z</time>
      </trkpt>
      <trkpt lat="48.88588" lon="7.40787">
        <ele>280</ele>
        <time>2021-08-08T05:12:26Z</time>
      </trkpt>
      <trkpt lat="48.88588" lon="7.40787">
        <ele>280</ele>
        <time>2021-08-08T05:12:27Z</time>
      </trkpt>
      <trkpt lat="48.88591" lon="7.40782">
        <ele>280</ele>
        <time>2021-08-08T05:12:28Z</time>
      </trkpt>
      <trkpt lat="48.88592" lon="7.40779">
        <ele>280</ele>
        <time>2021-08-08T05:12:29Z</time>
      </trkpt>
      <trkpt lat="48.88592" lon="7.40779">
        <ele>280</ele>
        <time>2021-08-08T05:12:30Z</time>
      </trkpt>
      <trkpt lat="48.88596" lon="7.40772">
        <ele>281</ele>
        <time>2021-08-08T05:12:31Z</time>
      </trkpt>
      <trkpt lat="48.88596" lon="7.40772">
        <ele>281</ele>
        <time>2021-08-08T05:12:32Z</time>
      </trkpt>
      <trkpt lat="48.886" lon="7.40766">
        <ele>281</ele>
        <time>2021-08-08T05:12:33Z</time>
      </trkpt>
      <trkpt lat="48.886" lon="7.40766">
        <ele>281</ele>
        <time>2021-08-08T05:12:34Z</time>
      </trkpt>
      <trkpt lat="48.88603" lon="7.40761">
        <ele>281</ele>
        <time>2021-08-08T05:12:35Z</time>
      </trkpt>
      <trkpt lat="48.88603" lon="7.40761">
        <ele>282</ele>
        <time>2021-08-08T05:12:36Z</time>
      </trkpt>
      <trkpt lat="48.88607" lon="7.40755">
        <ele>282</ele>
        <time>2021-08-08T05:12:37Z</time>
      </trkpt>
      <trkpt lat="48.88607" lon="7.40755">
        <ele>282</ele>
        <time>2021-08-08T05:12:38Z</time>
      </trkpt>
      <trkpt lat="48.88611" lon="7.4075">
        <ele>282</ele>
        <time>2021-08-08T05:12:39Z</time>
      </trkpt>
      <trkpt lat="48.88611" lon="7.4075">
        <ele>283</ele>
        <time>2021-08-08T05:12:40Z</time>
      </trkpt>
      <trkpt lat="48.88615" lon="7.40745">
        <ele>283</ele>
        <time>2021-08-08T05:12:41Z</time>
      </trkpt>
      <trkpt lat="48.88615" lon="7.40745">
        <ele>283</ele>
        <time>2021-08-08T05:12:42Z</time>
      </trkpt>
      <trkpt lat="48.8862" lon="7.40741">
        <ele>283</ele>
        <time>2021-08-08T05:12:43Z</time>
      </trkpt>
      <trkpt lat="48.8862" lon="7.40741">
        <ele>283</ele>
        <time>2021-08-08T05:12:44Z</time>
      </trkpt>
      <trkpt lat="48.88628" lon="7.40735">
        <ele>283</ele>
        <time>2021-08-08T05:12:45Z</time>
      </trkpt>
      <trkpt lat="48.88632" lon="7.40734">
        <ele>283</ele>
        <time>2021-08-08T05:12:46Z</time>
      </trkpt>
      <trkpt lat="48.88632" lon="7.40734">
        <ele>283</ele>
        <time>2021-08-08T05:12:47Z</time>
      </trkpt>
      <trkpt lat="48.88637" lon="7.4073">
        <ele>284</ele>
        <time>2021-08-08T05:12:48Z</time>
      </trkpt>
      <trkpt lat="48.88637" lon="7.4073">
        <ele>284</ele>
        <time>2021-08-08T05:12:49Z</time>
      </trkpt>
      <trkpt lat="48.88643" lon="7.40727">
        <ele>284</ele>
        <time>2021-08-08T05:12:50Z</time>
      </trkpt>
      <trkpt lat="48.88645" lon="7.40725">
        <ele>284</ele>
        <time>2021-08-08T05:12:51Z</time>
      </trkpt>
      <trkpt lat="48.88645" lon="7.40725">
        <ele>285</ele>
        <time>2021-08-08T05:12:52Z</time>
      </trkpt>
      <trkpt lat="48.8865" lon="7.40723">
        <ele>285</ele>
        <time>2021-08-08T05:12:53Z</time>
      </trkpt>
      <trkpt lat="48.8865" lon="7.40723">
        <ele>285</ele>
        <time>2021-08-08T05:12:54Z</time>
      </trkpt>
      <trkpt lat="48.88654" lon="7.40721">
        <ele>285</ele>
        <time>2021-08-08T05:12:55Z</time>
      </trkpt>
      <trkpt lat="48.88654" lon="7.40721">
        <ele>285</ele>
        <time>2021-08-08T05:12:56Z</time>
      </trkpt>
      <trkpt lat="48.88659" lon="7.40718">
        <ele>285</ele>
        <time>2021-08-08T05:12:57Z</time>
      </trkpt>
      <trkpt lat="48.88659" lon="7.40718">
        <ele>285</ele>
        <time>2021-08-08T05:12:58Z</time>
      </trkpt>
      <trkpt lat="48.88663" lon="7.40717">
        <ele>285</ele>
        <time>2021-08-08T05:12:59Z</time>
      </trkpt>
      <trkpt lat="48.88663" lon="7.40717">
        <ele>285</ele>
        <time>2021-08-08T05:13:00Z</time>
      </trkpt>
      <trkpt lat="48.88668" lon="7.40714">
        <ele>285</ele>
        <time>2021-08-08T05:13:01Z</time>
      </trkpt>
      <trkpt lat="48.88668" lon="7.40714">
        <ele>286</ele>
        <time>2021-08-08T05:13:02Z</time>
      </trkpt>
      <trkpt lat="48.88674" lon="7.40713">
        <ele>286</ele>
        <time>2021-08-08T05:13:03Z</time>
      </trkpt>
      <trkpt lat="48.88674" lon="7.40713">
        <ele>286</ele>
        <time>2021-08-08T05:13:04Z</time>
      </trkpt>
      <trkpt lat="48.88679" lon="7.4071">
        <ele>287</ele>
        <time>2021-08-08T05:13:05Z</time>
      </trkpt>
      <trkpt lat="48.88679" lon="7.4071">
        <ele>287</ele>
        <time>2021-08-08T05:13:06Z</time>
      </trkpt>
      <trkpt lat="48.88684" lon="7.40709">
        <ele>287</ele>
        <time>2021-08-08T05:13:07Z</time>
      </trkpt>
      <trkpt lat="48.88684" lon="7.40709">
        <ele>287</ele>
        <time>2021-08-08T05:13:08Z</time>
      </trkpt>
      <trkpt lat="48.88688" lon="7.40707">
        <ele>288</ele>
        <time>2021-08-08T05:13:09Z</time>
      </trkpt>
      <trkpt lat="48.88688" lon="7.40707">
        <ele>288</ele>
        <time>2021-08-08T05:13:10Z</time>
      </trkpt>
      <trkpt lat="48.88692" lon="7.40705">
        <ele>288</ele>
        <time>2021-08-08T05:13:11Z</time>
      </trkpt>
      <trkpt lat="48.88693" lon="7.40704">
        <ele>288</ele>
        <time>2021-08-08T05:13:12Z</time>
      </trkpt>
      <trkpt lat="48.88693" lon="7.40704">
        <ele>289</ele>
        <time>2021-08-08T05:13:13Z</time>
      </trkpt>
      <trkpt lat="48.88697" lon="7.40701">
        <ele>289</ele>
        <time>2021-08-08T05:13:14Z</time>
      </trkpt>
      <trkpt lat="48.88699" lon="7.40698">
        <ele>289</ele>
        <time>2021-08-08T05:13:15Z</time>
      </trkpt>
      <trkpt lat="48.88699" lon="7.40698">
        <ele>289</ele>
        <time>2021-08-08T05:13:16Z</time>
      </trkpt>
      <trkpt lat="48.88705" lon="7.40696">
        <ele>290</ele>
        <time>2021-08-08T05:13:17Z</time>
      </trkpt>
      <trkpt lat="48.88705" lon="7.40696">
        <ele>290</ele>
        <time>2021-08-08T05:13:18Z</time>
      </trkpt>
      <trkpt lat="48.88708" lon="7.40694">
        <ele>290</ele>
        <time>2021-08-08T05:13:19Z</time>
      </trkpt>
      <trkpt lat="48.88708" lon="7.40694">
        <ele>290</ele>
        <time>2021-08-08T05:13:20Z</time>
      </trkpt>
      <trkpt lat="48.88712" lon="7.40692">
        <ele>291</ele>
        <time>2021-08-08T05:13:21Z</time>
      </trkpt>
      <trkpt lat="48.88712" lon="7.40692">
        <ele>291</ele>
        <time>2021-08-08T05:13:22Z</time>
      </trkpt>
      <trkpt lat="48.88717" lon="7.4069">
        <ele>291</ele>
        <time>2021-08-08T05:13:23Z</time>
      </trkpt>
      <trkpt lat="48.88717" lon="7.4069">
        <ele>291</ele>
        <time>2021-08-08T05:13:24Z</time>
      </trkpt>
      <trkpt lat="48.88722" lon="7.40688">
        <ele>292</ele>
        <time>2021-08-08T05:13:25Z</time>
      </trkpt>
      <trkpt lat="48.88725" lon="7.40688">
        <ele>292</ele>
        <time>2021-08-08T05:13:26Z</time>
      </trkpt>
      <trkpt lat="48.88725" lon="7.40688">
        <ele>292</ele>
        <time>2021-08-08T05:13:27Z</time>
      </trkpt>
      <trkpt lat="48.88728" lon="7.40687">
        <ele>292</ele>
        <time>2021-08-08T05:13:28Z</time>
      </trkpt>
      <trkpt lat="48.88728" lon="7.40687">
        <ele>292</ele>
        <time>2021-08-08T05:13:29Z</time>
      </trkpt>
      <trkpt lat="48.88731" lon="7.40683">
        <ele>292</ele>
        <time>2021-08-08T05:13:30Z</time>
      </trkpt>
      <trkpt lat="48.88733" lon="7.40682">
        <ele>292</ele>
        <time>2021-08-08T05:13:31Z</time>
      </trkpt>
      <trkpt lat="48.88733" lon="7.40682">
        <ele>292</ele>
        <time>2021-08-08T05:13:32Z</time>
      </trkpt>
      <trkpt lat="48.88736" lon="7.4068">
        <ele>292</ele>
        <time>2021-08-08T05:13:33Z</time>
      </trkpt>
      <trkpt lat="48.88736" lon="7.4068">
        <ele>292</ele>
        <time>2021-08-08T05:13:34Z</time>
      </trkpt>
      <trkpt lat="48.8874" lon="7.40677">
        <ele>292</ele>
        <time>2021-08-08T05:13:35Z</time>
      </trkpt>
      <trkpt lat="48.8874" lon="7.40677">
        <ele>292</ele>
        <time>2021-08-08T05:13:36Z</time>
      </trkpt>
      <trkpt lat="48.88743" lon="7.40674">
        <ele>292</ele>
        <time>2021-08-08T05:13:37Z</time>
      </trkpt>
      <trkpt lat="48.88743" lon="7.40674">
        <ele>292</ele>
        <time>2021-08-08T05:13:38Z</time>
      </trkpt>
      <trkpt lat="48.88747" lon="7.4067">
        <ele>293</ele>
        <time>2021-08-08T05:13:39Z</time>
      </trkpt>
      <trkpt lat="48.88747" lon="7.4067">
        <ele>293</ele>
        <time>2021-08-08T05:13:40Z</time>
      </trkpt>
      <trkpt lat="48.88749" lon="7.40666">
        <ele>293</ele>
        <time>2021-08-08T05:13:41Z</time>
      </trkpt>
      <trkpt lat="48.88749" lon="7.40666">
        <ele>293</ele>
        <time>2021-08-08T05:13:42Z</time>
      </trkpt>
      <trkpt lat="48.88753" lon="7.40662">
        <ele>293</ele>
        <time>2021-08-08T05:13:43Z</time>
      </trkpt>
      <trkpt lat="48.88753" lon="7.40662">
        <ele>293</ele>
        <time>2021-08-08T05:13:44Z</time>
      </trkpt>
      <trkpt lat="48.88756" lon="7.40658">
        <ele>294</ele>
        <time>2021-08-08T05:13:45Z</time>
      </trkpt>
      <trkpt lat="48.88756" lon="7.40658">
        <ele>294</ele>
        <time>2021-08-08T05:13:46Z</time>
      </trkpt>
      <trkpt lat="48.8876" lon="7.40653">
        <ele>294</ele>
        <time>2021-08-08T05:13:47Z</time>
      </trkpt>
      <trkpt lat="48.8876" lon="7.40653">
        <ele>294</ele>
        <time>2021-08-08T05:13:48Z</time>
      </trkpt>
      <trkpt lat="48.88763" lon="7.40649">
        <ele>294</ele>
        <time>2021-08-08T05:13:49Z</time>
      </trkpt>
      <trkpt lat="48.88763" lon="7.40649">
        <ele>294</ele>
        <time>2021-08-08T05:13:50Z</time>
      </trkpt>
      <trkpt lat="48.88766" lon="7.40645">
        <ele>295</ele>
        <time>2021-08-08T05:13:51Z</time>
      </trkpt>
      <trkpt lat="48.88766" lon="7.40645">
        <ele>295</ele>
        <time>2021-08-08T05:13:52Z</time>
      </trkpt>
      <trkpt lat="48.88768" lon="7.40642">
        <ele>295</ele>
        <time>2021-08-08T05:13:53Z</time>
      </trkpt>
      <trkpt lat="48.88769" lon="7.40641">
        <ele>295</ele>
        <time>2021-08-08T05:13:54Z</time>
      </trkpt>
      <trkpt lat="48.88771" lon="7.4064">
        <ele>295</ele>
        <time>2021-08-08T05:13:55Z</time>
      </trkpt>
      <trkpt lat="48.88772" lon="7.40638">
        <ele>295</ele>
        <time>2021-08-08T05:13:56Z</time>
      </trkpt>
      <trkpt lat="48.88772" lon="7.40638">
        <ele>295</ele>
        <time>2021-08-08T05:13:57Z</time>
      </trkpt>
      <trkpt lat="48.88775" lon="7.40635">
        <ele>295</ele>
        <time>2021-08-08T05:13:58Z</time>
      </trkpt>
      <trkpt lat="48.88775" lon="7.40635">
        <ele>295</ele>
        <time>2021-08-08T05:13:59Z</time>
      </trkpt>
      <trkpt lat="48.88779" lon="7.4063">
        <ele>295</ele>
        <time>2021-08-08T05:14:00Z</time>
      </trkpt>
      <trkpt lat="48.8878" lon="7.40628">
        <ele>296</ele>
        <time>2021-08-08T05:14:01Z</time>
      </trkpt>
      <trkpt lat="48.8878" lon="7.40628">
        <ele>296</ele>
        <time>2021-08-08T05:14:02Z</time>
      </trkpt>
      <trkpt lat="48.88782" lon="7.40623">
        <ele>296</ele>
        <time>2021-08-08T05:14:03Z</time>
      </trkpt>
      <trkpt lat="48.88782" lon="7.40623">
        <ele>296</ele>
        <time>2021-08-08T05:14:04Z</time>
      </trkpt>
      <trkpt lat="48.88785" lon="7.40619">
        <ele>296</ele>
        <time>2021-08-08T05:14:05Z</time>
      </trkpt>
      <trkpt lat="48.88785" lon="7.40619">
        <ele>296</ele>
        <time>2021-08-08T05:14:06Z</time>
      </trkpt>
      <trkpt lat="48.88788" lon="7.40614">
        <ele>296</ele>
        <time>2021-08-08T05:14:07Z</time>
      </trkpt>
      <trkpt lat="48.88788" lon="7.40614">
        <ele>297</ele>
        <time>2021-08-08T05:14:08Z</time>
      </trkpt>
      <trkpt lat="48.8879" lon="7.40612">
        <ele>297</ele>
        <time>2021-08-08T05:14:09Z</time>
      </trkpt>
      <trkpt lat="48.88792" lon="7.4061">
        <ele>297</ele>
        <time>2021-08-08T05:14:10Z</time>
      </trkpt>
      <trkpt lat="48.88792" lon="7.4061">
        <ele>297</ele>
        <time>2021-08-08T05:14:11Z</time>
      </trkpt>
      <trkpt lat="48.88794" lon="7.40604">
        <ele>298</ele>
        <time>2021-08-08T05:14:12Z</time>
      </trkpt>
      <trkpt lat="48.88794" lon="7.40604">
        <ele>298</ele>
        <time>2021-08-08T05:14:13Z</time>
      </trkpt>
      <trkpt lat="48.88798" lon="7.406">
        <ele>298</ele>
        <time>2021-08-08T05:14:14Z</time>
      </trkpt>
      <trkpt lat="48.888" lon="7.40597">
        <ele>298</ele>
        <time>2021-08-08T05:14:15Z</time>
      </trkpt>
      <trkpt lat="48.888" lon="7.40597">
        <ele>298</ele>
        <time>2021-08-08T05:14:16Z</time>
      </trkpt>
      <trkpt lat="48.88804" lon="7.40587">
        <ele>298</ele>
        <time>2021-08-08T05:14:17Z</time>
      </trkpt>
      <trkpt lat="48.88804" lon="7.40587">
        <ele>299</ele>
        <time>2021-08-08T05:14:18Z</time>
      </trkpt>
      <trkpt lat="48.88806" lon="7.40579">
        <ele>299</ele>
        <time>2021-08-08T05:14:19Z</time>
      </trkpt>
      <trkpt lat="48.88806" lon="7.40579">
        <ele>299</ele>
        <time>2021-08-08T05:14:20Z</time>
      </trkpt>
      <trkpt lat="48.88809" lon="7.40574">
        <ele>299</ele>
        <time>2021-08-08T05:14:21Z</time>
      </trkpt>
      <trkpt lat="48.88809" lon="7.40574">
        <ele>299</ele>
        <time>2021-08-08T05:14:22Z</time>
      </trkpt>
      <trkpt lat="48.88812" lon="7.4057">
        <ele>299</ele>
        <time>2021-08-08T05:14:23Z</time>
      </trkpt>
      <trkpt lat="48.88812" lon="7.4057">
        <ele>299</ele>
        <time>2021-08-08T05:14:24Z</time>
      </trkpt>
      <trkpt lat="48.88816" lon="7.40567">
        <ele>299</ele>
        <time>2021-08-08T05:14:25Z</time>
      </trkpt>
      <trkpt lat="48.88816" lon="7.40567">
        <ele>299</ele>
        <time>2021-08-08T05:14:26Z</time>
      </trkpt>
      <trkpt lat="48.88819" lon="7.40563">
        <ele>299</ele>
        <time>2021-08-08T05:14:27Z</time>
      </trkpt>
      <trkpt lat="48.88819" lon="7.40563">
        <ele>299</ele>
        <time>2021-08-08T05:14:28Z</time>
      </trkpt>
      <trkpt lat="48.88822" lon="7.40561">
        <ele>299</ele>
        <time>2021-08-08T05:14:29Z</time>
      </trkpt>
      <trkpt lat="48.88822" lon="7.40561">
        <ele>300</ele>
        <time>2021-08-08T05:14:30Z</time>
      </trkpt>
      <trkpt lat="48.88826" lon="7.40559">
        <ele>300</ele>
        <time>2021-08-08T05:14:31Z</time>
      </trkpt>
      <trkpt lat="48.88826" lon="7.40559">
        <ele>300</ele>
        <time>2021-08-08T05:14:32Z</time>
      </trkpt>
      <trkpt lat="48.88831" lon="7.40558">
        <ele>300</ele>
        <time>2021-08-08T05:14:33Z</time>
      </trkpt>
      <trkpt lat="48.88831" lon="7.40558">
        <ele>300</ele>
        <time>2021-08-08T05:14:34Z</time>
      </trkpt>
      <trkpt lat="48.88835" lon="7.40558">
        <ele>300</ele>
        <time>2021-08-08T05:14:35Z</time>
      </trkpt>
      <trkpt lat="48.88835" lon="7.40558">
        <ele>301</ele>
        <time>2021-08-08T05:14:36Z</time>
      </trkpt>
      <trkpt lat="48.8884" lon="7.40559">
        <ele>301</ele>
        <time>2021-08-08T05:14:37Z</time>
      </trkpt>
      <trkpt lat="48.88842" lon="7.40559">
        <ele>301</ele>
        <time>2021-08-08T05:14:38Z</time>
      </trkpt>
      <trkpt lat="48.88842" lon="7.40559">
        <ele>301</ele>
        <time>2021-08-08T05:14:39Z</time>
      </trkpt>
      <trkpt lat="48.88844" lon="7.4056">
        <ele>301</ele>
        <time>2021-08-08T05:14:40Z</time>
      </trkpt>
      <trkpt lat="48.88844" lon="7.4056">
        <ele>301</ele>
        <time>2021-08-08T05:14:41Z</time>
      </trkpt>
      <trkpt lat="48.88848" lon="7.4056">
        <ele>302</ele>
        <time>2021-08-08T05:14:42Z</time>
      </trkpt>
      <trkpt lat="48.8885" lon="7.40561">
        <ele>302</ele>
        <time>2021-08-08T05:14:43Z</time>
      </trkpt>
      <trkpt lat="48.8885" lon="7.40561">
        <ele>302</ele>
        <time>2021-08-08T05:14:44Z</time>
      </trkpt>
      <trkpt lat="48.88853" lon="7.40562">
        <ele>302</ele>
        <time>2021-08-08T05:14:45Z</time>
      </trkpt>
      <trkpt lat="48.88853" lon="7.40562">
        <ele>303</ele>
        <time>2021-08-08T05:14:46Z</time>
      </trkpt>
      <trkpt lat="48.88859" lon="7.40559">
        <ele>303</ele>
        <time>2021-08-08T05:14:47Z</time>
      </trkpt>
      <trkpt lat="48.88861" lon="7.40563">
        <ele>303</ele>
        <time>2021-08-08T05:14:48Z</time>
      </trkpt>
      <trkpt lat="48.88863" lon="7.40565">
        <ele>304</ele>
        <time>2021-08-08T05:14:49Z</time>
      </trkpt>
      <trkpt lat="48.88863" lon="7.40565">
        <ele>304</ele>
        <time>2021-08-08T05:14:50Z</time>
      </trkpt>
      <trkpt lat="48.88866" lon="7.40565">
        <ele>304</ele>
        <time>2021-08-08T05:14:51Z</time>
      </trkpt>
      <trkpt lat="48.88866" lon="7.40565">
        <ele>304</ele>
        <time>2021-08-08T05:14:52Z</time>
      </trkpt>
      <trkpt lat="48.88869" lon="7.40566">
        <ele>305</ele>
        <time>2021-08-08T05:14:53Z</time>
      </trkpt>
      <trkpt lat="48.88869" lon="7.40566">
        <ele>305</ele>
        <time>2021-08-08T05:14:54Z</time>
      </trkpt>
      <trkpt lat="48.88872" lon="7.40566">
        <ele>305</ele>
        <time>2021-08-08T05:14:55Z</time>
      </trkpt>
      <trkpt lat="48.88873" lon="7.40567">
        <ele>305</ele>
        <time>2021-08-08T05:14:56Z</time>
      </trkpt>
      <trkpt lat="48.88875" lon="7.40568">
        <ele>306</ele>
        <time>2021-08-08T05:14:57Z</time>
      </trkpt>
      <trkpt lat="48.88875" lon="7.40568">
        <ele>306</ele>
        <time>2021-08-08T05:14:58Z</time>
      </trkpt>
      <trkpt lat="48.88877" lon="7.40567">
        <ele>306</ele>
        <time>2021-08-08T05:14:59Z</time>
      </trkpt>
      <trkpt lat="48.88877" lon="7.40567">
        <ele>307</ele>
        <time>2021-08-08T05:15:00Z</time>
      </trkpt>
      <trkpt lat="48.88878" lon="7.40565">
        <ele>307</ele>
        <time>2021-08-08T05:15:01Z</time>
      </trkpt>
      <trkpt lat="48.88878" lon="7.40565">
        <ele>307</ele>
        <time>2021-08-08T05:15:02Z</time>
      </trkpt>
      <trkpt lat="48.88879" lon="7.40563">
        <ele>307</ele>
        <time>2021-08-08T05:15:03Z</time>
      </trkpt>
      <trkpt lat="48.88879" lon="7.40563">
        <ele>307</ele>
        <time>2021-08-08T05:15:04Z</time>
      </trkpt>
      <trkpt lat="48.88881" lon="7.40562">
        <ele>308</ele>
        <time>2021-08-08T05:15:05Z</time>
      </trkpt>
      <trkpt lat="48.88881" lon="7.40562">
        <ele>308</ele>
        <time>2021-08-08T05:15:06Z</time>
      </trkpt>
      <trkpt lat="48.88883" lon="7.40562">
        <ele>308</ele>
        <time>2021-08-08T05:15:07Z</time>
      </trkpt>
      <trkpt lat="48.88883" lon="7.40562">
        <ele>308</ele>
        <time>2021-08-08T05:15:08Z</time>
      </trkpt>
      <trkpt lat="48.88884" lon="7.4056">
        <ele>309</ele>
        <time>2021-08-08T05:15:09Z</time>
      </trkpt>
      <trkpt lat="48.88884" lon="7.4056">
        <ele>309</ele>
        <time>2021-08-08T05:15:10Z</time>
      </trkpt>
      <trkpt lat="48.88885" lon="7.40557">
        <ele>309</ele>
        <time>2021-08-08T05:15:11Z</time>
      </trkpt>
      <trkpt lat="48.88886" lon="7.40555">
        <ele>309</ele>
        <time>2021-08-08T05:15:12Z</time>
      </trkpt>
      <trkpt lat="48.88886" lon="7.40553">
        <ele>309</ele>
        <time>2021-08-08T05:15:13Z</time>
      </trkpt>
      <trkpt lat="48.88886" lon="7.40553">
        <ele>309</ele>
        <time>2021-08-08T05:15:14Z</time>
      </trkpt>
      <trkpt lat="48.88888" lon="7.40549">
        <ele>310</ele>
        <time>2021-08-08T05:15:15Z</time>
      </trkpt>
      <trkpt lat="48.88888" lon="7.40549">
        <ele>310</ele>
        <time>2021-08-08T05:15:16Z</time>
      </trkpt>
      <trkpt lat="48.88889" lon="7.40546">
        <ele>310</ele>
        <time>2021-08-08T05:15:17Z</time>
      </trkpt>
      <trkpt lat="48.88889" lon="7.40546">
        <ele>310</ele>
        <time>2021-08-08T05:15:18Z</time>
      </trkpt>
      <trkpt lat="48.88893" lon="7.40544">
        <ele>311</ele>
        <time>2021-08-08T05:15:19Z</time>
      </trkpt>
      <trkpt lat="48.88893" lon="7.40544">
        <ele>311</ele>
        <time>2021-08-08T05:15:20Z</time>
      </trkpt>
      <trkpt lat="48.88894" lon="7.40536">
        <ele>311</ele>
        <time>2021-08-08T05:15:21Z</time>
      </trkpt>
      <trkpt lat="48.88894" lon="7.40536">
        <ele>311</ele>
        <time>2021-08-08T05:15:22Z</time>
      </trkpt>
      <trkpt lat="48.88894" lon="7.40532">
        <ele>311</ele>
        <time>2021-08-08T05:15:23Z</time>
      </trkpt>
      <trkpt lat="48.88894" lon="7.40532">
        <ele>311</ele>
        <time>2021-08-08T05:15:24Z</time>
      </trkpt>
      <trkpt lat="48.88895" lon="7.40526">
        <ele>311</ele>
        <time>2021-08-08T05:15:25Z</time>
      </trkpt>
      <trkpt lat="48.88895" lon="7.40526">
        <ele>311</ele>
        <time>2021-08-08T05:15:26Z</time>
      </trkpt>
      <trkpt lat="48.88895" lon="7.40521">
        <ele>311</ele>
        <time>2021-08-08T05:15:27Z</time>
      </trkpt>
      <trkpt lat="48.88895" lon="7.40521">
        <ele>311</ele>
        <time>2021-08-08T05:15:28Z</time>
      </trkpt>
      <trkpt lat="48.88897" lon="7.40516">
        <ele>311</ele>
        <time>2021-08-08T05:15:29Z</time>
      </trkpt>
      <trkpt lat="48.88898" lon="7.40512">
        <ele>311</ele>
        <time>2021-08-08T05:15:30Z</time>
      </trkpt>
      <trkpt lat="48.889" lon="7.40509">
        <ele>311</ele>
        <time>2021-08-08T05:15:31Z</time>
      </trkpt>
      <trkpt lat="48.889" lon="7.40509">
        <ele>311</ele>
        <time>2021-08-08T05:15:32Z</time>
      </trkpt>
      <trkpt lat="48.88903" lon="7.40501">
        <ele>312</ele>
        <time>2021-08-08T05:15:33Z</time>
      </trkpt>
      <trkpt lat="48.88903" lon="7.40501">
        <ele>312</ele>
        <time>2021-08-08T05:15:34Z</time>
      </trkpt>
      <trkpt lat="48.88909" lon="7.40496">
        <ele>312</ele>
        <time>2021-08-08T05:15:35Z</time>
      </trkpt>
      <trkpt lat="48.88909" lon="7.40496">
        <ele>312</ele>
        <time>2021-08-08T05:15:36Z</time>
      </trkpt>
      <trkpt lat="48.88915" lon="7.40493">
        <ele>312</ele>
        <time>2021-08-08T05:15:37Z</time>
      </trkpt>
      <trkpt lat="48.88915" lon="7.40493">
        <ele>312</ele>
        <time>2021-08-08T05:15:38Z</time>
      </trkpt>
      <trkpt lat="48.88921" lon="7.40488">
        <ele>312</ele>
        <time>2021-08-08T05:15:39Z</time>
      </trkpt>
      <trkpt lat="48.88921" lon="7.40488">
        <ele>312</ele>
        <time>2021-08-08T05:15:40Z</time>
      </trkpt>
      <trkpt lat="48.88926" lon="7.40482">
        <ele>312</ele>
        <time>2021-08-08T05:15:41Z</time>
      </trkpt>
      <trkpt lat="48.88926" lon="7.40482">
        <ele>312</ele>
        <time>2021-08-08T05:15:42Z</time>
      </trkpt>
      <trkpt lat="48.88931" lon="7.40476">
        <ele>311</ele>
        <time>2021-08-08T05:15:43Z</time>
      </trkpt>
      <trkpt lat="48.88931" lon="7.40476">
        <ele>311</ele>
        <time>2021-08-08T05:15:44Z</time>
      </trkpt>
      <trkpt lat="48.88938" lon="7.40474">
        <ele>311</ele>
        <time>2021-08-08T05:15:45Z</time>
      </trkpt>
      <trkpt lat="48.88938" lon="7.40474">
        <ele>311</ele>
        <time>2021-08-08T05:15:46Z</time>
      </trkpt>
      <trkpt lat="48.88945" lon="7.40472">
        <ele>311</ele>
        <time>2021-08-08T05:15:47Z</time>
      </trkpt>
      <trkpt lat="48.88945" lon="7.40472">
        <ele>311</ele>
        <time>2021-08-08T05:15:48Z</time>
      </trkpt>
      <trkpt lat="48.88952" lon="7.4047">
        <ele>311</ele>
        <time>2021-08-08T05:15:49Z</time>
      </trkpt>
      <trkpt lat="48.88952" lon="7.4047">
        <ele>311</ele>
        <time>2021-08-08T05:15:50Z</time>
      </trkpt>
      <trkpt lat="48.8896" lon="7.40466">
        <ele>311</ele>
        <time>2021-08-08T05:15:51Z</time>
      </trkpt>
      <trkpt lat="48.8896" lon="7.40466">
        <ele>311</ele>
        <time>2021-08-08T05:15:52Z</time>
      </trkpt>
      <trkpt lat="48.88966" lon="7.40462">
        <ele>312</ele>
        <time>2021-08-08T05:15:53Z</time>
      </trkpt>
      <trkpt lat="48.88969" lon="7.40462">
        <ele>312</ele>
        <time>2021-08-08T05:15:54Z</time>
      </trkpt>
      <trkpt lat="48.88972" lon="7.40462">
        <ele>312</ele>
        <time>2021-08-08T05:15:55Z</time>
      </trkpt>
      <trkpt lat="48.88972" lon="7.40462">
        <ele>312</ele>
        <time>2021-08-08T05:15:56Z</time>
      </trkpt>
      <trkpt lat="48.88981" lon="7.40463">
        <ele>312</ele>
        <time>2021-08-08T05:15:57Z</time>
      </trkpt>
      <trkpt lat="48.88981" lon="7.40463">
        <ele>312</ele>
        <time>2021-08-08T05:15:58Z</time>
      </trkpt>
      <trkpt lat="48.88988" lon="7.40463">
        <ele>312</ele>
        <time>2021-08-08T05:15:59Z</time>
      </trkpt>
      <trkpt lat="48.88988" lon="7.40463">
        <ele>312</ele>
        <time>2021-08-08T05:16:00Z</time>
      </trkpt>
      <trkpt lat="48.88996" lon="7.40462">
        <ele>312</ele>
        <time>2021-08-08T05:16:01Z</time>
      </trkpt>
      <trkpt lat="48.88996" lon="7.40462">
        <ele>312</ele>
        <time>2021-08-08T05:16:02Z</time>
      </trkpt>
      <trkpt lat="48.89006" lon="7.4046">
        <ele>312</ele>
        <time>2021-08-08T05:16:03Z</time>
      </trkpt>
      <trkpt lat="48.89006" lon="7.4046">
        <ele>312</ele>
        <time>2021-08-08T05:16:04Z</time>
      </trkpt>
      <trkpt lat="48.89013" lon="7.40458">
        <ele>312</ele>
        <time>2021-08-08T05:16:05Z</time>
      </trkpt>
      <trkpt lat="48.89016" lon="7.40456">
        <ele>312</ele>
        <time>2021-08-08T05:16:06Z</time>
      </trkpt>
      <trkpt lat="48.8902" lon="7.40455">
        <ele>312</ele>
        <time>2021-08-08T05:16:07Z</time>
      </trkpt>
      <trkpt lat="48.8902" lon="7.40455">
        <ele>312</ele>
        <time>2021-08-08T05:16:08Z</time>
      </trkpt>
      <trkpt lat="48.89027" lon="7.4045">
        <ele>312</ele>
        <time>2021-08-08T05:16:09Z</time>
      </trkpt>
      <trkpt lat="48.89027" lon="7.4045">
        <ele>311</ele>
        <time>2021-08-08T05:16:10Z</time>
      </trkpt>
      <trkpt lat="48.89034" lon="7.40444">
        <ele>311</ele>
        <time>2021-08-08T05:16:11Z</time>
      </trkpt>
      <trkpt lat="48.89034" lon="7.40444">
        <ele>311</ele>
        <time>2021-08-08T05:16:12Z</time>
      </trkpt>
      <trkpt lat="48.89043" lon="7.40439">
        <ele>311</ele>
        <time>2021-08-08T05:16:13Z</time>
      </trkpt>
      <trkpt lat="48.89043" lon="7.40439">
        <ele>311</ele>
        <time>2021-08-08T05:16:14Z</time>
      </trkpt>
      <trkpt lat="48.89051" lon="7.40433">
        <ele>311</ele>
        <time>2021-08-08T05:16:15Z</time>
      </trkpt>
      <trkpt lat="48.89051" lon="7.40433">
        <ele>310</ele>
        <time>2021-08-08T05:16:16Z</time>
      </trkpt>
      <trkpt lat="48.8906" lon="7.40425">
        <ele>310</ele>
        <time>2021-08-08T05:16:17Z</time>
      </trkpt>
      <trkpt lat="48.8906" lon="7.40425">
        <ele>310</ele>
        <time>2021-08-08T05:16:18Z</time>
      </trkpt>
      <trkpt lat="48.89068" lon="7.40419">
        <ele>310</ele>
        <time>2021-08-08T05:16:19Z</time>
      </trkpt>
      <trkpt lat="48.89068" lon="7.40419">
        <ele>310</ele>
        <time>2021-08-08T05:16:20Z</time>
      </trkpt>
      <trkpt lat="48.89077" lon="7.40411">
        <ele>310</ele>
        <time>2021-08-08T05:16:21Z</time>
      </trkpt>
      <trkpt lat="48.89077" lon="7.40411">
        <ele>310</ele>
        <time>2021-08-08T05:16:22Z</time>
      </trkpt>
      <trkpt lat="48.89087" lon="7.40399">
        <ele>310</ele>
        <time>2021-08-08T05:16:23Z</time>
      </trkpt>
      <trkpt lat="48.89087" lon="7.40399">
        <ele>309</ele>
        <time>2021-08-08T05:16:24Z</time>
      </trkpt>
      <trkpt lat="48.89095" lon="7.40388">
        <ele>309</ele>
        <time>2021-08-08T05:16:25Z</time>
      </trkpt>
      <trkpt lat="48.89095" lon="7.40388">
        <ele>309</ele>
        <time>2021-08-08T05:16:26Z</time>
      </trkpt>
      <trkpt lat="48.89098" lon="7.40381">
        <ele>309</ele>
        <time>2021-08-08T05:16:27Z</time>
      </trkpt>
      <trkpt lat="48.89098" lon="7.40381">
        <ele>309</ele>
        <time>2021-08-08T05:16:28Z</time>
      </trkpt>
      <trkpt lat="48.89102" lon="7.40374">
        <ele>309</ele>
        <time>2021-08-08T05:16:29Z</time>
      </trkpt>
      <trkpt lat="48.89102" lon="7.40374">
        <ele>309</ele>
        <time>2021-08-08T05:16:30Z</time>
      </trkpt>
      <trkpt lat="48.89105" lon="7.40365">
        <ele>309</ele>
        <time>2021-08-08T05:16:31Z</time>
      </trkpt>
      <trkpt lat="48.89105" lon="7.40365">
        <ele>310</ele>
        <time>2021-08-08T05:16:32Z</time>
      </trkpt>
      <trkpt lat="48.89107" lon="7.40355">
        <ele>310</ele>
        <time>2021-08-08T05:16:33Z</time>
      </trkpt>
      <trkpt lat="48.89107" lon="7.40355">
        <ele>310</ele>
        <time>2021-08-08T05:16:34Z</time>
      </trkpt>
      <trkpt lat="48.89108" lon="7.40344">
        <ele>310</ele>
        <time>2021-08-08T05:16:35Z</time>
      </trkpt>
      <trkpt lat="48.89109" lon="7.40338">
        <ele>310</ele>
        <time>2021-08-08T05:16:36Z</time>
      </trkpt>
      <trkpt lat="48.89109" lon="7.40338">
        <ele>310</ele>
        <time>2021-08-08T05:16:37Z</time>
      </trkpt>
      <trkpt lat="48.8911" lon="7.40323">
        <ele>310</ele>
        <time>2021-08-08T05:16:38Z</time>
      </trkpt>
      <trkpt lat="48.89111" lon="7.40317">
        <ele>310</ele>
        <time>2021-08-08T05:16:39Z</time>
      </trkpt>
      <trkpt lat="48.89111" lon="7.40317">
        <ele>310</ele>
        <time>2021-08-08T05:16:40Z</time>
      </trkpt>
      <trkpt lat="48.89113" lon="7.40303">
        <ele>310</ele>
        <time>2021-08-08T05:16:41Z</time>
      </trkpt>
      <trkpt lat="48.89115" lon="7.40296">
        <ele>310</ele>
        <time>2021-08-08T05:16:42Z</time>
      </trkpt>
      <trkpt lat="48.89116" lon="7.40288">
        <ele>310</ele>
        <time>2021-08-08T05:16:43Z</time>
      </trkpt>
      <trkpt lat="48.89116" lon="7.40288">
        <ele>309</ele>
        <time>2021-08-08T05:16:44Z</time>
      </trkpt>
      <trkpt lat="48.89118" lon="7.40272">
        <ele>309</ele>
        <time>2021-08-08T05:16:45Z</time>
      </trkpt>
      <trkpt lat="48.89118" lon="7.40272">
        <ele>309</ele>
        <time>2021-08-08T05:16:46Z</time>
      </trkpt>
      <trkpt lat="48.89121" lon="7.40258">
        <ele>309</ele>
        <time>2021-08-08T05:16:47Z</time>
      </trkpt>
      <trkpt lat="48.89121" lon="7.40258">
        <ele>308</ele>
        <time>2021-08-08T05:16:48Z</time>
      </trkpt>
      <trkpt lat="48.89125" lon="7.40246">
        <ele>308</ele>
        <time>2021-08-08T05:16:49Z</time>
      </trkpt>
      <trkpt lat="48.89125" lon="7.40246">
        <ele>308</ele>
        <time>2021-08-08T05:16:50Z</time>
      </trkpt>
      <trkpt lat="48.89129" lon="7.40234">
        <ele>308</ele>
        <time>2021-08-08T05:16:51Z</time>
      </trkpt>
      <trkpt lat="48.89129" lon="7.40234">
        <ele>307</ele>
        <time>2021-08-08T05:16:52Z</time>
      </trkpt>
      <trkpt lat="48.89134" lon="7.40223">
        <ele>307</ele>
        <time>2021-08-08T05:16:53Z</time>
      </trkpt>
      <trkpt lat="48.89134" lon="7.40223">
        <ele>307</ele>
        <time>2021-08-08T05:16:54Z</time>
      </trkpt>
      <trkpt lat="48.89139" lon="7.40212">
        <ele>307</ele>
        <time>2021-08-08T05:16:55Z</time>
      </trkpt>
      <trkpt lat="48.89139" lon="7.40212">
        <ele>307</ele>
        <time>2021-08-08T05:16:56Z</time>
      </trkpt>
      <trkpt lat="48.89145" lon="7.40199">
        <ele>306</ele>
        <time>2021-08-08T05:16:57Z</time>
      </trkpt>
      <trkpt lat="48.89145" lon="7.40199">
        <ele>306</ele>
        <time>2021-08-08T05:16:58Z</time>
      </trkpt>
      <trkpt lat="48.89151" lon="7.40184">
        <ele>306</ele>
        <time>2021-08-08T05:16:59Z</time>
      </trkpt>
      <trkpt lat="48.89151" lon="7.40184">
        <ele>306</ele>
        <time>2021-08-08T05:17:00Z</time>
      </trkpt>
      <trkpt lat="48.89157" lon="7.4017">
        <ele>305</ele>
        <time>2021-08-08T05:17:01Z</time>
      </trkpt>
      <trkpt lat="48.89157" lon="7.4017">
        <ele>305</ele>
        <time>2021-08-08T05:17:02Z</time>
      </trkpt>
      <trkpt lat="48.89162" lon="7.40157">
        <ele>305</ele>
        <time>2021-08-08T05:17:03Z</time>
      </trkpt>
      <trkpt lat="48.89162" lon="7.40157">
        <ele>305</ele>
        <time>2021-08-08T05:17:04Z</time>
      </trkpt>
      <trkpt lat="48.89169" lon="7.40144">
        <ele>304</ele>
        <time>2021-08-08T05:17:05Z</time>
      </trkpt>
      <trkpt lat="48.89169" lon="7.40144">
        <ele>304</ele>
        <time>2021-08-08T05:17:06Z</time>
      </trkpt>
      <trkpt lat="48.89175" lon="7.40133">
        <ele>304</ele>
        <time>2021-08-08T05:17:07Z</time>
      </trkpt>
      <trkpt lat="48.89175" lon="7.40133">
        <ele>304</ele>
        <time>2021-08-08T05:17:08Z</time>
      </trkpt>
      <trkpt lat="48.89181" lon="7.40124">
        <ele>304</ele>
        <time>2021-08-08T05:17:09Z</time>
      </trkpt>
      <trkpt lat="48.89181" lon="7.40124">
        <ele>304</ele>
        <time>2021-08-08T05:17:10Z</time>
      </trkpt>
      <trkpt lat="48.89185" lon="7.40116">
        <ele>304</ele>
        <time>2021-08-08T05:17:11Z</time>
      </trkpt>
      <trkpt lat="48.89185" lon="7.40116">
        <ele>304</ele>
        <time>2021-08-08T05:17:12Z</time>
      </trkpt>
      <trkpt lat="48.89191" lon="7.4011">
        <ele>304</ele>
        <time>2021-08-08T05:17:13Z</time>
      </trkpt>
      <trkpt lat="48.89191" lon="7.4011">
        <ele>304</ele>
        <time>2021-08-08T05:17:14Z</time>
      </trkpt>
      <trkpt lat="48.89199" lon="7.40106">
        <ele>304</ele>
        <time>2021-08-08T05:17:15Z</time>
      </trkpt>
      <trkpt lat="48.89199" lon="7.40106">
        <ele>304</ele>
        <time>2021-08-08T05:17:16Z</time>
      </trkpt>
      <trkpt lat="48.89206" lon="7.40104">
        <ele>304</ele>
        <time>2021-08-08T05:17:17Z</time>
      </trkpt>
      <trkpt lat="48.89206" lon="7.40104">
        <ele>304</ele>
        <time>2021-08-08T05:17:18Z</time>
      </trkpt>
      <trkpt lat="48.89214" lon="7.40102">
        <ele>304</ele>
        <time>2021-08-08T05:17:19Z</time>
      </trkpt>
      <trkpt lat="48.89218" lon="7.401">
        <ele>304</ele>
        <time>2021-08-08T05:17:20Z</time>
      </trkpt>
      <trkpt lat="48.89223" lon="7.40098">
        <ele>304</ele>
        <time>2021-08-08T05:17:21Z</time>
      </trkpt>
      <trkpt lat="48.89223" lon="7.40098">
        <ele>304</ele>
        <time>2021-08-08T05:17:22Z</time>
      </trkpt>
      <trkpt lat="48.89233" lon="7.40096">
        <ele>304</ele>
        <time>2021-08-08T05:17:23Z</time>
      </trkpt>
      <trkpt lat="48.89238" lon="7.40094">
        <ele>304</ele>
        <time>2021-08-08T05:17:24Z</time>
      </trkpt>
      <trkpt lat="48.89243" lon="7.40092">
        <ele>304</ele>
        <time>2021-08-08T05:17:25Z</time>
      </trkpt>
      <trkpt lat="48.89243" lon="7.40092">
        <ele>305</ele>
        <time>2021-08-08T05:17:26Z</time>
      </trkpt>
      <trkpt lat="48.89252" lon="7.4009">
        <ele>305</ele>
        <time>2021-08-08T05:17:27Z</time>
      </trkpt>
      <trkpt lat="48.89252" lon="7.4009">
        <ele>305</ele>
        <time>2021-08-08T05:17:28Z</time>
      </trkpt>
      <trkpt lat="48.89261" lon="7.40089">
        <ele>305</ele>
        <time>2021-08-08T05:17:29Z</time>
      </trkpt>
      <trkpt lat="48.89265" lon="7.40089">
        <ele>305</ele>
        <time>2021-08-08T05:17:30Z</time>
      </trkpt>
      <trkpt lat="48.89269" lon="7.4009">
        <ele>305</ele>
        <time>2021-08-08T05:17:31Z</time>
      </trkpt>
      <trkpt lat="48.89269" lon="7.4009">
        <ele>305</ele>
        <time>2021-08-08T05:17:32Z</time>
      </trkpt>
      <trkpt lat="48.89277" lon="7.40091">
        <ele>305</ele>
        <time>2021-08-08T05:17:33Z</time>
      </trkpt>
      <trkpt lat="48.89277" lon="7.40091">
        <ele>305</ele>
        <time>2021-08-08T05:17:34Z</time>
      </trkpt>
      <trkpt lat="48.89286" lon="7.40092">
        <ele>305</ele>
        <time>2021-08-08T05:17:35Z</time>
      </trkpt>
      <trkpt lat="48.89291" lon="7.40092">
        <ele>305</ele>
        <time>2021-08-08T05:17:36Z</time>
      </trkpt>
      <trkpt lat="48.89296" lon="7.40092">
        <ele>305</ele>
        <time>2021-08-08T05:17:37Z</time>
      </trkpt>
      <trkpt lat="48.89296" lon="7.40092">
        <ele>306</ele>
        <time>2021-08-08T05:17:38Z</time>
      </trkpt>
      <trkpt lat="48.89303" lon="7.40092">
        <ele>306</ele>
        <time>2021-08-08T05:17:39Z</time>
      </trkpt>
      <trkpt lat="48.89307" lon="7.40092">
        <ele>306</ele>
        <time>2021-08-08T05:17:40Z</time>
      </trkpt>
      <trkpt lat="48.89307" lon="7.40092">
        <ele>306</ele>
        <time>2021-08-08T05:17:41Z</time>
      </trkpt>
      <trkpt lat="48.89313" lon="7.40093">
        <ele>306</ele>
        <time>2021-08-08T05:17:42Z</time>
      </trkpt>
      <trkpt lat="48.89317" lon="7.40095">
        <ele>306</ele>
        <time>2021-08-08T05:17:43Z</time>
      </trkpt>
      <trkpt lat="48.89317" lon="7.40095">
        <ele>306</ele>
        <time>2021-08-08T05:17:44Z</time>
      </trkpt>
      <trkpt lat="48.89326" lon="7.401">
        <ele>306</ele>
        <time>2021-08-08T05:17:45Z</time>
      </trkpt>
      <trkpt lat="48.89326" lon="7.401">
        <ele>306</ele>
        <time>2021-08-08T05:17:46Z</time>
      </trkpt>
      <trkpt lat="48.89334" lon="7.40104">
        <ele>306</ele>
        <time>2021-08-08T05:17:47Z</time>
      </trkpt>
      <trkpt lat="48.89334" lon="7.40104">
        <ele>306</ele>
        <time>2021-08-08T05:17:48Z</time>
      </trkpt>
      <trkpt lat="48.89343" lon="7.4011">
        <ele>306</ele>
        <time>2021-08-08T05:17:49Z</time>
      </trkpt>
      <trkpt lat="48.89343" lon="7.4011">
        <ele>306</ele>
        <time>2021-08-08T05:17:50Z</time>
      </trkpt>
      <trkpt lat="48.89353" lon="7.40117">
        <ele>306</ele>
        <time>2021-08-08T05:17:51Z</time>
      </trkpt>
      <trkpt lat="48.89353" lon="7.40117">
        <ele>306</ele>
        <time>2021-08-08T05:17:52Z</time>
      </trkpt>
      <trkpt lat="48.89361" lon="7.40124">
        <ele>306</ele>
        <time>2021-08-08T05:17:53Z</time>
      </trkpt>
      <trkpt lat="48.89367" lon="7.40129">
        <ele>306</ele>
        <time>2021-08-08T05:17:54Z</time>
      </trkpt>
      <trkpt lat="48.89372" lon="7.40134">
        <ele>307</ele>
        <time>2021-08-08T05:17:55Z</time>
      </trkpt>
      <trkpt lat="48.89372" lon="7.40134">
        <ele>307</ele>
        <time>2021-08-08T05:17:56Z</time>
      </trkpt>
      <trkpt lat="48.8938" lon="7.40141">
        <ele>307</ele>
        <time>2021-08-08T05:17:57Z</time>
      </trkpt>
      <trkpt lat="48.8938" lon="7.40141">
        <ele>307</ele>
        <time>2021-08-08T05:17:58Z</time>
      </trkpt>
      <trkpt lat="48.89388" lon="7.40149">
        <ele>307</ele>
        <time>2021-08-08T05:17:59Z</time>
      </trkpt>
      <trkpt lat="48.89388" lon="7.40149">
        <ele>307</ele>
        <time>2021-08-08T05:18:00Z</time>
      </trkpt>
      <trkpt lat="48.89397" lon="7.40158">
        <ele>307</ele>
        <time>2021-08-08T05:18:01Z</time>
      </trkpt>
      <trkpt lat="48.89397" lon="7.40158">
        <ele>307</ele>
        <time>2021-08-08T05:18:02Z</time>
      </trkpt>
      <trkpt lat="48.89405" lon="7.40167">
        <ele>307</ele>
        <time>2021-08-08T05:18:03Z</time>
      </trkpt>
      <trkpt lat="48.89405" lon="7.40167">
        <ele>307</ele>
        <time>2021-08-08T05:18:04Z</time>
      </trkpt>
      <trkpt lat="48.89412" lon="7.40176">
        <ele>307</ele>
        <time>2021-08-08T05:18:05Z</time>
      </trkpt>
      <trkpt lat="48.89412" lon="7.40176">
        <ele>307</ele>
        <time>2021-08-08T05:18:06Z</time>
      </trkpt>
      <trkpt lat="48.89418" lon="7.40185">
        <ele>307</ele>
        <time>2021-08-08T05:18:07Z</time>
      </trkpt>
      <trkpt lat="48.89421" lon="7.40189">
        <ele>307</ele>
        <time>2021-08-08T05:18:08Z</time>
      </trkpt>
      <trkpt lat="48.89421" lon="7.40189">
        <ele>307</ele>
        <time>2021-08-08T05:18:09Z</time>
      </trkpt>
      <trkpt lat="48.89428" lon="7.402">
        <ele>307</ele>
        <time>2021-08-08T05:18:10Z</time>
      </trkpt>
      <trkpt lat="48.89428" lon="7.402">
        <ele>307</ele>
        <time>2021-08-08T05:18:11Z</time>
      </trkpt>
      <trkpt lat="48.89433" lon="7.40212">
        <ele>307</ele>
        <time>2021-08-08T05:18:12Z</time>
      </trkpt>
      <trkpt lat="48.89435" lon="7.40217">
        <ele>307</ele>
        <time>2021-08-08T05:18:13Z</time>
      </trkpt>
      <trkpt lat="48.89435" lon="7.40217">
        <ele>307</ele>
        <time>2021-08-08T05:18:14Z</time>
      </trkpt>
      <trkpt lat="48.8944" lon="7.40229">
        <ele>307</ele>
        <time>2021-08-08T05:18:15Z</time>
      </trkpt>
      <trkpt lat="48.8944" lon="7.40229">
        <ele>307</ele>
        <time>2021-08-08T05:18:16Z</time>
      </trkpt>
      <trkpt lat="48.89445" lon="7.40241">
        <ele>307</ele>
        <time>2021-08-08T05:18:17Z</time>
      </trkpt>
      <trkpt lat="48.89445" lon="7.40241">
        <ele>307</ele>
        <time>2021-08-08T05:18:18Z</time>
      </trkpt>
      <trkpt lat="48.8945" lon="7.40253">
        <ele>307</ele>
        <time>2021-08-08T05:18:19Z</time>
      </trkpt>
      <trkpt lat="48.8945" lon="7.40253">
        <ele>307</ele>
        <time>2021-08-08T05:18:20Z</time>
      </trkpt>
      <trkpt lat="48.89455" lon="7.40265">
        <ele>307</ele>
        <time>2021-08-08T05:18:21Z</time>
      </trkpt>
      <trkpt lat="48.89455" lon="7.40265">
        <ele>308</ele>
        <time>2021-08-08T05:18:22Z</time>
      </trkpt>
      <trkpt lat="48.89459" lon="7.40276">
        <ele>308</ele>
        <time>2021-08-08T05:18:23Z</time>
      </trkpt>
      <trkpt lat="48.89461" lon="7.4028">
        <ele>308</ele>
        <time>2021-08-08T05:18:24Z</time>
      </trkpt>
      <trkpt lat="48.89461" lon="7.4028">
        <ele>308</ele>
        <time>2021-08-08T05:18:25Z</time>
      </trkpt>
      <trkpt lat="48.89465" lon="7.4029">
        <ele>308</ele>
        <time>2021-08-08T05:18:26Z</time>
      </trkpt>
      <trkpt lat="48.89465" lon="7.4029">
        <ele>308</ele>
        <time>2021-08-08T05:18:27Z</time>
      </trkpt>
      <trkpt lat="48.89469" lon="7.40303">
        <ele>308</ele>
        <time>2021-08-08T05:18:28Z</time>
      </trkpt>
      <trkpt lat="48.89469" lon="7.40303">
        <ele>308</ele>
        <time>2021-08-08T05:18:29Z</time>
      </trkpt>
      <trkpt lat="48.89473" lon="7.40313">
        <ele>308</ele>
        <time>2021-08-08T05:18:30Z</time>
      </trkpt>
      <trkpt lat="48.89473" lon="7.40313">
        <ele>308</ele>
        <time>2021-08-08T05:18:31Z</time>
      </trkpt>
      <trkpt lat="48.89476" lon="7.40322">
        <ele>308</ele>
        <time>2021-08-08T05:18:32Z</time>
      </trkpt>
      <trkpt lat="48.89477" lon="7.40326">
        <ele>310</ele>
        <time>2021-08-08T05:18:33Z</time>
      </trkpt>
      <trkpt lat="48.89478" lon="7.40329">
        <ele>310</ele>
        <time>2021-08-08T05:18:34Z</time>
      </trkpt>
      <trkpt lat="48.89478" lon="7.40329">
        <ele>310</ele>
        <time>2021-08-08T05:18:35Z</time>
      </trkpt>
      <trkpt lat="48.8948" lon="7.40337">
        <ele>310</ele>
        <time>2021-08-08T05:18:36Z</time>
      </trkpt>
      <trkpt lat="48.8948" lon="7.40337">
        <ele>311</ele>
        <time>2021-08-08T05:18:37Z</time>
      </trkpt>
      <trkpt lat="48.89483" lon="7.40346">
        <ele>311</ele>
        <time>2021-08-08T05:18:38Z</time>
      </trkpt>
      <trkpt lat="48.89483" lon="7.40346">
        <ele>311</ele>
        <time>2021-08-08T05:18:39Z</time>
      </trkpt>
      <trkpt lat="48.89485" lon="7.40354">
        <ele>311</ele>
        <time>2021-08-08T05:18:40Z</time>
      </trkpt>
      <trkpt lat="48.89485" lon="7.40354">
        <ele>312</ele>
        <time>2021-08-08T05:18:41Z</time>
      </trkpt>
      <trkpt lat="48.89486" lon="7.40361">
        <ele>312</ele>
        <time>2021-08-08T05:18:42Z</time>
      </trkpt>
      <trkpt lat="48.89486" lon="7.40361">
        <ele>312</ele>
        <time>2021-08-08T05:18:43Z</time>
      </trkpt>
      <trkpt lat="48.89488" lon="7.40368">
        <ele>312</ele>
        <time>2021-08-08T05:18:44Z</time>
      </trkpt>
      <trkpt lat="48.89488" lon="7.40368">
        <ele>312</ele>
        <time>2021-08-08T05:18:45Z</time>
      </trkpt>
      <trkpt lat="48.8949" lon="7.40376">
        <ele>312</ele>
        <time>2021-08-08T05:18:46Z</time>
      </trkpt>
      <trkpt lat="48.8949" lon="7.40376">
        <ele>313</ele>
        <time>2021-08-08T05:18:47Z</time>
      </trkpt>
      <trkpt lat="48.89493" lon="7.40383">
        <ele>313</ele>
        <time>2021-08-08T05:18:48Z</time>
      </trkpt>
      <trkpt lat="48.89494" lon="7.40387">
        <ele>313</ele>
        <time>2021-08-08T05:18:49Z</time>
      </trkpt>
      <trkpt lat="48.89495" lon="7.40393">
        <ele>314</ele>
        <time>2021-08-08T05:18:50Z</time>
      </trkpt>
      <trkpt lat="48.89495" lon="7.40393">
        <ele>314</ele>
        <time>2021-08-08T05:18:51Z</time>
      </trkpt>
      <trkpt lat="48.89498" lon="7.40405">
        <ele>314</ele>
        <time>2021-08-08T05:18:52Z</time>
      </trkpt>
      <trkpt lat="48.89499" lon="7.4041">
        <ele>314</ele>
        <time>2021-08-08T05:18:53Z</time>
      </trkpt>
      <trkpt lat="48.89499" lon="7.4041">
        <ele>314</ele>
        <time>2021-08-08T05:18:54Z</time>
      </trkpt>
      <trkpt lat="48.89503" lon="7.40422">
        <ele>314</ele>
        <time>2021-08-08T05:18:55Z</time>
      </trkpt>
      <trkpt lat="48.89505" lon="7.40429">
        <ele>314</ele>
        <time>2021-08-08T05:18:56Z</time>
      </trkpt>
      <trkpt lat="48.89505" lon="7.40429">
        <ele>314</ele>
        <time>2021-08-08T05:18:57Z</time>
      </trkpt>
      <trkpt lat="48.89507" lon="7.40441">
        <ele>314</ele>
        <time>2021-08-08T05:18:58Z</time>
      </trkpt>
      <trkpt lat="48.89507" lon="7.40446">
        <ele>314</ele>
        <time>2021-08-08T05:18:59Z</time>
      </trkpt>
      <trkpt lat="48.89507" lon="7.40446">
        <ele>314</ele>
        <time>2021-08-08T05:19:00Z</time>
      </trkpt>
      <trkpt lat="48.8951" lon="7.40458">
        <ele>314</ele>
        <time>2021-08-08T05:19:01Z</time>
      </trkpt>
      <trkpt lat="48.8951" lon="7.40458">
        <ele>314</ele>
        <time>2021-08-08T05:19:02Z</time>
      </trkpt>
      <trkpt lat="48.89512" lon="7.4047">
        <ele>314</ele>
        <time>2021-08-08T05:19:03Z</time>
      </trkpt>
      <trkpt lat="48.89512" lon="7.4047">
        <ele>314</ele>
        <time>2021-08-08T05:19:04Z</time>
      </trkpt>
      <trkpt lat="48.89515" lon="7.40483">
        <ele>314</ele>
        <time>2021-08-08T05:19:05Z</time>
      </trkpt>
      <trkpt lat="48.89515" lon="7.40483">
        <ele>314</ele>
        <time>2021-08-08T05:19:06Z</time>
      </trkpt>
      <trkpt lat="48.89518" lon="7.40493">
        <ele>315</ele>
        <time>2021-08-08T05:19:07Z</time>
      </trkpt>
      <trkpt lat="48.89518" lon="7.40493">
        <ele>315</ele>
        <time>2021-08-08T05:19:08Z</time>
      </trkpt>
      <trkpt lat="48.89519" lon="7.40502">
        <ele>315</ele>
        <time>2021-08-08T05:19:09Z</time>
      </trkpt>
      <trkpt lat="48.89519" lon="7.40502">
        <ele>315</ele>
        <time>2021-08-08T05:19:10Z</time>
      </trkpt>
      <trkpt lat="48.8952" lon="7.40513">
        <ele>315</ele>
        <time>2021-08-08T05:19:11Z</time>
      </trkpt>
      <trkpt lat="48.89521" lon="7.40517">
        <ele>315</ele>
        <time>2021-08-08T05:19:12Z</time>
      </trkpt>
      <trkpt lat="48.89521" lon="7.40517">
        <ele>315</ele>
        <time>2021-08-08T05:19:13Z</time>
      </trkpt>
      <trkpt lat="48.89523" lon="7.40529">
        <ele>315</ele>
        <time>2021-08-08T05:19:14Z</time>
      </trkpt>
      <trkpt lat="48.89524" lon="7.40535">
        <ele>315</ele>
        <time>2021-08-08T05:19:15Z</time>
      </trkpt>
      <trkpt lat="48.89524" lon="7.40535">
        <ele>315</ele>
        <time>2021-08-08T05:19:16Z</time>
      </trkpt>
      <trkpt lat="48.89528" lon="7.40547">
        <ele>315</ele>
        <time>2021-08-08T05:19:17Z</time>
      </trkpt>
      <trkpt lat="48.89529" lon="7.40552">
        <ele>315</ele>
        <time>2021-08-08T05:19:18Z</time>
      </trkpt>
      <trkpt lat="48.89529" lon="7.40552">
        <ele>315</ele>
        <time>2021-08-08T05:19:19Z</time>
      </trkpt>
      <trkpt lat="48.89533" lon="7.40562">
        <ele>315</ele>
        <time>2021-08-08T05:19:20Z</time>
      </trkpt>
      <trkpt lat="48.89534" lon="7.40566">
        <ele>315</ele>
        <time>2021-08-08T05:19:21Z</time>
      </trkpt>
      <trkpt lat="48.89534" lon="7.40566">
        <ele>315</ele>
        <time>2021-08-08T05:19:22Z</time>
      </trkpt>
      <trkpt lat="48.89537" lon="7.40572">
        <ele>316</ele>
        <time>2021-08-08T05:19:23Z</time>
      </trkpt>
      <trkpt lat="48.89537" lon="7.40576">
        <ele>316</ele>
        <time>2021-08-08T05:19:24Z</time>
      </trkpt>
      <trkpt lat="48.89537" lon="7.40576">
        <ele>316</ele>
        <time>2021-08-08T05:19:25Z</time>
      </trkpt>
      <trkpt lat="48.89539" lon="7.40584">
        <ele>316</ele>
        <time>2021-08-08T05:19:26Z</time>
      </trkpt>
      <trkpt lat="48.89539" lon="7.40584">
        <ele>316</ele>
        <time>2021-08-08T05:19:27Z</time>
      </trkpt>
      <trkpt lat="48.89539" lon="7.40596">
        <ele>316</ele>
        <time>2021-08-08T05:19:28Z</time>
      </trkpt>
      <trkpt lat="48.89539" lon="7.40596">
        <ele>316</ele>
        <time>2021-08-08T05:19:29Z</time>
      </trkpt>
      <trkpt lat="48.89542" lon="7.40603">
        <ele>316</ele>
        <time>2021-08-08T05:19:30Z</time>
      </trkpt>
      <trkpt lat="48.89544" lon="7.40609">
        <ele>316</ele>
        <time>2021-08-08T05:19:31Z</time>
      </trkpt>
      <trkpt lat="48.89544" lon="7.40609">
        <ele>316</ele>
        <time>2021-08-08T05:19:32Z</time>
      </trkpt>
      <trkpt lat="48.89548" lon="7.40619">
        <ele>316</ele>
        <time>2021-08-08T05:19:33Z</time>
      </trkpt>
      <trkpt lat="48.89547" lon="7.40624">
        <ele>316</ele>
        <time>2021-08-08T05:19:34Z</time>
      </trkpt>
      <trkpt lat="48.89547" lon="7.40624">
        <ele>316</ele>
        <time>2021-08-08T05:19:35Z</time>
      </trkpt>
      <trkpt lat="48.8955" lon="7.40634">
        <ele>316</ele>
        <time>2021-08-08T05:19:36Z</time>
      </trkpt>
      <trkpt lat="48.89551" lon="7.40639">
        <ele>316</ele>
        <time>2021-08-08T05:19:37Z</time>
      </trkpt>
      <trkpt lat="48.89551" lon="7.40639">
        <ele>316</ele>
        <time>2021-08-08T05:19:38Z</time>
      </trkpt>
      <trkpt lat="48.89555" lon="7.40649">
        <ele>316</ele>
        <time>2021-08-08T05:19:39Z</time>
      </trkpt>
      <trkpt lat="48.89555" lon="7.40649">
        <ele>316</ele>
        <time>2021-08-08T05:19:40Z</time>
      </trkpt>
      <trkpt lat="48.89561" lon="7.40662">
        <ele>316</ele>
        <time>2021-08-08T05:19:41Z</time>
      </trkpt>
      <trkpt lat="48.89561" lon="7.40662">
        <ele>316</ele>
        <time>2021-08-08T05:19:42Z</time>
      </trkpt>
      <trkpt lat="48.89565" lon="7.40671">
        <ele>316</ele>
        <time>2021-08-08T05:19:43Z</time>
      </trkpt>
      <trkpt lat="48.89565" lon="7.40671">
        <ele>316</ele>
        <time>2021-08-08T05:19:44Z</time>
      </trkpt>
      <trkpt lat="48.89571" lon="7.40683">
        <ele>316</ele>
        <time>2021-08-08T05:19:45Z</time>
      </trkpt>
      <trkpt lat="48.89571" lon="7.40683">
        <ele>316</ele>
        <time>2021-08-08T05:19:46Z</time>
      </trkpt>
      <trkpt lat="48.89576" lon="7.40692">
        <ele>316</ele>
        <time>2021-08-08T05:19:47Z</time>
      </trkpt>
      <trkpt lat="48.89577" lon="7.40696">
        <ele>316</ele>
        <time>2021-08-08T05:19:48Z</time>
      </trkpt>
      <trkpt lat="48.89577" lon="7.40696">
        <ele>316</ele>
        <time>2021-08-08T05:19:49Z</time>
      </trkpt>
      <trkpt lat="48.89583" lon="7.40707">
        <ele>316</ele>
        <time>2021-08-08T05:19:50Z</time>
      </trkpt>
      <trkpt lat="48.89585" lon="7.40712">
        <ele>317</ele>
        <time>2021-08-08T05:19:51Z</time>
      </trkpt>
      <trkpt lat="48.89585" lon="7.40712">
        <ele>317</ele>
        <time>2021-08-08T05:19:52Z</time>
      </trkpt>
      <trkpt lat="48.8959" lon="7.40722">
        <ele>317</ele>
        <time>2021-08-08T05:19:53Z</time>
      </trkpt>
      <trkpt lat="48.8959" lon="7.40722">
        <ele>317</ele>
        <time>2021-08-08T05:19:54Z</time>
      </trkpt>
      <trkpt lat="48.89592" lon="7.40729">
        <ele>317</ele>
        <time>2021-08-08T05:19:55Z</time>
      </trkpt>
      <trkpt lat="48.89592" lon="7.40729">
        <ele>317</ele>
        <time>2021-08-08T05:19:56Z</time>
      </trkpt>
      <trkpt lat="48.89596" lon="7.40737">
        <ele>317</ele>
        <time>2021-08-08T05:19:57Z</time>
      </trkpt>
      <trkpt lat="48.89597" lon="7.40741">
        <ele>317</ele>
        <time>2021-08-08T05:19:58Z</time>
      </trkpt>
      <trkpt lat="48.89597" lon="7.40741">
        <ele>318</ele>
        <time>2021-08-08T05:19:59Z</time>
      </trkpt>
      <trkpt lat="48.896" lon="7.40753">
        <ele>318</ele>
        <time>2021-08-08T05:20:00Z</time>
      </trkpt>
      <trkpt lat="48.89601" lon="7.4076">
        <ele>318</ele>
        <time>2021-08-08T05:20:01Z</time>
      </trkpt>
      <trkpt lat="48.89601" lon="7.4076">
        <ele>318</ele>
        <time>2021-08-08T05:20:02Z</time>
      </trkpt>
      <trkpt lat="48.89598" lon="7.40768">
        <ele>319</ele>
        <time>2021-08-08T05:20:03Z</time>
      </trkpt>
      <trkpt lat="48.89598" lon="7.40768">
        <ele>319</ele>
        <time>2021-08-08T05:20:04Z</time>
      </trkpt>
      <trkpt lat="48.89598" lon="7.40776">
        <ele>319</ele>
        <time>2021-08-08T05:20:05Z</time>
      </trkpt>
      <trkpt lat="48.89598" lon="7.40776">
        <ele>319</ele>
        <time>2021-08-08T05:20:06Z</time>
      </trkpt>
      <trkpt lat="48.89598" lon="7.4078">
        <ele>320</ele>
        <time>2021-08-08T05:20:07Z</time>
      </trkpt>
      <trkpt lat="48.89598" lon="7.4078">
        <ele>320</ele>
        <time>2021-08-08T05:20:08Z</time>
      </trkpt>
      <trkpt lat="48.89599" lon="7.40786">
        <ele>320</ele>
        <time>2021-08-08T05:20:09Z</time>
      </trkpt>
      <trkpt lat="48.89599" lon="7.40786">
        <ele>320</ele>
        <time>2021-08-08T05:20:10Z</time>
      </trkpt>
      <trkpt lat="48.896" lon="7.40791">
        <ele>321</ele>
        <time>2021-08-08T05:20:11Z</time>
      </trkpt>
      <trkpt lat="48.89601" lon="7.40794">
        <ele>321</ele>
        <time>2021-08-08T05:20:12Z</time>
      </trkpt>
      <trkpt lat="48.89601" lon="7.40797">
        <ele>321</ele>
        <time>2021-08-08T05:20:13Z</time>
      </trkpt>
      <trkpt lat="48.89601" lon="7.40797">
        <ele>321</ele>
        <time>2021-08-08T05:20:14Z</time>
      </trkpt>
      <trkpt lat="48.89603" lon="7.40803">
        <ele>321</ele>
        <time>2021-08-08T05:20:15Z</time>
      </trkpt>
      <trkpt lat="48.89603" lon="7.40803">
        <ele>321</ele>
        <time>2021-08-08T05:20:16Z</time>
      </trkpt>
      <trkpt lat="48.89603" lon="7.40807">
        <ele>321</ele>
        <time>2021-08-08T05:20:17Z</time>
      </trkpt>
      <trkpt lat="48.89604" lon="7.4081">
        <ele>321</ele>
        <time>2021-08-08T05:20:18Z</time>
      </trkpt>
      <trkpt lat="48.89604" lon="7.4081">
        <ele>322</ele>
        <time>2021-08-08T05:20:19Z</time>
      </trkpt>
      <trkpt lat="48.89604" lon="7.40814">
        <ele>322</ele>
        <time>2021-08-08T05:20:20Z</time>
      </trkpt>
      <trkpt lat="48.89604" lon="7.40816">
        <ele>322</ele>
        <time>2021-08-08T05:20:21Z</time>
      </trkpt>
      <trkpt lat="48.89604" lon="7.40816">
        <ele>322</ele>
        <time>2021-08-08T05:20:22Z</time>
      </trkpt>
      <trkpt lat="48.89606" lon="7.40821">
        <ele>323</ele>
        <time>2021-08-08T05:20:23Z</time>
      </trkpt>
      <trkpt lat="48.89606" lon="7.40821">
        <ele>323</ele>
        <time>2021-08-08T05:20:24Z</time>
      </trkpt>
      <trkpt lat="48.89607" lon="7.40827">
        <ele>323</ele>
        <time>2021-08-08T05:20:25Z</time>
      </trkpt>
      <trkpt lat="48.89607" lon="7.40827">
        <ele>323</ele>
        <time>2021-08-08T05:20:26Z</time>
      </trkpt>
      <trkpt lat="48.89607" lon="7.40831">
        <ele>323</ele>
        <time>2021-08-08T05:20:27Z</time>
      </trkpt>
      <trkpt lat="48.89607" lon="7.40831">
        <ele>323</ele>
        <time>2021-08-08T05:20:28Z</time>
      </trkpt>
      <trkpt lat="48.89608" lon="7.40837">
        <ele>324</ele>
        <time>2021-08-08T05:20:29Z</time>
      </trkpt>
      <trkpt lat="48.89608" lon="7.40837">
        <ele>324</ele>
        <time>2021-08-08T05:20:30Z</time>
      </trkpt>
      <trkpt lat="48.8961" lon="7.4084">
        <ele>324</ele>
        <time>2021-08-08T05:20:31Z</time>
      </trkpt>
      <trkpt lat="48.8961" lon="7.4084">
        <ele>324</ele>
        <time>2021-08-08T05:20:32Z</time>
      </trkpt>
      <trkpt lat="48.8961" lon="7.40844">
        <ele>324</ele>
        <time>2021-08-08T05:20:33Z</time>
      </trkpt>
      <trkpt lat="48.89611" lon="7.40846">
        <ele>324</ele>
        <time>2021-08-08T05:20:34Z</time>
      </trkpt>
      <trkpt lat="48.89611" lon="7.40846">
        <ele>325</ele>
        <time>2021-08-08T05:20:35Z</time>
      </trkpt>
      <trkpt lat="48.89613" lon="7.4085">
        <ele>325</ele>
        <time>2021-08-08T05:20:36Z</time>
      </trkpt>
      <trkpt lat="48.89614" lon="7.40853">
        <ele>325</ele>
        <time>2021-08-08T05:20:37Z</time>
      </trkpt>
      <trkpt lat="48.89614" lon="7.40853">
        <ele>325</ele>
        <time>2021-08-08T05:20:38Z</time>
      </trkpt>
      <trkpt lat="48.89615" lon="7.40857">
        <ele>325</ele>
        <time>2021-08-08T05:20:39Z</time>
      </trkpt>
      <trkpt lat="48.89615" lon="7.40857">
        <ele>325</ele>
        <time>2021-08-08T05:20:40Z</time>
      </trkpt>
      <trkpt lat="48.89616" lon="7.40862">
        <ele>325</ele>
        <time>2021-08-08T05:20:41Z</time>
      </trkpt>
      <trkpt lat="48.89616" lon="7.40862">
        <ele>325</ele>
        <time>2021-08-08T05:20:42Z</time>
      </trkpt>
      <trkpt lat="48.89617" lon="7.40867">
        <ele>325</ele>
        <time>2021-08-08T05:20:43Z</time>
      </trkpt>
      <trkpt lat="48.89617" lon="7.40867">
        <ele>325</ele>
        <time>2021-08-08T05:20:44Z</time>
      </trkpt>
      <trkpt lat="48.89618" lon="7.40873">
        <ele>325</ele>
        <time>2021-08-08T05:20:45Z</time>
      </trkpt>
      <trkpt lat="48.89618" lon="7.40873">
        <ele>325</ele>
        <time>2021-08-08T05:20:46Z</time>
      </trkpt>
      <trkpt lat="48.89618" lon="7.4088">
        <ele>325</ele>
        <time>2021-08-08T05:20:47Z</time>
      </trkpt>
      <trkpt lat="48.89618" lon="7.4088">
        <ele>325</ele>
        <time>2021-08-08T05:20:48Z</time>
      </trkpt>
      <trkpt lat="48.89619" lon="7.40887">
        <ele>326</ele>
        <time>2021-08-08T05:20:49Z</time>
      </trkpt>
      <trkpt lat="48.8962" lon="7.4089">
        <ele>326</ele>
        <time>2021-08-08T05:20:50Z</time>
      </trkpt>
      <trkpt lat="48.8962" lon="7.40894">
        <ele>326</ele>
        <time>2021-08-08T05:20:51Z</time>
      </trkpt>
      <trkpt lat="48.8962" lon="7.40894">
        <ele>326</ele>
        <time>2021-08-08T05:20:52Z</time>
      </trkpt>
      <trkpt lat="48.8962" lon="7.40903">
        <ele>326</ele>
        <time>2021-08-08T05:20:53Z</time>
      </trkpt>
      <trkpt lat="48.8962" lon="7.40903">
        <ele>326</ele>
        <time>2021-08-08T05:20:54Z</time>
      </trkpt>
      <trkpt lat="48.89621" lon="7.40914">
        <ele>325</ele>
        <time>2021-08-08T05:20:55Z</time>
      </trkpt>
      <trkpt lat="48.89621" lon="7.40914">
        <ele>325</ele>
        <time>2021-08-08T05:20:56Z</time>
      </trkpt>
      <trkpt lat="48.89622" lon="7.40926">
        <ele>325</ele>
        <time>2021-08-08T05:20:57Z</time>
      </trkpt>
      <trkpt lat="48.89622" lon="7.40926">
        <ele>325</ele>
        <time>2021-08-08T05:20:58Z</time>
      </trkpt>
      <trkpt lat="48.89622" lon="7.40935">
        <ele>324</ele>
        <time>2021-08-08T05:20:59Z</time>
      </trkpt>
      <trkpt lat="48.89622" lon="7.40935">
        <ele>324</ele>
        <time>2021-08-08T05:21:00Z</time>
      </trkpt>
      <trkpt lat="48.89622" lon="7.40942">
        <ele>323</ele>
        <time>2021-08-08T05:21:01Z</time>
      </trkpt>
      <trkpt lat="48.89622" lon="7.40942">
        <ele>323</ele>
        <time>2021-08-08T05:21:02Z</time>
      </trkpt>
      <trkpt lat="48.8962" lon="7.40951">
        <ele>322</ele>
        <time>2021-08-08T05:21:03Z</time>
      </trkpt>
      <trkpt lat="48.8962" lon="7.40951">
        <ele>322</ele>
        <time>2021-08-08T05:21:04Z</time>
      </trkpt>
      <trkpt lat="48.8962" lon="7.40969">
        <ele>321</ele>
        <time>2021-08-08T05:21:05Z</time>
      </trkpt>
      <trkpt lat="48.8962" lon="7.40969">
        <ele>321</ele>
        <time>2021-08-08T05:21:06Z</time>
      </trkpt>
      <trkpt lat="48.89622" lon="7.40983">
        <ele>320</ele>
        <time>2021-08-08T05:21:07Z</time>
      </trkpt>
      <trkpt lat="48.89622" lon="7.40983">
        <ele>320</ele>
        <time>2021-08-08T05:21:08Z</time>
      </trkpt>
      <trkpt lat="48.89623" lon="7.40993">
        <ele>320</ele>
        <time>2021-08-08T05:21:09Z</time>
      </trkpt>
      <trkpt lat="48.89623" lon="7.40993">
        <ele>320</ele>
        <time>2021-08-08T05:21:10Z</time>
      </trkpt>
      <trkpt lat="48.89624" lon="7.41">
        <ele>320</ele>
        <time>2021-08-08T05:21:11Z</time>
      </trkpt>
      <trkpt lat="48.89624" lon="7.41">
        <ele>320</ele>
        <time>2021-08-08T05:21:12Z</time>
      </trkpt>
      <trkpt lat="48.89623" lon="7.41006">
        <ele>320</ele>
        <time>2021-08-08T05:21:13Z</time>
      </trkpt>
      <trkpt lat="48.89623" lon="7.41006">
        <ele>320</ele>
        <time>2021-08-08T05:21:14Z</time>
      </trkpt>
      <trkpt lat="48.89624" lon="7.41013">
        <ele>320</ele>
        <time>2021-08-08T05:21:15Z</time>
      </trkpt>
      <trkpt lat="48.89624" lon="7.41013">
        <ele>320</ele>
        <time>2021-08-08T05:21:16Z</time>
      </trkpt>
      <trkpt lat="48.89623" lon="7.41021">
        <ele>320</ele>
        <time>2021-08-08T05:21:17Z</time>
      </trkpt>
      <trkpt lat="48.89622" lon="7.41024">
        <ele>320</ele>
        <time>2021-08-08T05:21:18Z</time>
      </trkpt>
      <trkpt lat="48.89622" lon="7.41024">
        <ele>320</ele>
        <time>2021-08-08T05:21:19Z</time>
      </trkpt>
      <trkpt lat="48.89622" lon="7.41032">
        <ele>320</ele>
        <time>2021-08-08T05:21:20Z</time>
      </trkpt>
      <trkpt lat="48.89622" lon="7.41032">
        <ele>320</ele>
        <time>2021-08-08T05:21:21Z</time>
      </trkpt>
      <trkpt lat="48.89622" lon="7.4104">
        <ele>320</ele>
        <time>2021-08-08T05:21:22Z</time>
      </trkpt>
      <trkpt lat="48.89622" lon="7.4104">
        <ele>320</ele>
        <time>2021-08-08T05:21:23Z</time>
      </trkpt>
      <trkpt lat="48.89621" lon="7.41047">
        <ele>320</ele>
        <time>2021-08-08T05:21:24Z</time>
      </trkpt>
      <trkpt lat="48.8962" lon="7.41052">
        <ele>320</ele>
        <time>2021-08-08T05:21:25Z</time>
      </trkpt>
      <trkpt lat="48.8962" lon="7.41056">
        <ele>320</ele>
        <time>2021-08-08T05:21:26Z</time>
      </trkpt>
      <trkpt lat="48.8962" lon="7.4106">
        <ele>320</ele>
        <time>2021-08-08T05:21:27Z</time>
      </trkpt>
      <trkpt lat="48.8962" lon="7.4106">
        <ele>320</ele>
        <time>2021-08-08T05:21:28Z</time>
      </trkpt>
      <trkpt lat="48.89621" lon="7.41072">
        <ele>321</ele>
        <time>2021-08-08T05:21:29Z</time>
      </trkpt>
      <trkpt lat="48.89621" lon="7.41072">
        <ele>321</ele>
        <time>2021-08-08T05:21:30Z</time>
      </trkpt>
      <trkpt lat="48.89618" lon="7.41082">
        <ele>321</ele>
        <time>2021-08-08T05:21:31Z</time>
      </trkpt>
      <trkpt lat="48.89618" lon="7.41082">
        <ele>321</ele>
        <time>2021-08-08T05:21:32Z</time>
      </trkpt>
      <trkpt lat="48.89614" lon="7.41091">
        <ele>321</ele>
        <time>2021-08-08T05:21:33Z</time>
      </trkpt>
      <trkpt lat="48.89614" lon="7.41091">
        <ele>321</ele>
        <time>2021-08-08T05:21:34Z</time>
      </trkpt>
      <trkpt lat="48.89613" lon="7.411">
        <ele>322</ele>
        <time>2021-08-08T05:21:35Z</time>
      </trkpt>
      <trkpt lat="48.89613" lon="7.411">
        <ele>322</ele>
        <time>2021-08-08T05:21:36Z</time>
      </trkpt>
      <trkpt lat="48.89614" lon="7.41106">
        <ele>322</ele>
        <time>2021-08-08T05:21:37Z</time>
      </trkpt>
      <trkpt lat="48.89614" lon="7.41106">
        <ele>322</ele>
        <time>2021-08-08T05:21:38Z</time>
      </trkpt>
      <trkpt lat="48.89612" lon="7.41113">
        <ele>322</ele>
        <time>2021-08-08T05:21:39Z</time>
      </trkpt>
      <trkpt lat="48.89612" lon="7.41113">
        <ele>322</ele>
        <time>2021-08-08T05:21:40Z</time>
      </trkpt>
      <trkpt lat="48.89607" lon="7.4112">
        <ele>322</ele>
        <time>2021-08-08T05:21:41Z</time>
      </trkpt>
      <trkpt lat="48.89607" lon="7.4112">
        <ele>322</ele>
        <time>2021-08-08T05:21:42Z</time>
      </trkpt>
      <trkpt lat="48.89604" lon="7.41133">
        <ele>322</ele>
        <time>2021-08-08T05:21:43Z</time>
      </trkpt>
      <trkpt lat="48.89603" lon="7.41138">
        <ele>322</ele>
        <time>2021-08-08T05:21:44Z</time>
      </trkpt>
      <trkpt lat="48.89601" lon="7.41143">
        <ele>322</ele>
        <time>2021-08-08T05:21:45Z</time>
      </trkpt>
      <trkpt lat="48.89601" lon="7.41143">
        <ele>322</ele>
        <time>2021-08-08T05:21:46Z</time>
      </trkpt>
      <trkpt lat="48.89597" lon="7.41156">
        <ele>322</ele>
        <time>2021-08-08T05:21:47Z</time>
      </trkpt>
      <trkpt lat="48.89597" lon="7.41156">
        <ele>322</ele>
        <time>2021-08-08T05:21:48Z</time>
      </trkpt>
      <trkpt lat="48.89595" lon="7.41169">
        <ele>322</ele>
        <time>2021-08-08T05:21:49Z</time>
      </trkpt>
      <trkpt lat="48.89593" lon="7.41175">
        <ele>322</ele>
        <time>2021-08-08T05:21:50Z</time>
      </trkpt>
      <trkpt lat="48.89593" lon="7.41175">
        <ele>322</ele>
        <time>2021-08-08T05:21:51Z</time>
      </trkpt>
      <trkpt lat="48.89592" lon="7.41186">
        <ele>322</ele>
        <time>2021-08-08T05:21:52Z</time>
      </trkpt>
      <trkpt lat="48.89591" lon="7.41191">
        <ele>322</ele>
        <time>2021-08-08T05:21:53Z</time>
      </trkpt>
      <trkpt lat="48.89591" lon="7.41191">
        <ele>322</ele>
        <time>2021-08-08T05:21:54Z</time>
      </trkpt>
      <trkpt lat="48.89586" lon="7.41202">
        <ele>322</ele>
        <time>2021-08-08T05:21:55Z</time>
      </trkpt>
      <trkpt lat="48.89585" lon="7.41206">
        <ele>322</ele>
        <time>2021-08-08T05:21:56Z</time>
      </trkpt>
      <trkpt lat="48.89583" lon="7.4121">
        <ele>322</ele>
        <time>2021-08-08T05:21:57Z</time>
      </trkpt>
      <trkpt lat="48.89583" lon="7.4121">
        <ele>322</ele>
        <time>2021-08-08T05:21:58Z</time>
      </trkpt>
      <trkpt lat="48.8958" lon="7.41219">
        <ele>322</ele>
        <time>2021-08-08T05:21:59Z</time>
      </trkpt>
      <trkpt lat="48.8958" lon="7.41219">
        <ele>322</ele>
        <time>2021-08-08T05:22:00Z</time>
      </trkpt>
      <trkpt lat="48.89577" lon="7.41228">
        <ele>322</ele>
        <time>2021-08-08T05:22:01Z</time>
      </trkpt>
      <trkpt lat="48.89577" lon="7.41228">
        <ele>322</ele>
        <time>2021-08-08T05:22:02Z</time>
      </trkpt>
      <trkpt lat="48.89575" lon="7.41239">
        <ele>322</ele>
        <time>2021-08-08T05:22:03Z</time>
      </trkpt>
      <trkpt lat="48.89574" lon="7.41246">
        <ele>322</ele>
        <time>2021-08-08T05:22:04Z</time>
      </trkpt>
      <trkpt lat="48.89574" lon="7.41246">
        <ele>322</ele>
        <time>2021-08-08T05:22:05Z</time>
      </trkpt>
      <trkpt lat="48.89571" lon="7.41258">
        <ele>322</ele>
        <time>2021-08-08T05:22:06Z</time>
      </trkpt>
      <trkpt lat="48.89571" lon="7.41258">
        <ele>322</ele>
        <time>2021-08-08T05:22:07Z</time>
      </trkpt>
      <trkpt lat="48.89571" lon="7.4127">
        <ele>322</ele>
        <time>2021-08-08T05:22:08Z</time>
      </trkpt>
      <trkpt lat="48.8957" lon="7.41276">
        <ele>322</ele>
        <time>2021-08-08T05:22:09Z</time>
      </trkpt>
      <trkpt lat="48.8957" lon="7.41276">
        <ele>322</ele>
        <time>2021-08-08T05:22:10Z</time>
      </trkpt>
      <trkpt lat="48.89567" lon="7.41284">
        <ele>322</ele>
        <time>2021-08-08T05:22:11Z</time>
      </trkpt>
      <trkpt lat="48.89567" lon="7.41284">
        <ele>322</ele>
        <time>2021-08-08T05:22:12Z</time>
      </trkpt>
      <trkpt lat="48.89566" lon="7.41292">
        <ele>322</ele>
        <time>2021-08-08T05:22:13Z</time>
      </trkpt>
      <trkpt lat="48.89566" lon="7.41292">
        <ele>321</ele>
        <time>2021-08-08T05:22:14Z</time>
      </trkpt>
      <trkpt lat="48.89564" lon="7.41303">
        <ele>321</ele>
        <time>2021-08-08T05:22:15Z</time>
      </trkpt>
      <trkpt lat="48.89564" lon="7.41303">
        <ele>319</ele>
        <time>2021-08-08T05:22:16Z</time>
      </trkpt>
      <trkpt lat="48.89562" lon="7.41311">
        <ele>319</ele>
        <time>2021-08-08T05:22:17Z</time>
      </trkpt>
      <trkpt lat="48.89562" lon="7.41311">
        <ele>318</ele>
        <time>2021-08-08T05:22:18Z</time>
      </trkpt>
      <trkpt lat="48.89559" lon="7.41319">
        <ele>318</ele>
        <time>2021-08-08T05:22:19Z</time>
      </trkpt>
      <trkpt lat="48.89559" lon="7.41319">
        <ele>315</ele>
        <time>2021-08-08T05:22:20Z</time>
      </trkpt>
      <trkpt lat="48.89552" lon="7.41332">
        <ele>315</ele>
        <time>2021-08-08T05:22:21Z</time>
      </trkpt>
      <trkpt lat="48.89552" lon="7.41332">
        <ele>314</ele>
        <time>2021-08-08T05:22:22Z</time>
      </trkpt>
      <trkpt lat="48.89547" lon="7.41348">
        <ele>314</ele>
        <time>2021-08-08T05:22:23Z</time>
      </trkpt>
      <trkpt lat="48.89547" lon="7.41348">
        <ele>312</ele>
        <time>2021-08-08T05:22:24Z</time>
      </trkpt>
      <trkpt lat="48.8954" lon="7.41365">
        <ele>312</ele>
        <time>2021-08-08T05:22:25Z</time>
      </trkpt>
      <trkpt lat="48.89537" lon="7.41376">
        <ele>311</ele>
        <time>2021-08-08T05:22:26Z</time>
      </trkpt>
      <trkpt lat="48.89535" lon="7.41385">
        <ele>311</ele>
        <time>2021-08-08T05:22:27Z</time>
      </trkpt>
      <trkpt lat="48.89535" lon="7.41385">
        <ele>310</ele>
        <time>2021-08-08T05:22:28Z</time>
      </trkpt>
      <trkpt lat="48.89529" lon="7.41405">
        <ele>310</ele>
        <time>2021-08-08T05:22:29Z</time>
      </trkpt>
      <trkpt lat="48.89523" lon="7.41416">
        <ele>308</ele>
        <time>2021-08-08T05:22:30Z</time>
      </trkpt>
      <trkpt lat="48.89518" lon="7.41425">
        <ele>308</ele>
        <time>2021-08-08T05:22:31Z</time>
      </trkpt>
      <trkpt lat="48.89518" lon="7.41425">
        <ele>307</ele>
        <time>2021-08-08T05:22:32Z</time>
      </trkpt>
      <trkpt lat="48.89509" lon="7.41443">
        <ele>307</ele>
        <time>2021-08-08T05:22:33Z</time>
      </trkpt>
      <trkpt lat="48.89509" lon="7.41443">
        <ele>307</ele>
        <time>2021-08-08T05:22:34Z</time>
      </trkpt>
      <trkpt lat="48.89503" lon="7.41457">
        <ele>307</ele>
        <time>2021-08-08T05:22:35Z</time>
      </trkpt>
      <trkpt lat="48.89499" lon="7.41466">
        <ele>305</ele>
        <time>2021-08-08T05:22:36Z</time>
      </trkpt>
      <trkpt lat="48.89499" lon="7.41466">
        <ele>305</ele>
        <time>2021-08-08T05:22:37Z</time>
      </trkpt>
      <trkpt lat="48.89494" lon="7.41487">
        <ele>305</ele>
        <time>2021-08-08T05:22:38Z</time>
      </trkpt>
      <trkpt lat="48.89494" lon="7.41487">
        <ele>304</ele>
        <time>2021-08-08T05:22:39Z</time>
      </trkpt>
      <trkpt lat="48.89491" lon="7.41499">
        <ele>304</ele>
        <time>2021-08-08T05:22:40Z</time>
      </trkpt>
      <trkpt lat="48.89491" lon="7.41499">
        <ele>302</ele>
        <time>2021-08-08T05:22:41Z</time>
      </trkpt>
      <trkpt lat="48.89488" lon="7.41511">
        <ele>302</ele>
        <time>2021-08-08T05:22:42Z</time>
      </trkpt>
      <trkpt lat="48.89488" lon="7.41511">
        <ele>301</ele>
        <time>2021-08-08T05:22:43Z</time>
      </trkpt>
      <trkpt lat="48.89484" lon="7.4152">
        <ele>301</ele>
        <time>2021-08-08T05:22:44Z</time>
      </trkpt>
      <trkpt lat="48.89483" lon="7.41524">
        <ele>300</ele>
        <time>2021-08-08T05:22:45Z</time>
      </trkpt>
      <trkpt lat="48.89483" lon="7.41524">
        <ele>300</ele>
        <time>2021-08-08T05:22:46Z</time>
      </trkpt>
      <trkpt lat="48.8948" lon="7.41535">
        <ele>299</ele>
        <time>2021-08-08T05:22:47Z</time>
      </trkpt>
      <trkpt lat="48.89479" lon="7.41541">
        <ele>299</ele>
        <time>2021-08-08T05:22:48Z</time>
      </trkpt>
      <trkpt lat="48.89477" lon="7.41547">
        <ele>298</ele>
        <time>2021-08-08T05:22:49Z</time>
      </trkpt>
      <trkpt lat="48.89477" lon="7.41547">
        <ele>298</ele>
        <time>2021-08-08T05:22:50Z</time>
      </trkpt>
      <trkpt lat="48.89473" lon="7.41556">
        <ele>297</ele>
        <time>2021-08-08T05:22:51Z</time>
      </trkpt>
      <trkpt lat="48.89473" lon="7.41556">
        <ele>297</ele>
        <time>2021-08-08T05:22:52Z</time>
      </trkpt>
      <trkpt lat="48.89467" lon="7.41565">
        <ele>296</ele>
        <time>2021-08-08T05:22:53Z</time>
      </trkpt>
      <trkpt lat="48.89467" lon="7.41565">
        <ele>296</ele>
        <time>2021-08-08T05:22:54Z</time>
      </trkpt>
      <trkpt lat="48.89462" lon="7.41581">
        <ele>295</ele>
        <time>2021-08-08T05:22:55Z</time>
      </trkpt>
      <trkpt lat="48.8946" lon="7.41586">
        <ele>295</ele>
        <time>2021-08-08T05:22:56Z</time>
      </trkpt>
      <trkpt lat="48.89457" lon="7.41591">
        <ele>293</ele>
        <time>2021-08-08T05:22:57Z</time>
      </trkpt>
      <trkpt lat="48.89457" lon="7.41591">
        <ele>293</ele>
        <time>2021-08-08T05:22:58Z</time>
      </trkpt>
      <trkpt lat="48.89453" lon="7.41604">
        <ele>292</ele>
        <time>2021-08-08T05:22:59Z</time>
      </trkpt>
      <trkpt lat="48.89451" lon="7.41611">
        <ele>292</ele>
        <time>2021-08-08T05:23:00Z</time>
      </trkpt>
      <trkpt lat="48.89451" lon="7.41611">
        <ele>292</ele>
        <time>2021-08-08T05:23:01Z</time>
      </trkpt>
      <trkpt lat="48.89445" lon="7.4163">
        <ele>291</ele>
        <time>2021-08-08T05:23:02Z</time>
      </trkpt>
      <trkpt lat="48.89444" lon="7.4164">
        <ele>291</ele>
        <time>2021-08-08T05:23:03Z</time>
      </trkpt>
      <trkpt lat="48.89444" lon="7.4164">
        <ele>290</ele>
        <time>2021-08-08T05:23:04Z</time>
      </trkpt>
      <trkpt lat="48.89441" lon="7.41656">
        <ele>290</ele>
        <time>2021-08-08T05:23:05Z</time>
      </trkpt>
      <trkpt lat="48.89441" lon="7.41656">
        <ele>288</ele>
        <time>2021-08-08T05:23:06Z</time>
      </trkpt>
      <trkpt lat="48.89437" lon="7.41672">
        <ele>288</ele>
        <time>2021-08-08T05:23:07Z</time>
      </trkpt>
      <trkpt lat="48.89437" lon="7.41672">
        <ele>287</ele>
        <time>2021-08-08T05:23:08Z</time>
      </trkpt>
      <trkpt lat="48.8943" lon="7.41691">
        <ele>287</ele>
        <time>2021-08-08T05:23:09Z</time>
      </trkpt>
      <trkpt lat="48.89426" lon="7.41703">
        <ele>286</ele>
        <time>2021-08-08T05:23:10Z</time>
      </trkpt>
      <trkpt lat="48.89424" lon="7.41713">
        <ele>286</ele>
        <time>2021-08-08T05:23:11Z</time>
      </trkpt>
      <trkpt lat="48.89424" lon="7.41713">
        <ele>285</ele>
        <time>2021-08-08T05:23:12Z</time>
      </trkpt>
      <trkpt lat="48.89417" lon="7.41734">
        <ele>285</ele>
        <time>2021-08-08T05:23:13Z</time>
      </trkpt>
      <trkpt lat="48.89417" lon="7.41734">
        <ele>284</ele>
        <time>2021-08-08T05:23:14Z</time>
      </trkpt>
      <trkpt lat="48.89413" lon="7.41751">
        <ele>284</ele>
        <time>2021-08-08T05:23:15Z</time>
      </trkpt>
      <trkpt lat="48.89413" lon="7.41751">
        <ele>283</ele>
        <time>2021-08-08T05:23:16Z</time>
      </trkpt>
      <trkpt lat="48.89408" lon="7.41765">
        <ele>283</ele>
        <time>2021-08-08T05:23:17Z</time>
      </trkpt>
      <trkpt lat="48.89407" lon="7.41773">
        <ele>282</ele>
        <time>2021-08-08T05:23:18Z</time>
      </trkpt>
      <trkpt lat="48.89407" lon="7.41773">
        <ele>282</ele>
        <time>2021-08-08T05:23:19Z</time>
      </trkpt>
      <trkpt lat="48.89405" lon="7.41787">
        <ele>282</ele>
        <time>2021-08-08T05:23:20Z</time>
      </trkpt>
      <trkpt lat="48.89405" lon="7.41787">
        <ele>282</ele>
        <time>2021-08-08T05:23:21Z</time>
      </trkpt>
      <trkpt lat="48.89404" lon="7.41804">
        <ele>280</ele>
        <time>2021-08-08T05:23:22Z</time>
      </trkpt>
      <trkpt lat="48.89403" lon="7.41811">
        <ele>280</ele>
        <time>2021-08-08T05:23:23Z</time>
      </trkpt>
      <trkpt lat="48.89403" lon="7.41811">
        <ele>280</ele>
        <time>2021-08-08T05:23:24Z</time>
      </trkpt>
      <trkpt lat="48.894" lon="7.41828">
        <ele>280</ele>
        <time>2021-08-08T05:23:25Z</time>
      </trkpt>
      <trkpt lat="48.894" lon="7.41828">
        <ele>280</ele>
        <time>2021-08-08T05:23:26Z</time>
      </trkpt>
      <trkpt lat="48.89397" lon="7.41846">
        <ele>280</ele>
        <time>2021-08-08T05:23:27Z</time>
      </trkpt>
      <trkpt lat="48.89397" lon="7.41846">
        <ele>279</ele>
        <time>2021-08-08T05:23:28Z</time>
      </trkpt>
      <trkpt lat="48.89394" lon="7.41863">
        <ele>279</ele>
        <time>2021-08-08T05:23:29Z</time>
      </trkpt>
      <trkpt lat="48.89392" lon="7.41872">
        <ele>278</ele>
        <time>2021-08-08T05:23:30Z</time>
      </trkpt>
      <trkpt lat="48.89392" lon="7.41872">
        <ele>278</ele>
        <time>2021-08-08T05:23:31Z</time>
      </trkpt>
      <trkpt lat="48.89389" lon="7.4189">
        <ele>278</ele>
        <time>2021-08-08T05:23:32Z</time>
      </trkpt>
      <trkpt lat="48.89389" lon="7.41899">
        <ele>277</ele>
        <time>2021-08-08T05:23:33Z</time>
      </trkpt>
      <trkpt lat="48.89389" lon="7.41899">
        <ele>277</ele>
        <time>2021-08-08T05:23:34Z</time>
      </trkpt>
      <trkpt lat="48.89385" lon="7.41919">
        <ele>277</ele>
        <time>2021-08-08T05:23:35Z</time>
      </trkpt>
      <trkpt lat="48.89381" lon="7.41931">
        <ele>277</ele>
        <time>2021-08-08T05:23:36Z</time>
      </trkpt>
      <trkpt lat="48.89379" lon="7.41941">
        <ele>276</ele>
        <time>2021-08-08T05:23:37Z</time>
      </trkpt>
      <trkpt lat="48.89379" lon="7.41941">
        <ele>276</ele>
        <time>2021-08-08T05:23:38Z</time>
      </trkpt>
      <trkpt lat="48.89375" lon="7.41959">
        <ele>276</ele>
        <time>2021-08-08T05:23:39Z</time>
      </trkpt>
      <trkpt lat="48.89375" lon="7.41959">
        <ele>276</ele>
        <time>2021-08-08T05:23:40Z</time>
      </trkpt>
      <trkpt lat="48.8937" lon="7.41977">
        <ele>276</ele>
        <time>2021-08-08T05:23:41Z</time>
      </trkpt>
      <trkpt lat="48.8937" lon="7.41977">
        <ele>276</ele>
        <time>2021-08-08T05:23:42Z</time>
      </trkpt>
      <trkpt lat="48.89369" lon="7.41996">
        <ele>275</ele>
        <time>2021-08-08T05:23:43Z</time>
      </trkpt>
      <trkpt lat="48.89369" lon="7.41996">
        <ele>275</ele>
        <time>2021-08-08T05:23:44Z</time>
      </trkpt>
      <trkpt lat="48.89366" lon="7.42017">
        <ele>275</ele>
        <time>2021-08-08T05:23:45Z</time>
      </trkpt>
      <trkpt lat="48.89366" lon="7.42025">
        <ele>275</ele>
        <time>2021-08-08T05:23:46Z</time>
      </trkpt>
      <trkpt lat="48.89366" lon="7.42025">
        <ele>275</ele>
        <time>2021-08-08T05:23:47Z</time>
      </trkpt>
      <trkpt lat="48.89367" lon="7.42044">
        <ele>275</ele>
        <time>2021-08-08T05:23:48Z</time>
      </trkpt>
      <trkpt lat="48.89367" lon="7.42044">
        <ele>274</ele>
        <time>2021-08-08T05:23:49Z</time>
      </trkpt>
      <trkpt lat="48.89366" lon="7.42062">
        <ele>274</ele>
        <time>2021-08-08T05:23:50Z</time>
      </trkpt>
      <trkpt lat="48.89364" lon="7.42071">
        <ele>274</ele>
        <time>2021-08-08T05:23:51Z</time>
      </trkpt>
      <trkpt lat="48.89364" lon="7.42071">
        <ele>274</ele>
        <time>2021-08-08T05:23:52Z</time>
      </trkpt>
      <trkpt lat="48.89364" lon="7.42092">
        <ele>274</ele>
        <time>2021-08-08T05:23:53Z</time>
      </trkpt>
      <trkpt lat="48.89364" lon="7.42092">
        <ele>274</ele>
        <time>2021-08-08T05:23:54Z</time>
      </trkpt>
      <trkpt lat="48.89362" lon="7.42111">
        <ele>274</ele>
        <time>2021-08-08T05:23:55Z</time>
      </trkpt>
      <trkpt lat="48.89362" lon="7.42111">
        <ele>274</ele>
        <time>2021-08-08T05:23:56Z</time>
      </trkpt>
      <trkpt lat="48.8936" lon="7.42129">
        <ele>274</ele>
        <time>2021-08-08T05:23:57Z</time>
      </trkpt>
      <trkpt lat="48.8936" lon="7.42129">
        <ele>274</ele>
        <time>2021-08-08T05:23:58Z</time>
      </trkpt>
      <trkpt lat="48.89357" lon="7.42147">
        <ele>274</ele>
        <time>2021-08-08T05:23:59Z</time>
      </trkpt>
      <trkpt lat="48.89357" lon="7.42147">
        <ele>274</ele>
        <time>2021-08-08T05:24:00Z</time>
      </trkpt>
      <trkpt lat="48.89354" lon="7.42166">
        <ele>274</ele>
        <time>2021-08-08T05:24:01Z</time>
      </trkpt>
      <trkpt lat="48.89354" lon="7.42166">
        <ele>274</ele>
        <time>2021-08-08T05:24:02Z</time>
      </trkpt>
      <trkpt lat="48.89351" lon="7.42185">
        <ele>274</ele>
        <time>2021-08-08T05:24:03Z</time>
      </trkpt>
      <trkpt lat="48.89351" lon="7.42194">
        <ele>274</ele>
        <time>2021-08-08T05:24:04Z</time>
      </trkpt>
      <trkpt lat="48.89351" lon="7.42194">
        <ele>274</ele>
        <time>2021-08-08T05:24:05Z</time>
      </trkpt>
      <trkpt lat="48.89349" lon="7.42208">
        <ele>274</ele>
        <time>2021-08-08T05:24:06Z</time>
      </trkpt>
      <trkpt lat="48.89349" lon="7.42208">
        <ele>273</ele>
        <time>2021-08-08T05:24:07Z</time>
      </trkpt>
      <trkpt lat="48.89349" lon="7.42221">
        <ele>273</ele>
        <time>2021-08-08T05:24:08Z</time>
      </trkpt>
      <trkpt lat="48.89347" lon="7.42235">
        <ele>273</ele>
        <time>2021-08-08T05:24:09Z</time>
      </trkpt>
      <trkpt lat="48.89347" lon="7.42235">
        <ele>273</ele>
        <time>2021-08-08T05:24:10Z</time>
      </trkpt>
      <trkpt lat="48.89348" lon="7.42253">
        <ele>272</ele>
        <time>2021-08-08T05:24:11Z</time>
      </trkpt>
      <trkpt lat="48.89348" lon="7.42253">
        <ele>272</ele>
        <time>2021-08-08T05:24:12Z</time>
      </trkpt>
      <trkpt lat="48.89351" lon="7.42271">
        <ele>271</ele>
        <time>2021-08-08T05:24:13Z</time>
      </trkpt>
      <trkpt lat="48.89351" lon="7.42271">
        <ele>271</ele>
        <time>2021-08-08T05:24:14Z</time>
      </trkpt>
      <trkpt lat="48.89352" lon="7.42287">
        <ele>270</ele>
        <time>2021-08-08T05:24:15Z</time>
      </trkpt>
      <trkpt lat="48.89352" lon="7.42287">
        <ele>270</ele>
        <time>2021-08-08T05:24:16Z</time>
      </trkpt>
      <trkpt lat="48.89353" lon="7.42309">
        <ele>269</ele>
        <time>2021-08-08T05:24:17Z</time>
      </trkpt>
      <trkpt lat="48.89353" lon="7.42319">
        <ele>269</ele>
        <time>2021-08-08T05:24:18Z</time>
      </trkpt>
      <trkpt lat="48.89355" lon="7.42331">
        <ele>268</ele>
        <time>2021-08-08T05:24:19Z</time>
      </trkpt>
      <trkpt lat="48.89355" lon="7.42331">
        <ele>268</ele>
        <time>2021-08-08T05:24:20Z</time>
      </trkpt>
      <trkpt lat="48.89359" lon="7.42358">
        <ele>268</ele>
        <time>2021-08-08T05:24:21Z</time>
      </trkpt>
      <trkpt lat="48.8936" lon="7.4237">
        <ele>268</ele>
        <time>2021-08-08T05:24:22Z</time>
      </trkpt>
      <trkpt lat="48.8936" lon="7.4237">
        <ele>267</ele>
        <time>2021-08-08T05:24:23Z</time>
      </trkpt>
      <trkpt lat="48.89363" lon="7.42387">
        <ele>267</ele>
        <time>2021-08-08T05:24:24Z</time>
      </trkpt>
      <trkpt lat="48.89365" lon="7.42396">
        <ele>267</ele>
        <time>2021-08-08T05:24:25Z</time>
      </trkpt>
      <trkpt lat="48.89365" lon="7.42396">
        <ele>267</ele>
        <time>2021-08-08T05:24:26Z</time>
      </trkpt>
      <trkpt lat="48.89367" lon="7.42415">
        <ele>267</ele>
        <time>2021-08-08T05:24:27Z</time>
      </trkpt>
      <trkpt lat="48.89367" lon="7.42415">
        <ele>267</ele>
        <time>2021-08-08T05:24:28Z</time>
      </trkpt>
      <trkpt lat="48.89369" lon="7.42431">
        <ele>267</ele>
        <time>2021-08-08T05:24:29Z</time>
      </trkpt>
      <trkpt lat="48.89371" lon="7.42441">
        <ele>266</ele>
        <time>2021-08-08T05:24:30Z</time>
      </trkpt>
      <trkpt lat="48.8937" lon="7.42452">
        <ele>266</ele>
        <time>2021-08-08T05:24:31Z</time>
      </trkpt>
      <trkpt lat="48.8937" lon="7.42452">
        <ele>266</ele>
        <time>2021-08-08T05:24:32Z</time>
      </trkpt>
      <trkpt lat="48.89373" lon="7.42473">
        <ele>266</ele>
        <time>2021-08-08T05:24:33Z</time>
      </trkpt>
      <trkpt lat="48.89373" lon="7.42473">
        <ele>266</ele>
        <time>2021-08-08T05:24:34Z</time>
      </trkpt>
      <trkpt lat="48.89375" lon="7.42489">
        <ele>266</ele>
        <time>2021-08-08T05:24:35Z</time>
      </trkpt>
      <trkpt lat="48.89375" lon="7.42489">
        <ele>266</ele>
        <time>2021-08-08T05:24:36Z</time>
      </trkpt>
      <trkpt lat="48.89379" lon="7.42504">
        <ele>266</ele>
        <time>2021-08-08T05:24:37Z</time>
      </trkpt>
      <trkpt lat="48.89379" lon="7.42504">
        <ele>265</ele>
        <time>2021-08-08T05:24:38Z</time>
      </trkpt>
      <trkpt lat="48.89379" lon="7.42516">
        <ele>265</ele>
        <time>2021-08-08T05:24:39Z</time>
      </trkpt>
      <trkpt lat="48.89378" lon="7.42523">
        <ele>265</ele>
        <time>2021-08-08T05:24:40Z</time>
      </trkpt>
      <trkpt lat="48.89378" lon="7.42523">
        <ele>265</ele>
        <time>2021-08-08T05:24:41Z</time>
      </trkpt>
      <trkpt lat="48.89375" lon="7.42537">
        <ele>265</ele>
        <time>2021-08-08T05:24:42Z</time>
      </trkpt>
      <trkpt lat="48.89376" lon="7.42544">
        <ele>265</ele>
        <time>2021-08-08T05:24:43Z</time>
      </trkpt>
      <trkpt lat="48.89376" lon="7.42544">
        <ele>265</ele>
        <time>2021-08-08T05:24:44Z</time>
      </trkpt>
      <trkpt lat="48.89374" lon="7.42565">
        <ele>265</ele>
        <time>2021-08-08T05:24:45Z</time>
      </trkpt>
      <trkpt lat="48.89374" lon="7.42565">
        <ele>265</ele>
        <time>2021-08-08T05:24:46Z</time>
      </trkpt>
      <trkpt lat="48.89375" lon="7.42582">
        <ele>265</ele>
        <time>2021-08-08T05:24:47Z</time>
      </trkpt>
      <trkpt lat="48.89375" lon="7.42582">
        <ele>264</ele>
        <time>2021-08-08T05:24:48Z</time>
      </trkpt>
      <trkpt lat="48.89371" lon="7.42601">
        <ele>264</ele>
        <time>2021-08-08T05:24:49Z</time>
      </trkpt>
      <trkpt lat="48.8937" lon="7.42615">
        <ele>263</ele>
        <time>2021-08-08T05:24:50Z</time>
      </trkpt>
      <trkpt lat="48.89369" lon="7.42624">
        <ele>263</ele>
        <time>2021-08-08T05:24:51Z</time>
      </trkpt>
      <trkpt lat="48.89369" lon="7.42624">
        <ele>262</ele>
        <time>2021-08-08T05:24:52Z</time>
      </trkpt>
      <trkpt lat="48.89366" lon="7.42642">
        <ele>262</ele>
        <time>2021-08-08T05:24:53Z</time>
      </trkpt>
      <trkpt lat="48.89364" lon="7.4265">
        <ele>261</ele>
        <time>2021-08-08T05:24:54Z</time>
      </trkpt>
      <trkpt lat="48.89361" lon="7.42658">
        <ele>261</ele>
        <time>2021-08-08T05:24:55Z</time>
      </trkpt>
      <trkpt lat="48.89361" lon="7.42658">
        <ele>261</ele>
        <time>2021-08-08T05:24:56Z</time>
      </trkpt>
      <trkpt lat="48.89352" lon="7.4267">
        <ele>261</ele>
        <time>2021-08-08T05:24:57Z</time>
      </trkpt>
      <trkpt lat="48.89352" lon="7.4267">
        <ele>261</ele>
        <time>2021-08-08T05:24:58Z</time>
      </trkpt>
      <trkpt lat="48.89341" lon="7.42683">
        <ele>261</ele>
        <time>2021-08-08T05:24:59Z</time>
      </trkpt>
      <trkpt lat="48.89341" lon="7.42683">
        <ele>260</ele>
        <time>2021-08-08T05:25:00Z</time>
      </trkpt>
      <trkpt lat="48.89335" lon="7.42694">
        <ele>260</ele>
        <time>2021-08-08T05:25:01Z</time>
      </trkpt>
      <trkpt lat="48.89335" lon="7.42694">
        <ele>260</ele>
        <time>2021-08-08T05:25:02Z</time>
      </trkpt>
      <trkpt lat="48.89331" lon="7.42704">
        <ele>260</ele>
        <time>2021-08-08T05:25:03Z</time>
      </trkpt>
      <trkpt lat="48.89327" lon="7.42708">
        <ele>260</ele>
        <time>2021-08-08T05:25:04Z</time>
      </trkpt>
      <trkpt lat="48.89327" lon="7.42708">
        <ele>260</ele>
        <time>2021-08-08T05:25:05Z</time>
      </trkpt>
      <trkpt lat="48.89324" lon="7.42715">
        <ele>260</ele>
        <time>2021-08-08T05:25:06Z</time>
      </trkpt>
      <trkpt lat="48.89323" lon="7.42717">
        <ele>260</ele>
        <time>2021-08-08T05:25:07Z</time>
      </trkpt>
      <trkpt lat="48.8932" lon="7.4272">
        <ele>260</ele>
        <time>2021-08-08T05:25:08Z</time>
      </trkpt>
      <trkpt lat="48.8932" lon="7.4272">
        <ele>260</ele>
        <time>2021-08-08T05:25:09Z</time>
      </trkpt>
      <trkpt lat="48.89315" lon="7.42726">
        <ele>260</ele>
        <time>2021-08-08T05:25:10Z</time>
      </trkpt>
      <trkpt lat="48.89315" lon="7.42726">
        <ele>260</ele>
        <time>2021-08-08T05:25:11Z</time>
      </trkpt>
      <trkpt lat="48.89306" lon="7.42733">
        <ele>260</ele>
        <time>2021-08-08T05:25:12Z</time>
      </trkpt>
      <trkpt lat="48.89306" lon="7.42733">
        <ele>260</ele>
        <time>2021-08-08T05:25:13Z</time>
      </trkpt>
      <trkpt lat="48.89303" lon="7.42739">
        <ele>261</ele>
        <time>2021-08-08T05:25:14Z</time>
      </trkpt>
      <trkpt lat="48.89301" lon="7.42741">
        <ele>261</ele>
        <time>2021-08-08T05:25:15Z</time>
      </trkpt>
      <trkpt lat="48.89301" lon="7.42741">
        <ele>261</ele>
        <time>2021-08-08T05:25:16Z</time>
      </trkpt>
      <trkpt lat="48.89295" lon="7.42747">
        <ele>261</ele>
        <time>2021-08-08T05:25:17Z</time>
      </trkpt>
      <trkpt lat="48.89295" lon="7.42747">
        <ele>261</ele>
        <time>2021-08-08T05:25:18Z</time>
      </trkpt>
      <trkpt lat="48.89293" lon="7.42752">
        <ele>261</ele>
        <time>2021-08-08T05:25:19Z</time>
      </trkpt>
      <trkpt lat="48.89293" lon="7.42752">
        <ele>262</ele>
        <time>2021-08-08T05:25:20Z</time>
      </trkpt>
      <trkpt lat="48.89289" lon="7.42757">
        <ele>262</ele>
        <time>2021-08-08T05:25:21Z</time>
      </trkpt>
      <trkpt lat="48.89289" lon="7.42757">
        <ele>262</ele>
        <time>2021-08-08T05:25:22Z</time>
      </trkpt>
      <trkpt lat="48.89282" lon="7.42761">
        <ele>262</ele>
        <time>2021-08-08T05:25:23Z</time>
      </trkpt>
      <trkpt lat="48.89281" lon="7.42763">
        <ele>262</ele>
        <time>2021-08-08T05:25:24Z</time>
      </trkpt>
      <trkpt lat="48.89279" lon="7.42765">
        <ele>262</ele>
        <time>2021-08-08T05:25:25Z</time>
      </trkpt>
      <trkpt lat="48.89279" lon="7.42765">
        <ele>262</ele>
        <time>2021-08-08T05:25:26Z</time>
      </trkpt>
      <trkpt lat="48.89275" lon="7.42766">
        <ele>262</ele>
        <time>2021-08-08T05:25:27Z</time>
      </trkpt>
      <trkpt lat="48.89275" lon="7.42766">
        <ele>262</ele>
        <time>2021-08-08T05:25:28Z</time>
      </trkpt>
      <trkpt lat="48.89271" lon="7.42768">
        <ele>262</ele>
        <time>2021-08-08T05:25:29Z</time>
      </trkpt>
      <trkpt lat="48.89271" lon="7.42768">
        <ele>264</ele>
        <time>2021-08-08T05:25:30Z</time>
      </trkpt>
      <trkpt lat="48.89268" lon="7.42769">
        <ele>264</ele>
        <time>2021-08-08T05:25:31Z</time>
      </trkpt>
      <trkpt lat="48.89268" lon="7.42769">
        <ele>264</ele>
        <time>2021-08-08T05:25:32Z</time>
      </trkpt>
      <trkpt lat="48.89262" lon="7.42773">
        <ele>264</ele>
        <time>2021-08-08T05:25:33Z</time>
      </trkpt>
      <trkpt lat="48.89262" lon="7.42773">
        <ele>264</ele>
        <time>2021-08-08T05:25:34Z</time>
      </trkpt>
      <trkpt lat="48.89253" lon="7.4278">
        <ele>264</ele>
        <time>2021-08-08T05:25:35Z</time>
      </trkpt>
      <trkpt lat="48.89253" lon="7.4278">
        <ele>264</ele>
        <time>2021-08-08T05:25:36Z</time>
      </trkpt>
      <trkpt lat="48.89244" lon="7.42781">
        <ele>264</ele>
        <time>2021-08-08T05:25:37Z</time>
      </trkpt>
      <trkpt lat="48.89244" lon="7.42781">
        <ele>264</ele>
        <time>2021-08-08T05:25:38Z</time>
      </trkpt>
      <trkpt lat="48.89234" lon="7.42786">
        <ele>264</ele>
        <time>2021-08-08T05:25:39Z</time>
      </trkpt>
      <trkpt lat="48.89234" lon="7.42786">
        <ele>265</ele>
        <time>2021-08-08T05:25:40Z</time>
      </trkpt>
      <trkpt lat="48.89228" lon="7.42788">
        <ele>265</ele>
        <time>2021-08-08T05:25:41Z</time>
      </trkpt>
      <trkpt lat="48.89227" lon="7.42789">
        <ele>265</ele>
        <time>2021-08-08T05:25:42Z</time>
      </trkpt>
      <trkpt lat="48.89226" lon="7.42788">
        <ele>265</ele>
        <time>2021-08-08T05:25:43Z</time>
      </trkpt>
      <trkpt lat="48.89226" lon="7.42788">
        <ele>265</ele>
        <time>2021-08-08T05:25:44Z</time>
      </trkpt>
      <trkpt lat="48.89221" lon="7.42788">
        <ele>266</ele>
        <time>2021-08-08T05:25:45Z</time>
      </trkpt>
      <trkpt lat="48.89221" lon="7.42788">
        <ele>266</ele>
        <time>2021-08-08T05:25:46Z</time>
      </trkpt>
      <trkpt lat="48.89216" lon="7.42786">
        <ele>266</ele>
        <time>2021-08-08T05:25:47Z</time>
      </trkpt>
      <trkpt lat="48.89216" lon="7.42786">
        <ele>266</ele>
        <time>2021-08-08T05:25:48Z</time>
      </trkpt>
      <trkpt lat="48.89211" lon="7.42787">
        <ele>266</ele>
        <time>2021-08-08T05:25:49Z</time>
      </trkpt>
      <trkpt lat="48.8921" lon="7.42788">
        <ele>266</ele>
        <time>2021-08-08T05:25:50Z</time>
      </trkpt>
      <trkpt lat="48.8921" lon="7.42788">
        <ele>267</ele>
        <time>2021-08-08T05:25:51Z</time>
      </trkpt>
      <trkpt lat="48.89207" lon="7.42789">
        <ele>267</ele>
        <time>2021-08-08T05:25:52Z</time>
      </trkpt>
      <trkpt lat="48.89207" lon="7.42789">
        <ele>267</ele>
        <time>2021-08-08T05:25:53Z</time>
      </trkpt>
      <trkpt lat="48.89205" lon="7.42789">
        <ele>267</ele>
        <time>2021-08-08T05:25:54Z</time>
      </trkpt>
      <trkpt lat="48.89205" lon="7.42789">
        <ele>268</ele>
        <time>2021-08-08T05:25:55Z</time>
      </trkpt>
      <trkpt lat="48.89205" lon="7.42791">
        <ele>268</ele>
        <time>2021-08-08T05:25:56Z</time>
      </trkpt>
      <trkpt lat="48.89205" lon="7.42791">
        <ele>268</ele>
        <time>2021-08-08T05:25:57Z</time>
      </trkpt>
      <trkpt lat="48.89198" lon="7.42789">
        <ele>268</ele>
        <time>2021-08-08T05:25:58Z</time>
      </trkpt>
      <trkpt lat="48.89198" lon="7.42789">
        <ele>269</ele>
        <time>2021-08-08T05:25:59Z</time>
      </trkpt>
      <trkpt lat="48.89192" lon="7.42788">
        <ele>269</ele>
        <time>2021-08-08T05:26:00Z</time>
      </trkpt>
      <trkpt lat="48.89191" lon="7.42789">
        <ele>269</ele>
        <time>2021-08-08T05:26:01Z</time>
      </trkpt>
      <trkpt lat="48.89191" lon="7.42789">
        <ele>269</ele>
        <time>2021-08-08T05:26:02Z</time>
      </trkpt>
      <trkpt lat="48.89188" lon="7.42787">
        <ele>269</ele>
        <time>2021-08-08T05:26:03Z</time>
      </trkpt>
      <trkpt lat="48.89188" lon="7.42787">
        <ele>269</ele>
        <time>2021-08-08T05:26:04Z</time>
      </trkpt>
      <trkpt lat="48.89185" lon="7.42787">
        <ele>269</ele>
        <time>2021-08-08T05:26:05Z</time>
      </trkpt>
      <trkpt lat="48.89185" lon="7.42787">
        <ele>269</ele>
        <time>2021-08-08T05:26:06Z</time>
      </trkpt>
      <trkpt lat="48.89182" lon="7.42786">
        <ele>269</ele>
        <time>2021-08-08T05:26:07Z</time>
      </trkpt>
      <trkpt lat="48.89182" lon="7.42786">
        <ele>269</ele>
        <time>2021-08-08T05:26:08Z</time>
      </trkpt>
      <trkpt lat="48.89179" lon="7.42788">
        <ele>270</ele>
        <time>2021-08-08T05:26:09Z</time>
      </trkpt>
      <trkpt lat="48.89177" lon="7.42789">
        <ele>270</ele>
        <time>2021-08-08T05:26:10Z</time>
      </trkpt>
      <trkpt lat="48.89177" lon="7.42789">
        <ele>270</ele>
        <time>2021-08-08T05:26:11Z</time>
      </trkpt>
      <trkpt lat="48.89174" lon="7.42793">
        <ele>270</ele>
        <time>2021-08-08T05:26:12Z</time>
      </trkpt>
      <trkpt lat="48.89173" lon="7.42798">
        <ele>271</ele>
        <time>2021-08-08T05:26:13Z</time>
      </trkpt>
      <trkpt lat="48.89173" lon="7.42798">
        <ele>271</ele>
        <time>2021-08-08T05:26:14Z</time>
      </trkpt>
      <trkpt lat="48.89172" lon="7.42802">
        <ele>271</ele>
        <time>2021-08-08T05:26:15Z</time>
      </trkpt>
      <trkpt lat="48.89172" lon="7.42802">
        <ele>271</ele>
        <time>2021-08-08T05:26:16Z</time>
      </trkpt>
      <trkpt lat="48.89169" lon="7.42807">
        <ele>271</ele>
        <time>2021-08-08T05:26:17Z</time>
      </trkpt>
      <trkpt lat="48.89169" lon="7.42807">
        <ele>271</ele>
        <time>2021-08-08T05:26:18Z</time>
      </trkpt>
      <trkpt lat="48.89167" lon="7.42813">
        <ele>271</ele>
        <time>2021-08-08T05:26:19Z</time>
      </trkpt>
      <trkpt lat="48.89167" lon="7.42813">
        <ele>271</ele>
        <time>2021-08-08T05:26:20Z</time>
      </trkpt>
      <trkpt lat="48.89166" lon="7.42819">
        <ele>271</ele>
        <time>2021-08-08T05:26:21Z</time>
      </trkpt>
      <trkpt lat="48.89165" lon="7.42822">
        <ele>271</ele>
        <time>2021-08-08T05:26:22Z</time>
      </trkpt>
      <trkpt lat="48.89165" lon="7.42822">
        <ele>271</ele>
        <time>2021-08-08T05:26:23Z</time>
      </trkpt>
      <trkpt lat="48.89161" lon="7.42828">
        <ele>271</ele>
        <time>2021-08-08T05:26:24Z</time>
      </trkpt>
      <trkpt lat="48.8916" lon="7.42832">
        <ele>271</ele>
        <time>2021-08-08T05:26:25Z</time>
      </trkpt>
      <trkpt lat="48.8916" lon="7.42832">
        <ele>271</ele>
        <time>2021-08-08T05:26:26Z</time>
      </trkpt>
      <trkpt lat="48.89158" lon="7.42838">
        <ele>271</ele>
        <time>2021-08-08T05:26:27Z</time>
      </trkpt>
      <trkpt lat="48.89158" lon="7.42838">
        <ele>271</ele>
        <time>2021-08-08T05:26:28Z</time>
      </trkpt>
      <trkpt lat="48.89157" lon="7.42845">
        <ele>271</ele>
        <time>2021-08-08T05:26:29Z</time>
      </trkpt>
      <trkpt lat="48.89157" lon="7.42845">
        <ele>271</ele>
        <time>2021-08-08T05:26:30Z</time>
      </trkpt>
      <trkpt lat="48.89156" lon="7.42853">
        <ele>271</ele>
        <time>2021-08-08T05:26:31Z</time>
      </trkpt>
      <trkpt lat="48.89156" lon="7.42853">
        <ele>271</ele>
        <time>2021-08-08T05:26:32Z</time>
      </trkpt>
      <trkpt lat="48.89154" lon="7.42861">
        <ele>271</ele>
        <time>2021-08-08T05:26:33Z</time>
      </trkpt>
      <trkpt lat="48.89154" lon="7.42861">
        <ele>271</ele>
        <time>2021-08-08T05:26:34Z</time>
      </trkpt>
      <trkpt lat="48.89152" lon="7.42871">
        <ele>271</ele>
        <time>2021-08-08T05:26:35Z</time>
      </trkpt>
      <trkpt lat="48.89152" lon="7.42871">
        <ele>271</ele>
        <time>2021-08-08T05:26:36Z</time>
      </trkpt>
      <trkpt lat="48.8915" lon="7.42879">
        <ele>271</ele>
        <time>2021-08-08T05:26:37Z</time>
      </trkpt>
      <trkpt lat="48.8915" lon="7.42879">
        <ele>271</ele>
        <time>2021-08-08T05:26:38Z</time>
      </trkpt>
      <trkpt lat="48.89147" lon="7.42891">
        <ele>271</ele>
        <time>2021-08-08T05:26:39Z</time>
      </trkpt>
      <trkpt lat="48.89147" lon="7.42891">
        <ele>271</ele>
        <time>2021-08-08T05:26:40Z</time>
      </trkpt>
      <trkpt lat="48.89145" lon="7.42901">
        <ele>271</ele>
        <time>2021-08-08T05:26:41Z</time>
      </trkpt>
      <trkpt lat="48.89143" lon="7.42907">
        <ele>271</ele>
        <time>2021-08-08T05:26:42Z</time>
      </trkpt>
      <trkpt lat="48.89143" lon="7.42907">
        <ele>271</ele>
        <time>2021-08-08T05:26:43Z</time>
      </trkpt>
      <trkpt lat="48.8914" lon="7.42919">
        <ele>271</ele>
        <time>2021-08-08T05:26:44Z</time>
      </trkpt>
      <trkpt lat="48.89137" lon="7.42927">
        <ele>271</ele>
        <time>2021-08-08T05:26:45Z</time>
      </trkpt>
      <trkpt lat="48.89134" lon="7.42936">
        <ele>271</ele>
        <time>2021-08-08T05:26:46Z</time>
      </trkpt>
      <trkpt lat="48.89134" lon="7.42936">
        <ele>271</ele>
        <time>2021-08-08T05:26:47Z</time>
      </trkpt>
      <trkpt lat="48.89127" lon="7.42948">
        <ele>271</ele>
        <time>2021-08-08T05:26:48Z</time>
      </trkpt>
      <trkpt lat="48.89125" lon="7.42952">
        <ele>271</ele>
        <time>2021-08-08T05:26:49Z</time>
      </trkpt>
      <trkpt lat="48.89125" lon="7.42952">
        <ele>271</ele>
        <time>2021-08-08T05:26:50Z</time>
      </trkpt>
      <trkpt lat="48.89121" lon="7.4296">
        <ele>271</ele>
        <time>2021-08-08T05:26:51Z</time>
      </trkpt>
      <trkpt lat="48.89121" lon="7.4296">
        <ele>271</ele>
        <time>2021-08-08T05:26:52Z</time>
      </trkpt>
      <trkpt lat="48.89117" lon="7.42967">
        <ele>271</ele>
        <time>2021-08-08T05:26:53Z</time>
      </trkpt>
      <trkpt lat="48.89114" lon="7.42969">
        <ele>271</ele>
        <time>2021-08-08T05:26:54Z</time>
      </trkpt>
      <trkpt lat="48.89112" lon="7.42971">
        <ele>271</ele>
        <time>2021-08-08T05:26:55Z</time>
      </trkpt>
      <trkpt lat="48.89112" lon="7.42971">
        <ele>271</ele>
        <time>2021-08-08T05:26:56Z</time>
      </trkpt>
      <trkpt lat="48.89105" lon="7.42982">
        <ele>271</ele>
        <time>2021-08-08T05:26:57Z</time>
      </trkpt>
      <trkpt lat="48.89105" lon="7.42982">
        <ele>271</ele>
        <time>2021-08-08T05:26:58Z</time>
      </trkpt>
      <trkpt lat="48.89102" lon="7.42994">
        <ele>271</ele>
        <time>2021-08-08T05:26:59Z</time>
      </trkpt>
      <trkpt lat="48.891" lon="7.43002">
        <ele>271</ele>
        <time>2021-08-08T05:27:00Z</time>
      </trkpt>
      <trkpt lat="48.891" lon="7.43002">
        <ele>271</ele>
        <time>2021-08-08T05:27:01Z</time>
      </trkpt>
      <trkpt lat="48.89097" lon="7.43015">
        <ele>271</ele>
        <time>2021-08-08T05:27:02Z</time>
      </trkpt>
      <trkpt lat="48.89097" lon="7.43015">
        <ele>271</ele>
        <time>2021-08-08T05:27:03Z</time>
      </trkpt>
      <trkpt lat="48.89094" lon="7.43026">
        <ele>271</ele>
        <time>2021-08-08T05:27:04Z</time>
      </trkpt>
      <trkpt lat="48.89093" lon="7.43032">
        <ele>271</ele>
        <time>2021-08-08T05:27:05Z</time>
      </trkpt>
      <trkpt lat="48.89093" lon="7.43032">
        <ele>271</ele>
        <time>2021-08-08T05:27:06Z</time>
      </trkpt>
      <trkpt lat="48.89091" lon="7.43043">
        <ele>271</ele>
        <time>2021-08-08T05:27:07Z</time>
      </trkpt>
      <trkpt lat="48.89091" lon="7.43043">
        <ele>271</ele>
        <time>2021-08-08T05:27:08Z</time>
      </trkpt>
      <trkpt lat="48.89088" lon="7.43054">
        <ele>271</ele>
        <time>2021-08-08T05:27:09Z</time>
      </trkpt>
      <trkpt lat="48.89088" lon="7.43054">
        <ele>271</ele>
        <time>2021-08-08T05:27:10Z</time>
      </trkpt>
      <trkpt lat="48.89085" lon="7.43067">
        <ele>271</ele>
        <time>2021-08-08T05:27:11Z</time>
      </trkpt>
      <trkpt lat="48.89085" lon="7.43067">
        <ele>271</ele>
        <time>2021-08-08T05:27:12Z</time>
      </trkpt>
      <trkpt lat="48.89083" lon="7.43078">
        <ele>271</ele>
        <time>2021-08-08T05:27:13Z</time>
      </trkpt>
      <trkpt lat="48.89083" lon="7.43078">
        <ele>271</ele>
        <time>2021-08-08T05:27:14Z</time>
      </trkpt>
      <trkpt lat="48.89079" lon="7.43091">
        <ele>271</ele>
        <time>2021-08-08T05:27:15Z</time>
      </trkpt>
      <trkpt lat="48.89079" lon="7.43091">
        <ele>271</ele>
        <time>2021-08-08T05:27:16Z</time>
      </trkpt>
      <trkpt lat="48.89078" lon="7.43103">
        <ele>271</ele>
        <time>2021-08-08T05:27:17Z</time>
      </trkpt>
      <trkpt lat="48.89077" lon="7.43109">
        <ele>271</ele>
        <time>2021-08-08T05:27:18Z</time>
      </trkpt>
      <trkpt lat="48.89076" lon="7.43115">
        <ele>271</ele>
        <time>2021-08-08T05:27:19Z</time>
      </trkpt>
      <trkpt lat="48.89076" lon="7.43115">
        <ele>271</ele>
        <time>2021-08-08T05:27:20Z</time>
      </trkpt>
      <trkpt lat="48.89074" lon="7.43127">
        <ele>271</ele>
        <time>2021-08-08T05:27:21Z</time>
      </trkpt>
      <trkpt lat="48.89074" lon="7.43127">
        <ele>271</ele>
        <time>2021-08-08T05:27:22Z</time>
      </trkpt>
      <trkpt lat="48.89071" lon="7.43142">
        <ele>271</ele>
        <time>2021-08-08T05:27:23Z</time>
      </trkpt>
      <trkpt lat="48.89071" lon="7.43142">
        <ele>271</ele>
        <time>2021-08-08T05:27:24Z</time>
      </trkpt>
      <trkpt lat="48.8907" lon="7.43153">
        <ele>271</ele>
        <time>2021-08-08T05:27:25Z</time>
      </trkpt>
      <trkpt lat="48.8907" lon="7.43153">
        <ele>271</ele>
        <time>2021-08-08T05:27:26Z</time>
      </trkpt>
      <trkpt lat="48.89067" lon="7.43167">
        <ele>271</ele>
        <time>2021-08-08T05:27:27Z</time>
      </trkpt>
      <trkpt lat="48.89067" lon="7.43167">
        <ele>271</ele>
        <time>2021-08-08T05:27:28Z</time>
      </trkpt>
      <trkpt lat="48.89062" lon="7.43183">
        <ele>271</ele>
        <time>2021-08-08T05:27:29Z</time>
      </trkpt>
      <trkpt lat="48.89062" lon="7.43183">
        <ele>271</ele>
        <time>2021-08-08T05:27:30Z</time>
      </trkpt>
      <trkpt lat="48.8906" lon="7.43194">
        <ele>271</ele>
        <time>2021-08-08T05:27:31Z</time>
      </trkpt>
      <trkpt lat="48.8906" lon="7.43194">
        <ele>271</ele>
        <time>2021-08-08T05:27:32Z</time>
      </trkpt>
      <trkpt lat="48.89055" lon="7.43206">
        <ele>271</ele>
        <time>2021-08-08T05:27:33Z</time>
      </trkpt>
      <trkpt lat="48.89055" lon="7.43206">
        <ele>271</ele>
        <time>2021-08-08T05:27:34Z</time>
      </trkpt>
      <trkpt lat="48.89045" lon="7.4322">
        <ele>270</ele>
        <time>2021-08-08T05:27:35Z</time>
      </trkpt>
      <trkpt lat="48.89045" lon="7.4322">
        <ele>270</ele>
        <time>2021-08-08T05:27:36Z</time>
      </trkpt>
      <trkpt lat="48.89037" lon="7.43225">
        <ele>270</ele>
        <time>2021-08-08T05:27:37Z</time>
      </trkpt>
      <trkpt lat="48.89037" lon="7.43225">
        <ele>270</ele>
        <time>2021-08-08T05:27:38Z</time>
      </trkpt>
      <trkpt lat="48.8903" lon="7.43227">
        <ele>270</ele>
        <time>2021-08-08T05:27:39Z</time>
      </trkpt>
      <trkpt lat="48.8903" lon="7.43227">
        <ele>270</ele>
        <time>2021-08-08T05:27:40Z</time>
      </trkpt>
      <trkpt lat="48.89025" lon="7.43229">
        <ele>269</ele>
        <time>2021-08-08T05:27:41Z</time>
      </trkpt>
      <trkpt lat="48.89025" lon="7.43229">
        <ele>269</ele>
        <time>2021-08-08T05:27:42Z</time>
      </trkpt>
      <trkpt lat="48.89021" lon="7.43234">
        <ele>269</ele>
        <time>2021-08-08T05:27:43Z</time>
      </trkpt>
      <trkpt lat="48.89021" lon="7.43234">
        <ele>269</ele>
        <time>2021-08-08T05:27:44Z</time>
      </trkpt>
      <trkpt lat="48.89016" lon="7.43239">
        <ele>269</ele>
        <time>2021-08-08T05:27:45Z</time>
      </trkpt>
      <trkpt lat="48.89016" lon="7.43239">
        <ele>269</ele>
        <time>2021-08-08T05:27:46Z</time>
      </trkpt>
      <trkpt lat="48.89011" lon="7.43246">
        <ele>269</ele>
        <time>2021-08-08T05:27:47Z</time>
      </trkpt>
      <trkpt lat="48.89011" lon="7.43246">
        <ele>269</ele>
        <time>2021-08-08T05:27:48Z</time>
      </trkpt>
      <trkpt lat="48.89003" lon="7.43251">
        <ele>268</ele>
        <time>2021-08-08T05:27:49Z</time>
      </trkpt>
      <trkpt lat="48.89003" lon="7.43251">
        <ele>268</ele>
        <time>2021-08-08T05:27:50Z</time>
      </trkpt>
      <trkpt lat="48.88997" lon="7.4326">
        <ele>268</ele>
        <time>2021-08-08T05:27:51Z</time>
      </trkpt>
      <trkpt lat="48.88997" lon="7.4326">
        <ele>268</ele>
        <time>2021-08-08T05:27:52Z</time>
      </trkpt>
      <trkpt lat="48.88991" lon="7.43265">
        <ele>267</ele>
        <time>2021-08-08T05:27:53Z</time>
      </trkpt>
      <trkpt lat="48.88991" lon="7.43265">
        <ele>267</ele>
        <time>2021-08-08T05:27:54Z</time>
      </trkpt>
      <trkpt lat="48.88985" lon="7.43273">
        <ele>267</ele>
        <time>2021-08-08T05:27:55Z</time>
      </trkpt>
      <trkpt lat="48.88985" lon="7.43273">
        <ele>267</ele>
        <time>2021-08-08T05:27:56Z</time>
      </trkpt>
      <trkpt lat="48.88982" lon="7.43282">
        <ele>266</ele>
        <time>2021-08-08T05:27:57Z</time>
      </trkpt>
      <trkpt lat="48.88982" lon="7.43282">
        <ele>266</ele>
        <time>2021-08-08T05:27:58Z</time>
      </trkpt>
      <trkpt lat="48.88975" lon="7.43295">
        <ele>266</ele>
        <time>2021-08-08T05:27:59Z</time>
      </trkpt>
      <trkpt lat="48.88973" lon="7.43301">
        <ele>266</ele>
        <time>2021-08-08T05:28:00Z</time>
      </trkpt>
      <trkpt lat="48.88973" lon="7.43301">
        <ele>266</ele>
        <time>2021-08-08T05:28:01Z</time>
      </trkpt>
      <trkpt lat="48.88968" lon="7.43313">
        <ele>265</ele>
        <time>2021-08-08T05:28:02Z</time>
      </trkpt>
      <trkpt lat="48.88967" lon="7.4332">
        <ele>265</ele>
        <time>2021-08-08T05:28:03Z</time>
      </trkpt>
      <trkpt lat="48.88967" lon="7.4332">
        <ele>264</ele>
        <time>2021-08-08T05:28:04Z</time>
      </trkpt>
      <trkpt lat="48.88963" lon="7.43335">
        <ele>264</ele>
        <time>2021-08-08T05:28:05Z</time>
      </trkpt>
      <trkpt lat="48.88963" lon="7.43335">
        <ele>264</ele>
        <time>2021-08-08T05:28:06Z</time>
      </trkpt>
      <trkpt lat="48.88961" lon="7.43353">
        <ele>264</ele>
        <time>2021-08-08T05:28:07Z</time>
      </trkpt>
      <trkpt lat="48.88961" lon="7.43353">
        <ele>264</ele>
        <time>2021-08-08T05:28:08Z</time>
      </trkpt>
      <trkpt lat="48.88959" lon="7.43367">
        <ele>264</ele>
        <time>2021-08-08T05:28:09Z</time>
      </trkpt>
      <trkpt lat="48.88959" lon="7.43367">
        <ele>262</ele>
        <time>2021-08-08T05:28:10Z</time>
      </trkpt>
      <trkpt lat="48.88956" lon="7.43383">
        <ele>262</ele>
        <time>2021-08-08T05:28:11Z</time>
      </trkpt>
      <trkpt lat="48.88956" lon="7.43383">
        <ele>261</ele>
        <time>2021-08-08T05:28:12Z</time>
      </trkpt>
      <trkpt lat="48.88954" lon="7.43395">
        <ele>261</ele>
        <time>2021-08-08T05:28:13Z</time>
      </trkpt>
      <trkpt lat="48.88954" lon="7.43395">
        <ele>261</ele>
        <time>2021-08-08T05:28:14Z</time>
      </trkpt>
      <trkpt lat="48.88953" lon="7.43409">
        <ele>261</ele>
        <time>2021-08-08T05:28:15Z</time>
      </trkpt>
      <trkpt lat="48.88953" lon="7.43409">
        <ele>260</ele>
        <time>2021-08-08T05:28:16Z</time>
      </trkpt>
      <trkpt lat="48.88951" lon="7.43424">
        <ele>260</ele>
        <time>2021-08-08T05:28:17Z</time>
      </trkpt>
      <trkpt lat="48.88951" lon="7.43424">
        <ele>259</ele>
        <time>2021-08-08T05:28:18Z</time>
      </trkpt>
      <trkpt lat="48.88944" lon="7.43443">
        <ele>258</ele>
        <time>2021-08-08T05:28:19Z</time>
      </trkpt>
      <trkpt lat="48.88944" lon="7.43443">
        <ele>258</ele>
        <time>2021-08-08T05:28:20Z</time>
      </trkpt>
      <trkpt lat="48.8894" lon="7.43455">
        <ele>258</ele>
        <time>2021-08-08T05:28:21Z</time>
      </trkpt>
      <trkpt lat="48.8894" lon="7.43455">
        <ele>258</ele>
        <time>2021-08-08T05:28:22Z</time>
      </trkpt>
      <trkpt lat="48.88937" lon="7.43468">
        <ele>256</ele>
        <time>2021-08-08T05:28:23Z</time>
      </trkpt>
      <trkpt lat="48.88937" lon="7.43468">
        <ele>256</ele>
        <time>2021-08-08T05:28:24Z</time>
      </trkpt>
      <trkpt lat="48.88933" lon="7.43485">
        <ele>255</ele>
        <time>2021-08-08T05:28:25Z</time>
      </trkpt>
      <trkpt lat="48.88932" lon="7.43495">
        <ele>255</ele>
        <time>2021-08-08T05:28:26Z</time>
      </trkpt>
      <trkpt lat="48.88932" lon="7.43507">
        <ele>253</ele>
        <time>2021-08-08T05:28:27Z</time>
      </trkpt>
      <trkpt lat="48.88932" lon="7.43507">
        <ele>253</ele>
        <time>2021-08-08T05:28:28Z</time>
      </trkpt>
      <trkpt lat="48.88929" lon="7.43525">
        <ele>252</ele>
        <time>2021-08-08T05:28:29Z</time>
      </trkpt>
      <trkpt lat="48.88929" lon="7.43534">
        <ele>252</ele>
        <time>2021-08-08T05:28:30Z</time>
      </trkpt>
      <trkpt lat="48.88929" lon="7.43542">
        <ele>251</ele>
        <time>2021-08-08T05:28:31Z</time>
      </trkpt>
      <trkpt lat="48.88929" lon="7.43542">
        <ele>251</ele>
        <time>2021-08-08T05:28:32Z</time>
      </trkpt>
      <trkpt lat="48.88929" lon="7.43557">
        <ele>251</ele>
        <time>2021-08-08T05:28:33Z</time>
      </trkpt>
      <trkpt lat="48.88929" lon="7.43557">
        <ele>251</ele>
        <time>2021-08-08T05:28:34Z</time>
      </trkpt>
      <trkpt lat="48.8893" lon="7.43575">
        <ele>250</ele>
        <time>2021-08-08T05:28:35Z</time>
      </trkpt>
      <trkpt lat="48.8893" lon="7.43575">
        <ele>250</ele>
        <time>2021-08-08T05:28:36Z</time>
      </trkpt>
      <trkpt lat="48.88932" lon="7.43593">
        <ele>249</ele>
        <time>2021-08-08T05:28:37Z</time>
      </trkpt>
      <trkpt lat="48.88932" lon="7.43593">
        <ele>249</ele>
        <time>2021-08-08T05:28:38Z</time>
      </trkpt>
      <trkpt lat="48.88934" lon="7.43611">
        <ele>248</ele>
        <time>2021-08-08T05:28:39Z</time>
      </trkpt>
      <trkpt lat="48.88934" lon="7.43611">
        <ele>248</ele>
        <time>2021-08-08T05:28:40Z</time>
      </trkpt>
      <trkpt lat="48.88938" lon="7.43627">
        <ele>246</ele>
        <time>2021-08-08T05:28:41Z</time>
      </trkpt>
      <trkpt lat="48.88938" lon="7.43627">
        <ele>246</ele>
        <time>2021-08-08T05:28:42Z</time>
      </trkpt>
      <trkpt lat="48.88943" lon="7.43646">
        <ele>246</ele>
        <time>2021-08-08T05:28:43Z</time>
      </trkpt>
      <trkpt lat="48.88943" lon="7.43646">
        <ele>246</ele>
        <time>2021-08-08T05:28:44Z</time>
      </trkpt>
      <trkpt lat="48.8895" lon="7.43668">
        <ele>245</ele>
        <time>2021-08-08T05:28:45Z</time>
      </trkpt>
      <trkpt lat="48.8895" lon="7.43668">
        <ele>245</ele>
        <time>2021-08-08T05:28:46Z</time>
      </trkpt>
      <trkpt lat="48.88953" lon="7.43688">
        <ele>244</ele>
        <time>2021-08-08T05:28:47Z</time>
      </trkpt>
      <trkpt lat="48.88953" lon="7.43688">
        <ele>244</ele>
        <time>2021-08-08T05:28:48Z</time>
      </trkpt>
      <trkpt lat="48.88956" lon="7.43705">
        <ele>242</ele>
        <time>2021-08-08T05:28:49Z</time>
      </trkpt>
      <trkpt lat="48.88956" lon="7.43705">
        <ele>242</ele>
        <time>2021-08-08T05:28:50Z</time>
      </trkpt>
      <trkpt lat="48.88959" lon="7.4373">
        <ele>241</ele>
        <time>2021-08-08T05:28:51Z</time>
      </trkpt>
      <trkpt lat="48.88961" lon="7.43741">
        <ele>241</ele>
        <time>2021-08-08T05:28:52Z</time>
      </trkpt>
      <trkpt lat="48.88961" lon="7.43741">
        <ele>240</ele>
        <time>2021-08-08T05:28:53Z</time>
      </trkpt>
      <trkpt lat="48.88965" lon="7.43756">
        <ele>240</ele>
        <time>2021-08-08T05:28:54Z</time>
      </trkpt>
      <trkpt lat="48.88965" lon="7.43756">
        <ele>238</ele>
        <time>2021-08-08T05:28:55Z</time>
      </trkpt>
      <trkpt lat="48.88964" lon="7.43773">
        <ele>238</ele>
        <time>2021-08-08T05:28:56Z</time>
      </trkpt>
      <trkpt lat="48.88964" lon="7.43773">
        <ele>237</ele>
        <time>2021-08-08T05:28:57Z</time>
      </trkpt>
      <trkpt lat="48.88959" lon="7.43789">
        <ele>237</ele>
        <time>2021-08-08T05:28:58Z</time>
      </trkpt>
      <trkpt lat="48.88958" lon="7.43796">
        <ele>236</ele>
        <time>2021-08-08T05:28:59Z</time>
      </trkpt>
      <trkpt lat="48.88958" lon="7.43796">
        <ele>236</ele>
        <time>2021-08-08T05:29:00Z</time>
      </trkpt>
      <trkpt lat="48.8896" lon="7.43809">
        <ele>235</ele>
        <time>2021-08-08T05:29:01Z</time>
      </trkpt>
      <trkpt lat="48.8896" lon="7.43809">
        <ele>235</ele>
        <time>2021-08-08T05:29:02Z</time>
      </trkpt>
      <trkpt lat="48.88961" lon="7.43822">
        <ele>233</ele>
        <time>2021-08-08T05:29:03Z</time>
      </trkpt>
      <trkpt lat="48.88961" lon="7.43822">
        <ele>233</ele>
        <time>2021-08-08T05:29:04Z</time>
      </trkpt>
      <trkpt lat="48.88965" lon="7.43834">
        <ele>232</ele>
        <time>2021-08-08T05:29:05Z</time>
      </trkpt>
      <trkpt lat="48.88967" lon="7.4384">
        <ele>232</ele>
        <time>2021-08-08T05:29:06Z</time>
      </trkpt>
      <trkpt lat="48.88969" lon="7.43847">
        <ele>230</ele>
        <time>2021-08-08T05:29:07Z</time>
      </trkpt>
      <trkpt lat="48.88969" lon="7.43847">
        <ele>230</ele>
        <time>2021-08-08T05:29:08Z</time>
      </trkpt>
      <trkpt lat="48.88974" lon="7.43858">
        <ele>229</ele>
        <time>2021-08-08T05:29:09Z</time>
      </trkpt>
      <trkpt lat="48.88974" lon="7.43858">
        <ele>229</ele>
        <time>2021-08-08T05:29:10Z</time>
      </trkpt>
      <trkpt lat="48.88977" lon="7.43871">
        <ele>228</ele>
        <time>2021-08-08T05:29:11Z</time>
      </trkpt>
      <trkpt lat="48.88977" lon="7.43871">
        <ele>228</ele>
        <time>2021-08-08T05:29:12Z</time>
      </trkpt>
      <trkpt lat="48.88984" lon="7.43885">
        <ele>227</ele>
        <time>2021-08-08T05:29:13Z</time>
      </trkpt>
      <trkpt lat="48.88984" lon="7.43885">
        <ele>227</ele>
        <time>2021-08-08T05:29:14Z</time>
      </trkpt>
      <trkpt lat="48.88993" lon="7.43902">
        <ele>226</ele>
        <time>2021-08-08T05:29:15Z</time>
      </trkpt>
      <trkpt lat="48.88993" lon="7.43902">
        <ele>226</ele>
        <time>2021-08-08T05:29:16Z</time>
      </trkpt>
      <trkpt lat="48.88998" lon="7.43919">
        <ele>226</ele>
        <time>2021-08-08T05:29:17Z</time>
      </trkpt>
      <trkpt lat="48.88998" lon="7.43919">
        <ele>225</ele>
        <time>2021-08-08T05:29:18Z</time>
      </trkpt>
      <trkpt lat="48.89004" lon="7.43936">
        <ele>225</ele>
        <time>2021-08-08T05:29:19Z</time>
      </trkpt>
      <trkpt lat="48.89004" lon="7.43936">
        <ele>225</ele>
        <time>2021-08-08T05:29:20Z</time>
      </trkpt>
      <trkpt lat="48.89009" lon="7.43956">
        <ele>224</ele>
        <time>2021-08-08T05:29:21Z</time>
      </trkpt>
      <trkpt lat="48.89009" lon="7.43956">
        <ele>224</ele>
        <time>2021-08-08T05:29:22Z</time>
      </trkpt>
      <trkpt lat="48.89011" lon="7.43967">
        <ele>223</ele>
        <time>2021-08-08T05:29:23Z</time>
      </trkpt>
      <trkpt lat="48.89011" lon="7.43967">
        <ele>223</ele>
        <time>2021-08-08T05:29:24Z</time>
      </trkpt>
      <trkpt lat="48.89014" lon="7.43981">
        <ele>223</ele>
        <time>2021-08-08T05:29:25Z</time>
      </trkpt>
      <trkpt lat="48.89014" lon="7.43981">
        <ele>223</ele>
        <time>2021-08-08T05:29:26Z</time>
      </trkpt>
      <trkpt lat="48.89015" lon="7.4399">
        <ele>223</ele>
        <time>2021-08-08T05:29:27Z</time>
      </trkpt>
      <trkpt lat="48.89015" lon="7.4399">
        <ele>222</ele>
        <time>2021-08-08T05:29:28Z</time>
      </trkpt>
      <trkpt lat="48.89018" lon="7.43998">
        <ele>222</ele>
        <time>2021-08-08T05:29:29Z</time>
      </trkpt>
      <trkpt lat="48.89018" lon="7.43998">
        <ele>222</ele>
        <time>2021-08-08T05:29:30Z</time>
      </trkpt>
      <trkpt lat="48.8902" lon="7.44005">
        <ele>222</ele>
        <time>2021-08-08T05:29:31Z</time>
      </trkpt>
      <trkpt lat="48.8902" lon="7.44005">
        <ele>222</ele>
        <time>2021-08-08T05:29:32Z</time>
      </trkpt>
      <trkpt lat="48.89024" lon="7.44017">
        <ele>222</ele>
        <time>2021-08-08T05:29:33Z</time>
      </trkpt>
      <trkpt lat="48.89024" lon="7.44017">
        <ele>222</ele>
        <time>2021-08-08T05:29:34Z</time>
      </trkpt>
      <trkpt lat="48.89025" lon="7.44028">
        <ele>222</ele>
        <time>2021-08-08T05:29:35Z</time>
      </trkpt>
      <trkpt lat="48.89025" lon="7.44028">
        <ele>222</ele>
        <time>2021-08-08T05:29:36Z</time>
      </trkpt>
      <trkpt lat="48.89027" lon="7.44036">
        <ele>222</ele>
        <time>2021-08-08T05:29:37Z</time>
      </trkpt>
      <trkpt lat="48.89027" lon="7.44036">
        <ele>222</ele>
        <time>2021-08-08T05:29:38Z</time>
      </trkpt>
      <trkpt lat="48.89029" lon="7.44046">
        <ele>222</ele>
        <time>2021-08-08T05:29:39Z</time>
      </trkpt>
      <trkpt lat="48.89029" lon="7.44046">
        <ele>222</ele>
        <time>2021-08-08T05:29:40Z</time>
      </trkpt>
      <trkpt lat="48.89026" lon="7.44059">
        <ele>222</ele>
        <time>2021-08-08T05:29:41Z</time>
      </trkpt>
      <trkpt lat="48.89026" lon="7.44059">
        <ele>222</ele>
        <time>2021-08-08T05:29:42Z</time>
      </trkpt>
      <trkpt lat="48.89027" lon="7.44074">
        <ele>222</ele>
        <time>2021-08-08T05:29:43Z</time>
      </trkpt>
      <trkpt lat="48.89027" lon="7.44074">
        <ele>221</ele>
        <time>2021-08-08T05:29:44Z</time>
      </trkpt>
      <trkpt lat="48.89027" lon="7.44096">
        <ele>221</ele>
        <time>2021-08-08T05:29:45Z</time>
      </trkpt>
      <trkpt lat="48.89027" lon="7.44096">
        <ele>221</ele>
        <time>2021-08-08T05:29:46Z</time>
      </trkpt>
      <trkpt lat="48.89025" lon="7.44113">
        <ele>221</ele>
        <time>2021-08-08T05:29:47Z</time>
      </trkpt>
      <trkpt lat="48.89025" lon="7.44113">
        <ele>220</ele>
        <time>2021-08-08T05:29:48Z</time>
      </trkpt>
      <trkpt lat="48.89025" lon="7.4413">
        <ele>220</ele>
        <time>2021-08-08T05:29:49Z</time>
      </trkpt>
      <trkpt lat="48.89024" lon="7.44136">
        <ele>220</ele>
        <time>2021-08-08T05:29:50Z</time>
      </trkpt>
      <trkpt lat="48.89022" lon="7.44143">
        <ele>220</ele>
        <time>2021-08-08T05:29:51Z</time>
      </trkpt>
      <trkpt lat="48.89022" lon="7.44143">
        <ele>219</ele>
        <time>2021-08-08T05:29:52Z</time>
      </trkpt>
      <trkpt lat="48.89023" lon="7.44159">
        <ele>219</ele>
        <time>2021-08-08T05:29:53Z</time>
      </trkpt>
      <trkpt lat="48.89023" lon="7.44159">
        <ele>219</ele>
        <time>2021-08-08T05:29:54Z</time>
      </trkpt>
      <trkpt lat="48.89022" lon="7.44172">
        <ele>219</ele>
        <time>2021-08-08T05:29:55Z</time>
      </trkpt>
      <trkpt lat="48.89022" lon="7.44172">
        <ele>218</ele>
        <time>2021-08-08T05:29:56Z</time>
      </trkpt>
      <trkpt lat="48.89018" lon="7.44187">
        <ele>218</ele>
        <time>2021-08-08T05:29:57Z</time>
      </trkpt>
      <trkpt lat="48.89018" lon="7.44187">
        <ele>218</ele>
        <time>2021-08-08T05:29:58Z</time>
      </trkpt>
      <trkpt lat="48.89011" lon="7.44205">
        <ele>218</ele>
        <time>2021-08-08T05:29:59Z</time>
      </trkpt>
      <trkpt lat="48.89011" lon="7.44205">
        <ele>217</ele>
        <time>2021-08-08T05:30:00Z</time>
      </trkpt>
      <trkpt lat="48.89006" lon="7.44221">
        <ele>217</ele>
        <time>2021-08-08T05:30:01Z</time>
      </trkpt>
      <trkpt lat="48.89006" lon="7.44221">
        <ele>217</ele>
        <time>2021-08-08T05:30:02Z</time>
      </trkpt>
      <trkpt lat="48.89001" lon="7.44234">
        <ele>217</ele>
        <time>2021-08-08T05:30:03Z</time>
      </trkpt>
      <trkpt lat="48.89001" lon="7.44234">
        <ele>217</ele>
        <time>2021-08-08T05:30:04Z</time>
      </trkpt>
      <trkpt lat="48.88994" lon="7.44253">
        <ele>217</ele>
        <time>2021-08-08T05:30:05Z</time>
      </trkpt>
      <trkpt lat="48.88994" lon="7.44253">
        <ele>217</ele>
        <time>2021-08-08T05:30:06Z</time>
      </trkpt>
      <trkpt lat="48.88992" lon="7.4426">
        <ele>217</ele>
        <time>2021-08-08T05:30:07Z</time>
      </trkpt>
      <trkpt lat="48.88992" lon="7.4426">
        <ele>217</ele>
        <time>2021-08-08T05:30:08Z</time>
      </trkpt>
      <trkpt lat="48.88986" lon="7.4427">
        <ele>217</ele>
        <time>2021-08-08T05:30:09Z</time>
      </trkpt>
      <trkpt lat="48.88986" lon="7.4427">
        <ele>217</ele>
        <time>2021-08-08T05:30:10Z</time>
      </trkpt>
      <trkpt lat="48.88981" lon="7.44277">
        <ele>217</ele>
        <time>2021-08-08T05:30:11Z</time>
      </trkpt>
      <trkpt lat="48.88978" lon="7.44283">
        <ele>218</ele>
        <time>2021-08-08T05:30:12Z</time>
      </trkpt>
      <trkpt lat="48.88976" lon="7.44291">
        <ele>218</ele>
        <time>2021-08-08T05:30:13Z</time>
      </trkpt>
      <trkpt lat="48.88976" lon="7.44291">
        <ele>218</ele>
        <time>2021-08-08T05:30:14Z</time>
      </trkpt>
      <trkpt lat="48.88973" lon="7.44301">
        <ele>218</ele>
        <time>2021-08-08T05:30:15Z</time>
      </trkpt>
      <trkpt lat="48.88973" lon="7.44301">
        <ele>218</ele>
        <time>2021-08-08T05:30:16Z</time>
      </trkpt>
      <trkpt lat="48.88972" lon="7.44306">
        <ele>219</ele>
        <time>2021-08-08T05:30:17Z</time>
      </trkpt>
      <trkpt lat="48.88972" lon="7.44306">
        <ele>219</ele>
        <time>2021-08-08T05:30:18Z</time>
      </trkpt>
      <trkpt lat="48.88969" lon="7.44309">
        <ele>219</ele>
        <time>2021-08-08T05:30:19Z</time>
      </trkpt>
      <trkpt lat="48.88969" lon="7.44309">
        <ele>219</ele>
        <time>2021-08-08T05:30:20Z</time>
      </trkpt>
      <trkpt lat="48.88968" lon="7.44313">
        <ele>220</ele>
        <time>2021-08-08T05:30:21Z</time>
      </trkpt>
      <trkpt lat="48.88968" lon="7.44313">
        <ele>220</ele>
        <time>2021-08-08T05:30:22Z</time>
      </trkpt>
      <trkpt lat="48.88967" lon="7.44313">
        <ele>220</ele>
        <time>2021-08-08T05:30:23Z</time>
      </trkpt>
      <trkpt lat="48.88967" lon="7.44313">
        <ele>220</ele>
        <time>2021-08-08T05:30:24Z</time>
      </trkpt>
      <trkpt lat="48.88964" lon="7.44312">
        <ele>220</ele>
        <time>2021-08-08T05:30:25Z</time>
      </trkpt>
      <trkpt lat="48.88963" lon="7.44312">
        <ele>220</ele>
        <time>2021-08-08T05:30:26Z</time>
      </trkpt>
      <trkpt lat="48.88963" lon="7.44312">
        <ele>220</ele>
        <time>2021-08-08T05:30:27Z</time>
      </trkpt>
      <trkpt lat="48.88959" lon="7.44313">
        <ele>220</ele>
        <time>2021-08-08T05:30:28Z</time>
      </trkpt>
      <trkpt lat="48.88957" lon="7.44313">
        <ele>221</ele>
        <time>2021-08-08T05:30:29Z</time>
      </trkpt>
      <trkpt lat="48.88956" lon="7.44313">
        <ele>221</ele>
        <time>2021-08-08T05:30:30Z</time>
      </trkpt>
      <trkpt lat="48.88955" lon="7.44314">
        <ele>221</ele>
        <time>2021-08-08T05:30:31Z</time>
      </trkpt>
      <trkpt lat="48.88955" lon="7.44314">
        <ele>221</ele>
        <time>2021-08-08T05:30:32Z</time>
      </trkpt>
      <trkpt lat="48.88953" lon="7.44317">
        <ele>221</ele>
        <time>2021-08-08T05:30:33Z</time>
      </trkpt>
      <trkpt lat="48.88953" lon="7.44317">
        <ele>221</ele>
        <time>2021-08-08T05:30:34Z</time>
      </trkpt>
      <trkpt lat="48.88948" lon="7.44325">
        <ele>221</ele>
        <time>2021-08-08T05:30:35Z</time>
      </trkpt>
      <trkpt lat="48.88948" lon="7.44325">
        <ele>221</ele>
        <time>2021-08-08T05:30:36Z</time>
      </trkpt>
      <trkpt lat="48.88943" lon="7.4433">
        <ele>221</ele>
        <time>2021-08-08T05:30:37Z</time>
      </trkpt>
      <trkpt lat="48.88943" lon="7.4433">
        <ele>222</ele>
        <time>2021-08-08T05:30:38Z</time>
      </trkpt>
      <trkpt lat="48.8894" lon="7.44332">
        <ele>222</ele>
        <time>2021-08-08T05:30:39Z</time>
      </trkpt>
      <trkpt lat="48.8894" lon="7.44332">
        <ele>222</ele>
        <time>2021-08-08T05:30:40Z</time>
      </trkpt>
      <trkpt lat="48.88935" lon="7.44338">
        <ele>222</ele>
        <time>2021-08-08T05:30:41Z</time>
      </trkpt>
      <trkpt lat="48.88933" lon="7.44342">
        <ele>222</ele>
        <time>2021-08-08T05:30:42Z</time>
      </trkpt>
      <trkpt lat="48.88933" lon="7.44342">
        <ele>222</ele>
        <time>2021-08-08T05:30:43Z</time>
      </trkpt>
      <trkpt lat="48.8893" lon="7.44348">
        <ele>222</ele>
        <time>2021-08-08T05:30:44Z</time>
      </trkpt>
      <trkpt lat="48.88929" lon="7.44351">
        <ele>222</ele>
        <time>2021-08-08T05:30:45Z</time>
      </trkpt>
      <trkpt lat="48.88929" lon="7.44351">
        <ele>222</ele>
        <time>2021-08-08T05:30:46Z</time>
      </trkpt>
      <trkpt lat="48.88926" lon="7.44357">
        <ele>222</ele>
        <time>2021-08-08T05:30:47Z</time>
      </trkpt>
      <trkpt lat="48.88926" lon="7.44357">
        <ele>222</ele>
        <time>2021-08-08T05:30:48Z</time>
      </trkpt>
      <trkpt lat="48.88922" lon="7.44361">
        <ele>222</ele>
        <time>2021-08-08T05:30:49Z</time>
      </trkpt>
      <trkpt lat="48.88922" lon="7.44361">
        <ele>222</ele>
        <time>2021-08-08T05:30:50Z</time>
      </trkpt>
      <trkpt lat="48.88917" lon="7.4437">
        <ele>222</ele>
        <time>2021-08-08T05:30:51Z</time>
      </trkpt>
      <trkpt lat="48.88917" lon="7.4437">
        <ele>222</ele>
        <time>2021-08-08T05:30:52Z</time>
      </trkpt>
      <trkpt lat="48.88916" lon="7.44376">
        <ele>222</ele>
        <time>2021-08-08T05:30:53Z</time>
      </trkpt>
      <trkpt lat="48.88916" lon="7.44376">
        <ele>222</ele>
        <time>2021-08-08T05:30:54Z</time>
      </trkpt>
      <trkpt lat="48.88916" lon="7.44382">
        <ele>222</ele>
        <time>2021-08-08T05:30:55Z</time>
      </trkpt>
      <trkpt lat="48.88916" lon="7.44382">
        <ele>222</ele>
        <time>2021-08-08T05:30:56Z</time>
      </trkpt>
      <trkpt lat="48.88915" lon="7.44387">
        <ele>222</ele>
        <time>2021-08-08T05:30:57Z</time>
      </trkpt>
      <trkpt lat="48.88915" lon="7.44387">
        <ele>222</ele>
        <time>2021-08-08T05:30:58Z</time>
      </trkpt>
      <trkpt lat="48.88914" lon="7.44391">
        <ele>222</ele>
        <time>2021-08-08T05:30:59Z</time>
      </trkpt>
      <trkpt lat="48.88914" lon="7.44391">
        <ele>223</ele>
        <time>2021-08-08T05:31:00Z</time>
      </trkpt>
      <trkpt lat="48.88913" lon="7.44395">
        <ele>223</ele>
        <time>2021-08-08T05:31:01Z</time>
      </trkpt>
      <trkpt lat="48.88913" lon="7.44395">
        <ele>223</ele>
        <time>2021-08-08T05:31:02Z</time>
      </trkpt>
      <trkpt lat="48.88912" lon="7.44402">
        <ele>223</ele>
        <time>2021-08-08T05:31:03Z</time>
      </trkpt>
      <trkpt lat="48.88912" lon="7.44402">
        <ele>223</ele>
        <time>2021-08-08T05:31:04Z</time>
      </trkpt>
      <trkpt lat="48.88911" lon="7.44406">
        <ele>223</ele>
        <time>2021-08-08T05:31:05Z</time>
      </trkpt>
      <trkpt lat="48.88911" lon="7.44406">
        <ele>223</ele>
        <time>2021-08-08T05:31:06Z</time>
      </trkpt>
      <trkpt lat="48.8891" lon="7.44409">
        <ele>223</ele>
        <time>2021-08-08T05:31:07Z</time>
      </trkpt>
      <trkpt lat="48.8891" lon="7.44409">
        <ele>223</ele>
        <time>2021-08-08T05:31:08Z</time>
      </trkpt>
      <trkpt lat="48.88907" lon="7.44416">
        <ele>224</ele>
        <time>2021-08-08T05:31:09Z</time>
      </trkpt>
      <trkpt lat="48.88905" lon="7.44421">
        <ele>224</ele>
        <time>2021-08-08T05:31:10Z</time>
      </trkpt>
      <trkpt lat="48.88902" lon="7.44427">
        <ele>224</ele>
        <time>2021-08-08T05:31:11Z</time>
      </trkpt>
      <trkpt lat="48.88902" lon="7.44427">
        <ele>224</ele>
        <time>2021-08-08T05:31:12Z</time>
      </trkpt>
      <trkpt lat="48.88901" lon="7.44433">
        <ele>224</ele>
        <time>2021-08-08T05:31:13Z</time>
      </trkpt>
      <trkpt lat="48.889" lon="7.44434">
        <ele>225</ele>
        <time>2021-08-08T05:31:14Z</time>
      </trkpt>
      <trkpt lat="48.889" lon="7.44434">
        <ele>225</ele>
        <time>2021-08-08T05:31:15Z</time>
      </trkpt>
      <trkpt lat="48.88897" lon="7.44437">
        <ele>225</ele>
        <time>2021-08-08T05:31:16Z</time>
      </trkpt>
      <trkpt lat="48.88897" lon="7.44437">
        <ele>225</ele>
        <time>2021-08-08T05:31:17Z</time>
      </trkpt>
      <trkpt lat="48.88893" lon="7.44441">
        <ele>226</ele>
        <time>2021-08-08T05:31:18Z</time>
      </trkpt>
      <trkpt lat="48.88893" lon="7.44441">
        <ele>226</ele>
        <time>2021-08-08T05:31:19Z</time>
      </trkpt>
      <trkpt lat="48.8889" lon="7.44446">
        <ele>226</ele>
        <time>2021-08-08T05:31:20Z</time>
      </trkpt>
      <trkpt lat="48.88889" lon="7.44448">
        <ele>226</ele>
        <time>2021-08-08T05:31:21Z</time>
      </trkpt>
      <trkpt lat="48.88889" lon="7.44448">
        <ele>227</ele>
        <time>2021-08-08T05:31:22Z</time>
      </trkpt>
      <trkpt lat="48.88886" lon="7.44452">
        <ele>227</ele>
        <time>2021-08-08T05:31:23Z</time>
      </trkpt>
      <trkpt lat="48.88886" lon="7.44452">
        <ele>227</ele>
        <time>2021-08-08T05:31:24Z</time>
      </trkpt>
      <trkpt lat="48.88883" lon="7.44456">
        <ele>227</ele>
        <time>2021-08-08T05:31:25Z</time>
      </trkpt>
      <trkpt lat="48.88881" lon="7.44458">
        <ele>227</ele>
        <time>2021-08-08T05:31:26Z</time>
      </trkpt>
      <trkpt lat="48.88881" lon="7.44458">
        <ele>227</ele>
        <time>2021-08-08T05:31:27Z</time>
      </trkpt>
      <trkpt lat="48.88879" lon="7.44462">
        <ele>227</ele>
        <time>2021-08-08T05:31:28Z</time>
      </trkpt>
      <trkpt lat="48.88879" lon="7.44462">
        <ele>227</ele>
        <time>2021-08-08T05:31:29Z</time>
      </trkpt>
      <trkpt lat="48.88873" lon="7.44472">
        <ele>227</ele>
        <time>2021-08-08T05:31:30Z</time>
      </trkpt>
      <trkpt lat="48.88873" lon="7.44472">
        <ele>227</ele>
        <time>2021-08-08T05:31:31Z</time>
      </trkpt>
      <trkpt lat="48.88869" lon="7.44478">
        <ele>228</ele>
        <time>2021-08-08T05:31:32Z</time>
      </trkpt>
      <trkpt lat="48.88869" lon="7.44478">
        <ele>228</ele>
        <time>2021-08-08T05:31:33Z</time>
      </trkpt>
      <trkpt lat="48.88865" lon="7.44483">
        <ele>228</ele>
        <time>2021-08-08T05:31:34Z</time>
      </trkpt>
      <trkpt lat="48.88865" lon="7.44483">
        <ele>228</ele>
        <time>2021-08-08T05:31:35Z</time>
      </trkpt>
      <trkpt lat="48.88862" lon="7.44487">
        <ele>229</ele>
        <time>2021-08-08T05:31:36Z</time>
      </trkpt>
      <trkpt lat="48.88862" lon="7.44487">
        <ele>229</ele>
        <time>2021-08-08T05:31:37Z</time>
      </trkpt>
      <trkpt lat="48.88858" lon="7.4449">
        <ele>229</ele>
        <time>2021-08-08T05:31:38Z</time>
      </trkpt>
      <trkpt lat="48.88857" lon="7.44494">
        <ele>229</ele>
        <time>2021-08-08T05:31:39Z</time>
      </trkpt>
      <trkpt lat="48.88857" lon="7.44494">
        <ele>229</ele>
        <time>2021-08-08T05:31:40Z</time>
      </trkpt>
      <trkpt lat="48.88855" lon="7.44499">
        <ele>229</ele>
        <time>2021-08-08T05:31:41Z</time>
      </trkpt>
      <trkpt lat="48.88855" lon="7.44499">
        <ele>230</ele>
        <time>2021-08-08T05:31:42Z</time>
      </trkpt>
      <trkpt lat="48.88855" lon="7.44504">
        <ele>230</ele>
        <time>2021-08-08T05:31:43Z</time>
      </trkpt>
      <trkpt lat="48.88855" lon="7.44504">
        <ele>230</ele>
        <time>2021-08-08T05:31:44Z</time>
      </trkpt>
      <trkpt lat="48.88853" lon="7.44507">
        <ele>230</ele>
        <time>2021-08-08T05:31:45Z</time>
      </trkpt>
      <trkpt lat="48.88852" lon="7.4451">
        <ele>230</ele>
        <time>2021-08-08T05:31:46Z</time>
      </trkpt>
      <trkpt lat="48.88852" lon="7.4451">
        <ele>230</ele>
        <time>2021-08-08T05:31:47Z</time>
      </trkpt>
      <trkpt lat="48.88851" lon="7.44517">
        <ele>230</ele>
        <time>2021-08-08T05:31:48Z</time>
      </trkpt>
      <trkpt lat="48.88848" lon="7.44524">
        <ele>230</ele>
        <time>2021-08-08T05:31:49Z</time>
      </trkpt>
      <trkpt lat="48.88847" lon="7.4453">
        <ele>230</ele>
        <time>2021-08-08T05:31:50Z</time>
      </trkpt>
      <trkpt lat="48.88847" lon="7.4453">
        <ele>230</ele>
        <time>2021-08-08T05:31:51Z</time>
      </trkpt>
      <trkpt lat="48.88846" lon="7.4454">
        <ele>230</ele>
        <time>2021-08-08T05:31:52Z</time>
      </trkpt>
      <trkpt lat="48.88846" lon="7.4454">
        <ele>230</ele>
        <time>2021-08-08T05:31:53Z</time>
      </trkpt>
      <trkpt lat="48.88845" lon="7.4455">
        <ele>230</ele>
        <time>2021-08-08T05:31:54Z</time>
      </trkpt>
      <trkpt lat="48.88845" lon="7.4455">
        <ele>230</ele>
        <time>2021-08-08T05:31:55Z</time>
      </trkpt>
      <trkpt lat="48.88842" lon="7.44561">
        <ele>230</ele>
        <time>2021-08-08T05:31:56Z</time>
      </trkpt>
      <trkpt lat="48.88842" lon="7.44561">
        <ele>230</ele>
        <time>2021-08-08T05:31:57Z</time>
      </trkpt>
      <trkpt lat="48.8884" lon="7.44569">
        <ele>230</ele>
        <time>2021-08-08T05:31:58Z</time>
      </trkpt>
      <trkpt lat="48.88839" lon="7.44573">
        <ele>230</ele>
        <time>2021-08-08T05:31:59Z</time>
      </trkpt>
      <trkpt lat="48.88839" lon="7.44573">
        <ele>230</ele>
        <time>2021-08-08T05:32:00Z</time>
      </trkpt>
      <trkpt lat="48.88838" lon="7.4458">
        <ele>231</ele>
        <time>2021-08-08T05:32:01Z</time>
      </trkpt>
      <trkpt lat="48.88838" lon="7.44583">
        <ele>231</ele>
        <time>2021-08-08T05:32:02Z</time>
      </trkpt>
      <trkpt lat="48.88838" lon="7.44583">
        <ele>231</ele>
        <time>2021-08-08T05:32:03Z</time>
      </trkpt>
      <trkpt lat="48.88836" lon="7.44592">
        <ele>231</ele>
        <time>2021-08-08T05:32:04Z</time>
      </trkpt>
      <trkpt lat="48.88835" lon="7.44595">
        <ele>232</ele>
        <time>2021-08-08T05:32:05Z</time>
      </trkpt>
      <trkpt lat="48.88835" lon="7.44599">
        <ele>232</ele>
        <time>2021-08-08T05:32:06Z</time>
      </trkpt>
      <trkpt lat="48.88835" lon="7.44599">
        <ele>232</ele>
        <time>2021-08-08T05:32:07Z</time>
      </trkpt>
      <trkpt lat="48.88834" lon="7.44607">
        <ele>232</ele>
        <time>2021-08-08T05:32:08Z</time>
      </trkpt>
      <trkpt lat="48.88833" lon="7.4461">
        <ele>232</ele>
        <time>2021-08-08T05:32:09Z</time>
      </trkpt>
      <trkpt lat="48.88833" lon="7.4461">
        <ele>233</ele>
        <time>2021-08-08T05:32:10Z</time>
      </trkpt>
      <trkpt lat="48.88832" lon="7.44616">
        <ele>233</ele>
        <time>2021-08-08T05:32:11Z</time>
      </trkpt>
      <trkpt lat="48.88832" lon="7.44616">
        <ele>233</ele>
        <time>2021-08-08T05:32:12Z</time>
      </trkpt>
      <trkpt lat="48.88831" lon="7.44622">
        <ele>233</ele>
        <time>2021-08-08T05:32:13Z</time>
      </trkpt>
      <trkpt lat="48.8883" lon="7.44629">
        <ele>233</ele>
        <time>2021-08-08T05:32:14Z</time>
      </trkpt>
      <trkpt lat="48.8883" lon="7.44629">
        <ele>233</ele>
        <time>2021-08-08T05:32:15Z</time>
      </trkpt>
      <trkpt lat="48.88827" lon="7.44639">
        <ele>234</ele>
        <time>2021-08-08T05:32:16Z</time>
      </trkpt>
      <trkpt lat="48.88827" lon="7.44639">
        <ele>234</ele>
        <time>2021-08-08T05:32:17Z</time>
      </trkpt>
      <trkpt lat="48.88822" lon="7.44651">
        <ele>234</ele>
        <time>2021-08-08T05:32:18Z</time>
      </trkpt>
      <trkpt lat="48.8882" lon="7.44657">
        <ele>234</ele>
        <time>2021-08-08T05:32:19Z</time>
      </trkpt>
      <trkpt lat="48.8882" lon="7.44657">
        <ele>234</ele>
        <time>2021-08-08T05:32:20Z</time>
      </trkpt>
      <trkpt lat="48.88816" lon="7.44669">
        <ele>234</ele>
        <time>2021-08-08T05:32:21Z</time>
      </trkpt>
      <trkpt lat="48.88815" lon="7.44674">
        <ele>234</ele>
        <time>2021-08-08T05:32:22Z</time>
      </trkpt>
      <trkpt lat="48.88815" lon="7.44674">
        <ele>234</ele>
        <time>2021-08-08T05:32:23Z</time>
      </trkpt>
      <trkpt lat="48.88814" lon="7.44684">
        <ele>234</ele>
        <time>2021-08-08T05:32:24Z</time>
      </trkpt>
      <trkpt lat="48.88813" lon="7.44687">
        <ele>234</ele>
        <time>2021-08-08T05:32:25Z</time>
      </trkpt>
      <trkpt lat="48.88813" lon="7.4469">
        <ele>235</ele>
        <time>2021-08-08T05:32:26Z</time>
      </trkpt>
      <trkpt lat="48.88813" lon="7.4469">
        <ele>235</ele>
        <time>2021-08-08T05:32:27Z</time>
      </trkpt>
      <trkpt lat="48.88816" lon="7.44697">
        <ele>235</ele>
        <time>2021-08-08T05:32:28Z</time>
      </trkpt>
      <trkpt lat="48.88816" lon="7.44697">
        <ele>235</ele>
        <time>2021-08-08T05:32:29Z</time>
      </trkpt>
      <trkpt lat="48.88818" lon="7.44705">
        <ele>235</ele>
        <time>2021-08-08T05:32:30Z</time>
      </trkpt>
      <trkpt lat="48.88818" lon="7.44705">
        <ele>235</ele>
        <time>2021-08-08T05:32:31Z</time>
      </trkpt>
      <trkpt lat="48.8882" lon="7.44714">
        <ele>236</ele>
        <time>2021-08-08T05:32:32Z</time>
      </trkpt>
      <trkpt lat="48.8882" lon="7.44719">
        <ele>236</ele>
        <time>2021-08-08T05:32:33Z</time>
      </trkpt>
      <trkpt lat="48.8882" lon="7.44719">
        <ele>236</ele>
        <time>2021-08-08T05:32:34Z</time>
      </trkpt>
      <trkpt lat="48.88817" lon="7.44733">
        <ele>236</ele>
        <time>2021-08-08T05:32:35Z</time>
      </trkpt>
      <trkpt lat="48.88817" lon="7.44733">
        <ele>236</ele>
        <time>2021-08-08T05:32:36Z</time>
      </trkpt>
      <trkpt lat="48.8881" lon="7.4474">
        <ele>236</ele>
        <time>2021-08-08T05:32:37Z</time>
      </trkpt>
      <trkpt lat="48.88807" lon="7.44746">
        <ele>237</ele>
        <time>2021-08-08T05:32:38Z</time>
      </trkpt>
      <trkpt lat="48.88806" lon="7.44749">
        <ele>237</ele>
        <time>2021-08-08T05:32:39Z</time>
      </trkpt>
      <trkpt lat="48.88806" lon="7.44749">
        <ele>237</ele>
        <time>2021-08-08T05:32:40Z</time>
      </trkpt>
      <trkpt lat="48.88801" lon="7.4476">
        <ele>237</ele>
        <time>2021-08-08T05:32:41Z</time>
      </trkpt>
      <trkpt lat="48.88801" lon="7.4476">
        <ele>237</ele>
        <time>2021-08-08T05:32:42Z</time>
      </trkpt>
      <trkpt lat="48.88799" lon="7.44767">
        <ele>237</ele>
        <time>2021-08-08T05:32:43Z</time>
      </trkpt>
      <trkpt lat="48.88799" lon="7.44767">
        <ele>237</ele>
        <time>2021-08-08T05:32:44Z</time>
      </trkpt>
      <trkpt lat="48.88799" lon="7.44776">
        <ele>237</ele>
        <time>2021-08-08T05:32:45Z</time>
      </trkpt>
      <trkpt lat="48.88801" lon="7.4478">
        <ele>237</ele>
        <time>2021-08-08T05:32:46Z</time>
      </trkpt>
      <trkpt lat="48.88801" lon="7.4478">
        <ele>237</ele>
        <time>2021-08-08T05:32:47Z</time>
      </trkpt>
      <trkpt lat="48.88803" lon="7.44788">
        <ele>237</ele>
        <time>2021-08-08T05:32:48Z</time>
      </trkpt>
      <trkpt lat="48.88805" lon="7.44792">
        <ele>237</ele>
        <time>2021-08-08T05:32:49Z</time>
      </trkpt>
      <trkpt lat="48.88805" lon="7.44792">
        <ele>237</ele>
        <time>2021-08-08T05:32:50Z</time>
      </trkpt>
      <trkpt lat="48.88806" lon="7.44801">
        <ele>237</ele>
        <time>2021-08-08T05:32:51Z</time>
      </trkpt>
      <trkpt lat="48.88806" lon="7.44801">
        <ele>237</ele>
        <time>2021-08-08T05:32:52Z</time>
      </trkpt>
      <trkpt lat="48.88809" lon="7.4481">
        <ele>237</ele>
        <time>2021-08-08T05:32:53Z</time>
      </trkpt>
      <trkpt lat="48.88809" lon="7.4481">
        <ele>237</ele>
        <time>2021-08-08T05:32:54Z</time>
      </trkpt>
      <trkpt lat="48.88811" lon="7.44821">
        <ele>237</ele>
        <time>2021-08-08T05:32:55Z</time>
      </trkpt>
      <trkpt lat="48.88811" lon="7.44821">
        <ele>237</ele>
        <time>2021-08-08T05:32:56Z</time>
      </trkpt>
      <trkpt lat="48.88815" lon="7.44833">
        <ele>237</ele>
        <time>2021-08-08T05:32:57Z</time>
      </trkpt>
      <trkpt lat="48.88815" lon="7.44833">
        <ele>237</ele>
        <time>2021-08-08T05:32:58Z</time>
      </trkpt>
      <trkpt lat="48.88819" lon="7.44844">
        <ele>237</ele>
        <time>2021-08-08T05:32:59Z</time>
      </trkpt>
      <trkpt lat="48.88821" lon="7.4485">
        <ele>237</ele>
        <time>2021-08-08T05:33:00Z</time>
      </trkpt>
      <trkpt lat="48.88821" lon="7.4485">
        <ele>237</ele>
        <time>2021-08-08T05:33:01Z</time>
      </trkpt>
      <trkpt lat="48.88824" lon="7.44861">
        <ele>238</ele>
        <time>2021-08-08T05:33:02Z</time>
      </trkpt>
      <trkpt lat="48.88824" lon="7.44861">
        <ele>238</ele>
        <time>2021-08-08T05:33:03Z</time>
      </trkpt>
      <trkpt lat="48.88827" lon="7.44874">
        <ele>238</ele>
        <time>2021-08-08T05:33:04Z</time>
      </trkpt>
      <trkpt lat="48.88827" lon="7.44874">
        <ele>238</ele>
        <time>2021-08-08T05:33:05Z</time>
      </trkpt>
      <trkpt lat="48.8883" lon="7.44886">
        <ele>238</ele>
        <time>2021-08-08T05:33:06Z</time>
      </trkpt>
      <trkpt lat="48.88832" lon="7.44891">
        <ele>238</ele>
        <time>2021-08-08T05:33:07Z</time>
      </trkpt>
      <trkpt lat="48.88832" lon="7.44891">
        <ele>238</ele>
        <time>2021-08-08T05:33:08Z</time>
      </trkpt>
      <trkpt lat="48.88835" lon="7.44904">
        <ele>238</ele>
        <time>2021-08-08T05:33:09Z</time>
      </trkpt>
      <trkpt lat="48.88835" lon="7.44904">
        <ele>238</ele>
        <time>2021-08-08T05:33:10Z</time>
      </trkpt>
      <trkpt lat="48.88839" lon="7.44915">
        <ele>239</ele>
        <time>2021-08-08T05:33:11Z</time>
      </trkpt>
      <trkpt lat="48.88839" lon="7.44915">
        <ele>239</ele>
        <time>2021-08-08T05:33:12Z</time>
      </trkpt>
      <trkpt lat="48.88843" lon="7.44927">
        <ele>239</ele>
        <time>2021-08-08T05:33:13Z</time>
      </trkpt>
      <trkpt lat="48.88843" lon="7.44927">
        <ele>239</ele>
        <time>2021-08-08T05:33:14Z</time>
      </trkpt>
      <trkpt lat="48.88845" lon="7.44936">
        <ele>239</ele>
        <time>2021-08-08T05:33:15Z</time>
      </trkpt>
      <trkpt lat="48.88845" lon="7.44936">
        <ele>239</ele>
        <time>2021-08-08T05:33:16Z</time>
      </trkpt>
      <trkpt lat="48.88849" lon="7.44948">
        <ele>239</ele>
        <time>2021-08-08T05:33:17Z</time>
      </trkpt>
      <trkpt lat="48.88849" lon="7.44948">
        <ele>239</ele>
        <time>2021-08-08T05:33:18Z</time>
      </trkpt>
      <trkpt lat="48.88854" lon="7.44959">
        <ele>239</ele>
        <time>2021-08-08T05:33:19Z</time>
      </trkpt>
      <trkpt lat="48.88854" lon="7.44959">
        <ele>239</ele>
        <time>2021-08-08T05:33:20Z</time>
      </trkpt>
      <trkpt lat="48.88856" lon="7.4497">
        <ele>239</ele>
        <time>2021-08-08T05:33:21Z</time>
      </trkpt>
      <trkpt lat="48.88856" lon="7.4497">
        <ele>239</ele>
        <time>2021-08-08T05:33:22Z</time>
      </trkpt>
      <trkpt lat="48.88858" lon="7.44982">
        <ele>239</ele>
        <time>2021-08-08T05:33:23Z</time>
      </trkpt>
      <trkpt lat="48.88858" lon="7.44982">
        <ele>239</ele>
        <time>2021-08-08T05:33:24Z</time>
      </trkpt>
      <trkpt lat="48.88857" lon="7.44994">
        <ele>239</ele>
        <time>2021-08-08T05:33:25Z</time>
      </trkpt>
      <trkpt lat="48.88857" lon="7.44994">
        <ele>239</ele>
        <time>2021-08-08T05:33:26Z</time>
      </trkpt>
      <trkpt lat="48.88854" lon="7.45009">
        <ele>239</ele>
        <time>2021-08-08T05:33:27Z</time>
      </trkpt>
      <trkpt lat="48.88854" lon="7.45009">
        <ele>239</ele>
        <time>2021-08-08T05:33:28Z</time>
      </trkpt>
      <trkpt lat="48.88851" lon="7.45025">
        <ele>238</ele>
        <time>2021-08-08T05:33:29Z</time>
      </trkpt>
      <trkpt lat="48.88851" lon="7.45025">
        <ele>238</ele>
        <time>2021-08-08T05:33:30Z</time>
      </trkpt>
      <trkpt lat="48.88849" lon="7.45041">
        <ele>238</ele>
        <time>2021-08-08T05:33:31Z</time>
      </trkpt>
      <trkpt lat="48.88849" lon="7.45041">
        <ele>238</ele>
        <time>2021-08-08T05:33:32Z</time>
      </trkpt>
      <trkpt lat="48.8885" lon="7.45054">
        <ele>238</ele>
        <time>2021-08-08T05:33:33Z</time>
      </trkpt>
      <trkpt lat="48.8885" lon="7.45054">
        <ele>238</ele>
        <time>2021-08-08T05:33:34Z</time>
      </trkpt>
      <trkpt lat="48.88852" lon="7.45067">
        <ele>238</ele>
        <time>2021-08-08T05:33:35Z</time>
      </trkpt>
      <trkpt lat="48.88852" lon="7.45067">
        <ele>238</ele>
        <time>2021-08-08T05:33:36Z</time>
      </trkpt>
      <trkpt lat="48.88855" lon="7.45083">
        <ele>237</ele>
        <time>2021-08-08T05:33:37Z</time>
      </trkpt>
      <trkpt lat="48.88856" lon="7.45092">
        <ele>237</ele>
        <time>2021-08-08T05:33:38Z</time>
      </trkpt>
      <trkpt lat="48.88856" lon="7.45092">
        <ele>237</ele>
        <time>2021-08-08T05:33:39Z</time>
      </trkpt>
      <trkpt lat="48.88859" lon="7.45109">
        <ele>237</ele>
        <time>2021-08-08T05:33:40Z</time>
      </trkpt>
      <trkpt lat="48.88859" lon="7.45109">
        <ele>237</ele>
        <time>2021-08-08T05:33:41Z</time>
      </trkpt>
      <trkpt lat="48.88861" lon="7.45127">
        <ele>237</ele>
        <time>2021-08-08T05:33:42Z</time>
      </trkpt>
      <trkpt lat="48.88862" lon="7.45136">
        <ele>237</ele>
        <time>2021-08-08T05:33:43Z</time>
      </trkpt>
      <trkpt lat="48.88862" lon="7.45136">
        <ele>237</ele>
        <time>2021-08-08T05:33:44Z</time>
      </trkpt>
      <trkpt lat="48.88864" lon="7.45154">
        <ele>236</ele>
        <time>2021-08-08T05:33:45Z</time>
      </trkpt>
      <trkpt lat="48.88864" lon="7.45154">
        <ele>236</ele>
        <time>2021-08-08T05:33:46Z</time>
      </trkpt>
      <trkpt lat="48.88865" lon="7.45172">
        <ele>236</ele>
        <time>2021-08-08T05:33:47Z</time>
      </trkpt>
      <trkpt lat="48.88865" lon="7.45172">
        <ele>236</ele>
        <time>2021-08-08T05:33:48Z</time>
      </trkpt>
      <trkpt lat="48.88868" lon="7.45188">
        <ele>235</ele>
        <time>2021-08-08T05:33:49Z</time>
      </trkpt>
      <trkpt lat="48.8887" lon="7.45196">
        <ele>235</ele>
        <time>2021-08-08T05:33:50Z</time>
      </trkpt>
      <trkpt lat="48.8887" lon="7.45196">
        <ele>235</ele>
        <time>2021-08-08T05:33:51Z</time>
      </trkpt>
      <trkpt lat="48.88871" lon="7.45209">
        <ele>235</ele>
        <time>2021-08-08T05:33:52Z</time>
      </trkpt>
      <trkpt lat="48.88871" lon="7.45209">
        <ele>235</ele>
        <time>2021-08-08T05:33:53Z</time>
      </trkpt>
      <trkpt lat="48.88867" lon="7.45223">
        <ele>235</ele>
        <time>2021-08-08T05:33:54Z</time>
      </trkpt>
      <trkpt lat="48.88865" lon="7.45228">
        <ele>235</ele>
        <time>2021-08-08T05:33:55Z</time>
      </trkpt>
      <trkpt lat="48.88865" lon="7.45228">
        <ele>235</ele>
        <time>2021-08-08T05:33:56Z</time>
      </trkpt>
      <trkpt lat="48.88859" lon="7.45234">
        <ele>235</ele>
        <time>2021-08-08T05:33:57Z</time>
      </trkpt>
      <trkpt lat="48.88859" lon="7.45234">
        <ele>235</ele>
        <time>2021-08-08T05:33:58Z</time>
      </trkpt>
      <trkpt lat="48.88853" lon="7.45238">
        <ele>235</ele>
        <time>2021-08-08T05:33:59Z</time>
      </trkpt>
      <trkpt lat="48.88853" lon="7.45238">
        <ele>235</ele>
        <time>2021-08-08T05:34:00Z</time>
      </trkpt>
      <trkpt lat="48.88846" lon="7.45238">
        <ele>235</ele>
        <time>2021-08-08T05:34:01Z</time>
      </trkpt>
      <trkpt lat="48.88846" lon="7.45238">
        <ele>235</ele>
        <time>2021-08-08T05:34:02Z</time>
      </trkpt>
      <trkpt lat="48.8884" lon="7.45236">
        <ele>234</ele>
        <time>2021-08-08T05:34:03Z</time>
      </trkpt>
      <trkpt lat="48.8884" lon="7.45236">
        <ele>234</ele>
        <time>2021-08-08T05:34:04Z</time>
      </trkpt>
      <trkpt lat="48.88834" lon="7.45232">
        <ele>234</ele>
        <time>2021-08-08T05:34:05Z</time>
      </trkpt>
      <trkpt lat="48.88834" lon="7.45232">
        <ele>234</ele>
        <time>2021-08-08T05:34:06Z</time>
      </trkpt>
      <trkpt lat="48.88831" lon="7.4523">
        <ele>233</ele>
        <time>2021-08-08T05:34:07Z</time>
      </trkpt>
      <trkpt lat="48.88831" lon="7.4523">
        <ele>233</ele>
        <time>2021-08-08T05:34:08Z</time>
      </trkpt>
      <trkpt lat="48.88825" lon="7.45229">
        <ele>233</ele>
        <time>2021-08-08T05:34:09Z</time>
      </trkpt>
      <trkpt lat="48.88825" lon="7.45229">
        <ele>233</ele>
        <time>2021-08-08T05:34:10Z</time>
      </trkpt>
      <trkpt lat="48.88817" lon="7.45228">
        <ele>232</ele>
        <time>2021-08-08T05:34:11Z</time>
      </trkpt>
      <trkpt lat="48.88817" lon="7.45228">
        <ele>232</ele>
        <time>2021-08-08T05:34:12Z</time>
      </trkpt>
      <trkpt lat="48.8881" lon="7.4523">
        <ele>232</ele>
        <time>2021-08-08T05:34:13Z</time>
      </trkpt>
      <trkpt lat="48.8881" lon="7.4523">
        <ele>232</ele>
        <time>2021-08-08T05:34:14Z</time>
      </trkpt>
      <trkpt lat="48.88803" lon="7.45234">
        <ele>230</ele>
        <time>2021-08-08T05:34:15Z</time>
      </trkpt>
      <trkpt lat="48.88803" lon="7.45234">
        <ele>230</ele>
        <time>2021-08-08T05:34:16Z</time>
      </trkpt>
      <trkpt lat="48.88793" lon="7.45236">
        <ele>230</ele>
        <time>2021-08-08T05:34:17Z</time>
      </trkpt>
      <trkpt lat="48.88793" lon="7.45236">
        <ele>230</ele>
        <time>2021-08-08T05:34:18Z</time>
      </trkpt>
      <trkpt lat="48.88781" lon="7.45236">
        <ele>230</ele>
        <time>2021-08-08T05:34:19Z</time>
      </trkpt>
      <trkpt lat="48.88781" lon="7.45236">
        <ele>230</ele>
        <time>2021-08-08T05:34:20Z</time>
      </trkpt>
      <trkpt lat="48.88772" lon="7.45237">
        <ele>230</ele>
        <time>2021-08-08T05:34:21Z</time>
      </trkpt>
      <trkpt lat="48.88772" lon="7.45237">
        <ele>230</ele>
        <time>2021-08-08T05:34:22Z</time>
      </trkpt>
      <trkpt lat="48.88763" lon="7.45238">
        <ele>230</ele>
        <time>2021-08-08T05:34:23Z</time>
      </trkpt>
      <trkpt lat="48.88763" lon="7.45238">
        <ele>230</ele>
        <time>2021-08-08T05:34:24Z</time>
      </trkpt>
      <trkpt lat="48.88755" lon="7.4524">
        <ele>230</ele>
        <time>2021-08-08T05:34:25Z</time>
      </trkpt>
      <trkpt lat="48.88755" lon="7.4524">
        <ele>230</ele>
        <time>2021-08-08T05:34:26Z</time>
      </trkpt>
      <trkpt lat="48.88748" lon="7.45242">
        <ele>230</ele>
        <time>2021-08-08T05:34:27Z</time>
      </trkpt>
      <trkpt lat="48.88748" lon="7.45242">
        <ele>230</ele>
        <time>2021-08-08T05:34:28Z</time>
      </trkpt>
      <trkpt lat="48.88741" lon="7.45244">
        <ele>230</ele>
        <time>2021-08-08T05:34:29Z</time>
      </trkpt>
      <trkpt lat="48.88737" lon="7.45244">
        <ele>230</ele>
        <time>2021-08-08T05:34:30Z</time>
      </trkpt>
      <trkpt lat="48.88737" lon="7.45244">
        <ele>230</ele>
        <time>2021-08-08T05:34:31Z</time>
      </trkpt>
      <trkpt lat="48.88731" lon="7.45244">
        <ele>230</ele>
        <time>2021-08-08T05:34:32Z</time>
      </trkpt>
      <trkpt lat="48.88728" lon="7.45246">
        <ele>230</ele>
        <time>2021-08-08T05:34:33Z</time>
      </trkpt>
      <trkpt lat="48.88728" lon="7.45246">
        <ele>230</ele>
        <time>2021-08-08T05:34:34Z</time>
      </trkpt>
      <trkpt lat="48.88721" lon="7.45248">
        <ele>232</ele>
        <time>2021-08-08T05:34:35Z</time>
      </trkpt>
      <trkpt lat="48.88721" lon="7.45248">
        <ele>232</ele>
        <time>2021-08-08T05:34:36Z</time>
      </trkpt>
      <trkpt lat="48.88714" lon="7.4525">
        <ele>232</ele>
        <time>2021-08-08T05:34:37Z</time>
      </trkpt>
      <trkpt lat="48.88714" lon="7.4525">
        <ele>232</ele>
        <time>2021-08-08T05:34:38Z</time>
      </trkpt>
      <trkpt lat="48.88705" lon="7.45255">
        <ele>232</ele>
        <time>2021-08-08T05:34:39Z</time>
      </trkpt>
      <trkpt lat="48.88705" lon="7.45255">
        <ele>232</ele>
        <time>2021-08-08T05:34:40Z</time>
      </trkpt>
      <trkpt lat="48.88697" lon="7.45259">
        <ele>232</ele>
        <time>2021-08-08T05:34:41Z</time>
      </trkpt>
      <trkpt lat="48.88694" lon="7.45262">
        <ele>232</ele>
        <time>2021-08-08T05:34:42Z</time>
      </trkpt>
      <trkpt lat="48.88694" lon="7.45262">
        <ele>230</ele>
        <time>2021-08-08T05:34:43Z</time>
      </trkpt>
      <trkpt lat="48.8869" lon="7.4527">
        <ele>230</ele>
        <time>2021-08-08T05:34:44Z</time>
      </trkpt>
      <trkpt lat="48.88689" lon="7.45274">
        <ele>230</ele>
        <time>2021-08-08T05:34:45Z</time>
      </trkpt>
      <trkpt lat="48.88689" lon="7.45274">
        <ele>230</ele>
        <time>2021-08-08T05:34:46Z</time>
      </trkpt>
      <trkpt lat="48.88687" lon="7.45283">
        <ele>230</ele>
        <time>2021-08-08T05:34:47Z</time>
      </trkpt>
      <trkpt lat="48.88687" lon="7.45283">
        <ele>230</ele>
        <time>2021-08-08T05:34:48Z</time>
      </trkpt>
      <trkpt lat="48.88687" lon="7.45291">
        <ele>230</ele>
        <time>2021-08-08T05:34:49Z</time>
      </trkpt>
      <trkpt lat="48.88687" lon="7.45291">
        <ele>230</ele>
        <time>2021-08-08T05:34:50Z</time>
      </trkpt>
      <trkpt lat="48.88686" lon="7.45299">
        <ele>230</ele>
        <time>2021-08-08T05:34:51Z</time>
      </trkpt>
      <trkpt lat="48.88686" lon="7.45299">
        <ele>230</ele>
        <time>2021-08-08T05:34:52Z</time>
      </trkpt>
      <trkpt lat="48.88687" lon="7.45309">
        <ele>230</ele>
        <time>2021-08-08T05:34:53Z</time>
      </trkpt>
      <trkpt lat="48.88687" lon="7.45313">
        <ele>230</ele>
        <time>2021-08-08T05:34:54Z</time>
      </trkpt>
      <trkpt lat="48.88687" lon="7.45316">
        <ele>230</ele>
        <time>2021-08-08T05:34:55Z</time>
      </trkpt>
      <trkpt lat="48.88687" lon="7.45316">
        <ele>230</ele>
        <time>2021-08-08T05:34:56Z</time>
      </trkpt>
      <trkpt lat="48.88688" lon="7.45324">
        <ele>229</ele>
        <time>2021-08-08T05:34:57Z</time>
      </trkpt>
      <trkpt lat="48.88688" lon="7.45324">
        <ele>229</ele>
        <time>2021-08-08T05:34:58Z</time>
      </trkpt>
      <trkpt lat="48.88688" lon="7.45332">
        <ele>229</ele>
        <time>2021-08-08T05:34:59Z</time>
      </trkpt>
      <trkpt lat="48.88688" lon="7.45337">
        <ele>229</ele>
        <time>2021-08-08T05:35:00Z</time>
      </trkpt>
      <trkpt lat="48.88688" lon="7.45337">
        <ele>229</ele>
        <time>2021-08-08T05:35:01Z</time>
      </trkpt>
      <trkpt lat="48.88687" lon="7.45346">
        <ele>229</ele>
        <time>2021-08-08T05:35:02Z</time>
      </trkpt>
      <trkpt lat="48.88688" lon="7.4535">
        <ele>229</ele>
        <time>2021-08-08T05:35:03Z</time>
      </trkpt>
      <trkpt lat="48.88688" lon="7.4535">
        <ele>229</ele>
        <time>2021-08-08T05:35:04Z</time>
      </trkpt>
      <trkpt lat="48.88689" lon="7.45359">
        <ele>229</ele>
        <time>2021-08-08T05:35:05Z</time>
      </trkpt>
      <trkpt lat="48.88689" lon="7.45359">
        <ele>229</ele>
        <time>2021-08-08T05:35:06Z</time>
      </trkpt>
      <trkpt lat="48.88689" lon="7.45368">
        <ele>229</ele>
        <time>2021-08-08T05:35:07Z</time>
      </trkpt>
      <trkpt lat="48.88689" lon="7.45368">
        <ele>229</ele>
        <time>2021-08-08T05:35:08Z</time>
      </trkpt>
      <trkpt lat="48.88687" lon="7.45378">
        <ele>229</ele>
        <time>2021-08-08T05:35:09Z</time>
      </trkpt>
      <trkpt lat="48.88684" lon="7.4539">
        <ele>229</ele>
        <time>2021-08-08T05:35:10Z</time>
      </trkpt>
      <trkpt lat="48.88684" lon="7.4539">
        <ele>229</ele>
        <time>2021-08-08T05:35:11Z</time>
      </trkpt>
      <trkpt lat="48.88675" lon="7.45415">
        <ele>229</ele>
        <time>2021-08-08T05:35:12Z</time>
      </trkpt>
      <trkpt lat="48.88671" lon="7.45425">
        <ele>229</ele>
        <time>2021-08-08T05:35:13Z</time>
      </trkpt>
      <trkpt lat="48.88671" lon="7.45425">
        <ele>230</ele>
        <time>2021-08-08T05:35:14Z</time>
      </trkpt>
      <trkpt lat="48.88667" lon="7.45439">
        <ele>230</ele>
        <time>2021-08-08T05:35:15Z</time>
      </trkpt>
      <trkpt lat="48.88665" lon="7.45447">
        <ele>230</ele>
        <time>2021-08-08T05:35:16Z</time>
      </trkpt>
      <trkpt lat="48.88665" lon="7.45447">
        <ele>230</ele>
        <time>2021-08-08T05:35:17Z</time>
      </trkpt>
      <trkpt lat="48.88663" lon="7.4546">
        <ele>230</ele>
        <time>2021-08-08T05:35:18Z</time>
      </trkpt>
      <trkpt lat="48.88663" lon="7.45464">
        <ele>230</ele>
        <time>2021-08-08T05:35:19Z</time>
      </trkpt>
      <trkpt lat="48.88663" lon="7.45464">
        <ele>230</ele>
        <time>2021-08-08T05:35:20Z</time>
      </trkpt>
      <trkpt lat="48.88661" lon="7.45471">
        <ele>230</ele>
        <time>2021-08-08T05:35:21Z</time>
      </trkpt>
      <trkpt lat="48.88661" lon="7.45471">
        <ele>230</ele>
        <time>2021-08-08T05:35:22Z</time>
      </trkpt>
      <trkpt lat="48.88659" lon="7.45479">
        <ele>230</ele>
        <time>2021-08-08T05:35:23Z</time>
      </trkpt>
      <trkpt lat="48.88659" lon="7.45479">
        <ele>231</ele>
        <time>2021-08-08T05:35:24Z</time>
      </trkpt>
      <trkpt lat="48.88658" lon="7.45486">
        <ele>231</ele>
        <time>2021-08-08T05:35:25Z</time>
      </trkpt>
      <trkpt lat="48.88658" lon="7.45486">
        <ele>231</ele>
        <time>2021-08-08T05:35:26Z</time>
      </trkpt>
      <trkpt lat="48.88657" lon="7.45493">
        <ele>231</ele>
        <time>2021-08-08T05:35:27Z</time>
      </trkpt>
      <trkpt lat="48.88657" lon="7.45493">
        <ele>231</ele>
        <time>2021-08-08T05:35:28Z</time>
      </trkpt>
      <trkpt lat="48.88658" lon="7.45502">
        <ele>231</ele>
        <time>2021-08-08T05:35:29Z</time>
      </trkpt>
      <trkpt lat="48.88659" lon="7.45508">
        <ele>231</ele>
        <time>2021-08-08T05:35:30Z</time>
      </trkpt>
      <trkpt lat="48.88659" lon="7.45508">
        <ele>231</ele>
        <time>2021-08-08T05:35:31Z</time>
      </trkpt>
      <trkpt lat="48.88658" lon="7.45516">
        <ele>231</ele>
        <time>2021-08-08T05:35:32Z</time>
      </trkpt>
      <trkpt lat="48.88657" lon="7.45521">
        <ele>231</ele>
        <time>2021-08-08T05:35:33Z</time>
      </trkpt>
      <trkpt lat="48.88657" lon="7.45521">
        <ele>231</ele>
        <time>2021-08-08T05:35:34Z</time>
      </trkpt>
      <trkpt lat="48.88655" lon="7.45527">
        <ele>231</ele>
        <time>2021-08-08T05:35:35Z</time>
      </trkpt>
      <trkpt lat="48.88655" lon="7.45527">
        <ele>231</ele>
        <time>2021-08-08T05:35:36Z</time>
      </trkpt>
      <trkpt lat="48.88652" lon="7.45534">
        <ele>231</ele>
        <time>2021-08-08T05:35:37Z</time>
      </trkpt>
      <trkpt lat="48.88652" lon="7.45534">
        <ele>230</ele>
        <time>2021-08-08T05:35:38Z</time>
      </trkpt>
      <trkpt lat="48.88649" lon="7.45542">
        <ele>230</ele>
        <time>2021-08-08T05:35:39Z</time>
      </trkpt>
      <trkpt lat="48.88649" lon="7.45542">
        <ele>230</ele>
        <time>2021-08-08T05:35:40Z</time>
      </trkpt>
      <trkpt lat="48.88649" lon="7.45552">
        <ele>230</ele>
        <time>2021-08-08T05:35:41Z</time>
      </trkpt>
      <trkpt lat="48.88649" lon="7.45552">
        <ele>229</ele>
        <time>2021-08-08T05:35:42Z</time>
      </trkpt>
      <trkpt lat="48.88651" lon="7.45565">
        <ele>229</ele>
        <time>2021-08-08T05:35:43Z</time>
      </trkpt>
      <trkpt lat="48.88651" lon="7.45565">
        <ele>229</ele>
        <time>2021-08-08T05:35:44Z</time>
      </trkpt>
      <trkpt lat="48.88653" lon="7.45577">
        <ele>229</ele>
        <time>2021-08-08T05:35:45Z</time>
      </trkpt>
      <trkpt lat="48.88653" lon="7.45577">
        <ele>227</ele>
        <time>2021-08-08T05:35:46Z</time>
      </trkpt>
      <trkpt lat="48.88654" lon="7.45586">
        <ele>227</ele>
        <time>2021-08-08T05:35:47Z</time>
      </trkpt>
      <trkpt lat="48.88655" lon="7.45591">
        <ele>226</ele>
        <time>2021-08-08T05:35:48Z</time>
      </trkpt>
      <trkpt lat="48.88656" lon="7.45597">
        <ele>226</ele>
        <time>2021-08-08T05:35:49Z</time>
      </trkpt>
      <trkpt lat="48.88656" lon="7.45597">
        <ele>225</ele>
        <time>2021-08-08T05:35:50Z</time>
      </trkpt>
      <trkpt lat="48.88656" lon="7.45608">
        <ele>225</ele>
        <time>2021-08-08T05:35:51Z</time>
      </trkpt>
      <trkpt lat="48.88656" lon="7.45608">
        <ele>224</ele>
        <time>2021-08-08T05:35:52Z</time>
      </trkpt>
      <trkpt lat="48.88654" lon="7.45616">
        <ele>224</ele>
        <time>2021-08-08T05:35:53Z</time>
      </trkpt>
      <trkpt lat="48.88654" lon="7.45616">
        <ele>224</ele>
        <time>2021-08-08T05:35:54Z</time>
      </trkpt>
      <trkpt lat="48.8865" lon="7.4562">
        <ele>224</ele>
        <time>2021-08-08T05:35:55Z</time>
      </trkpt>
      <trkpt lat="48.8865" lon="7.4562">
        <ele>223</ele>
        <time>2021-08-08T05:35:56Z</time>
      </trkpt>
      <trkpt lat="48.88643" lon="7.45621">
        <ele>223</ele>
        <time>2021-08-08T05:35:57Z</time>
      </trkpt>
      <trkpt lat="48.88643" lon="7.45621">
        <ele>223</ele>
        <time>2021-08-08T05:35:58Z</time>
      </trkpt>
      <trkpt lat="48.88635" lon="7.45627">
        <ele>223</ele>
        <time>2021-08-08T05:35:59Z</time>
      </trkpt>
      <trkpt lat="48.88635" lon="7.45627">
        <ele>223</ele>
        <time>2021-08-08T05:36:00Z</time>
      </trkpt>
      <trkpt lat="48.88624" lon="7.45634">
        <ele>223</ele>
        <time>2021-08-08T05:36:01Z</time>
      </trkpt>
      <trkpt lat="48.88624" lon="7.45634">
        <ele>223</ele>
        <time>2021-08-08T05:36:02Z</time>
      </trkpt>
      <trkpt lat="48.88617" lon="7.45636">
        <ele>223</ele>
        <time>2021-08-08T05:36:03Z</time>
      </trkpt>
      <trkpt lat="48.88617" lon="7.45636">
        <ele>223</ele>
        <time>2021-08-08T05:36:04Z</time>
      </trkpt>
      <trkpt lat="48.8861" lon="7.45638">
        <ele>223</ele>
        <time>2021-08-08T05:36:05Z</time>
      </trkpt>
      <trkpt lat="48.8861" lon="7.45638">
        <ele>223</ele>
        <time>2021-08-08T05:36:06Z</time>
      </trkpt>
      <trkpt lat="48.88605" lon="7.45644">
        <ele>223</ele>
        <time>2021-08-08T05:36:07Z</time>
      </trkpt>
      <trkpt lat="48.88605" lon="7.45644">
        <ele>223</ele>
        <time>2021-08-08T05:36:08Z</time>
      </trkpt>
      <trkpt lat="48.88603" lon="7.45651">
        <ele>223</ele>
        <time>2021-08-08T05:36:09Z</time>
      </trkpt>
      <trkpt lat="48.88603" lon="7.45651">
        <ele>223</ele>
        <time>2021-08-08T05:36:10Z</time>
      </trkpt>
      <trkpt lat="48.88599" lon="7.45657">
        <ele>223</ele>
        <time>2021-08-08T05:36:11Z</time>
      </trkpt>
      <trkpt lat="48.88599" lon="7.45657">
        <ele>222</ele>
        <time>2021-08-08T05:36:12Z</time>
      </trkpt>
      <trkpt lat="48.88597" lon="7.45662">
        <ele>222</ele>
        <time>2021-08-08T05:36:13Z</time>
      </trkpt>
      <trkpt lat="48.88597" lon="7.45662">
        <ele>221</ele>
        <time>2021-08-08T05:36:14Z</time>
      </trkpt>
      <trkpt lat="48.88596" lon="7.45669">
        <ele>221</ele>
        <time>2021-08-08T05:36:15Z</time>
      </trkpt>
      <trkpt lat="48.88596" lon="7.45669">
        <ele>221</ele>
        <time>2021-08-08T05:36:16Z</time>
      </trkpt>
      <trkpt lat="48.88592" lon="7.45676">
        <ele>221</ele>
        <time>2021-08-08T05:36:17Z</time>
      </trkpt>
      <trkpt lat="48.8859" lon="7.45679">
        <ele>220</ele>
        <time>2021-08-08T05:36:18Z</time>
      </trkpt>
      <trkpt lat="48.8859" lon="7.45679">
        <ele>220</ele>
        <time>2021-08-08T05:36:19Z</time>
      </trkpt>
      <trkpt lat="48.88586" lon="7.45686">
        <ele>219</ele>
        <time>2021-08-08T05:36:20Z</time>
      </trkpt>
      <trkpt lat="48.88583" lon="7.45692">
        <ele>219</ele>
        <time>2021-08-08T05:36:21Z</time>
      </trkpt>
      <trkpt lat="48.88583" lon="7.45692">
        <ele>218</ele>
        <time>2021-08-08T05:36:22Z</time>
      </trkpt>
      <trkpt lat="48.88579" lon="7.45705">
        <ele>218</ele>
        <time>2021-08-08T05:36:23Z</time>
      </trkpt>
      <trkpt lat="48.88579" lon="7.45705">
        <ele>217</ele>
        <time>2021-08-08T05:36:24Z</time>
      </trkpt>
      <trkpt lat="48.88575" lon="7.45715">
        <ele>217</ele>
        <time>2021-08-08T05:36:25Z</time>
      </trkpt>
      <trkpt lat="48.88575" lon="7.45715">
        <ele>216</ele>
        <time>2021-08-08T05:36:26Z</time>
      </trkpt>
      <trkpt lat="48.8857" lon="7.45724">
        <ele>216</ele>
        <time>2021-08-08T05:36:27Z</time>
      </trkpt>
      <trkpt lat="48.8857" lon="7.45724">
        <ele>215</ele>
        <time>2021-08-08T05:36:28Z</time>
      </trkpt>
      <trkpt lat="48.88566" lon="7.45729">
        <ele>215</ele>
        <time>2021-08-08T05:36:29Z</time>
      </trkpt>
      <trkpt lat="48.88566" lon="7.45729">
        <ele>215</ele>
        <time>2021-08-08T05:36:30Z</time>
      </trkpt>
      <trkpt lat="48.88562" lon="7.45736">
        <ele>215</ele>
        <time>2021-08-08T05:36:31Z</time>
      </trkpt>
      <trkpt lat="48.88562" lon="7.45736">
        <ele>214</ele>
        <time>2021-08-08T05:36:32Z</time>
      </trkpt>
      <trkpt lat="48.88557" lon="7.45747">
        <ele>214</ele>
        <time>2021-08-08T05:36:33Z</time>
      </trkpt>
      <trkpt lat="48.88557" lon="7.45747">
        <ele>214</ele>
        <time>2021-08-08T05:36:34Z</time>
      </trkpt>
      <trkpt lat="48.88552" lon="7.4575">
        <ele>214</ele>
        <time>2021-08-08T05:36:35Z</time>
      </trkpt>
      <trkpt lat="48.88549" lon="7.45754">
        <ele>214</ele>
        <time>2021-08-08T05:36:36Z</time>
      </trkpt>
      <trkpt lat="48.88549" lon="7.45754">
        <ele>214</ele>
        <time>2021-08-08T05:36:37Z</time>
      </trkpt>
      <trkpt lat="48.88546" lon="7.45757">
        <ele>214</ele>
        <time>2021-08-08T05:36:38Z</time>
      </trkpt>
      <trkpt lat="48.88546" lon="7.45757">
        <ele>214</ele>
        <time>2021-08-08T05:36:39Z</time>
      </trkpt>
      <trkpt lat="48.88541" lon="7.4576">
        <ele>214</ele>
        <time>2021-08-08T05:36:40Z</time>
      </trkpt>
      <trkpt lat="48.88538" lon="7.45762">
        <ele>214</ele>
        <time>2021-08-08T05:36:41Z</time>
      </trkpt>
      <trkpt lat="48.88538" lon="7.45762">
        <ele>214</ele>
        <time>2021-08-08T05:36:42Z</time>
      </trkpt>
      <trkpt lat="48.88533" lon="7.45767">
        <ele>214</ele>
        <time>2021-08-08T05:36:43Z</time>
      </trkpt>
      <trkpt lat="48.88533" lon="7.45767">
        <ele>214</ele>
        <time>2021-08-08T05:36:44Z</time>
      </trkpt>
      <trkpt lat="48.88529" lon="7.4577">
        <ele>214</ele>
        <time>2021-08-08T05:36:45Z</time>
      </trkpt>
      <trkpt lat="48.88529" lon="7.4577">
        <ele>214</ele>
        <time>2021-08-08T05:36:46Z</time>
      </trkpt>
      <trkpt lat="48.88523" lon="7.45774">
        <ele>214</ele>
        <time>2021-08-08T05:36:47Z</time>
      </trkpt>
      <trkpt lat="48.88523" lon="7.45774">
        <ele>214</ele>
        <time>2021-08-08T05:36:48Z</time>
      </trkpt>
      <trkpt lat="48.88516" lon="7.45778">
        <ele>214</ele>
        <time>2021-08-08T05:36:49Z</time>
      </trkpt>
      <trkpt lat="48.88516" lon="7.45778">
        <ele>215</ele>
        <time>2021-08-08T05:36:50Z</time>
      </trkpt>
      <trkpt lat="48.88511" lon="7.45783">
        <ele>215</ele>
        <time>2021-08-08T05:36:51Z</time>
      </trkpt>
      <trkpt lat="48.88508" lon="7.45786">
        <ele>215</ele>
        <time>2021-08-08T05:36:52Z</time>
      </trkpt>
      <trkpt lat="48.88508" lon="7.45786">
        <ele>215</ele>
        <time>2021-08-08T05:36:53Z</time>
      </trkpt>
      <trkpt lat="48.88503" lon="7.45789">
        <ele>215</ele>
        <time>2021-08-08T05:36:54Z</time>
      </trkpt>
      <trkpt lat="48.88503" lon="7.45789">
        <ele>215</ele>
        <time>2021-08-08T05:36:55Z</time>
      </trkpt>
      <trkpt lat="48.88498" lon="7.45793">
        <ele>215</ele>
        <time>2021-08-08T05:36:56Z</time>
      </trkpt>
      <trkpt lat="48.88495" lon="7.45795">
        <ele>215</ele>
        <time>2021-08-08T05:36:57Z</time>
      </trkpt>
      <trkpt lat="48.88495" lon="7.45795">
        <ele>215</ele>
        <time>2021-08-08T05:36:58Z</time>
      </trkpt>
      <trkpt lat="48.88491" lon="7.45799">
        <ele>216</ele>
        <time>2021-08-08T05:36:59Z</time>
      </trkpt>
      <trkpt lat="48.88487" lon="7.45803">
        <ele>216</ele>
        <time>2021-08-08T05:37:00Z</time>
      </trkpt>
      <trkpt lat="48.88483" lon="7.45805">
        <ele>216</ele>
        <time>2021-08-08T05:37:01Z</time>
      </trkpt>
      <trkpt lat="48.88483" lon="7.45805">
        <ele>216</ele>
        <time>2021-08-08T05:37:02Z</time>
      </trkpt>
      <trkpt lat="48.88477" lon="7.45814">
        <ele>215</ele>
        <time>2021-08-08T05:37:03Z</time>
      </trkpt>
      <trkpt lat="48.88477" lon="7.45814">
        <ele>215</ele>
        <time>2021-08-08T05:37:04Z</time>
      </trkpt>
      <trkpt lat="48.88472" lon="7.45819">
        <ele>215</ele>
        <time>2021-08-08T05:37:05Z</time>
      </trkpt>
      <trkpt lat="48.88472" lon="7.45821">
        <ele>215</ele>
        <time>2021-08-08T05:37:06Z</time>
      </trkpt>
      <trkpt lat="48.88472" lon="7.45821">
        <ele>214</ele>
        <time>2021-08-08T05:37:07Z</time>
      </trkpt>
      <trkpt lat="48.88469" lon="7.45827">
        <ele>214</ele>
        <time>2021-08-08T05:37:08Z</time>
      </trkpt>
      <trkpt lat="48.88468" lon="7.45831">
        <ele>213</ele>
        <time>2021-08-08T05:37:09Z</time>
      </trkpt>
      <trkpt lat="48.88468" lon="7.45831">
        <ele>213</ele>
        <time>2021-08-08T05:37:10Z</time>
      </trkpt>
      <trkpt lat="48.88464" lon="7.45839">
        <ele>212</ele>
        <time>2021-08-08T05:37:11Z</time>
      </trkpt>
      <trkpt lat="48.88462" lon="7.45842">
        <ele>212</ele>
        <time>2021-08-08T05:37:12Z</time>
      </trkpt>
      <trkpt lat="48.88458" lon="7.45844">
        <ele>212</ele>
        <time>2021-08-08T05:37:13Z</time>
      </trkpt>
      <trkpt lat="48.88458" lon="7.45844">
        <ele>212</ele>
        <time>2021-08-08T05:37:14Z</time>
      </trkpt>
      <trkpt lat="48.88453" lon="7.45845">
        <ele>211</ele>
        <time>2021-08-08T05:37:15Z</time>
      </trkpt>
      <trkpt lat="48.88453" lon="7.45845">
        <ele>211</ele>
        <time>2021-08-08T05:37:16Z</time>
      </trkpt>
      <trkpt lat="48.88447" lon="7.45849">
        <ele>211</ele>
        <time>2021-08-08T05:37:17Z</time>
      </trkpt>
      <trkpt lat="48.88443" lon="7.45851">
        <ele>211</ele>
        <time>2021-08-08T05:37:18Z</time>
      </trkpt>
      <trkpt lat="48.88443" lon="7.45851">
        <ele>211</ele>
        <time>2021-08-08T05:37:19Z</time>
      </trkpt>
      <trkpt lat="48.88435" lon="7.45854">
        <ele>211</ele>
        <time>2021-08-08T05:37:20Z</time>
      </trkpt>
      <trkpt lat="48.88432" lon="7.45854">
        <ele>211</ele>
        <time>2021-08-08T05:37:21Z</time>
      </trkpt>
      <trkpt lat="48.88428" lon="7.45855">
        <ele>212</ele>
        <time>2021-08-08T05:37:22Z</time>
      </trkpt>
      <trkpt lat="48.88428" lon="7.45855">
        <ele>212</ele>
        <time>2021-08-08T05:37:23Z</time>
      </trkpt>
      <trkpt lat="48.88422" lon="7.45857">
        <ele>212</ele>
        <time>2021-08-08T05:37:24Z</time>
      </trkpt>
      <trkpt lat="48.88418" lon="7.4586">
        <ele>212</ele>
        <time>2021-08-08T05:37:25Z</time>
      </trkpt>
      <trkpt lat="48.88418" lon="7.4586">
        <ele>212</ele>
        <time>2021-08-08T05:37:26Z</time>
      </trkpt>
      <trkpt lat="48.88412" lon="7.45862">
        <ele>212</ele>
        <time>2021-08-08T05:37:27Z</time>
      </trkpt>
      <trkpt lat="48.88412" lon="7.45862">
        <ele>213</ele>
        <time>2021-08-08T05:37:28Z</time>
      </trkpt>
      <trkpt lat="48.88406" lon="7.45864">
        <ele>213</ele>
        <time>2021-08-08T05:37:29Z</time>
      </trkpt>
      <trkpt lat="48.88406" lon="7.45864">
        <ele>213</ele>
        <time>2021-08-08T05:37:30Z</time>
      </trkpt>
      <trkpt lat="48.884" lon="7.45867">
        <ele>213</ele>
        <time>2021-08-08T05:37:31Z</time>
      </trkpt>
      <trkpt lat="48.884" lon="7.45867">
        <ele>213</ele>
        <time>2021-08-08T05:37:32Z</time>
      </trkpt>
      <trkpt lat="48.88395" lon="7.4587">
        <ele>213</ele>
        <time>2021-08-08T05:37:33Z</time>
      </trkpt>
      <trkpt lat="48.88395" lon="7.4587">
        <ele>213</ele>
        <time>2021-08-08T05:37:34Z</time>
      </trkpt>
      <trkpt lat="48.8839" lon="7.45874">
        <ele>213</ele>
        <time>2021-08-08T05:37:35Z</time>
      </trkpt>
      <trkpt lat="48.88387" lon="7.45875">
        <ele>213</ele>
        <time>2021-08-08T05:37:36Z</time>
      </trkpt>
      <trkpt lat="48.88387" lon="7.45875">
        <ele>213</ele>
        <time>2021-08-08T05:37:37Z</time>
      </trkpt>
      <trkpt lat="48.88383" lon="7.4588">
        <ele>213</ele>
        <time>2021-08-08T05:37:38Z</time>
      </trkpt>
      <trkpt lat="48.88381" lon="7.45884">
        <ele>213</ele>
        <time>2021-08-08T05:37:39Z</time>
      </trkpt>
      <trkpt lat="48.88381" lon="7.45884">
        <ele>213</ele>
        <time>2021-08-08T05:37:40Z</time>
      </trkpt>
      <trkpt lat="48.88379" lon="7.45891">
        <ele>213</ele>
        <time>2021-08-08T05:37:41Z</time>
      </trkpt>
      <trkpt lat="48.88379" lon="7.45891">
        <ele>212</ele>
        <time>2021-08-08T05:37:42Z</time>
      </trkpt>
      <trkpt lat="48.88377" lon="7.45898">
        <ele>212</ele>
        <time>2021-08-08T05:37:43Z</time>
      </trkpt>
      <trkpt lat="48.88377" lon="7.45898">
        <ele>212</ele>
        <time>2021-08-08T05:37:44Z</time>
      </trkpt>
      <trkpt lat="48.88373" lon="7.45912">
        <ele>212</ele>
        <time>2021-08-08T05:37:45Z</time>
      </trkpt>
      <trkpt lat="48.88373" lon="7.45912">
        <ele>211</ele>
        <time>2021-08-08T05:37:46Z</time>
      </trkpt>
      <trkpt lat="48.88372" lon="7.4592">
        <ele>211</ele>
        <time>2021-08-08T05:37:47Z</time>
      </trkpt>
      <trkpt lat="48.88372" lon="7.4592">
        <ele>211</ele>
        <time>2021-08-08T05:37:48Z</time>
      </trkpt>
      <trkpt lat="48.88369" lon="7.45929">
        <ele>211</ele>
        <time>2021-08-08T05:37:49Z</time>
      </trkpt>
      <trkpt lat="48.88369" lon="7.45929">
        <ele>210</ele>
        <time>2021-08-08T05:37:50Z</time>
      </trkpt>
      <trkpt lat="48.88363" lon="7.45942">
        <ele>210</ele>
        <time>2021-08-08T05:37:51Z</time>
      </trkpt>
      <trkpt lat="48.88363" lon="7.45942">
        <ele>209</ele>
        <time>2021-08-08T05:37:52Z</time>
      </trkpt>
      <trkpt lat="48.88362" lon="7.45951">
        <ele>209</ele>
        <time>2021-08-08T05:37:53Z</time>
      </trkpt>
      <trkpt lat="48.88362" lon="7.45951">
        <ele>209</ele>
        <time>2021-08-08T05:37:54Z</time>
      </trkpt>
      <trkpt lat="48.88358" lon="7.45962">
        <ele>208</ele>
        <time>2021-08-08T05:37:55Z</time>
      </trkpt>
      <trkpt lat="48.88358" lon="7.45962">
        <ele>208</ele>
        <time>2021-08-08T05:37:56Z</time>
      </trkpt>
      <trkpt lat="48.88361" lon="7.45973">
        <ele>207</ele>
        <time>2021-08-08T05:37:57Z</time>
      </trkpt>
      <trkpt lat="48.88361" lon="7.45973">
        <ele>207</ele>
        <time>2021-08-08T05:37:58Z</time>
      </trkpt>
      <trkpt lat="48.8836" lon="7.4598">
        <ele>207</ele>
        <time>2021-08-08T05:37:59Z</time>
      </trkpt>
      <trkpt lat="48.8836" lon="7.4598">
        <ele>207</ele>
        <time>2021-08-08T05:38:00Z</time>
      </trkpt>
      <trkpt lat="48.88359" lon="7.45988">
        <ele>205</ele>
        <time>2021-08-08T05:38:01Z</time>
      </trkpt>
      <trkpt lat="48.88359" lon="7.45988">
        <ele>205</ele>
        <time>2021-08-08T05:38:02Z</time>
      </trkpt>
      <trkpt lat="48.88357" lon="7.45993">
        <ele>204</ele>
        <time>2021-08-08T05:38:03Z</time>
      </trkpt>
      <trkpt lat="48.88357" lon="7.45993">
        <ele>204</ele>
        <time>2021-08-08T05:38:04Z</time>
      </trkpt>
      <trkpt lat="48.88356" lon="7.45995">
        <ele>204</ele>
        <time>2021-08-08T05:38:05Z</time>
      </trkpt>
      <trkpt lat="48.88356" lon="7.45995">
        <ele>204</ele>
        <time>2021-08-08T05:38:06Z</time>
      </trkpt>
      <trkpt lat="48.88354" lon="7.45999">
        <ele>203</ele>
        <time>2021-08-08T05:38:07Z</time>
      </trkpt>
      <trkpt lat="48.88354" lon="7.45999">
        <ele>203</ele>
        <time>2021-08-08T05:38:08Z</time>
      </trkpt>
      <trkpt lat="48.88353" lon="7.46002">
        <ele>203</ele>
        <time>2021-08-08T05:38:09Z</time>
      </trkpt>
      <trkpt lat="48.88353" lon="7.46002">
        <ele>203</ele>
        <time>2021-08-08T05:38:10Z</time>
      </trkpt>
      <trkpt lat="48.88352" lon="7.46009">
        <ele>203</ele>
        <time>2021-08-08T05:38:11Z</time>
      </trkpt>
      <trkpt lat="48.88352" lon="7.46012">
        <ele>203</ele>
        <time>2021-08-08T05:38:12Z</time>
      </trkpt>
      <trkpt lat="48.88351" lon="7.46016">
        <ele>202</ele>
        <time>2021-08-08T05:38:13Z</time>
      </trkpt>
      <trkpt lat="48.88351" lon="7.46016">
        <ele>202</ele>
        <time>2021-08-08T05:38:14Z</time>
      </trkpt>
      <trkpt lat="48.88349" lon="7.46024">
        <ele>202</ele>
        <time>2021-08-08T05:38:15Z</time>
      </trkpt>
      <trkpt lat="48.88349" lon="7.46024">
        <ele>202</ele>
        <time>2021-08-08T05:38:16Z</time>
      </trkpt>
      <trkpt lat="48.88347" lon="7.46033">
        <ele>202</ele>
        <time>2021-08-08T05:38:17Z</time>
      </trkpt>
      <trkpt lat="48.88347" lon="7.46033">
        <ele>202</ele>
        <time>2021-08-08T05:38:18Z</time>
      </trkpt>
      <trkpt lat="48.88345" lon="7.46041">
        <ele>202</ele>
        <time>2021-08-08T05:38:19Z</time>
      </trkpt>
      <trkpt lat="48.88345" lon="7.46041">
        <ele>202</ele>
        <time>2021-08-08T05:38:20Z</time>
      </trkpt>
      <trkpt lat="48.88344" lon="7.46049">
        <ele>201</ele>
        <time>2021-08-08T05:38:21Z</time>
      </trkpt>
      <trkpt lat="48.88344" lon="7.46054">
        <ele>201</ele>
        <time>2021-08-08T05:38:22Z</time>
      </trkpt>
      <trkpt lat="48.88344" lon="7.46054">
        <ele>201</ele>
        <time>2021-08-08T05:38:23Z</time>
      </trkpt>
      <trkpt lat="48.88343" lon="7.46063">
        <ele>201</ele>
        <time>2021-08-08T05:38:24Z</time>
      </trkpt>
      <trkpt lat="48.88343" lon="7.46068">
        <ele>201</ele>
        <time>2021-08-08T05:38:25Z</time>
      </trkpt>
      <trkpt lat="48.88343" lon="7.46068">
        <ele>201</ele>
        <time>2021-08-08T05:38:26Z</time>
      </trkpt>
      <trkpt lat="48.88343" lon="7.46078">
        <ele>201</ele>
        <time>2021-08-08T05:38:27Z</time>
      </trkpt>
      <trkpt lat="48.88343" lon="7.46078">
        <ele>201</ele>
        <time>2021-08-08T05:38:28Z</time>
      </trkpt>
      <trkpt lat="48.88344" lon="7.46086">
        <ele>201</ele>
        <time>2021-08-08T05:38:29Z</time>
      </trkpt>
      <trkpt lat="48.88344" lon="7.46086">
        <ele>201</ele>
        <time>2021-08-08T05:38:30Z</time>
      </trkpt>
      <trkpt lat="48.88344" lon="7.46095">
        <ele>201</ele>
        <time>2021-08-08T05:38:31Z</time>
      </trkpt>
      <trkpt lat="48.88344" lon="7.46095">
        <ele>201</ele>
        <time>2021-08-08T05:38:32Z</time>
      </trkpt>
      <trkpt lat="48.88345" lon="7.46105">
        <ele>201</ele>
        <time>2021-08-08T05:38:33Z</time>
      </trkpt>
      <trkpt lat="48.88345" lon="7.46105">
        <ele>201</ele>
        <time>2021-08-08T05:38:34Z</time>
      </trkpt>
      <trkpt lat="48.88345" lon="7.46116">
        <ele>201</ele>
        <time>2021-08-08T05:38:35Z</time>
      </trkpt>
      <trkpt lat="48.88345" lon="7.46116">
        <ele>201</ele>
        <time>2021-08-08T05:38:36Z</time>
      </trkpt>
      <trkpt lat="48.88344" lon="7.46126">
        <ele>201</ele>
        <time>2021-08-08T05:38:37Z</time>
      </trkpt>
      <trkpt lat="48.88344" lon="7.46126">
        <ele>201</ele>
        <time>2021-08-08T05:38:38Z</time>
      </trkpt>
      <trkpt lat="48.88344" lon="7.46139">
        <ele>201</ele>
        <time>2021-08-08T05:38:39Z</time>
      </trkpt>
      <trkpt lat="48.88344" lon="7.46139">
        <ele>201</ele>
        <time>2021-08-08T05:38:40Z</time>
      </trkpt>
      <trkpt lat="48.88344" lon="7.46152">
        <ele>201</ele>
        <time>2021-08-08T05:38:41Z</time>
      </trkpt>
      <trkpt lat="48.88344" lon="7.46152">
        <ele>201</ele>
        <time>2021-08-08T05:38:42Z</time>
      </trkpt>
      <trkpt lat="48.88347" lon="7.46168">
        <ele>201</ele>
        <time>2021-08-08T05:38:43Z</time>
      </trkpt>
      <trkpt lat="48.88347" lon="7.46168">
        <ele>201</ele>
        <time>2021-08-08T05:38:44Z</time>
      </trkpt>
      <trkpt lat="48.88348" lon="7.46183">
        <ele>201</ele>
        <time>2021-08-08T05:38:45Z</time>
      </trkpt>
      <trkpt lat="48.88348" lon="7.46183">
        <ele>201</ele>
        <time>2021-08-08T05:38:46Z</time>
      </trkpt>
      <trkpt lat="48.88348" lon="7.46197">
        <ele>201</ele>
        <time>2021-08-08T05:38:47Z</time>
      </trkpt>
      <trkpt lat="48.88348" lon="7.46204">
        <ele>201</ele>
        <time>2021-08-08T05:38:48Z</time>
      </trkpt>
      <trkpt lat="48.88347" lon="7.4621">
        <ele>201</ele>
        <time>2021-08-08T05:38:49Z</time>
      </trkpt>
      <trkpt lat="48.88347" lon="7.4621">
        <ele>201</ele>
        <time>2021-08-08T05:38:50Z</time>
      </trkpt>
      <trkpt lat="48.8835" lon="7.46227">
        <ele>201</ele>
        <time>2021-08-08T05:38:51Z</time>
      </trkpt>
      <trkpt lat="48.8835" lon="7.46227">
        <ele>201</ele>
        <time>2021-08-08T05:38:52Z</time>
      </trkpt>
      <trkpt lat="48.88351" lon="7.46242">
        <ele>201</ele>
        <time>2021-08-08T05:38:53Z</time>
      </trkpt>
      <trkpt lat="48.88351" lon="7.46242">
        <ele>201</ele>
        <time>2021-08-08T05:38:54Z</time>
      </trkpt>
      <trkpt lat="48.8835" lon="7.46258">
        <ele>201</ele>
        <time>2021-08-08T05:38:55Z</time>
      </trkpt>
      <trkpt lat="48.8835" lon="7.46258">
        <ele>201</ele>
        <time>2021-08-08T05:38:56Z</time>
      </trkpt>
      <trkpt lat="48.88351" lon="7.46274">
        <ele>200</ele>
        <time>2021-08-08T05:38:57Z</time>
      </trkpt>
      <trkpt lat="48.88351" lon="7.46274">
        <ele>200</ele>
        <time>2021-08-08T05:38:58Z</time>
      </trkpt>
      <trkpt lat="48.88351" lon="7.46288">
        <ele>200</ele>
        <time>2021-08-08T05:38:59Z</time>
      </trkpt>
      <trkpt lat="48.88351" lon="7.46288">
        <ele>200</ele>
        <time>2021-08-08T05:39:00Z</time>
      </trkpt>
      <trkpt lat="48.88349" lon="7.46301">
        <ele>200</ele>
        <time>2021-08-08T05:39:01Z</time>
      </trkpt>
      <trkpt lat="48.88349" lon="7.46301">
        <ele>200</ele>
        <time>2021-08-08T05:39:02Z</time>
      </trkpt>
      <trkpt lat="48.88349" lon="7.46318">
        <ele>200</ele>
        <time>2021-08-08T05:39:03Z</time>
      </trkpt>
      <trkpt lat="48.88348" lon="7.46325">
        <ele>200</ele>
        <time>2021-08-08T05:39:04Z</time>
      </trkpt>
      <trkpt lat="48.88348" lon="7.46325">
        <ele>200</ele>
        <time>2021-08-08T05:39:05Z</time>
      </trkpt>
      <trkpt lat="48.88352" lon="7.4634">
        <ele>200</ele>
        <time>2021-08-08T05:39:06Z</time>
      </trkpt>
      <trkpt lat="48.88352" lon="7.46349">
        <ele>200</ele>
        <time>2021-08-08T05:39:07Z</time>
      </trkpt>
      <trkpt lat="48.88352" lon="7.46349">
        <ele>200</ele>
        <time>2021-08-08T05:39:08Z</time>
      </trkpt>
      <trkpt lat="48.88353" lon="7.46366">
        <ele>200</ele>
        <time>2021-08-08T05:39:09Z</time>
      </trkpt>
      <trkpt lat="48.88353" lon="7.46366">
        <ele>200</ele>
        <time>2021-08-08T05:39:10Z</time>
      </trkpt>
      <trkpt lat="48.88352" lon="7.46379">
        <ele>200</ele>
        <time>2021-08-08T05:39:11Z</time>
      </trkpt>
      <trkpt lat="48.88352" lon="7.46379">
        <ele>200</ele>
        <time>2021-08-08T05:39:12Z</time>
      </trkpt>
      <trkpt lat="48.88352" lon="7.46392">
        <ele>200</ele>
        <time>2021-08-08T05:39:13Z</time>
      </trkpt>
      <trkpt lat="48.88352" lon="7.46392">
        <ele>200</ele>
        <time>2021-08-08T05:39:14Z</time>
      </trkpt>
      <trkpt lat="48.8835" lon="7.46403">
        <ele>200</ele>
        <time>2021-08-08T05:39:15Z</time>
      </trkpt>
      <trkpt lat="48.8835" lon="7.46403">
        <ele>200</ele>
        <time>2021-08-08T05:39:16Z</time>
      </trkpt>
      <trkpt lat="48.88351" lon="7.46417">
        <ele>200</ele>
        <time>2021-08-08T05:39:17Z</time>
      </trkpt>
      <trkpt lat="48.88351" lon="7.46424">
        <ele>200</ele>
        <time>2021-08-08T05:39:18Z</time>
      </trkpt>
      <trkpt lat="48.88351" lon="7.46424">
        <ele>200</ele>
        <time>2021-08-08T05:39:19Z</time>
      </trkpt>
      <trkpt lat="48.88351" lon="7.46439">
        <ele>200</ele>
        <time>2021-08-08T05:39:20Z</time>
      </trkpt>
      <trkpt lat="48.88351" lon="7.46445">
        <ele>200</ele>
        <time>2021-08-08T05:39:21Z</time>
      </trkpt>
      <trkpt lat="48.88351" lon="7.46445">
        <ele>200</ele>
        <time>2021-08-08T05:39:22Z</time>
      </trkpt>
      <trkpt lat="48.88352" lon="7.46458">
        <ele>200</ele>
        <time>2021-08-08T05:39:23Z</time>
      </trkpt>
      <trkpt lat="48.88352" lon="7.46458">
        <ele>200</ele>
        <time>2021-08-08T05:39:24Z</time>
      </trkpt>
      <trkpt lat="48.88355" lon="7.46476">
        <ele>199</ele>
        <time>2021-08-08T05:39:25Z</time>
      </trkpt>
      <trkpt lat="48.88353" lon="7.46484">
        <ele>199</ele>
        <time>2021-08-08T05:39:26Z</time>
      </trkpt>
      <trkpt lat="48.88353" lon="7.46484">
        <ele>199</ele>
        <time>2021-08-08T05:39:27Z</time>
      </trkpt>
      <trkpt lat="48.88353" lon="7.46501">
        <ele>199</ele>
        <time>2021-08-08T05:39:28Z</time>
      </trkpt>
      <trkpt lat="48.88353" lon="7.46501">
        <ele>199</ele>
        <time>2021-08-08T05:39:29Z</time>
      </trkpt>
      <trkpt lat="48.88352" lon="7.46529">
        <ele>199</ele>
        <time>2021-08-08T05:39:30Z</time>
      </trkpt>
      <trkpt lat="48.88351" lon="7.46537">
        <ele>198</ele>
        <time>2021-08-08T05:39:31Z</time>
      </trkpt>
      <trkpt lat="48.88351" lon="7.46537">
        <ele>198</ele>
        <time>2021-08-08T05:39:32Z</time>
      </trkpt>
      <trkpt lat="48.88349" lon="7.46559">
        <ele>198</ele>
        <time>2021-08-08T05:39:33Z</time>
      </trkpt>
      <trkpt lat="48.88349" lon="7.46559">
        <ele>198</ele>
        <time>2021-08-08T05:39:34Z</time>
      </trkpt>
      <trkpt lat="48.88339" lon="7.46625">
        <ele>198</ele>
        <time>2021-08-08T05:39:35Z</time>
      </trkpt>
      <trkpt lat="48.88339" lon="7.46625">
        <ele>198</ele>
        <time>2021-08-08T05:39:36Z</time>
      </trkpt>
      <trkpt lat="48.88356" lon="7.4663">
        <ele>198</ele>
        <time>2021-08-08T05:39:37Z</time>
      </trkpt>
      <trkpt lat="48.88356" lon="7.4663">
        <ele>198</ele>
        <time>2021-08-08T05:39:38Z</time>
      </trkpt>
      <trkpt lat="48.88355" lon="7.46638">
        <ele>198</ele>
        <time>2021-08-08T05:39:39Z</time>
      </trkpt>
      <trkpt lat="48.88357" lon="7.46642">
        <ele>198</ele>
        <time>2021-08-08T05:39:40Z</time>
      </trkpt>
      <trkpt lat="48.88357" lon="7.46648">
        <ele>197</ele>
        <time>2021-08-08T05:39:41Z</time>
      </trkpt>
      <trkpt lat="48.88357" lon="7.46648">
        <ele>197</ele>
        <time>2021-08-08T05:39:42Z</time>
      </trkpt>
      <trkpt lat="48.88359" lon="7.46659">
        <ele>197</ele>
        <time>2021-08-08T05:39:43Z</time>
      </trkpt>
      <trkpt lat="48.88359" lon="7.46659">
        <ele>197</ele>
        <time>2021-08-08T05:39:44Z</time>
      </trkpt>
      <trkpt lat="48.88354" lon="7.46695">
        <ele>196</ele>
        <time>2021-08-08T05:39:45Z</time>
      </trkpt>
      <trkpt lat="48.88354" lon="7.46695">
        <ele>195</ele>
        <time>2021-08-08T05:39:46Z</time>
      </trkpt>
      <trkpt lat="48.88349" lon="7.46727">
        <ele>195</ele>
        <time>2021-08-08T05:39:47Z</time>
      </trkpt>
      <trkpt lat="48.88349" lon="7.46727">
        <ele>195</ele>
        <time>2021-08-08T05:39:48Z</time>
      </trkpt>
      <trkpt lat="48.88345" lon="7.46748">
        <ele>195</ele>
        <time>2021-08-08T05:39:49Z</time>
      </trkpt>
      <trkpt lat="48.88345" lon="7.46761">
        <ele>194</ele>
        <time>2021-08-08T05:39:50Z</time>
      </trkpt>
      <trkpt lat="48.88346" lon="7.46775">
        <ele>194</ele>
        <time>2021-08-08T05:39:51Z</time>
      </trkpt>
      <trkpt lat="48.88346" lon="7.46775">
        <ele>193</ele>
        <time>2021-08-08T05:39:52Z</time>
      </trkpt>
      <trkpt lat="48.88344" lon="7.46796">
        <ele>193</ele>
        <time>2021-08-08T05:39:53Z</time>
      </trkpt>
      <trkpt lat="48.88344" lon="7.46796">
        <ele>193</ele>
        <time>2021-08-08T05:39:54Z</time>
      </trkpt>
      <trkpt lat="48.88341" lon="7.46812">
        <ele>193</ele>
        <time>2021-08-08T05:39:55Z</time>
      </trkpt>
      <trkpt lat="48.88341" lon="7.46812">
        <ele>192</ele>
        <time>2021-08-08T05:39:56Z</time>
      </trkpt>
      <trkpt lat="48.88336" lon="7.46827">
        <ele>192</ele>
        <time>2021-08-08T05:39:57Z</time>
      </trkpt>
      <trkpt lat="48.88336" lon="7.46827">
        <ele>192</ele>
        <time>2021-08-08T05:39:58Z</time>
      </trkpt>
      <trkpt lat="48.88333" lon="7.46838">
        <ele>192</ele>
        <time>2021-08-08T05:39:59Z</time>
      </trkpt>
      <trkpt lat="48.88333" lon="7.46838">
        <ele>191</ele>
        <time>2021-08-08T05:40:00Z</time>
      </trkpt>
      <trkpt lat="48.88329" lon="7.46845">
        <ele>191</ele>
        <time>2021-08-08T05:40:01Z</time>
      </trkpt>
      <trkpt lat="48.88329" lon="7.46845">
        <ele>191</ele>
        <time>2021-08-08T05:40:02Z</time>
      </trkpt>
      <trkpt lat="48.88325" lon="7.46855">
        <ele>191</ele>
        <time>2021-08-08T05:40:03Z</time>
      </trkpt>
      <trkpt lat="48.88325" lon="7.46855">
        <ele>190</ele>
        <time>2021-08-08T05:40:04Z</time>
      </trkpt>
      <trkpt lat="48.88322" lon="7.46865">
        <ele>190</ele>
        <time>2021-08-08T05:40:05Z</time>
      </trkpt>
      <trkpt lat="48.88322" lon="7.46865">
        <ele>189</ele>
        <time>2021-08-08T05:40:06Z</time>
      </trkpt>
      <trkpt lat="48.88318" lon="7.46874">
        <ele>189</ele>
        <time>2021-08-08T05:40:07Z</time>
      </trkpt>
      <trkpt lat="48.88318" lon="7.46874">
        <ele>189</ele>
        <time>2021-08-08T05:40:08Z</time>
      </trkpt>
      <trkpt lat="48.88314" lon="7.46885">
        <ele>189</ele>
        <time>2021-08-08T05:40:09Z</time>
      </trkpt>
      <trkpt lat="48.88314" lon="7.46885">
        <ele>189</ele>
        <time>2021-08-08T05:40:10Z</time>
      </trkpt>
      <trkpt lat="48.88309" lon="7.46895">
        <ele>189</ele>
        <time>2021-08-08T05:40:11Z</time>
      </trkpt>
      <trkpt lat="48.88309" lon="7.46895">
        <ele>188</ele>
        <time>2021-08-08T05:40:12Z</time>
      </trkpt>
      <trkpt lat="48.88306" lon="7.46903">
        <ele>188</ele>
        <time>2021-08-08T05:40:13Z</time>
      </trkpt>
      <trkpt lat="48.88306" lon="7.46903">
        <ele>188</ele>
        <time>2021-08-08T05:40:14Z</time>
      </trkpt>
      <trkpt lat="48.88307" lon="7.46907">
        <ele>188</ele>
        <time>2021-08-08T05:40:15Z</time>
      </trkpt>
      <trkpt lat="48.88307" lon="7.46907">
        <ele>188</ele>
        <time>2021-08-08T05:40:16Z</time>
      </trkpt>
      <trkpt lat="48.8831" lon="7.46913">
        <ele>188</ele>
        <time>2021-08-08T05:40:17Z</time>
      </trkpt>
      <trkpt lat="48.88312" lon="7.46916">
        <ele>188</ele>
        <time>2021-08-08T05:40:18Z</time>
      </trkpt>
      <trkpt lat="48.88312" lon="7.46916">
        <ele>188</ele>
        <time>2021-08-08T05:40:19Z</time>
      </trkpt>
      <trkpt lat="48.88316" lon="7.46924">
        <ele>188</ele>
        <time>2021-08-08T05:40:20Z</time>
      </trkpt>
      <trkpt lat="48.88316" lon="7.46924">
        <ele>188</ele>
        <time>2021-08-08T05:40:21Z</time>
      </trkpt>
      <trkpt lat="48.88324" lon="7.46932">
        <ele>188</ele>
        <time>2021-08-08T05:40:22Z</time>
      </trkpt>
      <trkpt lat="48.88324" lon="7.46932">
        <ele>188</ele>
        <time>2021-08-08T05:40:23Z</time>
      </trkpt>
      <trkpt lat="48.8833" lon="7.46942">
        <ele>187</ele>
        <time>2021-08-08T05:40:24Z</time>
      </trkpt>
      <trkpt lat="48.88333" lon="7.46946">
        <ele>187</ele>
        <time>2021-08-08T05:40:25Z</time>
      </trkpt>
      <trkpt lat="48.88333" lon="7.46946">
        <ele>187</ele>
        <time>2021-08-08T05:40:26Z</time>
      </trkpt>
      <trkpt lat="48.88339" lon="7.46955">
        <ele>187</ele>
        <time>2021-08-08T05:40:27Z</time>
      </trkpt>
      <trkpt lat="48.88339" lon="7.46955">
        <ele>187</ele>
        <time>2021-08-08T05:40:28Z</time>
      </trkpt>
      <trkpt lat="48.88345" lon="7.46963">
        <ele>187</ele>
        <time>2021-08-08T05:40:29Z</time>
      </trkpt>
      <trkpt lat="48.88348" lon="7.46968">
        <ele>187</ele>
        <time>2021-08-08T05:40:30Z</time>
      </trkpt>
      <trkpt lat="48.88348" lon="7.46968">
        <ele>187</ele>
        <time>2021-08-08T05:40:31Z</time>
      </trkpt>
      <trkpt lat="48.88355" lon="7.46977">
        <ele>186</ele>
        <time>2021-08-08T05:40:32Z</time>
      </trkpt>
      <trkpt lat="48.88357" lon="7.46979">
        <ele>186</ele>
        <time>2021-08-08T05:40:33Z</time>
      </trkpt>
      <trkpt lat="48.88357" lon="7.46979">
        <ele>186</ele>
        <time>2021-08-08T05:40:34Z</time>
      </trkpt>
      <trkpt lat="48.88363" lon="7.46985">
        <ele>186</ele>
        <time>2021-08-08T05:40:35Z</time>
      </trkpt>
      <trkpt lat="48.88363" lon="7.46985">
        <ele>186</ele>
        <time>2021-08-08T05:40:36Z</time>
      </trkpt>
      <trkpt lat="48.88369" lon="7.46988">
        <ele>186</ele>
        <time>2021-08-08T05:40:37Z</time>
      </trkpt>
      <trkpt lat="48.88372" lon="7.46991">
        <ele>186</ele>
        <time>2021-08-08T05:40:38Z</time>
      </trkpt>
      <trkpt lat="48.88375" lon="7.46993">
        <ele>186</ele>
        <time>2021-08-08T05:40:39Z</time>
      </trkpt>
      <trkpt lat="48.88375" lon="7.46993">
        <ele>186</ele>
        <time>2021-08-08T05:40:40Z</time>
      </trkpt>
      <trkpt lat="48.88383" lon="7.47">
        <ele>186</ele>
        <time>2021-08-08T05:40:41Z</time>
      </trkpt>
      <trkpt lat="48.88383" lon="7.47">
        <ele>186</ele>
        <time>2021-08-08T05:40:42Z</time>
      </trkpt>
      <trkpt lat="48.88391" lon="7.47005">
        <ele>186</ele>
        <time>2021-08-08T05:40:43Z</time>
      </trkpt>
      <trkpt lat="48.88391" lon="7.47005">
        <ele>186</ele>
        <time>2021-08-08T05:40:44Z</time>
      </trkpt>
      <trkpt lat="48.88399" lon="7.47011">
        <ele>186</ele>
        <time>2021-08-08T05:40:45Z</time>
      </trkpt>
      <trkpt lat="48.88399" lon="7.47011">
        <ele>186</ele>
        <time>2021-08-08T05:40:46Z</time>
      </trkpt>
      <trkpt lat="48.88408" lon="7.47016">
        <ele>186</ele>
        <time>2021-08-08T05:40:47Z</time>
      </trkpt>
      <trkpt lat="48.88408" lon="7.47016">
        <ele>186</ele>
        <time>2021-08-08T05:40:48Z</time>
      </trkpt>
      <trkpt lat="48.88417" lon="7.47022">
        <ele>186</ele>
        <time>2021-08-08T05:40:49Z</time>
      </trkpt>
      <trkpt lat="48.88423" lon="7.47023">
        <ele>186</ele>
        <time>2021-08-08T05:40:50Z</time>
      </trkpt>
      <trkpt lat="48.88423" lon="7.47023">
        <ele>186</ele>
        <time>2021-08-08T05:40:51Z</time>
      </trkpt>
      <trkpt lat="48.88431" lon="7.47028">
        <ele>186</ele>
        <time>2021-08-08T05:40:52Z</time>
      </trkpt>
      <trkpt lat="48.88431" lon="7.47028">
        <ele>186</ele>
        <time>2021-08-08T05:40:53Z</time>
      </trkpt>
      <trkpt lat="48.88438" lon="7.47017">
        <ele>185</ele>
        <time>2021-08-08T05:40:54Z</time>
      </trkpt>
      <trkpt lat="48.88441" lon="7.47008">
        <ele>185</ele>
        <time>2021-08-08T05:40:55Z</time>
      </trkpt>
      <trkpt lat="48.88441" lon="7.47008">
        <ele>185</ele>
        <time>2021-08-08T05:40:56Z</time>
      </trkpt>
      <trkpt lat="48.88447" lon="7.46991">
        <ele>185</ele>
        <time>2021-08-08T05:40:57Z</time>
      </trkpt>
      <trkpt lat="48.88447" lon="7.46991">
        <ele>185</ele>
        <time>2021-08-08T05:40:58Z</time>
      </trkpt>
      <trkpt lat="48.88453" lon="7.46976">
        <ele>185</ele>
        <time>2021-08-08T05:40:59Z</time>
      </trkpt>
      <trkpt lat="48.8846" lon="7.46972">
        <ele>185</ele>
        <time>2021-08-08T05:41:00Z</time>
      </trkpt>
      <trkpt lat="48.88463" lon="7.46966">
        <ele>185</ele>
        <time>2021-08-08T05:41:01Z</time>
      </trkpt>
      <trkpt lat="48.88463" lon="7.46966">
        <ele>185</ele>
        <time>2021-08-08T05:41:02Z</time>
      </trkpt>
      <trkpt lat="48.8847" lon="7.46959">
        <ele>185</ele>
        <time>2021-08-08T05:41:03Z</time>
      </trkpt>
      <trkpt lat="48.8847" lon="7.46959">
        <ele>185</ele>
        <time>2021-08-08T05:41:04Z</time>
      </trkpt>
      <trkpt lat="48.88479" lon="7.46953">
        <ele>185</ele>
        <time>2021-08-08T05:41:05Z</time>
      </trkpt>
      <trkpt lat="48.88484" lon="7.46949">
        <ele>185</ele>
        <time>2021-08-08T05:41:06Z</time>
      </trkpt>
      <trkpt lat="48.88484" lon="7.46949">
        <ele>185</ele>
        <time>2021-08-08T05:41:07Z</time>
      </trkpt>
      <trkpt lat="48.88493" lon="7.46944">
        <ele>185</ele>
        <time>2021-08-08T05:41:08Z</time>
      </trkpt>
      <trkpt lat="48.88498" lon="7.4694">
        <ele>185</ele>
        <time>2021-08-08T05:41:09Z</time>
      </trkpt>
      <trkpt lat="48.88498" lon="7.4694">
        <ele>185</ele>
        <time>2021-08-08T05:41:10Z</time>
      </trkpt>
      <trkpt lat="48.88509" lon="7.46934">
        <ele>185</ele>
        <time>2021-08-08T05:41:11Z</time>
      </trkpt>
      <trkpt lat="48.88509" lon="7.46934">
        <ele>185</ele>
        <time>2021-08-08T05:41:12Z</time>
      </trkpt>
      <trkpt lat="48.8852" lon="7.46928">
        <ele>185</ele>
        <time>2021-08-08T05:41:13Z</time>
      </trkpt>
      <trkpt lat="48.8852" lon="7.46928">
        <ele>185</ele>
        <time>2021-08-08T05:41:14Z</time>
      </trkpt>
      <trkpt lat="48.88531" lon="7.46922">
        <ele>185</ele>
        <time>2021-08-08T05:41:15Z</time>
      </trkpt>
      <trkpt lat="48.88531" lon="7.46922">
        <ele>185</ele>
        <time>2021-08-08T05:41:16Z</time>
      </trkpt>
      <trkpt lat="48.88543" lon="7.46922">
        <ele>185</ele>
        <time>2021-08-08T05:41:17Z</time>
      </trkpt>
      <trkpt lat="48.88543" lon="7.46922">
        <ele>185</ele>
        <time>2021-08-08T05:41:18Z</time>
      </trkpt>
      <trkpt lat="48.88554" lon="7.46927">
        <ele>184</ele>
        <time>2021-08-08T05:41:19Z</time>
      </trkpt>
      <trkpt lat="48.88554" lon="7.46927">
        <ele>184</ele>
        <time>2021-08-08T05:41:20Z</time>
      </trkpt>
      <trkpt lat="48.88564" lon="7.46936">
        <ele>184</ele>
        <time>2021-08-08T05:41:21Z</time>
      </trkpt>
      <trkpt lat="48.88564" lon="7.46936">
        <ele>184</ele>
        <time>2021-08-08T05:41:22Z</time>
      </trkpt>
      <trkpt lat="48.88574" lon="7.46944">
        <ele>184</ele>
        <time>2021-08-08T05:41:23Z</time>
      </trkpt>
      <trkpt lat="48.88574" lon="7.46944">
        <ele>184</ele>
        <time>2021-08-08T05:41:24Z</time>
      </trkpt>
      <trkpt lat="48.88585" lon="7.46953">
        <ele>184</ele>
        <time>2021-08-08T05:41:25Z</time>
      </trkpt>
      <trkpt lat="48.88585" lon="7.46953">
        <ele>184</ele>
        <time>2021-08-08T05:41:26Z</time>
      </trkpt>
      <trkpt lat="48.88595" lon="7.46961">
        <ele>184</ele>
        <time>2021-08-08T05:41:27Z</time>
      </trkpt>
      <trkpt lat="48.88595" lon="7.46961">
        <ele>184</ele>
        <time>2021-08-08T05:41:28Z</time>
      </trkpt>
      <trkpt lat="48.88604" lon="7.46969">
        <ele>184</ele>
        <time>2021-08-08T05:41:29Z</time>
      </trkpt>
      <trkpt lat="48.88604" lon="7.46969">
        <ele>184</ele>
        <time>2021-08-08T05:41:30Z</time>
      </trkpt>
      <trkpt lat="48.88613" lon="7.46977">
        <ele>184</ele>
        <time>2021-08-08T05:41:31Z</time>
      </trkpt>
      <trkpt lat="48.88613" lon="7.46977">
        <ele>184</ele>
        <time>2021-08-08T05:41:32Z</time>
      </trkpt>
      <trkpt lat="48.88623" lon="7.46989">
        <ele>184</ele>
        <time>2021-08-08T05:41:33Z</time>
      </trkpt>
      <trkpt lat="48.88623" lon="7.46989">
        <ele>184</ele>
        <time>2021-08-08T05:41:34Z</time>
      </trkpt>
      <trkpt lat="48.88632" lon="7.46999">
        <ele>184</ele>
        <time>2021-08-08T05:41:35Z</time>
      </trkpt>
      <trkpt lat="48.88632" lon="7.46999">
        <ele>184</ele>
        <time>2021-08-08T05:41:36Z</time>
      </trkpt>
      <trkpt lat="48.88642" lon="7.47011">
        <ele>184</ele>
        <time>2021-08-08T05:41:37Z</time>
      </trkpt>
      <trkpt lat="48.88642" lon="7.47011">
        <ele>184</ele>
        <time>2021-08-08T05:41:38Z</time>
      </trkpt>
      <trkpt lat="48.88651" lon="7.47022">
        <ele>184</ele>
        <time>2021-08-08T05:41:39Z</time>
      </trkpt>
      <trkpt lat="48.88651" lon="7.47022">
        <ele>184</ele>
        <time>2021-08-08T05:41:40Z</time>
      </trkpt>
      <trkpt lat="48.8866" lon="7.47033">
        <ele>184</ele>
        <time>2021-08-08T05:41:41Z</time>
      </trkpt>
      <trkpt lat="48.8866" lon="7.47033">
        <ele>184</ele>
        <time>2021-08-08T05:41:42Z</time>
      </trkpt>
      <trkpt lat="48.8867" lon="7.47047">
        <ele>184</ele>
        <time>2021-08-08T05:41:43Z</time>
      </trkpt>
      <trkpt lat="48.8867" lon="7.47047">
        <ele>184</ele>
        <time>2021-08-08T05:41:44Z</time>
      </trkpt>
      <trkpt lat="48.88677" lon="7.47057">
        <ele>184</ele>
        <time>2021-08-08T05:41:45Z</time>
      </trkpt>
      <trkpt lat="48.88677" lon="7.47057">
        <ele>184</ele>
        <time>2021-08-08T05:41:46Z</time>
      </trkpt>
      <trkpt lat="48.88686" lon="7.47066">
        <ele>184</ele>
        <time>2021-08-08T05:41:47Z</time>
      </trkpt>
      <trkpt lat="48.88686" lon="7.47066">
        <ele>184</ele>
        <time>2021-08-08T05:41:48Z</time>
      </trkpt>
      <trkpt lat="48.88697" lon="7.47074">
        <ele>184</ele>
        <time>2021-08-08T05:41:49Z</time>
      </trkpt>
      <trkpt lat="48.88697" lon="7.47074">
        <ele>184</ele>
        <time>2021-08-08T05:41:50Z</time>
      </trkpt>
      <trkpt lat="48.88706" lon="7.4708">
        <ele>184</ele>
        <time>2021-08-08T05:41:51Z</time>
      </trkpt>
      <trkpt lat="48.88706" lon="7.4708">
        <ele>184</ele>
        <time>2021-08-08T05:41:52Z</time>
      </trkpt>
      <trkpt lat="48.8871" lon="7.47089">
        <ele>184</ele>
        <time>2021-08-08T05:41:53Z</time>
      </trkpt>
      <trkpt lat="48.8871" lon="7.47095">
        <ele>184</ele>
        <time>2021-08-08T05:41:54Z</time>
      </trkpt>
      <trkpt lat="48.8871" lon="7.47095">
        <ele>184</ele>
        <time>2021-08-08T05:41:55Z</time>
      </trkpt>
      <trkpt lat="48.88711" lon="7.47108">
        <ele>184</ele>
        <time>2021-08-08T05:41:56Z</time>
      </trkpt>
      <trkpt lat="48.88711" lon="7.47108">
        <ele>184</ele>
        <time>2021-08-08T05:41:57Z</time>
      </trkpt>
      <trkpt lat="48.8871" lon="7.47124">
        <ele>184</ele>
        <time>2021-08-08T05:41:58Z</time>
      </trkpt>
      <trkpt lat="48.8871" lon="7.47124">
        <ele>183</ele>
        <time>2021-08-08T05:41:59Z</time>
      </trkpt>
      <trkpt lat="48.8871" lon="7.47139">
        <ele>183</ele>
        <time>2021-08-08T05:42:00Z</time>
      </trkpt>
      <trkpt lat="48.8871" lon="7.47147">
        <ele>183</ele>
        <time>2021-08-08T05:42:01Z</time>
      </trkpt>
      <trkpt lat="48.8871" lon="7.47147">
        <ele>183</ele>
        <time>2021-08-08T05:42:02Z</time>
      </trkpt>
      <trkpt lat="48.88708" lon="7.4716">
        <ele>183</ele>
        <time>2021-08-08T05:42:03Z</time>
      </trkpt>
      <trkpt lat="48.88708" lon="7.4716">
        <ele>183</ele>
        <time>2021-08-08T05:42:04Z</time>
      </trkpt>
      <trkpt lat="48.88705" lon="7.47173">
        <ele>183</ele>
        <time>2021-08-08T05:42:05Z</time>
      </trkpt>
      <trkpt lat="48.88705" lon="7.47173">
        <ele>183</ele>
        <time>2021-08-08T05:42:06Z</time>
      </trkpt>
      <trkpt lat="48.88702" lon="7.47184">
        <ele>183</ele>
        <time>2021-08-08T05:42:07Z</time>
      </trkpt>
      <trkpt lat="48.88702" lon="7.47184">
        <ele>183</ele>
        <time>2021-08-08T05:42:08Z</time>
      </trkpt>
      <trkpt lat="48.887" lon="7.47195">
        <ele>183</ele>
        <time>2021-08-08T05:42:09Z</time>
      </trkpt>
      <trkpt lat="48.887" lon="7.47195">
        <ele>183</ele>
        <time>2021-08-08T05:42:10Z</time>
      </trkpt>
      <trkpt lat="48.88697" lon="7.47207">
        <ele>183</ele>
        <time>2021-08-08T05:42:11Z</time>
      </trkpt>
      <trkpt lat="48.88697" lon="7.47207">
        <ele>183</ele>
        <time>2021-08-08T05:42:12Z</time>
      </trkpt>
      <trkpt lat="48.88695" lon="7.47222">
        <ele>183</ele>
        <time>2021-08-08T05:42:13Z</time>
      </trkpt>
      <trkpt lat="48.88694" lon="7.47232">
        <ele>183</ele>
        <time>2021-08-08T05:42:14Z</time>
      </trkpt>
      <trkpt lat="48.88693" lon="7.4724">
        <ele>184</ele>
        <time>2021-08-08T05:42:15Z</time>
      </trkpt>
      <trkpt lat="48.88693" lon="7.4724">
        <ele>184</ele>
        <time>2021-08-08T05:42:16Z</time>
      </trkpt>
      <trkpt lat="48.88691" lon="7.47255">
        <ele>184</ele>
        <time>2021-08-08T05:42:17Z</time>
      </trkpt>
      <trkpt lat="48.88691" lon="7.47255">
        <ele>184</ele>
        <time>2021-08-08T05:42:18Z</time>
      </trkpt>
      <trkpt lat="48.88691" lon="7.4727">
        <ele>184</ele>
        <time>2021-08-08T05:42:19Z</time>
      </trkpt>
      <trkpt lat="48.88691" lon="7.4727">
        <ele>184</ele>
        <time>2021-08-08T05:42:20Z</time>
      </trkpt>
      <trkpt lat="48.88693" lon="7.47286">
        <ele>184</ele>
        <time>2021-08-08T05:42:21Z</time>
      </trkpt>
      <trkpt lat="48.88693" lon="7.47286">
        <ele>185</ele>
        <time>2021-08-08T05:42:22Z</time>
      </trkpt>
      <trkpt lat="48.88693" lon="7.473">
        <ele>185</ele>
        <time>2021-08-08T05:42:23Z</time>
      </trkpt>
      <trkpt lat="48.88693" lon="7.473">
        <ele>185</ele>
        <time>2021-08-08T05:42:24Z</time>
      </trkpt>
      <trkpt lat="48.88695" lon="7.47316">
        <ele>185</ele>
        <time>2021-08-08T05:42:25Z</time>
      </trkpt>
      <trkpt lat="48.88695" lon="7.47316">
        <ele>185</ele>
        <time>2021-08-08T05:42:26Z</time>
      </trkpt>
      <trkpt lat="48.88696" lon="7.47331">
        <ele>185</ele>
        <time>2021-08-08T05:42:27Z</time>
      </trkpt>
      <trkpt lat="48.88696" lon="7.47331">
        <ele>185</ele>
        <time>2021-08-08T05:42:28Z</time>
      </trkpt>
      <trkpt lat="48.88696" lon="7.47346">
        <ele>185</ele>
        <time>2021-08-08T05:42:29Z</time>
      </trkpt>
      <trkpt lat="48.88695" lon="7.47353">
        <ele>185</ele>
        <time>2021-08-08T05:42:30Z</time>
      </trkpt>
      <trkpt lat="48.88694" lon="7.4736">
        <ele>185</ele>
        <time>2021-08-08T05:42:31Z</time>
      </trkpt>
      <trkpt lat="48.88694" lon="7.4736">
        <ele>185</ele>
        <time>2021-08-08T05:42:32Z</time>
      </trkpt>
      <trkpt lat="48.88691" lon="7.47374">
        <ele>185</ele>
        <time>2021-08-08T05:42:33Z</time>
      </trkpt>
      <trkpt lat="48.88691" lon="7.47374">
        <ele>185</ele>
        <time>2021-08-08T05:42:34Z</time>
      </trkpt>
      <trkpt lat="48.88688" lon="7.47387">
        <ele>185</ele>
        <time>2021-08-08T05:42:35Z</time>
      </trkpt>
      <trkpt lat="48.88688" lon="7.47387">
        <ele>185</ele>
        <time>2021-08-08T05:42:36Z</time>
      </trkpt>
      <trkpt lat="48.88685" lon="7.474">
        <ele>185</ele>
        <time>2021-08-08T05:42:37Z</time>
      </trkpt>
      <trkpt lat="48.88685" lon="7.474">
        <ele>185</ele>
        <time>2021-08-08T05:42:38Z</time>
      </trkpt>
      <trkpt lat="48.88682" lon="7.47413">
        <ele>185</ele>
        <time>2021-08-08T05:42:39Z</time>
      </trkpt>
      <trkpt lat="48.88682" lon="7.47413">
        <ele>185</ele>
        <time>2021-08-08T05:42:40Z</time>
      </trkpt>
      <trkpt lat="48.88679" lon="7.47423">
        <ele>185</ele>
        <time>2021-08-08T05:42:41Z</time>
      </trkpt>
      <trkpt lat="48.88678" lon="7.47428">
        <ele>185</ele>
        <time>2021-08-08T05:42:42Z</time>
      </trkpt>
      <trkpt lat="48.88678" lon="7.47428">
        <ele>185</ele>
        <time>2021-08-08T05:42:43Z</time>
      </trkpt>
      <trkpt lat="48.88676" lon="7.47437">
        <ele>185</ele>
        <time>2021-08-08T05:42:44Z</time>
      </trkpt>
      <trkpt lat="48.88677" lon="7.47443">
        <ele>185</ele>
        <time>2021-08-08T05:42:45Z</time>
      </trkpt>
      <trkpt lat="48.88677" lon="7.47443">
        <ele>185</ele>
        <time>2021-08-08T05:42:46Z</time>
      </trkpt>
      <trkpt lat="48.88682" lon="7.47453">
        <ele>185</ele>
        <time>2021-08-08T05:42:47Z</time>
      </trkpt>
      <trkpt lat="48.88686" lon="7.47456">
        <ele>185</ele>
        <time>2021-08-08T05:42:48Z</time>
      </trkpt>
      <trkpt lat="48.88689" lon="7.47459">
        <ele>185</ele>
        <time>2021-08-08T05:42:49Z</time>
      </trkpt>
      <trkpt lat="48.88689" lon="7.47459">
        <ele>185</ele>
        <time>2021-08-08T05:42:50Z</time>
      </trkpt>
      <trkpt lat="48.88695" lon="7.47464">
        <ele>185</ele>
        <time>2021-08-08T05:42:51Z</time>
      </trkpt>
      <trkpt lat="48.88695" lon="7.47464">
        <ele>185</ele>
        <time>2021-08-08T05:42:52Z</time>
      </trkpt>
      <trkpt lat="48.88701" lon="7.47471">
        <ele>185</ele>
        <time>2021-08-08T05:42:53Z</time>
      </trkpt>
      <trkpt lat="48.88701" lon="7.47471">
        <ele>185</ele>
        <time>2021-08-08T05:42:54Z</time>
      </trkpt>
      <trkpt lat="48.88708" lon="7.47477">
        <ele>185</ele>
        <time>2021-08-08T05:42:55Z</time>
      </trkpt>
      <trkpt lat="48.88708" lon="7.47477">
        <ele>186</ele>
        <time>2021-08-08T05:42:56Z</time>
      </trkpt>
      <trkpt lat="48.88714" lon="7.47483">
        <ele>186</ele>
        <time>2021-08-08T05:42:57Z</time>
      </trkpt>
      <trkpt lat="48.88714" lon="7.47483">
        <ele>186</ele>
        <time>2021-08-08T05:42:58Z</time>
      </trkpt>
      <trkpt lat="48.8872" lon="7.47489">
        <ele>186</ele>
        <time>2021-08-08T05:42:59Z</time>
      </trkpt>
      <trkpt lat="48.88722" lon="7.47491">
        <ele>187</ele>
        <time>2021-08-08T05:43:00Z</time>
      </trkpt>
      <trkpt lat="48.88722" lon="7.47491">
        <ele>187</ele>
        <time>2021-08-08T05:43:01Z</time>
      </trkpt>
      <trkpt lat="48.88728" lon="7.47497">
        <ele>187</ele>
        <time>2021-08-08T05:43:02Z</time>
      </trkpt>
      <trkpt lat="48.88728" lon="7.47497">
        <ele>187</ele>
        <time>2021-08-08T05:43:03Z</time>
      </trkpt>
      <trkpt lat="48.88734" lon="7.47503">
        <ele>187</ele>
        <time>2021-08-08T05:43:04Z</time>
      </trkpt>
      <trkpt lat="48.88737" lon="7.47507">
        <ele>187</ele>
        <time>2021-08-08T05:43:05Z</time>
      </trkpt>
      <trkpt lat="48.88737" lon="7.47507">
        <ele>188</ele>
        <time>2021-08-08T05:43:06Z</time>
      </trkpt>
      <trkpt lat="48.88743" lon="7.47513">
        <ele>188</ele>
        <time>2021-08-08T05:43:07Z</time>
      </trkpt>
      <trkpt lat="48.88743" lon="7.47513">
        <ele>188</ele>
        <time>2021-08-08T05:43:08Z</time>
      </trkpt>
      <trkpt lat="48.88748" lon="7.4752">
        <ele>188</ele>
        <time>2021-08-08T05:43:09Z</time>
      </trkpt>
      <trkpt lat="48.88748" lon="7.4752">
        <ele>189</ele>
        <time>2021-08-08T05:43:10Z</time>
      </trkpt>
      <trkpt lat="48.88754" lon="7.47526">
        <ele>189</ele>
        <time>2021-08-08T05:43:11Z</time>
      </trkpt>
      <trkpt lat="48.88754" lon="7.47526">
        <ele>189</ele>
        <time>2021-08-08T05:43:12Z</time>
      </trkpt>
      <trkpt lat="48.88759" lon="7.47532">
        <ele>189</ele>
        <time>2021-08-08T05:43:13Z</time>
      </trkpt>
      <trkpt lat="48.88759" lon="7.47532">
        <ele>189</ele>
        <time>2021-08-08T05:43:14Z</time>
      </trkpt>
      <trkpt lat="48.88765" lon="7.47539">
        <ele>189</ele>
        <time>2021-08-08T05:43:15Z</time>
      </trkpt>
      <trkpt lat="48.88765" lon="7.47539">
        <ele>190</ele>
        <time>2021-08-08T05:43:16Z</time>
      </trkpt>
      <trkpt lat="48.88771" lon="7.47545">
        <ele>190</ele>
        <time>2021-08-08T05:43:17Z</time>
      </trkpt>
      <trkpt lat="48.88771" lon="7.47545">
        <ele>190</ele>
        <time>2021-08-08T05:43:18Z</time>
      </trkpt>
      <trkpt lat="48.88776" lon="7.47551">
        <ele>190</ele>
        <time>2021-08-08T05:43:19Z</time>
      </trkpt>
      <trkpt lat="48.88776" lon="7.47551">
        <ele>190</ele>
        <time>2021-08-08T05:43:20Z</time>
      </trkpt>
      <trkpt lat="48.88782" lon="7.47558">
        <ele>190</ele>
        <time>2021-08-08T05:43:21Z</time>
      </trkpt>
      <trkpt lat="48.88782" lon="7.47558">
        <ele>191</ele>
        <time>2021-08-08T05:43:22Z</time>
      </trkpt>
      <trkpt lat="48.88788" lon="7.47565">
        <ele>191</ele>
        <time>2021-08-08T05:43:23Z</time>
      </trkpt>
      <trkpt lat="48.88788" lon="7.47565">
        <ele>191</ele>
        <time>2021-08-08T05:43:24Z</time>
      </trkpt>
      <trkpt lat="48.88793" lon="7.47572">
        <ele>191</ele>
        <time>2021-08-08T05:43:25Z</time>
      </trkpt>
      <trkpt lat="48.88793" lon="7.47572">
        <ele>191</ele>
        <time>2021-08-08T05:43:26Z</time>
      </trkpt>
      <trkpt lat="48.88799" lon="7.47579">
        <ele>191</ele>
        <time>2021-08-08T05:43:27Z</time>
      </trkpt>
      <trkpt lat="48.88799" lon="7.47579">
        <ele>192</ele>
        <time>2021-08-08T05:43:28Z</time>
      </trkpt>
      <trkpt lat="48.88805" lon="7.47586">
        <ele>192</ele>
        <time>2021-08-08T05:43:29Z</time>
      </trkpt>
      <trkpt lat="48.88808" lon="7.4759">
        <ele>192</ele>
        <time>2021-08-08T05:43:30Z</time>
      </trkpt>
      <trkpt lat="48.88808" lon="7.4759">
        <ele>192</ele>
        <time>2021-08-08T05:43:31Z</time>
      </trkpt>
      <trkpt lat="48.88813" lon="7.47597">
        <ele>192</ele>
        <time>2021-08-08T05:43:32Z</time>
      </trkpt>
      <trkpt lat="48.88813" lon="7.47597">
        <ele>192</ele>
        <time>2021-08-08T05:43:33Z</time>
      </trkpt>
      <trkpt lat="48.88819" lon="7.47604">
        <ele>193</ele>
        <time>2021-08-08T05:43:34Z</time>
      </trkpt>
      <trkpt lat="48.88819" lon="7.47604">
        <ele>193</ele>
        <time>2021-08-08T05:43:35Z</time>
      </trkpt>
      <trkpt lat="48.88824" lon="7.47611">
        <ele>193</ele>
        <time>2021-08-08T05:43:36Z</time>
      </trkpt>
      <trkpt lat="48.88826" lon="7.47615">
        <ele>193</ele>
        <time>2021-08-08T05:43:37Z</time>
      </trkpt>
      <trkpt lat="48.88826" lon="7.47615">
        <ele>193</ele>
        <time>2021-08-08T05:43:38Z</time>
      </trkpt>
      <trkpt lat="48.88832" lon="7.4762">
        <ele>193</ele>
        <time>2021-08-08T05:43:39Z</time>
      </trkpt>
      <trkpt lat="48.88832" lon="7.4762">
        <ele>193</ele>
        <time>2021-08-08T05:43:40Z</time>
      </trkpt>
      <trkpt lat="48.88838" lon="7.47622">
        <ele>193</ele>
        <time>2021-08-08T05:43:41Z</time>
      </trkpt>
      <trkpt lat="48.88838" lon="7.47622">
        <ele>193</ele>
        <time>2021-08-08T05:43:42Z</time>
      </trkpt>
      <trkpt lat="48.88844" lon="7.4762">
        <ele>193</ele>
        <time>2021-08-08T05:43:43Z</time>
      </trkpt>
      <trkpt lat="48.88844" lon="7.4762">
        <ele>193</ele>
        <time>2021-08-08T05:43:44Z</time>
      </trkpt>
      <trkpt lat="48.88851" lon="7.47618">
        <ele>193</ele>
        <time>2021-08-08T05:43:45Z</time>
      </trkpt>
      <trkpt lat="48.88854" lon="7.47616">
        <ele>193</ele>
        <time>2021-08-08T05:43:46Z</time>
      </trkpt>
      <trkpt lat="48.88858" lon="7.47614">
        <ele>193</ele>
        <time>2021-08-08T05:43:47Z</time>
      </trkpt>
      <trkpt lat="48.88858" lon="7.47614">
        <ele>193</ele>
        <time>2021-08-08T05:43:48Z</time>
      </trkpt>
      <trkpt lat="48.88866" lon="7.47612">
        <ele>193</ele>
        <time>2021-08-08T05:43:49Z</time>
      </trkpt>
      <trkpt lat="48.88869" lon="7.47611">
        <ele>193</ele>
        <time>2021-08-08T05:43:50Z</time>
      </trkpt>
      <trkpt lat="48.88869" lon="7.47611">
        <ele>193</ele>
        <time>2021-08-08T05:43:51Z</time>
      </trkpt>
      <trkpt lat="48.88875" lon="7.4761">
        <ele>193</ele>
        <time>2021-08-08T05:43:52Z</time>
      </trkpt>
      <trkpt lat="48.88875" lon="7.4761">
        <ele>194</ele>
        <time>2021-08-08T05:43:53Z</time>
      </trkpt>
      <trkpt lat="48.88882" lon="7.47609">
        <ele>194</ele>
        <time>2021-08-08T05:43:54Z</time>
      </trkpt>
      <trkpt lat="48.88886" lon="7.47607">
        <ele>194</ele>
        <time>2021-08-08T05:43:55Z</time>
      </trkpt>
      <trkpt lat="48.88886" lon="7.47607">
        <ele>194</ele>
        <time>2021-08-08T05:43:56Z</time>
      </trkpt>
      <trkpt lat="48.88891" lon="7.47602">
        <ele>194</ele>
        <time>2021-08-08T05:43:57Z</time>
      </trkpt>
      <trkpt lat="48.88891" lon="7.47602">
        <ele>194</ele>
        <time>2021-08-08T05:43:58Z</time>
      </trkpt>
      <trkpt lat="48.88895" lon="7.47599">
        <ele>194</ele>
        <time>2021-08-08T05:43:59Z</time>
      </trkpt>
      <trkpt lat="48.88895" lon="7.47599">
        <ele>194</ele>
        <time>2021-08-08T05:44:00Z</time>
      </trkpt>
      <trkpt lat="48.88899" lon="7.47595">
        <ele>194</ele>
        <time>2021-08-08T05:44:01Z</time>
      </trkpt>
      <trkpt lat="48.88899" lon="7.47595">
        <ele>194</ele>
        <time>2021-08-08T05:44:02Z</time>
      </trkpt>
      <trkpt lat="48.88904" lon="7.47591">
        <ele>195</ele>
        <time>2021-08-08T05:44:03Z</time>
      </trkpt>
      <trkpt lat="48.88906" lon="7.47588">
        <ele>195</ele>
        <time>2021-08-08T05:44:04Z</time>
      </trkpt>
      <trkpt lat="48.88906" lon="7.47588">
        <ele>195</ele>
        <time>2021-08-08T05:44:05Z</time>
      </trkpt>
      <trkpt lat="48.88909" lon="7.47584">
        <ele>195</ele>
        <time>2021-08-08T05:44:06Z</time>
      </trkpt>
      <trkpt lat="48.88911" lon="7.47582">
        <ele>195</ele>
        <time>2021-08-08T05:44:07Z</time>
      </trkpt>
      <trkpt lat="48.88913" lon="7.47579">
        <ele>195</ele>
        <time>2021-08-08T05:44:08Z</time>
      </trkpt>
      <trkpt lat="48.88913" lon="7.47579">
        <ele>195</ele>
        <time>2021-08-08T05:44:09Z</time>
      </trkpt>
      <trkpt lat="48.88919" lon="7.47573">
        <ele>195</ele>
        <time>2021-08-08T05:44:10Z</time>
      </trkpt>
      <trkpt lat="48.88921" lon="7.47569">
        <ele>195</ele>
        <time>2021-08-08T05:44:11Z</time>
      </trkpt>
      <trkpt lat="48.88921" lon="7.47569">
        <ele>195</ele>
        <time>2021-08-08T05:44:12Z</time>
      </trkpt>
      <trkpt lat="48.88926" lon="7.47563">
        <ele>195</ele>
        <time>2021-08-08T05:44:13Z</time>
      </trkpt>
      <trkpt lat="48.88926" lon="7.47563">
        <ele>195</ele>
        <time>2021-08-08T05:44:14Z</time>
      </trkpt>
      <trkpt lat="48.88932" lon="7.47555">
        <ele>195</ele>
        <time>2021-08-08T05:44:15Z</time>
      </trkpt>
      <trkpt lat="48.88932" lon="7.47555">
        <ele>195</ele>
        <time>2021-08-08T05:44:16Z</time>
      </trkpt>
      <trkpt lat="48.88936" lon="7.47548">
        <ele>195</ele>
        <time>2021-08-08T05:44:17Z</time>
      </trkpt>
      <trkpt lat="48.88936" lon="7.47548">
        <ele>195</ele>
        <time>2021-08-08T05:44:18Z</time>
      </trkpt>
      <trkpt lat="48.88942" lon="7.47541">
        <ele>195</ele>
        <time>2021-08-08T05:44:19Z</time>
      </trkpt>
      <trkpt lat="48.88942" lon="7.47541">
        <ele>195</ele>
        <time>2021-08-08T05:44:20Z</time>
      </trkpt>
      <trkpt lat="48.88947" lon="7.47535">
        <ele>195</ele>
        <time>2021-08-08T05:44:21Z</time>
      </trkpt>
      <trkpt lat="48.88947" lon="7.47535">
        <ele>195</ele>
        <time>2021-08-08T05:44:22Z</time>
      </trkpt>
      <trkpt lat="48.88953" lon="7.47534">
        <ele>195</ele>
        <time>2021-08-08T05:44:23Z</time>
      </trkpt>
      <trkpt lat="48.88953" lon="7.47534">
        <ele>195</ele>
        <time>2021-08-08T05:44:24Z</time>
      </trkpt>
      <trkpt lat="48.88957" lon="7.47536">
        <ele>195</ele>
        <time>2021-08-08T05:44:25Z</time>
      </trkpt>
      <trkpt lat="48.88957" lon="7.47536">
        <ele>195</ele>
        <time>2021-08-08T05:44:26Z</time>
      </trkpt>
      <trkpt lat="48.88961" lon="7.47541">
        <ele>195</ele>
        <time>2021-08-08T05:44:27Z</time>
      </trkpt>
      <trkpt lat="48.88961" lon="7.47541">
        <ele>195</ele>
        <time>2021-08-08T05:44:28Z</time>
      </trkpt>
      <trkpt lat="48.88964" lon="7.47545">
        <ele>195</ele>
        <time>2021-08-08T05:44:29Z</time>
      </trkpt>
      <trkpt lat="48.88964" lon="7.47545">
        <ele>195</ele>
        <time>2021-08-08T05:44:30Z</time>
      </trkpt>
      <trkpt lat="48.88966" lon="7.4755">
        <ele>196</ele>
        <time>2021-08-08T05:44:31Z</time>
      </trkpt>
      <trkpt lat="48.88966" lon="7.4755">
        <ele>196</ele>
        <time>2021-08-08T05:44:32Z</time>
      </trkpt>
      <trkpt lat="48.88969" lon="7.47556">
        <ele>196</ele>
        <time>2021-08-08T05:44:33Z</time>
      </trkpt>
      <trkpt lat="48.88969" lon="7.47556">
        <ele>196</ele>
        <time>2021-08-08T05:44:34Z</time>
      </trkpt>
      <trkpt lat="48.88973" lon="7.47561">
        <ele>196</ele>
        <time>2021-08-08T05:44:35Z</time>
      </trkpt>
      <trkpt lat="48.88975" lon="7.47565">
        <ele>196</ele>
        <time>2021-08-08T05:44:36Z</time>
      </trkpt>
      <trkpt lat="48.88977" lon="7.47568">
        <ele>196</ele>
        <time>2021-08-08T05:44:37Z</time>
      </trkpt>
      <trkpt lat="48.88977" lon="7.47568">
        <ele>196</ele>
        <time>2021-08-08T05:44:38Z</time>
      </trkpt>
      <trkpt lat="48.8898" lon="7.47577">
        <ele>196</ele>
        <time>2021-08-08T05:44:39Z</time>
      </trkpt>
      <trkpt lat="48.8898" lon="7.47577">
        <ele>196</ele>
        <time>2021-08-08T05:44:40Z</time>
      </trkpt>
      <trkpt lat="48.88984" lon="7.47585">
        <ele>197</ele>
        <time>2021-08-08T05:44:41Z</time>
      </trkpt>
      <trkpt lat="48.88985" lon="7.47589">
        <ele>197</ele>
        <time>2021-08-08T05:44:42Z</time>
      </trkpt>
      <trkpt lat="48.88985" lon="7.47589">
        <ele>197</ele>
        <time>2021-08-08T05:44:43Z</time>
      </trkpt>
      <trkpt lat="48.88988" lon="7.47598">
        <ele>197</ele>
        <time>2021-08-08T05:44:44Z</time>
      </trkpt>
      <trkpt lat="48.88991" lon="7.47602">
        <ele>197</ele>
        <time>2021-08-08T05:44:45Z</time>
      </trkpt>
      <trkpt lat="48.88991" lon="7.47602">
        <ele>197</ele>
        <time>2021-08-08T05:44:46Z</time>
      </trkpt>
      <trkpt lat="48.88995" lon="7.47611">
        <ele>197</ele>
        <time>2021-08-08T05:44:47Z</time>
      </trkpt>
      <trkpt lat="48.88995" lon="7.47611">
        <ele>197</ele>
        <time>2021-08-08T05:44:48Z</time>
      </trkpt>
      <trkpt lat="48.89001" lon="7.47619">
        <ele>198</ele>
        <time>2021-08-08T05:44:49Z</time>
      </trkpt>
      <trkpt lat="48.89004" lon="7.47623">
        <ele>198</ele>
        <time>2021-08-08T05:44:50Z</time>
      </trkpt>
      <trkpt lat="48.89007" lon="7.47627">
        <ele>198</ele>
        <time>2021-08-08T05:44:51Z</time>
      </trkpt>
      <trkpt lat="48.89007" lon="7.47627">
        <ele>198</ele>
        <time>2021-08-08T05:44:52Z</time>
      </trkpt>
      <trkpt lat="48.89013" lon="7.47633">
        <ele>198</ele>
        <time>2021-08-08T05:44:53Z</time>
      </trkpt>
      <trkpt lat="48.89015" lon="7.47637">
        <ele>198</ele>
        <time>2021-08-08T05:44:54Z</time>
      </trkpt>
      <trkpt lat="48.89015" lon="7.47637">
        <ele>199</ele>
        <time>2021-08-08T05:44:55Z</time>
      </trkpt>
      <trkpt lat="48.8902" lon="7.47645">
        <ele>199</ele>
        <time>2021-08-08T05:44:56Z</time>
      </trkpt>
      <trkpt lat="48.89022" lon="7.47647">
        <ele>199</ele>
        <time>2021-08-08T05:44:57Z</time>
      </trkpt>
      <trkpt lat="48.89022" lon="7.47647">
        <ele>199</ele>
        <time>2021-08-08T05:44:58Z</time>
      </trkpt>
      <trkpt lat="48.89026" lon="7.47652">
        <ele>199</ele>
        <time>2021-08-08T05:44:59Z</time>
      </trkpt>
      <trkpt lat="48.89026" lon="7.47652">
        <ele>199</ele>
        <time>2021-08-08T05:45:00Z</time>
      </trkpt>
      <trkpt lat="48.8903" lon="7.47658">
        <ele>199</ele>
        <time>2021-08-08T05:45:01Z</time>
      </trkpt>
      <trkpt lat="48.8903" lon="7.47658">
        <ele>199</ele>
        <time>2021-08-08T05:45:02Z</time>
      </trkpt>
      <trkpt lat="48.89033" lon="7.47663">
        <ele>200</ele>
        <time>2021-08-08T05:45:03Z</time>
      </trkpt>
      <trkpt lat="48.89033" lon="7.47663">
        <ele>200</ele>
        <time>2021-08-08T05:45:04Z</time>
      </trkpt>
      <trkpt lat="48.89036" lon="7.47668">
        <ele>200</ele>
        <time>2021-08-08T05:45:05Z</time>
      </trkpt>
      <trkpt lat="48.89038" lon="7.4767">
        <ele>200</ele>
        <time>2021-08-08T05:45:06Z</time>
      </trkpt>
      <trkpt lat="48.89038" lon="7.4767">
        <ele>200</ele>
        <time>2021-08-08T05:45:07Z</time>
      </trkpt>
      <trkpt lat="48.89041" lon="7.47674">
        <ele>200</ele>
        <time>2021-08-08T05:45:08Z</time>
      </trkpt>
      <trkpt lat="48.89044" lon="7.47677">
        <ele>200</ele>
        <time>2021-08-08T05:45:09Z</time>
      </trkpt>
      <trkpt lat="48.89044" lon="7.47677">
        <ele>200</ele>
        <time>2021-08-08T05:45:10Z</time>
      </trkpt>
      <trkpt lat="48.8905" lon="7.47682">
        <ele>200</ele>
        <time>2021-08-08T05:45:11Z</time>
      </trkpt>
      <trkpt lat="48.8905" lon="7.47682">
        <ele>200</ele>
        <time>2021-08-08T05:45:12Z</time>
      </trkpt>
      <trkpt lat="48.89055" lon="7.47686">
        <ele>200</ele>
        <time>2021-08-08T05:45:13Z</time>
      </trkpt>
      <trkpt lat="48.89055" lon="7.47686">
        <ele>200</ele>
        <time>2021-08-08T05:45:14Z</time>
      </trkpt>
      <trkpt lat="48.8906" lon="7.47692">
        <ele>200</ele>
        <time>2021-08-08T05:45:15Z</time>
      </trkpt>
      <trkpt lat="48.8906" lon="7.47692">
        <ele>200</ele>
        <time>2021-08-08T05:45:16Z</time>
      </trkpt>
      <trkpt lat="48.89064" lon="7.47698">
        <ele>200</ele>
        <time>2021-08-08T05:45:17Z</time>
      </trkpt>
      <trkpt lat="48.89064" lon="7.47698">
        <ele>200</ele>
        <time>2021-08-08T05:45:18Z</time>
      </trkpt>
      <trkpt lat="48.89069" lon="7.47705">
        <ele>200</ele>
        <time>2021-08-08T05:45:19Z</time>
      </trkpt>
      <trkpt lat="48.89073" lon="7.47709">
        <ele>200</ele>
        <time>2021-08-08T05:45:20Z</time>
      </trkpt>
      <trkpt lat="48.89073" lon="7.47709">
        <ele>200</ele>
        <time>2021-08-08T05:45:21Z</time>
      </trkpt>
      <trkpt lat="48.89078" lon="7.47717">
        <ele>200</ele>
        <time>2021-08-08T05:45:22Z</time>
      </trkpt>
      <trkpt lat="48.89078" lon="7.47717">
        <ele>200</ele>
        <time>2021-08-08T05:45:23Z</time>
      </trkpt>
      <trkpt lat="48.89083" lon="7.47725">
        <ele>200</ele>
        <time>2021-08-08T05:45:24Z</time>
      </trkpt>
      <trkpt lat="48.89083" lon="7.47725">
        <ele>201</ele>
        <time>2021-08-08T05:45:25Z</time>
      </trkpt>
      <trkpt lat="48.89086" lon="7.47734">
        <ele>201</ele>
        <time>2021-08-08T05:45:26Z</time>
      </trkpt>
      <trkpt lat="48.89086" lon="7.47734">
        <ele>201</ele>
        <time>2021-08-08T05:45:27Z</time>
      </trkpt>
      <trkpt lat="48.8909" lon="7.47742">
        <ele>201</ele>
        <time>2021-08-08T05:45:28Z</time>
      </trkpt>
      <trkpt lat="48.89092" lon="7.47745">
        <ele>201</ele>
        <time>2021-08-08T05:45:29Z</time>
      </trkpt>
      <trkpt lat="48.89092" lon="7.47745">
        <ele>201</ele>
        <time>2021-08-08T05:45:30Z</time>
      </trkpt>
      <trkpt lat="48.89093" lon="7.47752">
        <ele>201</ele>
        <time>2021-08-08T05:45:31Z</time>
      </trkpt>
      <trkpt lat="48.89093" lon="7.47752">
        <ele>202</ele>
        <time>2021-08-08T05:45:32Z</time>
      </trkpt>
      <trkpt lat="48.89093" lon="7.47759">
        <ele>202</ele>
        <time>2021-08-08T05:45:33Z</time>
      </trkpt>
      <trkpt lat="48.89093" lon="7.47759">
        <ele>202</ele>
        <time>2021-08-08T05:45:34Z</time>
      </trkpt>
      <trkpt lat="48.89095" lon="7.47766">
        <ele>202</ele>
        <time>2021-08-08T05:45:35Z</time>
      </trkpt>
      <trkpt lat="48.89095" lon="7.47766">
        <ele>202</ele>
        <time>2021-08-08T05:45:36Z</time>
      </trkpt>
      <trkpt lat="48.89096" lon="7.47774">
        <ele>202</ele>
        <time>2021-08-08T05:45:37Z</time>
      </trkpt>
      <trkpt lat="48.89098" lon="7.47779">
        <ele>202</ele>
        <time>2021-08-08T05:45:38Z</time>
      </trkpt>
      <trkpt lat="48.89098" lon="7.47779">
        <ele>202</ele>
        <time>2021-08-08T05:45:39Z</time>
      </trkpt>
      <trkpt lat="48.89101" lon="7.47787">
        <ele>202</ele>
        <time>2021-08-08T05:45:40Z</time>
      </trkpt>
      <trkpt lat="48.89101" lon="7.47787">
        <ele>202</ele>
        <time>2021-08-08T05:45:41Z</time>
      </trkpt>
      <trkpt lat="48.89103" lon="7.47795">
        <ele>202</ele>
        <time>2021-08-08T05:45:42Z</time>
      </trkpt>
      <trkpt lat="48.89104" lon="7.47799">
        <ele>202</ele>
        <time>2021-08-08T05:45:43Z</time>
      </trkpt>
      <trkpt lat="48.89104" lon="7.47799">
        <ele>203</ele>
        <time>2021-08-08T05:45:44Z</time>
      </trkpt>
      <trkpt lat="48.89106" lon="7.47807">
        <ele>203</ele>
        <time>2021-08-08T05:45:45Z</time>
      </trkpt>
      <trkpt lat="48.89106" lon="7.47807">
        <ele>203</ele>
        <time>2021-08-08T05:45:46Z</time>
      </trkpt>
      <trkpt lat="48.89108" lon="7.47814">
        <ele>203</ele>
        <time>2021-08-08T05:45:47Z</time>
      </trkpt>
      <trkpt lat="48.89108" lon="7.47814">
        <ele>203</ele>
        <time>2021-08-08T05:45:48Z</time>
      </trkpt>
      <trkpt lat="48.8911" lon="7.47821">
        <ele>203</ele>
        <time>2021-08-08T05:45:49Z</time>
      </trkpt>
      <trkpt lat="48.8911" lon="7.47821">
        <ele>203</ele>
        <time>2021-08-08T05:45:50Z</time>
      </trkpt>
      <trkpt lat="48.89112" lon="7.47829">
        <ele>203</ele>
        <time>2021-08-08T05:45:51Z</time>
      </trkpt>
      <trkpt lat="48.8911" lon="7.47837">
        <ele>204</ele>
        <time>2021-08-08T05:45:52Z</time>
      </trkpt>
      <trkpt lat="48.8911" lon="7.47837">
        <ele>204</ele>
        <time>2021-08-08T05:45:53Z</time>
      </trkpt>
      <trkpt lat="48.89111" lon="7.47846">
        <ele>204</ele>
        <time>2021-08-08T05:45:54Z</time>
      </trkpt>
      <trkpt lat="48.89111" lon="7.4785">
        <ele>204</ele>
        <time>2021-08-08T05:45:55Z</time>
      </trkpt>
      <trkpt lat="48.89113" lon="7.47856">
        <ele>204</ele>
        <time>2021-08-08T05:45:56Z</time>
      </trkpt>
      <trkpt lat="48.89113" lon="7.47856">
        <ele>204</ele>
        <time>2021-08-08T05:45:57Z</time>
      </trkpt>
      <trkpt lat="48.89119" lon="7.47868">
        <ele>205</ele>
        <time>2021-08-08T05:45:58Z</time>
      </trkpt>
      <trkpt lat="48.89119" lon="7.47868">
        <ele>205</ele>
        <time>2021-08-08T05:45:59Z</time>
      </trkpt>
      <trkpt lat="48.89122" lon="7.47879">
        <ele>205</ele>
        <time>2021-08-08T05:46:00Z</time>
      </trkpt>
      <trkpt lat="48.89122" lon="7.47879">
        <ele>205</ele>
        <time>2021-08-08T05:46:01Z</time>
      </trkpt>
      <trkpt lat="48.89123" lon="7.47887">
        <ele>205</ele>
        <time>2021-08-08T05:46:02Z</time>
      </trkpt>
      <trkpt lat="48.89123" lon="7.4789">
        <ele>205</ele>
        <time>2021-08-08T05:46:03Z</time>
      </trkpt>
      <trkpt lat="48.89123" lon="7.4789">
        <ele>205</ele>
        <time>2021-08-08T05:46:04Z</time>
      </trkpt>
      <trkpt lat="48.89124" lon="7.47897">
        <ele>205</ele>
        <time>2021-08-08T05:46:05Z</time>
      </trkpt>
      <trkpt lat="48.89124" lon="7.47897">
        <ele>205</ele>
        <time>2021-08-08T05:46:06Z</time>
      </trkpt>
      <trkpt lat="48.89126" lon="7.47905">
        <ele>205</ele>
        <time>2021-08-08T05:46:07Z</time>
      </trkpt>
      <trkpt lat="48.89126" lon="7.47905">
        <ele>205</ele>
        <time>2021-08-08T05:46:08Z</time>
      </trkpt>
      <trkpt lat="48.89127" lon="7.47914">
        <ele>205</ele>
        <time>2021-08-08T05:46:09Z</time>
      </trkpt>
      <trkpt lat="48.89129" lon="7.47919">
        <ele>207</ele>
        <time>2021-08-08T05:46:10Z</time>
      </trkpt>
      <trkpt lat="48.89129" lon="7.47919">
        <ele>207</ele>
        <time>2021-08-08T05:46:11Z</time>
      </trkpt>
      <trkpt lat="48.8913" lon="7.47927">
        <ele>207</ele>
        <time>2021-08-08T05:46:12Z</time>
      </trkpt>
      <trkpt lat="48.8913" lon="7.47927">
        <ele>207</ele>
        <time>2021-08-08T05:46:13Z</time>
      </trkpt>
      <trkpt lat="48.8913" lon="7.47937">
        <ele>207</ele>
        <time>2021-08-08T05:46:14Z</time>
      </trkpt>
      <trkpt lat="48.8913" lon="7.47942">
        <ele>207</ele>
        <time>2021-08-08T05:46:15Z</time>
      </trkpt>
      <trkpt lat="48.8913" lon="7.47942">
        <ele>207</ele>
        <time>2021-08-08T05:46:16Z</time>
      </trkpt>
      <trkpt lat="48.89129" lon="7.47955">
        <ele>207</ele>
        <time>2021-08-08T05:46:17Z</time>
      </trkpt>
      <trkpt lat="48.89129" lon="7.47955">
        <ele>207</ele>
        <time>2021-08-08T05:46:18Z</time>
      </trkpt>
      <trkpt lat="48.89131" lon="7.47964">
        <ele>207</ele>
        <time>2021-08-08T05:46:19Z</time>
      </trkpt>
      <trkpt lat="48.89131" lon="7.47964">
        <ele>207</ele>
        <time>2021-08-08T05:46:20Z</time>
      </trkpt>
      <trkpt lat="48.89131" lon="7.47974">
        <ele>207</ele>
        <time>2021-08-08T05:46:21Z</time>
      </trkpt>
      <trkpt lat="48.89131" lon="7.47974">
        <ele>207</ele>
        <time>2021-08-08T05:46:22Z</time>
      </trkpt>
      <trkpt lat="48.89133" lon="7.47986">
        <ele>207</ele>
        <time>2021-08-08T05:46:23Z</time>
      </trkpt>
      <trkpt lat="48.89133" lon="7.47986">
        <ele>207</ele>
        <time>2021-08-08T05:46:24Z</time>
      </trkpt>
      <trkpt lat="48.89135" lon="7.48">
        <ele>207</ele>
        <time>2021-08-08T05:46:25Z</time>
      </trkpt>
      <trkpt lat="48.89135" lon="7.48">
        <ele>207</ele>
        <time>2021-08-08T05:46:26Z</time>
      </trkpt>
      <trkpt lat="48.89137" lon="7.48009">
        <ele>209</ele>
        <time>2021-08-08T05:46:27Z</time>
      </trkpt>
      <trkpt lat="48.89139" lon="7.48017">
        <ele>209</ele>
        <time>2021-08-08T05:46:28Z</time>
      </trkpt>
      <trkpt lat="48.89139" lon="7.48017">
        <ele>209</ele>
        <time>2021-08-08T05:46:29Z</time>
      </trkpt>
      <trkpt lat="48.89144" lon="7.48029">
        <ele>209</ele>
        <time>2021-08-08T05:46:30Z</time>
      </trkpt>
      <trkpt lat="48.89144" lon="7.48029">
        <ele>209</ele>
        <time>2021-08-08T05:46:31Z</time>
      </trkpt>
      <trkpt lat="48.89147" lon="7.4804">
        <ele>209</ele>
        <time>2021-08-08T05:46:32Z</time>
      </trkpt>
      <trkpt lat="48.89148" lon="7.48044">
        <ele>209</ele>
        <time>2021-08-08T05:46:33Z</time>
      </trkpt>
      <trkpt lat="48.89148" lon="7.48044">
        <ele>209</ele>
        <time>2021-08-08T05:46:34Z</time>
      </trkpt>
      <trkpt lat="48.8915" lon="7.48049">
        <ele>209</ele>
        <time>2021-08-08T05:46:35Z</time>
      </trkpt>
      <trkpt lat="48.89152" lon="7.48051">
        <ele>209</ele>
        <time>2021-08-08T05:46:36Z</time>
      </trkpt>
      <trkpt lat="48.89152" lon="7.48051">
        <ele>209</ele>
        <time>2021-08-08T05:46:37Z</time>
      </trkpt>
      <trkpt lat="48.89154" lon="7.48057">
        <ele>209</ele>
        <time>2021-08-08T05:46:38Z</time>
      </trkpt>
      <trkpt lat="48.89155" lon="7.48061">
        <ele>210</ele>
        <time>2021-08-08T05:46:39Z</time>
      </trkpt>
      <trkpt lat="48.89155" lon="7.48061">
        <ele>210</ele>
        <time>2021-08-08T05:46:40Z</time>
      </trkpt>
      <trkpt lat="48.89157" lon="7.48068">
        <ele>210</ele>
        <time>2021-08-08T05:46:41Z</time>
      </trkpt>
      <trkpt lat="48.89157" lon="7.48068">
        <ele>210</ele>
        <time>2021-08-08T05:46:42Z</time>
      </trkpt>
      <trkpt lat="48.89158" lon="7.48076">
        <ele>210</ele>
        <time>2021-08-08T05:46:43Z</time>
      </trkpt>
      <trkpt lat="48.89158" lon="7.48079">
        <ele>210</ele>
        <time>2021-08-08T05:46:44Z</time>
      </trkpt>
      <trkpt lat="48.89158" lon="7.48079">
        <ele>211</ele>
        <time>2021-08-08T05:46:45Z</time>
      </trkpt>
      <trkpt lat="48.8916" lon="7.48088">
        <ele>211</ele>
        <time>2021-08-08T05:46:46Z</time>
      </trkpt>
      <trkpt lat="48.89161" lon="7.48091">
        <ele>211</ele>
        <time>2021-08-08T05:46:47Z</time>
      </trkpt>
      <trkpt lat="48.89161" lon="7.48091">
        <ele>211</ele>
        <time>2021-08-08T05:46:48Z</time>
      </trkpt>
      <trkpt lat="48.89164" lon="7.48099">
        <ele>211</ele>
        <time>2021-08-08T05:46:49Z</time>
      </trkpt>
      <trkpt lat="48.89164" lon="7.48099">
        <ele>211</ele>
        <time>2021-08-08T05:46:50Z</time>
      </trkpt>
      <trkpt lat="48.89168" lon="7.48105">
        <ele>212</ele>
        <time>2021-08-08T05:46:51Z</time>
      </trkpt>
      <trkpt lat="48.89168" lon="7.48105">
        <ele>212</ele>
        <time>2021-08-08T05:46:52Z</time>
      </trkpt>
      <trkpt lat="48.8917" lon="7.4811">
        <ele>212</ele>
        <time>2021-08-08T05:46:53Z</time>
      </trkpt>
      <trkpt lat="48.89173" lon="7.48114">
        <ele>212</ele>
        <time>2021-08-08T05:46:54Z</time>
      </trkpt>
      <trkpt lat="48.89174" lon="7.48119">
        <ele>212</ele>
        <time>2021-08-08T05:46:55Z</time>
      </trkpt>
      <trkpt lat="48.89174" lon="7.48119">
        <ele>213</ele>
        <time>2021-08-08T05:46:56Z</time>
      </trkpt>
      <trkpt lat="48.8918" lon="7.48126">
        <ele>213</ele>
        <time>2021-08-08T05:46:57Z</time>
      </trkpt>
      <trkpt lat="48.8918" lon="7.48126">
        <ele>213</ele>
        <time>2021-08-08T05:46:58Z</time>
      </trkpt>
      <trkpt lat="48.89185" lon="7.48134">
        <ele>213</ele>
        <time>2021-08-08T05:46:59Z</time>
      </trkpt>
      <trkpt lat="48.89187" lon="7.48136">
        <ele>213</ele>
        <time>2021-08-08T05:47:00Z</time>
      </trkpt>
      <trkpt lat="48.89188" lon="7.48139">
        <ele>213</ele>
        <time>2021-08-08T05:47:01Z</time>
      </trkpt>
      <trkpt lat="48.89188" lon="7.48139">
        <ele>214</ele>
        <time>2021-08-08T05:47:02Z</time>
      </trkpt>
      <trkpt lat="48.8919" lon="7.48144">
        <ele>214</ele>
        <time>2021-08-08T05:47:03Z</time>
      </trkpt>
      <trkpt lat="48.8919" lon="7.48144">
        <ele>214</ele>
        <time>2021-08-08T05:47:04Z</time>
      </trkpt>
      <trkpt lat="48.89191" lon="7.4815">
        <ele>214</ele>
        <time>2021-08-08T05:47:05Z</time>
      </trkpt>
      <trkpt lat="48.89192" lon="7.48153">
        <ele>214</ele>
        <time>2021-08-08T05:47:06Z</time>
      </trkpt>
      <trkpt lat="48.89193" lon="7.48155">
        <ele>214</ele>
        <time>2021-08-08T05:47:07Z</time>
      </trkpt>
      <trkpt lat="48.89193" lon="7.48155">
        <ele>214</ele>
        <time>2021-08-08T05:47:08Z</time>
      </trkpt>
      <trkpt lat="48.89193" lon="7.4816">
        <ele>214</ele>
        <time>2021-08-08T05:47:09Z</time>
      </trkpt>
      <trkpt lat="48.89193" lon="7.4816">
        <ele>215</ele>
        <time>2021-08-08T05:47:10Z</time>
      </trkpt>
      <trkpt lat="48.89192" lon="7.48165">
        <ele>215</ele>
        <time>2021-08-08T05:47:11Z</time>
      </trkpt>
      <trkpt lat="48.89193" lon="7.48168">
        <ele>216</ele>
        <time>2021-08-08T05:47:12Z</time>
      </trkpt>
      <trkpt lat="48.89193" lon="7.48168">
        <ele>216</ele>
        <time>2021-08-08T05:47:13Z</time>
      </trkpt>
      <trkpt lat="48.89194" lon="7.48176">
        <ele>216</ele>
        <time>2021-08-08T05:47:14Z</time>
      </trkpt>
      <trkpt lat="48.89194" lon="7.48176">
        <ele>216</ele>
        <time>2021-08-08T05:47:15Z</time>
      </trkpt>
      <trkpt lat="48.89197" lon="7.48184">
        <ele>216</ele>
        <time>2021-08-08T05:47:16Z</time>
      </trkpt>
      <trkpt lat="48.89197" lon="7.48184">
        <ele>216</ele>
        <time>2021-08-08T05:47:17Z</time>
      </trkpt>
      <trkpt lat="48.892" lon="7.48191">
        <ele>216</ele>
        <time>2021-08-08T05:47:18Z</time>
      </trkpt>
      <trkpt lat="48.89201" lon="7.48194">
        <ele>216</ele>
        <time>2021-08-08T05:47:19Z</time>
      </trkpt>
      <trkpt lat="48.89203" lon="7.48199">
        <ele>216</ele>
        <time>2021-08-08T05:47:20Z</time>
      </trkpt>
      <trkpt lat="48.89203" lon="7.48199">
        <ele>216</ele>
        <time>2021-08-08T05:47:21Z</time>
      </trkpt>
      <trkpt lat="48.89205" lon="7.48205">
        <ele>216</ele>
        <time>2021-08-08T05:47:22Z</time>
      </trkpt>
      <trkpt lat="48.89205" lon="7.48205">
        <ele>216</ele>
        <time>2021-08-08T05:47:23Z</time>
      </trkpt>
      <trkpt lat="48.89208" lon="7.48213">
        <ele>216</ele>
        <time>2021-08-08T05:47:24Z</time>
      </trkpt>
      <trkpt lat="48.89209" lon="7.4822">
        <ele>216</ele>
        <time>2021-08-08T05:47:25Z</time>
      </trkpt>
      <trkpt lat="48.89209" lon="7.4822">
        <ele>216</ele>
        <time>2021-08-08T05:47:26Z</time>
      </trkpt>
      <trkpt lat="48.89213" lon="7.48228">
        <ele>216</ele>
        <time>2021-08-08T05:47:27Z</time>
      </trkpt>
      <trkpt lat="48.89213" lon="7.48228">
        <ele>216</ele>
        <time>2021-08-08T05:47:28Z</time>
      </trkpt>
      <trkpt lat="48.89216" lon="7.48237">
        <ele>217</ele>
        <time>2021-08-08T05:47:29Z</time>
      </trkpt>
      <trkpt lat="48.89216" lon="7.48237">
        <ele>217</ele>
        <time>2021-08-08T05:47:30Z</time>
      </trkpt>
      <trkpt lat="48.89218" lon="7.48244">
        <ele>217</ele>
        <time>2021-08-08T05:47:31Z</time>
      </trkpt>
      <trkpt lat="48.89218" lon="7.48244">
        <ele>217</ele>
        <time>2021-08-08T05:47:32Z</time>
      </trkpt>
      <trkpt lat="48.89218" lon="7.48252">
        <ele>217</ele>
        <time>2021-08-08T05:47:33Z</time>
      </trkpt>
      <trkpt lat="48.89218" lon="7.48252">
        <ele>217</ele>
        <time>2021-08-08T05:47:34Z</time>
      </trkpt>
      <trkpt lat="48.89217" lon="7.48259">
        <ele>217</ele>
        <time>2021-08-08T05:47:35Z</time>
      </trkpt>
      <trkpt lat="48.89218" lon="7.48263">
        <ele>217</ele>
        <time>2021-08-08T05:47:36Z</time>
      </trkpt>
      <trkpt lat="48.89218" lon="7.48266">
        <ele>217</ele>
        <time>2021-08-08T05:47:37Z</time>
      </trkpt>
      <trkpt lat="48.89218" lon="7.48266">
        <ele>217</ele>
        <time>2021-08-08T05:47:38Z</time>
      </trkpt>
      <trkpt lat="48.89219" lon="7.48273">
        <ele>218</ele>
        <time>2021-08-08T05:47:39Z</time>
      </trkpt>
      <trkpt lat="48.89219" lon="7.48273">
        <ele>218</ele>
        <time>2021-08-08T05:47:40Z</time>
      </trkpt>
      <trkpt lat="48.89219" lon="7.4828">
        <ele>218</ele>
        <time>2021-08-08T05:47:41Z</time>
      </trkpt>
      <trkpt lat="48.89219" lon="7.4828">
        <ele>218</ele>
        <time>2021-08-08T05:47:42Z</time>
      </trkpt>
      <trkpt lat="48.8922" lon="7.48287">
        <ele>218</ele>
        <time>2021-08-08T05:47:43Z</time>
      </trkpt>
      <trkpt lat="48.8922" lon="7.48287">
        <ele>218</ele>
        <time>2021-08-08T05:47:44Z</time>
      </trkpt>
      <trkpt lat="48.89221" lon="7.48294">
        <ele>218</ele>
        <time>2021-08-08T05:47:45Z</time>
      </trkpt>
      <trkpt lat="48.89221" lon="7.48297">
        <ele>218</ele>
        <time>2021-08-08T05:47:46Z</time>
      </trkpt>
      <trkpt lat="48.89222" lon="7.48301">
        <ele>219</ele>
        <time>2021-08-08T05:47:47Z</time>
      </trkpt>
      <trkpt lat="48.89222" lon="7.48301">
        <ele>219</ele>
        <time>2021-08-08T05:47:48Z</time>
      </trkpt>
      <trkpt lat="48.89224" lon="7.4831">
        <ele>219</ele>
        <time>2021-08-08T05:47:49Z</time>
      </trkpt>
      <trkpt lat="48.89224" lon="7.4831">
        <ele>219</ele>
        <time>2021-08-08T05:47:50Z</time>
      </trkpt>
      <trkpt lat="48.89224" lon="7.48317">
        <ele>219</ele>
        <time>2021-08-08T05:47:51Z</time>
      </trkpt>
      <trkpt lat="48.89224" lon="7.48317">
        <ele>219</ele>
        <time>2021-08-08T05:47:52Z</time>
      </trkpt>
      <trkpt lat="48.89224" lon="7.48324">
        <ele>219</ele>
        <time>2021-08-08T05:47:53Z</time>
      </trkpt>
      <trkpt lat="48.89224" lon="7.48328">
        <ele>219</ele>
        <time>2021-08-08T05:47:54Z</time>
      </trkpt>
      <trkpt lat="48.89224" lon="7.48328">
        <ele>219</ele>
        <time>2021-08-08T05:47:55Z</time>
      </trkpt>
      <trkpt lat="48.89225" lon="7.48338">
        <ele>219</ele>
        <time>2021-08-08T05:47:56Z</time>
      </trkpt>
      <trkpt lat="48.89225" lon="7.48344">
        <ele>220</ele>
        <time>2021-08-08T05:47:57Z</time>
      </trkpt>
      <trkpt lat="48.89225" lon="7.48344">
        <ele>220</ele>
        <time>2021-08-08T05:47:58Z</time>
      </trkpt>
      <trkpt lat="48.89225" lon="7.48363">
        <ele>220</ele>
        <time>2021-08-08T05:47:59Z</time>
      </trkpt>
      <trkpt lat="48.89224" lon="7.4837">
        <ele>220</ele>
        <time>2021-08-08T05:48:00Z</time>
      </trkpt>
      <trkpt lat="48.89224" lon="7.4837">
        <ele>220</ele>
        <time>2021-08-08T05:48:01Z</time>
      </trkpt>
      <trkpt lat="48.89224" lon="7.48379">
        <ele>220</ele>
        <time>2021-08-08T05:48:02Z</time>
      </trkpt>
      <trkpt lat="48.89224" lon="7.48384">
        <ele>220</ele>
        <time>2021-08-08T05:48:03Z</time>
      </trkpt>
      <trkpt lat="48.89224" lon="7.48384">
        <ele>220</ele>
        <time>2021-08-08T05:48:04Z</time>
      </trkpt>
      <trkpt lat="48.89222" lon="7.48393">
        <ele>220</ele>
        <time>2021-08-08T05:48:05Z</time>
      </trkpt>
      <trkpt lat="48.8922" lon="7.48399">
        <ele>220</ele>
        <time>2021-08-08T05:48:06Z</time>
      </trkpt>
      <trkpt lat="48.89219" lon="7.48403">
        <ele>220</ele>
        <time>2021-08-08T05:48:07Z</time>
      </trkpt>
      <trkpt lat="48.89219" lon="7.48403">
        <ele>220</ele>
        <time>2021-08-08T05:48:08Z</time>
      </trkpt>
      <trkpt lat="48.89218" lon="7.4841">
        <ele>220</ele>
        <time>2021-08-08T05:48:09Z</time>
      </trkpt>
      <trkpt lat="48.89218" lon="7.4841">
        <ele>220</ele>
        <time>2021-08-08T05:48:10Z</time>
      </trkpt>
      <trkpt lat="48.89216" lon="7.4842">
        <ele>221</ele>
        <time>2021-08-08T05:48:11Z</time>
      </trkpt>
      <trkpt lat="48.89216" lon="7.4842">
        <ele>221</ele>
        <time>2021-08-08T05:48:12Z</time>
      </trkpt>
      <trkpt lat="48.89215" lon="7.48428">
        <ele>221</ele>
        <time>2021-08-08T05:48:13Z</time>
      </trkpt>
      <trkpt lat="48.89215" lon="7.48428">
        <ele>221</ele>
        <time>2021-08-08T05:48:14Z</time>
      </trkpt>
      <trkpt lat="48.89213" lon="7.4844">
        <ele>221</ele>
        <time>2021-08-08T05:48:15Z</time>
      </trkpt>
      <trkpt lat="48.89213" lon="7.4844">
        <ele>221</ele>
        <time>2021-08-08T05:48:16Z</time>
      </trkpt>
      <trkpt lat="48.89213" lon="7.48447">
        <ele>222</ele>
        <time>2021-08-08T05:48:17Z</time>
      </trkpt>
      <trkpt lat="48.89213" lon="7.48447">
        <ele>222</ele>
        <time>2021-08-08T05:48:18Z</time>
      </trkpt>
      <trkpt lat="48.89213" lon="7.48453">
        <ele>222</ele>
        <time>2021-08-08T05:48:19Z</time>
      </trkpt>
      <trkpt lat="48.89212" lon="7.48457">
        <ele>222</ele>
        <time>2021-08-08T05:48:20Z</time>
      </trkpt>
      <trkpt lat="48.89213" lon="7.48462">
        <ele>222</ele>
        <time>2021-08-08T05:48:21Z</time>
      </trkpt>
      <trkpt lat="48.89213" lon="7.48462">
        <ele>223</ele>
        <time>2021-08-08T05:48:22Z</time>
      </trkpt>
      <trkpt lat="48.89212" lon="7.48472">
        <ele>223</ele>
        <time>2021-08-08T05:48:23Z</time>
      </trkpt>
      <trkpt lat="48.89211" lon="7.48476">
        <ele>223</ele>
        <time>2021-08-08T05:48:24Z</time>
      </trkpt>
      <trkpt lat="48.8921" lon="7.48481">
        <ele>223</ele>
        <time>2021-08-08T05:48:25Z</time>
      </trkpt>
      <trkpt lat="48.8921" lon="7.48481">
        <ele>223</ele>
        <time>2021-08-08T05:48:26Z</time>
      </trkpt>
      <trkpt lat="48.89209" lon="7.48489">
        <ele>223</ele>
        <time>2021-08-08T05:48:27Z</time>
      </trkpt>
      <trkpt lat="48.89209" lon="7.48495">
        <ele>224</ele>
        <time>2021-08-08T05:48:28Z</time>
      </trkpt>
      <trkpt lat="48.89209" lon="7.48495">
        <ele>224</ele>
        <time>2021-08-08T05:48:29Z</time>
      </trkpt>
      <trkpt lat="48.89209" lon="7.48504">
        <ele>224</ele>
        <time>2021-08-08T05:48:30Z</time>
      </trkpt>
      <trkpt lat="48.89209" lon="7.4851">
        <ele>224</ele>
        <time>2021-08-08T05:48:31Z</time>
      </trkpt>
      <trkpt lat="48.89209" lon="7.4851">
        <ele>224</ele>
        <time>2021-08-08T05:48:32Z</time>
      </trkpt>
      <trkpt lat="48.89206" lon="7.48525">
        <ele>224</ele>
        <time>2021-08-08T05:48:33Z</time>
      </trkpt>
      <trkpt lat="48.89206" lon="7.48525">
        <ele>224</ele>
        <time>2021-08-08T05:48:34Z</time>
      </trkpt>
      <trkpt lat="48.89203" lon="7.48537">
        <ele>224</ele>
        <time>2021-08-08T05:48:35Z</time>
      </trkpt>
      <trkpt lat="48.89201" lon="7.48545">
        <ele>224</ele>
        <time>2021-08-08T05:48:36Z</time>
      </trkpt>
      <trkpt lat="48.89201" lon="7.48545">
        <ele>224</ele>
        <time>2021-08-08T05:48:37Z</time>
      </trkpt>
      <trkpt lat="48.89198" lon="7.48566">
        <ele>224</ele>
        <time>2021-08-08T05:48:38Z</time>
      </trkpt>
      <trkpt lat="48.89199" lon="7.48573">
        <ele>224</ele>
        <time>2021-08-08T05:48:39Z</time>
      </trkpt>
      <trkpt lat="48.89199" lon="7.48573">
        <ele>224</ele>
        <time>2021-08-08T05:48:40Z</time>
      </trkpt>
      <trkpt lat="48.892" lon="7.48583">
        <ele>224</ele>
        <time>2021-08-08T05:48:41Z</time>
      </trkpt>
      <trkpt lat="48.89199" lon="7.48588">
        <ele>224</ele>
        <time>2021-08-08T05:48:42Z</time>
      </trkpt>
      <trkpt lat="48.89196" lon="7.48595">
        <ele>224</ele>
        <time>2021-08-08T05:48:43Z</time>
      </trkpt>
      <trkpt lat="48.89196" lon="7.48595">
        <ele>224</ele>
        <time>2021-08-08T05:48:44Z</time>
      </trkpt>
      <trkpt lat="48.89193" lon="7.48605">
        <ele>224</ele>
        <time>2021-08-08T05:48:45Z</time>
      </trkpt>
      <trkpt lat="48.89191" lon="7.4861">
        <ele>224</ele>
        <time>2021-08-08T05:48:46Z</time>
      </trkpt>
      <trkpt lat="48.89189" lon="7.48616">
        <ele>224</ele>
        <time>2021-08-08T05:48:47Z</time>
      </trkpt>
      <trkpt lat="48.89189" lon="7.48616">
        <ele>224</ele>
        <time>2021-08-08T05:48:48Z</time>
      </trkpt>
      <trkpt lat="48.89184" lon="7.48624">
        <ele>224</ele>
        <time>2021-08-08T05:48:49Z</time>
      </trkpt>
      <trkpt lat="48.89184" lon="7.48624">
        <ele>224</ele>
        <time>2021-08-08T05:48:50Z</time>
      </trkpt>
      <trkpt lat="48.89179" lon="7.48633">
        <ele>224</ele>
        <time>2021-08-08T05:48:51Z</time>
      </trkpt>
      <trkpt lat="48.89179" lon="7.48633">
        <ele>224</ele>
        <time>2021-08-08T05:48:52Z</time>
      </trkpt>
      <trkpt lat="48.89172" lon="7.48642">
        <ele>224</ele>
        <time>2021-08-08T05:48:53Z</time>
      </trkpt>
      <trkpt lat="48.89169" lon="7.48647">
        <ele>224</ele>
        <time>2021-08-08T05:48:54Z</time>
      </trkpt>
      <trkpt lat="48.89169" lon="7.48647">
        <ele>224</ele>
        <time>2021-08-08T05:48:55Z</time>
      </trkpt>
      <trkpt lat="48.89162" lon="7.48657">
        <ele>223</ele>
        <time>2021-08-08T05:48:56Z</time>
      </trkpt>
      <trkpt lat="48.89158" lon="7.48664">
        <ele>223</ele>
        <time>2021-08-08T05:48:57Z</time>
      </trkpt>
      <trkpt lat="48.89158" lon="7.48664">
        <ele>223</ele>
        <time>2021-08-08T05:48:58Z</time>
      </trkpt>
      <trkpt lat="48.89151" lon="7.48677">
        <ele>223</ele>
        <time>2021-08-08T05:48:59Z</time>
      </trkpt>
      <trkpt lat="48.89151" lon="7.48677">
        <ele>222</ele>
        <time>2021-08-08T05:49:00Z</time>
      </trkpt>
      <trkpt lat="48.89144" lon="7.48689">
        <ele>222</ele>
        <time>2021-08-08T05:49:01Z</time>
      </trkpt>
      <trkpt lat="48.89144" lon="7.48689">
        <ele>222</ele>
        <time>2021-08-08T05:49:02Z</time>
      </trkpt>
      <trkpt lat="48.89138" lon="7.48703">
        <ele>222</ele>
        <time>2021-08-08T05:49:03Z</time>
      </trkpt>
      <trkpt lat="48.89138" lon="7.48703">
        <ele>221</ele>
        <time>2021-08-08T05:49:04Z</time>
      </trkpt>
      <trkpt lat="48.89133" lon="7.48715">
        <ele>221</ele>
        <time>2021-08-08T05:49:05Z</time>
      </trkpt>
      <trkpt lat="48.8913" lon="7.48721">
        <ele>221</ele>
        <time>2021-08-08T05:49:06Z</time>
      </trkpt>
      <trkpt lat="48.8913" lon="7.48721">
        <ele>221</ele>
        <time>2021-08-08T05:49:07Z</time>
      </trkpt>
      <trkpt lat="48.89123" lon="7.48739">
        <ele>221</ele>
        <time>2021-08-08T05:49:08Z</time>
      </trkpt>
      <trkpt lat="48.89122" lon="7.48752">
        <ele>221</ele>
        <time>2021-08-08T05:49:09Z</time>
      </trkpt>
      <trkpt lat="48.89122" lon="7.48752">
        <ele>221</ele>
        <time>2021-08-08T05:49:10Z</time>
      </trkpt>
      <trkpt lat="48.8912" lon="7.48772">
        <ele>221</ele>
        <time>2021-08-08T05:49:11Z</time>
      </trkpt>
      <trkpt lat="48.8912" lon="7.48772">
        <ele>220</ele>
        <time>2021-08-08T05:49:12Z</time>
      </trkpt>
      <trkpt lat="48.89122" lon="7.48788">
        <ele>220</ele>
        <time>2021-08-08T05:49:13Z</time>
      </trkpt>
      <trkpt lat="48.89122" lon="7.48788">
        <ele>220</ele>
        <time>2021-08-08T05:49:14Z</time>
      </trkpt>
      <trkpt lat="48.89126" lon="7.48803">
        <ele>219</ele>
        <time>2021-08-08T05:49:15Z</time>
      </trkpt>
      <trkpt lat="48.89126" lon="7.48803">
        <ele>219</ele>
        <time>2021-08-08T05:49:16Z</time>
      </trkpt>
      <trkpt lat="48.89131" lon="7.48815">
        <ele>219</ele>
        <time>2021-08-08T05:49:17Z</time>
      </trkpt>
      <trkpt lat="48.89131" lon="7.48815">
        <ele>219</ele>
        <time>2021-08-08T05:49:18Z</time>
      </trkpt>
      <trkpt lat="48.89134" lon="7.48826">
        <ele>219</ele>
        <time>2021-08-08T05:49:19Z</time>
      </trkpt>
      <trkpt lat="48.89134" lon="7.48826">
        <ele>219</ele>
        <time>2021-08-08T05:49:20Z</time>
      </trkpt>
      <trkpt lat="48.89137" lon="7.48836">
        <ele>219</ele>
        <time>2021-08-08T05:49:21Z</time>
      </trkpt>
      <trkpt lat="48.89137" lon="7.48836">
        <ele>219</ele>
        <time>2021-08-08T05:49:22Z</time>
      </trkpt>
      <trkpt lat="48.89142" lon="7.48845">
        <ele>219</ele>
        <time>2021-08-08T05:49:23Z</time>
      </trkpt>
      <trkpt lat="48.89142" lon="7.48845">
        <ele>219</ele>
        <time>2021-08-08T05:49:24Z</time>
      </trkpt>
      <trkpt lat="48.89146" lon="7.48856">
        <ele>219</ele>
        <time>2021-08-08T05:49:25Z</time>
      </trkpt>
      <trkpt lat="48.89146" lon="7.48856">
        <ele>219</ele>
        <time>2021-08-08T05:49:26Z</time>
      </trkpt>
      <trkpt lat="48.89151" lon="7.48865">
        <ele>219</ele>
        <time>2021-08-08T05:49:27Z</time>
      </trkpt>
      <trkpt lat="48.89151" lon="7.48865">
        <ele>219</ele>
        <time>2021-08-08T05:49:28Z</time>
      </trkpt>
      <trkpt lat="48.89159" lon="7.48871">
        <ele>218</ele>
        <time>2021-08-08T05:49:29Z</time>
      </trkpt>
      <trkpt lat="48.89162" lon="7.48872">
        <ele>218</ele>
        <time>2021-08-08T05:49:30Z</time>
      </trkpt>
      <trkpt lat="48.89162" lon="7.48872">
        <ele>218</ele>
        <time>2021-08-08T05:49:31Z</time>
      </trkpt>
      <trkpt lat="48.8917" lon="7.4887">
        <ele>218</ele>
        <time>2021-08-08T05:49:32Z</time>
      </trkpt>
      <trkpt lat="48.89174" lon="7.48867">
        <ele>218</ele>
        <time>2021-08-08T05:49:33Z</time>
      </trkpt>
      <trkpt lat="48.89174" lon="7.48867">
        <ele>218</ele>
        <time>2021-08-08T05:49:34Z</time>
      </trkpt>
      <trkpt lat="48.89183" lon="7.48863">
        <ele>217</ele>
        <time>2021-08-08T05:49:35Z</time>
      </trkpt>
      <trkpt lat="48.89183" lon="7.48863">
        <ele>217</ele>
        <time>2021-08-08T05:49:36Z</time>
      </trkpt>
      <trkpt lat="48.89194" lon="7.48859">
        <ele>217</ele>
        <time>2021-08-08T05:49:37Z</time>
      </trkpt>
      <trkpt lat="48.89194" lon="7.48859">
        <ele>217</ele>
        <time>2021-08-08T05:49:38Z</time>
      </trkpt>
      <trkpt lat="48.89206" lon="7.48852">
        <ele>216</ele>
        <time>2021-08-08T05:49:39Z</time>
      </trkpt>
      <trkpt lat="48.89206" lon="7.48852">
        <ele>216</ele>
        <time>2021-08-08T05:49:40Z</time>
      </trkpt>
      <trkpt lat="48.8922" lon="7.48848">
        <ele>215</ele>
        <time>2021-08-08T05:49:41Z</time>
      </trkpt>
      <trkpt lat="48.89227" lon="7.48846">
        <ele>215</ele>
        <time>2021-08-08T05:49:42Z</time>
      </trkpt>
      <trkpt lat="48.89227" lon="7.48846">
        <ele>215</ele>
        <time>2021-08-08T05:49:43Z</time>
      </trkpt>
      <trkpt lat="48.89239" lon="7.48847">
        <ele>215</ele>
        <time>2021-08-08T05:49:44Z</time>
      </trkpt>
      <trkpt lat="48.89239" lon="7.48847">
        <ele>214</ele>
        <time>2021-08-08T05:49:45Z</time>
      </trkpt>
      <trkpt lat="48.89249" lon="7.48847">
        <ele>214</ele>
        <time>2021-08-08T05:49:46Z</time>
      </trkpt>
      <trkpt lat="48.89254" lon="7.48847">
        <ele>214</ele>
        <time>2021-08-08T05:49:47Z</time>
      </trkpt>
      <trkpt lat="48.89254" lon="7.48847">
        <ele>214</ele>
        <time>2021-08-08T05:49:48Z</time>
      </trkpt>
      <trkpt lat="48.89261" lon="7.48845">
        <ele>214</ele>
        <time>2021-08-08T05:49:49Z</time>
      </trkpt>
      <trkpt lat="48.89261" lon="7.48845">
        <ele>214</ele>
        <time>2021-08-08T05:49:50Z</time>
      </trkpt>
      <trkpt lat="48.89268" lon="7.48843">
        <ele>214</ele>
        <time>2021-08-08T05:49:51Z</time>
      </trkpt>
      <trkpt lat="48.89268" lon="7.48843">
        <ele>214</ele>
        <time>2021-08-08T05:49:52Z</time>
      </trkpt>
      <trkpt lat="48.89276" lon="7.4884">
        <ele>214</ele>
        <time>2021-08-08T05:49:53Z</time>
      </trkpt>
      <trkpt lat="48.89276" lon="7.4884">
        <ele>214</ele>
        <time>2021-08-08T05:49:54Z</time>
      </trkpt>
      <trkpt lat="48.89286" lon="7.48835">
        <ele>214</ele>
        <time>2021-08-08T05:49:55Z</time>
      </trkpt>
      <trkpt lat="48.89286" lon="7.48835">
        <ele>214</ele>
        <time>2021-08-08T05:49:56Z</time>
      </trkpt>
      <trkpt lat="48.89299" lon="7.48828">
        <ele>214</ele>
        <time>2021-08-08T05:49:57Z</time>
      </trkpt>
      <trkpt lat="48.89299" lon="7.48828">
        <ele>213</ele>
        <time>2021-08-08T05:49:58Z</time>
      </trkpt>
      <trkpt lat="48.89315" lon="7.48821">
        <ele>213</ele>
        <time>2021-08-08T05:49:59Z</time>
      </trkpt>
      <trkpt lat="48.89325" lon="7.48819">
        <ele>211</ele>
        <time>2021-08-08T05:50:00Z</time>
      </trkpt>
      <trkpt lat="48.89334" lon="7.48817">
        <ele>211</ele>
        <time>2021-08-08T05:50:01Z</time>
      </trkpt>
      <trkpt lat="48.89334" lon="7.48817">
        <ele>210</ele>
        <time>2021-08-08T05:50:02Z</time>
      </trkpt>
      <trkpt lat="48.89352" lon="7.48821">
        <ele>210</ele>
        <time>2021-08-08T05:50:03Z</time>
      </trkpt>
      <trkpt lat="48.89352" lon="7.48821">
        <ele>208</ele>
        <time>2021-08-08T05:50:04Z</time>
      </trkpt>
      <trkpt lat="48.89369" lon="7.48832">
        <ele>208</ele>
        <time>2021-08-08T05:50:05Z</time>
      </trkpt>
      <trkpt lat="48.89377" lon="7.48837">
        <ele>206</ele>
        <time>2021-08-08T05:50:06Z</time>
      </trkpt>
      <trkpt lat="48.89385" lon="7.48843">
        <ele>206</ele>
        <time>2021-08-08T05:50:07Z</time>
      </trkpt>
      <trkpt lat="48.89385" lon="7.48843">
        <ele>205</ele>
        <time>2021-08-08T05:50:08Z</time>
      </trkpt>
      <trkpt lat="48.894" lon="7.48853">
        <ele>205</ele>
        <time>2021-08-08T05:50:09Z</time>
      </trkpt>
      <trkpt lat="48.894" lon="7.48853">
        <ele>204</ele>
        <time>2021-08-08T05:50:10Z</time>
      </trkpt>
      <trkpt lat="48.89417" lon="7.48866">
        <ele>203</ele>
        <time>2021-08-08T05:50:11Z</time>
      </trkpt>
      <trkpt lat="48.89424" lon="7.48873">
        <ele>203</ele>
        <time>2021-08-08T05:50:12Z</time>
      </trkpt>
      <trkpt lat="48.89424" lon="7.48873">
        <ele>203</ele>
        <time>2021-08-08T05:50:13Z</time>
      </trkpt>
      <trkpt lat="48.89439" lon="7.48882">
        <ele>203</ele>
        <time>2021-08-08T05:50:14Z</time>
      </trkpt>
      <trkpt lat="48.89439" lon="7.48882">
        <ele>203</ele>
        <time>2021-08-08T05:50:15Z</time>
      </trkpt>
      <trkpt lat="48.8945" lon="7.48884">
        <ele>203</ele>
        <time>2021-08-08T05:50:16Z</time>
      </trkpt>
      <trkpt lat="48.8945" lon="7.48884">
        <ele>203</ele>
        <time>2021-08-08T05:50:17Z</time>
      </trkpt>
      <trkpt lat="48.89457" lon="7.48886">
        <ele>203</ele>
        <time>2021-08-08T05:50:18Z</time>
      </trkpt>
      <trkpt lat="48.89459" lon="7.48888">
        <ele>203</ele>
        <time>2021-08-08T05:50:19Z</time>
      </trkpt>
      <trkpt lat="48.89459" lon="7.48888">
        <ele>203</ele>
        <time>2021-08-08T05:50:20Z</time>
      </trkpt>
      <trkpt lat="48.89463" lon="7.48891">
        <ele>204</ele>
        <time>2021-08-08T05:50:21Z</time>
      </trkpt>
      <trkpt lat="48.89463" lon="7.48891">
        <ele>204</ele>
        <time>2021-08-08T05:50:22Z</time>
      </trkpt>
      <trkpt lat="48.89466" lon="7.48894">
        <ele>204</ele>
        <time>2021-08-08T05:50:23Z</time>
      </trkpt>
      <trkpt lat="48.89467" lon="7.48895">
        <ele>204</ele>
        <time>2021-08-08T05:50:24Z</time>
      </trkpt>
      <trkpt lat="48.89469" lon="7.48896">
        <ele>205</ele>
        <time>2021-08-08T05:50:25Z</time>
      </trkpt>
      <trkpt lat="48.89469" lon="7.48896">
        <ele>205</ele>
        <time>2021-08-08T05:50:26Z</time>
      </trkpt>
      <trkpt lat="48.89473" lon="7.48904">
        <ele>206</ele>
        <time>2021-08-08T05:50:27Z</time>
      </trkpt>
      <trkpt lat="48.89473" lon="7.48904">
        <ele>206</ele>
        <time>2021-08-08T05:50:28Z</time>
      </trkpt>
      <trkpt lat="48.89477" lon="7.48912">
        <ele>206</ele>
        <time>2021-08-08T05:50:29Z</time>
      </trkpt>
      <trkpt lat="48.89477" lon="7.48912">
        <ele>206</ele>
        <time>2021-08-08T05:50:30Z</time>
      </trkpt>
      <trkpt lat="48.8948" lon="7.48921">
        <ele>207</ele>
        <time>2021-08-08T05:50:31Z</time>
      </trkpt>
      <trkpt lat="48.8948" lon="7.48921">
        <ele>207</ele>
        <time>2021-08-08T05:50:32Z</time>
      </trkpt>
      <trkpt lat="48.89482" lon="7.48927">
        <ele>207</ele>
        <time>2021-08-08T05:50:33Z</time>
      </trkpt>
      <trkpt lat="48.89482" lon="7.48927">
        <ele>207</ele>
        <time>2021-08-08T05:50:34Z</time>
      </trkpt>
      <trkpt lat="48.89484" lon="7.48933">
        <ele>208</ele>
        <time>2021-08-08T05:50:35Z</time>
      </trkpt>
      <trkpt lat="48.89484" lon="7.48933">
        <ele>208</ele>
        <time>2021-08-08T05:50:36Z</time>
      </trkpt>
      <trkpt lat="48.89485" lon="7.48939">
        <ele>208</ele>
        <time>2021-08-08T05:50:37Z</time>
      </trkpt>
      <trkpt lat="48.89485" lon="7.48939">
        <ele>208</ele>
        <time>2021-08-08T05:50:38Z</time>
      </trkpt>
      <trkpt lat="48.89486" lon="7.48945">
        <ele>209</ele>
        <time>2021-08-08T05:50:39Z</time>
      </trkpt>
      <trkpt lat="48.89487" lon="7.48947">
        <ele>209</ele>
        <time>2021-08-08T05:50:40Z</time>
      </trkpt>
      <trkpt lat="48.89487" lon="7.4895">
        <ele>209</ele>
        <time>2021-08-08T05:50:41Z</time>
      </trkpt>
      <trkpt lat="48.89487" lon="7.48953">
        <ele>209</ele>
        <time>2021-08-08T05:50:42Z</time>
      </trkpt>
      <trkpt lat="48.89488" lon="7.48955">
        <ele>210</ele>
        <time>2021-08-08T05:50:43Z</time>
      </trkpt>
      <trkpt lat="48.89488" lon="7.48955">
        <ele>210</ele>
        <time>2021-08-08T05:50:44Z</time>
      </trkpt>
      <trkpt lat="48.89489" lon="7.4896">
        <ele>210</ele>
        <time>2021-08-08T05:50:45Z</time>
      </trkpt>
      <trkpt lat="48.89489" lon="7.4896">
        <ele>210</ele>
        <time>2021-08-08T05:50:46Z</time>
      </trkpt>
      <trkpt lat="48.89488" lon="7.48965">
        <ele>211</ele>
        <time>2021-08-08T05:50:47Z</time>
      </trkpt>
      <trkpt lat="48.89488" lon="7.48965">
        <ele>211</ele>
        <time>2021-08-08T05:50:48Z</time>
      </trkpt>
      <trkpt lat="48.89489" lon="7.48969">
        <ele>211</ele>
        <time>2021-08-08T05:50:49Z</time>
      </trkpt>
      <trkpt lat="48.89489" lon="7.48969">
        <ele>211</ele>
        <time>2021-08-08T05:50:50Z</time>
      </trkpt>
      <trkpt lat="48.8949" lon="7.48972">
        <ele>211</ele>
        <time>2021-08-08T05:50:51Z</time>
      </trkpt>
      <trkpt lat="48.8949" lon="7.48973">
        <ele>212</ele>
        <time>2021-08-08T05:50:52Z</time>
      </trkpt>
      <trkpt lat="48.8949" lon="7.48973">
        <ele>212</ele>
        <time>2021-08-08T05:50:53Z</time>
      </trkpt>
      <trkpt lat="48.89489" lon="7.48977">
        <ele>212</ele>
        <time>2021-08-08T05:50:54Z</time>
      </trkpt>
      <trkpt lat="48.89489" lon="7.48979">
        <ele>212</ele>
        <time>2021-08-08T05:50:55Z</time>
      </trkpt>
      <trkpt lat="48.89489" lon="7.48979">
        <ele>214</ele>
        <time>2021-08-08T05:50:56Z</time>
      </trkpt>
      <trkpt lat="48.89491" lon="7.48985">
        <ele>214</ele>
        <time>2021-08-08T05:50:57Z</time>
      </trkpt>
      <trkpt lat="48.89491" lon="7.48985">
        <ele>214</ele>
        <time>2021-08-08T05:50:58Z</time>
      </trkpt>
      <trkpt lat="48.89491" lon="7.4899">
        <ele>214</ele>
        <time>2021-08-08T05:50:59Z</time>
      </trkpt>
      <trkpt lat="48.89491" lon="7.4899">
        <ele>215</ele>
        <time>2021-08-08T05:51:00Z</time>
      </trkpt>
      <trkpt lat="48.89492" lon="7.48997">
        <ele>215</ele>
        <time>2021-08-08T05:51:01Z</time>
      </trkpt>
      <trkpt lat="48.89492" lon="7.48997">
        <ele>215</ele>
        <time>2021-08-08T05:51:02Z</time>
      </trkpt>
      <trkpt lat="48.89493" lon="7.49003">
        <ele>215</ele>
        <time>2021-08-08T05:51:03Z</time>
      </trkpt>
      <trkpt lat="48.89494" lon="7.49006">
        <ele>215</ele>
        <time>2021-08-08T05:51:04Z</time>
      </trkpt>
      <trkpt lat="48.89494" lon="7.49006">
        <ele>215</ele>
        <time>2021-08-08T05:51:05Z</time>
      </trkpt>
      <trkpt lat="48.89496" lon="7.49011">
        <ele>216</ele>
        <time>2021-08-08T05:51:06Z</time>
      </trkpt>
      <trkpt lat="48.89496" lon="7.49011">
        <ele>216</ele>
        <time>2021-08-08T05:51:07Z</time>
      </trkpt>
      <trkpt lat="48.89498" lon="7.49017">
        <ele>216</ele>
        <time>2021-08-08T05:51:08Z</time>
      </trkpt>
      <trkpt lat="48.89498" lon="7.49017">
        <ele>216</ele>
        <time>2021-08-08T05:51:09Z</time>
      </trkpt>
      <trkpt lat="48.89499" lon="7.49023">
        <ele>216</ele>
        <time>2021-08-08T05:51:10Z</time>
      </trkpt>
      <trkpt lat="48.89499" lon="7.49023">
        <ele>216</ele>
        <time>2021-08-08T05:51:11Z</time>
      </trkpt>
      <trkpt lat="48.89501" lon="7.49029">
        <ele>216</ele>
        <time>2021-08-08T05:51:12Z</time>
      </trkpt>
      <trkpt lat="48.89503" lon="7.49032">
        <ele>217</ele>
        <time>2021-08-08T05:51:13Z</time>
      </trkpt>
      <trkpt lat="48.89503" lon="7.49032">
        <ele>217</ele>
        <time>2021-08-08T05:51:14Z</time>
      </trkpt>
      <trkpt lat="48.89506" lon="7.49038">
        <ele>217</ele>
        <time>2021-08-08T05:51:15Z</time>
      </trkpt>
      <trkpt lat="48.89506" lon="7.49038">
        <ele>217</ele>
        <time>2021-08-08T05:51:16Z</time>
      </trkpt>
      <trkpt lat="48.89508" lon="7.49047">
        <ele>217</ele>
        <time>2021-08-08T05:51:17Z</time>
      </trkpt>
      <trkpt lat="48.89508" lon="7.49047">
        <ele>217</ele>
        <time>2021-08-08T05:51:18Z</time>
      </trkpt>
      <trkpt lat="48.8951" lon="7.49054">
        <ele>217</ele>
        <time>2021-08-08T05:51:19Z</time>
      </trkpt>
      <trkpt lat="48.8951" lon="7.49054">
        <ele>217</ele>
        <time>2021-08-08T05:51:20Z</time>
      </trkpt>
      <trkpt lat="48.89511" lon="7.49061">
        <ele>217</ele>
        <time>2021-08-08T05:51:21Z</time>
      </trkpt>
      <trkpt lat="48.89511" lon="7.49061">
        <ele>217</ele>
        <time>2021-08-08T05:51:22Z</time>
      </trkpt>
      <trkpt lat="48.89513" lon="7.49067">
        <ele>217</ele>
        <time>2021-08-08T05:51:23Z</time>
      </trkpt>
      <trkpt lat="48.89513" lon="7.49067">
        <ele>217</ele>
        <time>2021-08-08T05:51:24Z</time>
      </trkpt>
      <trkpt lat="48.89516" lon="7.49072">
        <ele>217</ele>
        <time>2021-08-08T05:51:25Z</time>
      </trkpt>
      <trkpt lat="48.89516" lon="7.49072">
        <ele>217</ele>
        <time>2021-08-08T05:51:26Z</time>
      </trkpt>
      <trkpt lat="48.89517" lon="7.49076">
        <ele>217</ele>
        <time>2021-08-08T05:51:27Z</time>
      </trkpt>
      <trkpt lat="48.89519" lon="7.49077">
        <ele>217</ele>
        <time>2021-08-08T05:51:28Z</time>
      </trkpt>
      <trkpt lat="48.89519" lon="7.49077">
        <ele>217</ele>
        <time>2021-08-08T05:51:29Z</time>
      </trkpt>
      <trkpt lat="48.89522" lon="7.49079">
        <ele>217</ele>
        <time>2021-08-08T05:51:30Z</time>
      </trkpt>
      <trkpt lat="48.89524" lon="7.49079">
        <ele>217</ele>
        <time>2021-08-08T05:51:31Z</time>
      </trkpt>
      <trkpt lat="48.89524" lon="7.49079">
        <ele>217</ele>
        <time>2021-08-08T05:51:32Z</time>
      </trkpt>
      <trkpt lat="48.89527" lon="7.49081">
        <ele>217</ele>
        <time>2021-08-08T05:51:33Z</time>
      </trkpt>
      <trkpt lat="48.89527" lon="7.49081">
        <ele>217</ele>
        <time>2021-08-08T05:51:34Z</time>
      </trkpt>
      <trkpt lat="48.89531" lon="7.49083">
        <ele>218</ele>
        <time>2021-08-08T05:51:35Z</time>
      </trkpt>
      <trkpt lat="48.89531" lon="7.49083">
        <ele>218</ele>
        <time>2021-08-08T05:51:36Z</time>
      </trkpt>
      <trkpt lat="48.89534" lon="7.49086">
        <ele>218</ele>
        <time>2021-08-08T05:51:37Z</time>
      </trkpt>
      <trkpt lat="48.89536" lon="7.49088">
        <ele>218</ele>
        <time>2021-08-08T05:51:38Z</time>
      </trkpt>
      <trkpt lat="48.89537" lon="7.4909">
        <ele>218</ele>
        <time>2021-08-08T05:51:39Z</time>
      </trkpt>
      <trkpt lat="48.89537" lon="7.4909">
        <ele>218</ele>
        <time>2021-08-08T05:51:40Z</time>
      </trkpt>
      <trkpt lat="48.8954" lon="7.49093">
        <ele>218</ele>
        <time>2021-08-08T05:51:41Z</time>
      </trkpt>
      <trkpt lat="48.8954" lon="7.49093">
        <ele>218</ele>
        <time>2021-08-08T05:51:42Z</time>
      </trkpt>
      <trkpt lat="48.89541" lon="7.49096">
        <ele>219</ele>
        <time>2021-08-08T05:51:43Z</time>
      </trkpt>
      <trkpt lat="48.89541" lon="7.49096">
        <ele>219</ele>
        <time>2021-08-08T05:51:44Z</time>
      </trkpt>
      <trkpt lat="48.89543" lon="7.49099">
        <ele>219</ele>
        <time>2021-08-08T05:51:45Z</time>
      </trkpt>
      <trkpt lat="48.89543" lon="7.49099">
        <ele>219</ele>
        <time>2021-08-08T05:51:46Z</time>
      </trkpt>
      <trkpt lat="48.89545" lon="7.49103">
        <ele>220</ele>
        <time>2021-08-08T05:51:47Z</time>
      </trkpt>
      <trkpt lat="48.89547" lon="7.49106">
        <ele>220</ele>
        <time>2021-08-08T05:51:48Z</time>
      </trkpt>
      <trkpt lat="48.89548" lon="7.49108">
        <ele>220</ele>
        <time>2021-08-08T05:51:49Z</time>
      </trkpt>
      <trkpt lat="48.8955" lon="7.49111">
        <ele>220</ele>
        <time>2021-08-08T05:51:50Z</time>
      </trkpt>
      <trkpt lat="48.89552" lon="7.49113">
        <ele>221</ele>
        <time>2021-08-08T05:51:51Z</time>
      </trkpt>
      <trkpt lat="48.89552" lon="7.49113">
        <ele>221</ele>
        <time>2021-08-08T05:51:52Z</time>
      </trkpt>
      <trkpt lat="48.89555" lon="7.49116">
        <ele>221</ele>
        <time>2021-08-08T05:51:53Z</time>
      </trkpt>
      <trkpt lat="48.89555" lon="7.49116">
        <ele>221</ele>
        <time>2021-08-08T05:51:54Z</time>
      </trkpt>
      <trkpt lat="48.89558" lon="7.49119">
        <ele>221</ele>
        <time>2021-08-08T05:51:55Z</time>
      </trkpt>
      <trkpt lat="48.89558" lon="7.49119">
        <ele>221</ele>
        <time>2021-08-08T05:51:56Z</time>
      </trkpt>
      <trkpt lat="48.8956" lon="7.49122">
        <ele>221</ele>
        <time>2021-08-08T05:51:57Z</time>
      </trkpt>
      <trkpt lat="48.8956" lon="7.49122">
        <ele>221</ele>
        <time>2021-08-08T05:51:58Z</time>
      </trkpt>
      <trkpt lat="48.89562" lon="7.49125">
        <ele>222</ele>
        <time>2021-08-08T05:51:59Z</time>
      </trkpt>
      <trkpt lat="48.89563" lon="7.49127">
        <ele>222</ele>
        <time>2021-08-08T05:52:00Z</time>
      </trkpt>
      <trkpt lat="48.89563" lon="7.49127">
        <ele>222</ele>
        <time>2021-08-08T05:52:01Z</time>
      </trkpt>
      <trkpt lat="48.89566" lon="7.49131">
        <ele>222</ele>
        <time>2021-08-08T05:52:02Z</time>
      </trkpt>
      <trkpt lat="48.89567" lon="7.49133">
        <ele>222</ele>
        <time>2021-08-08T05:52:03Z</time>
      </trkpt>
      <trkpt lat="48.89567" lon="7.49133">
        <ele>223</ele>
        <time>2021-08-08T05:52:04Z</time>
      </trkpt>
      <trkpt lat="48.89569" lon="7.49137">
        <ele>223</ele>
        <time>2021-08-08T05:52:05Z</time>
      </trkpt>
      <trkpt lat="48.89569" lon="7.49137">
        <ele>223</ele>
        <time>2021-08-08T05:52:06Z</time>
      </trkpt>
      <trkpt lat="48.89571" lon="7.49141">
        <ele>223</ele>
        <time>2021-08-08T05:52:07Z</time>
      </trkpt>
      <trkpt lat="48.89571" lon="7.49141">
        <ele>224</ele>
        <time>2021-08-08T05:52:08Z</time>
      </trkpt>
      <trkpt lat="48.89573" lon="7.49145">
        <ele>224</ele>
        <time>2021-08-08T05:52:09Z</time>
      </trkpt>
      <trkpt lat="48.89573" lon="7.49145">
        <ele>224</ele>
        <time>2021-08-08T05:52:10Z</time>
      </trkpt>
      <trkpt lat="48.89576" lon="7.4915">
        <ele>224</ele>
        <time>2021-08-08T05:52:11Z</time>
      </trkpt>
      <trkpt lat="48.89577" lon="7.49152">
        <ele>224</ele>
        <time>2021-08-08T05:52:12Z</time>
      </trkpt>
      <trkpt lat="48.89577" lon="7.49154">
        <ele>224</ele>
        <time>2021-08-08T05:52:13Z</time>
      </trkpt>
      <trkpt lat="48.89577" lon="7.49154">
        <ele>225</ele>
        <time>2021-08-08T05:52:14Z</time>
      </trkpt>
      <trkpt lat="48.89579" lon="7.4916">
        <ele>225</ele>
        <time>2021-08-08T05:52:15Z</time>
      </trkpt>
      <trkpt lat="48.89579" lon="7.4916">
        <ele>225</ele>
        <time>2021-08-08T05:52:16Z</time>
      </trkpt>
      <trkpt lat="48.89582" lon="7.49165">
        <ele>225</ele>
        <time>2021-08-08T05:52:17Z</time>
      </trkpt>
      <trkpt lat="48.89582" lon="7.49165">
        <ele>225</ele>
        <time>2021-08-08T05:52:18Z</time>
      </trkpt>
      <trkpt lat="48.89585" lon="7.49173">
        <ele>225</ele>
        <time>2021-08-08T05:52:19Z</time>
      </trkpt>
      <trkpt lat="48.89585" lon="7.49173">
        <ele>226</ele>
        <time>2021-08-08T05:52:20Z</time>
      </trkpt>
      <trkpt lat="48.89588" lon="7.49178">
        <ele>226</ele>
        <time>2021-08-08T05:52:21Z</time>
      </trkpt>
      <trkpt lat="48.89588" lon="7.49178">
        <ele>226</ele>
        <time>2021-08-08T05:52:22Z</time>
      </trkpt>
      <trkpt lat="48.89591" lon="7.49183">
        <ele>226</ele>
        <time>2021-08-08T05:52:23Z</time>
      </trkpt>
      <trkpt lat="48.89591" lon="7.49183">
        <ele>226</ele>
        <time>2021-08-08T05:52:24Z</time>
      </trkpt>
      <trkpt lat="48.89593" lon="7.49186">
        <ele>226</ele>
        <time>2021-08-08T05:52:25Z</time>
      </trkpt>
      <trkpt lat="48.89593" lon="7.49186">
        <ele>226</ele>
        <time>2021-08-08T05:52:26Z</time>
      </trkpt>
      <trkpt lat="48.89595" lon="7.4919">
        <ele>226</ele>
        <time>2021-08-08T05:52:27Z</time>
      </trkpt>
      <trkpt lat="48.89595" lon="7.4919">
        <ele>226</ele>
        <time>2021-08-08T05:52:28Z</time>
      </trkpt>
      <trkpt lat="48.89598" lon="7.49192">
        <ele>226</ele>
        <time>2021-08-08T05:52:29Z</time>
      </trkpt>
      <trkpt lat="48.89599" lon="7.49193">
        <ele>227</ele>
        <time>2021-08-08T05:52:30Z</time>
      </trkpt>
      <trkpt lat="48.89601" lon="7.49194">
        <ele>227</ele>
        <time>2021-08-08T05:52:31Z</time>
      </trkpt>
      <trkpt lat="48.89601" lon="7.49194">
        <ele>228</ele>
        <time>2021-08-08T05:52:32Z</time>
      </trkpt>
      <trkpt lat="48.89604" lon="7.49196">
        <ele>228</ele>
        <time>2021-08-08T05:52:33Z</time>
      </trkpt>
      <trkpt lat="48.89605" lon="7.49197">
        <ele>228</ele>
        <time>2021-08-08T05:52:34Z</time>
      </trkpt>
      <trkpt lat="48.89605" lon="7.49197">
        <ele>228</ele>
        <time>2021-08-08T05:52:35Z</time>
      </trkpt>
      <trkpt lat="48.89606" lon="7.492">
        <ele>229</ele>
        <time>2021-08-08T05:52:36Z</time>
      </trkpt>
      <trkpt lat="48.89608" lon="7.49202">
        <ele>229</ele>
        <time>2021-08-08T05:52:37Z</time>
      </trkpt>
      <trkpt lat="48.89608" lon="7.49202">
        <ele>230</ele>
        <time>2021-08-08T05:52:38Z</time>
      </trkpt>
      <trkpt lat="48.89611" lon="7.49206">
        <ele>230</ele>
        <time>2021-08-08T05:52:39Z</time>
      </trkpt>
      <trkpt lat="48.89611" lon="7.49206">
        <ele>230</ele>
        <time>2021-08-08T05:52:40Z</time>
      </trkpt>
      <trkpt lat="48.89614" lon="7.49211">
        <ele>230</ele>
        <time>2021-08-08T05:52:41Z</time>
      </trkpt>
      <trkpt lat="48.89614" lon="7.49211">
        <ele>230</ele>
        <time>2021-08-08T05:52:42Z</time>
      </trkpt>
      <trkpt lat="48.89616" lon="7.49216">
        <ele>230</ele>
        <time>2021-08-08T05:52:43Z</time>
      </trkpt>
      <trkpt lat="48.89616" lon="7.49216">
        <ele>231</ele>
        <time>2021-08-08T05:52:44Z</time>
      </trkpt>
      <trkpt lat="48.89618" lon="7.49219">
        <ele>231</ele>
        <time>2021-08-08T05:52:45Z</time>
      </trkpt>
      <trkpt lat="48.89618" lon="7.49219">
        <ele>231</ele>
        <time>2021-08-08T05:52:46Z</time>
      </trkpt>
      <trkpt lat="48.8962" lon="7.49222">
        <ele>231</ele>
        <time>2021-08-08T05:52:47Z</time>
      </trkpt>
      <trkpt lat="48.8962" lon="7.49222">
        <ele>232</ele>
        <time>2021-08-08T05:52:48Z</time>
      </trkpt>
      <trkpt lat="48.89622" lon="7.49229">
        <ele>232</ele>
        <time>2021-08-08T05:52:49Z</time>
      </trkpt>
      <trkpt lat="48.89622" lon="7.49229">
        <ele>232</ele>
        <time>2021-08-08T05:52:50Z</time>
      </trkpt>
      <trkpt lat="48.89625" lon="7.49233">
        <ele>232</ele>
        <time>2021-08-08T05:52:51Z</time>
      </trkpt>
      <trkpt lat="48.89625" lon="7.49233">
        <ele>232</ele>
        <time>2021-08-08T05:52:52Z</time>
      </trkpt>
      <trkpt lat="48.89628" lon="7.49238">
        <ele>232</ele>
        <time>2021-08-08T05:52:53Z</time>
      </trkpt>
      <trkpt lat="48.89628" lon="7.49238">
        <ele>233</ele>
        <time>2021-08-08T05:52:54Z</time>
      </trkpt>
      <trkpt lat="48.8963" lon="7.49243">
        <ele>233</ele>
        <time>2021-08-08T05:52:55Z</time>
      </trkpt>
      <trkpt lat="48.8963" lon="7.49243">
        <ele>233</ele>
        <time>2021-08-08T05:52:56Z</time>
      </trkpt>
      <trkpt lat="48.89634" lon="7.49248">
        <ele>233</ele>
        <time>2021-08-08T05:52:57Z</time>
      </trkpt>
      <trkpt lat="48.89634" lon="7.49248">
        <ele>234</ele>
        <time>2021-08-08T05:52:58Z</time>
      </trkpt>
      <trkpt lat="48.89636" lon="7.49252">
        <ele>234</ele>
        <time>2021-08-08T05:52:59Z</time>
      </trkpt>
      <trkpt lat="48.89636" lon="7.49252">
        <ele>234</ele>
        <time>2021-08-08T05:53:00Z</time>
      </trkpt>
      <trkpt lat="48.89639" lon="7.49256">
        <ele>234</ele>
        <time>2021-08-08T05:53:01Z</time>
      </trkpt>
      <trkpt lat="48.89639" lon="7.49256">
        <ele>234</ele>
        <time>2021-08-08T05:53:02Z</time>
      </trkpt>
      <trkpt lat="48.89642" lon="7.49259">
        <ele>235</ele>
        <time>2021-08-08T05:53:03Z</time>
      </trkpt>
      <trkpt lat="48.89642" lon="7.49259">
        <ele>235</ele>
        <time>2021-08-08T05:53:04Z</time>
      </trkpt>
      <trkpt lat="48.89644" lon="7.49262">
        <ele>235</ele>
        <time>2021-08-08T05:53:05Z</time>
      </trkpt>
      <trkpt lat="48.89644" lon="7.49262">
        <ele>235</ele>
        <time>2021-08-08T05:53:06Z</time>
      </trkpt>
      <trkpt lat="48.89648" lon="7.49264">
        <ele>235</ele>
        <time>2021-08-08T05:53:07Z</time>
      </trkpt>
      <trkpt lat="48.89649" lon="7.49265">
        <ele>235</ele>
        <time>2021-08-08T05:53:08Z</time>
      </trkpt>
      <trkpt lat="48.89649" lon="7.49265">
        <ele>236</ele>
        <time>2021-08-08T05:53:09Z</time>
      </trkpt>
      <trkpt lat="48.89651" lon="7.49267">
        <ele>236</ele>
        <time>2021-08-08T05:53:10Z</time>
      </trkpt>
      <trkpt lat="48.89651" lon="7.49267">
        <ele>236</ele>
        <time>2021-08-08T05:53:11Z</time>
      </trkpt>
      <trkpt lat="48.89654" lon="7.49269">
        <ele>236</ele>
        <time>2021-08-08T05:53:12Z</time>
      </trkpt>
      <trkpt lat="48.89654" lon="7.49269">
        <ele>236</ele>
        <time>2021-08-08T05:53:13Z</time>
      </trkpt>
      <trkpt lat="48.89656" lon="7.49272">
        <ele>236</ele>
        <time>2021-08-08T05:53:14Z</time>
      </trkpt>
      <trkpt lat="48.89658" lon="7.49274">
        <ele>237</ele>
        <time>2021-08-08T05:53:15Z</time>
      </trkpt>
      <trkpt lat="48.89658" lon="7.49274">
        <ele>237</ele>
        <time>2021-08-08T05:53:16Z</time>
      </trkpt>
      <trkpt lat="48.89662" lon="7.49277">
        <ele>237</ele>
        <time>2021-08-08T05:53:17Z</time>
      </trkpt>
      <trkpt lat="48.89662" lon="7.49277">
        <ele>237</ele>
        <time>2021-08-08T05:53:18Z</time>
      </trkpt>
      <trkpt lat="48.89665" lon="7.4928">
        <ele>237</ele>
        <time>2021-08-08T05:53:19Z</time>
      </trkpt>
      <trkpt lat="48.89665" lon="7.4928">
        <ele>237</ele>
        <time>2021-08-08T05:53:20Z</time>
      </trkpt>
      <trkpt lat="48.89669" lon="7.49287">
        <ele>238</ele>
        <time>2021-08-08T05:53:21Z</time>
      </trkpt>
      <trkpt lat="48.89669" lon="7.49287">
        <ele>238</ele>
        <time>2021-08-08T05:53:22Z</time>
      </trkpt>
      <trkpt lat="48.89672" lon="7.49292">
        <ele>238</ele>
        <time>2021-08-08T05:53:23Z</time>
      </trkpt>
      <trkpt lat="48.89672" lon="7.49292">
        <ele>238</ele>
        <time>2021-08-08T05:53:24Z</time>
      </trkpt>
      <trkpt lat="48.89676" lon="7.49295">
        <ele>238</ele>
        <time>2021-08-08T05:53:25Z</time>
      </trkpt>
      <trkpt lat="48.89676" lon="7.49295">
        <ele>238</ele>
        <time>2021-08-08T05:53:26Z</time>
      </trkpt>
      <trkpt lat="48.89679" lon="7.49298">
        <ele>238</ele>
        <time>2021-08-08T05:53:27Z</time>
      </trkpt>
      <trkpt lat="48.89679" lon="7.49298">
        <ele>238</ele>
        <time>2021-08-08T05:53:28Z</time>
      </trkpt>
      <trkpt lat="48.89681" lon="7.493">
        <ele>238</ele>
        <time>2021-08-08T05:53:29Z</time>
      </trkpt>
      <trkpt lat="48.89683" lon="7.49303">
        <ele>238</ele>
        <time>2021-08-08T05:53:30Z</time>
      </trkpt>
      <trkpt lat="48.89684" lon="7.49305">
        <ele>240</ele>
        <time>2021-08-08T05:53:31Z</time>
      </trkpt>
      <trkpt lat="48.89684" lon="7.49305">
        <ele>240</ele>
        <time>2021-08-08T05:53:32Z</time>
      </trkpt>
      <trkpt lat="48.89687" lon="7.49307">
        <ele>240</ele>
        <time>2021-08-08T05:53:33Z</time>
      </trkpt>
      <trkpt lat="48.89687" lon="7.49307">
        <ele>240</ele>
        <time>2021-08-08T05:53:34Z</time>
      </trkpt>
      <trkpt lat="48.89689" lon="7.49309">
        <ele>240</ele>
        <time>2021-08-08T05:53:35Z</time>
      </trkpt>
      <trkpt lat="48.89689" lon="7.49309">
        <ele>240</ele>
        <time>2021-08-08T05:53:36Z</time>
      </trkpt>
      <trkpt lat="48.89692" lon="7.49311">
        <ele>240</ele>
        <time>2021-08-08T05:53:37Z</time>
      </trkpt>
      <trkpt lat="48.89692" lon="7.49311">
        <ele>240</ele>
        <time>2021-08-08T05:53:38Z</time>
      </trkpt>
      <trkpt lat="48.89695" lon="7.49315">
        <ele>241</ele>
        <time>2021-08-08T05:53:39Z</time>
      </trkpt>
      <trkpt lat="48.89695" lon="7.49315">
        <ele>241</ele>
        <time>2021-08-08T05:53:40Z</time>
      </trkpt>
      <trkpt lat="48.89696" lon="7.49318">
        <ele>241</ele>
        <time>2021-08-08T05:53:41Z</time>
      </trkpt>
      <trkpt lat="48.89697" lon="7.4932">
        <ele>241</ele>
        <time>2021-08-08T05:53:42Z</time>
      </trkpt>
      <trkpt lat="48.89697" lon="7.4932">
        <ele>241</ele>
        <time>2021-08-08T05:53:43Z</time>
      </trkpt>
      <trkpt lat="48.897" lon="7.49325">
        <ele>241</ele>
        <time>2021-08-08T05:53:44Z</time>
      </trkpt>
      <trkpt lat="48.89701" lon="7.49327">
        <ele>242</ele>
        <time>2021-08-08T05:53:45Z</time>
      </trkpt>
      <trkpt lat="48.89701" lon="7.49327">
        <ele>242</ele>
        <time>2021-08-08T05:53:46Z</time>
      </trkpt>
      <trkpt lat="48.89702" lon="7.49332">
        <ele>242</ele>
        <time>2021-08-08T05:53:47Z</time>
      </trkpt>
      <trkpt lat="48.89702" lon="7.49332">
        <ele>242</ele>
        <time>2021-08-08T05:53:48Z</time>
      </trkpt>
      <trkpt lat="48.89703" lon="7.49334">
        <ele>242</ele>
        <time>2021-08-08T05:53:49Z</time>
      </trkpt>
      <trkpt lat="48.89703" lon="7.49334">
        <ele>242</ele>
        <time>2021-08-08T05:53:50Z</time>
      </trkpt>
      <trkpt lat="48.89706" lon="7.49342">
        <ele>242</ele>
        <time>2021-08-08T05:53:51Z</time>
      </trkpt>
      <trkpt lat="48.89706" lon="7.49342">
        <ele>242</ele>
        <time>2021-08-08T05:53:52Z</time>
      </trkpt>
      <trkpt lat="48.8971" lon="7.49349">
        <ele>242</ele>
        <time>2021-08-08T05:53:53Z</time>
      </trkpt>
      <trkpt lat="48.8971" lon="7.49349">
        <ele>243</ele>
        <time>2021-08-08T05:53:54Z</time>
      </trkpt>
      <trkpt lat="48.89714" lon="7.49353">
        <ele>243</ele>
        <time>2021-08-08T05:53:55Z</time>
      </trkpt>
      <trkpt lat="48.89714" lon="7.49353">
        <ele>243</ele>
        <time>2021-08-08T05:53:56Z</time>
      </trkpt>
      <trkpt lat="48.89717" lon="7.49356">
        <ele>243</ele>
        <time>2021-08-08T05:53:57Z</time>
      </trkpt>
      <trkpt lat="48.89717" lon="7.49356">
        <ele>243</ele>
        <time>2021-08-08T05:53:58Z</time>
      </trkpt>
      <trkpt lat="48.8972" lon="7.49358">
        <ele>244</ele>
        <time>2021-08-08T05:53:59Z</time>
      </trkpt>
      <trkpt lat="48.89722" lon="7.49358">
        <ele>244</ele>
        <time>2021-08-08T05:54:00Z</time>
      </trkpt>
      <trkpt lat="48.89724" lon="7.49359">
        <ele>244</ele>
        <time>2021-08-08T05:54:01Z</time>
      </trkpt>
      <trkpt lat="48.89725" lon="7.4936">
        <ele>244</ele>
        <time>2021-08-08T05:54:02Z</time>
      </trkpt>
      <trkpt lat="48.89725" lon="7.4936">
        <ele>244</ele>
        <time>2021-08-08T05:54:03Z</time>
      </trkpt>
      <trkpt lat="48.89727" lon="7.49364">
        <ele>244</ele>
        <time>2021-08-08T05:54:04Z</time>
      </trkpt>
      <trkpt lat="48.89728" lon="7.49366">
        <ele>244</ele>
        <time>2021-08-08T05:54:05Z</time>
      </trkpt>
      <trkpt lat="48.89728" lon="7.49366">
        <ele>244</ele>
        <time>2021-08-08T05:54:06Z</time>
      </trkpt>
      <trkpt lat="48.8973" lon="7.49369">
        <ele>244</ele>
        <time>2021-08-08T05:54:07Z</time>
      </trkpt>
      <trkpt lat="48.8973" lon="7.49369">
        <ele>245</ele>
        <time>2021-08-08T05:54:08Z</time>
      </trkpt>
      <trkpt lat="48.89733" lon="7.49373">
        <ele>245</ele>
        <time>2021-08-08T05:54:09Z</time>
      </trkpt>
      <trkpt lat="48.89733" lon="7.49373">
        <ele>245</ele>
        <time>2021-08-08T05:54:10Z</time>
      </trkpt>
      <trkpt lat="48.89735" lon="7.49377">
        <ele>245</ele>
        <time>2021-08-08T05:54:11Z</time>
      </trkpt>
      <trkpt lat="48.89735" lon="7.49377">
        <ele>246</ele>
        <time>2021-08-08T05:54:12Z</time>
      </trkpt>
      <trkpt lat="48.89736" lon="7.4938">
        <ele>246</ele>
        <time>2021-08-08T05:54:13Z</time>
      </trkpt>
      <trkpt lat="48.89736" lon="7.4938">
        <ele>246</ele>
        <time>2021-08-08T05:54:14Z</time>
      </trkpt>
      <trkpt lat="48.8974" lon="7.49383">
        <ele>246</ele>
        <time>2021-08-08T05:54:15Z</time>
      </trkpt>
      <trkpt lat="48.89741" lon="7.49384">
        <ele>246</ele>
        <time>2021-08-08T05:54:16Z</time>
      </trkpt>
      <trkpt lat="48.89741" lon="7.49384">
        <ele>246</ele>
        <time>2021-08-08T05:54:17Z</time>
      </trkpt>
      <trkpt lat="48.89744" lon="7.49388">
        <ele>247</ele>
        <time>2021-08-08T05:54:18Z</time>
      </trkpt>
      <trkpt lat="48.89745" lon="7.49389">
        <ele>247</ele>
        <time>2021-08-08T05:54:19Z</time>
      </trkpt>
      <trkpt lat="48.89745" lon="7.49389">
        <ele>247</ele>
        <time>2021-08-08T05:54:20Z</time>
      </trkpt>
      <trkpt lat="48.89747" lon="7.49393">
        <ele>247</ele>
        <time>2021-08-08T05:54:21Z</time>
      </trkpt>
      <trkpt lat="48.89747" lon="7.49393">
        <ele>248</ele>
        <time>2021-08-08T05:54:22Z</time>
      </trkpt>
      <trkpt lat="48.8975" lon="7.494">
        <ele>248</ele>
        <time>2021-08-08T05:54:23Z</time>
      </trkpt>
      <trkpt lat="48.8975" lon="7.494">
        <ele>248</ele>
        <time>2021-08-08T05:54:24Z</time>
      </trkpt>
      <trkpt lat="48.89752" lon="7.49404">
        <ele>248</ele>
        <time>2021-08-08T05:54:25Z</time>
      </trkpt>
      <trkpt lat="48.89752" lon="7.49404">
        <ele>249</ele>
        <time>2021-08-08T05:54:26Z</time>
      </trkpt>
      <trkpt lat="48.89755" lon="7.49408">
        <ele>249</ele>
        <time>2021-08-08T05:54:27Z</time>
      </trkpt>
      <trkpt lat="48.89755" lon="7.49408">
        <ele>249</ele>
        <time>2021-08-08T05:54:28Z</time>
      </trkpt>
      <trkpt lat="48.89756" lon="7.49411">
        <ele>249</ele>
        <time>2021-08-08T05:54:29Z</time>
      </trkpt>
      <trkpt lat="48.89756" lon="7.49411">
        <ele>250</ele>
        <time>2021-08-08T05:54:30Z</time>
      </trkpt>
      <trkpt lat="48.89759" lon="7.49415">
        <ele>250</ele>
        <time>2021-08-08T05:54:31Z</time>
      </trkpt>
      <trkpt lat="48.89759" lon="7.49415">
        <ele>250</ele>
        <time>2021-08-08T05:54:32Z</time>
      </trkpt>
      <trkpt lat="48.89762" lon="7.4942">
        <ele>250</ele>
        <time>2021-08-08T05:54:33Z</time>
      </trkpt>
      <trkpt lat="48.89762" lon="7.4942">
        <ele>251</ele>
        <time>2021-08-08T05:54:34Z</time>
      </trkpt>
      <trkpt lat="48.89764" lon="7.49426">
        <ele>251</ele>
        <time>2021-08-08T05:54:35Z</time>
      </trkpt>
      <trkpt lat="48.89764" lon="7.49426">
        <ele>251</ele>
        <time>2021-08-08T05:54:36Z</time>
      </trkpt>
      <trkpt lat="48.89767" lon="7.4943">
        <ele>251</ele>
        <time>2021-08-08T05:54:37Z</time>
      </trkpt>
      <trkpt lat="48.89767" lon="7.4943">
        <ele>252</ele>
        <time>2021-08-08T05:54:38Z</time>
      </trkpt>
      <trkpt lat="48.8977" lon="7.49433">
        <ele>252</ele>
        <time>2021-08-08T05:54:39Z</time>
      </trkpt>
      <trkpt lat="48.89772" lon="7.49435">
        <ele>252</ele>
        <time>2021-08-08T05:54:40Z</time>
      </trkpt>
      <trkpt lat="48.89772" lon="7.49435">
        <ele>252</ele>
        <time>2021-08-08T05:54:41Z</time>
      </trkpt>
      <trkpt lat="48.89774" lon="7.49439">
        <ele>253</ele>
        <time>2021-08-08T05:54:42Z</time>
      </trkpt>
      <trkpt lat="48.89774" lon="7.49439">
        <ele>253</ele>
        <time>2021-08-08T05:54:43Z</time>
      </trkpt>
      <trkpt lat="48.89777" lon="7.49444">
        <ele>253</ele>
        <time>2021-08-08T05:54:44Z</time>
      </trkpt>
      <trkpt lat="48.89778" lon="7.49446">
        <ele>253</ele>
        <time>2021-08-08T05:54:45Z</time>
      </trkpt>
      <trkpt lat="48.89778" lon="7.49446">
        <ele>254</ele>
        <time>2021-08-08T05:54:46Z</time>
      </trkpt>
      <trkpt lat="48.8978" lon="7.4945">
        <ele>254</ele>
        <time>2021-08-08T05:54:47Z</time>
      </trkpt>
      <trkpt lat="48.8978" lon="7.4945">
        <ele>254</ele>
        <time>2021-08-08T05:54:48Z</time>
      </trkpt>
      <trkpt lat="48.89781" lon="7.49455">
        <ele>254</ele>
        <time>2021-08-08T05:54:49Z</time>
      </trkpt>
      <trkpt lat="48.89781" lon="7.49455">
        <ele>254</ele>
        <time>2021-08-08T05:54:50Z</time>
      </trkpt>
      <trkpt lat="48.89783" lon="7.49459">
        <ele>254</ele>
        <time>2021-08-08T05:54:51Z</time>
      </trkpt>
      <trkpt lat="48.89783" lon="7.49459">
        <ele>254</ele>
        <time>2021-08-08T05:54:52Z</time>
      </trkpt>
      <trkpt lat="48.89786" lon="7.49466">
        <ele>254</ele>
        <time>2021-08-08T05:54:53Z</time>
      </trkpt>
      <trkpt lat="48.89786" lon="7.49466">
        <ele>254</ele>
        <time>2021-08-08T05:54:54Z</time>
      </trkpt>
      <trkpt lat="48.89788" lon="7.49472">
        <ele>255</ele>
        <time>2021-08-08T05:54:55Z</time>
      </trkpt>
      <trkpt lat="48.89788" lon="7.49472">
        <ele>255</ele>
        <time>2021-08-08T05:54:56Z</time>
      </trkpt>
      <trkpt lat="48.8979" lon="7.49476">
        <ele>255</ele>
        <time>2021-08-08T05:54:57Z</time>
      </trkpt>
      <trkpt lat="48.8979" lon="7.49476">
        <ele>255</ele>
        <time>2021-08-08T05:54:58Z</time>
      </trkpt>
      <trkpt lat="48.89792" lon="7.49482">
        <ele>255</ele>
        <time>2021-08-08T05:54:59Z</time>
      </trkpt>
      <trkpt lat="48.89792" lon="7.49484">
        <ele>256</ele>
        <time>2021-08-08T05:55:00Z</time>
      </trkpt>
      <trkpt lat="48.89793" lon="7.49485">
        <ele>256</ele>
        <time>2021-08-08T05:55:01Z</time>
      </trkpt>
      <trkpt lat="48.89793" lon="7.49485">
        <ele>256</ele>
        <time>2021-08-08T05:55:02Z</time>
      </trkpt>
      <trkpt lat="48.89793" lon="7.49488">
        <ele>256</ele>
        <time>2021-08-08T05:55:03Z</time>
      </trkpt>
      <trkpt lat="48.89793" lon="7.49488">
        <ele>257</ele>
        <time>2021-08-08T05:55:04Z</time>
      </trkpt>
      <trkpt lat="48.89794" lon="7.49489">
        <ele>257</ele>
        <time>2021-08-08T05:55:05Z</time>
      </trkpt>
      <trkpt lat="48.89794" lon="7.49489">
        <ele>257</ele>
        <time>2021-08-08T05:55:06Z</time>
      </trkpt>
      <trkpt lat="48.89795" lon="7.49493">
        <ele>257</ele>
        <time>2021-08-08T05:55:07Z</time>
      </trkpt>
      <trkpt lat="48.89795" lon="7.49493">
        <ele>258</ele>
        <time>2021-08-08T05:55:08Z</time>
      </trkpt>
      <trkpt lat="48.89796" lon="7.49496">
        <ele>258</ele>
        <time>2021-08-08T05:55:09Z</time>
      </trkpt>
      <trkpt lat="48.89796" lon="7.49496">
        <ele>258</ele>
        <time>2021-08-08T05:55:10Z</time>
      </trkpt>
      <trkpt lat="48.89799" lon="7.495">
        <ele>258</ele>
        <time>2021-08-08T05:55:11Z</time>
      </trkpt>
      <trkpt lat="48.89801" lon="7.49502">
        <ele>258</ele>
        <time>2021-08-08T05:55:12Z</time>
      </trkpt>
      <trkpt lat="48.89802" lon="7.49504">
        <ele>258</ele>
        <time>2021-08-08T05:55:13Z</time>
      </trkpt>
      <trkpt lat="48.89802" lon="7.49504">
        <ele>258</ele>
        <time>2021-08-08T05:55:14Z</time>
      </trkpt>
      <trkpt lat="48.89804" lon="7.49509">
        <ele>258</ele>
        <time>2021-08-08T05:55:15Z</time>
      </trkpt>
      <trkpt lat="48.89804" lon="7.49509">
        <ele>258</ele>
        <time>2021-08-08T05:55:16Z</time>
      </trkpt>
      <trkpt lat="48.89806" lon="7.49513">
        <ele>259</ele>
        <time>2021-08-08T05:55:17Z</time>
      </trkpt>
      <trkpt lat="48.89806" lon="7.49513">
        <ele>259</ele>
        <time>2021-08-08T05:55:18Z</time>
      </trkpt>
      <trkpt lat="48.89809" lon="7.49517">
        <ele>259</ele>
        <time>2021-08-08T05:55:19Z</time>
      </trkpt>
      <trkpt lat="48.89809" lon="7.49517">
        <ele>259</ele>
        <time>2021-08-08T05:55:20Z</time>
      </trkpt>
      <trkpt lat="48.89812" lon="7.49521">
        <ele>259</ele>
        <time>2021-08-08T05:55:21Z</time>
      </trkpt>
      <trkpt lat="48.89812" lon="7.49521">
        <ele>259</ele>
        <time>2021-08-08T05:55:22Z</time>
      </trkpt>
      <trkpt lat="48.89815" lon="7.49526">
        <ele>260</ele>
        <time>2021-08-08T05:55:23Z</time>
      </trkpt>
      <trkpt lat="48.89815" lon="7.49526">
        <ele>260</ele>
        <time>2021-08-08T05:55:24Z</time>
      </trkpt>
      <trkpt lat="48.89818" lon="7.49536">
        <ele>260</ele>
        <time>2021-08-08T05:55:25Z</time>
      </trkpt>
      <trkpt lat="48.89818" lon="7.49536">
        <ele>260</ele>
        <time>2021-08-08T05:55:26Z</time>
      </trkpt>
      <trkpt lat="48.89819" lon="7.49544">
        <ele>261</ele>
        <time>2021-08-08T05:55:27Z</time>
      </trkpt>
      <trkpt lat="48.89819" lon="7.49544">
        <ele>261</ele>
        <time>2021-08-08T05:55:28Z</time>
      </trkpt>
      <trkpt lat="48.89821" lon="7.49547">
        <ele>261</ele>
        <time>2021-08-08T05:55:29Z</time>
      </trkpt>
      <trkpt lat="48.89822" lon="7.4955">
        <ele>261</ele>
        <time>2021-08-08T05:55:30Z</time>
      </trkpt>
      <trkpt lat="48.89822" lon="7.49552">
        <ele>261</ele>
        <time>2021-08-08T05:55:31Z</time>
      </trkpt>
      <trkpt lat="48.89822" lon="7.49552">
        <ele>261</ele>
        <time>2021-08-08T05:55:32Z</time>
      </trkpt>
      <trkpt lat="48.89825" lon="7.49555">
        <ele>262</ele>
        <time>2021-08-08T05:55:33Z</time>
      </trkpt>
      <trkpt lat="48.89825" lon="7.49555">
        <ele>262</ele>
        <time>2021-08-08T05:55:34Z</time>
      </trkpt>
      <trkpt lat="48.89828" lon="7.49558">
        <ele>262</ele>
        <time>2021-08-08T05:55:35Z</time>
      </trkpt>
      <trkpt lat="48.89828" lon="7.49558">
        <ele>262</ele>
        <time>2021-08-08T05:55:36Z</time>
      </trkpt>
      <trkpt lat="48.89831" lon="7.49561">
        <ele>263</ele>
        <time>2021-08-08T05:55:37Z</time>
      </trkpt>
      <trkpt lat="48.89831" lon="7.49561">
        <ele>263</ele>
        <time>2021-08-08T05:55:38Z</time>
      </trkpt>
      <trkpt lat="48.89834" lon="7.49564">
        <ele>263</ele>
        <time>2021-08-08T05:55:39Z</time>
      </trkpt>
      <trkpt lat="48.89834" lon="7.49564">
        <ele>263</ele>
        <time>2021-08-08T05:55:40Z</time>
      </trkpt>
      <trkpt lat="48.89836" lon="7.49568">
        <ele>263</ele>
        <time>2021-08-08T05:55:41Z</time>
      </trkpt>
      <trkpt lat="48.89836" lon="7.49568">
        <ele>263</ele>
        <time>2021-08-08T05:55:42Z</time>
      </trkpt>
      <trkpt lat="48.89838" lon="7.49571">
        <ele>263</ele>
        <time>2021-08-08T05:55:43Z</time>
      </trkpt>
      <trkpt lat="48.89838" lon="7.49571">
        <ele>263</ele>
        <time>2021-08-08T05:55:44Z</time>
      </trkpt>
      <trkpt lat="48.8984" lon="7.49574">
        <ele>264</ele>
        <time>2021-08-08T05:55:45Z</time>
      </trkpt>
      <trkpt lat="48.8984" lon="7.49574">
        <ele>264</ele>
        <time>2021-08-08T05:55:46Z</time>
      </trkpt>
      <trkpt lat="48.89842" lon="7.49578">
        <ele>264</ele>
        <time>2021-08-08T05:55:47Z</time>
      </trkpt>
      <trkpt lat="48.89842" lon="7.49578">
        <ele>265</ele>
        <time>2021-08-08T05:55:48Z</time>
      </trkpt>
      <trkpt lat="48.89843" lon="7.49582">
        <ele>265</ele>
        <time>2021-08-08T05:55:49Z</time>
      </trkpt>
      <trkpt lat="48.89845" lon="7.49584">
        <ele>265</ele>
        <time>2021-08-08T05:55:50Z</time>
      </trkpt>
      <trkpt lat="48.89845" lon="7.49585">
        <ele>265</ele>
        <time>2021-08-08T05:55:51Z</time>
      </trkpt>
      <trkpt lat="48.89845" lon="7.49585">
        <ele>265</ele>
        <time>2021-08-08T05:55:52Z</time>
      </trkpt>
      <trkpt lat="48.89846" lon="7.4959">
        <ele>265</ele>
        <time>2021-08-08T05:55:53Z</time>
      </trkpt>
      <trkpt lat="48.89846" lon="7.4959">
        <ele>265</ele>
        <time>2021-08-08T05:55:54Z</time>
      </trkpt>
      <trkpt lat="48.89848" lon="7.49596">
        <ele>265</ele>
        <time>2021-08-08T05:55:55Z</time>
      </trkpt>
      <trkpt lat="48.89848" lon="7.49596">
        <ele>266</ele>
        <time>2021-08-08T05:55:56Z</time>
      </trkpt>
      <trkpt lat="48.89851" lon="7.49603">
        <ele>266</ele>
        <time>2021-08-08T05:55:57Z</time>
      </trkpt>
      <trkpt lat="48.89851" lon="7.49603">
        <ele>266</ele>
        <time>2021-08-08T05:55:58Z</time>
      </trkpt>
      <trkpt lat="48.89853" lon="7.49608">
        <ele>266</ele>
        <time>2021-08-08T05:55:59Z</time>
      </trkpt>
      <trkpt lat="48.89853" lon="7.49608">
        <ele>266</ele>
        <time>2021-08-08T05:56:00Z</time>
      </trkpt>
      <trkpt lat="48.89856" lon="7.49611">
        <ele>267</ele>
        <time>2021-08-08T05:56:01Z</time>
      </trkpt>
      <trkpt lat="48.89856" lon="7.49611">
        <ele>267</ele>
        <time>2021-08-08T05:56:02Z</time>
      </trkpt>
      <trkpt lat="48.89858" lon="7.49615">
        <ele>267</ele>
        <time>2021-08-08T05:56:03Z</time>
      </trkpt>
      <trkpt lat="48.89858" lon="7.49615">
        <ele>267</ele>
        <time>2021-08-08T05:56:04Z</time>
      </trkpt>
      <trkpt lat="48.89861" lon="7.49621">
        <ele>268</ele>
        <time>2021-08-08T05:56:05Z</time>
      </trkpt>
      <trkpt lat="48.89861" lon="7.49621">
        <ele>268</ele>
        <time>2021-08-08T05:56:06Z</time>
      </trkpt>
      <trkpt lat="48.89862" lon="7.49624">
        <ele>268</ele>
        <time>2021-08-08T05:56:07Z</time>
      </trkpt>
      <trkpt lat="48.89862" lon="7.49624">
        <ele>268</ele>
        <time>2021-08-08T05:56:08Z</time>
      </trkpt>
      <trkpt lat="48.89864" lon="7.49627">
        <ele>268</ele>
        <time>2021-08-08T05:56:09Z</time>
      </trkpt>
      <trkpt lat="48.89865" lon="7.4963">
        <ele>268</ele>
        <time>2021-08-08T05:56:10Z</time>
      </trkpt>
      <trkpt lat="48.89867" lon="7.49633">
        <ele>269</ele>
        <time>2021-08-08T05:56:11Z</time>
      </trkpt>
      <trkpt lat="48.89867" lon="7.49633">
        <ele>269</ele>
        <time>2021-08-08T05:56:12Z</time>
      </trkpt>
      <trkpt lat="48.89868" lon="7.49636">
        <ele>269</ele>
        <time>2021-08-08T05:56:13Z</time>
      </trkpt>
      <trkpt lat="48.89868" lon="7.49636">
        <ele>269</ele>
        <time>2021-08-08T05:56:14Z</time>
      </trkpt>
      <trkpt lat="48.8987" lon="7.4964">
        <ele>269</ele>
        <time>2021-08-08T05:56:15Z</time>
      </trkpt>
      <trkpt lat="48.8987" lon="7.4964">
        <ele>269</ele>
        <time>2021-08-08T05:56:16Z</time>
      </trkpt>
      <trkpt lat="48.89872" lon="7.49643">
        <ele>270</ele>
        <time>2021-08-08T05:56:17Z</time>
      </trkpt>
      <trkpt lat="48.89873" lon="7.49645">
        <ele>270</ele>
        <time>2021-08-08T05:56:18Z</time>
      </trkpt>
      <trkpt lat="48.89873" lon="7.49645">
        <ele>270</ele>
        <time>2021-08-08T05:56:19Z</time>
      </trkpt>
      <trkpt lat="48.89875" lon="7.4965">
        <ele>270</ele>
        <time>2021-08-08T05:56:20Z</time>
      </trkpt>
      <trkpt lat="48.89876" lon="7.49652">
        <ele>271</ele>
        <time>2021-08-08T05:56:21Z</time>
      </trkpt>
      <trkpt lat="48.89876" lon="7.49652">
        <ele>271</ele>
        <time>2021-08-08T05:56:22Z</time>
      </trkpt>
      <trkpt lat="48.89877" lon="7.49655">
        <ele>272</ele>
        <time>2021-08-08T05:56:23Z</time>
      </trkpt>
      <trkpt lat="48.89878" lon="7.49658">
        <ele>272</ele>
        <time>2021-08-08T05:56:24Z</time>
      </trkpt>
      <trkpt lat="48.89879" lon="7.49659">
        <ele>272</ele>
        <time>2021-08-08T05:56:25Z</time>
      </trkpt>
      <trkpt lat="48.89879" lon="7.49659">
        <ele>272</ele>
        <time>2021-08-08T05:56:26Z</time>
      </trkpt>
      <trkpt lat="48.8988" lon="7.49664">
        <ele>272</ele>
        <time>2021-08-08T05:56:27Z</time>
      </trkpt>
      <trkpt lat="48.8988" lon="7.49664">
        <ele>272</ele>
        <time>2021-08-08T05:56:28Z</time>
      </trkpt>
      <trkpt lat="48.89882" lon="7.49667">
        <ele>273</ele>
        <time>2021-08-08T05:56:29Z</time>
      </trkpt>
      <trkpt lat="48.89882" lon="7.49667">
        <ele>273</ele>
        <time>2021-08-08T05:56:30Z</time>
      </trkpt>
      <trkpt lat="48.89886" lon="7.49674">
        <ele>273</ele>
        <time>2021-08-08T05:56:31Z</time>
      </trkpt>
      <trkpt lat="48.89886" lon="7.49674">
        <ele>273</ele>
        <time>2021-08-08T05:56:32Z</time>
      </trkpt>
      <trkpt lat="48.89888" lon="7.4968">
        <ele>274</ele>
        <time>2021-08-08T05:56:33Z</time>
      </trkpt>
      <trkpt lat="48.89888" lon="7.4968">
        <ele>274</ele>
        <time>2021-08-08T05:56:34Z</time>
      </trkpt>
      <trkpt lat="48.89889" lon="7.49684">
        <ele>274</ele>
        <time>2021-08-08T05:56:35Z</time>
      </trkpt>
      <trkpt lat="48.89889" lon="7.49684">
        <ele>274</ele>
        <time>2021-08-08T05:56:36Z</time>
      </trkpt>
      <trkpt lat="48.89892" lon="7.49687">
        <ele>274</ele>
        <time>2021-08-08T05:56:37Z</time>
      </trkpt>
      <trkpt lat="48.89892" lon="7.49687">
        <ele>274</ele>
        <time>2021-08-08T05:56:38Z</time>
      </trkpt>
      <trkpt lat="48.89894" lon="7.4969">
        <ele>275</ele>
        <time>2021-08-08T05:56:39Z</time>
      </trkpt>
      <trkpt lat="48.89895" lon="7.49692">
        <ele>275</ele>
        <time>2021-08-08T05:56:40Z</time>
      </trkpt>
      <trkpt lat="48.89895" lon="7.49692">
        <ele>275</ele>
        <time>2021-08-08T05:56:41Z</time>
      </trkpt>
      <trkpt lat="48.89898" lon="7.49697">
        <ele>275</ele>
        <time>2021-08-08T05:56:42Z</time>
      </trkpt>
      <trkpt lat="48.89899" lon="7.49699">
        <ele>275</ele>
        <time>2021-08-08T05:56:43Z</time>
      </trkpt>
      <trkpt lat="48.89899" lon="7.49699">
        <ele>275</ele>
        <time>2021-08-08T05:56:44Z</time>
      </trkpt>
      <trkpt lat="48.899" lon="7.49702">
        <ele>276</ele>
        <time>2021-08-08T05:56:45Z</time>
      </trkpt>
      <trkpt lat="48.899" lon="7.49702">
        <ele>276</ele>
        <time>2021-08-08T05:56:46Z</time>
      </trkpt>
      <trkpt lat="48.89902" lon="7.49704">
        <ele>276</ele>
        <time>2021-08-08T05:56:47Z</time>
      </trkpt>
      <trkpt lat="48.89902" lon="7.49704">
        <ele>276</ele>
        <time>2021-08-08T05:56:48Z</time>
      </trkpt>
      <trkpt lat="48.89903" lon="7.49708">
        <ele>276</ele>
        <time>2021-08-08T05:56:49Z</time>
      </trkpt>
      <trkpt lat="48.89903" lon="7.49708">
        <ele>277</ele>
        <time>2021-08-08T05:56:50Z</time>
      </trkpt>
      <trkpt lat="48.89903" lon="7.4971">
        <ele>277</ele>
        <time>2021-08-08T05:56:51Z</time>
      </trkpt>
      <trkpt lat="48.89903" lon="7.4971">
        <ele>277</ele>
        <time>2021-08-08T05:56:52Z</time>
      </trkpt>
      <trkpt lat="48.89905" lon="7.49714">
        <ele>277</ele>
        <time>2021-08-08T05:56:53Z</time>
      </trkpt>
      <trkpt lat="48.89905" lon="7.49714">
        <ele>277</ele>
        <time>2021-08-08T05:56:54Z</time>
      </trkpt>
      <trkpt lat="48.89907" lon="7.49718">
        <ele>278</ele>
        <time>2021-08-08T05:56:55Z</time>
      </trkpt>
      <trkpt lat="48.89907" lon="7.49718">
        <ele>278</ele>
        <time>2021-08-08T05:56:56Z</time>
      </trkpt>
      <trkpt lat="48.8991" lon="7.49724">
        <ele>278</ele>
        <time>2021-08-08T05:56:57Z</time>
      </trkpt>
      <trkpt lat="48.8991" lon="7.49724">
        <ele>278</ele>
        <time>2021-08-08T05:56:58Z</time>
      </trkpt>
      <trkpt lat="48.89911" lon="7.4973">
        <ele>278</ele>
        <time>2021-08-08T05:56:59Z</time>
      </trkpt>
      <trkpt lat="48.89911" lon="7.4973">
        <ele>278</ele>
        <time>2021-08-08T05:57:00Z</time>
      </trkpt>
      <trkpt lat="48.89913" lon="7.49735">
        <ele>278</ele>
        <time>2021-08-08T05:57:01Z</time>
      </trkpt>
      <trkpt lat="48.89913" lon="7.49735">
        <ele>278</ele>
        <time>2021-08-08T05:57:02Z</time>
      </trkpt>
      <trkpt lat="48.89915" lon="7.49739">
        <ele>279</ele>
        <time>2021-08-08T05:57:03Z</time>
      </trkpt>
      <trkpt lat="48.89916" lon="7.49741">
        <ele>279</ele>
        <time>2021-08-08T05:57:04Z</time>
      </trkpt>
      <trkpt lat="48.89916" lon="7.49741">
        <ele>279</ele>
        <time>2021-08-08T05:57:05Z</time>
      </trkpt>
      <trkpt lat="48.89918" lon="7.49745">
        <ele>279</ele>
        <time>2021-08-08T05:57:06Z</time>
      </trkpt>
      <trkpt lat="48.89918" lon="7.49745">
        <ele>279</ele>
        <time>2021-08-08T05:57:07Z</time>
      </trkpt>
      <trkpt lat="48.8992" lon="7.49748">
        <ele>279</ele>
        <time>2021-08-08T05:57:08Z</time>
      </trkpt>
      <trkpt lat="48.8992" lon="7.49748">
        <ele>280</ele>
        <time>2021-08-08T05:57:09Z</time>
      </trkpt>
      <trkpt lat="48.89922" lon="7.49752">
        <ele>280</ele>
        <time>2021-08-08T05:57:10Z</time>
      </trkpt>
      <trkpt lat="48.89923" lon="7.49754">
        <ele>280</ele>
        <time>2021-08-08T05:57:11Z</time>
      </trkpt>
      <trkpt lat="48.89923" lon="7.49755">
        <ele>280</ele>
        <time>2021-08-08T05:57:12Z</time>
      </trkpt>
      <trkpt lat="48.89923" lon="7.49755">
        <ele>280</ele>
        <time>2021-08-08T05:57:13Z</time>
      </trkpt>
      <trkpt lat="48.89924" lon="7.4976">
        <ele>280</ele>
        <time>2021-08-08T05:57:14Z</time>
      </trkpt>
      <trkpt lat="48.89925" lon="7.49762">
        <ele>280</ele>
        <time>2021-08-08T05:57:15Z</time>
      </trkpt>
      <trkpt lat="48.89925" lon="7.49762">
        <ele>280</ele>
        <time>2021-08-08T05:57:16Z</time>
      </trkpt>
      <trkpt lat="48.89927" lon="7.49764">
        <ele>281</ele>
        <time>2021-08-08T05:57:17Z</time>
      </trkpt>
      <trkpt lat="48.89927" lon="7.49764">
        <ele>281</ele>
        <time>2021-08-08T05:57:18Z</time>
      </trkpt>
      <trkpt lat="48.89929" lon="7.49767">
        <ele>281</ele>
        <time>2021-08-08T05:57:19Z</time>
      </trkpt>
      <trkpt lat="48.89929" lon="7.49767">
        <ele>281</ele>
        <time>2021-08-08T05:57:20Z</time>
      </trkpt>
      <trkpt lat="48.89931" lon="7.49771">
        <ele>281</ele>
        <time>2021-08-08T05:57:21Z</time>
      </trkpt>
      <trkpt lat="48.89931" lon="7.49771">
        <ele>281</ele>
        <time>2021-08-08T05:57:22Z</time>
      </trkpt>
      <trkpt lat="48.89934" lon="7.49775">
        <ele>281</ele>
        <time>2021-08-08T05:57:23Z</time>
      </trkpt>
      <trkpt lat="48.89934" lon="7.49775">
        <ele>281</ele>
        <time>2021-08-08T05:57:24Z</time>
      </trkpt>
      <trkpt lat="48.89937" lon="7.49779">
        <ele>281</ele>
        <time>2021-08-08T05:57:25Z</time>
      </trkpt>
      <trkpt lat="48.89938" lon="7.49781">
        <ele>281</ele>
        <time>2021-08-08T05:57:26Z</time>
      </trkpt>
      <trkpt lat="48.89938" lon="7.49781">
        <ele>282</ele>
        <time>2021-08-08T05:57:27Z</time>
      </trkpt>
      <trkpt lat="48.89942" lon="7.49788">
        <ele>282</ele>
        <time>2021-08-08T05:57:28Z</time>
      </trkpt>
      <trkpt lat="48.89942" lon="7.49788">
        <ele>282</ele>
        <time>2021-08-08T05:57:29Z</time>
      </trkpt>
      <trkpt lat="48.89945" lon="7.49792">
        <ele>282</ele>
        <time>2021-08-08T05:57:30Z</time>
      </trkpt>
      <trkpt lat="48.89946" lon="7.49795">
        <ele>282</ele>
        <time>2021-08-08T05:57:31Z</time>
      </trkpt>
      <trkpt lat="48.89946" lon="7.49795">
        <ele>282</ele>
        <time>2021-08-08T05:57:32Z</time>
      </trkpt>
      <trkpt lat="48.89947" lon="7.49797">
        <ele>282</ele>
        <time>2021-08-08T05:57:33Z</time>
      </trkpt>
      <trkpt lat="48.89947" lon="7.49797">
        <ele>283</ele>
        <time>2021-08-08T05:57:34Z</time>
      </trkpt>
      <trkpt lat="48.89949" lon="7.498">
        <ele>283</ele>
        <time>2021-08-08T05:57:35Z</time>
      </trkpt>
      <trkpt lat="48.89949" lon="7.498">
        <ele>283</ele>
        <time>2021-08-08T05:57:36Z</time>
      </trkpt>
      <trkpt lat="48.89951" lon="7.49801">
        <ele>283</ele>
        <time>2021-08-08T05:57:37Z</time>
      </trkpt>
      <trkpt lat="48.89951" lon="7.49801">
        <ele>283</ele>
        <time>2021-08-08T05:57:38Z</time>
      </trkpt>
      <trkpt lat="48.89953" lon="7.49804">
        <ele>283</ele>
        <time>2021-08-08T05:57:39Z</time>
      </trkpt>
      <trkpt lat="48.89954" lon="7.49806">
        <ele>284</ele>
        <time>2021-08-08T05:57:40Z</time>
      </trkpt>
      <trkpt lat="48.89954" lon="7.49806">
        <ele>284</ele>
        <time>2021-08-08T05:57:41Z</time>
      </trkpt>
      <trkpt lat="48.89956" lon="7.49807">
        <ele>284</ele>
        <time>2021-08-08T05:57:42Z</time>
      </trkpt>
      <trkpt lat="48.89957" lon="7.49809">
        <ele>285</ele>
        <time>2021-08-08T05:57:43Z</time>
      </trkpt>
      <trkpt lat="48.89957" lon="7.49809">
        <ele>285</ele>
        <time>2021-08-08T05:57:44Z</time>
      </trkpt>
      <trkpt lat="48.89958" lon="7.49813">
        <ele>285</ele>
        <time>2021-08-08T05:57:45Z</time>
      </trkpt>
      <trkpt lat="48.89958" lon="7.49813">
        <ele>285</ele>
        <time>2021-08-08T05:57:46Z</time>
      </trkpt>
      <trkpt lat="48.89961" lon="7.49818">
        <ele>285</ele>
        <time>2021-08-08T05:57:47Z</time>
      </trkpt>
      <trkpt lat="48.89961" lon="7.49818">
        <ele>285</ele>
        <time>2021-08-08T05:57:48Z</time>
      </trkpt>
      <trkpt lat="48.89964" lon="7.49822">
        <ele>285</ele>
        <time>2021-08-08T05:57:49Z</time>
      </trkpt>
      <trkpt lat="48.89964" lon="7.49822">
        <ele>286</ele>
        <time>2021-08-08T05:57:50Z</time>
      </trkpt>
      <trkpt lat="48.89967" lon="7.49827">
        <ele>286</ele>
        <time>2021-08-08T05:57:51Z</time>
      </trkpt>
      <trkpt lat="48.89969" lon="7.49828">
        <ele>286</ele>
        <time>2021-08-08T05:57:52Z</time>
      </trkpt>
      <trkpt lat="48.89969" lon="7.49828">
        <ele>286</ele>
        <time>2021-08-08T05:57:53Z</time>
      </trkpt>
      <trkpt lat="48.89971" lon="7.49831">
        <ele>287</ele>
        <time>2021-08-08T05:57:54Z</time>
      </trkpt>
      <trkpt lat="48.89973" lon="7.49832">
        <ele>287</ele>
        <time>2021-08-08T05:57:55Z</time>
      </trkpt>
      <trkpt lat="48.89973" lon="7.49832">
        <ele>287</ele>
        <time>2021-08-08T05:57:56Z</time>
      </trkpt>
      <trkpt lat="48.89977" lon="7.49833">
        <ele>287</ele>
        <time>2021-08-08T05:57:57Z</time>
      </trkpt>
      <trkpt lat="48.89977" lon="7.49833">
        <ele>287</ele>
        <time>2021-08-08T05:57:58Z</time>
      </trkpt>
      <trkpt lat="48.89982" lon="7.49836">
        <ele>287</ele>
        <time>2021-08-08T05:57:59Z</time>
      </trkpt>
      <trkpt lat="48.89984" lon="7.49837">
        <ele>288</ele>
        <time>2021-08-08T05:58:00Z</time>
      </trkpt>
      <trkpt lat="48.89984" lon="7.49837">
        <ele>288</ele>
        <time>2021-08-08T05:58:01Z</time>
      </trkpt>
      <trkpt lat="48.89988" lon="7.4984">
        <ele>288</ele>
        <time>2021-08-08T05:58:02Z</time>
      </trkpt>
      <trkpt lat="48.89989" lon="7.49841">
        <ele>288</ele>
        <time>2021-08-08T05:58:03Z</time>
      </trkpt>
      <trkpt lat="48.89989" lon="7.49841">
        <ele>289</ele>
        <time>2021-08-08T05:58:04Z</time>
      </trkpt>
      <trkpt lat="48.89992" lon="7.49843">
        <ele>289</ele>
        <time>2021-08-08T05:58:05Z</time>
      </trkpt>
      <trkpt lat="48.89992" lon="7.49843">
        <ele>289</ele>
        <time>2021-08-08T05:58:06Z</time>
      </trkpt>
      <trkpt lat="48.89994" lon="7.49845">
        <ele>289</ele>
        <time>2021-08-08T05:58:07Z</time>
      </trkpt>
      <trkpt lat="48.89994" lon="7.49845">
        <ele>290</ele>
        <time>2021-08-08T05:58:08Z</time>
      </trkpt>
      <trkpt lat="48.89997" lon="7.49847">
        <ele>290</ele>
        <time>2021-08-08T05:58:09Z</time>
      </trkpt>
      <trkpt lat="48.89997" lon="7.49847">
        <ele>290</ele>
        <time>2021-08-08T05:58:10Z</time>
      </trkpt>
      <trkpt lat="48.9" lon="7.4985">
        <ele>290</ele>
        <time>2021-08-08T05:58:11Z</time>
      </trkpt>
      <trkpt lat="48.90001" lon="7.49851">
        <ele>290</ele>
        <time>2021-08-08T05:58:12Z</time>
      </trkpt>
      <trkpt lat="48.90001" lon="7.49851">
        <ele>290</ele>
        <time>2021-08-08T05:58:13Z</time>
      </trkpt>
      <trkpt lat="48.90004" lon="7.49853">
        <ele>290</ele>
        <time>2021-08-08T05:58:14Z</time>
      </trkpt>
      <trkpt lat="48.90004" lon="7.49853">
        <ele>290</ele>
        <time>2021-08-08T05:58:15Z</time>
      </trkpt>
      <trkpt lat="48.90006" lon="7.49854">
        <ele>291</ele>
        <time>2021-08-08T05:58:16Z</time>
      </trkpt>
      <trkpt lat="48.90006" lon="7.49854">
        <ele>291</ele>
        <time>2021-08-08T05:58:17Z</time>
      </trkpt>
      <trkpt lat="48.9001" lon="7.49857">
        <ele>291</ele>
        <time>2021-08-08T05:58:18Z</time>
      </trkpt>
      <trkpt lat="48.9001" lon="7.49858">
        <ele>291</ele>
        <time>2021-08-08T05:58:19Z</time>
      </trkpt>
      <trkpt lat="48.90012" lon="7.49859">
        <ele>292</ele>
        <time>2021-08-08T05:58:20Z</time>
      </trkpt>
      <trkpt lat="48.90013" lon="7.4986">
        <ele>292</ele>
        <time>2021-08-08T05:58:21Z</time>
      </trkpt>
      <trkpt lat="48.90015" lon="7.49861">
        <ele>292</ele>
        <time>2021-08-08T05:58:22Z</time>
      </trkpt>
      <trkpt lat="48.90015" lon="7.49861">
        <ele>292</ele>
        <time>2021-08-08T05:58:23Z</time>
      </trkpt>
      <trkpt lat="48.90019" lon="7.49862">
        <ele>293</ele>
        <time>2021-08-08T05:58:24Z</time>
      </trkpt>
      <trkpt lat="48.9002" lon="7.49864">
        <ele>293</ele>
        <time>2021-08-08T05:58:25Z</time>
      </trkpt>
      <trkpt lat="48.9002" lon="7.49864">
        <ele>293</ele>
        <time>2021-08-08T05:58:26Z</time>
      </trkpt>
      <trkpt lat="48.90023" lon="7.49865">
        <ele>293</ele>
        <time>2021-08-08T05:58:27Z</time>
      </trkpt>
      <trkpt lat="48.90023" lon="7.49865">
        <ele>294</ele>
        <time>2021-08-08T05:58:28Z</time>
      </trkpt>
      <trkpt lat="48.90025" lon="7.49865">
        <ele>294</ele>
        <time>2021-08-08T05:58:29Z</time>
      </trkpt>
      <trkpt lat="48.90026" lon="7.49866">
        <ele>294</ele>
        <time>2021-08-08T05:58:30Z</time>
      </trkpt>
      <trkpt lat="48.90026" lon="7.49866">
        <ele>294</ele>
        <time>2021-08-08T05:58:31Z</time>
      </trkpt>
      <trkpt lat="48.9003" lon="7.49868">
        <ele>295</ele>
        <time>2021-08-08T05:58:32Z</time>
      </trkpt>
      <trkpt lat="48.9003" lon="7.49868">
        <ele>295</ele>
        <time>2021-08-08T05:58:33Z</time>
      </trkpt>
      <trkpt lat="48.90035" lon="7.49872">
        <ele>295</ele>
        <time>2021-08-08T05:58:34Z</time>
      </trkpt>
      <trkpt lat="48.90037" lon="7.49875">
        <ele>295</ele>
        <time>2021-08-08T05:58:35Z</time>
      </trkpt>
      <trkpt lat="48.90037" lon="7.49875">
        <ele>295</ele>
        <time>2021-08-08T05:58:36Z</time>
      </trkpt>
      <trkpt lat="48.9004" lon="7.49878">
        <ele>295</ele>
        <time>2021-08-08T05:58:37Z</time>
      </trkpt>
      <trkpt lat="48.9004" lon="7.49878">
        <ele>296</ele>
        <time>2021-08-08T05:58:38Z</time>
      </trkpt>
      <trkpt lat="48.90044" lon="7.49881">
        <ele>296</ele>
        <time>2021-08-08T05:58:39Z</time>
      </trkpt>
      <trkpt lat="48.90044" lon="7.49881">
        <ele>296</ele>
        <time>2021-08-08T05:58:40Z</time>
      </trkpt>
      <trkpt lat="48.90049" lon="7.49884">
        <ele>296</ele>
        <time>2021-08-08T05:58:41Z</time>
      </trkpt>
      <trkpt lat="48.9005" lon="7.49886">
        <ele>296</ele>
        <time>2021-08-08T05:58:42Z</time>
      </trkpt>
      <trkpt lat="48.9005" lon="7.49886">
        <ele>297</ele>
        <time>2021-08-08T05:58:43Z</time>
      </trkpt>
      <trkpt lat="48.90053" lon="7.49889">
        <ele>297</ele>
        <time>2021-08-08T05:58:44Z</time>
      </trkpt>
      <trkpt lat="48.90053" lon="7.49889">
        <ele>297</ele>
        <time>2021-08-08T05:58:45Z</time>
      </trkpt>
      <trkpt lat="48.90056" lon="7.4989">
        <ele>297</ele>
        <time>2021-08-08T05:58:46Z</time>
      </trkpt>
      <trkpt lat="48.90057" lon="7.49891">
        <ele>297</ele>
        <time>2021-08-08T05:58:47Z</time>
      </trkpt>
      <trkpt lat="48.90057" lon="7.49891">
        <ele>297</ele>
        <time>2021-08-08T05:58:48Z</time>
      </trkpt>
      <trkpt lat="48.90059" lon="7.49894">
        <ele>298</ele>
        <time>2021-08-08T05:58:49Z</time>
      </trkpt>
      <trkpt lat="48.90059" lon="7.49894">
        <ele>298</ele>
        <time>2021-08-08T05:58:50Z</time>
      </trkpt>
      <trkpt lat="48.90062" lon="7.49896">
        <ele>298</ele>
        <time>2021-08-08T05:58:51Z</time>
      </trkpt>
      <trkpt lat="48.90063" lon="7.49897">
        <ele>298</ele>
        <time>2021-08-08T05:58:52Z</time>
      </trkpt>
      <trkpt lat="48.90064" lon="7.49898">
        <ele>299</ele>
        <time>2021-08-08T05:58:53Z</time>
      </trkpt>
      <trkpt lat="48.90064" lon="7.49898">
        <ele>299</ele>
        <time>2021-08-08T05:58:54Z</time>
      </trkpt>
      <trkpt lat="48.90066" lon="7.499">
        <ele>299</ele>
        <time>2021-08-08T05:58:55Z</time>
      </trkpt>
      <trkpt lat="48.90066" lon="7.499">
        <ele>299</ele>
        <time>2021-08-08T05:58:56Z</time>
      </trkpt>
      <trkpt lat="48.90069" lon="7.49902">
        <ele>299</ele>
        <time>2021-08-08T05:58:57Z</time>
      </trkpt>
      <trkpt lat="48.90069" lon="7.49902">
        <ele>299</ele>
        <time>2021-08-08T05:58:58Z</time>
      </trkpt>
      <trkpt lat="48.90071" lon="7.49904">
        <ele>299</ele>
        <time>2021-08-08T05:58:59Z</time>
      </trkpt>
      <trkpt lat="48.90071" lon="7.49904">
        <ele>299</ele>
        <time>2021-08-08T05:59:00Z</time>
      </trkpt>
      <trkpt lat="48.90075" lon="7.49909">
        <ele>299</ele>
        <time>2021-08-08T05:59:01Z</time>
      </trkpt>
      <trkpt lat="48.90076" lon="7.49911">
        <ele>299</ele>
        <time>2021-08-08T05:59:02Z</time>
      </trkpt>
      <trkpt lat="48.90077" lon="7.49913">
        <ele>300</ele>
        <time>2021-08-08T05:59:03Z</time>
      </trkpt>
      <trkpt lat="48.90077" lon="7.49913">
        <ele>300</ele>
        <time>2021-08-08T05:59:04Z</time>
      </trkpt>
      <trkpt lat="48.90081" lon="7.49919">
        <ele>300</ele>
        <time>2021-08-08T05:59:05Z</time>
      </trkpt>
      <trkpt lat="48.90083" lon="7.49921">
        <ele>300</ele>
        <time>2021-08-08T05:59:06Z</time>
      </trkpt>
      <trkpt lat="48.90083" lon="7.49921">
        <ele>301</ele>
        <time>2021-08-08T05:59:07Z</time>
      </trkpt>
      <trkpt lat="48.90086" lon="7.49925">
        <ele>301</ele>
        <time>2021-08-08T05:59:08Z</time>
      </trkpt>
      <trkpt lat="48.90086" lon="7.49925">
        <ele>301</ele>
        <time>2021-08-08T05:59:09Z</time>
      </trkpt>
      <trkpt lat="48.9009" lon="7.49929">
        <ele>301</ele>
        <time>2021-08-08T05:59:10Z</time>
      </trkpt>
      <trkpt lat="48.9009" lon="7.49929">
        <ele>301</ele>
        <time>2021-08-08T05:59:11Z</time>
      </trkpt>
      <trkpt lat="48.90092" lon="7.49932">
        <ele>301</ele>
        <time>2021-08-08T05:59:12Z</time>
      </trkpt>
      <trkpt lat="48.90094" lon="7.49934">
        <ele>302</ele>
        <time>2021-08-08T05:59:13Z</time>
      </trkpt>
      <trkpt lat="48.90094" lon="7.49934">
        <ele>302</ele>
        <time>2021-08-08T05:59:14Z</time>
      </trkpt>
      <trkpt lat="48.90096" lon="7.49937">
        <ele>302</ele>
        <time>2021-08-08T05:59:15Z</time>
      </trkpt>
      <trkpt lat="48.90096" lon="7.49937">
        <ele>302</ele>
        <time>2021-08-08T05:59:16Z</time>
      </trkpt>
      <trkpt lat="48.901" lon="7.4994">
        <ele>302</ele>
        <time>2021-08-08T05:59:17Z</time>
      </trkpt>
      <trkpt lat="48.901" lon="7.4994">
        <ele>302</ele>
        <time>2021-08-08T05:59:18Z</time>
      </trkpt>
      <trkpt lat="48.90104" lon="7.49941">
        <ele>303</ele>
        <time>2021-08-08T05:59:19Z</time>
      </trkpt>
      <trkpt lat="48.90104" lon="7.49941">
        <ele>303</ele>
        <time>2021-08-08T05:59:20Z</time>
      </trkpt>
      <trkpt lat="48.90107" lon="7.49945">
        <ele>303</ele>
        <time>2021-08-08T05:59:21Z</time>
      </trkpt>
      <trkpt lat="48.90108" lon="7.49947">
        <ele>303</ele>
        <time>2021-08-08T05:59:22Z</time>
      </trkpt>
      <trkpt lat="48.90108" lon="7.49947">
        <ele>303</ele>
        <time>2021-08-08T05:59:23Z</time>
      </trkpt>
      <trkpt lat="48.90111" lon="7.49951">
        <ele>303</ele>
        <time>2021-08-08T05:59:24Z</time>
      </trkpt>
      <trkpt lat="48.90113" lon="7.49952">
        <ele>303</ele>
        <time>2021-08-08T05:59:25Z</time>
      </trkpt>
      <trkpt lat="48.90113" lon="7.49952">
        <ele>303</ele>
        <time>2021-08-08T05:59:26Z</time>
      </trkpt>
      <trkpt lat="48.90116" lon="7.49955">
        <ele>303</ele>
        <time>2021-08-08T05:59:27Z</time>
      </trkpt>
      <trkpt lat="48.90118" lon="7.49957">
        <ele>303</ele>
        <time>2021-08-08T05:59:28Z</time>
      </trkpt>
      <trkpt lat="48.90119" lon="7.49959">
        <ele>303</ele>
        <time>2021-08-08T05:59:29Z</time>
      </trkpt>
      <trkpt lat="48.90119" lon="7.49959">
        <ele>303</ele>
        <time>2021-08-08T05:59:30Z</time>
      </trkpt>
      <trkpt lat="48.90122" lon="7.49961">
        <ele>304</ele>
        <time>2021-08-08T05:59:31Z</time>
      </trkpt>
      <trkpt lat="48.90122" lon="7.49961">
        <ele>304</ele>
        <time>2021-08-08T05:59:32Z</time>
      </trkpt>
      <trkpt lat="48.90125" lon="7.49963">
        <ele>304</ele>
        <time>2021-08-08T05:59:33Z</time>
      </trkpt>
      <trkpt lat="48.90125" lon="7.49963">
        <ele>304</ele>
        <time>2021-08-08T05:59:34Z</time>
      </trkpt>
      <trkpt lat="48.90128" lon="7.49964">
        <ele>304</ele>
        <time>2021-08-08T05:59:35Z</time>
      </trkpt>
      <trkpt lat="48.9013" lon="7.49966">
        <ele>305</ele>
        <time>2021-08-08T05:59:36Z</time>
      </trkpt>
      <trkpt lat="48.9013" lon="7.49966">
        <ele>305</ele>
        <time>2021-08-08T05:59:37Z</time>
      </trkpt>
      <trkpt lat="48.90134" lon="7.49966">
        <ele>305</ele>
        <time>2021-08-08T05:59:38Z</time>
      </trkpt>
      <trkpt lat="48.90137" lon="7.49967">
        <ele>305</ele>
        <time>2021-08-08T05:59:39Z</time>
      </trkpt>
      <trkpt lat="48.90137" lon="7.49967">
        <ele>306</ele>
        <time>2021-08-08T05:59:40Z</time>
      </trkpt>
      <trkpt lat="48.90139" lon="7.49968">
        <ele>306</ele>
        <time>2021-08-08T05:59:41Z</time>
      </trkpt>
      <trkpt lat="48.90139" lon="7.49968">
        <ele>306</ele>
        <time>2021-08-08T05:59:42Z</time>
      </trkpt>
      <trkpt lat="48.90141" lon="7.4997">
        <ele>306</ele>
        <time>2021-08-08T05:59:43Z</time>
      </trkpt>
      <trkpt lat="48.90141" lon="7.4997">
        <ele>306</ele>
        <time>2021-08-08T05:59:44Z</time>
      </trkpt>
      <trkpt lat="48.90143" lon="7.49971">
        <ele>306</ele>
        <time>2021-08-08T05:59:45Z</time>
      </trkpt>
      <trkpt lat="48.90143" lon="7.49972">
        <ele>306</ele>
        <time>2021-08-08T05:59:46Z</time>
      </trkpt>
      <trkpt lat="48.90143" lon="7.49972">
        <ele>306</ele>
        <time>2021-08-08T05:59:47Z</time>
      </trkpt>
      <trkpt lat="48.90144" lon="7.49972">
        <ele>307</ele>
        <time>2021-08-08T05:59:48Z</time>
      </trkpt>
      <trkpt lat="48.90144" lon="7.49972">
        <ele>307</ele>
        <time>2021-08-08T05:59:49Z</time>
      </trkpt>
      <trkpt lat="48.90146" lon="7.49972">
        <ele>307</ele>
        <time>2021-08-08T05:59:50Z</time>
      </trkpt>
      <trkpt lat="48.90146" lon="7.49972">
        <ele>307</ele>
        <time>2021-08-08T05:59:51Z</time>
      </trkpt>
      <trkpt lat="48.90147" lon="7.49973">
        <ele>308</ele>
        <time>2021-08-08T05:59:52Z</time>
      </trkpt>
      <trkpt lat="48.90147" lon="7.49973">
        <ele>308</ele>
        <time>2021-08-08T05:59:53Z</time>
      </trkpt>
      <trkpt lat="48.90148" lon="7.49971">
        <ele>308</ele>
        <time>2021-08-08T05:59:54Z</time>
      </trkpt>
      <trkpt lat="48.90149" lon="7.4997">
        <ele>308</ele>
        <time>2021-08-08T05:59:55Z</time>
      </trkpt>
      <trkpt lat="48.90149" lon="7.4997">
        <ele>308</ele>
        <time>2021-08-08T05:59:56Z</time>
      </trkpt>
      <trkpt lat="48.90149" lon="7.49968">
        <ele>308</ele>
        <time>2021-08-08T05:59:57Z</time>
      </trkpt>
      <trkpt lat="48.90149" lon="7.49968">
        <ele>308</ele>
        <time>2021-08-08T05:59:58Z</time>
      </trkpt>
      <trkpt lat="48.90149" lon="7.49967">
        <ele>308</ele>
        <time>2021-08-08T05:59:59Z</time>
      </trkpt>
      <trkpt lat="48.9015" lon="7.49967">
        <ele>309</ele>
        <time>2021-08-08T06:00:00Z</time>
      </trkpt>
      <trkpt lat="48.9015" lon="7.49967">
        <ele>309</ele>
        <time>2021-08-08T06:00:01Z</time>
      </trkpt>
      <trkpt lat="48.9015" lon="7.49967">
        <ele>309</ele>
        <time>2021-08-08T06:00:02Z</time>
      </trkpt>
      <trkpt lat="48.9015" lon="7.49967">
        <ele>309</ele>
        <time>2021-08-08T06:00:03Z</time>
      </trkpt>
      <trkpt lat="48.90149" lon="7.49963">
        <ele>309</ele>
        <time>2021-08-08T06:00:07Z</time>
      </trkpt>
      <trkpt lat="48.90149" lon="7.49963">
        <ele>309</ele>
        <time>2021-08-08T06:00:08Z</time>
      </trkpt>
      <trkpt lat="48.9015" lon="7.49962">
        <ele>309</ele>
        <time>2021-08-08T06:00:09Z</time>
      </trkpt>
      <trkpt lat="48.90149" lon="7.49961">
        <ele>309</ele>
        <time>2021-08-08T06:00:10Z</time>
      </trkpt>
      <trkpt lat="48.90148" lon="7.4996">
        <ele>310</ele>
        <time>2021-08-08T06:00:11Z</time>
      </trkpt>
      <trkpt lat="48.90148" lon="7.4996">
        <ele>310</ele>
        <time>2021-08-08T06:00:12Z</time>
      </trkpt>
      <trkpt lat="48.90146" lon="7.49957">
        <ele>310</ele>
        <time>2021-08-08T06:00:13Z</time>
      </trkpt>
      <trkpt lat="48.90146" lon="7.49957">
        <ele>310</ele>
        <time>2021-08-08T06:00:14Z</time>
      </trkpt>
      <trkpt lat="48.90143" lon="7.49953">
        <ele>310</ele>
        <time>2021-08-08T06:00:15Z</time>
      </trkpt>
      <trkpt lat="48.90143" lon="7.49953">
        <ele>310</ele>
        <time>2021-08-08T06:00:16Z</time>
      </trkpt>
      <trkpt lat="48.9014" lon="7.49951">
        <ele>310</ele>
        <time>2021-08-08T06:00:17Z</time>
      </trkpt>
      <trkpt lat="48.9014" lon="7.49951">
        <ele>310</ele>
        <time>2021-08-08T06:00:18Z</time>
      </trkpt>
      <trkpt lat="48.90138" lon="7.49948">
        <ele>310</ele>
        <time>2021-08-08T06:00:19Z</time>
      </trkpt>
      <trkpt lat="48.90138" lon="7.49948">
        <ele>310</ele>
        <time>2021-08-08T06:00:20Z</time>
      </trkpt>
      <trkpt lat="48.90136" lon="7.49946">
        <ele>310</ele>
        <time>2021-08-08T06:00:21Z</time>
      </trkpt>
      <trkpt lat="48.90136" lon="7.49946">
        <ele>310</ele>
        <time>2021-08-08T06:00:22Z</time>
      </trkpt>
      <trkpt lat="48.90134" lon="7.49944">
        <ele>310</ele>
        <time>2021-08-08T06:00:23Z</time>
      </trkpt>
      <trkpt lat="48.90134" lon="7.49944">
        <ele>310</ele>
        <time>2021-08-08T06:00:24Z</time>
      </trkpt>
      <trkpt lat="48.90132" lon="7.4994">
        <ele>310</ele>
        <time>2021-08-08T06:00:25Z</time>
      </trkpt>
      <trkpt lat="48.90132" lon="7.4994">
        <ele>310</ele>
        <time>2021-08-08T06:00:26Z</time>
      </trkpt>
      <trkpt lat="48.9013" lon="7.49937">
        <ele>310</ele>
        <time>2021-08-08T06:00:27Z</time>
      </trkpt>
      <trkpt lat="48.9013" lon="7.49937">
        <ele>310</ele>
        <time>2021-08-08T06:00:28Z</time>
      </trkpt>
      <trkpt lat="48.90128" lon="7.49933">
        <ele>310</ele>
        <time>2021-08-08T06:00:29Z</time>
      </trkpt>
      <trkpt lat="48.90128" lon="7.49933">
        <ele>312</ele>
        <time>2021-08-08T06:00:30Z</time>
      </trkpt>
      <trkpt lat="48.90127" lon="7.49929">
        <ele>312</ele>
        <time>2021-08-08T06:00:31Z</time>
      </trkpt>
      <trkpt lat="48.90127" lon="7.49929">
        <ele>312</ele>
        <time>2021-08-08T06:00:32Z</time>
      </trkpt>
      <trkpt lat="48.90125" lon="7.49924">
        <ele>312</ele>
        <time>2021-08-08T06:00:33Z</time>
      </trkpt>
      <trkpt lat="48.90125" lon="7.49924">
        <ele>312</ele>
        <time>2021-08-08T06:00:34Z</time>
      </trkpt>
      <trkpt lat="48.90122" lon="7.49919">
        <ele>312</ele>
        <time>2021-08-08T06:00:35Z</time>
      </trkpt>
      <trkpt lat="48.90122" lon="7.49919">
        <ele>312</ele>
        <time>2021-08-08T06:00:36Z</time>
      </trkpt>
      <trkpt lat="48.9012" lon="7.49913">
        <ele>312</ele>
        <time>2021-08-08T06:00:37Z</time>
      </trkpt>
      <trkpt lat="48.9012" lon="7.49913">
        <ele>312</ele>
        <time>2021-08-08T06:00:38Z</time>
      </trkpt>
      <trkpt lat="48.90118" lon="7.49909">
        <ele>312</ele>
        <time>2021-08-08T06:00:39Z</time>
      </trkpt>
      <trkpt lat="48.90118" lon="7.49909">
        <ele>313</ele>
        <time>2021-08-08T06:00:40Z</time>
      </trkpt>
      <trkpt lat="48.90117" lon="7.49901">
        <ele>313</ele>
        <time>2021-08-08T06:00:41Z</time>
      </trkpt>
      <trkpt lat="48.90117" lon="7.49901">
        <ele>313</ele>
        <time>2021-08-08T06:00:42Z</time>
      </trkpt>
      <trkpt lat="48.90114" lon="7.49895">
        <ele>313</ele>
        <time>2021-08-08T06:00:43Z</time>
      </trkpt>
      <trkpt lat="48.90114" lon="7.49895">
        <ele>313</ele>
        <time>2021-08-08T06:00:44Z</time>
      </trkpt>
      <trkpt lat="48.90112" lon="7.49891">
        <ele>313</ele>
        <time>2021-08-08T06:00:45Z</time>
      </trkpt>
      <trkpt lat="48.90112" lon="7.49891">
        <ele>314</ele>
        <time>2021-08-08T06:00:46Z</time>
      </trkpt>
      <trkpt lat="48.90111" lon="7.49887">
        <ele>314</ele>
        <time>2021-08-08T06:00:47Z</time>
      </trkpt>
      <trkpt lat="48.9011" lon="7.49885">
        <ele>314</ele>
        <time>2021-08-08T06:00:48Z</time>
      </trkpt>
      <trkpt lat="48.9011" lon="7.49885">
        <ele>314</ele>
        <time>2021-08-08T06:00:49Z</time>
      </trkpt>
      <trkpt lat="48.90108" lon="7.49882">
        <ele>315</ele>
        <time>2021-08-08T06:00:50Z</time>
      </trkpt>
      <trkpt lat="48.90108" lon="7.49882">
        <ele>315</ele>
        <time>2021-08-08T06:00:51Z</time>
      </trkpt>
      <trkpt lat="48.90105" lon="7.49879">
        <ele>315</ele>
        <time>2021-08-08T06:00:52Z</time>
      </trkpt>
      <trkpt lat="48.90104" lon="7.49876">
        <ele>315</ele>
        <time>2021-08-08T06:00:53Z</time>
      </trkpt>
      <trkpt lat="48.90104" lon="7.49876">
        <ele>315</ele>
        <time>2021-08-08T06:00:54Z</time>
      </trkpt>
      <trkpt lat="48.90104" lon="7.49871">
        <ele>315</ele>
        <time>2021-08-08T06:00:55Z</time>
      </trkpt>
      <trkpt lat="48.90104" lon="7.49871">
        <ele>316</ele>
        <time>2021-08-08T06:00:56Z</time>
      </trkpt>
      <trkpt lat="48.90102" lon="7.49868">
        <ele>316</ele>
        <time>2021-08-08T06:00:57Z</time>
      </trkpt>
      <trkpt lat="48.90102" lon="7.49868">
        <ele>316</ele>
        <time>2021-08-08T06:00:58Z</time>
      </trkpt>
      <trkpt lat="48.901" lon="7.49862">
        <ele>316</ele>
        <time>2021-08-08T06:00:59Z</time>
      </trkpt>
      <trkpt lat="48.901" lon="7.49862">
        <ele>316</ele>
        <time>2021-08-08T06:01:00Z</time>
      </trkpt>
      <trkpt lat="48.90099" lon="7.49857">
        <ele>316</ele>
        <time>2021-08-08T06:01:01Z</time>
      </trkpt>
      <trkpt lat="48.90099" lon="7.49857">
        <ele>317</ele>
        <time>2021-08-08T06:01:02Z</time>
      </trkpt>
      <trkpt lat="48.90097" lon="7.49851">
        <ele>317</ele>
        <time>2021-08-08T06:01:03Z</time>
      </trkpt>
      <trkpt lat="48.90097" lon="7.49851">
        <ele>317</ele>
        <time>2021-08-08T06:01:04Z</time>
      </trkpt>
      <trkpt lat="48.90094" lon="7.49845">
        <ele>317</ele>
        <time>2021-08-08T06:01:05Z</time>
      </trkpt>
      <trkpt lat="48.90092" lon="7.49843">
        <ele>317</ele>
        <time>2021-08-08T06:01:06Z</time>
      </trkpt>
      <trkpt lat="48.90092" lon="7.49843">
        <ele>317</ele>
        <time>2021-08-08T06:01:07Z</time>
      </trkpt>
      <trkpt lat="48.90089" lon="7.49838">
        <ele>317</ele>
        <time>2021-08-08T06:01:08Z</time>
      </trkpt>
      <trkpt lat="48.90089" lon="7.49835">
        <ele>317</ele>
        <time>2021-08-08T06:01:09Z</time>
      </trkpt>
      <trkpt lat="48.90089" lon="7.49835">
        <ele>317</ele>
        <time>2021-08-08T06:01:10Z</time>
      </trkpt>
      <trkpt lat="48.90087" lon="7.49826">
        <ele>318</ele>
        <time>2021-08-08T06:01:11Z</time>
      </trkpt>
      <trkpt lat="48.90086" lon="7.49822">
        <ele>318</ele>
        <time>2021-08-08T06:01:12Z</time>
      </trkpt>
      <trkpt lat="48.90086" lon="7.49822">
        <ele>318</ele>
        <time>2021-08-08T06:01:13Z</time>
      </trkpt>
      <trkpt lat="48.90083" lon="7.49816">
        <ele>318</ele>
        <time>2021-08-08T06:01:14Z</time>
      </trkpt>
      <trkpt lat="48.90083" lon="7.49816">
        <ele>318</ele>
        <time>2021-08-08T06:01:15Z</time>
      </trkpt>
      <trkpt lat="48.90082" lon="7.49813">
        <ele>318</ele>
        <time>2021-08-08T06:01:16Z</time>
      </trkpt>
      <trkpt lat="48.90082" lon="7.49813">
        <ele>318</ele>
        <time>2021-08-08T06:01:17Z</time>
      </trkpt>
      <trkpt lat="48.90082" lon="7.49808">
        <ele>318</ele>
        <time>2021-08-08T06:01:18Z</time>
      </trkpt>
      <trkpt lat="48.90082" lon="7.49808">
        <ele>319</ele>
        <time>2021-08-08T06:01:19Z</time>
      </trkpt>
      <trkpt lat="48.90082" lon="7.49805">
        <ele>319</ele>
        <time>2021-08-08T06:01:20Z</time>
      </trkpt>
      <trkpt lat="48.90082" lon="7.49805">
        <ele>320</ele>
        <time>2021-08-08T06:01:21Z</time>
      </trkpt>
      <trkpt lat="48.90081" lon="7.498">
        <ele>320</ele>
        <time>2021-08-08T06:01:22Z</time>
      </trkpt>
      <trkpt lat="48.90081" lon="7.498">
        <ele>321</ele>
        <time>2021-08-08T06:01:23Z</time>
      </trkpt>
      <trkpt lat="48.90081" lon="7.49796">
        <ele>321</ele>
        <time>2021-08-08T06:01:24Z</time>
      </trkpt>
      <trkpt lat="48.90081" lon="7.49796">
        <ele>321</ele>
        <time>2021-08-08T06:01:25Z</time>
      </trkpt>
      <trkpt lat="48.90079" lon="7.49793">
        <ele>321</ele>
        <time>2021-08-08T06:01:26Z</time>
      </trkpt>
      <trkpt lat="48.90079" lon="7.49791">
        <ele>322</ele>
        <time>2021-08-08T06:01:27Z</time>
      </trkpt>
      <trkpt lat="48.90079" lon="7.49791">
        <ele>322</ele>
        <time>2021-08-08T06:01:28Z</time>
      </trkpt>
      <trkpt lat="48.90077" lon="7.49786">
        <ele>322</ele>
        <time>2021-08-08T06:01:29Z</time>
      </trkpt>
      <trkpt lat="48.90077" lon="7.49786">
        <ele>322</ele>
        <time>2021-08-08T06:01:30Z</time>
      </trkpt>
      <trkpt lat="48.90075" lon="7.49782">
        <ele>322</ele>
        <time>2021-08-08T06:01:31Z</time>
      </trkpt>
      <trkpt lat="48.90075" lon="7.49782">
        <ele>322</ele>
        <time>2021-08-08T06:01:32Z</time>
      </trkpt>
      <trkpt lat="48.90074" lon="7.49779">
        <ele>322</ele>
        <time>2021-08-08T06:01:33Z</time>
      </trkpt>
      <trkpt lat="48.90074" lon="7.49779">
        <ele>322</ele>
        <time>2021-08-08T06:01:34Z</time>
      </trkpt>
      <trkpt lat="48.90074" lon="7.49774">
        <ele>322</ele>
        <time>2021-08-08T06:01:35Z</time>
      </trkpt>
      <trkpt lat="48.90073" lon="7.49773">
        <ele>322</ele>
        <time>2021-08-08T06:01:36Z</time>
      </trkpt>
      <trkpt lat="48.90073" lon="7.49773">
        <ele>322</ele>
        <time>2021-08-08T06:01:37Z</time>
      </trkpt>
      <trkpt lat="48.90072" lon="7.49769">
        <ele>323</ele>
        <time>2021-08-08T06:01:38Z</time>
      </trkpt>
      <trkpt lat="48.90071" lon="7.49766">
        <ele>323</ele>
        <time>2021-08-08T06:01:39Z</time>
      </trkpt>
      <trkpt lat="48.90071" lon="7.49766">
        <ele>323</ele>
        <time>2021-08-08T06:01:40Z</time>
      </trkpt>
      <trkpt lat="48.9007" lon="7.49762">
        <ele>323</ele>
        <time>2021-08-08T06:01:41Z</time>
      </trkpt>
      <trkpt lat="48.9007" lon="7.49762">
        <ele>323</ele>
        <time>2021-08-08T06:01:42Z</time>
      </trkpt>
      <trkpt lat="48.90069" lon="7.49751">
        <ele>323</ele>
        <time>2021-08-08T06:01:43Z</time>
      </trkpt>
      <trkpt lat="48.90069" lon="7.49751">
        <ele>324</ele>
        <time>2021-08-08T06:01:44Z</time>
      </trkpt>
      <trkpt lat="48.90068" lon="7.49744">
        <ele>324</ele>
        <time>2021-08-08T06:01:45Z</time>
      </trkpt>
      <trkpt lat="48.90068" lon="7.49744">
        <ele>324</ele>
        <time>2021-08-08T06:01:46Z</time>
      </trkpt>
      <trkpt lat="48.90068" lon="7.49739">
        <ele>324</ele>
        <time>2021-08-08T06:01:47Z</time>
      </trkpt>
      <trkpt lat="48.90068" lon="7.49739">
        <ele>324</ele>
        <time>2021-08-08T06:01:48Z</time>
      </trkpt>
      <trkpt lat="48.90066" lon="7.49735">
        <ele>324</ele>
        <time>2021-08-08T06:01:49Z</time>
      </trkpt>
      <trkpt lat="48.90066" lon="7.49735">
        <ele>324</ele>
        <time>2021-08-08T06:01:50Z</time>
      </trkpt>
      <trkpt lat="48.90065" lon="7.4973">
        <ele>324</ele>
        <time>2021-08-08T06:01:51Z</time>
      </trkpt>
      <trkpt lat="48.90065" lon="7.4973">
        <ele>325</ele>
        <time>2021-08-08T06:01:52Z</time>
      </trkpt>
      <trkpt lat="48.90063" lon="7.49726">
        <ele>325</ele>
        <time>2021-08-08T06:01:53Z</time>
      </trkpt>
      <trkpt lat="48.90063" lon="7.49723">
        <ele>325</ele>
        <time>2021-08-08T06:01:54Z</time>
      </trkpt>
      <trkpt lat="48.90063" lon="7.49723">
        <ele>325</ele>
        <time>2021-08-08T06:01:55Z</time>
      </trkpt>
      <trkpt lat="48.90062" lon="7.49718">
        <ele>325</ele>
        <time>2021-08-08T06:01:56Z</time>
      </trkpt>
      <trkpt lat="48.90062" lon="7.49716">
        <ele>325</ele>
        <time>2021-08-08T06:01:57Z</time>
      </trkpt>
      <trkpt lat="48.90062" lon="7.49716">
        <ele>326</ele>
        <time>2021-08-08T06:01:58Z</time>
      </trkpt>
      <trkpt lat="48.9006" lon="7.49712">
        <ele>326</ele>
        <time>2021-08-08T06:01:59Z</time>
      </trkpt>
      <trkpt lat="48.9006" lon="7.49709">
        <ele>326</ele>
        <time>2021-08-08T06:02:00Z</time>
      </trkpt>
      <trkpt lat="48.90059" lon="7.49707">
        <ele>326</ele>
        <time>2021-08-08T06:02:01Z</time>
      </trkpt>
      <trkpt lat="48.90059" lon="7.49707">
        <ele>326</ele>
        <time>2021-08-08T06:02:02Z</time>
      </trkpt>
      <trkpt lat="48.90058" lon="7.49702">
        <ele>326</ele>
        <time>2021-08-08T06:02:03Z</time>
      </trkpt>
      <trkpt lat="48.90058" lon="7.49702">
        <ele>327</ele>
        <time>2021-08-08T06:02:04Z</time>
      </trkpt>
      <trkpt lat="48.90058" lon="7.49696">
        <ele>327</ele>
        <time>2021-08-08T06:02:05Z</time>
      </trkpt>
      <trkpt lat="48.90058" lon="7.49696">
        <ele>327</ele>
        <time>2021-08-08T06:02:06Z</time>
      </trkpt>
      <trkpt lat="48.90056" lon="7.49692">
        <ele>327</ele>
        <time>2021-08-08T06:02:07Z</time>
      </trkpt>
      <trkpt lat="48.90056" lon="7.49692">
        <ele>327</ele>
        <time>2021-08-08T06:02:08Z</time>
      </trkpt>
      <trkpt lat="48.90054" lon="7.49687">
        <ele>327</ele>
        <time>2021-08-08T06:02:09Z</time>
      </trkpt>
      <trkpt lat="48.90054" lon="7.49687">
        <ele>327</ele>
        <time>2021-08-08T06:02:10Z</time>
      </trkpt>
      <trkpt lat="48.90054" lon="7.49683">
        <ele>328</ele>
        <time>2021-08-08T06:02:11Z</time>
      </trkpt>
      <trkpt lat="48.90054" lon="7.49683">
        <ele>328</ele>
        <time>2021-08-08T06:02:12Z</time>
      </trkpt>
      <trkpt lat="48.90052" lon="7.49674">
        <ele>328</ele>
        <time>2021-08-08T06:02:13Z</time>
      </trkpt>
      <trkpt lat="48.90052" lon="7.4967">
        <ele>328</ele>
        <time>2021-08-08T06:02:14Z</time>
      </trkpt>
      <trkpt lat="48.90052" lon="7.4967">
        <ele>329</ele>
        <time>2021-08-08T06:02:15Z</time>
      </trkpt>
      <trkpt lat="48.9005" lon="7.49666">
        <ele>329</ele>
        <time>2021-08-08T06:02:16Z</time>
      </trkpt>
      <trkpt lat="48.9005" lon="7.49666">
        <ele>329</ele>
        <time>2021-08-08T06:02:17Z</time>
      </trkpt>
      <trkpt lat="48.90049" lon="7.4966">
        <ele>329</ele>
        <time>2021-08-08T06:02:18Z</time>
      </trkpt>
      <trkpt lat="48.90049" lon="7.49658">
        <ele>329</ele>
        <time>2021-08-08T06:02:19Z</time>
      </trkpt>
      <trkpt lat="48.90049" lon="7.49658">
        <ele>329</ele>
        <time>2021-08-08T06:02:20Z</time>
      </trkpt>
      <trkpt lat="48.90047" lon="7.49653">
        <ele>330</ele>
        <time>2021-08-08T06:02:21Z</time>
      </trkpt>
      <trkpt lat="48.90047" lon="7.49653">
        <ele>330</ele>
        <time>2021-08-08T06:02:22Z</time>
      </trkpt>
      <trkpt lat="48.90047" lon="7.49648">
        <ele>330</ele>
        <time>2021-08-08T06:02:23Z</time>
      </trkpt>
      <trkpt lat="48.90047" lon="7.49648">
        <ele>330</ele>
        <time>2021-08-08T06:02:24Z</time>
      </trkpt>
      <trkpt lat="48.90046" lon="7.49644">
        <ele>330</ele>
        <time>2021-08-08T06:02:25Z</time>
      </trkpt>
      <trkpt lat="48.90045" lon="7.49641">
        <ele>331</ele>
        <time>2021-08-08T06:02:26Z</time>
      </trkpt>
      <trkpt lat="48.90045" lon="7.49641">
        <ele>331</ele>
        <time>2021-08-08T06:02:27Z</time>
      </trkpt>
      <trkpt lat="48.90043" lon="7.49636">
        <ele>331</ele>
        <time>2021-08-08T06:02:28Z</time>
      </trkpt>
      <trkpt lat="48.90043" lon="7.49636">
        <ele>331</ele>
        <time>2021-08-08T06:02:29Z</time>
      </trkpt>
      <trkpt lat="48.90042" lon="7.49631">
        <ele>331</ele>
        <time>2021-08-08T06:02:30Z</time>
      </trkpt>
      <trkpt lat="48.90042" lon="7.49629">
        <ele>331</ele>
        <time>2021-08-08T06:02:31Z</time>
      </trkpt>
      <trkpt lat="48.90042" lon="7.49629">
        <ele>331</ele>
        <time>2021-08-08T06:02:32Z</time>
      </trkpt>
      <trkpt lat="48.9004" lon="7.49625">
        <ele>331</ele>
        <time>2021-08-08T06:02:33Z</time>
      </trkpt>
      <trkpt lat="48.9004" lon="7.49622">
        <ele>331</ele>
        <time>2021-08-08T06:02:34Z</time>
      </trkpt>
      <trkpt lat="48.9004" lon="7.49622">
        <ele>331</ele>
        <time>2021-08-08T06:02:35Z</time>
      </trkpt>
      <trkpt lat="48.90039" lon="7.49617">
        <ele>331</ele>
        <time>2021-08-08T06:02:36Z</time>
      </trkpt>
      <trkpt lat="48.90039" lon="7.49614">
        <ele>331</ele>
        <time>2021-08-08T06:02:37Z</time>
      </trkpt>
      <trkpt lat="48.90039" lon="7.49614">
        <ele>331</ele>
        <time>2021-08-08T06:02:38Z</time>
      </trkpt>
      <trkpt lat="48.90037" lon="7.49608">
        <ele>332</ele>
        <time>2021-08-08T06:02:39Z</time>
      </trkpt>
      <trkpt lat="48.90037" lon="7.49608">
        <ele>332</ele>
        <time>2021-08-08T06:02:40Z</time>
      </trkpt>
      <trkpt lat="48.90037" lon="7.49603">
        <ele>332</ele>
        <time>2021-08-08T06:02:41Z</time>
      </trkpt>
      <trkpt lat="48.90037" lon="7.49603">
        <ele>332</ele>
        <time>2021-08-08T06:02:42Z</time>
      </trkpt>
      <trkpt lat="48.90037" lon="7.49596">
        <ele>332</ele>
        <time>2021-08-08T06:02:43Z</time>
      </trkpt>
      <trkpt lat="48.90036" lon="7.4959">
        <ele>332</ele>
        <time>2021-08-08T06:02:44Z</time>
      </trkpt>
      <trkpt lat="48.90037" lon="7.49585">
        <ele>333</ele>
        <time>2021-08-08T06:02:45Z</time>
      </trkpt>
      <trkpt lat="48.90037" lon="7.49585">
        <ele>333</ele>
        <time>2021-08-08T06:02:46Z</time>
      </trkpt>
      <trkpt lat="48.90036" lon="7.49577">
        <ele>333</ele>
        <time>2021-08-08T06:02:47Z</time>
      </trkpt>
      <trkpt lat="48.90036" lon="7.49574">
        <ele>333</ele>
        <time>2021-08-08T06:02:48Z</time>
      </trkpt>
      <trkpt lat="48.90036" lon="7.49574">
        <ele>334</ele>
        <time>2021-08-08T06:02:49Z</time>
      </trkpt>
      <trkpt lat="48.90035" lon="7.49567">
        <ele>334</ele>
        <time>2021-08-08T06:02:50Z</time>
      </trkpt>
      <trkpt lat="48.90035" lon="7.49564">
        <ele>334</ele>
        <time>2021-08-08T06:02:51Z</time>
      </trkpt>
      <trkpt lat="48.90035" lon="7.49564">
        <ele>334</ele>
        <time>2021-08-08T06:02:52Z</time>
      </trkpt>
      <trkpt lat="48.90034" lon="7.49558">
        <ele>334</ele>
        <time>2021-08-08T06:02:53Z</time>
      </trkpt>
      <trkpt lat="48.90034" lon="7.49556">
        <ele>334</ele>
        <time>2021-08-08T06:02:54Z</time>
      </trkpt>
      <trkpt lat="48.90034" lon="7.49553">
        <ele>334</ele>
        <time>2021-08-08T06:02:55Z</time>
      </trkpt>
      <trkpt lat="48.90034" lon="7.49553">
        <ele>334</ele>
        <time>2021-08-08T06:02:56Z</time>
      </trkpt>
      <trkpt lat="48.90033" lon="7.49548">
        <ele>335</ele>
        <time>2021-08-08T06:02:57Z</time>
      </trkpt>
      <trkpt lat="48.90033" lon="7.49548">
        <ele>335</ele>
        <time>2021-08-08T06:02:58Z</time>
      </trkpt>
      <trkpt lat="48.90032" lon="7.49541">
        <ele>335</ele>
        <time>2021-08-08T06:02:59Z</time>
      </trkpt>
      <trkpt lat="48.90032" lon="7.49541">
        <ele>335</ele>
        <time>2021-08-08T06:03:00Z</time>
      </trkpt>
      <trkpt lat="48.9003" lon="7.49533">
        <ele>336</ele>
        <time>2021-08-08T06:03:01Z</time>
      </trkpt>
      <trkpt lat="48.9003" lon="7.49533">
        <ele>336</ele>
        <time>2021-08-08T06:03:02Z</time>
      </trkpt>
      <trkpt lat="48.9003" lon="7.49527">
        <ele>336</ele>
        <time>2021-08-08T06:03:03Z</time>
      </trkpt>
      <trkpt lat="48.9003" lon="7.49527">
        <ele>336</ele>
        <time>2021-08-08T06:03:04Z</time>
      </trkpt>
      <trkpt lat="48.9003" lon="7.49521">
        <ele>337</ele>
        <time>2021-08-08T06:03:05Z</time>
      </trkpt>
      <trkpt lat="48.90029" lon="7.49518">
        <ele>337</ele>
        <time>2021-08-08T06:03:06Z</time>
      </trkpt>
      <trkpt lat="48.90029" lon="7.49516">
        <ele>337</ele>
        <time>2021-08-08T06:03:07Z</time>
      </trkpt>
      <trkpt lat="48.90029" lon="7.49516">
        <ele>337</ele>
        <time>2021-08-08T06:03:08Z</time>
      </trkpt>
      <trkpt lat="48.90027" lon="7.4951">
        <ele>337</ele>
        <time>2021-08-08T06:03:09Z</time>
      </trkpt>
      <trkpt lat="48.90027" lon="7.4951">
        <ele>337</ele>
        <time>2021-08-08T06:03:10Z</time>
      </trkpt>
      <trkpt lat="48.90026" lon="7.49504">
        <ele>337</ele>
        <time>2021-08-08T06:03:11Z</time>
      </trkpt>
      <trkpt lat="48.90026" lon="7.49504">
        <ele>337</ele>
        <time>2021-08-08T06:03:12Z</time>
      </trkpt>
      <trkpt lat="48.90025" lon="7.49498">
        <ele>337</ele>
        <time>2021-08-08T06:03:13Z</time>
      </trkpt>
      <trkpt lat="48.90025" lon="7.49498">
        <ele>337</ele>
        <time>2021-08-08T06:03:14Z</time>
      </trkpt>
      <trkpt lat="48.90026" lon="7.4949">
        <ele>338</ele>
        <time>2021-08-08T06:03:15Z</time>
      </trkpt>
      <trkpt lat="48.90026" lon="7.4949">
        <ele>338</ele>
        <time>2021-08-08T06:03:16Z</time>
      </trkpt>
      <trkpt lat="48.90025" lon="7.49484">
        <ele>338</ele>
        <time>2021-08-08T06:03:17Z</time>
      </trkpt>
      <trkpt lat="48.90026" lon="7.49482">
        <ele>338</ele>
        <time>2021-08-08T06:03:18Z</time>
      </trkpt>
      <trkpt lat="48.90026" lon="7.49482">
        <ele>339</ele>
        <time>2021-08-08T06:03:19Z</time>
      </trkpt>
      <trkpt lat="48.90025" lon="7.49473">
        <ele>339</ele>
        <time>2021-08-08T06:03:20Z</time>
      </trkpt>
      <trkpt lat="48.90025" lon="7.49473">
        <ele>339</ele>
        <time>2021-08-08T06:03:21Z</time>
      </trkpt>
      <trkpt lat="48.90023" lon="7.49467">
        <ele>339</ele>
        <time>2021-08-08T06:03:22Z</time>
      </trkpt>
      <trkpt lat="48.90023" lon="7.49467">
        <ele>339</ele>
        <time>2021-08-08T06:03:23Z</time>
      </trkpt>
      <trkpt lat="48.90022" lon="7.49462">
        <ele>339</ele>
        <time>2021-08-08T06:03:24Z</time>
      </trkpt>
      <trkpt lat="48.90022" lon="7.49457">
        <ele>339</ele>
        <time>2021-08-08T06:03:25Z</time>
      </trkpt>
      <trkpt lat="48.90022" lon="7.49457">
        <ele>339</ele>
        <time>2021-08-08T06:03:26Z</time>
      </trkpt>
      <trkpt lat="48.90022" lon="7.49449">
        <ele>340</ele>
        <time>2021-08-08T06:03:27Z</time>
      </trkpt>
      <trkpt lat="48.90022" lon="7.49449">
        <ele>340</ele>
        <time>2021-08-08T06:03:28Z</time>
      </trkpt>
      <trkpt lat="48.90023" lon="7.49444">
        <ele>340</ele>
        <time>2021-08-08T06:03:29Z</time>
      </trkpt>
      <trkpt lat="48.90023" lon="7.49444">
        <ele>340</ele>
        <time>2021-08-08T06:03:30Z</time>
      </trkpt>
      <trkpt lat="48.90023" lon="7.4944">
        <ele>341</ele>
        <time>2021-08-08T06:03:31Z</time>
      </trkpt>
      <trkpt lat="48.90023" lon="7.4944">
        <ele>341</ele>
        <time>2021-08-08T06:03:32Z</time>
      </trkpt>
      <trkpt lat="48.90024" lon="7.49433">
        <ele>341</ele>
        <time>2021-08-08T06:03:33Z</time>
      </trkpt>
      <trkpt lat="48.90024" lon="7.49433">
        <ele>341</ele>
        <time>2021-08-08T06:03:34Z</time>
      </trkpt>
      <trkpt lat="48.90023" lon="7.49428">
        <ele>341</ele>
        <time>2021-08-08T06:03:35Z</time>
      </trkpt>
      <trkpt lat="48.90023" lon="7.49428">
        <ele>341</ele>
        <time>2021-08-08T06:03:36Z</time>
      </trkpt>
      <trkpt lat="48.90022" lon="7.4942">
        <ele>342</ele>
        <time>2021-08-08T06:03:37Z</time>
      </trkpt>
      <trkpt lat="48.90022" lon="7.4942">
        <ele>342</ele>
        <time>2021-08-08T06:03:38Z</time>
      </trkpt>
      <trkpt lat="48.90021" lon="7.49412">
        <ele>342</ele>
        <time>2021-08-08T06:03:39Z</time>
      </trkpt>
      <trkpt lat="48.90021" lon="7.49412">
        <ele>342</ele>
        <time>2021-08-08T06:03:40Z</time>
      </trkpt>
      <trkpt lat="48.90022" lon="7.49406">
        <ele>342</ele>
        <time>2021-08-08T06:03:41Z</time>
      </trkpt>
      <trkpt lat="48.90022" lon="7.49406">
        <ele>342</ele>
        <time>2021-08-08T06:03:42Z</time>
      </trkpt>
      <trkpt lat="48.90021" lon="7.494">
        <ele>342</ele>
        <time>2021-08-08T06:03:43Z</time>
      </trkpt>
      <trkpt lat="48.90021" lon="7.494">
        <ele>343</ele>
        <time>2021-08-08T06:03:44Z</time>
      </trkpt>
      <trkpt lat="48.9002" lon="7.49394">
        <ele>343</ele>
        <time>2021-08-08T06:03:45Z</time>
      </trkpt>
      <trkpt lat="48.9002" lon="7.49394">
        <ele>343</ele>
        <time>2021-08-08T06:03:46Z</time>
      </trkpt>
      <trkpt lat="48.9002" lon="7.49381">
        <ele>343</ele>
        <time>2021-08-08T06:03:47Z</time>
      </trkpt>
      <trkpt lat="48.9002" lon="7.49381">
        <ele>343</ele>
        <time>2021-08-08T06:03:48Z</time>
      </trkpt>
      <trkpt lat="48.9002" lon="7.49376">
        <ele>343</ele>
        <time>2021-08-08T06:03:49Z</time>
      </trkpt>
      <trkpt lat="48.9002" lon="7.49376">
        <ele>343</ele>
        <time>2021-08-08T06:03:50Z</time>
      </trkpt>
      <trkpt lat="48.90019" lon="7.4937">
        <ele>343</ele>
        <time>2021-08-08T06:03:51Z</time>
      </trkpt>
      <trkpt lat="48.90019" lon="7.49368">
        <ele>344</ele>
        <time>2021-08-08T06:03:52Z</time>
      </trkpt>
      <trkpt lat="48.90019" lon="7.49368">
        <ele>344</ele>
        <time>2021-08-08T06:03:53Z</time>
      </trkpt>
      <trkpt lat="48.90019" lon="7.49362">
        <ele>344</ele>
        <time>2021-08-08T06:03:54Z</time>
      </trkpt>
      <trkpt lat="48.90018" lon="7.49359">
        <ele>344</ele>
        <time>2021-08-08T06:03:55Z</time>
      </trkpt>
      <trkpt lat="48.90018" lon="7.49359">
        <ele>344</ele>
        <time>2021-08-08T06:03:56Z</time>
      </trkpt>
      <trkpt lat="48.90018" lon="7.49353">
        <ele>344</ele>
        <time>2021-08-08T06:03:57Z</time>
      </trkpt>
      <trkpt lat="48.90018" lon="7.49353">
        <ele>345</ele>
        <time>2021-08-08T06:03:58Z</time>
      </trkpt>
      <trkpt lat="48.90019" lon="7.49348">
        <ele>345</ele>
        <time>2021-08-08T06:03:59Z</time>
      </trkpt>
      <trkpt lat="48.90019" lon="7.49348">
        <ele>345</ele>
        <time>2021-08-08T06:04:00Z</time>
      </trkpt>
      <trkpt lat="48.90018" lon="7.49341">
        <ele>345</ele>
        <time>2021-08-08T06:04:01Z</time>
      </trkpt>
      <trkpt lat="48.90018" lon="7.49341">
        <ele>345</ele>
        <time>2021-08-08T06:04:02Z</time>
      </trkpt>
      <trkpt lat="48.90017" lon="7.49335">
        <ele>345</ele>
        <time>2021-08-08T06:04:03Z</time>
      </trkpt>
      <trkpt lat="48.90017" lon="7.49335">
        <ele>345</ele>
        <time>2021-08-08T06:04:04Z</time>
      </trkpt>
      <trkpt lat="48.90016" lon="7.49331">
        <ele>345</ele>
        <time>2021-08-08T06:04:05Z</time>
      </trkpt>
      <trkpt lat="48.90016" lon="7.49331">
        <ele>346</ele>
        <time>2021-08-08T06:04:06Z</time>
      </trkpt>
      <trkpt lat="48.90015" lon="7.49326">
        <ele>346</ele>
        <time>2021-08-08T06:04:07Z</time>
      </trkpt>
      <trkpt lat="48.90015" lon="7.49323">
        <ele>346</ele>
        <time>2021-08-08T06:04:08Z</time>
      </trkpt>
      <trkpt lat="48.90015" lon="7.49323">
        <ele>346</ele>
        <time>2021-08-08T06:04:09Z</time>
      </trkpt>
      <trkpt lat="48.90015" lon="7.49316">
        <ele>347</ele>
        <time>2021-08-08T06:04:10Z</time>
      </trkpt>
      <trkpt lat="48.90016" lon="7.49313">
        <ele>347</ele>
        <time>2021-08-08T06:04:11Z</time>
      </trkpt>
      <trkpt lat="48.90016" lon="7.49313">
        <ele>347</ele>
        <time>2021-08-08T06:04:12Z</time>
      </trkpt>
      <trkpt lat="48.90016" lon="7.49309">
        <ele>347</ele>
        <time>2021-08-08T06:04:13Z</time>
      </trkpt>
      <trkpt lat="48.90016" lon="7.49309">
        <ele>348</ele>
        <time>2021-08-08T06:04:14Z</time>
      </trkpt>
      <trkpt lat="48.90016" lon="7.49305">
        <ele>348</ele>
        <time>2021-08-08T06:04:15Z</time>
      </trkpt>
      <trkpt lat="48.90016" lon="7.49305">
        <ele>348</ele>
        <time>2021-08-08T06:04:16Z</time>
      </trkpt>
      <trkpt lat="48.90016" lon="7.49298">
        <ele>349</ele>
        <time>2021-08-08T06:04:17Z</time>
      </trkpt>
      <trkpt lat="48.90016" lon="7.49298">
        <ele>349</ele>
        <time>2021-08-08T06:04:18Z</time>
      </trkpt>
      <trkpt lat="48.90016" lon="7.4929">
        <ele>349</ele>
        <time>2021-08-08T06:04:19Z</time>
      </trkpt>
      <trkpt lat="48.90016" lon="7.4929">
        <ele>349</ele>
        <time>2021-08-08T06:04:20Z</time>
      </trkpt>
      <trkpt lat="48.90016" lon="7.49285">
        <ele>350</ele>
        <time>2021-08-08T06:04:21Z</time>
      </trkpt>
      <trkpt lat="48.90016" lon="7.49285">
        <ele>350</ele>
        <time>2021-08-08T06:04:22Z</time>
      </trkpt>
      <trkpt lat="48.90016" lon="7.49283">
        <ele>350</ele>
        <time>2021-08-08T06:04:23Z</time>
      </trkpt>
      <trkpt lat="48.90017" lon="7.49282">
        <ele>350</ele>
        <time>2021-08-08T06:04:24Z</time>
      </trkpt>
      <trkpt lat="48.90017" lon="7.49282">
        <ele>350</ele>
        <time>2021-08-08T06:04:25Z</time>
      </trkpt>
      <trkpt lat="48.90017" lon="7.49282">
        <ele>350</ele>
        <time>2021-08-08T06:04:33Z</time>
      </trkpt>
      <trkpt lat="48.90017" lon="7.49282">
        <ele>350</ele>
        <time>2021-08-08T06:04:34Z</time>
      </trkpt>
      <trkpt lat="48.9002" lon="7.49275">
        <ele>350</ele>
        <time>2021-08-08T06:04:35Z</time>
      </trkpt>
      <trkpt lat="48.9002" lon="7.49275">
        <ele>351</ele>
        <time>2021-08-08T06:04:36Z</time>
      </trkpt>
      <trkpt lat="48.9002" lon="7.49276">
        <ele>351</ele>
        <time>2021-08-08T06:04:37Z</time>
      </trkpt>
      <trkpt lat="48.9002" lon="7.49276">
        <ele>351</ele>
        <time>2021-08-08T06:04:38Z</time>
      </trkpt>
      <trkpt lat="48.90022" lon="7.49277">
        <ele>351</ele>
        <time>2021-08-08T06:04:39Z</time>
      </trkpt>
      <trkpt lat="48.90022" lon="7.49277">
        <ele>351</ele>
        <time>2021-08-08T06:04:40Z</time>
      </trkpt>
      <trkpt lat="48.90022" lon="7.49278">
        <ele>351</ele>
        <time>2021-08-08T06:04:41Z</time>
      </trkpt>
      <trkpt lat="48.90023" lon="7.49279">
        <ele>352</ele>
        <time>2021-08-08T06:04:42Z</time>
      </trkpt>
      <trkpt lat="48.90023" lon="7.49279">
        <ele>352</ele>
        <time>2021-08-08T06:04:43Z</time>
      </trkpt>
      <trkpt lat="48.90024" lon="7.4928">
        <ele>352</ele>
        <time>2021-08-08T06:04:44Z</time>
      </trkpt>
      <trkpt lat="48.90024" lon="7.49281">
        <ele>352</ele>
        <time>2021-08-08T06:04:45Z</time>
      </trkpt>
      <trkpt lat="48.90024" lon="7.49281">
        <ele>352</ele>
        <time>2021-08-08T06:04:46Z</time>
      </trkpt>
      <trkpt lat="48.90025" lon="7.49282">
        <ele>352</ele>
        <time>2021-08-08T06:04:47Z</time>
      </trkpt>
      <trkpt lat="48.90025" lon="7.49282">
        <ele>353</ele>
        <time>2021-08-08T06:04:48Z</time>
      </trkpt>
      <trkpt lat="48.90025" lon="7.49282">
        <ele>353</ele>
        <time>2021-08-08T06:04:49Z</time>
      </trkpt>
      <trkpt lat="48.90025" lon="7.49282">
        <ele>353</ele>
        <time>2021-08-08T06:04:50Z</time>
      </trkpt>
      <trkpt lat="48.90026" lon="7.49283">
        <ele>353</ele>
        <time>2021-08-08T06:04:51Z</time>
      </trkpt>
      <trkpt lat="48.90026" lon="7.49283">
        <ele>353</ele>
        <time>2021-08-08T06:04:52Z</time>
      </trkpt>
      <trkpt lat="48.90027" lon="7.49282">
        <ele>353</ele>
        <time>2021-08-08T06:04:53Z</time>
      </trkpt>
      <trkpt lat="48.90027" lon="7.49282">
        <ele>353</ele>
        <time>2021-08-08T06:04:54Z</time>
      </trkpt>
      <trkpt lat="48.90028" lon="7.49283">
        <ele>353</ele>
        <time>2021-08-08T06:04:55Z</time>
      </trkpt>
      <trkpt lat="48.90028" lon="7.49283">
        <ele>353</ele>
        <time>2021-08-08T06:04:56Z</time>
      </trkpt>
      <trkpt lat="48.90029" lon="7.49284">
        <ele>354</ele>
        <time>2021-08-08T06:04:57Z</time>
      </trkpt>
      <trkpt lat="48.90029" lon="7.49284">
        <ele>354</ele>
        <time>2021-08-08T06:04:58Z</time>
      </trkpt>
      <trkpt lat="48.9003" lon="7.49285">
        <ele>354</ele>
        <time>2021-08-08T06:04:59Z</time>
      </trkpt>
      <trkpt lat="48.9003" lon="7.49285">
        <ele>354</ele>
        <time>2021-08-08T06:05:00Z</time>
      </trkpt>
      <trkpt lat="48.9003" lon="7.49286">
        <ele>354</ele>
        <time>2021-08-08T06:05:01Z</time>
      </trkpt>
      <trkpt lat="48.9003" lon="7.49286">
        <ele>354</ele>
        <time>2021-08-08T06:05:02Z</time>
      </trkpt>
      <trkpt lat="48.9003" lon="7.49286">
        <ele>354</ele>
        <time>2021-08-08T06:05:03Z</time>
      </trkpt>
      <trkpt lat="48.9003" lon="7.49286">
        <ele>354</ele>
        <time>2021-08-08T06:05:04Z</time>
      </trkpt>
      <trkpt lat="48.90032" lon="7.49291">
        <ele>354</ele>
        <time>2021-08-08T06:05:10Z</time>
      </trkpt>
      <trkpt lat="48.90032" lon="7.49291">
        <ele>354</ele>
        <time>2021-08-08T06:05:11Z</time>
      </trkpt>
      <trkpt lat="48.90034" lon="7.49293">
        <ele>354</ele>
        <time>2021-08-08T06:05:12Z</time>
      </trkpt>
      <trkpt lat="48.90034" lon="7.49294">
        <ele>355</ele>
        <time>2021-08-08T06:05:13Z</time>
      </trkpt>
      <trkpt lat="48.90034" lon="7.49294">
        <ele>355</ele>
        <time>2021-08-08T06:05:14Z</time>
      </trkpt>
      <trkpt lat="48.90035" lon="7.49296">
        <ele>355</ele>
        <time>2021-08-08T06:05:15Z</time>
      </trkpt>
      <trkpt lat="48.90035" lon="7.49296">
        <ele>355</ele>
        <time>2021-08-08T06:05:16Z</time>
      </trkpt>
      <trkpt lat="48.90036" lon="7.49299">
        <ele>355</ele>
        <time>2021-08-08T06:05:17Z</time>
      </trkpt>
      <trkpt lat="48.90036" lon="7.49299">
        <ele>356</ele>
        <time>2021-08-08T06:05:18Z</time>
      </trkpt>
      <trkpt lat="48.90037" lon="7.49302">
        <ele>356</ele>
        <time>2021-08-08T06:05:19Z</time>
      </trkpt>
      <trkpt lat="48.90039" lon="7.49304">
        <ele>356</ele>
        <time>2021-08-08T06:05:20Z</time>
      </trkpt>
      <trkpt lat="48.90039" lon="7.49304">
        <ele>356</ele>
        <time>2021-08-08T06:05:21Z</time>
      </trkpt>
      <trkpt lat="48.90042" lon="7.49309">
        <ele>356</ele>
        <time>2021-08-08T06:05:22Z</time>
      </trkpt>
      <trkpt lat="48.90042" lon="7.49309">
        <ele>356</ele>
        <time>2021-08-08T06:05:23Z</time>
      </trkpt>
      <trkpt lat="48.90045" lon="7.49314">
        <ele>356</ele>
        <time>2021-08-08T06:05:24Z</time>
      </trkpt>
      <trkpt lat="48.90047" lon="7.49317">
        <ele>356</ele>
        <time>2021-08-08T06:05:25Z</time>
      </trkpt>
      <trkpt lat="48.90047" lon="7.49317">
        <ele>357</ele>
        <time>2021-08-08T06:05:26Z</time>
      </trkpt>
      <trkpt lat="48.90049" lon="7.49319">
        <ele>357</ele>
        <time>2021-08-08T06:05:27Z</time>
      </trkpt>
      <trkpt lat="48.90049" lon="7.49319">
        <ele>357</ele>
        <time>2021-08-08T06:05:28Z</time>
      </trkpt>
      <trkpt lat="48.90052" lon="7.49321">
        <ele>357</ele>
        <time>2021-08-08T06:05:29Z</time>
      </trkpt>
      <trkpt lat="48.90052" lon="7.49321">
        <ele>358</ele>
        <time>2021-08-08T06:05:30Z</time>
      </trkpt>
      <trkpt lat="48.90053" lon="7.49321">
        <ele>358</ele>
        <time>2021-08-08T06:05:31Z</time>
      </trkpt>
      <trkpt lat="48.90053" lon="7.49321">
        <ele>358</ele>
        <time>2021-08-08T06:05:32Z</time>
      </trkpt>
      <trkpt lat="48.90055" lon="7.49322">
        <ele>358</ele>
        <time>2021-08-08T06:05:33Z</time>
      </trkpt>
      <trkpt lat="48.90056" lon="7.49323">
        <ele>359</ele>
        <time>2021-08-08T06:05:34Z</time>
      </trkpt>
      <trkpt lat="48.90056" lon="7.49323">
        <ele>359</ele>
        <time>2021-08-08T06:05:35Z</time>
      </trkpt>
      <trkpt lat="48.9006" lon="7.49325">
        <ele>359</ele>
        <time>2021-08-08T06:05:36Z</time>
      </trkpt>
      <trkpt lat="48.90061" lon="7.49326">
        <ele>359</ele>
        <time>2021-08-08T06:05:37Z</time>
      </trkpt>
      <trkpt lat="48.90061" lon="7.49326">
        <ele>359</ele>
        <time>2021-08-08T06:05:38Z</time>
      </trkpt>
      <trkpt lat="48.90062" lon="7.4933">
        <ele>359</ele>
        <time>2021-08-08T06:05:39Z</time>
      </trkpt>
      <trkpt lat="48.90062" lon="7.4933">
        <ele>359</ele>
        <time>2021-08-08T06:05:40Z</time>
      </trkpt>
      <trkpt lat="48.90064" lon="7.49333">
        <ele>359</ele>
        <time>2021-08-08T06:05:41Z</time>
      </trkpt>
      <trkpt lat="48.90064" lon="7.49333">
        <ele>359</ele>
        <time>2021-08-08T06:05:42Z</time>
      </trkpt>
      <trkpt lat="48.90065" lon="7.49336">
        <ele>359</ele>
        <time>2021-08-08T06:05:43Z</time>
      </trkpt>
      <trkpt lat="48.90065" lon="7.49336">
        <ele>359</ele>
        <time>2021-08-08T06:05:44Z</time>
      </trkpt>
      <trkpt lat="48.90068" lon="7.49341">
        <ele>359</ele>
        <time>2021-08-08T06:05:45Z</time>
      </trkpt>
      <trkpt lat="48.90068" lon="7.49341">
        <ele>359</ele>
        <time>2021-08-08T06:05:46Z</time>
      </trkpt>
      <trkpt lat="48.9007" lon="7.49346">
        <ele>359</ele>
        <time>2021-08-08T06:05:47Z</time>
      </trkpt>
      <trkpt lat="48.9007" lon="7.49346">
        <ele>359</ele>
        <time>2021-08-08T06:05:48Z</time>
      </trkpt>
      <trkpt lat="48.90074" lon="7.49348">
        <ele>359</ele>
        <time>2021-08-08T06:05:49Z</time>
      </trkpt>
      <trkpt lat="48.90074" lon="7.49348">
        <ele>359</ele>
        <time>2021-08-08T06:05:50Z</time>
      </trkpt>
      <trkpt lat="48.90078" lon="7.49348">
        <ele>359</ele>
        <time>2021-08-08T06:05:51Z</time>
      </trkpt>
      <trkpt lat="48.90078" lon="7.49348">
        <ele>359</ele>
        <time>2021-08-08T06:05:52Z</time>
      </trkpt>
      <trkpt lat="48.90083" lon="7.49348">
        <ele>359</ele>
        <time>2021-08-08T06:05:53Z</time>
      </trkpt>
      <trkpt lat="48.90083" lon="7.49348">
        <ele>359</ele>
        <time>2021-08-08T06:05:54Z</time>
      </trkpt>
      <trkpt lat="48.90087" lon="7.49347">
        <ele>359</ele>
        <time>2021-08-08T06:05:55Z</time>
      </trkpt>
      <trkpt lat="48.90087" lon="7.49347">
        <ele>358</ele>
        <time>2021-08-08T06:05:56Z</time>
      </trkpt>
      <trkpt lat="48.90089" lon="7.49341">
        <ele>358</ele>
        <time>2021-08-08T06:05:57Z</time>
      </trkpt>
      <trkpt lat="48.90089" lon="7.49341">
        <ele>358</ele>
        <time>2021-08-08T06:05:58Z</time>
      </trkpt>
      <trkpt lat="48.90091" lon="7.49333">
        <ele>358</ele>
        <time>2021-08-08T06:05:59Z</time>
      </trkpt>
      <trkpt lat="48.90093" lon="7.49327">
        <ele>357</ele>
        <time>2021-08-08T06:06:00Z</time>
      </trkpt>
      <trkpt lat="48.90093" lon="7.49327">
        <ele>357</ele>
        <time>2021-08-08T06:06:01Z</time>
      </trkpt>
      <trkpt lat="48.90094" lon="7.49316">
        <ele>356</ele>
        <time>2021-08-08T06:06:02Z</time>
      </trkpt>
      <trkpt lat="48.90095" lon="7.49308">
        <ele>356</ele>
        <time>2021-08-08T06:06:03Z</time>
      </trkpt>
      <trkpt lat="48.90095" lon="7.49308">
        <ele>355</ele>
        <time>2021-08-08T06:06:04Z</time>
      </trkpt>
      <trkpt lat="48.90097" lon="7.49295">
        <ele>355</ele>
        <time>2021-08-08T06:06:05Z</time>
      </trkpt>
      <trkpt lat="48.90097" lon="7.49295">
        <ele>355</ele>
        <time>2021-08-08T06:06:06Z</time>
      </trkpt>
      <trkpt lat="48.90101" lon="7.49283">
        <ele>355</ele>
        <time>2021-08-08T06:06:07Z</time>
      </trkpt>
      <trkpt lat="48.90101" lon="7.49283">
        <ele>354</ele>
        <time>2021-08-08T06:06:08Z</time>
      </trkpt>
      <trkpt lat="48.90105" lon="7.49276">
        <ele>353</ele>
        <time>2021-08-08T06:06:09Z</time>
      </trkpt>
      <trkpt lat="48.90105" lon="7.49276">
        <ele>353</ele>
        <time>2021-08-08T06:06:10Z</time>
      </trkpt>
      <trkpt lat="48.90108" lon="7.49269">
        <ele>353</ele>
        <time>2021-08-08T06:06:11Z</time>
      </trkpt>
      <trkpt lat="48.90108" lon="7.49269">
        <ele>353</ele>
        <time>2021-08-08T06:06:12Z</time>
      </trkpt>
      <trkpt lat="48.9011" lon="7.49262">
        <ele>352</ele>
        <time>2021-08-08T06:06:13Z</time>
      </trkpt>
      <trkpt lat="48.9011" lon="7.49262">
        <ele>352</ele>
        <time>2021-08-08T06:06:14Z</time>
      </trkpt>
      <trkpt lat="48.90112" lon="7.49253">
        <ele>352</ele>
        <time>2021-08-08T06:06:15Z</time>
      </trkpt>
      <trkpt lat="48.90112" lon="7.49253">
        <ele>352</ele>
        <time>2021-08-08T06:06:16Z</time>
      </trkpt>
      <trkpt lat="48.90115" lon="7.49245">
        <ele>351</ele>
        <time>2021-08-08T06:06:17Z</time>
      </trkpt>
      <trkpt lat="48.90115" lon="7.49245">
        <ele>351</ele>
        <time>2021-08-08T06:06:18Z</time>
      </trkpt>
      <trkpt lat="48.90117" lon="7.49235">
        <ele>350</ele>
        <time>2021-08-08T06:06:19Z</time>
      </trkpt>
      <trkpt lat="48.90117" lon="7.49235">
        <ele>350</ele>
        <time>2021-08-08T06:06:20Z</time>
      </trkpt>
      <trkpt lat="48.90118" lon="7.49226">
        <ele>349</ele>
        <time>2021-08-08T06:06:21Z</time>
      </trkpt>
      <trkpt lat="48.90118" lon="7.49226">
        <ele>349</ele>
        <time>2021-08-08T06:06:22Z</time>
      </trkpt>
      <trkpt lat="48.90117" lon="7.49219">
        <ele>349</ele>
        <time>2021-08-08T06:06:23Z</time>
      </trkpt>
      <trkpt lat="48.90117" lon="7.49219">
        <ele>349</ele>
        <time>2021-08-08T06:06:24Z</time>
      </trkpt>
      <trkpt lat="48.9012" lon="7.49207">
        <ele>348</ele>
        <time>2021-08-08T06:06:25Z</time>
      </trkpt>
      <trkpt lat="48.9012" lon="7.49201">
        <ele>348</ele>
        <time>2021-08-08T06:06:26Z</time>
      </trkpt>
      <trkpt lat="48.90121" lon="7.49196">
        <ele>348</ele>
        <time>2021-08-08T06:06:27Z</time>
      </trkpt>
      <trkpt lat="48.90121" lon="7.49196">
        <ele>348</ele>
        <time>2021-08-08T06:06:28Z</time>
      </trkpt>
      <trkpt lat="48.90122" lon="7.49186">
        <ele>347</ele>
        <time>2021-08-08T06:06:29Z</time>
      </trkpt>
      <trkpt lat="48.90122" lon="7.49186">
        <ele>347</ele>
        <time>2021-08-08T06:06:30Z</time>
      </trkpt>
      <trkpt lat="48.90122" lon="7.49175">
        <ele>347</ele>
        <time>2021-08-08T06:06:31Z</time>
      </trkpt>
      <trkpt lat="48.90122" lon="7.49175">
        <ele>347</ele>
        <time>2021-08-08T06:06:32Z</time>
      </trkpt>
      <trkpt lat="48.90123" lon="7.49163">
        <ele>347</ele>
        <time>2021-08-08T06:06:33Z</time>
      </trkpt>
      <trkpt lat="48.90123" lon="7.49163">
        <ele>346</ele>
        <time>2021-08-08T06:06:34Z</time>
      </trkpt>
      <trkpt lat="48.90123" lon="7.49152">
        <ele>346</ele>
        <time>2021-08-08T06:06:35Z</time>
      </trkpt>
      <trkpt lat="48.90123" lon="7.49147">
        <ele>346</ele>
        <time>2021-08-08T06:06:36Z</time>
      </trkpt>
      <trkpt lat="48.90123" lon="7.49142">
        <ele>346</ele>
        <time>2021-08-08T06:06:37Z</time>
      </trkpt>
      <trkpt lat="48.90123" lon="7.49142">
        <ele>345</ele>
        <time>2021-08-08T06:06:38Z</time>
      </trkpt>
      <trkpt lat="48.90126" lon="7.49131">
        <ele>345</ele>
        <time>2021-08-08T06:06:39Z</time>
      </trkpt>
      <trkpt lat="48.90126" lon="7.49131">
        <ele>344</ele>
        <time>2021-08-08T06:06:40Z</time>
      </trkpt>
      <trkpt lat="48.90127" lon="7.49121">
        <ele>344</ele>
        <time>2021-08-08T06:06:41Z</time>
      </trkpt>
      <trkpt lat="48.90127" lon="7.49114">
        <ele>343</ele>
        <time>2021-08-08T06:06:42Z</time>
      </trkpt>
      <trkpt lat="48.90127" lon="7.49114">
        <ele>343</ele>
        <time>2021-08-08T06:06:43Z</time>
      </trkpt>
      <trkpt lat="48.90127" lon="7.49102">
        <ele>342</ele>
        <time>2021-08-08T06:06:44Z</time>
      </trkpt>
      <trkpt lat="48.90127" lon="7.49102">
        <ele>342</ele>
        <time>2021-08-08T06:06:45Z</time>
      </trkpt>
      <trkpt lat="48.90126" lon="7.49089">
        <ele>341</ele>
        <time>2021-08-08T06:06:46Z</time>
      </trkpt>
      <trkpt lat="48.90127" lon="7.49082">
        <ele>341</ele>
        <time>2021-08-08T06:06:47Z</time>
      </trkpt>
      <trkpt lat="48.90127" lon="7.49082">
        <ele>340</ele>
        <time>2021-08-08T06:06:48Z</time>
      </trkpt>
      <trkpt lat="48.90126" lon="7.49073">
        <ele>340</ele>
        <time>2021-08-08T06:06:49Z</time>
      </trkpt>
      <trkpt lat="48.90126" lon="7.49073">
        <ele>340</ele>
        <time>2021-08-08T06:06:50Z</time>
      </trkpt>
      <trkpt lat="48.90126" lon="7.49066">
        <ele>339</ele>
        <time>2021-08-08T06:06:51Z</time>
      </trkpt>
      <trkpt lat="48.90126" lon="7.49066">
        <ele>339</ele>
        <time>2021-08-08T06:06:52Z</time>
      </trkpt>
      <trkpt lat="48.90126" lon="7.49057">
        <ele>338</ele>
        <time>2021-08-08T06:06:53Z</time>
      </trkpt>
      <trkpt lat="48.90126" lon="7.49057">
        <ele>338</ele>
        <time>2021-08-08T06:06:54Z</time>
      </trkpt>
      <trkpt lat="48.90125" lon="7.49045">
        <ele>337</ele>
        <time>2021-08-08T06:06:55Z</time>
      </trkpt>
      <trkpt lat="48.90125" lon="7.49045">
        <ele>337</ele>
        <time>2021-08-08T06:06:56Z</time>
      </trkpt>
      <trkpt lat="48.90126" lon="7.4903">
        <ele>337</ele>
        <time>2021-08-08T06:06:57Z</time>
      </trkpt>
      <trkpt lat="48.90126" lon="7.4903">
        <ele>337</ele>
        <time>2021-08-08T06:06:58Z</time>
      </trkpt>
      <trkpt lat="48.90126" lon="7.49015">
        <ele>335</ele>
        <time>2021-08-08T06:06:59Z</time>
      </trkpt>
      <trkpt lat="48.90126" lon="7.49006">
        <ele>335</ele>
        <time>2021-08-08T06:07:00Z</time>
      </trkpt>
      <trkpt lat="48.90126" lon="7.49006">
        <ele>334</ele>
        <time>2021-08-08T06:07:01Z</time>
      </trkpt>
      <trkpt lat="48.90127" lon="7.48988">
        <ele>334</ele>
        <time>2021-08-08T06:07:02Z</time>
      </trkpt>
      <trkpt lat="48.90127" lon="7.48988">
        <ele>333</ele>
        <time>2021-08-08T06:07:03Z</time>
      </trkpt>
      <trkpt lat="48.90127" lon="7.48972">
        <ele>333</ele>
        <time>2021-08-08T06:07:04Z</time>
      </trkpt>
      <trkpt lat="48.90127" lon="7.48965">
        <ele>331</ele>
        <time>2021-08-08T06:07:05Z</time>
      </trkpt>
      <trkpt lat="48.90127" lon="7.48965">
        <ele>330</ele>
        <time>2021-08-08T06:07:06Z</time>
      </trkpt>
      <trkpt lat="48.90128" lon="7.48949">
        <ele>330</ele>
        <time>2021-08-08T06:07:07Z</time>
      </trkpt>
      <trkpt lat="48.90128" lon="7.48949">
        <ele>329</ele>
        <time>2021-08-08T06:07:08Z</time>
      </trkpt>
      <trkpt lat="48.9013" lon="7.48938">
        <ele>329</ele>
        <time>2021-08-08T06:07:09Z</time>
      </trkpt>
      <trkpt lat="48.9013" lon="7.48938">
        <ele>328</ele>
        <time>2021-08-08T06:07:10Z</time>
      </trkpt>
      <trkpt lat="48.90134" lon="7.48929">
        <ele>328</ele>
        <time>2021-08-08T06:07:11Z</time>
      </trkpt>
      <trkpt lat="48.90134" lon="7.48929">
        <ele>328</ele>
        <time>2021-08-08T06:07:12Z</time>
      </trkpt>
      <trkpt lat="48.9014" lon="7.48919">
        <ele>327</ele>
        <time>2021-08-08T06:07:13Z</time>
      </trkpt>
      <trkpt lat="48.90144" lon="7.48913">
        <ele>327</ele>
        <time>2021-08-08T06:07:14Z</time>
      </trkpt>
      <trkpt lat="48.90144" lon="7.48913">
        <ele>326</ele>
        <time>2021-08-08T06:07:15Z</time>
      </trkpt>
      <trkpt lat="48.90149" lon="7.48903">
        <ele>326</ele>
        <time>2021-08-08T06:07:16Z</time>
      </trkpt>
      <trkpt lat="48.90149" lon="7.48903">
        <ele>325</ele>
        <time>2021-08-08T06:07:17Z</time>
      </trkpt>
      <trkpt lat="48.90155" lon="7.48893">
        <ele>325</ele>
        <time>2021-08-08T06:07:18Z</time>
      </trkpt>
      <trkpt lat="48.90158" lon="7.48888">
        <ele>324</ele>
        <time>2021-08-08T06:07:19Z</time>
      </trkpt>
      <trkpt lat="48.90161" lon="7.48881">
        <ele>324</ele>
        <time>2021-08-08T06:07:20Z</time>
      </trkpt>
      <trkpt lat="48.90161" lon="7.48881">
        <ele>323</ele>
        <time>2021-08-08T06:07:21Z</time>
      </trkpt>
      <trkpt lat="48.9017" lon="7.48868">
        <ele>323</ele>
        <time>2021-08-08T06:07:22Z</time>
      </trkpt>
      <trkpt lat="48.90174" lon="7.48861">
        <ele>322</ele>
        <time>2021-08-08T06:07:23Z</time>
      </trkpt>
      <trkpt lat="48.90174" lon="7.48861">
        <ele>322</ele>
        <time>2021-08-08T06:07:24Z</time>
      </trkpt>
      <trkpt lat="48.90183" lon="7.48847">
        <ele>322</ele>
        <time>2021-08-08T06:07:25Z</time>
      </trkpt>
      <trkpt lat="48.90183" lon="7.48847">
        <ele>322</ele>
        <time>2021-08-08T06:07:26Z</time>
      </trkpt>
      <trkpt lat="48.90192" lon="7.48834">
        <ele>321</ele>
        <time>2021-08-08T06:07:27Z</time>
      </trkpt>
      <trkpt lat="48.90196" lon="7.48828">
        <ele>321</ele>
        <time>2021-08-08T06:07:28Z</time>
      </trkpt>
      <trkpt lat="48.90196" lon="7.48828">
        <ele>321</ele>
        <time>2021-08-08T06:07:29Z</time>
      </trkpt>
      <trkpt lat="48.90201" lon="7.48816">
        <ele>321</ele>
        <time>2021-08-08T06:07:30Z</time>
      </trkpt>
      <trkpt lat="48.90205" lon="7.48812">
        <ele>320</ele>
        <time>2021-08-08T06:07:31Z</time>
      </trkpt>
      <trkpt lat="48.90205" lon="7.48812">
        <ele>320</ele>
        <time>2021-08-08T06:07:32Z</time>
      </trkpt>
      <trkpt lat="48.90213" lon="7.48803">
        <ele>320</ele>
        <time>2021-08-08T06:07:33Z</time>
      </trkpt>
      <trkpt lat="48.90213" lon="7.48803">
        <ele>320</ele>
        <time>2021-08-08T06:07:34Z</time>
      </trkpt>
      <trkpt lat="48.90221" lon="7.48791">
        <ele>318</ele>
        <time>2021-08-08T06:07:35Z</time>
      </trkpt>
      <trkpt lat="48.90221" lon="7.48791">
        <ele>318</ele>
        <time>2021-08-08T06:07:36Z</time>
      </trkpt>
      <trkpt lat="48.90232" lon="7.48784">
        <ele>317</ele>
        <time>2021-08-08T06:07:37Z</time>
      </trkpt>
      <trkpt lat="48.90232" lon="7.48784">
        <ele>317</ele>
        <time>2021-08-08T06:07:38Z</time>
      </trkpt>
      <trkpt lat="48.90241" lon="7.48783">
        <ele>317</ele>
        <time>2021-08-08T06:07:39Z</time>
      </trkpt>
      <trkpt lat="48.90241" lon="7.48783">
        <ele>317</ele>
        <time>2021-08-08T06:07:40Z</time>
      </trkpt>
      <trkpt lat="48.9025" lon="7.48781">
        <ele>317</ele>
        <time>2021-08-08T06:07:41Z</time>
      </trkpt>
      <trkpt lat="48.9025" lon="7.48781">
        <ele>317</ele>
        <time>2021-08-08T06:07:42Z</time>
      </trkpt>
      <trkpt lat="48.90257" lon="7.48782">
        <ele>317</ele>
        <time>2021-08-08T06:07:43Z</time>
      </trkpt>
      <trkpt lat="48.90257" lon="7.48782">
        <ele>317</ele>
        <time>2021-08-08T06:07:44Z</time>
      </trkpt>
      <trkpt lat="48.90267" lon="7.4878">
        <ele>317</ele>
        <time>2021-08-08T06:07:45Z</time>
      </trkpt>
      <trkpt lat="48.90267" lon="7.4878">
        <ele>317</ele>
        <time>2021-08-08T06:07:46Z</time>
      </trkpt>
      <trkpt lat="48.9028" lon="7.48778">
        <ele>315</ele>
        <time>2021-08-08T06:07:47Z</time>
      </trkpt>
      <trkpt lat="48.9028" lon="7.48778">
        <ele>315</ele>
        <time>2021-08-08T06:07:48Z</time>
      </trkpt>
      <trkpt lat="48.9029" lon="7.48774">
        <ele>315</ele>
        <time>2021-08-08T06:07:49Z</time>
      </trkpt>
      <trkpt lat="48.9029" lon="7.48774">
        <ele>315</ele>
        <time>2021-08-08T06:07:50Z</time>
      </trkpt>
      <trkpt lat="48.90298" lon="7.48764">
        <ele>314</ele>
        <time>2021-08-08T06:07:51Z</time>
      </trkpt>
      <trkpt lat="48.90298" lon="7.48764">
        <ele>314</ele>
        <time>2021-08-08T06:07:52Z</time>
      </trkpt>
      <trkpt lat="48.90304" lon="7.48752">
        <ele>314</ele>
        <time>2021-08-08T06:07:53Z</time>
      </trkpt>
      <trkpt lat="48.90304" lon="7.48752">
        <ele>314</ele>
        <time>2021-08-08T06:07:54Z</time>
      </trkpt>
      <trkpt lat="48.90311" lon="7.48735">
        <ele>313</ele>
        <time>2021-08-08T06:07:55Z</time>
      </trkpt>
      <trkpt lat="48.90311" lon="7.48735">
        <ele>313</ele>
        <time>2021-08-08T06:07:56Z</time>
      </trkpt>
      <trkpt lat="48.90318" lon="7.48718">
        <ele>312</ele>
        <time>2021-08-08T06:07:57Z</time>
      </trkpt>
      <trkpt lat="48.90318" lon="7.48718">
        <ele>312</ele>
        <time>2021-08-08T06:07:58Z</time>
      </trkpt>
      <trkpt lat="48.90324" lon="7.48703">
        <ele>312</ele>
        <time>2021-08-08T06:07:59Z</time>
      </trkpt>
      <trkpt lat="48.90324" lon="7.48703">
        <ele>312</ele>
        <time>2021-08-08T06:08:00Z</time>
      </trkpt>
      <trkpt lat="48.90331" lon="7.48685">
        <ele>311</ele>
        <time>2021-08-08T06:08:01Z</time>
      </trkpt>
      <trkpt lat="48.90331" lon="7.48685">
        <ele>311</ele>
        <time>2021-08-08T06:08:02Z</time>
      </trkpt>
      <trkpt lat="48.90338" lon="7.48672">
        <ele>311</ele>
        <time>2021-08-08T06:08:03Z</time>
      </trkpt>
      <trkpt lat="48.90338" lon="7.48672">
        <ele>311</ele>
        <time>2021-08-08T06:08:04Z</time>
      </trkpt>
      <trkpt lat="48.90345" lon="7.4866">
        <ele>311</ele>
        <time>2021-08-08T06:08:05Z</time>
      </trkpt>
      <trkpt lat="48.90345" lon="7.4866">
        <ele>311</ele>
        <time>2021-08-08T06:08:06Z</time>
      </trkpt>
      <trkpt lat="48.90349" lon="7.48651">
        <ele>311</ele>
        <time>2021-08-08T06:08:07Z</time>
      </trkpt>
      <trkpt lat="48.90351" lon="7.48648">
        <ele>311</ele>
        <time>2021-08-08T06:08:08Z</time>
      </trkpt>
      <trkpt lat="48.90351" lon="7.48648">
        <ele>311</ele>
        <time>2021-08-08T06:08:09Z</time>
      </trkpt>
      <trkpt lat="48.90354" lon="7.48642">
        <ele>311</ele>
        <time>2021-08-08T06:08:10Z</time>
      </trkpt>
      <trkpt lat="48.90355" lon="7.48639">
        <ele>311</ele>
        <time>2021-08-08T06:08:11Z</time>
      </trkpt>
      <trkpt lat="48.90355" lon="7.48639">
        <ele>311</ele>
        <time>2021-08-08T06:08:12Z</time>
      </trkpt>
      <trkpt lat="48.90358" lon="7.48633">
        <ele>311</ele>
        <time>2021-08-08T06:08:13Z</time>
      </trkpt>
      <trkpt lat="48.90358" lon="7.48633">
        <ele>312</ele>
        <time>2021-08-08T06:08:14Z</time>
      </trkpt>
      <trkpt lat="48.9036" lon="7.48626">
        <ele>312</ele>
        <time>2021-08-08T06:08:15Z</time>
      </trkpt>
      <trkpt lat="48.9036" lon="7.48626">
        <ele>312</ele>
        <time>2021-08-08T06:08:16Z</time>
      </trkpt>
      <trkpt lat="48.90362" lon="7.48622">
        <ele>312</ele>
        <time>2021-08-08T06:08:17Z</time>
      </trkpt>
      <trkpt lat="48.90362" lon="7.48622">
        <ele>313</ele>
        <time>2021-08-08T06:08:18Z</time>
      </trkpt>
      <trkpt lat="48.90364" lon="7.48616">
        <ele>313</ele>
        <time>2021-08-08T06:08:19Z</time>
      </trkpt>
      <trkpt lat="48.90365" lon="7.48614">
        <ele>313</ele>
        <time>2021-08-08T06:08:20Z</time>
      </trkpt>
      <trkpt lat="48.90365" lon="7.48614">
        <ele>313</ele>
        <time>2021-08-08T06:08:21Z</time>
      </trkpt>
      <trkpt lat="48.90368" lon="7.48608">
        <ele>314</ele>
        <time>2021-08-08T06:08:22Z</time>
      </trkpt>
      <trkpt lat="48.90368" lon="7.48608">
        <ele>314</ele>
        <time>2021-08-08T06:08:23Z</time>
      </trkpt>
      <trkpt lat="48.9037" lon="7.48602">
        <ele>314</ele>
        <time>2021-08-08T06:08:24Z</time>
      </trkpt>
      <trkpt lat="48.9037" lon="7.48602">
        <ele>314</ele>
        <time>2021-08-08T06:08:25Z</time>
      </trkpt>
      <trkpt lat="48.90373" lon="7.48596">
        <ele>314</ele>
        <time>2021-08-08T06:08:26Z</time>
      </trkpt>
      <trkpt lat="48.90374" lon="7.48593">
        <ele>314</ele>
        <time>2021-08-08T06:08:27Z</time>
      </trkpt>
      <trkpt lat="48.90374" lon="7.48593">
        <ele>315</ele>
        <time>2021-08-08T06:08:28Z</time>
      </trkpt>
      <trkpt lat="48.90378" lon="7.48587">
        <ele>315</ele>
        <time>2021-08-08T06:08:29Z</time>
      </trkpt>
      <trkpt lat="48.90378" lon="7.48587">
        <ele>315</ele>
        <time>2021-08-08T06:08:30Z</time>
      </trkpt>
      <trkpt lat="48.90379" lon="7.48579">
        <ele>315</ele>
        <time>2021-08-08T06:08:31Z</time>
      </trkpt>
      <trkpt lat="48.90379" lon="7.48579">
        <ele>315</ele>
        <time>2021-08-08T06:08:32Z</time>
      </trkpt>
      <trkpt lat="48.9038" lon="7.48573">
        <ele>315</ele>
        <time>2021-08-08T06:08:33Z</time>
      </trkpt>
      <trkpt lat="48.9038" lon="7.48573">
        <ele>316</ele>
        <time>2021-08-08T06:08:34Z</time>
      </trkpt>
      <trkpt lat="48.90382" lon="7.48566">
        <ele>316</ele>
        <time>2021-08-08T06:08:35Z</time>
      </trkpt>
      <trkpt lat="48.90382" lon="7.48566">
        <ele>316</ele>
        <time>2021-08-08T06:08:36Z</time>
      </trkpt>
      <trkpt lat="48.90383" lon="7.48559">
        <ele>316</ele>
        <time>2021-08-08T06:08:37Z</time>
      </trkpt>
      <trkpt lat="48.90383" lon="7.48559">
        <ele>316</ele>
        <time>2021-08-08T06:08:38Z</time>
      </trkpt>
      <trkpt lat="48.90385" lon="7.48553">
        <ele>316</ele>
        <time>2021-08-08T06:08:39Z</time>
      </trkpt>
      <trkpt lat="48.90386" lon="7.48549">
        <ele>317</ele>
        <time>2021-08-08T06:08:40Z</time>
      </trkpt>
      <trkpt lat="48.90386" lon="7.48549">
        <ele>317</ele>
        <time>2021-08-08T06:08:41Z</time>
      </trkpt>
      <trkpt lat="48.90387" lon="7.48541">
        <ele>317</ele>
        <time>2021-08-08T06:08:42Z</time>
      </trkpt>
      <trkpt lat="48.90389" lon="7.48535">
        <ele>317</ele>
        <time>2021-08-08T06:08:43Z</time>
      </trkpt>
      <trkpt lat="48.90389" lon="7.48535">
        <ele>317</ele>
        <time>2021-08-08T06:08:44Z</time>
      </trkpt>
      <trkpt lat="48.90392" lon="7.48524">
        <ele>317</ele>
        <time>2021-08-08T06:08:45Z</time>
      </trkpt>
      <trkpt lat="48.90393" lon="7.48518">
        <ele>317</ele>
        <time>2021-08-08T06:08:46Z</time>
      </trkpt>
      <trkpt lat="48.90393" lon="7.48518">
        <ele>317</ele>
        <time>2021-08-08T06:08:47Z</time>
      </trkpt>
      <trkpt lat="48.90395" lon="7.48507">
        <ele>317</ele>
        <time>2021-08-08T06:08:48Z</time>
      </trkpt>
      <trkpt lat="48.90395" lon="7.48502">
        <ele>317</ele>
        <time>2021-08-08T06:08:49Z</time>
      </trkpt>
      <trkpt lat="48.90395" lon="7.48502">
        <ele>317</ele>
        <time>2021-08-08T06:08:50Z</time>
      </trkpt>
      <trkpt lat="48.90396" lon="7.4849">
        <ele>317</ele>
        <time>2021-08-08T06:08:51Z</time>
      </trkpt>
      <trkpt lat="48.90396" lon="7.4849">
        <ele>317</ele>
        <time>2021-08-08T06:08:52Z</time>
      </trkpt>
      <trkpt lat="48.90397" lon="7.48477">
        <ele>317</ele>
        <time>2021-08-08T06:08:53Z</time>
      </trkpt>
      <trkpt lat="48.90397" lon="7.48477">
        <ele>317</ele>
        <time>2021-08-08T06:08:54Z</time>
      </trkpt>
      <trkpt lat="48.90398" lon="7.48463">
        <ele>317</ele>
        <time>2021-08-08T06:08:55Z</time>
      </trkpt>
      <trkpt lat="48.90398" lon="7.48463">
        <ele>317</ele>
        <time>2021-08-08T06:08:56Z</time>
      </trkpt>
      <trkpt lat="48.90399" lon="7.48449">
        <ele>317</ele>
        <time>2021-08-08T06:08:57Z</time>
      </trkpt>
      <trkpt lat="48.90399" lon="7.48449">
        <ele>317</ele>
        <time>2021-08-08T06:08:58Z</time>
      </trkpt>
      <trkpt lat="48.90402" lon="7.48433">
        <ele>317</ele>
        <time>2021-08-08T06:08:59Z</time>
      </trkpt>
      <trkpt lat="48.90403" lon="7.48427">
        <ele>317</ele>
        <time>2021-08-08T06:09:00Z</time>
      </trkpt>
      <trkpt lat="48.90404" lon="7.48421">
        <ele>317</ele>
        <time>2021-08-08T06:09:01Z</time>
      </trkpt>
      <trkpt lat="48.90404" lon="7.48421">
        <ele>317</ele>
        <time>2021-08-08T06:09:02Z</time>
      </trkpt>
      <trkpt lat="48.90405" lon="7.48409">
        <ele>317</ele>
        <time>2021-08-08T06:09:03Z</time>
      </trkpt>
      <trkpt lat="48.90405" lon="7.48409">
        <ele>317</ele>
        <time>2021-08-08T06:09:04Z</time>
      </trkpt>
      <trkpt lat="48.90407" lon="7.48396">
        <ele>317</ele>
        <time>2021-08-08T06:09:05Z</time>
      </trkpt>
      <trkpt lat="48.90407" lon="7.48396">
        <ele>317</ele>
        <time>2021-08-08T06:09:06Z</time>
      </trkpt>
      <trkpt lat="48.9041" lon="7.48381">
        <ele>317</ele>
        <time>2021-08-08T06:09:07Z</time>
      </trkpt>
      <trkpt lat="48.9041" lon="7.48381">
        <ele>317</ele>
        <time>2021-08-08T06:09:08Z</time>
      </trkpt>
      <trkpt lat="48.9041" lon="7.48367">
        <ele>317</ele>
        <time>2021-08-08T06:09:09Z</time>
      </trkpt>
      <trkpt lat="48.90411" lon="7.4836">
        <ele>317</ele>
        <time>2021-08-08T06:09:10Z</time>
      </trkpt>
      <trkpt lat="48.90411" lon="7.4836">
        <ele>317</ele>
        <time>2021-08-08T06:09:11Z</time>
      </trkpt>
      <trkpt lat="48.90411" lon="7.48347">
        <ele>317</ele>
        <time>2021-08-08T06:09:12Z</time>
      </trkpt>
      <trkpt lat="48.90411" lon="7.4834">
        <ele>317</ele>
        <time>2021-08-08T06:09:13Z</time>
      </trkpt>
      <trkpt lat="48.90411" lon="7.4834">
        <ele>317</ele>
        <time>2021-08-08T06:09:14Z</time>
      </trkpt>
      <trkpt lat="48.90411" lon="7.48327">
        <ele>317</ele>
        <time>2021-08-08T06:09:15Z</time>
      </trkpt>
      <trkpt lat="48.90411" lon="7.48327">
        <ele>317</ele>
        <time>2021-08-08T06:09:16Z</time>
      </trkpt>
      <trkpt lat="48.90411" lon="7.48313">
        <ele>317</ele>
        <time>2021-08-08T06:09:17Z</time>
      </trkpt>
      <trkpt lat="48.90411" lon="7.48313">
        <ele>317</ele>
        <time>2021-08-08T06:09:18Z</time>
      </trkpt>
      <trkpt lat="48.90411" lon="7.48301">
        <ele>317</ele>
        <time>2021-08-08T06:09:19Z</time>
      </trkpt>
      <trkpt lat="48.90411" lon="7.48301">
        <ele>317</ele>
        <time>2021-08-08T06:09:20Z</time>
      </trkpt>
      <trkpt lat="48.90412" lon="7.48287">
        <ele>317</ele>
        <time>2021-08-08T06:09:21Z</time>
      </trkpt>
      <trkpt lat="48.90412" lon="7.48287">
        <ele>317</ele>
        <time>2021-08-08T06:09:22Z</time>
      </trkpt>
      <trkpt lat="48.90411" lon="7.48275">
        <ele>317</ele>
        <time>2021-08-08T06:09:23Z</time>
      </trkpt>
      <trkpt lat="48.90411" lon="7.48267">
        <ele>317</ele>
        <time>2021-08-08T06:09:24Z</time>
      </trkpt>
      <trkpt lat="48.90411" lon="7.48267">
        <ele>317</ele>
        <time>2021-08-08T06:09:25Z</time>
      </trkpt>
      <trkpt lat="48.90411" lon="7.48253">
        <ele>317</ele>
        <time>2021-08-08T06:09:26Z</time>
      </trkpt>
      <trkpt lat="48.90411" lon="7.48246">
        <ele>317</ele>
        <time>2021-08-08T06:09:27Z</time>
      </trkpt>
      <trkpt lat="48.90411" lon="7.48246">
        <ele>317</ele>
        <time>2021-08-08T06:09:28Z</time>
      </trkpt>
      <trkpt lat="48.9041" lon="7.48231">
        <ele>317</ele>
        <time>2021-08-08T06:09:29Z</time>
      </trkpt>
      <trkpt lat="48.9041" lon="7.48222">
        <ele>317</ele>
        <time>2021-08-08T06:09:30Z</time>
      </trkpt>
      <trkpt lat="48.90409" lon="7.48212">
        <ele>317</ele>
        <time>2021-08-08T06:09:31Z</time>
      </trkpt>
      <trkpt lat="48.90409" lon="7.48212">
        <ele>317</ele>
        <time>2021-08-08T06:09:32Z</time>
      </trkpt>
      <trkpt lat="48.90408" lon="7.48199">
        <ele>317</ele>
        <time>2021-08-08T06:09:33Z</time>
      </trkpt>
      <trkpt lat="48.90408" lon="7.48199">
        <ele>317</ele>
        <time>2021-08-08T06:09:34Z</time>
      </trkpt>
      <trkpt lat="48.90407" lon="7.48183">
        <ele>317</ele>
        <time>2021-08-08T06:09:35Z</time>
      </trkpt>
      <trkpt lat="48.90408" lon="7.48176">
        <ele>317</ele>
        <time>2021-08-08T06:09:36Z</time>
      </trkpt>
      <trkpt lat="48.90408" lon="7.48176">
        <ele>317</ele>
        <time>2021-08-08T06:09:37Z</time>
      </trkpt>
      <trkpt lat="48.90407" lon="7.48164">
        <ele>316</ele>
        <time>2021-08-08T06:09:38Z</time>
      </trkpt>
      <trkpt lat="48.90407" lon="7.48164">
        <ele>316</ele>
        <time>2021-08-08T06:09:39Z</time>
      </trkpt>
      <trkpt lat="48.90406" lon="7.48152">
        <ele>316</ele>
        <time>2021-08-08T06:09:40Z</time>
      </trkpt>
      <trkpt lat="48.90406" lon="7.48152">
        <ele>316</ele>
        <time>2021-08-08T06:09:41Z</time>
      </trkpt>
      <trkpt lat="48.90404" lon="7.4814">
        <ele>316</ele>
        <time>2021-08-08T06:09:42Z</time>
      </trkpt>
      <trkpt lat="48.90403" lon="7.48135">
        <ele>316</ele>
        <time>2021-08-08T06:09:43Z</time>
      </trkpt>
      <trkpt lat="48.90403" lon="7.48135">
        <ele>316</ele>
        <time>2021-08-08T06:09:44Z</time>
      </trkpt>
      <trkpt lat="48.90402" lon="7.48122">
        <ele>316</ele>
        <time>2021-08-08T06:09:45Z</time>
      </trkpt>
      <trkpt lat="48.90402" lon="7.48122">
        <ele>316</ele>
        <time>2021-08-08T06:09:46Z</time>
      </trkpt>
      <trkpt lat="48.90401" lon="7.48109">
        <ele>316</ele>
        <time>2021-08-08T06:09:47Z</time>
      </trkpt>
      <trkpt lat="48.90401" lon="7.48109">
        <ele>316</ele>
        <time>2021-08-08T06:09:48Z</time>
      </trkpt>
      <trkpt lat="48.904" lon="7.48096">
        <ele>316</ele>
        <time>2021-08-08T06:09:49Z</time>
      </trkpt>
      <trkpt lat="48.904" lon="7.48096">
        <ele>316</ele>
        <time>2021-08-08T06:09:50Z</time>
      </trkpt>
      <trkpt lat="48.90399" lon="7.48083">
        <ele>316</ele>
        <time>2021-08-08T06:09:51Z</time>
      </trkpt>
      <trkpt lat="48.90399" lon="7.48083">
        <ele>316</ele>
        <time>2021-08-08T06:09:52Z</time>
      </trkpt>
      <trkpt lat="48.90398" lon="7.48069">
        <ele>316</ele>
        <time>2021-08-08T06:09:53Z</time>
      </trkpt>
      <trkpt lat="48.90398" lon="7.48062">
        <ele>316</ele>
        <time>2021-08-08T06:09:54Z</time>
      </trkpt>
      <trkpt lat="48.90398" lon="7.48062">
        <ele>316</ele>
        <time>2021-08-08T06:09:55Z</time>
      </trkpt>
      <trkpt lat="48.904" lon="7.48047">
        <ele>316</ele>
        <time>2021-08-08T06:09:56Z</time>
      </trkpt>
      <trkpt lat="48.904" lon="7.48047">
        <ele>316</ele>
        <time>2021-08-08T06:09:57Z</time>
      </trkpt>
      <trkpt lat="48.90403" lon="7.48034">
        <ele>316</ele>
        <time>2021-08-08T06:09:58Z</time>
      </trkpt>
      <trkpt lat="48.90403" lon="7.48028">
        <ele>316</ele>
        <time>2021-08-08T06:09:59Z</time>
      </trkpt>
      <trkpt lat="48.90404" lon="7.48022">
        <ele>316</ele>
        <time>2021-08-08T06:10:00Z</time>
      </trkpt>
      <trkpt lat="48.90404" lon="7.48022">
        <ele>316</ele>
        <time>2021-08-08T06:10:01Z</time>
      </trkpt>
      <trkpt lat="48.90405" lon="7.48008">
        <ele>317</ele>
        <time>2021-08-08T06:10:02Z</time>
      </trkpt>
      <trkpt lat="48.90405" lon="7.48008">
        <ele>317</ele>
        <time>2021-08-08T06:10:03Z</time>
      </trkpt>
      <trkpt lat="48.90408" lon="7.47997">
        <ele>317</ele>
        <time>2021-08-08T06:10:04Z</time>
      </trkpt>
      <trkpt lat="48.90409" lon="7.47993">
        <ele>317</ele>
        <time>2021-08-08T06:10:05Z</time>
      </trkpt>
      <trkpt lat="48.9041" lon="7.47988">
        <ele>317</ele>
        <time>2021-08-08T06:10:06Z</time>
      </trkpt>
      <trkpt lat="48.9041" lon="7.47988">
        <ele>318</ele>
        <time>2021-08-08T06:10:07Z</time>
      </trkpt>
      <trkpt lat="48.9041" lon="7.47979">
        <ele>318</ele>
        <time>2021-08-08T06:10:08Z</time>
      </trkpt>
      <trkpt lat="48.90409" lon="7.47975">
        <ele>318</ele>
        <time>2021-08-08T06:10:09Z</time>
      </trkpt>
      <trkpt lat="48.90409" lon="7.47975">
        <ele>318</ele>
        <time>2021-08-08T06:10:10Z</time>
      </trkpt>
      <trkpt lat="48.90409" lon="7.47967">
        <ele>318</ele>
        <time>2021-08-08T06:10:11Z</time>
      </trkpt>
      <trkpt lat="48.90409" lon="7.47967">
        <ele>318</ele>
        <time>2021-08-08T06:10:12Z</time>
      </trkpt>
      <trkpt lat="48.90409" lon="7.47959">
        <ele>318</ele>
        <time>2021-08-08T06:10:13Z</time>
      </trkpt>
      <trkpt lat="48.90409" lon="7.47959">
        <ele>319</ele>
        <time>2021-08-08T06:10:14Z</time>
      </trkpt>
      <trkpt lat="48.90408" lon="7.47948">
        <ele>319</ele>
        <time>2021-08-08T06:10:15Z</time>
      </trkpt>
      <trkpt lat="48.90408" lon="7.47948">
        <ele>319</ele>
        <time>2021-08-08T06:10:16Z</time>
      </trkpt>
      <trkpt lat="48.90409" lon="7.47936">
        <ele>319</ele>
        <time>2021-08-08T06:10:17Z</time>
      </trkpt>
      <trkpt lat="48.9041" lon="7.47931">
        <ele>319</ele>
        <time>2021-08-08T06:10:18Z</time>
      </trkpt>
      <trkpt lat="48.90411" lon="7.47925">
        <ele>319</ele>
        <time>2021-08-08T06:10:19Z</time>
      </trkpt>
      <trkpt lat="48.90411" lon="7.47925">
        <ele>319</ele>
        <time>2021-08-08T06:10:20Z</time>
      </trkpt>
      <trkpt lat="48.90413" lon="7.47913">
        <ele>319</ele>
        <time>2021-08-08T06:10:21Z</time>
      </trkpt>
      <trkpt lat="48.90413" lon="7.47913">
        <ele>319</ele>
        <time>2021-08-08T06:10:22Z</time>
      </trkpt>
      <trkpt lat="48.90414" lon="7.47901">
        <ele>319</ele>
        <time>2021-08-08T06:10:23Z</time>
      </trkpt>
      <trkpt lat="48.90414" lon="7.47901">
        <ele>319</ele>
        <time>2021-08-08T06:10:24Z</time>
      </trkpt>
      <trkpt lat="48.90415" lon="7.47889">
        <ele>319</ele>
        <time>2021-08-08T06:10:25Z</time>
      </trkpt>
      <trkpt lat="48.90415" lon="7.47889">
        <ele>319</ele>
        <time>2021-08-08T06:10:26Z</time>
      </trkpt>
      <trkpt lat="48.90417" lon="7.47874">
        <ele>319</ele>
        <time>2021-08-08T06:10:27Z</time>
      </trkpt>
      <trkpt lat="48.90418" lon="7.47867">
        <ele>318</ele>
        <time>2021-08-08T06:10:28Z</time>
      </trkpt>
      <trkpt lat="48.90418" lon="7.47867">
        <ele>318</ele>
        <time>2021-08-08T06:10:29Z</time>
      </trkpt>
      <trkpt lat="48.9042" lon="7.4785">
        <ele>318</ele>
        <time>2021-08-08T06:10:30Z</time>
      </trkpt>
      <trkpt lat="48.90421" lon="7.47841">
        <ele>318</ele>
        <time>2021-08-08T06:10:31Z</time>
      </trkpt>
      <trkpt lat="48.90421" lon="7.47841">
        <ele>317</ele>
        <time>2021-08-08T06:10:32Z</time>
      </trkpt>
      <trkpt lat="48.90427" lon="7.47818">
        <ele>317</ele>
        <time>2021-08-08T06:10:33Z</time>
      </trkpt>
      <trkpt lat="48.90427" lon="7.47818">
        <ele>317</ele>
        <time>2021-08-08T06:10:34Z</time>
      </trkpt>
      <trkpt lat="48.90432" lon="7.47798">
        <ele>317</ele>
        <time>2021-08-08T06:10:35Z</time>
      </trkpt>
      <trkpt lat="48.90432" lon="7.47798">
        <ele>317</ele>
        <time>2021-08-08T06:10:36Z</time>
      </trkpt>
      <trkpt lat="48.90436" lon="7.47785">
        <ele>317</ele>
        <time>2021-08-08T06:10:37Z</time>
      </trkpt>
      <trkpt lat="48.90436" lon="7.47785">
        <ele>317</ele>
        <time>2021-08-08T06:10:38Z</time>
      </trkpt>
      <trkpt lat="48.9044" lon="7.47772">
        <ele>317</ele>
        <time>2021-08-08T06:10:39Z</time>
      </trkpt>
      <trkpt lat="48.9044" lon="7.47772">
        <ele>317</ele>
        <time>2021-08-08T06:10:40Z</time>
      </trkpt>
      <trkpt lat="48.90444" lon="7.47759">
        <ele>317</ele>
        <time>2021-08-08T06:10:41Z</time>
      </trkpt>
      <trkpt lat="48.90444" lon="7.47759">
        <ele>316</ele>
        <time>2021-08-08T06:10:42Z</time>
      </trkpt>
      <trkpt lat="48.90448" lon="7.47745">
        <ele>316</ele>
        <time>2021-08-08T06:10:43Z</time>
      </trkpt>
      <trkpt lat="48.90448" lon="7.47745">
        <ele>316</ele>
        <time>2021-08-08T06:10:44Z</time>
      </trkpt>
      <trkpt lat="48.90452" lon="7.4773">
        <ele>316</ele>
        <time>2021-08-08T06:10:45Z</time>
      </trkpt>
      <trkpt lat="48.90452" lon="7.4773">
        <ele>316</ele>
        <time>2021-08-08T06:10:46Z</time>
      </trkpt>
      <trkpt lat="48.90456" lon="7.47716">
        <ele>316</ele>
        <time>2021-08-08T06:10:47Z</time>
      </trkpt>
      <trkpt lat="48.90456" lon="7.47716">
        <ele>316</ele>
        <time>2021-08-08T06:10:48Z</time>
      </trkpt>
      <trkpt lat="48.9046" lon="7.47703">
        <ele>316</ele>
        <time>2021-08-08T06:10:49Z</time>
      </trkpt>
      <trkpt lat="48.9046" lon="7.47703">
        <ele>316</ele>
        <time>2021-08-08T06:10:50Z</time>
      </trkpt>
      <trkpt lat="48.90463" lon="7.47688">
        <ele>316</ele>
        <time>2021-08-08T06:10:51Z</time>
      </trkpt>
      <trkpt lat="48.90463" lon="7.47688">
        <ele>316</ele>
        <time>2021-08-08T06:10:52Z</time>
      </trkpt>
      <trkpt lat="48.90467" lon="7.47673">
        <ele>316</ele>
        <time>2021-08-08T06:10:53Z</time>
      </trkpt>
      <trkpt lat="48.90467" lon="7.47673">
        <ele>316</ele>
        <time>2021-08-08T06:10:54Z</time>
      </trkpt>
      <trkpt lat="48.90472" lon="7.47658">
        <ele>315</ele>
        <time>2021-08-08T06:10:55Z</time>
      </trkpt>
      <trkpt lat="48.90475" lon="7.47651">
        <ele>315</ele>
        <time>2021-08-08T06:10:56Z</time>
      </trkpt>
      <trkpt lat="48.90475" lon="7.47651">
        <ele>315</ele>
        <time>2021-08-08T06:10:57Z</time>
      </trkpt>
      <trkpt lat="48.9048" lon="7.47635">
        <ele>315</ele>
        <time>2021-08-08T06:10:58Z</time>
      </trkpt>
      <trkpt lat="48.9048" lon="7.47635">
        <ele>315</ele>
        <time>2021-08-08T06:10:59Z</time>
      </trkpt>
      <trkpt lat="48.90484" lon="7.47621">
        <ele>315</ele>
        <time>2021-08-08T06:11:00Z</time>
      </trkpt>
      <trkpt lat="48.90486" lon="7.47613">
        <ele>315</ele>
        <time>2021-08-08T06:11:01Z</time>
      </trkpt>
      <trkpt lat="48.90486" lon="7.47613">
        <ele>315</ele>
        <time>2021-08-08T06:11:02Z</time>
      </trkpt>
      <trkpt lat="48.90491" lon="7.47594">
        <ele>315</ele>
        <time>2021-08-08T06:11:03Z</time>
      </trkpt>
      <trkpt lat="48.90491" lon="7.47594">
        <ele>315</ele>
        <time>2021-08-08T06:11:04Z</time>
      </trkpt>
      <trkpt lat="48.90497" lon="7.47574">
        <ele>314</ele>
        <time>2021-08-08T06:11:05Z</time>
      </trkpt>
      <trkpt lat="48.90497" lon="7.47574">
        <ele>314</ele>
        <time>2021-08-08T06:11:06Z</time>
      </trkpt>
      <trkpt lat="48.905" lon="7.47555">
        <ele>314</ele>
        <time>2021-08-08T06:11:07Z</time>
      </trkpt>
      <trkpt lat="48.905" lon="7.47555">
        <ele>314</ele>
        <time>2021-08-08T06:11:08Z</time>
      </trkpt>
      <trkpt lat="48.90502" lon="7.47539">
        <ele>314</ele>
        <time>2021-08-08T06:11:09Z</time>
      </trkpt>
      <trkpt lat="48.90502" lon="7.47539">
        <ele>314</ele>
        <time>2021-08-08T06:11:10Z</time>
      </trkpt>
      <trkpt lat="48.90504" lon="7.47523">
        <ele>314</ele>
        <time>2021-08-08T06:11:11Z</time>
      </trkpt>
      <trkpt lat="48.90506" lon="7.47515">
        <ele>314</ele>
        <time>2021-08-08T06:11:12Z</time>
      </trkpt>
      <trkpt lat="48.90508" lon="7.47507">
        <ele>314</ele>
        <time>2021-08-08T06:11:13Z</time>
      </trkpt>
      <trkpt lat="48.90508" lon="7.47507">
        <ele>314</ele>
        <time>2021-08-08T06:11:14Z</time>
      </trkpt>
      <trkpt lat="48.90511" lon="7.47493">
        <ele>314</ele>
        <time>2021-08-08T06:11:15Z</time>
      </trkpt>
      <trkpt lat="48.90511" lon="7.47493">
        <ele>314</ele>
        <time>2021-08-08T06:11:16Z</time>
      </trkpt>
      <trkpt lat="48.90515" lon="7.47477">
        <ele>314</ele>
        <time>2021-08-08T06:11:17Z</time>
      </trkpt>
      <trkpt lat="48.90515" lon="7.47477">
        <ele>314</ele>
        <time>2021-08-08T06:11:18Z</time>
      </trkpt>
      <trkpt lat="48.90522" lon="7.47461">
        <ele>313</ele>
        <time>2021-08-08T06:11:19Z</time>
      </trkpt>
      <trkpt lat="48.90525" lon="7.47453">
        <ele>313</ele>
        <time>2021-08-08T06:11:20Z</time>
      </trkpt>
      <trkpt lat="48.90525" lon="7.47453">
        <ele>313</ele>
        <time>2021-08-08T06:11:21Z</time>
      </trkpt>
      <trkpt lat="48.9053" lon="7.47438">
        <ele>313</ele>
        <time>2021-08-08T06:11:22Z</time>
      </trkpt>
      <trkpt lat="48.90534" lon="7.47431">
        <ele>313</ele>
        <time>2021-08-08T06:11:23Z</time>
      </trkpt>
      <trkpt lat="48.90534" lon="7.47431">
        <ele>313</ele>
        <time>2021-08-08T06:11:24Z</time>
      </trkpt>
      <trkpt lat="48.90541" lon="7.47418">
        <ele>313</ele>
        <time>2021-08-08T06:11:25Z</time>
      </trkpt>
      <trkpt lat="48.90541" lon="7.47418">
        <ele>313</ele>
        <time>2021-08-08T06:11:26Z</time>
      </trkpt>
      <trkpt lat="48.90549" lon="7.47405">
        <ele>313</ele>
        <time>2021-08-08T06:11:27Z</time>
      </trkpt>
      <trkpt lat="48.90549" lon="7.47405">
        <ele>313</ele>
        <time>2021-08-08T06:11:28Z</time>
      </trkpt>
      <trkpt lat="48.90556" lon="7.47393">
        <ele>313</ele>
        <time>2021-08-08T06:11:29Z</time>
      </trkpt>
      <trkpt lat="48.9056" lon="7.47387">
        <ele>313</ele>
        <time>2021-08-08T06:11:30Z</time>
      </trkpt>
      <trkpt lat="48.9056" lon="7.47387">
        <ele>313</ele>
        <time>2021-08-08T06:11:31Z</time>
      </trkpt>
      <trkpt lat="48.90567" lon="7.47375">
        <ele>313</ele>
        <time>2021-08-08T06:11:32Z</time>
      </trkpt>
      <trkpt lat="48.90567" lon="7.47375">
        <ele>312</ele>
        <time>2021-08-08T06:11:33Z</time>
      </trkpt>
      <trkpt lat="48.90571" lon="7.4736">
        <ele>312</ele>
        <time>2021-08-08T06:11:34Z</time>
      </trkpt>
      <trkpt lat="48.90571" lon="7.4736">
        <ele>312</ele>
        <time>2021-08-08T06:11:35Z</time>
      </trkpt>
      <trkpt lat="48.90574" lon="7.47341">
        <ele>312</ele>
        <time>2021-08-08T06:11:36Z</time>
      </trkpt>
      <trkpt lat="48.90576" lon="7.47333">
        <ele>311</ele>
        <time>2021-08-08T06:11:37Z</time>
      </trkpt>
      <trkpt lat="48.90576" lon="7.47333">
        <ele>311</ele>
        <time>2021-08-08T06:11:38Z</time>
      </trkpt>
      <trkpt lat="48.9058" lon="7.47317">
        <ele>311</ele>
        <time>2021-08-08T06:11:39Z</time>
      </trkpt>
      <trkpt lat="48.9058" lon="7.47317">
        <ele>311</ele>
        <time>2021-08-08T06:11:40Z</time>
      </trkpt>
      <trkpt lat="48.90583" lon="7.47305">
        <ele>310</ele>
        <time>2021-08-08T06:11:41Z</time>
      </trkpt>
      <trkpt lat="48.90583" lon="7.47305">
        <ele>310</ele>
        <time>2021-08-08T06:11:42Z</time>
      </trkpt>
      <trkpt lat="48.90586" lon="7.4729">
        <ele>310</ele>
        <time>2021-08-08T06:11:43Z</time>
      </trkpt>
      <trkpt lat="48.90586" lon="7.4729">
        <ele>310</ele>
        <time>2021-08-08T06:11:44Z</time>
      </trkpt>
      <trkpt lat="48.90591" lon="7.47278">
        <ele>310</ele>
        <time>2021-08-08T06:11:45Z</time>
      </trkpt>
      <trkpt lat="48.90591" lon="7.47278">
        <ele>310</ele>
        <time>2021-08-08T06:11:46Z</time>
      </trkpt>
      <trkpt lat="48.90595" lon="7.47265">
        <ele>310</ele>
        <time>2021-08-08T06:11:47Z</time>
      </trkpt>
      <trkpt lat="48.90595" lon="7.47265">
        <ele>310</ele>
        <time>2021-08-08T06:11:48Z</time>
      </trkpt>
      <trkpt lat="48.906" lon="7.47251">
        <ele>309</ele>
        <time>2021-08-08T06:11:49Z</time>
      </trkpt>
      <trkpt lat="48.90603" lon="7.47244">
        <ele>309</ele>
        <time>2021-08-08T06:11:50Z</time>
      </trkpt>
      <trkpt lat="48.90603" lon="7.47244">
        <ele>309</ele>
        <time>2021-08-08T06:11:51Z</time>
      </trkpt>
      <trkpt lat="48.90608" lon="7.47232">
        <ele>308</ele>
        <time>2021-08-08T06:11:52Z</time>
      </trkpt>
      <trkpt lat="48.90608" lon="7.47232">
        <ele>308</ele>
        <time>2021-08-08T06:11:53Z</time>
      </trkpt>
      <trkpt lat="48.90614" lon="7.47218">
        <ele>308</ele>
        <time>2021-08-08T06:11:54Z</time>
      </trkpt>
      <trkpt lat="48.90617" lon="7.47211">
        <ele>308</ele>
        <time>2021-08-08T06:11:55Z</time>
      </trkpt>
      <trkpt lat="48.90617" lon="7.47211">
        <ele>308</ele>
        <time>2021-08-08T06:11:56Z</time>
      </trkpt>
      <trkpt lat="48.90622" lon="7.47197">
        <ele>308</ele>
        <time>2021-08-08T06:11:57Z</time>
      </trkpt>
      <trkpt lat="48.90622" lon="7.47197">
        <ele>308</ele>
        <time>2021-08-08T06:11:58Z</time>
      </trkpt>
      <trkpt lat="48.90627" lon="7.47184">
        <ele>308</ele>
        <time>2021-08-08T06:11:59Z</time>
      </trkpt>
      <trkpt lat="48.90627" lon="7.47184">
        <ele>308</ele>
        <time>2021-08-08T06:12:00Z</time>
      </trkpt>
      <trkpt lat="48.90633" lon="7.4717">
        <ele>308</ele>
        <time>2021-08-08T06:12:01Z</time>
      </trkpt>
      <trkpt lat="48.90633" lon="7.4717">
        <ele>308</ele>
        <time>2021-08-08T06:12:02Z</time>
      </trkpt>
      <trkpt lat="48.90638" lon="7.47156">
        <ele>308</ele>
        <time>2021-08-08T06:12:03Z</time>
      </trkpt>
      <trkpt lat="48.90641" lon="7.47149">
        <ele>308</ele>
        <time>2021-08-08T06:12:04Z</time>
      </trkpt>
      <trkpt lat="48.90641" lon="7.47149">
        <ele>308</ele>
        <time>2021-08-08T06:12:05Z</time>
      </trkpt>
      <trkpt lat="48.90648" lon="7.47133">
        <ele>308</ele>
        <time>2021-08-08T06:12:06Z</time>
      </trkpt>
      <trkpt lat="48.90648" lon="7.47133">
        <ele>308</ele>
        <time>2021-08-08T06:12:07Z</time>
      </trkpt>
      <trkpt lat="48.90654" lon="7.47118">
        <ele>308</ele>
        <time>2021-08-08T06:12:08Z</time>
      </trkpt>
      <trkpt lat="48.90654" lon="7.47118">
        <ele>308</ele>
        <time>2021-08-08T06:12:09Z</time>
      </trkpt>
      <trkpt lat="48.90659" lon="7.47107">
        <ele>307</ele>
        <time>2021-08-08T06:12:10Z</time>
      </trkpt>
      <trkpt lat="48.90661" lon="7.47101">
        <ele>307</ele>
        <time>2021-08-08T06:12:11Z</time>
      </trkpt>
      <trkpt lat="48.90661" lon="7.47101">
        <ele>307</ele>
        <time>2021-08-08T06:12:12Z</time>
      </trkpt>
      <trkpt lat="48.90667" lon="7.47091">
        <ele>307</ele>
        <time>2021-08-08T06:12:13Z</time>
      </trkpt>
      <trkpt lat="48.90667" lon="7.47091">
        <ele>307</ele>
        <time>2021-08-08T06:12:14Z</time>
      </trkpt>
      <trkpt lat="48.90672" lon="7.47083">
        <ele>307</ele>
        <time>2021-08-08T06:12:15Z</time>
      </trkpt>
      <trkpt lat="48.90674" lon="7.47078">
        <ele>307</ele>
        <time>2021-08-08T06:12:16Z</time>
      </trkpt>
      <trkpt lat="48.90674" lon="7.47078">
        <ele>307</ele>
        <time>2021-08-08T06:12:17Z</time>
      </trkpt>
      <trkpt lat="48.90676" lon="7.47069">
        <ele>307</ele>
        <time>2021-08-08T06:12:18Z</time>
      </trkpt>
      <trkpt lat="48.90676" lon="7.47065">
        <ele>307</ele>
        <time>2021-08-08T06:12:19Z</time>
      </trkpt>
      <trkpt lat="48.90676" lon="7.47062">
        <ele>308</ele>
        <time>2021-08-08T06:12:20Z</time>
      </trkpt>
      <trkpt lat="48.90676" lon="7.47062">
        <ele>308</ele>
        <time>2021-08-08T06:12:21Z</time>
      </trkpt>
      <trkpt lat="48.90678" lon="7.47057">
        <ele>308</ele>
        <time>2021-08-08T06:12:22Z</time>
      </trkpt>
      <trkpt lat="48.90678" lon="7.47057">
        <ele>308</ele>
        <time>2021-08-08T06:12:23Z</time>
      </trkpt>
      <trkpt lat="48.9068" lon="7.47052">
        <ele>308</ele>
        <time>2021-08-08T06:12:24Z</time>
      </trkpt>
      <trkpt lat="48.9068" lon="7.47052">
        <ele>308</ele>
        <time>2021-08-08T06:12:25Z</time>
      </trkpt>
      <trkpt lat="48.90683" lon="7.47049">
        <ele>308</ele>
        <time>2021-08-08T06:12:26Z</time>
      </trkpt>
      <trkpt lat="48.90685" lon="7.47047">
        <ele>308</ele>
        <time>2021-08-08T06:12:27Z</time>
      </trkpt>
      <trkpt lat="48.90685" lon="7.47047">
        <ele>308</ele>
        <time>2021-08-08T06:12:28Z</time>
      </trkpt>
      <trkpt lat="48.90688" lon="7.47043">
        <ele>308</ele>
        <time>2021-08-08T06:12:29Z</time>
      </trkpt>
      <trkpt lat="48.90688" lon="7.47043">
        <ele>309</ele>
        <time>2021-08-08T06:12:30Z</time>
      </trkpt>
      <trkpt lat="48.9069" lon="7.47041">
        <ele>309</ele>
        <time>2021-08-08T06:12:31Z</time>
      </trkpt>
      <trkpt lat="48.9069" lon="7.47041">
        <ele>309</ele>
        <time>2021-08-08T06:12:32Z</time>
      </trkpt>
      <trkpt lat="48.90692" lon="7.47039">
        <ele>309</ele>
        <time>2021-08-08T06:12:33Z</time>
      </trkpt>
      <trkpt lat="48.90692" lon="7.47039">
        <ele>309</ele>
        <time>2021-08-08T06:12:34Z</time>
      </trkpt>
      <trkpt lat="48.90696" lon="7.47037">
        <ele>309</ele>
        <time>2021-08-08T06:12:35Z</time>
      </trkpt>
      <trkpt lat="48.90696" lon="7.47037">
        <ele>310</ele>
        <time>2021-08-08T06:12:36Z</time>
      </trkpt>
      <trkpt lat="48.90703" lon="7.47029">
        <ele>310</ele>
        <time>2021-08-08T06:12:37Z</time>
      </trkpt>
      <trkpt lat="48.90703" lon="7.47029">
        <ele>310</ele>
        <time>2021-08-08T06:12:38Z</time>
      </trkpt>
      <trkpt lat="48.9071" lon="7.47023">
        <ele>310</ele>
        <time>2021-08-08T06:12:39Z</time>
      </trkpt>
      <trkpt lat="48.90714" lon="7.4702">
        <ele>310</ele>
        <time>2021-08-08T06:12:40Z</time>
      </trkpt>
      <trkpt lat="48.90714" lon="7.4702">
        <ele>311</ele>
        <time>2021-08-08T06:12:41Z</time>
      </trkpt>
      <trkpt lat="48.90718" lon="7.47016">
        <ele>311</ele>
        <time>2021-08-08T06:12:42Z</time>
      </trkpt>
      <trkpt lat="48.9072" lon="7.47015">
        <ele>311</ele>
        <time>2021-08-08T06:12:43Z</time>
      </trkpt>
      <trkpt lat="48.90722" lon="7.47014">
        <ele>311</ele>
        <time>2021-08-08T06:12:44Z</time>
      </trkpt>
      <trkpt lat="48.90722" lon="7.47014">
        <ele>312</ele>
        <time>2021-08-08T06:12:45Z</time>
      </trkpt>
      <trkpt lat="48.90724" lon="7.47011">
        <ele>312</ele>
        <time>2021-08-08T06:12:46Z</time>
      </trkpt>
      <trkpt lat="48.90724" lon="7.47011">
        <ele>312</ele>
        <time>2021-08-08T06:12:47Z</time>
      </trkpt>
      <trkpt lat="48.90727" lon="7.47009">
        <ele>313</ele>
        <time>2021-08-08T06:12:48Z</time>
      </trkpt>
      <trkpt lat="48.90729" lon="7.47008">
        <ele>313</ele>
        <time>2021-08-08T06:12:49Z</time>
      </trkpt>
      <trkpt lat="48.90729" lon="7.47008">
        <ele>313</ele>
        <time>2021-08-08T06:12:50Z</time>
      </trkpt>
      <trkpt lat="48.90733" lon="7.47005">
        <ele>313</ele>
        <time>2021-08-08T06:12:51Z</time>
      </trkpt>
      <trkpt lat="48.90734" lon="7.47003">
        <ele>313</ele>
        <time>2021-08-08T06:12:52Z</time>
      </trkpt>
      <trkpt lat="48.90734" lon="7.47003">
        <ele>313</ele>
        <time>2021-08-08T06:12:53Z</time>
      </trkpt>
      <trkpt lat="48.90738" lon="7.47">
        <ele>314</ele>
        <time>2021-08-08T06:12:54Z</time>
      </trkpt>
      <trkpt lat="48.90738" lon="7.47">
        <ele>314</ele>
        <time>2021-08-08T06:12:55Z</time>
      </trkpt>
      <trkpt lat="48.90741" lon="7.46997">
        <ele>314</ele>
        <time>2021-08-08T06:12:56Z</time>
      </trkpt>
      <trkpt lat="48.90741" lon="7.46997">
        <ele>314</ele>
        <time>2021-08-08T06:12:57Z</time>
      </trkpt>
      <trkpt lat="48.90745" lon="7.46995">
        <ele>314</ele>
        <time>2021-08-08T06:12:58Z</time>
      </trkpt>
      <trkpt lat="48.90747" lon="7.46994">
        <ele>314</ele>
        <time>2021-08-08T06:12:59Z</time>
      </trkpt>
      <trkpt lat="48.90748" lon="7.46992">
        <ele>314</ele>
        <time>2021-08-08T06:13:00Z</time>
      </trkpt>
      <trkpt lat="48.9075" lon="7.46992">
        <ele>314</ele>
        <time>2021-08-08T06:13:01Z</time>
      </trkpt>
      <trkpt lat="48.9075" lon="7.46992">
        <ele>314</ele>
        <time>2021-08-08T06:13:02Z</time>
      </trkpt>
      <trkpt lat="48.90753" lon="7.4699">
        <ele>314</ele>
        <time>2021-08-08T06:13:03Z</time>
      </trkpt>
      <trkpt lat="48.90753" lon="7.4699">
        <ele>314</ele>
        <time>2021-08-08T06:13:04Z</time>
      </trkpt>
      <trkpt lat="48.90756" lon="7.46988">
        <ele>314</ele>
        <time>2021-08-08T06:13:05Z</time>
      </trkpt>
      <trkpt lat="48.90756" lon="7.46988">
        <ele>316</ele>
        <time>2021-08-08T06:13:06Z</time>
      </trkpt>
      <trkpt lat="48.90759" lon="7.46984">
        <ele>316</ele>
        <time>2021-08-08T06:13:07Z</time>
      </trkpt>
      <trkpt lat="48.90759" lon="7.46984">
        <ele>316</ele>
        <time>2021-08-08T06:13:08Z</time>
      </trkpt>
      <trkpt lat="48.90762" lon="7.46983">
        <ele>316</ele>
        <time>2021-08-08T06:13:09Z</time>
      </trkpt>
      <trkpt lat="48.90764" lon="7.46981">
        <ele>316</ele>
        <time>2021-08-08T06:13:10Z</time>
      </trkpt>
      <trkpt lat="48.90764" lon="7.46981">
        <ele>316</ele>
        <time>2021-08-08T06:13:11Z</time>
      </trkpt>
      <trkpt lat="48.90768" lon="7.46979">
        <ele>316</ele>
        <time>2021-08-08T06:13:12Z</time>
      </trkpt>
      <trkpt lat="48.90769" lon="7.46979">
        <ele>316</ele>
        <time>2021-08-08T06:13:13Z</time>
      </trkpt>
      <trkpt lat="48.90769" lon="7.46979">
        <ele>317</ele>
        <time>2021-08-08T06:13:14Z</time>
      </trkpt>
      <trkpt lat="48.90772" lon="7.46979">
        <ele>317</ele>
        <time>2021-08-08T06:13:15Z</time>
      </trkpt>
      <trkpt lat="48.90772" lon="7.46979">
        <ele>317</ele>
        <time>2021-08-08T06:13:16Z</time>
      </trkpt>
      <trkpt lat="48.90774" lon="7.46977">
        <ele>317</ele>
        <time>2021-08-08T06:13:17Z</time>
      </trkpt>
      <trkpt lat="48.90774" lon="7.46977">
        <ele>317</ele>
        <time>2021-08-08T06:13:18Z</time>
      </trkpt>
      <trkpt lat="48.90777" lon="7.46976">
        <ele>317</ele>
        <time>2021-08-08T06:13:19Z</time>
      </trkpt>
      <trkpt lat="48.90779" lon="7.46976">
        <ele>317</ele>
        <time>2021-08-08T06:13:20Z</time>
      </trkpt>
      <trkpt lat="48.90779" lon="7.46976">
        <ele>317</ele>
        <time>2021-08-08T06:13:21Z</time>
      </trkpt>
      <trkpt lat="48.90783" lon="7.46973">
        <ele>317</ele>
        <time>2021-08-08T06:13:22Z</time>
      </trkpt>
      <trkpt lat="48.90783" lon="7.46973">
        <ele>317</ele>
        <time>2021-08-08T06:13:23Z</time>
      </trkpt>
      <trkpt lat="48.90786" lon="7.46972">
        <ele>318</ele>
        <time>2021-08-08T06:13:24Z</time>
      </trkpt>
      <trkpt lat="48.90787" lon="7.46972">
        <ele>318</ele>
        <time>2021-08-08T06:13:25Z</time>
      </trkpt>
      <trkpt lat="48.90787" lon="7.46972">
        <ele>318</ele>
        <time>2021-08-08T06:13:26Z</time>
      </trkpt>
      <trkpt lat="48.90789" lon="7.4697">
        <ele>318</ele>
        <time>2021-08-08T06:13:27Z</time>
      </trkpt>
      <trkpt lat="48.90789" lon="7.4697">
        <ele>318</ele>
        <time>2021-08-08T06:13:28Z</time>
      </trkpt>
      <trkpt lat="48.90793" lon="7.46968">
        <ele>318</ele>
        <time>2021-08-08T06:13:29Z</time>
      </trkpt>
      <trkpt lat="48.90793" lon="7.46968">
        <ele>319</ele>
        <time>2021-08-08T06:13:30Z</time>
      </trkpt>
      <trkpt lat="48.90796" lon="7.46968">
        <ele>319</ele>
        <time>2021-08-08T06:13:31Z</time>
      </trkpt>
      <trkpt lat="48.90796" lon="7.46968">
        <ele>319</ele>
        <time>2021-08-08T06:13:32Z</time>
      </trkpt>
      <trkpt lat="48.90798" lon="7.46966">
        <ele>319</ele>
        <time>2021-08-08T06:13:33Z</time>
      </trkpt>
      <trkpt lat="48.90799" lon="7.46965">
        <ele>320</ele>
        <time>2021-08-08T06:13:34Z</time>
      </trkpt>
      <trkpt lat="48.90799" lon="7.46965">
        <ele>320</ele>
        <time>2021-08-08T06:13:35Z</time>
      </trkpt>
      <trkpt lat="48.90801" lon="7.46965">
        <ele>320</ele>
        <time>2021-08-08T06:13:36Z</time>
      </trkpt>
      <trkpt lat="48.90803" lon="7.46965">
        <ele>320</ele>
        <time>2021-08-08T06:13:37Z</time>
      </trkpt>
      <trkpt lat="48.90803" lon="7.46965">
        <ele>320</ele>
        <time>2021-08-08T06:13:38Z</time>
      </trkpt>
      <trkpt lat="48.90808" lon="7.46964">
        <ele>320</ele>
        <time>2021-08-08T06:13:39Z</time>
      </trkpt>
      <trkpt lat="48.90811" lon="7.46966">
        <ele>321</ele>
        <time>2021-08-08T06:13:40Z</time>
      </trkpt>
      <trkpt lat="48.90811" lon="7.46966">
        <ele>321</ele>
        <time>2021-08-08T06:13:41Z</time>
      </trkpt>
      <trkpt lat="48.90816" lon="7.46966">
        <ele>321</ele>
        <time>2021-08-08T06:13:42Z</time>
      </trkpt>
      <trkpt lat="48.90816" lon="7.46966">
        <ele>321</ele>
        <time>2021-08-08T06:13:43Z</time>
      </trkpt>
      <trkpt lat="48.9082" lon="7.46968">
        <ele>321</ele>
        <time>2021-08-08T06:13:44Z</time>
      </trkpt>
      <trkpt lat="48.9082" lon="7.46968">
        <ele>321</ele>
        <time>2021-08-08T06:13:45Z</time>
      </trkpt>
      <trkpt lat="48.90822" lon="7.46968">
        <ele>322</ele>
        <time>2021-08-08T06:13:46Z</time>
      </trkpt>
      <trkpt lat="48.90824" lon="7.46969">
        <ele>322</ele>
        <time>2021-08-08T06:13:47Z</time>
      </trkpt>
      <trkpt lat="48.90824" lon="7.46969">
        <ele>322</ele>
        <time>2021-08-08T06:13:48Z</time>
      </trkpt>
      <trkpt lat="48.90828" lon="7.46969">
        <ele>322</ele>
        <time>2021-08-08T06:13:49Z</time>
      </trkpt>
      <trkpt lat="48.90828" lon="7.46969">
        <ele>322</ele>
        <time>2021-08-08T06:13:50Z</time>
      </trkpt>
      <trkpt lat="48.90831" lon="7.4697">
        <ele>322</ele>
        <time>2021-08-08T06:13:51Z</time>
      </trkpt>
      <trkpt lat="48.90831" lon="7.4697">
        <ele>322</ele>
        <time>2021-08-08T06:13:52Z</time>
      </trkpt>
      <trkpt lat="48.90834" lon="7.46972">
        <ele>322</ele>
        <time>2021-08-08T06:13:53Z</time>
      </trkpt>
      <trkpt lat="48.90834" lon="7.46972">
        <ele>322</ele>
        <time>2021-08-08T06:13:54Z</time>
      </trkpt>
      <trkpt lat="48.90838" lon="7.46973">
        <ele>322</ele>
        <time>2021-08-08T06:13:55Z</time>
      </trkpt>
      <trkpt lat="48.90838" lon="7.46973">
        <ele>323</ele>
        <time>2021-08-08T06:13:56Z</time>
      </trkpt>
      <trkpt lat="48.90842" lon="7.46973">
        <ele>323</ele>
        <time>2021-08-08T06:13:57Z</time>
      </trkpt>
      <trkpt lat="48.90842" lon="7.46973">
        <ele>323</ele>
        <time>2021-08-08T06:13:58Z</time>
      </trkpt>
      <trkpt lat="48.90844" lon="7.46973">
        <ele>323</ele>
        <time>2021-08-08T06:13:59Z</time>
      </trkpt>
      <trkpt lat="48.90847" lon="7.46974">
        <ele>323</ele>
        <time>2021-08-08T06:14:00Z</time>
      </trkpt>
      <trkpt lat="48.90849" lon="7.46974">
        <ele>323</ele>
        <time>2021-08-08T06:14:01Z</time>
      </trkpt>
      <trkpt lat="48.90849" lon="7.46974">
        <ele>324</ele>
        <time>2021-08-08T06:14:02Z</time>
      </trkpt>
      <trkpt lat="48.90853" lon="7.46974">
        <ele>324</ele>
        <time>2021-08-08T06:14:03Z</time>
      </trkpt>
      <trkpt lat="48.90853" lon="7.46974">
        <ele>324</ele>
        <time>2021-08-08T06:14:04Z</time>
      </trkpt>
      <trkpt lat="48.90857" lon="7.46974">
        <ele>324</ele>
        <time>2021-08-08T06:14:05Z</time>
      </trkpt>
      <trkpt lat="48.90857" lon="7.46974">
        <ele>324</ele>
        <time>2021-08-08T06:14:06Z</time>
      </trkpt>
      <trkpt lat="48.9086" lon="7.46974">
        <ele>324</ele>
        <time>2021-08-08T06:14:07Z</time>
      </trkpt>
      <trkpt lat="48.90862" lon="7.46973">
        <ele>324</ele>
        <time>2021-08-08T06:14:08Z</time>
      </trkpt>
      <trkpt lat="48.90862" lon="7.46973">
        <ele>324</ele>
        <time>2021-08-08T06:14:09Z</time>
      </trkpt>
      <trkpt lat="48.90867" lon="7.46972">
        <ele>324</ele>
        <time>2021-08-08T06:14:10Z</time>
      </trkpt>
      <trkpt lat="48.90867" lon="7.46972">
        <ele>324</ele>
        <time>2021-08-08T06:14:11Z</time>
      </trkpt>
      <trkpt lat="48.90872" lon="7.46966">
        <ele>324</ele>
        <time>2021-08-08T06:14:12Z</time>
      </trkpt>
      <trkpt lat="48.90873" lon="7.46962">
        <ele>324</ele>
        <time>2021-08-08T06:14:13Z</time>
      </trkpt>
      <trkpt lat="48.90874" lon="7.46959">
        <ele>324</ele>
        <time>2021-08-08T06:14:14Z</time>
      </trkpt>
      <trkpt lat="48.90874" lon="7.46959">
        <ele>324</ele>
        <time>2021-08-08T06:14:15Z</time>
      </trkpt>
      <trkpt lat="48.90877" lon="7.46952">
        <ele>324</ele>
        <time>2021-08-08T06:14:16Z</time>
      </trkpt>
      <trkpt lat="48.90877" lon="7.46952">
        <ele>324</ele>
        <time>2021-08-08T06:14:17Z</time>
      </trkpt>
      <trkpt lat="48.90878" lon="7.46946">
        <ele>324</ele>
        <time>2021-08-08T06:14:18Z</time>
      </trkpt>
      <trkpt lat="48.90878" lon="7.46942">
        <ele>324</ele>
        <time>2021-08-08T06:14:19Z</time>
      </trkpt>
      <trkpt lat="48.90878" lon="7.46942">
        <ele>324</ele>
        <time>2021-08-08T06:14:20Z</time>
      </trkpt>
      <trkpt lat="48.90879" lon="7.46934">
        <ele>323</ele>
        <time>2021-08-08T06:14:21Z</time>
      </trkpt>
      <trkpt lat="48.90879" lon="7.46934">
        <ele>323</ele>
        <time>2021-08-08T06:14:22Z</time>
      </trkpt>
      <trkpt lat="48.9088" lon="7.46925">
        <ele>323</ele>
        <time>2021-08-08T06:14:23Z</time>
      </trkpt>
      <trkpt lat="48.9088" lon="7.46925">
        <ele>323</ele>
        <time>2021-08-08T06:14:24Z</time>
      </trkpt>
      <trkpt lat="48.90879" lon="7.46919">
        <ele>323</ele>
        <time>2021-08-08T06:14:25Z</time>
      </trkpt>
      <trkpt lat="48.90879" lon="7.46919">
        <ele>323</ele>
        <time>2021-08-08T06:14:26Z</time>
      </trkpt>
      <trkpt lat="48.90878" lon="7.46911">
        <ele>323</ele>
        <time>2021-08-08T06:14:27Z</time>
      </trkpt>
      <trkpt lat="48.90878" lon="7.46911">
        <ele>323</ele>
        <time>2021-08-08T06:14:28Z</time>
      </trkpt>
      <trkpt lat="48.90877" lon="7.46904">
        <ele>323</ele>
        <time>2021-08-08T06:14:29Z</time>
      </trkpt>
      <trkpt lat="48.90877" lon="7.46904">
        <ele>323</ele>
        <time>2021-08-08T06:14:30Z</time>
      </trkpt>
      <trkpt lat="48.90876" lon="7.46896">
        <ele>322</ele>
        <time>2021-08-08T06:14:31Z</time>
      </trkpt>
      <trkpt lat="48.90876" lon="7.46896">
        <ele>322</ele>
        <time>2021-08-08T06:14:32Z</time>
      </trkpt>
      <trkpt lat="48.90874" lon="7.46886">
        <ele>322</ele>
        <time>2021-08-08T06:14:33Z</time>
      </trkpt>
      <trkpt lat="48.90874" lon="7.46886">
        <ele>322</ele>
        <time>2021-08-08T06:14:34Z</time>
      </trkpt>
      <trkpt lat="48.90872" lon="7.46873">
        <ele>322</ele>
        <time>2021-08-08T06:14:35Z</time>
      </trkpt>
      <trkpt lat="48.90872" lon="7.46873">
        <ele>322</ele>
        <time>2021-08-08T06:14:36Z</time>
      </trkpt>
      <trkpt lat="48.90869" lon="7.4686">
        <ele>322</ele>
        <time>2021-08-08T06:14:37Z</time>
      </trkpt>
      <trkpt lat="48.90869" lon="7.4686">
        <ele>322</ele>
        <time>2021-08-08T06:14:38Z</time>
      </trkpt>
      <trkpt lat="48.90866" lon="7.46847">
        <ele>322</ele>
        <time>2021-08-08T06:14:39Z</time>
      </trkpt>
      <trkpt lat="48.90866" lon="7.46847">
        <ele>321</ele>
        <time>2021-08-08T06:14:40Z</time>
      </trkpt>
      <trkpt lat="48.90861" lon="7.46832">
        <ele>321</ele>
        <time>2021-08-08T06:14:41Z</time>
      </trkpt>
      <trkpt lat="48.90861" lon="7.46832">
        <ele>321</ele>
        <time>2021-08-08T06:14:42Z</time>
      </trkpt>
      <trkpt lat="48.90857" lon="7.4682">
        <ele>321</ele>
        <time>2021-08-08T06:14:43Z</time>
      </trkpt>
      <trkpt lat="48.90857" lon="7.4682">
        <ele>321</ele>
        <time>2021-08-08T06:14:44Z</time>
      </trkpt>
      <trkpt lat="48.90854" lon="7.46809">
        <ele>321</ele>
        <time>2021-08-08T06:14:45Z</time>
      </trkpt>
      <trkpt lat="48.90854" lon="7.46809">
        <ele>321</ele>
        <time>2021-08-08T06:14:46Z</time>
      </trkpt>
      <trkpt lat="48.90853" lon="7.46797">
        <ele>321</ele>
        <time>2021-08-08T06:14:47Z</time>
      </trkpt>
      <trkpt lat="48.90853" lon="7.46797">
        <ele>320</ele>
        <time>2021-08-08T06:14:48Z</time>
      </trkpt>
      <trkpt lat="48.90853" lon="7.46786">
        <ele>320</ele>
        <time>2021-08-08T06:14:49Z</time>
      </trkpt>
      <trkpt lat="48.90853" lon="7.46786">
        <ele>320</ele>
        <time>2021-08-08T06:14:50Z</time>
      </trkpt>
      <trkpt lat="48.90851" lon="7.46774">
        <ele>320</ele>
        <time>2021-08-08T06:14:51Z</time>
      </trkpt>
      <trkpt lat="48.90851" lon="7.46774">
        <ele>318</ele>
        <time>2021-08-08T06:14:52Z</time>
      </trkpt>
      <trkpt lat="48.90851" lon="7.46763">
        <ele>318</ele>
        <time>2021-08-08T06:14:53Z</time>
      </trkpt>
      <trkpt lat="48.90851" lon="7.46763">
        <ele>317</ele>
        <time>2021-08-08T06:14:54Z</time>
      </trkpt>
      <trkpt lat="48.90851" lon="7.46751">
        <ele>317</ele>
        <time>2021-08-08T06:14:55Z</time>
      </trkpt>
      <trkpt lat="48.90851" lon="7.46751">
        <ele>317</ele>
        <time>2021-08-08T06:14:56Z</time>
      </trkpt>
      <trkpt lat="48.90851" lon="7.46738">
        <ele>317</ele>
        <time>2021-08-08T06:14:57Z</time>
      </trkpt>
      <trkpt lat="48.90851" lon="7.46738">
        <ele>316</ele>
        <time>2021-08-08T06:14:58Z</time>
      </trkpt>
      <trkpt lat="48.90851" lon="7.46722">
        <ele>316</ele>
        <time>2021-08-08T06:14:59Z</time>
      </trkpt>
      <trkpt lat="48.90851" lon="7.46722">
        <ele>315</ele>
        <time>2021-08-08T06:15:00Z</time>
      </trkpt>
      <trkpt lat="48.90851" lon="7.46709">
        <ele>315</ele>
        <time>2021-08-08T06:15:01Z</time>
      </trkpt>
      <trkpt lat="48.90851" lon="7.46709">
        <ele>314</ele>
        <time>2021-08-08T06:15:02Z</time>
      </trkpt>
      <trkpt lat="48.90851" lon="7.46697">
        <ele>314</ele>
        <time>2021-08-08T06:15:03Z</time>
      </trkpt>
      <trkpt lat="48.90851" lon="7.46697">
        <ele>313</ele>
        <time>2021-08-08T06:15:04Z</time>
      </trkpt>
      <trkpt lat="48.90851" lon="7.46686">
        <ele>313</ele>
        <time>2021-08-08T06:15:05Z</time>
      </trkpt>
      <trkpt lat="48.90851" lon="7.46686">
        <ele>312</ele>
        <time>2021-08-08T06:15:06Z</time>
      </trkpt>
      <trkpt lat="48.9085" lon="7.46673">
        <ele>312</ele>
        <time>2021-08-08T06:15:07Z</time>
      </trkpt>
      <trkpt lat="48.9085" lon="7.46673">
        <ele>311</ele>
        <time>2021-08-08T06:15:08Z</time>
      </trkpt>
      <trkpt lat="48.90849" lon="7.46662">
        <ele>311</ele>
        <time>2021-08-08T06:15:09Z</time>
      </trkpt>
      <trkpt lat="48.90849" lon="7.46662">
        <ele>310</ele>
        <time>2021-08-08T06:15:10Z</time>
      </trkpt>
      <trkpt lat="48.90848" lon="7.46652">
        <ele>310</ele>
        <time>2021-08-08T06:15:11Z</time>
      </trkpt>
      <trkpt lat="48.90848" lon="7.46652">
        <ele>310</ele>
        <time>2021-08-08T06:15:12Z</time>
      </trkpt>
      <trkpt lat="48.90847" lon="7.46638">
        <ele>310</ele>
        <time>2021-08-08T06:15:13Z</time>
      </trkpt>
      <trkpt lat="48.90847" lon="7.46632">
        <ele>309</ele>
        <time>2021-08-08T06:15:14Z</time>
      </trkpt>
      <trkpt lat="48.90847" lon="7.46632">
        <ele>309</ele>
        <time>2021-08-08T06:15:15Z</time>
      </trkpt>
      <trkpt lat="48.90844" lon="7.4662">
        <ele>308</ele>
        <time>2021-08-08T06:15:16Z</time>
      </trkpt>
      <trkpt lat="48.90844" lon="7.4662">
        <ele>308</ele>
        <time>2021-08-08T06:15:17Z</time>
      </trkpt>
      <trkpt lat="48.90843" lon="7.46605">
        <ele>307</ele>
        <time>2021-08-08T06:15:18Z</time>
      </trkpt>
      <trkpt lat="48.90843" lon="7.46598">
        <ele>307</ele>
        <time>2021-08-08T06:15:19Z</time>
      </trkpt>
      <trkpt lat="48.90843" lon="7.46598">
        <ele>306</ele>
        <time>2021-08-08T06:15:20Z</time>
      </trkpt>
      <trkpt lat="48.90843" lon="7.46587">
        <ele>306</ele>
        <time>2021-08-08T06:15:21Z</time>
      </trkpt>
      <trkpt lat="48.90843" lon="7.46587">
        <ele>305</ele>
        <time>2021-08-08T06:15:22Z</time>
      </trkpt>
      <trkpt lat="48.90842" lon="7.46572">
        <ele>305</ele>
        <time>2021-08-08T06:15:23Z</time>
      </trkpt>
      <trkpt lat="48.90842" lon="7.46572">
        <ele>303</ele>
        <time>2021-08-08T06:15:24Z</time>
      </trkpt>
      <trkpt lat="48.9084" lon="7.46559">
        <ele>303</ele>
        <time>2021-08-08T06:15:25Z</time>
      </trkpt>
      <trkpt lat="48.9084" lon="7.46559">
        <ele>302</ele>
        <time>2021-08-08T06:15:26Z</time>
      </trkpt>
      <trkpt lat="48.90841" lon="7.46548">
        <ele>302</ele>
        <time>2021-08-08T06:15:27Z</time>
      </trkpt>
      <trkpt lat="48.90841" lon="7.46548">
        <ele>301</ele>
        <time>2021-08-08T06:15:28Z</time>
      </trkpt>
      <trkpt lat="48.9084" lon="7.46536">
        <ele>301</ele>
        <time>2021-08-08T06:15:29Z</time>
      </trkpt>
      <trkpt lat="48.9084" lon="7.46536">
        <ele>300</ele>
        <time>2021-08-08T06:15:30Z</time>
      </trkpt>
      <trkpt lat="48.90839" lon="7.46523">
        <ele>300</ele>
        <time>2021-08-08T06:15:31Z</time>
      </trkpt>
      <trkpt lat="48.90839" lon="7.46523">
        <ele>299</ele>
        <time>2021-08-08T06:15:32Z</time>
      </trkpt>
      <trkpt lat="48.90837" lon="7.46509">
        <ele>299</ele>
        <time>2021-08-08T06:15:33Z</time>
      </trkpt>
      <trkpt lat="48.90837" lon="7.46509">
        <ele>298</ele>
        <time>2021-08-08T06:15:34Z</time>
      </trkpt>
      <trkpt lat="48.90836" lon="7.46494">
        <ele>298</ele>
        <time>2021-08-08T06:15:35Z</time>
      </trkpt>
      <trkpt lat="48.90836" lon="7.46494">
        <ele>297</ele>
        <time>2021-08-08T06:15:36Z</time>
      </trkpt>
      <trkpt lat="48.90839" lon="7.46475">
        <ele>296</ele>
        <time>2021-08-08T06:15:37Z</time>
      </trkpt>
      <trkpt lat="48.90839" lon="7.46475">
        <ele>296</ele>
        <time>2021-08-08T06:15:38Z</time>
      </trkpt>
      <trkpt lat="48.90838" lon="7.4646">
        <ele>295</ele>
        <time>2021-08-08T06:15:39Z</time>
      </trkpt>
      <trkpt lat="48.90838" lon="7.4646">
        <ele>295</ele>
        <time>2021-08-08T06:15:40Z</time>
      </trkpt>
      <trkpt lat="48.90841" lon="7.46447">
        <ele>294</ele>
        <time>2021-08-08T06:15:41Z</time>
      </trkpt>
      <trkpt lat="48.90841" lon="7.46447">
        <ele>294</ele>
        <time>2021-08-08T06:15:42Z</time>
      </trkpt>
      <trkpt lat="48.90842" lon="7.46428">
        <ele>293</ele>
        <time>2021-08-08T06:15:43Z</time>
      </trkpt>
      <trkpt lat="48.90842" lon="7.46428">
        <ele>293</ele>
        <time>2021-08-08T06:15:44Z</time>
      </trkpt>
      <trkpt lat="48.90844" lon="7.46415">
        <ele>292</ele>
        <time>2021-08-08T06:15:45Z</time>
      </trkpt>
      <trkpt lat="48.90844" lon="7.46415">
        <ele>292</ele>
        <time>2021-08-08T06:15:46Z</time>
      </trkpt>
      <trkpt lat="48.90846" lon="7.46403">
        <ele>290</ele>
        <time>2021-08-08T06:15:47Z</time>
      </trkpt>
      <trkpt lat="48.90846" lon="7.46403">
        <ele>290</ele>
        <time>2021-08-08T06:15:48Z</time>
      </trkpt>
      <trkpt lat="48.90854" lon="7.46393">
        <ele>289</ele>
        <time>2021-08-08T06:15:49Z</time>
      </trkpt>
      <trkpt lat="48.90854" lon="7.46393">
        <ele>289</ele>
        <time>2021-08-08T06:15:50Z</time>
      </trkpt>
      <trkpt lat="48.90861" lon="7.46382">
        <ele>288</ele>
        <time>2021-08-08T06:15:51Z</time>
      </trkpt>
      <trkpt lat="48.90861" lon="7.46382">
        <ele>288</ele>
        <time>2021-08-08T06:15:52Z</time>
      </trkpt>
      <trkpt lat="48.90871" lon="7.46377">
        <ele>286</ele>
        <time>2021-08-08T06:15:53Z</time>
      </trkpt>
      <trkpt lat="48.90871" lon="7.46377">
        <ele>286</ele>
        <time>2021-08-08T06:15:54Z</time>
      </trkpt>
      <trkpt lat="48.90878" lon="7.46375">
        <ele>285</ele>
        <time>2021-08-08T06:15:55Z</time>
      </trkpt>
      <trkpt lat="48.90878" lon="7.46375">
        <ele>285</ele>
        <time>2021-08-08T06:15:56Z</time>
      </trkpt>
      <trkpt lat="48.90884" lon="7.4637">
        <ele>284</ele>
        <time>2021-08-08T06:15:57Z</time>
      </trkpt>
      <trkpt lat="48.90884" lon="7.4637">
        <ele>284</ele>
        <time>2021-08-08T06:15:58Z</time>
      </trkpt>
      <trkpt lat="48.90889" lon="7.46365">
        <ele>284</ele>
        <time>2021-08-08T06:15:59Z</time>
      </trkpt>
      <trkpt lat="48.90889" lon="7.46365">
        <ele>284</ele>
        <time>2021-08-08T06:16:00Z</time>
      </trkpt>
      <trkpt lat="48.90891" lon="7.46362">
        <ele>282</ele>
        <time>2021-08-08T06:16:01Z</time>
      </trkpt>
      <trkpt lat="48.90891" lon="7.46362">
        <ele>282</ele>
        <time>2021-08-08T06:16:02Z</time>
      </trkpt>
      <trkpt lat="48.90894" lon="7.46356">
        <ele>282</ele>
        <time>2021-08-08T06:16:03Z</time>
      </trkpt>
      <trkpt lat="48.90894" lon="7.46356">
        <ele>282</ele>
        <time>2021-08-08T06:16:04Z</time>
      </trkpt>
      <trkpt lat="48.90896" lon="7.46347">
        <ele>281</ele>
        <time>2021-08-08T06:16:05Z</time>
      </trkpt>
      <trkpt lat="48.90898" lon="7.46341">
        <ele>281</ele>
        <time>2021-08-08T06:16:06Z</time>
      </trkpt>
      <trkpt lat="48.909" lon="7.46335">
        <ele>281</ele>
        <time>2021-08-08T06:16:07Z</time>
      </trkpt>
      <trkpt lat="48.909" lon="7.46335">
        <ele>281</ele>
        <time>2021-08-08T06:16:08Z</time>
      </trkpt>
      <trkpt lat="48.90903" lon="7.46323">
        <ele>281</ele>
        <time>2021-08-08T06:16:09Z</time>
      </trkpt>
      <trkpt lat="48.90903" lon="7.46323">
        <ele>281</ele>
        <time>2021-08-08T06:16:10Z</time>
      </trkpt>
      <trkpt lat="48.90906" lon="7.46312">
        <ele>281</ele>
        <time>2021-08-08T06:16:11Z</time>
      </trkpt>
      <trkpt lat="48.90906" lon="7.46312">
        <ele>281</ele>
        <time>2021-08-08T06:16:12Z</time>
      </trkpt>
      <trkpt lat="48.90911" lon="7.46303">
        <ele>281</ele>
        <time>2021-08-08T06:16:13Z</time>
      </trkpt>
      <trkpt lat="48.90911" lon="7.46303">
        <ele>281</ele>
        <time>2021-08-08T06:16:14Z</time>
      </trkpt>
      <trkpt lat="48.90916" lon="7.46296">
        <ele>281</ele>
        <time>2021-08-08T06:16:15Z</time>
      </trkpt>
      <trkpt lat="48.90921" lon="7.46294">
        <ele>281</ele>
        <time>2021-08-08T06:16:16Z</time>
      </trkpt>
      <trkpt lat="48.90921" lon="7.46294">
        <ele>280</ele>
        <time>2021-08-08T06:16:17Z</time>
      </trkpt>
      <trkpt lat="48.90928" lon="7.4629">
        <ele>280</ele>
        <time>2021-08-08T06:16:18Z</time>
      </trkpt>
      <trkpt lat="48.90931" lon="7.46288">
        <ele>280</ele>
        <time>2021-08-08T06:16:19Z</time>
      </trkpt>
      <trkpt lat="48.90933" lon="7.46286">
        <ele>280</ele>
        <time>2021-08-08T06:16:20Z</time>
      </trkpt>
      <trkpt lat="48.90933" lon="7.46286">
        <ele>280</ele>
        <time>2021-08-08T06:16:21Z</time>
      </trkpt>
      <trkpt lat="48.90937" lon="7.46283">
        <ele>280</ele>
        <time>2021-08-08T06:16:22Z</time>
      </trkpt>
      <trkpt lat="48.90937" lon="7.46283">
        <ele>280</ele>
        <time>2021-08-08T06:16:23Z</time>
      </trkpt>
      <trkpt lat="48.90941" lon="7.4628">
        <ele>280</ele>
        <time>2021-08-08T06:16:24Z</time>
      </trkpt>
      <trkpt lat="48.90941" lon="7.4628">
        <ele>280</ele>
        <time>2021-08-08T06:16:25Z</time>
      </trkpt>
      <trkpt lat="48.90944" lon="7.46279">
        <ele>280</ele>
        <time>2021-08-08T06:16:26Z</time>
      </trkpt>
      <trkpt lat="48.90945" lon="7.46278">
        <ele>280</ele>
        <time>2021-08-08T06:16:27Z</time>
      </trkpt>
      <trkpt lat="48.90945" lon="7.46278">
        <ele>280</ele>
        <time>2021-08-08T06:16:28Z</time>
      </trkpt>
      <trkpt lat="48.90947" lon="7.46277">
        <ele>280</ele>
        <time>2021-08-08T06:16:29Z</time>
      </trkpt>
      <trkpt lat="48.90947" lon="7.46277">
        <ele>281</ele>
        <time>2021-08-08T06:16:30Z</time>
      </trkpt>
      <trkpt lat="48.9095" lon="7.46275">
        <ele>281</ele>
        <time>2021-08-08T06:16:31Z</time>
      </trkpt>
      <trkpt lat="48.9095" lon="7.46275">
        <ele>281</ele>
        <time>2021-08-08T06:16:32Z</time>
      </trkpt>
      <trkpt lat="48.90953" lon="7.46272">
        <ele>282</ele>
        <time>2021-08-08T06:16:33Z</time>
      </trkpt>
      <trkpt lat="48.90953" lon="7.46272">
        <ele>282</ele>
        <time>2021-08-08T06:16:34Z</time>
      </trkpt>
      <trkpt lat="48.90955" lon="7.46271">
        <ele>282</ele>
        <time>2021-08-08T06:16:35Z</time>
      </trkpt>
      <trkpt lat="48.90956" lon="7.46272">
        <ele>282</ele>
        <time>2021-08-08T06:16:36Z</time>
      </trkpt>
      <trkpt lat="48.90956" lon="7.46272">
        <ele>283</ele>
        <time>2021-08-08T06:16:37Z</time>
      </trkpt>
      <trkpt lat="48.90959" lon="7.46271">
        <ele>283</ele>
        <time>2021-08-08T06:16:38Z</time>
      </trkpt>
      <trkpt lat="48.90959" lon="7.46271">
        <ele>283</ele>
        <time>2021-08-08T06:16:39Z</time>
      </trkpt>
      <trkpt lat="48.90961" lon="7.46271">
        <ele>283</ele>
        <time>2021-08-08T06:16:40Z</time>
      </trkpt>
      <trkpt lat="48.90963" lon="7.46271">
        <ele>283</ele>
        <time>2021-08-08T06:16:41Z</time>
      </trkpt>
      <trkpt lat="48.90963" lon="7.46271">
        <ele>283</ele>
        <time>2021-08-08T06:16:42Z</time>
      </trkpt>
      <trkpt lat="48.90967" lon="7.46272">
        <ele>283</ele>
        <time>2021-08-08T06:16:43Z</time>
      </trkpt>
      <trkpt lat="48.90967" lon="7.46272">
        <ele>283</ele>
        <time>2021-08-08T06:16:44Z</time>
      </trkpt>
      <trkpt lat="48.90973" lon="7.46273">
        <ele>284</ele>
        <time>2021-08-08T06:16:45Z</time>
      </trkpt>
      <trkpt lat="48.90973" lon="7.46273">
        <ele>284</ele>
        <time>2021-08-08T06:16:46Z</time>
      </trkpt>
      <trkpt lat="48.9098" lon="7.46274">
        <ele>284</ele>
        <time>2021-08-08T06:16:47Z</time>
      </trkpt>
      <trkpt lat="48.9098" lon="7.46274">
        <ele>284</ele>
        <time>2021-08-08T06:16:48Z</time>
      </trkpt>
      <trkpt lat="48.90986" lon="7.46273">
        <ele>284</ele>
        <time>2021-08-08T06:16:49Z</time>
      </trkpt>
      <trkpt lat="48.90988" lon="7.46272">
        <ele>284</ele>
        <time>2021-08-08T06:16:50Z</time>
      </trkpt>
      <trkpt lat="48.90988" lon="7.46272">
        <ele>284</ele>
        <time>2021-08-08T06:16:51Z</time>
      </trkpt>
      <trkpt lat="48.90992" lon="7.46272">
        <ele>284</ele>
        <time>2021-08-08T06:16:52Z</time>
      </trkpt>
      <trkpt lat="48.90992" lon="7.46272">
        <ele>284</ele>
        <time>2021-08-08T06:16:53Z</time>
      </trkpt>
      <trkpt lat="48.90998" lon="7.46272">
        <ele>284</ele>
        <time>2021-08-08T06:16:54Z</time>
      </trkpt>
      <trkpt lat="48.91002" lon="7.46272">
        <ele>284</ele>
        <time>2021-08-08T06:16:55Z</time>
      </trkpt>
      <trkpt lat="48.91002" lon="7.46272">
        <ele>284</ele>
        <time>2021-08-08T06:16:56Z</time>
      </trkpt>
      <trkpt lat="48.91008" lon="7.46272">
        <ele>284</ele>
        <time>2021-08-08T06:16:57Z</time>
      </trkpt>
      <trkpt lat="48.91008" lon="7.46272">
        <ele>284</ele>
        <time>2021-08-08T06:16:58Z</time>
      </trkpt>
      <trkpt lat="48.91013" lon="7.46274">
        <ele>284</ele>
        <time>2021-08-08T06:16:59Z</time>
      </trkpt>
      <trkpt lat="48.91013" lon="7.46274">
        <ele>284</ele>
        <time>2021-08-08T06:17:00Z</time>
      </trkpt>
      <trkpt lat="48.91019" lon="7.46275">
        <ele>284</ele>
        <time>2021-08-08T06:17:01Z</time>
      </trkpt>
      <trkpt lat="48.91019" lon="7.46275">
        <ele>284</ele>
        <time>2021-08-08T06:17:02Z</time>
      </trkpt>
      <trkpt lat="48.91025" lon="7.46275">
        <ele>284</ele>
        <time>2021-08-08T06:17:03Z</time>
      </trkpt>
      <trkpt lat="48.91025" lon="7.46275">
        <ele>284</ele>
        <time>2021-08-08T06:17:04Z</time>
      </trkpt>
      <trkpt lat="48.9103" lon="7.46275">
        <ele>284</ele>
        <time>2021-08-08T06:17:05Z</time>
      </trkpt>
      <trkpt lat="48.91033" lon="7.46275">
        <ele>284</ele>
        <time>2021-08-08T06:17:06Z</time>
      </trkpt>
      <trkpt lat="48.91033" lon="7.46275">
        <ele>284</ele>
        <time>2021-08-08T06:17:07Z</time>
      </trkpt>
      <trkpt lat="48.9104" lon="7.46276">
        <ele>284</ele>
        <time>2021-08-08T06:17:08Z</time>
      </trkpt>
      <trkpt lat="48.91043" lon="7.46277">
        <ele>284</ele>
        <time>2021-08-08T06:17:09Z</time>
      </trkpt>
      <trkpt lat="48.91043" lon="7.46277">
        <ele>284</ele>
        <time>2021-08-08T06:17:10Z</time>
      </trkpt>
      <trkpt lat="48.91048" lon="7.46279">
        <ele>284</ele>
        <time>2021-08-08T06:17:11Z</time>
      </trkpt>
      <trkpt lat="48.9105" lon="7.4628">
        <ele>284</ele>
        <time>2021-08-08T06:17:12Z</time>
      </trkpt>
      <trkpt lat="48.91052" lon="7.4628">
        <ele>284</ele>
        <time>2021-08-08T06:17:13Z</time>
      </trkpt>
      <trkpt lat="48.91052" lon="7.4628">
        <ele>284</ele>
        <time>2021-08-08T06:17:14Z</time>
      </trkpt>
      <trkpt lat="48.91056" lon="7.46282">
        <ele>285</ele>
        <time>2021-08-08T06:17:15Z</time>
      </trkpt>
      <trkpt lat="48.91056" lon="7.46282">
        <ele>285</ele>
        <time>2021-08-08T06:17:16Z</time>
      </trkpt>
      <trkpt lat="48.91061" lon="7.46282">
        <ele>285</ele>
        <time>2021-08-08T06:17:17Z</time>
      </trkpt>
      <trkpt lat="48.91061" lon="7.46282">
        <ele>285</ele>
        <time>2021-08-08T06:17:18Z</time>
      </trkpt>
      <trkpt lat="48.91066" lon="7.46283">
        <ele>285</ele>
        <time>2021-08-08T06:17:19Z</time>
      </trkpt>
      <trkpt lat="48.91066" lon="7.46283">
        <ele>285</ele>
        <time>2021-08-08T06:17:20Z</time>
      </trkpt>
      <trkpt lat="48.91071" lon="7.46284">
        <ele>285</ele>
        <time>2021-08-08T06:17:21Z</time>
      </trkpt>
      <trkpt lat="48.91073" lon="7.46285">
        <ele>285</ele>
        <time>2021-08-08T06:17:22Z</time>
      </trkpt>
      <trkpt lat="48.91073" lon="7.46285">
        <ele>285</ele>
        <time>2021-08-08T06:17:23Z</time>
      </trkpt>
      <trkpt lat="48.91078" lon="7.46287">
        <ele>285</ele>
        <time>2021-08-08T06:17:24Z</time>
      </trkpt>
      <trkpt lat="48.9108" lon="7.46287">
        <ele>285</ele>
        <time>2021-08-08T06:17:25Z</time>
      </trkpt>
      <trkpt lat="48.9108" lon="7.46287">
        <ele>285</ele>
        <time>2021-08-08T06:17:26Z</time>
      </trkpt>
      <trkpt lat="48.91085" lon="7.46288">
        <ele>286</ele>
        <time>2021-08-08T06:17:27Z</time>
      </trkpt>
      <trkpt lat="48.91085" lon="7.46288">
        <ele>286</ele>
        <time>2021-08-08T06:17:28Z</time>
      </trkpt>
      <trkpt lat="48.91089" lon="7.46288">
        <ele>286</ele>
        <time>2021-08-08T06:17:29Z</time>
      </trkpt>
      <trkpt lat="48.91091" lon="7.46288">
        <ele>287</ele>
        <time>2021-08-08T06:17:30Z</time>
      </trkpt>
      <trkpt lat="48.91092" lon="7.46289">
        <ele>287</ele>
        <time>2021-08-08T06:17:31Z</time>
      </trkpt>
      <trkpt lat="48.91094" lon="7.46289">
        <ele>287</ele>
        <time>2021-08-08T06:17:32Z</time>
      </trkpt>
      <trkpt lat="48.91094" lon="7.46289">
        <ele>287</ele>
        <time>2021-08-08T06:17:33Z</time>
      </trkpt>
      <trkpt lat="48.91097" lon="7.46289">
        <ele>288</ele>
        <time>2021-08-08T06:17:34Z</time>
      </trkpt>
      <trkpt lat="48.91099" lon="7.46289">
        <ele>288</ele>
        <time>2021-08-08T06:17:35Z</time>
      </trkpt>
      <trkpt lat="48.91099" lon="7.46289">
        <ele>288</ele>
        <time>2021-08-08T06:17:36Z</time>
      </trkpt>
      <trkpt lat="48.91102" lon="7.46289">
        <ele>288</ele>
        <time>2021-08-08T06:17:37Z</time>
      </trkpt>
      <trkpt lat="48.91102" lon="7.46289">
        <ele>288</ele>
        <time>2021-08-08T06:17:38Z</time>
      </trkpt>
      <trkpt lat="48.91104" lon="7.4629">
        <ele>288</ele>
        <time>2021-08-08T06:17:39Z</time>
      </trkpt>
      <trkpt lat="48.91104" lon="7.4629">
        <ele>288</ele>
        <time>2021-08-08T06:17:40Z</time>
      </trkpt>
      <trkpt lat="48.91108" lon="7.46291">
        <ele>289</ele>
        <time>2021-08-08T06:17:41Z</time>
      </trkpt>
      <trkpt lat="48.9111" lon="7.46292">
        <ele>289</ele>
        <time>2021-08-08T06:17:42Z</time>
      </trkpt>
      <trkpt lat="48.91112" lon="7.46292">
        <ele>289</ele>
        <time>2021-08-08T06:17:43Z</time>
      </trkpt>
      <trkpt lat="48.91112" lon="7.46292">
        <ele>289</ele>
        <time>2021-08-08T06:17:44Z</time>
      </trkpt>
      <trkpt lat="48.91116" lon="7.46292">
        <ele>289</ele>
        <time>2021-08-08T06:17:45Z</time>
      </trkpt>
      <trkpt lat="48.91116" lon="7.46292">
        <ele>289</ele>
        <time>2021-08-08T06:17:46Z</time>
      </trkpt>
      <trkpt lat="48.91121" lon="7.46293">
        <ele>289</ele>
        <time>2021-08-08T06:17:47Z</time>
      </trkpt>
      <trkpt lat="48.91121" lon="7.46293">
        <ele>289</ele>
        <time>2021-08-08T06:17:48Z</time>
      </trkpt>
      <trkpt lat="48.91124" lon="7.46293">
        <ele>289</ele>
        <time>2021-08-08T06:17:49Z</time>
      </trkpt>
      <trkpt lat="48.91124" lon="7.46293">
        <ele>289</ele>
        <time>2021-08-08T06:17:50Z</time>
      </trkpt>
      <trkpt lat="48.91127" lon="7.46292">
        <ele>289</ele>
        <time>2021-08-08T06:17:51Z</time>
      </trkpt>
      <trkpt lat="48.91127" lon="7.46292">
        <ele>290</ele>
        <time>2021-08-08T06:17:52Z</time>
      </trkpt>
      <trkpt lat="48.91129" lon="7.46293">
        <ele>290</ele>
        <time>2021-08-08T06:17:53Z</time>
      </trkpt>
      <trkpt lat="48.91129" lon="7.46293">
        <ele>290</ele>
        <time>2021-08-08T06:17:54Z</time>
      </trkpt>
      <trkpt lat="48.91132" lon="7.46295">
        <ele>290</ele>
        <time>2021-08-08T06:17:55Z</time>
      </trkpt>
      <trkpt lat="48.91134" lon="7.46297">
        <ele>290</ele>
        <time>2021-08-08T06:17:56Z</time>
      </trkpt>
      <trkpt lat="48.91136" lon="7.46299">
        <ele>290</ele>
        <time>2021-08-08T06:17:57Z</time>
      </trkpt>
      <trkpt lat="48.91136" lon="7.46299">
        <ele>290</ele>
        <time>2021-08-08T06:17:58Z</time>
      </trkpt>
      <trkpt lat="48.9114" lon="7.463">
        <ele>290</ele>
        <time>2021-08-08T06:17:59Z</time>
      </trkpt>
      <trkpt lat="48.9114" lon="7.463">
        <ele>290</ele>
        <time>2021-08-08T06:18:00Z</time>
      </trkpt>
      <trkpt lat="48.91144" lon="7.46302">
        <ele>290</ele>
        <time>2021-08-08T06:18:01Z</time>
      </trkpt>
      <trkpt lat="48.91144" lon="7.46302">
        <ele>290</ele>
        <time>2021-08-08T06:18:02Z</time>
      </trkpt>
      <trkpt lat="48.91148" lon="7.46303">
        <ele>290</ele>
        <time>2021-08-08T06:18:03Z</time>
      </trkpt>
      <trkpt lat="48.91148" lon="7.46303">
        <ele>290</ele>
        <time>2021-08-08T06:18:04Z</time>
      </trkpt>
      <trkpt lat="48.91154" lon="7.46304">
        <ele>290</ele>
        <time>2021-08-08T06:18:05Z</time>
      </trkpt>
      <trkpt lat="48.91154" lon="7.46304">
        <ele>290</ele>
        <time>2021-08-08T06:18:06Z</time>
      </trkpt>
      <trkpt lat="48.91159" lon="7.46306">
        <ele>291</ele>
        <time>2021-08-08T06:18:07Z</time>
      </trkpt>
      <trkpt lat="48.91159" lon="7.46306">
        <ele>291</ele>
        <time>2021-08-08T06:18:08Z</time>
      </trkpt>
      <trkpt lat="48.91163" lon="7.46306">
        <ele>291</ele>
        <time>2021-08-08T06:18:09Z</time>
      </trkpt>
      <trkpt lat="48.91163" lon="7.46306">
        <ele>291</ele>
        <time>2021-08-08T06:18:10Z</time>
      </trkpt>
      <trkpt lat="48.91166" lon="7.46306">
        <ele>291</ele>
        <time>2021-08-08T06:18:11Z</time>
      </trkpt>
      <trkpt lat="48.91166" lon="7.46306">
        <ele>291</ele>
        <time>2021-08-08T06:18:12Z</time>
      </trkpt>
      <trkpt lat="48.91167" lon="7.46306">
        <ele>291</ele>
        <time>2021-08-08T06:18:13Z</time>
      </trkpt>
      <trkpt lat="48.91167" lon="7.46306">
        <ele>291</ele>
        <time>2021-08-08T06:18:26Z</time>
      </trkpt>
      <trkpt lat="48.91167" lon="7.46306">
        <ele>291</ele>
        <time>2021-08-08T06:18:27Z</time>
      </trkpt>
      <trkpt lat="48.91173" lon="7.4631">
        <ele>292</ele>
        <time>2021-08-08T06:18:28Z</time>
      </trkpt>
      <trkpt lat="48.91173" lon="7.4631">
        <ele>292</ele>
        <time>2021-08-08T06:18:29Z</time>
      </trkpt>
      <trkpt lat="48.91174" lon="7.4631">
        <ele>292</ele>
        <time>2021-08-08T06:18:30Z</time>
      </trkpt>
      <trkpt lat="48.91175" lon="7.46311">
        <ele>292</ele>
        <time>2021-08-08T06:18:31Z</time>
      </trkpt>
      <trkpt lat="48.91175" lon="7.46311">
        <ele>292</ele>
        <time>2021-08-08T06:18:32Z</time>
      </trkpt>
      <trkpt lat="48.91177" lon="7.46311">
        <ele>292</ele>
        <time>2021-08-08T06:18:33Z</time>
      </trkpt>
      <trkpt lat="48.91177" lon="7.46311">
        <ele>292</ele>
        <time>2021-08-08T06:18:34Z</time>
      </trkpt>
      <trkpt lat="48.91179" lon="7.46311">
        <ele>292</ele>
        <time>2021-08-08T06:18:35Z</time>
      </trkpt>
      <trkpt lat="48.91179" lon="7.46311">
        <ele>292</ele>
        <time>2021-08-08T06:18:36Z</time>
      </trkpt>
      <trkpt lat="48.91182" lon="7.46313">
        <ele>293</ele>
        <time>2021-08-08T06:18:37Z</time>
      </trkpt>
      <trkpt lat="48.91182" lon="7.46313">
        <ele>293</ele>
        <time>2021-08-08T06:18:38Z</time>
      </trkpt>
      <trkpt lat="48.91185" lon="7.46314">
        <ele>293</ele>
        <time>2021-08-08T06:18:39Z</time>
      </trkpt>
      <trkpt lat="48.91185" lon="7.46314">
        <ele>293</ele>
        <time>2021-08-08T06:18:40Z</time>
      </trkpt>
      <trkpt lat="48.91191" lon="7.46318">
        <ele>293</ele>
        <time>2021-08-08T06:18:41Z</time>
      </trkpt>
      <trkpt lat="48.91191" lon="7.46318">
        <ele>293</ele>
        <time>2021-08-08T06:18:42Z</time>
      </trkpt>
      <trkpt lat="48.91193" lon="7.46321">
        <ele>294</ele>
        <time>2021-08-08T06:18:43Z</time>
      </trkpt>
      <trkpt lat="48.91193" lon="7.46321">
        <ele>294</ele>
        <time>2021-08-08T06:18:44Z</time>
      </trkpt>
      <trkpt lat="48.91197" lon="7.46324">
        <ele>294</ele>
        <time>2021-08-08T06:18:45Z</time>
      </trkpt>
      <trkpt lat="48.91197" lon="7.46324">
        <ele>294</ele>
        <time>2021-08-08T06:18:46Z</time>
      </trkpt>
      <trkpt lat="48.91201" lon="7.46327">
        <ele>294</ele>
        <time>2021-08-08T06:18:47Z</time>
      </trkpt>
      <trkpt lat="48.91201" lon="7.46327">
        <ele>294</ele>
        <time>2021-08-08T06:18:48Z</time>
      </trkpt>
      <trkpt lat="48.91204" lon="7.46328">
        <ele>294</ele>
        <time>2021-08-08T06:18:49Z</time>
      </trkpt>
      <trkpt lat="48.91204" lon="7.46328">
        <ele>294</ele>
        <time>2021-08-08T06:18:50Z</time>
      </trkpt>
      <trkpt lat="48.91211" lon="7.46328">
        <ele>294</ele>
        <time>2021-08-08T06:18:51Z</time>
      </trkpt>
      <trkpt lat="48.91211" lon="7.46328">
        <ele>294</ele>
        <time>2021-08-08T06:18:52Z</time>
      </trkpt>
      <trkpt lat="48.91217" lon="7.46327">
        <ele>294</ele>
        <time>2021-08-08T06:18:53Z</time>
      </trkpt>
      <trkpt lat="48.9122" lon="7.46327">
        <ele>294</ele>
        <time>2021-08-08T06:18:54Z</time>
      </trkpt>
      <trkpt lat="48.9122" lon="7.46327">
        <ele>294</ele>
        <time>2021-08-08T06:18:55Z</time>
      </trkpt>
      <trkpt lat="48.91227" lon="7.46325">
        <ele>294</ele>
        <time>2021-08-08T06:18:56Z</time>
      </trkpt>
      <trkpt lat="48.91231" lon="7.46324">
        <ele>294</ele>
        <time>2021-08-08T06:18:57Z</time>
      </trkpt>
      <trkpt lat="48.91231" lon="7.46324">
        <ele>294</ele>
        <time>2021-08-08T06:18:58Z</time>
      </trkpt>
      <trkpt lat="48.91237" lon="7.46324">
        <ele>294</ele>
        <time>2021-08-08T06:18:59Z</time>
      </trkpt>
      <trkpt lat="48.91241" lon="7.46324">
        <ele>294</ele>
        <time>2021-08-08T06:19:00Z</time>
      </trkpt>
      <trkpt lat="48.91243" lon="7.46323">
        <ele>294</ele>
        <time>2021-08-08T06:19:01Z</time>
      </trkpt>
      <trkpt lat="48.91243" lon="7.46323">
        <ele>294</ele>
        <time>2021-08-08T06:19:02Z</time>
      </trkpt>
      <trkpt lat="48.91247" lon="7.46323">
        <ele>294</ele>
        <time>2021-08-08T06:19:03Z</time>
      </trkpt>
      <trkpt lat="48.91247" lon="7.46323">
        <ele>294</ele>
        <time>2021-08-08T06:19:04Z</time>
      </trkpt>
      <trkpt lat="48.91252" lon="7.46323">
        <ele>294</ele>
        <time>2021-08-08T06:19:05Z</time>
      </trkpt>
      <trkpt lat="48.91254" lon="7.46323">
        <ele>294</ele>
        <time>2021-08-08T06:19:06Z</time>
      </trkpt>
      <trkpt lat="48.91256" lon="7.46323">
        <ele>294</ele>
        <time>2021-08-08T06:19:07Z</time>
      </trkpt>
      <trkpt lat="48.91256" lon="7.46323">
        <ele>294</ele>
        <time>2021-08-08T06:19:08Z</time>
      </trkpt>
      <trkpt lat="48.91259" lon="7.46324">
        <ele>294</ele>
        <time>2021-08-08T06:19:09Z</time>
      </trkpt>
      <trkpt lat="48.91261" lon="7.46324">
        <ele>294</ele>
        <time>2021-08-08T06:19:10Z</time>
      </trkpt>
      <trkpt lat="48.91261" lon="7.46324">
        <ele>294</ele>
        <time>2021-08-08T06:19:11Z</time>
      </trkpt>
      <trkpt lat="48.91268" lon="7.46328">
        <ele>294</ele>
        <time>2021-08-08T06:19:12Z</time>
      </trkpt>
      <trkpt lat="48.91271" lon="7.4633">
        <ele>295</ele>
        <time>2021-08-08T06:19:13Z</time>
      </trkpt>
      <trkpt lat="48.91271" lon="7.4633">
        <ele>295</ele>
        <time>2021-08-08T06:19:14Z</time>
      </trkpt>
      <trkpt lat="48.91276" lon="7.46333">
        <ele>295</ele>
        <time>2021-08-08T06:19:15Z</time>
      </trkpt>
      <trkpt lat="48.91276" lon="7.46333">
        <ele>295</ele>
        <time>2021-08-08T06:19:16Z</time>
      </trkpt>
      <trkpt lat="48.91279" lon="7.46335">
        <ele>295</ele>
        <time>2021-08-08T06:19:17Z</time>
      </trkpt>
      <trkpt lat="48.91279" lon="7.46335">
        <ele>295</ele>
        <time>2021-08-08T06:19:18Z</time>
      </trkpt>
      <trkpt lat="48.91282" lon="7.46335">
        <ele>295</ele>
        <time>2021-08-08T06:19:19Z</time>
      </trkpt>
      <trkpt lat="48.91282" lon="7.46335">
        <ele>295</ele>
        <time>2021-08-08T06:19:20Z</time>
      </trkpt>
      <trkpt lat="48.91287" lon="7.46333">
        <ele>295</ele>
        <time>2021-08-08T06:19:21Z</time>
      </trkpt>
      <trkpt lat="48.91287" lon="7.46333">
        <ele>295</ele>
        <time>2021-08-08T06:19:22Z</time>
      </trkpt>
      <trkpt lat="48.91292" lon="7.46334">
        <ele>295</ele>
        <time>2021-08-08T06:19:23Z</time>
      </trkpt>
      <trkpt lat="48.91292" lon="7.46334">
        <ele>295</ele>
        <time>2021-08-08T06:19:24Z</time>
      </trkpt>
      <trkpt lat="48.91299" lon="7.46334">
        <ele>295</ele>
        <time>2021-08-08T06:19:25Z</time>
      </trkpt>
      <trkpt lat="48.91299" lon="7.46334">
        <ele>295</ele>
        <time>2021-08-08T06:19:26Z</time>
      </trkpt>
      <trkpt lat="48.91303" lon="7.46334">
        <ele>295</ele>
        <time>2021-08-08T06:19:27Z</time>
      </trkpt>
      <trkpt lat="48.91303" lon="7.46334">
        <ele>295</ele>
        <time>2021-08-08T06:19:28Z</time>
      </trkpt>
      <trkpt lat="48.91304" lon="7.46335">
        <ele>295</ele>
        <time>2021-08-08T06:19:29Z</time>
      </trkpt>
      <trkpt lat="48.91304" lon="7.46335">
        <ele>295</ele>
        <time>2021-08-08T06:19:30Z</time>
      </trkpt>
      <trkpt lat="48.91306" lon="7.46338">
        <ele>295</ele>
        <time>2021-08-08T06:19:31Z</time>
      </trkpt>
      <trkpt lat="48.91306" lon="7.46338">
        <ele>295</ele>
        <time>2021-08-08T06:19:32Z</time>
      </trkpt>
      <trkpt lat="48.91307" lon="7.46339">
        <ele>295</ele>
        <time>2021-08-08T06:19:33Z</time>
      </trkpt>
      <trkpt lat="48.91307" lon="7.46339">
        <ele>295</ele>
        <time>2021-08-08T06:19:34Z</time>
      </trkpt>
      <trkpt lat="48.91309" lon="7.46341">
        <ele>295</ele>
        <time>2021-08-08T06:19:35Z</time>
      </trkpt>
      <trkpt lat="48.91309" lon="7.46341">
        <ele>295</ele>
        <time>2021-08-08T06:19:36Z</time>
      </trkpt>
      <trkpt lat="48.9131" lon="7.46343">
        <ele>295</ele>
        <time>2021-08-08T06:19:37Z</time>
      </trkpt>
      <trkpt lat="48.9131" lon="7.46343">
        <ele>295</ele>
        <time>2021-08-08T06:19:38Z</time>
      </trkpt>
      <trkpt lat="48.91313" lon="7.46346">
        <ele>295</ele>
        <time>2021-08-08T06:19:39Z</time>
      </trkpt>
      <trkpt lat="48.91314" lon="7.46347">
        <ele>295</ele>
        <time>2021-08-08T06:19:40Z</time>
      </trkpt>
      <trkpt lat="48.91314" lon="7.46347">
        <ele>295</ele>
        <time>2021-08-08T06:19:41Z</time>
      </trkpt>
      <trkpt lat="48.91319" lon="7.46351">
        <ele>295</ele>
        <time>2021-08-08T06:19:42Z</time>
      </trkpt>
      <trkpt lat="48.91322" lon="7.46354">
        <ele>295</ele>
        <time>2021-08-08T06:19:43Z</time>
      </trkpt>
      <trkpt lat="48.91322" lon="7.46354">
        <ele>295</ele>
        <time>2021-08-08T06:19:44Z</time>
      </trkpt>
      <trkpt lat="48.91328" lon="7.46359">
        <ele>295</ele>
        <time>2021-08-08T06:19:45Z</time>
      </trkpt>
      <trkpt lat="48.91328" lon="7.46359">
        <ele>295</ele>
        <time>2021-08-08T06:19:46Z</time>
      </trkpt>
      <trkpt lat="48.91334" lon="7.46362">
        <ele>295</ele>
        <time>2021-08-08T06:19:47Z</time>
      </trkpt>
      <trkpt lat="48.91334" lon="7.46362">
        <ele>296</ele>
        <time>2021-08-08T06:19:48Z</time>
      </trkpt>
      <trkpt lat="48.91339" lon="7.46365">
        <ele>296</ele>
        <time>2021-08-08T06:19:49Z</time>
      </trkpt>
      <trkpt lat="48.91339" lon="7.46365">
        <ele>296</ele>
        <time>2021-08-08T06:19:50Z</time>
      </trkpt>
      <trkpt lat="48.91344" lon="7.4637">
        <ele>296</ele>
        <time>2021-08-08T06:19:51Z</time>
      </trkpt>
      <trkpt lat="48.91344" lon="7.4637">
        <ele>296</ele>
        <time>2021-08-08T06:19:52Z</time>
      </trkpt>
      <trkpt lat="48.91347" lon="7.46372">
        <ele>296</ele>
        <time>2021-08-08T06:19:53Z</time>
      </trkpt>
      <trkpt lat="48.91349" lon="7.46373">
        <ele>296</ele>
        <time>2021-08-08T06:19:54Z</time>
      </trkpt>
      <trkpt lat="48.91349" lon="7.46373">
        <ele>296</ele>
        <time>2021-08-08T06:19:55Z</time>
      </trkpt>
      <trkpt lat="48.91353" lon="7.46376">
        <ele>296</ele>
        <time>2021-08-08T06:19:56Z</time>
      </trkpt>
      <trkpt lat="48.91355" lon="7.46377">
        <ele>296</ele>
        <time>2021-08-08T06:19:57Z</time>
      </trkpt>
      <trkpt lat="48.91358" lon="7.46379">
        <ele>296</ele>
        <time>2021-08-08T06:19:58Z</time>
      </trkpt>
      <trkpt lat="48.91358" lon="7.46379">
        <ele>296</ele>
        <time>2021-08-08T06:19:59Z</time>
      </trkpt>
      <trkpt lat="48.91361" lon="7.46382">
        <ele>296</ele>
        <time>2021-08-08T06:20:00Z</time>
      </trkpt>
      <trkpt lat="48.91363" lon="7.46384">
        <ele>296</ele>
        <time>2021-08-08T06:20:01Z</time>
      </trkpt>
      <trkpt lat="48.91363" lon="7.46384">
        <ele>296</ele>
        <time>2021-08-08T06:20:02Z</time>
      </trkpt>
      <trkpt lat="48.91369" lon="7.46387">
        <ele>296</ele>
        <time>2021-08-08T06:20:03Z</time>
      </trkpt>
      <trkpt lat="48.91369" lon="7.46387">
        <ele>296</ele>
        <time>2021-08-08T06:20:04Z</time>
      </trkpt>
      <trkpt lat="48.91373" lon="7.46392">
        <ele>296</ele>
        <time>2021-08-08T06:20:05Z</time>
      </trkpt>
      <trkpt lat="48.91373" lon="7.46392">
        <ele>296</ele>
        <time>2021-08-08T06:20:06Z</time>
      </trkpt>
      <trkpt lat="48.91377" lon="7.46397">
        <ele>296</ele>
        <time>2021-08-08T06:20:07Z</time>
      </trkpt>
      <trkpt lat="48.91377" lon="7.46397">
        <ele>296</ele>
        <time>2021-08-08T06:20:08Z</time>
      </trkpt>
      <trkpt lat="48.91381" lon="7.46402">
        <ele>296</ele>
        <time>2021-08-08T06:20:09Z</time>
      </trkpt>
      <trkpt lat="48.91384" lon="7.46405">
        <ele>296</ele>
        <time>2021-08-08T06:20:10Z</time>
      </trkpt>
      <trkpt lat="48.91384" lon="7.46405">
        <ele>296</ele>
        <time>2021-08-08T06:20:11Z</time>
      </trkpt>
      <trkpt lat="48.91389" lon="7.46411">
        <ele>296</ele>
        <time>2021-08-08T06:20:12Z</time>
      </trkpt>
      <trkpt lat="48.91393" lon="7.46417">
        <ele>296</ele>
        <time>2021-08-08T06:20:13Z</time>
      </trkpt>
      <trkpt lat="48.91393" lon="7.46417">
        <ele>296</ele>
        <time>2021-08-08T06:20:14Z</time>
      </trkpt>
      <trkpt lat="48.914" lon="7.46426">
        <ele>296</ele>
        <time>2021-08-08T06:20:15Z</time>
      </trkpt>
      <trkpt lat="48.914" lon="7.46426">
        <ele>296</ele>
        <time>2021-08-08T06:20:16Z</time>
      </trkpt>
      <trkpt lat="48.91404" lon="7.46431">
        <ele>296</ele>
        <time>2021-08-08T06:20:17Z</time>
      </trkpt>
      <trkpt lat="48.91404" lon="7.46431">
        <ele>296</ele>
        <time>2021-08-08T06:20:18Z</time>
      </trkpt>
      <trkpt lat="48.9141" lon="7.46438">
        <ele>296</ele>
        <time>2021-08-08T06:20:19Z</time>
      </trkpt>
      <trkpt lat="48.9141" lon="7.46438">
        <ele>295</ele>
        <time>2021-08-08T06:20:20Z</time>
      </trkpt>
      <trkpt lat="48.91417" lon="7.46448">
        <ele>295</ele>
        <time>2021-08-08T06:20:21Z</time>
      </trkpt>
      <trkpt lat="48.91417" lon="7.46448">
        <ele>295</ele>
        <time>2021-08-08T06:20:22Z</time>
      </trkpt>
      <trkpt lat="48.91425" lon="7.46454">
        <ele>295</ele>
        <time>2021-08-08T06:20:23Z</time>
      </trkpt>
      <trkpt lat="48.91425" lon="7.46454">
        <ele>295</ele>
        <time>2021-08-08T06:20:24Z</time>
      </trkpt>
      <trkpt lat="48.9143" lon="7.4646">
        <ele>295</ele>
        <time>2021-08-08T06:20:25Z</time>
      </trkpt>
      <trkpt lat="48.9143" lon="7.4646">
        <ele>294</ele>
        <time>2021-08-08T06:20:26Z</time>
      </trkpt>
      <trkpt lat="48.91435" lon="7.46466">
        <ele>294</ele>
        <time>2021-08-08T06:20:27Z</time>
      </trkpt>
      <trkpt lat="48.91435" lon="7.46466">
        <ele>294</ele>
        <time>2021-08-08T06:20:28Z</time>
      </trkpt>
      <trkpt lat="48.9144" lon="7.46471">
        <ele>294</ele>
        <time>2021-08-08T06:20:29Z</time>
      </trkpt>
      <trkpt lat="48.9144" lon="7.46471">
        <ele>294</ele>
        <time>2021-08-08T06:20:30Z</time>
      </trkpt>
      <trkpt lat="48.91446" lon="7.46475">
        <ele>294</ele>
        <time>2021-08-08T06:20:31Z</time>
      </trkpt>
      <trkpt lat="48.91446" lon="7.46475">
        <ele>294</ele>
        <time>2021-08-08T06:20:32Z</time>
      </trkpt>
      <trkpt lat="48.91452" lon="7.46482">
        <ele>294</ele>
        <time>2021-08-08T06:20:33Z</time>
      </trkpt>
      <trkpt lat="48.91452" lon="7.46482">
        <ele>294</ele>
        <time>2021-08-08T06:20:34Z</time>
      </trkpt>
      <trkpt lat="48.9146" lon="7.46492">
        <ele>294</ele>
        <time>2021-08-08T06:20:35Z</time>
      </trkpt>
      <trkpt lat="48.9146" lon="7.46492">
        <ele>294</ele>
        <time>2021-08-08T06:20:36Z</time>
      </trkpt>
      <trkpt lat="48.91468" lon="7.465">
        <ele>294</ele>
        <time>2021-08-08T06:20:37Z</time>
      </trkpt>
      <trkpt lat="48.91468" lon="7.465">
        <ele>294</ele>
        <time>2021-08-08T06:20:38Z</time>
      </trkpt>
      <trkpt lat="48.91475" lon="7.46506">
        <ele>294</ele>
        <time>2021-08-08T06:20:39Z</time>
      </trkpt>
      <trkpt lat="48.91477" lon="7.46507">
        <ele>294</ele>
        <time>2021-08-08T06:20:40Z</time>
      </trkpt>
      <trkpt lat="48.91477" lon="7.46507">
        <ele>294</ele>
        <time>2021-08-08T06:20:41Z</time>
      </trkpt>
      <trkpt lat="48.91482" lon="7.46511">
        <ele>294</ele>
        <time>2021-08-08T06:20:42Z</time>
      </trkpt>
      <trkpt lat="48.91483" lon="7.46512">
        <ele>294</ele>
        <time>2021-08-08T06:20:43Z</time>
      </trkpt>
      <trkpt lat="48.91483" lon="7.46512">
        <ele>294</ele>
        <time>2021-08-08T06:20:44Z</time>
      </trkpt>
      <trkpt lat="48.91494" lon="7.46519">
        <ele>294</ele>
        <time>2021-08-08T06:20:45Z</time>
      </trkpt>
      <trkpt lat="48.91494" lon="7.46519">
        <ele>294</ele>
        <time>2021-08-08T06:20:46Z</time>
      </trkpt>
      <trkpt lat="48.91503" lon="7.46521">
        <ele>294</ele>
        <time>2021-08-08T06:20:47Z</time>
      </trkpt>
      <trkpt lat="48.91503" lon="7.46521">
        <ele>294</ele>
        <time>2021-08-08T06:20:48Z</time>
      </trkpt>
      <trkpt lat="48.9151" lon="7.46524">
        <ele>294</ele>
        <time>2021-08-08T06:20:49Z</time>
      </trkpt>
      <trkpt lat="48.91515" lon="7.46528">
        <ele>294</ele>
        <time>2021-08-08T06:20:50Z</time>
      </trkpt>
      <trkpt lat="48.91515" lon="7.46528">
        <ele>294</ele>
        <time>2021-08-08T06:20:51Z</time>
      </trkpt>
      <trkpt lat="48.91523" lon="7.46533">
        <ele>294</ele>
        <time>2021-08-08T06:20:52Z</time>
      </trkpt>
      <trkpt lat="48.91523" lon="7.46533">
        <ele>294</ele>
        <time>2021-08-08T06:20:53Z</time>
      </trkpt>
      <trkpt lat="48.91532" lon="7.46536">
        <ele>294</ele>
        <time>2021-08-08T06:20:54Z</time>
      </trkpt>
      <trkpt lat="48.91536" lon="7.46538">
        <ele>294</ele>
        <time>2021-08-08T06:20:55Z</time>
      </trkpt>
      <trkpt lat="48.91536" lon="7.46538">
        <ele>294</ele>
        <time>2021-08-08T06:20:56Z</time>
      </trkpt>
      <trkpt lat="48.91543" lon="7.46539">
        <ele>294</ele>
        <time>2021-08-08T06:20:57Z</time>
      </trkpt>
      <trkpt lat="48.91543" lon="7.46539">
        <ele>294</ele>
        <time>2021-08-08T06:20:58Z</time>
      </trkpt>
      <trkpt lat="48.91551" lon="7.4654">
        <ele>294</ele>
        <time>2021-08-08T06:20:59Z</time>
      </trkpt>
      <trkpt lat="48.91551" lon="7.4654">
        <ele>294</ele>
        <time>2021-08-08T06:21:00Z</time>
      </trkpt>
      <trkpt lat="48.91559" lon="7.46541">
        <ele>294</ele>
        <time>2021-08-08T06:21:01Z</time>
      </trkpt>
      <trkpt lat="48.91559" lon="7.46541">
        <ele>294</ele>
        <time>2021-08-08T06:21:02Z</time>
      </trkpt>
      <trkpt lat="48.91567" lon="7.46541">
        <ele>294</ele>
        <time>2021-08-08T06:21:03Z</time>
      </trkpt>
      <trkpt lat="48.91567" lon="7.46541">
        <ele>294</ele>
        <time>2021-08-08T06:21:04Z</time>
      </trkpt>
      <trkpt lat="48.91574" lon="7.46538">
        <ele>294</ele>
        <time>2021-08-08T06:21:05Z</time>
      </trkpt>
      <trkpt lat="48.91578" lon="7.46537">
        <ele>294</ele>
        <time>2021-08-08T06:21:06Z</time>
      </trkpt>
      <trkpt lat="48.91578" lon="7.46537">
        <ele>294</ele>
        <time>2021-08-08T06:21:07Z</time>
      </trkpt>
      <trkpt lat="48.91585" lon="7.46535">
        <ele>294</ele>
        <time>2021-08-08T06:21:08Z</time>
      </trkpt>
      <trkpt lat="48.91585" lon="7.46535">
        <ele>295</ele>
        <time>2021-08-08T06:21:09Z</time>
      </trkpt>
      <trkpt lat="48.91591" lon="7.46531">
        <ele>295</ele>
        <time>2021-08-08T06:21:10Z</time>
      </trkpt>
      <trkpt lat="48.91591" lon="7.46531">
        <ele>295</ele>
        <time>2021-08-08T06:21:11Z</time>
      </trkpt>
      <trkpt lat="48.91596" lon="7.46529">
        <ele>295</ele>
        <time>2021-08-08T06:21:12Z</time>
      </trkpt>
      <trkpt lat="48.91596" lon="7.46529">
        <ele>295</ele>
        <time>2021-08-08T06:21:13Z</time>
      </trkpt>
      <trkpt lat="48.91601" lon="7.46528">
        <ele>295</ele>
        <time>2021-08-08T06:21:14Z</time>
      </trkpt>
      <trkpt lat="48.91601" lon="7.46528">
        <ele>295</ele>
        <time>2021-08-08T06:21:15Z</time>
      </trkpt>
      <trkpt lat="48.91607" lon="7.46528">
        <ele>296</ele>
        <time>2021-08-08T06:21:16Z</time>
      </trkpt>
      <trkpt lat="48.91607" lon="7.46528">
        <ele>296</ele>
        <time>2021-08-08T06:21:17Z</time>
      </trkpt>
      <trkpt lat="48.91611" lon="7.46525">
        <ele>296</ele>
        <time>2021-08-08T06:21:18Z</time>
      </trkpt>
      <trkpt lat="48.91613" lon="7.46525">
        <ele>296</ele>
        <time>2021-08-08T06:21:19Z</time>
      </trkpt>
      <trkpt lat="48.91613" lon="7.46525">
        <ele>297</ele>
        <time>2021-08-08T06:21:20Z</time>
      </trkpt>
      <trkpt lat="48.91617" lon="7.46522">
        <ele>297</ele>
        <time>2021-08-08T06:21:21Z</time>
      </trkpt>
      <trkpt lat="48.91617" lon="7.46522">
        <ele>297</ele>
        <time>2021-08-08T06:21:22Z</time>
      </trkpt>
      <trkpt lat="48.91621" lon="7.4652">
        <ele>297</ele>
        <time>2021-08-08T06:21:23Z</time>
      </trkpt>
      <trkpt lat="48.91624" lon="7.46519">
        <ele>297</ele>
        <time>2021-08-08T06:21:24Z</time>
      </trkpt>
      <trkpt lat="48.91626" lon="7.46517">
        <ele>297</ele>
        <time>2021-08-08T06:21:25Z</time>
      </trkpt>
      <trkpt lat="48.91626" lon="7.46517">
        <ele>297</ele>
        <time>2021-08-08T06:21:26Z</time>
      </trkpt>
      <trkpt lat="48.91633" lon="7.46513">
        <ele>297</ele>
        <time>2021-08-08T06:21:27Z</time>
      </trkpt>
      <trkpt lat="48.91636" lon="7.46511">
        <ele>297</ele>
        <time>2021-08-08T06:21:28Z</time>
      </trkpt>
      <trkpt lat="48.91636" lon="7.46511">
        <ele>297</ele>
        <time>2021-08-08T06:21:29Z</time>
      </trkpt>
      <trkpt lat="48.91642" lon="7.46507">
        <ele>297</ele>
        <time>2021-08-08T06:21:30Z</time>
      </trkpt>
      <trkpt lat="48.91646" lon="7.46504">
        <ele>296</ele>
        <time>2021-08-08T06:21:31Z</time>
      </trkpt>
      <trkpt lat="48.91646" lon="7.46504">
        <ele>296</ele>
        <time>2021-08-08T06:21:32Z</time>
      </trkpt>
      <trkpt lat="48.91653" lon="7.46498">
        <ele>296</ele>
        <time>2021-08-08T06:21:33Z</time>
      </trkpt>
      <trkpt lat="48.91653" lon="7.46498">
        <ele>296</ele>
        <time>2021-08-08T06:21:34Z</time>
      </trkpt>
      <trkpt lat="48.9166" lon="7.46493">
        <ele>295</ele>
        <time>2021-08-08T06:21:35Z</time>
      </trkpt>
      <trkpt lat="48.9166" lon="7.46493">
        <ele>295</ele>
        <time>2021-08-08T06:21:36Z</time>
      </trkpt>
      <trkpt lat="48.91669" lon="7.46489">
        <ele>295</ele>
        <time>2021-08-08T06:21:37Z</time>
      </trkpt>
      <trkpt lat="48.91669" lon="7.46489">
        <ele>295</ele>
        <time>2021-08-08T06:21:38Z</time>
      </trkpt>
      <trkpt lat="48.91679" lon="7.46487">
        <ele>295</ele>
        <time>2021-08-08T06:21:39Z</time>
      </trkpt>
      <trkpt lat="48.91679" lon="7.46487">
        <ele>295</ele>
        <time>2021-08-08T06:21:40Z</time>
      </trkpt>
      <trkpt lat="48.91686" lon="7.4649">
        <ele>295</ele>
        <time>2021-08-08T06:21:41Z</time>
      </trkpt>
      <trkpt lat="48.9169" lon="7.46491">
        <ele>295</ele>
        <time>2021-08-08T06:21:42Z</time>
      </trkpt>
      <trkpt lat="48.91693" lon="7.46495">
        <ele>295</ele>
        <time>2021-08-08T06:21:43Z</time>
      </trkpt>
      <trkpt lat="48.91693" lon="7.46495">
        <ele>295</ele>
        <time>2021-08-08T06:21:44Z</time>
      </trkpt>
      <trkpt lat="48.91698" lon="7.46503">
        <ele>295</ele>
        <time>2021-08-08T06:21:45Z</time>
      </trkpt>
      <trkpt lat="48.91706" lon="7.46504">
        <ele>295</ele>
        <time>2021-08-08T06:21:46Z</time>
      </trkpt>
      <trkpt lat="48.91706" lon="7.46504">
        <ele>295</ele>
        <time>2021-08-08T06:21:47Z</time>
      </trkpt>
      <trkpt lat="48.91709" lon="7.46515">
        <ele>295</ele>
        <time>2021-08-08T06:21:48Z</time>
      </trkpt>
      <trkpt lat="48.91713" lon="7.4652">
        <ele>295</ele>
        <time>2021-08-08T06:21:49Z</time>
      </trkpt>
      <trkpt lat="48.91713" lon="7.4652">
        <ele>295</ele>
        <time>2021-08-08T06:21:50Z</time>
      </trkpt>
      <trkpt lat="48.91717" lon="7.46529">
        <ele>295</ele>
        <time>2021-08-08T06:21:51Z</time>
      </trkpt>
      <trkpt lat="48.91717" lon="7.46529">
        <ele>295</ele>
        <time>2021-08-08T06:21:52Z</time>
      </trkpt>
      <trkpt lat="48.91722" lon="7.46539">
        <ele>295</ele>
        <time>2021-08-08T06:21:53Z</time>
      </trkpt>
      <trkpt lat="48.91722" lon="7.46539">
        <ele>295</ele>
        <time>2021-08-08T06:21:54Z</time>
      </trkpt>
      <trkpt lat="48.91726" lon="7.46552">
        <ele>295</ele>
        <time>2021-08-08T06:21:55Z</time>
      </trkpt>
      <trkpt lat="48.91726" lon="7.46552">
        <ele>295</ele>
        <time>2021-08-08T06:21:56Z</time>
      </trkpt>
      <trkpt lat="48.91731" lon="7.46565">
        <ele>295</ele>
        <time>2021-08-08T06:21:57Z</time>
      </trkpt>
      <trkpt lat="48.91731" lon="7.46565">
        <ele>295</ele>
        <time>2021-08-08T06:21:58Z</time>
      </trkpt>
      <trkpt lat="48.91737" lon="7.46578">
        <ele>295</ele>
        <time>2021-08-08T06:21:59Z</time>
      </trkpt>
      <trkpt lat="48.91737" lon="7.46578">
        <ele>295</ele>
        <time>2021-08-08T06:22:00Z</time>
      </trkpt>
      <trkpt lat="48.91743" lon="7.46589">
        <ele>295</ele>
        <time>2021-08-08T06:22:01Z</time>
      </trkpt>
      <trkpt lat="48.91743" lon="7.46589">
        <ele>296</ele>
        <time>2021-08-08T06:22:02Z</time>
      </trkpt>
      <trkpt lat="48.91747" lon="7.46599">
        <ele>296</ele>
        <time>2021-08-08T06:22:03Z</time>
      </trkpt>
      <trkpt lat="48.91747" lon="7.46599">
        <ele>296</ele>
        <time>2021-08-08T06:22:04Z</time>
      </trkpt>
      <trkpt lat="48.91751" lon="7.46607">
        <ele>296</ele>
        <time>2021-08-08T06:22:05Z</time>
      </trkpt>
      <trkpt lat="48.91751" lon="7.46607">
        <ele>296</ele>
        <time>2021-08-08T06:22:06Z</time>
      </trkpt>
      <trkpt lat="48.91753" lon="7.46613">
        <ele>297</ele>
        <time>2021-08-08T06:22:07Z</time>
      </trkpt>
      <trkpt lat="48.91753" lon="7.46613">
        <ele>297</ele>
        <time>2021-08-08T06:22:08Z</time>
      </trkpt>
      <trkpt lat="48.91756" lon="7.46617">
        <ele>297</ele>
        <time>2021-08-08T06:22:09Z</time>
      </trkpt>
      <trkpt lat="48.91756" lon="7.46617">
        <ele>297</ele>
        <time>2021-08-08T06:22:10Z</time>
      </trkpt>
      <trkpt lat="48.91759" lon="7.46623">
        <ele>297</ele>
        <time>2021-08-08T06:22:11Z</time>
      </trkpt>
      <trkpt lat="48.91759" lon="7.46623">
        <ele>297</ele>
        <time>2021-08-08T06:22:12Z</time>
      </trkpt>
      <trkpt lat="48.91765" lon="7.46629">
        <ele>297</ele>
        <time>2021-08-08T06:22:13Z</time>
      </trkpt>
      <trkpt lat="48.91765" lon="7.46629">
        <ele>297</ele>
        <time>2021-08-08T06:22:14Z</time>
      </trkpt>
      <trkpt lat="48.9177" lon="7.46638">
        <ele>298</ele>
        <time>2021-08-08T06:22:15Z</time>
      </trkpt>
      <trkpt lat="48.91772" lon="7.46641">
        <ele>298</ele>
        <time>2021-08-08T06:22:16Z</time>
      </trkpt>
      <trkpt lat="48.91772" lon="7.46641">
        <ele>298</ele>
        <time>2021-08-08T06:22:17Z</time>
      </trkpt>
      <trkpt lat="48.91779" lon="7.46656">
        <ele>298</ele>
        <time>2021-08-08T06:22:18Z</time>
      </trkpt>
      <trkpt lat="48.91783" lon="7.46662">
        <ele>298</ele>
        <time>2021-08-08T06:22:19Z</time>
      </trkpt>
      <trkpt lat="48.91783" lon="7.46662">
        <ele>298</ele>
        <time>2021-08-08T06:22:20Z</time>
      </trkpt>
      <trkpt lat="48.91789" lon="7.46672">
        <ele>298</ele>
        <time>2021-08-08T06:22:21Z</time>
      </trkpt>
      <trkpt lat="48.91789" lon="7.46672">
        <ele>298</ele>
        <time>2021-08-08T06:22:22Z</time>
      </trkpt>
      <trkpt lat="48.91794" lon="7.4668">
        <ele>299</ele>
        <time>2021-08-08T06:22:23Z</time>
      </trkpt>
      <trkpt lat="48.91794" lon="7.4668">
        <ele>299</ele>
        <time>2021-08-08T06:22:24Z</time>
      </trkpt>
      <trkpt lat="48.918" lon="7.46689">
        <ele>299</ele>
        <time>2021-08-08T06:22:25Z</time>
      </trkpt>
      <trkpt lat="48.918" lon="7.46689">
        <ele>299</ele>
        <time>2021-08-08T06:22:26Z</time>
      </trkpt>
      <trkpt lat="48.91804" lon="7.46697">
        <ele>300</ele>
        <time>2021-08-08T06:22:27Z</time>
      </trkpt>
      <trkpt lat="48.91804" lon="7.46697">
        <ele>300</ele>
        <time>2021-08-08T06:22:28Z</time>
      </trkpt>
      <trkpt lat="48.9181" lon="7.46707">
        <ele>300</ele>
        <time>2021-08-08T06:22:29Z</time>
      </trkpt>
      <trkpt lat="48.9181" lon="7.46707">
        <ele>300</ele>
        <time>2021-08-08T06:22:30Z</time>
      </trkpt>
      <trkpt lat="48.91816" lon="7.46715">
        <ele>300</ele>
        <time>2021-08-08T06:22:31Z</time>
      </trkpt>
      <trkpt lat="48.91816" lon="7.46715">
        <ele>300</ele>
        <time>2021-08-08T06:22:32Z</time>
      </trkpt>
      <trkpt lat="48.91821" lon="7.46721">
        <ele>300</ele>
        <time>2021-08-08T06:22:33Z</time>
      </trkpt>
      <trkpt lat="48.91821" lon="7.46721">
        <ele>300</ele>
        <time>2021-08-08T06:22:34Z</time>
      </trkpt>
      <trkpt lat="48.91825" lon="7.46729">
        <ele>300</ele>
        <time>2021-08-08T06:22:35Z</time>
      </trkpt>
      <trkpt lat="48.91825" lon="7.46729">
        <ele>300</ele>
        <time>2021-08-08T06:22:36Z</time>
      </trkpt>
      <trkpt lat="48.9183" lon="7.46738">
        <ele>300</ele>
        <time>2021-08-08T06:22:37Z</time>
      </trkpt>
      <trkpt lat="48.9183" lon="7.46738">
        <ele>300</ele>
        <time>2021-08-08T06:22:38Z</time>
      </trkpt>
      <trkpt lat="48.91835" lon="7.46747">
        <ele>300</ele>
        <time>2021-08-08T06:22:39Z</time>
      </trkpt>
      <trkpt lat="48.91835" lon="7.46747">
        <ele>300</ele>
        <time>2021-08-08T06:22:40Z</time>
      </trkpt>
      <trkpt lat="48.91839" lon="7.46756">
        <ele>300</ele>
        <time>2021-08-08T06:22:41Z</time>
      </trkpt>
      <trkpt lat="48.91842" lon="7.46761">
        <ele>300</ele>
        <time>2021-08-08T06:22:42Z</time>
      </trkpt>
      <trkpt lat="48.91844" lon="7.46765">
        <ele>301</ele>
        <time>2021-08-08T06:22:43Z</time>
      </trkpt>
      <trkpt lat="48.91844" lon="7.46765">
        <ele>301</ele>
        <time>2021-08-08T06:22:44Z</time>
      </trkpt>
      <trkpt lat="48.9185" lon="7.46776">
        <ele>301</ele>
        <time>2021-08-08T06:22:45Z</time>
      </trkpt>
      <trkpt lat="48.9185" lon="7.46776">
        <ele>301</ele>
        <time>2021-08-08T06:22:46Z</time>
      </trkpt>
      <trkpt lat="48.91857" lon="7.46786">
        <ele>301</ele>
        <time>2021-08-08T06:22:47Z</time>
      </trkpt>
      <trkpt lat="48.91857" lon="7.46786">
        <ele>301</ele>
        <time>2021-08-08T06:22:48Z</time>
      </trkpt>
      <trkpt lat="48.91867" lon="7.468">
        <ele>301</ele>
        <time>2021-08-08T06:22:49Z</time>
      </trkpt>
      <trkpt lat="48.91867" lon="7.468">
        <ele>301</ele>
        <time>2021-08-08T06:22:50Z</time>
      </trkpt>
      <trkpt lat="48.91875" lon="7.46811">
        <ele>301</ele>
        <time>2021-08-08T06:22:51Z</time>
      </trkpt>
      <trkpt lat="48.91875" lon="7.46811">
        <ele>301</ele>
        <time>2021-08-08T06:22:52Z</time>
      </trkpt>
      <trkpt lat="48.91882" lon="7.46819">
        <ele>301</ele>
        <time>2021-08-08T06:22:53Z</time>
      </trkpt>
      <trkpt lat="48.91885" lon="7.46822">
        <ele>301</ele>
        <time>2021-08-08T06:22:54Z</time>
      </trkpt>
      <trkpt lat="48.91887" lon="7.46824">
        <ele>301</ele>
        <time>2021-08-08T06:22:55Z</time>
      </trkpt>
      <trkpt lat="48.91887" lon="7.46824">
        <ele>302</ele>
        <time>2021-08-08T06:22:56Z</time>
      </trkpt>
      <trkpt lat="48.91895" lon="7.46831">
        <ele>302</ele>
        <time>2021-08-08T06:22:57Z</time>
      </trkpt>
      <trkpt lat="48.91895" lon="7.46831">
        <ele>302</ele>
        <time>2021-08-08T06:22:58Z</time>
      </trkpt>
      <trkpt lat="48.91901" lon="7.46838">
        <ele>302</ele>
        <time>2021-08-08T06:22:59Z</time>
      </trkpt>
      <trkpt lat="48.91901" lon="7.46838">
        <ele>302</ele>
        <time>2021-08-08T06:23:00Z</time>
      </trkpt>
      <trkpt lat="48.91909" lon="7.46844">
        <ele>302</ele>
        <time>2021-08-08T06:23:01Z</time>
      </trkpt>
      <trkpt lat="48.91909" lon="7.46844">
        <ele>302</ele>
        <time>2021-08-08T06:23:02Z</time>
      </trkpt>
      <trkpt lat="48.91918" lon="7.46848">
        <ele>302</ele>
        <time>2021-08-08T06:23:03Z</time>
      </trkpt>
      <trkpt lat="48.91918" lon="7.46848">
        <ele>302</ele>
        <time>2021-08-08T06:23:04Z</time>
      </trkpt>
      <trkpt lat="48.91925" lon="7.4685">
        <ele>302</ele>
        <time>2021-08-08T06:23:05Z</time>
      </trkpt>
      <trkpt lat="48.91925" lon="7.4685">
        <ele>302</ele>
        <time>2021-08-08T06:23:06Z</time>
      </trkpt>
      <trkpt lat="48.91933" lon="7.4685">
        <ele>302</ele>
        <time>2021-08-08T06:23:07Z</time>
      </trkpt>
      <trkpt lat="48.91933" lon="7.4685">
        <ele>301</ele>
        <time>2021-08-08T06:23:08Z</time>
      </trkpt>
      <trkpt lat="48.91941" lon="7.46852">
        <ele>301</ele>
        <time>2021-08-08T06:23:09Z</time>
      </trkpt>
      <trkpt lat="48.91941" lon="7.46852">
        <ele>301</ele>
        <time>2021-08-08T06:23:10Z</time>
      </trkpt>
      <trkpt lat="48.91948" lon="7.46852">
        <ele>299</ele>
        <time>2021-08-08T06:23:11Z</time>
      </trkpt>
      <trkpt lat="48.91948" lon="7.46852">
        <ele>299</ele>
        <time>2021-08-08T06:23:12Z</time>
      </trkpt>
      <trkpt lat="48.91956" lon="7.46852">
        <ele>299</ele>
        <time>2021-08-08T06:23:13Z</time>
      </trkpt>
      <trkpt lat="48.9196" lon="7.46851">
        <ele>299</ele>
        <time>2021-08-08T06:23:14Z</time>
      </trkpt>
      <trkpt lat="48.9196" lon="7.46851">
        <ele>298</ele>
        <time>2021-08-08T06:23:15Z</time>
      </trkpt>
      <trkpt lat="48.91971" lon="7.4685">
        <ele>298</ele>
        <time>2021-08-08T06:23:16Z</time>
      </trkpt>
      <trkpt lat="48.91971" lon="7.4685">
        <ele>297</ele>
        <time>2021-08-08T06:23:17Z</time>
      </trkpt>
      <trkpt lat="48.91981" lon="7.46847">
        <ele>297</ele>
        <time>2021-08-08T06:23:18Z</time>
      </trkpt>
      <trkpt lat="48.91986" lon="7.46847">
        <ele>296</ele>
        <time>2021-08-08T06:23:19Z</time>
      </trkpt>
      <trkpt lat="48.91986" lon="7.46847">
        <ele>296</ele>
        <time>2021-08-08T06:23:20Z</time>
      </trkpt>
      <trkpt lat="48.91997" lon="7.46845">
        <ele>295</ele>
        <time>2021-08-08T06:23:21Z</time>
      </trkpt>
      <trkpt lat="48.91997" lon="7.46845">
        <ele>295</ele>
        <time>2021-08-08T06:23:22Z</time>
      </trkpt>
      <trkpt lat="48.92007" lon="7.46842">
        <ele>295</ele>
        <time>2021-08-08T06:23:23Z</time>
      </trkpt>
      <trkpt lat="48.92007" lon="7.46842">
        <ele>295</ele>
        <time>2021-08-08T06:23:24Z</time>
      </trkpt>
      <trkpt lat="48.92019" lon="7.46837">
        <ele>294</ele>
        <time>2021-08-08T06:23:25Z</time>
      </trkpt>
      <trkpt lat="48.92025" lon="7.46835">
        <ele>294</ele>
        <time>2021-08-08T06:23:26Z</time>
      </trkpt>
      <trkpt lat="48.92025" lon="7.46835">
        <ele>294</ele>
        <time>2021-08-08T06:23:27Z</time>
      </trkpt>
      <trkpt lat="48.92037" lon="7.46831">
        <ele>294</ele>
        <time>2021-08-08T06:23:28Z</time>
      </trkpt>
      <trkpt lat="48.92043" lon="7.4683">
        <ele>294</ele>
        <time>2021-08-08T06:23:29Z</time>
      </trkpt>
      <trkpt lat="48.92043" lon="7.4683">
        <ele>294</ele>
        <time>2021-08-08T06:23:30Z</time>
      </trkpt>
      <trkpt lat="48.92055" lon="7.46829">
        <ele>294</ele>
        <time>2021-08-08T06:23:31Z</time>
      </trkpt>
      <trkpt lat="48.92055" lon="7.46829">
        <ele>294</ele>
        <time>2021-08-08T06:23:32Z</time>
      </trkpt>
      <trkpt lat="48.92066" lon="7.46829">
        <ele>293</ele>
        <time>2021-08-08T06:23:33Z</time>
      </trkpt>
      <trkpt lat="48.92066" lon="7.46829">
        <ele>293</ele>
        <time>2021-08-08T06:23:34Z</time>
      </trkpt>
      <trkpt lat="48.92078" lon="7.46833">
        <ele>293</ele>
        <time>2021-08-08T06:23:35Z</time>
      </trkpt>
      <trkpt lat="48.92078" lon="7.46833">
        <ele>293</ele>
        <time>2021-08-08T06:23:36Z</time>
      </trkpt>
      <trkpt lat="48.92091" lon="7.46839">
        <ele>293</ele>
        <time>2021-08-08T06:23:37Z</time>
      </trkpt>
      <trkpt lat="48.92091" lon="7.46839">
        <ele>293</ele>
        <time>2021-08-08T06:23:38Z</time>
      </trkpt>
      <trkpt lat="48.92103" lon="7.46843">
        <ele>293</ele>
        <time>2021-08-08T06:23:39Z</time>
      </trkpt>
      <trkpt lat="48.92103" lon="7.46843">
        <ele>293</ele>
        <time>2021-08-08T06:23:40Z</time>
      </trkpt>
      <trkpt lat="48.92115" lon="7.46847">
        <ele>293</ele>
        <time>2021-08-08T06:23:41Z</time>
      </trkpt>
      <trkpt lat="48.92115" lon="7.46847">
        <ele>293</ele>
        <time>2021-08-08T06:23:42Z</time>
      </trkpt>
      <trkpt lat="48.92127" lon="7.4685">
        <ele>293</ele>
        <time>2021-08-08T06:23:43Z</time>
      </trkpt>
      <trkpt lat="48.92127" lon="7.4685">
        <ele>293</ele>
        <time>2021-08-08T06:23:44Z</time>
      </trkpt>
      <trkpt lat="48.9214" lon="7.46853">
        <ele>293</ele>
        <time>2021-08-08T06:23:45Z</time>
      </trkpt>
      <trkpt lat="48.9214" lon="7.46853">
        <ele>293</ele>
        <time>2021-08-08T06:23:46Z</time>
      </trkpt>
      <trkpt lat="48.92152" lon="7.46857">
        <ele>292</ele>
        <time>2021-08-08T06:23:47Z</time>
      </trkpt>
      <trkpt lat="48.92152" lon="7.46857">
        <ele>292</ele>
        <time>2021-08-08T06:23:48Z</time>
      </trkpt>
      <trkpt lat="48.92163" lon="7.46859">
        <ele>292</ele>
        <time>2021-08-08T06:23:49Z</time>
      </trkpt>
      <trkpt lat="48.92169" lon="7.4686">
        <ele>292</ele>
        <time>2021-08-08T06:23:50Z</time>
      </trkpt>
      <trkpt lat="48.92169" lon="7.4686">
        <ele>292</ele>
        <time>2021-08-08T06:23:51Z</time>
      </trkpt>
      <trkpt lat="48.92179" lon="7.46862">
        <ele>292</ele>
        <time>2021-08-08T06:23:52Z</time>
      </trkpt>
      <trkpt lat="48.92179" lon="7.46862">
        <ele>291</ele>
        <time>2021-08-08T06:23:53Z</time>
      </trkpt>
      <trkpt lat="48.92186" lon="7.46864">
        <ele>291</ele>
        <time>2021-08-08T06:23:54Z</time>
      </trkpt>
      <trkpt lat="48.92189" lon="7.46866">
        <ele>291</ele>
        <time>2021-08-08T06:23:55Z</time>
      </trkpt>
      <trkpt lat="48.92189" lon="7.46866">
        <ele>291</ele>
        <time>2021-08-08T06:23:56Z</time>
      </trkpt>
      <trkpt lat="48.92194" lon="7.46873">
        <ele>291</ele>
        <time>2021-08-08T06:23:57Z</time>
      </trkpt>
      <trkpt lat="48.92194" lon="7.46873">
        <ele>291</ele>
        <time>2021-08-08T06:23:58Z</time>
      </trkpt>
      <trkpt lat="48.92199" lon="7.46883">
        <ele>291</ele>
        <time>2021-08-08T06:23:59Z</time>
      </trkpt>
      <trkpt lat="48.92199" lon="7.46883">
        <ele>291</ele>
        <time>2021-08-08T06:24:00Z</time>
      </trkpt>
      <trkpt lat="48.92203" lon="7.46896">
        <ele>291</ele>
        <time>2021-08-08T06:24:01Z</time>
      </trkpt>
      <trkpt lat="48.92205" lon="7.46903">
        <ele>291</ele>
        <time>2021-08-08T06:24:02Z</time>
      </trkpt>
      <trkpt lat="48.92208" lon="7.46911">
        <ele>291</ele>
        <time>2021-08-08T06:24:03Z</time>
      </trkpt>
      <trkpt lat="48.92208" lon="7.46911">
        <ele>291</ele>
        <time>2021-08-08T06:24:04Z</time>
      </trkpt>
      <trkpt lat="48.92211" lon="7.46923">
        <ele>291</ele>
        <time>2021-08-08T06:24:05Z</time>
      </trkpt>
      <trkpt lat="48.92211" lon="7.46923">
        <ele>291</ele>
        <time>2021-08-08T06:24:06Z</time>
      </trkpt>
      <trkpt lat="48.92216" lon="7.46937">
        <ele>291</ele>
        <time>2021-08-08T06:24:07Z</time>
      </trkpt>
      <trkpt lat="48.92216" lon="7.46937">
        <ele>291</ele>
        <time>2021-08-08T06:24:08Z</time>
      </trkpt>
      <trkpt lat="48.92221" lon="7.46951">
        <ele>291</ele>
        <time>2021-08-08T06:24:09Z</time>
      </trkpt>
      <trkpt lat="48.92223" lon="7.46957">
        <ele>291</ele>
        <time>2021-08-08T06:24:10Z</time>
      </trkpt>
      <trkpt lat="48.92223" lon="7.46957">
        <ele>291</ele>
        <time>2021-08-08T06:24:11Z</time>
      </trkpt>
      <trkpt lat="48.92227" lon="7.46968">
        <ele>291</ele>
        <time>2021-08-08T06:24:12Z</time>
      </trkpt>
      <trkpt lat="48.92229" lon="7.46975">
        <ele>291</ele>
        <time>2021-08-08T06:24:13Z</time>
      </trkpt>
      <trkpt lat="48.92229" lon="7.46975">
        <ele>291</ele>
        <time>2021-08-08T06:24:14Z</time>
      </trkpt>
      <trkpt lat="48.92232" lon="7.46988">
        <ele>292</ele>
        <time>2021-08-08T06:24:15Z</time>
      </trkpt>
      <trkpt lat="48.92232" lon="7.46988">
        <ele>292</ele>
        <time>2021-08-08T06:24:16Z</time>
      </trkpt>
      <trkpt lat="48.92235" lon="7.47003">
        <ele>292</ele>
        <time>2021-08-08T06:24:17Z</time>
      </trkpt>
      <trkpt lat="48.92235" lon="7.47003">
        <ele>292</ele>
        <time>2021-08-08T06:24:18Z</time>
      </trkpt>
      <trkpt lat="48.9224" lon="7.4702">
        <ele>292</ele>
        <time>2021-08-08T06:24:19Z</time>
      </trkpt>
      <trkpt lat="48.9224" lon="7.4702">
        <ele>292</ele>
        <time>2021-08-08T06:24:20Z</time>
      </trkpt>
      <trkpt lat="48.92247" lon="7.47039">
        <ele>292</ele>
        <time>2021-08-08T06:24:21Z</time>
      </trkpt>
      <trkpt lat="48.92247" lon="7.47039">
        <ele>292</ele>
        <time>2021-08-08T06:24:22Z</time>
      </trkpt>
      <trkpt lat="48.92251" lon="7.47057">
        <ele>292</ele>
        <time>2021-08-08T06:24:23Z</time>
      </trkpt>
      <trkpt lat="48.92251" lon="7.47057">
        <ele>292</ele>
        <time>2021-08-08T06:24:24Z</time>
      </trkpt>
      <trkpt lat="48.92255" lon="7.47073">
        <ele>293</ele>
        <time>2021-08-08T06:24:25Z</time>
      </trkpt>
      <trkpt lat="48.92255" lon="7.47073">
        <ele>293</ele>
        <time>2021-08-08T06:24:26Z</time>
      </trkpt>
      <trkpt lat="48.92259" lon="7.47088">
        <ele>293</ele>
        <time>2021-08-08T06:24:27Z</time>
      </trkpt>
      <trkpt lat="48.92259" lon="7.47088">
        <ele>293</ele>
        <time>2021-08-08T06:24:28Z</time>
      </trkpt>
      <trkpt lat="48.92262" lon="7.47103">
        <ele>293</ele>
        <time>2021-08-08T06:24:29Z</time>
      </trkpt>
      <trkpt lat="48.92262" lon="7.47103">
        <ele>293</ele>
        <time>2021-08-08T06:24:30Z</time>
      </trkpt>
      <trkpt lat="48.92266" lon="7.47118">
        <ele>293</ele>
        <time>2021-08-08T06:24:31Z</time>
      </trkpt>
      <trkpt lat="48.92266" lon="7.47118">
        <ele>293</ele>
        <time>2021-08-08T06:24:32Z</time>
      </trkpt>
      <trkpt lat="48.9227" lon="7.47132">
        <ele>293</ele>
        <time>2021-08-08T06:24:33Z</time>
      </trkpt>
      <trkpt lat="48.9227" lon="7.47132">
        <ele>294</ele>
        <time>2021-08-08T06:24:34Z</time>
      </trkpt>
      <trkpt lat="48.92273" lon="7.47147">
        <ele>294</ele>
        <time>2021-08-08T06:24:35Z</time>
      </trkpt>
      <trkpt lat="48.92273" lon="7.47147">
        <ele>294</ele>
        <time>2021-08-08T06:24:36Z</time>
      </trkpt>
      <trkpt lat="48.92277" lon="7.47161">
        <ele>294</ele>
        <time>2021-08-08T06:24:37Z</time>
      </trkpt>
      <trkpt lat="48.92277" lon="7.47161">
        <ele>294</ele>
        <time>2021-08-08T06:24:38Z</time>
      </trkpt>
      <trkpt lat="48.9228" lon="7.47174">
        <ele>294</ele>
        <time>2021-08-08T06:24:39Z</time>
      </trkpt>
      <trkpt lat="48.9228" lon="7.47174">
        <ele>295</ele>
        <time>2021-08-08T06:24:40Z</time>
      </trkpt>
      <trkpt lat="48.92283" lon="7.47188">
        <ele>295</ele>
        <time>2021-08-08T06:24:41Z</time>
      </trkpt>
      <trkpt lat="48.92283" lon="7.47188">
        <ele>295</ele>
        <time>2021-08-08T06:24:42Z</time>
      </trkpt>
      <trkpt lat="48.92287" lon="7.47201">
        <ele>295</ele>
        <time>2021-08-08T06:24:43Z</time>
      </trkpt>
      <trkpt lat="48.92287" lon="7.47201">
        <ele>296</ele>
        <time>2021-08-08T06:24:44Z</time>
      </trkpt>
      <trkpt lat="48.9229" lon="7.47214">
        <ele>296</ele>
        <time>2021-08-08T06:24:45Z</time>
      </trkpt>
      <trkpt lat="48.9229" lon="7.47214">
        <ele>296</ele>
        <time>2021-08-08T06:24:46Z</time>
      </trkpt>
      <trkpt lat="48.92293" lon="7.47228">
        <ele>296</ele>
        <time>2021-08-08T06:24:47Z</time>
      </trkpt>
      <trkpt lat="48.92293" lon="7.47228">
        <ele>296</ele>
        <time>2021-08-08T06:24:48Z</time>
      </trkpt>
      <trkpt lat="48.92296" lon="7.47242">
        <ele>296</ele>
        <time>2021-08-08T06:24:49Z</time>
      </trkpt>
      <trkpt lat="48.92298" lon="7.47249">
        <ele>296</ele>
        <time>2021-08-08T06:24:50Z</time>
      </trkpt>
      <trkpt lat="48.92298" lon="7.47249">
        <ele>296</ele>
        <time>2021-08-08T06:24:51Z</time>
      </trkpt>
      <trkpt lat="48.92302" lon="7.47263">
        <ele>296</ele>
        <time>2021-08-08T06:24:52Z</time>
      </trkpt>
      <trkpt lat="48.92302" lon="7.47263">
        <ele>296</ele>
        <time>2021-08-08T06:24:53Z</time>
      </trkpt>
      <trkpt lat="48.92306" lon="7.47278">
        <ele>296</ele>
        <time>2021-08-08T06:24:54Z</time>
      </trkpt>
      <trkpt lat="48.92308" lon="7.47284">
        <ele>296</ele>
        <time>2021-08-08T06:24:55Z</time>
      </trkpt>
      <trkpt lat="48.92308" lon="7.47284">
        <ele>296</ele>
        <time>2021-08-08T06:24:56Z</time>
      </trkpt>
      <trkpt lat="48.92313" lon="7.47298">
        <ele>296</ele>
        <time>2021-08-08T06:24:57Z</time>
      </trkpt>
      <trkpt lat="48.92313" lon="7.47298">
        <ele>296</ele>
        <time>2021-08-08T06:24:58Z</time>
      </trkpt>
      <trkpt lat="48.92319" lon="7.47311">
        <ele>296</ele>
        <time>2021-08-08T06:24:59Z</time>
      </trkpt>
      <trkpt lat="48.92319" lon="7.47311">
        <ele>296</ele>
        <time>2021-08-08T06:25:00Z</time>
      </trkpt>
      <trkpt lat="48.92323" lon="7.47324">
        <ele>296</ele>
        <time>2021-08-08T06:25:01Z</time>
      </trkpt>
      <trkpt lat="48.92326" lon="7.47331">
        <ele>296</ele>
        <time>2021-08-08T06:25:02Z</time>
      </trkpt>
      <trkpt lat="48.92326" lon="7.47331">
        <ele>296</ele>
        <time>2021-08-08T06:25:03Z</time>
      </trkpt>
      <trkpt lat="48.9233" lon="7.47344">
        <ele>296</ele>
        <time>2021-08-08T06:25:04Z</time>
      </trkpt>
      <trkpt lat="48.9233" lon="7.47344">
        <ele>296</ele>
        <time>2021-08-08T06:25:05Z</time>
      </trkpt>
      <trkpt lat="48.92333" lon="7.47359">
        <ele>296</ele>
        <time>2021-08-08T06:25:06Z</time>
      </trkpt>
      <trkpt lat="48.92334" lon="7.47367">
        <ele>296</ele>
        <time>2021-08-08T06:25:07Z</time>
      </trkpt>
      <trkpt lat="48.92335" lon="7.47374">
        <ele>296</ele>
        <time>2021-08-08T06:25:08Z</time>
      </trkpt>
      <trkpt lat="48.92335" lon="7.47374">
        <ele>296</ele>
        <time>2021-08-08T06:25:09Z</time>
      </trkpt>
      <trkpt lat="48.92335" lon="7.47389">
        <ele>296</ele>
        <time>2021-08-08T06:25:10Z</time>
      </trkpt>
      <trkpt lat="48.92335" lon="7.47389">
        <ele>296</ele>
        <time>2021-08-08T06:25:11Z</time>
      </trkpt>
      <trkpt lat="48.92333" lon="7.47404">
        <ele>296</ele>
        <time>2021-08-08T06:25:12Z</time>
      </trkpt>
      <trkpt lat="48.92332" lon="7.47412">
        <ele>297</ele>
        <time>2021-08-08T06:25:13Z</time>
      </trkpt>
      <trkpt lat="48.92332" lon="7.47412">
        <ele>297</ele>
        <time>2021-08-08T06:25:14Z</time>
      </trkpt>
      <trkpt lat="48.92329" lon="7.47426">
        <ele>297</ele>
        <time>2021-08-08T06:25:15Z</time>
      </trkpt>
      <trkpt lat="48.92327" lon="7.47432">
        <ele>297</ele>
        <time>2021-08-08T06:25:16Z</time>
      </trkpt>
      <trkpt lat="48.92327" lon="7.47432">
        <ele>297</ele>
        <time>2021-08-08T06:25:17Z</time>
      </trkpt>
      <trkpt lat="48.92324" lon="7.47445">
        <ele>297</ele>
        <time>2021-08-08T06:25:18Z</time>
      </trkpt>
      <trkpt lat="48.92322" lon="7.47452">
        <ele>297</ele>
        <time>2021-08-08T06:25:19Z</time>
      </trkpt>
      <trkpt lat="48.92321" lon="7.47459">
        <ele>297</ele>
        <time>2021-08-08T06:25:20Z</time>
      </trkpt>
      <trkpt lat="48.92321" lon="7.47459">
        <ele>297</ele>
        <time>2021-08-08T06:25:21Z</time>
      </trkpt>
      <trkpt lat="48.92317" lon="7.47473">
        <ele>297</ele>
        <time>2021-08-08T06:25:22Z</time>
      </trkpt>
      <trkpt lat="48.92314" lon="7.4748">
        <ele>297</ele>
        <time>2021-08-08T06:25:23Z</time>
      </trkpt>
      <trkpt lat="48.92314" lon="7.4748">
        <ele>297</ele>
        <time>2021-08-08T06:25:24Z</time>
      </trkpt>
      <trkpt lat="48.92309" lon="7.47494">
        <ele>297</ele>
        <time>2021-08-08T06:25:25Z</time>
      </trkpt>
      <trkpt lat="48.92306" lon="7.475">
        <ele>297</ele>
        <time>2021-08-08T06:25:26Z</time>
      </trkpt>
      <trkpt lat="48.92303" lon="7.47506">
        <ele>297</ele>
        <time>2021-08-08T06:25:27Z</time>
      </trkpt>
      <trkpt lat="48.92303" lon="7.47506">
        <ele>297</ele>
        <time>2021-08-08T06:25:28Z</time>
      </trkpt>
      <trkpt lat="48.92297" lon="7.47518">
        <ele>297</ele>
        <time>2021-08-08T06:25:29Z</time>
      </trkpt>
      <trkpt lat="48.92293" lon="7.47523">
        <ele>297</ele>
        <time>2021-08-08T06:25:30Z</time>
      </trkpt>
      <trkpt lat="48.9229" lon="7.47528">
        <ele>297</ele>
        <time>2021-08-08T06:25:31Z</time>
      </trkpt>
      <trkpt lat="48.92286" lon="7.47533">
        <ele>298</ele>
        <time>2021-08-08T06:25:32Z</time>
      </trkpt>
      <trkpt lat="48.92286" lon="7.47533">
        <ele>298</ele>
        <time>2021-08-08T06:25:33Z</time>
      </trkpt>
      <trkpt lat="48.92279" lon="7.47543">
        <ele>298</ele>
        <time>2021-08-08T06:25:34Z</time>
      </trkpt>
      <trkpt lat="48.92279" lon="7.47543">
        <ele>298</ele>
        <time>2021-08-08T06:25:35Z</time>
      </trkpt>
      <trkpt lat="48.92272" lon="7.47551">
        <ele>298</ele>
        <time>2021-08-08T06:25:36Z</time>
      </trkpt>
      <trkpt lat="48.92268" lon="7.47556">
        <ele>298</ele>
        <time>2021-08-08T06:25:37Z</time>
      </trkpt>
      <trkpt lat="48.92268" lon="7.47556">
        <ele>299</ele>
        <time>2021-08-08T06:25:38Z</time>
      </trkpt>
      <trkpt lat="48.92261" lon="7.47564">
        <ele>299</ele>
        <time>2021-08-08T06:25:39Z</time>
      </trkpt>
      <trkpt lat="48.92258" lon="7.47568">
        <ele>299</ele>
        <time>2021-08-08T06:25:40Z</time>
      </trkpt>
      <trkpt lat="48.92258" lon="7.47568">
        <ele>299</ele>
        <time>2021-08-08T06:25:41Z</time>
      </trkpt>
      <trkpt lat="48.92251" lon="7.47576">
        <ele>299</ele>
        <time>2021-08-08T06:25:42Z</time>
      </trkpt>
      <trkpt lat="48.92247" lon="7.4758">
        <ele>299</ele>
        <time>2021-08-08T06:25:43Z</time>
      </trkpt>
      <trkpt lat="48.92247" lon="7.4758">
        <ele>299</ele>
        <time>2021-08-08T06:25:44Z</time>
      </trkpt>
      <trkpt lat="48.92239" lon="7.47586">
        <ele>299</ele>
        <time>2021-08-08T06:25:45Z</time>
      </trkpt>
      <trkpt lat="48.92239" lon="7.47586">
        <ele>299</ele>
        <time>2021-08-08T06:25:46Z</time>
      </trkpt>
      <trkpt lat="48.92232" lon="7.47593">
        <ele>299</ele>
        <time>2021-08-08T06:25:47Z</time>
      </trkpt>
      <trkpt lat="48.92232" lon="7.47593">
        <ele>299</ele>
        <time>2021-08-08T06:25:48Z</time>
      </trkpt>
      <trkpt lat="48.92225" lon="7.476">
        <ele>299</ele>
        <time>2021-08-08T06:25:49Z</time>
      </trkpt>
      <trkpt lat="48.92225" lon="7.476">
        <ele>299</ele>
        <time>2021-08-08T06:25:50Z</time>
      </trkpt>
      <trkpt lat="48.92219" lon="7.47608">
        <ele>299</ele>
        <time>2021-08-08T06:25:51Z</time>
      </trkpt>
      <trkpt lat="48.92219" lon="7.47608">
        <ele>299</ele>
        <time>2021-08-08T06:25:52Z</time>
      </trkpt>
      <trkpt lat="48.92213" lon="7.47616">
        <ele>299</ele>
        <time>2021-08-08T06:25:53Z</time>
      </trkpt>
      <trkpt lat="48.9221" lon="7.47619">
        <ele>299</ele>
        <time>2021-08-08T06:25:54Z</time>
      </trkpt>
      <trkpt lat="48.9221" lon="7.47619">
        <ele>299</ele>
        <time>2021-08-08T06:25:55Z</time>
      </trkpt>
      <trkpt lat="48.92203" lon="7.47627">
        <ele>300</ele>
        <time>2021-08-08T06:25:56Z</time>
      </trkpt>
      <trkpt lat="48.92203" lon="7.47627">
        <ele>300</ele>
        <time>2021-08-08T06:25:57Z</time>
      </trkpt>
      <trkpt lat="48.92197" lon="7.47636">
        <ele>300</ele>
        <time>2021-08-08T06:25:58Z</time>
      </trkpt>
      <trkpt lat="48.92197" lon="7.47636">
        <ele>300</ele>
        <time>2021-08-08T06:25:59Z</time>
      </trkpt>
      <trkpt lat="48.92191" lon="7.47644">
        <ele>300</ele>
        <time>2021-08-08T06:26:00Z</time>
      </trkpt>
      <trkpt lat="48.92188" lon="7.47648">
        <ele>301</ele>
        <time>2021-08-08T06:26:01Z</time>
      </trkpt>
      <trkpt lat="48.92188" lon="7.47648">
        <ele>301</ele>
        <time>2021-08-08T06:26:02Z</time>
      </trkpt>
      <trkpt lat="48.92181" lon="7.47656">
        <ele>301</ele>
        <time>2021-08-08T06:26:03Z</time>
      </trkpt>
      <trkpt lat="48.92181" lon="7.47656">
        <ele>301</ele>
        <time>2021-08-08T06:26:04Z</time>
      </trkpt>
      <trkpt lat="48.92175" lon="7.47664">
        <ele>301</ele>
        <time>2021-08-08T06:26:05Z</time>
      </trkpt>
      <trkpt lat="48.92175" lon="7.47664">
        <ele>301</ele>
        <time>2021-08-08T06:26:06Z</time>
      </trkpt>
      <trkpt lat="48.92169" lon="7.47672">
        <ele>302</ele>
        <time>2021-08-08T06:26:07Z</time>
      </trkpt>
      <trkpt lat="48.92169" lon="7.47672">
        <ele>302</ele>
        <time>2021-08-08T06:26:08Z</time>
      </trkpt>
      <trkpt lat="48.92163" lon="7.47681">
        <ele>302</ele>
        <time>2021-08-08T06:26:09Z</time>
      </trkpt>
      <trkpt lat="48.92163" lon="7.47681">
        <ele>302</ele>
        <time>2021-08-08T06:26:10Z</time>
      </trkpt>
      <trkpt lat="48.92158" lon="7.47689">
        <ele>302</ele>
        <time>2021-08-08T06:26:11Z</time>
      </trkpt>
      <trkpt lat="48.92158" lon="7.47689">
        <ele>303</ele>
        <time>2021-08-08T06:26:12Z</time>
      </trkpt>
      <trkpt lat="48.92153" lon="7.47699">
        <ele>303</ele>
        <time>2021-08-08T06:26:13Z</time>
      </trkpt>
      <trkpt lat="48.92153" lon="7.47699">
        <ele>303</ele>
        <time>2021-08-08T06:26:14Z</time>
      </trkpt>
      <trkpt lat="48.92148" lon="7.47707">
        <ele>303</ele>
        <time>2021-08-08T06:26:15Z</time>
      </trkpt>
      <trkpt lat="48.92148" lon="7.47707">
        <ele>303</ele>
        <time>2021-08-08T06:26:16Z</time>
      </trkpt>
      <trkpt lat="48.92144" lon="7.47715">
        <ele>303</ele>
        <time>2021-08-08T06:26:17Z</time>
      </trkpt>
      <trkpt lat="48.92144" lon="7.47715">
        <ele>304</ele>
        <time>2021-08-08T06:26:18Z</time>
      </trkpt>
      <trkpt lat="48.92139" lon="7.47723">
        <ele>304</ele>
        <time>2021-08-08T06:26:19Z</time>
      </trkpt>
      <trkpt lat="48.92139" lon="7.47723">
        <ele>304</ele>
        <time>2021-08-08T06:26:20Z</time>
      </trkpt>
      <trkpt lat="48.92135" lon="7.47732">
        <ele>304</ele>
        <time>2021-08-08T06:26:21Z</time>
      </trkpt>
      <trkpt lat="48.92135" lon="7.47732">
        <ele>304</ele>
        <time>2021-08-08T06:26:22Z</time>
      </trkpt>
      <trkpt lat="48.92132" lon="7.47739">
        <ele>304</ele>
        <time>2021-08-08T06:26:23Z</time>
      </trkpt>
      <trkpt lat="48.92132" lon="7.47739">
        <ele>304</ele>
        <time>2021-08-08T06:26:24Z</time>
      </trkpt>
      <trkpt lat="48.92129" lon="7.47747">
        <ele>305</ele>
        <time>2021-08-08T06:26:25Z</time>
      </trkpt>
      <trkpt lat="48.92127" lon="7.47752">
        <ele>305</ele>
        <time>2021-08-08T06:26:26Z</time>
      </trkpt>
      <trkpt lat="48.92127" lon="7.47752">
        <ele>305</ele>
        <time>2021-08-08T06:26:27Z</time>
      </trkpt>
      <trkpt lat="48.92125" lon="7.47759">
        <ele>305</ele>
        <time>2021-08-08T06:26:28Z</time>
      </trkpt>
      <trkpt lat="48.92125" lon="7.47759">
        <ele>306</ele>
        <time>2021-08-08T06:26:29Z</time>
      </trkpt>
      <trkpt lat="48.92122" lon="7.47766">
        <ele>306</ele>
        <time>2021-08-08T06:26:30Z</time>
      </trkpt>
      <trkpt lat="48.92122" lon="7.47766">
        <ele>306</ele>
        <time>2021-08-08T06:26:31Z</time>
      </trkpt>
      <trkpt lat="48.92119" lon="7.47773">
        <ele>306</ele>
        <time>2021-08-08T06:26:32Z</time>
      </trkpt>
      <trkpt lat="48.92119" lon="7.47773">
        <ele>307</ele>
        <time>2021-08-08T06:26:33Z</time>
      </trkpt>
      <trkpt lat="48.92116" lon="7.47781">
        <ele>307</ele>
        <time>2021-08-08T06:26:34Z</time>
      </trkpt>
      <trkpt lat="48.92114" lon="7.47785">
        <ele>307</ele>
        <time>2021-08-08T06:26:35Z</time>
      </trkpt>
      <trkpt lat="48.92114" lon="7.47785">
        <ele>307</ele>
        <time>2021-08-08T06:26:36Z</time>
      </trkpt>
      <trkpt lat="48.92111" lon="7.47792">
        <ele>308</ele>
        <time>2021-08-08T06:26:37Z</time>
      </trkpt>
      <trkpt lat="48.92111" lon="7.47792">
        <ele>308</ele>
        <time>2021-08-08T06:26:38Z</time>
      </trkpt>
      <trkpt lat="48.92108" lon="7.47799">
        <ele>308</ele>
        <time>2021-08-08T06:26:39Z</time>
      </trkpt>
      <trkpt lat="48.92108" lon="7.47799">
        <ele>308</ele>
        <time>2021-08-08T06:26:40Z</time>
      </trkpt>
      <trkpt lat="48.92106" lon="7.47806">
        <ele>308</ele>
        <time>2021-08-08T06:26:41Z</time>
      </trkpt>
      <trkpt lat="48.92106" lon="7.47806">
        <ele>308</ele>
        <time>2021-08-08T06:26:42Z</time>
      </trkpt>
      <trkpt lat="48.92103" lon="7.47813">
        <ele>308</ele>
        <time>2021-08-08T06:26:43Z</time>
      </trkpt>
      <trkpt lat="48.92101" lon="7.47817">
        <ele>308</ele>
        <time>2021-08-08T06:26:44Z</time>
      </trkpt>
      <trkpt lat="48.92101" lon="7.47817">
        <ele>308</ele>
        <time>2021-08-08T06:26:45Z</time>
      </trkpt>
      <trkpt lat="48.92098" lon="7.47824">
        <ele>308</ele>
        <time>2021-08-08T06:26:46Z</time>
      </trkpt>
      <trkpt lat="48.92097" lon="7.47828">
        <ele>309</ele>
        <time>2021-08-08T06:26:47Z</time>
      </trkpt>
      <trkpt lat="48.92097" lon="7.47828">
        <ele>309</ele>
        <time>2021-08-08T06:26:48Z</time>
      </trkpt>
      <trkpt lat="48.92093" lon="7.47836">
        <ele>309</ele>
        <time>2021-08-08T06:26:49Z</time>
      </trkpt>
      <trkpt lat="48.92093" lon="7.47836">
        <ele>309</ele>
        <time>2021-08-08T06:26:50Z</time>
      </trkpt>
      <trkpt lat="48.9209" lon="7.47844">
        <ele>309</ele>
        <time>2021-08-08T06:26:51Z</time>
      </trkpt>
      <trkpt lat="48.9209" lon="7.47844">
        <ele>309</ele>
        <time>2021-08-08T06:26:52Z</time>
      </trkpt>
      <trkpt lat="48.92088" lon="7.47853">
        <ele>310</ele>
        <time>2021-08-08T06:26:53Z</time>
      </trkpt>
      <trkpt lat="48.92088" lon="7.47853">
        <ele>310</ele>
        <time>2021-08-08T06:26:54Z</time>
      </trkpt>
      <trkpt lat="48.92085" lon="7.47861">
        <ele>310</ele>
        <time>2021-08-08T06:26:55Z</time>
      </trkpt>
      <trkpt lat="48.92085" lon="7.47861">
        <ele>311</ele>
        <time>2021-08-08T06:26:56Z</time>
      </trkpt>
      <trkpt lat="48.92083" lon="7.4787">
        <ele>311</ele>
        <time>2021-08-08T06:26:57Z</time>
      </trkpt>
      <trkpt lat="48.92083" lon="7.4787">
        <ele>311</ele>
        <time>2021-08-08T06:26:58Z</time>
      </trkpt>
      <trkpt lat="48.92079" lon="7.47878">
        <ele>311</ele>
        <time>2021-08-08T06:26:59Z</time>
      </trkpt>
      <trkpt lat="48.92077" lon="7.47883">
        <ele>311</ele>
        <time>2021-08-08T06:27:00Z</time>
      </trkpt>
      <trkpt lat="48.92076" lon="7.47887">
        <ele>311</ele>
        <time>2021-08-08T06:27:01Z</time>
      </trkpt>
      <trkpt lat="48.92076" lon="7.47887">
        <ele>311</ele>
        <time>2021-08-08T06:27:02Z</time>
      </trkpt>
      <trkpt lat="48.92073" lon="7.47896">
        <ele>311</ele>
        <time>2021-08-08T06:27:03Z</time>
      </trkpt>
      <trkpt lat="48.92072" lon="7.479">
        <ele>312</ele>
        <time>2021-08-08T06:27:04Z</time>
      </trkpt>
      <trkpt lat="48.92072" lon="7.479">
        <ele>312</ele>
        <time>2021-08-08T06:27:05Z</time>
      </trkpt>
      <trkpt lat="48.92069" lon="7.47909">
        <ele>312</ele>
        <time>2021-08-08T06:27:06Z</time>
      </trkpt>
      <trkpt lat="48.92067" lon="7.47913">
        <ele>312</ele>
        <time>2021-08-08T06:27:07Z</time>
      </trkpt>
      <trkpt lat="48.92067" lon="7.47913">
        <ele>313</ele>
        <time>2021-08-08T06:27:08Z</time>
      </trkpt>
      <trkpt lat="48.92064" lon="7.47922">
        <ele>313</ele>
        <time>2021-08-08T06:27:09Z</time>
      </trkpt>
      <trkpt lat="48.92064" lon="7.47922">
        <ele>313</ele>
        <time>2021-08-08T06:27:10Z</time>
      </trkpt>
      <trkpt lat="48.92061" lon="7.47931">
        <ele>313</ele>
        <time>2021-08-08T06:27:11Z</time>
      </trkpt>
      <trkpt lat="48.92061" lon="7.47931">
        <ele>313</ele>
        <time>2021-08-08T06:27:12Z</time>
      </trkpt>
      <trkpt lat="48.92059" lon="7.4794">
        <ele>313</ele>
        <time>2021-08-08T06:27:13Z</time>
      </trkpt>
      <trkpt lat="48.92059" lon="7.4794">
        <ele>314</ele>
        <time>2021-08-08T06:27:14Z</time>
      </trkpt>
      <trkpt lat="48.92058" lon="7.47949">
        <ele>314</ele>
        <time>2021-08-08T06:27:15Z</time>
      </trkpt>
      <trkpt lat="48.92058" lon="7.47949">
        <ele>314</ele>
        <time>2021-08-08T06:27:16Z</time>
      </trkpt>
      <trkpt lat="48.92057" lon="7.47958">
        <ele>314</ele>
        <time>2021-08-08T06:27:17Z</time>
      </trkpt>
      <trkpt lat="48.92057" lon="7.47958">
        <ele>315</ele>
        <time>2021-08-08T06:27:18Z</time>
      </trkpt>
      <trkpt lat="48.92056" lon="7.47968">
        <ele>315</ele>
        <time>2021-08-08T06:27:19Z</time>
      </trkpt>
      <trkpt lat="48.92056" lon="7.47968">
        <ele>315</ele>
        <time>2021-08-08T06:27:20Z</time>
      </trkpt>
      <trkpt lat="48.92056" lon="7.47977">
        <ele>315</ele>
        <time>2021-08-08T06:27:21Z</time>
      </trkpt>
      <trkpt lat="48.92056" lon="7.47977">
        <ele>315</ele>
        <time>2021-08-08T06:27:22Z</time>
      </trkpt>
      <trkpt lat="48.92056" lon="7.47986">
        <ele>315</ele>
        <time>2021-08-08T06:27:23Z</time>
      </trkpt>
      <trkpt lat="48.92056" lon="7.47986">
        <ele>315</ele>
        <time>2021-08-08T06:27:24Z</time>
      </trkpt>
      <trkpt lat="48.92057" lon="7.47996">
        <ele>315</ele>
        <time>2021-08-08T06:27:25Z</time>
      </trkpt>
      <trkpt lat="48.92057" lon="7.47996">
        <ele>316</ele>
        <time>2021-08-08T06:27:26Z</time>
      </trkpt>
      <trkpt lat="48.92058" lon="7.48005">
        <ele>316</ele>
        <time>2021-08-08T06:27:27Z</time>
      </trkpt>
      <trkpt lat="48.92059" lon="7.4801">
        <ele>316</ele>
        <time>2021-08-08T06:27:28Z</time>
      </trkpt>
      <trkpt lat="48.92059" lon="7.48015">
        <ele>316</ele>
        <time>2021-08-08T06:27:29Z</time>
      </trkpt>
      <trkpt lat="48.92059" lon="7.48015">
        <ele>317</ele>
        <time>2021-08-08T06:27:30Z</time>
      </trkpt>
      <trkpt lat="48.92061" lon="7.48024">
        <ele>317</ele>
        <time>2021-08-08T06:27:31Z</time>
      </trkpt>
      <trkpt lat="48.92061" lon="7.48024">
        <ele>317</ele>
        <time>2021-08-08T06:27:32Z</time>
      </trkpt>
      <trkpt lat="48.92062" lon="7.48033">
        <ele>317</ele>
        <time>2021-08-08T06:27:33Z</time>
      </trkpt>
      <trkpt lat="48.92062" lon="7.48033">
        <ele>317</ele>
        <time>2021-08-08T06:27:34Z</time>
      </trkpt>
      <trkpt lat="48.92062" lon="7.48042">
        <ele>317</ele>
        <time>2021-08-08T06:27:35Z</time>
      </trkpt>
      <trkpt lat="48.92062" lon="7.48046">
        <ele>318</ele>
        <time>2021-08-08T06:27:36Z</time>
      </trkpt>
      <trkpt lat="48.92063" lon="7.4805">
        <ele>318</ele>
        <time>2021-08-08T06:27:37Z</time>
      </trkpt>
      <trkpt lat="48.92063" lon="7.4805">
        <ele>318</ele>
        <time>2021-08-08T06:27:38Z</time>
      </trkpt>
      <trkpt lat="48.92064" lon="7.48058">
        <ele>318</ele>
        <time>2021-08-08T06:27:39Z</time>
      </trkpt>
      <trkpt lat="48.92064" lon="7.48058">
        <ele>318</ele>
        <time>2021-08-08T06:27:40Z</time>
      </trkpt>
      <trkpt lat="48.92065" lon="7.48067">
        <ele>318</ele>
        <time>2021-08-08T06:27:41Z</time>
      </trkpt>
      <trkpt lat="48.92066" lon="7.48072">
        <ele>319</ele>
        <time>2021-08-08T06:27:42Z</time>
      </trkpt>
      <trkpt lat="48.92066" lon="7.48077">
        <ele>319</ele>
        <time>2021-08-08T06:27:43Z</time>
      </trkpt>
      <trkpt lat="48.92066" lon="7.48077">
        <ele>319</ele>
        <time>2021-08-08T06:27:44Z</time>
      </trkpt>
      <trkpt lat="48.92068" lon="7.48086">
        <ele>319</ele>
        <time>2021-08-08T06:27:45Z</time>
      </trkpt>
      <trkpt lat="48.92068" lon="7.48086">
        <ele>319</ele>
        <time>2021-08-08T06:27:46Z</time>
      </trkpt>
      <trkpt lat="48.92069" lon="7.48095">
        <ele>319</ele>
        <time>2021-08-08T06:27:47Z</time>
      </trkpt>
      <trkpt lat="48.92069" lon="7.48095">
        <ele>319</ele>
        <time>2021-08-08T06:27:48Z</time>
      </trkpt>
      <trkpt lat="48.9207" lon="7.48103">
        <ele>319</ele>
        <time>2021-08-08T06:27:49Z</time>
      </trkpt>
      <trkpt lat="48.9207" lon="7.48108">
        <ele>319</ele>
        <time>2021-08-08T06:27:50Z</time>
      </trkpt>
      <trkpt lat="48.92072" lon="7.48112">
        <ele>319</ele>
        <time>2021-08-08T06:27:51Z</time>
      </trkpt>
      <trkpt lat="48.92072" lon="7.48112">
        <ele>319</ele>
        <time>2021-08-08T06:27:52Z</time>
      </trkpt>
      <trkpt lat="48.92073" lon="7.48122">
        <ele>319</ele>
        <time>2021-08-08T06:27:53Z</time>
      </trkpt>
      <trkpt lat="48.92073" lon="7.48122">
        <ele>320</ele>
        <time>2021-08-08T06:27:54Z</time>
      </trkpt>
      <trkpt lat="48.92075" lon="7.4813">
        <ele>320</ele>
        <time>2021-08-08T06:27:55Z</time>
      </trkpt>
      <trkpt lat="48.92075" lon="7.48134">
        <ele>320</ele>
        <time>2021-08-08T06:27:56Z</time>
      </trkpt>
      <trkpt lat="48.92075" lon="7.48134">
        <ele>320</ele>
        <time>2021-08-08T06:27:57Z</time>
      </trkpt>
      <trkpt lat="48.92077" lon="7.48143">
        <ele>321</ele>
        <time>2021-08-08T06:27:58Z</time>
      </trkpt>
      <trkpt lat="48.92077" lon="7.48143">
        <ele>321</ele>
        <time>2021-08-08T06:27:59Z</time>
      </trkpt>
      <trkpt lat="48.92078" lon="7.48151">
        <ele>321</ele>
        <time>2021-08-08T06:28:00Z</time>
      </trkpt>
      <trkpt lat="48.92079" lon="7.48155">
        <ele>321</ele>
        <time>2021-08-08T06:28:01Z</time>
      </trkpt>
      <trkpt lat="48.92079" lon="7.48158">
        <ele>321</ele>
        <time>2021-08-08T06:28:02Z</time>
      </trkpt>
      <trkpt lat="48.9208" lon="7.48162">
        <ele>321</ele>
        <time>2021-08-08T06:28:03Z</time>
      </trkpt>
      <trkpt lat="48.9208" lon="7.48162">
        <ele>322</ele>
        <time>2021-08-08T06:28:04Z</time>
      </trkpt>
      <trkpt lat="48.92081" lon="7.4817">
        <ele>322</ele>
        <time>2021-08-08T06:28:05Z</time>
      </trkpt>
      <trkpt lat="48.92081" lon="7.4817">
        <ele>322</ele>
        <time>2021-08-08T06:28:06Z</time>
      </trkpt>
      <trkpt lat="48.92082" lon="7.48178">
        <ele>322</ele>
        <time>2021-08-08T06:28:07Z</time>
      </trkpt>
      <trkpt lat="48.92082" lon="7.48178">
        <ele>323</ele>
        <time>2021-08-08T06:28:08Z</time>
      </trkpt>
      <trkpt lat="48.92082" lon="7.48186">
        <ele>323</ele>
        <time>2021-08-08T06:28:09Z</time>
      </trkpt>
      <trkpt lat="48.92082" lon="7.48186">
        <ele>323</ele>
        <time>2021-08-08T06:28:10Z</time>
      </trkpt>
      <trkpt lat="48.92085" lon="7.48193">
        <ele>323</ele>
        <time>2021-08-08T06:28:11Z</time>
      </trkpt>
      <trkpt lat="48.92085" lon="7.48193">
        <ele>323</ele>
        <time>2021-08-08T06:28:12Z</time>
      </trkpt>
      <trkpt lat="48.92087" lon="7.482">
        <ele>324</ele>
        <time>2021-08-08T06:28:13Z</time>
      </trkpt>
      <trkpt lat="48.92087" lon="7.482">
        <ele>324</ele>
        <time>2021-08-08T06:28:14Z</time>
      </trkpt>
      <trkpt lat="48.92088" lon="7.48208">
        <ele>324</ele>
        <time>2021-08-08T06:28:15Z</time>
      </trkpt>
      <trkpt lat="48.92088" lon="7.48208">
        <ele>324</ele>
        <time>2021-08-08T06:28:16Z</time>
      </trkpt>
      <trkpt lat="48.92089" lon="7.48217">
        <ele>324</ele>
        <time>2021-08-08T06:28:17Z</time>
      </trkpt>
      <trkpt lat="48.92089" lon="7.48217">
        <ele>324</ele>
        <time>2021-08-08T06:28:18Z</time>
      </trkpt>
      <trkpt lat="48.92089" lon="7.48227">
        <ele>325</ele>
        <time>2021-08-08T06:28:19Z</time>
      </trkpt>
      <trkpt lat="48.92089" lon="7.48227">
        <ele>325</ele>
        <time>2021-08-08T06:28:20Z</time>
      </trkpt>
      <trkpt lat="48.92089" lon="7.48236">
        <ele>325</ele>
        <time>2021-08-08T06:28:21Z</time>
      </trkpt>
      <trkpt lat="48.92089" lon="7.48236">
        <ele>325</ele>
        <time>2021-08-08T06:28:22Z</time>
      </trkpt>
      <trkpt lat="48.9209" lon="7.48247">
        <ele>325</ele>
        <time>2021-08-08T06:28:23Z</time>
      </trkpt>
      <trkpt lat="48.9209" lon="7.48247">
        <ele>325</ele>
        <time>2021-08-08T06:28:24Z</time>
      </trkpt>
      <trkpt lat="48.9209" lon="7.48257">
        <ele>326</ele>
        <time>2021-08-08T06:28:25Z</time>
      </trkpt>
      <trkpt lat="48.9209" lon="7.48257">
        <ele>326</ele>
        <time>2021-08-08T06:28:26Z</time>
      </trkpt>
      <trkpt lat="48.9209" lon="7.48267">
        <ele>326</ele>
        <time>2021-08-08T06:28:27Z</time>
      </trkpt>
      <trkpt lat="48.9209" lon="7.48267">
        <ele>326</ele>
        <time>2021-08-08T06:28:28Z</time>
      </trkpt>
      <trkpt lat="48.92091" lon="7.48276">
        <ele>326</ele>
        <time>2021-08-08T06:28:29Z</time>
      </trkpt>
      <trkpt lat="48.92091" lon="7.48276">
        <ele>326</ele>
        <time>2021-08-08T06:28:30Z</time>
      </trkpt>
      <trkpt lat="48.92092" lon="7.48286">
        <ele>326</ele>
        <time>2021-08-08T06:28:31Z</time>
      </trkpt>
      <trkpt lat="48.92092" lon="7.48286">
        <ele>326</ele>
        <time>2021-08-08T06:28:32Z</time>
      </trkpt>
      <trkpt lat="48.92092" lon="7.48296">
        <ele>326</ele>
        <time>2021-08-08T06:28:33Z</time>
      </trkpt>
      <trkpt lat="48.92092" lon="7.48296">
        <ele>326</ele>
        <time>2021-08-08T06:28:34Z</time>
      </trkpt>
      <trkpt lat="48.92093" lon="7.48306">
        <ele>326</ele>
        <time>2021-08-08T06:28:35Z</time>
      </trkpt>
      <trkpt lat="48.92093" lon="7.48306">
        <ele>326</ele>
        <time>2021-08-08T06:28:36Z</time>
      </trkpt>
      <trkpt lat="48.92093" lon="7.48315">
        <ele>326</ele>
        <time>2021-08-08T06:28:37Z</time>
      </trkpt>
      <trkpt lat="48.92094" lon="7.48319">
        <ele>326</ele>
        <time>2021-08-08T06:28:38Z</time>
      </trkpt>
      <trkpt lat="48.92094" lon="7.48323">
        <ele>326</ele>
        <time>2021-08-08T06:28:39Z</time>
      </trkpt>
      <trkpt lat="48.92094" lon="7.48323">
        <ele>328</ele>
        <time>2021-08-08T06:28:40Z</time>
      </trkpt>
      <trkpt lat="48.92095" lon="7.48332">
        <ele>328</ele>
        <time>2021-08-08T06:28:41Z</time>
      </trkpt>
      <trkpt lat="48.92095" lon="7.48332">
        <ele>328</ele>
        <time>2021-08-08T06:28:42Z</time>
      </trkpt>
      <trkpt lat="48.92095" lon="7.48341">
        <ele>328</ele>
        <time>2021-08-08T06:28:43Z</time>
      </trkpt>
      <trkpt lat="48.92095" lon="7.48341">
        <ele>329</ele>
        <time>2021-08-08T06:28:44Z</time>
      </trkpt>
      <trkpt lat="48.92096" lon="7.4835">
        <ele>329</ele>
        <time>2021-08-08T06:28:45Z</time>
      </trkpt>
      <trkpt lat="48.92096" lon="7.4835">
        <ele>329</ele>
        <time>2021-08-08T06:28:46Z</time>
      </trkpt>
      <trkpt lat="48.92097" lon="7.4836">
        <ele>329</ele>
        <time>2021-08-08T06:28:47Z</time>
      </trkpt>
      <trkpt lat="48.92097" lon="7.4836">
        <ele>330</ele>
        <time>2021-08-08T06:28:48Z</time>
      </trkpt>
      <trkpt lat="48.92098" lon="7.48369">
        <ele>330</ele>
        <time>2021-08-08T06:28:49Z</time>
      </trkpt>
      <trkpt lat="48.92098" lon="7.48374">
        <ele>330</ele>
        <time>2021-08-08T06:28:50Z</time>
      </trkpt>
      <trkpt lat="48.92099" lon="7.48379">
        <ele>330</ele>
        <time>2021-08-08T06:28:51Z</time>
      </trkpt>
      <trkpt lat="48.92099" lon="7.48379">
        <ele>330</ele>
        <time>2021-08-08T06:28:52Z</time>
      </trkpt>
      <trkpt lat="48.92099" lon="7.48388">
        <ele>330</ele>
        <time>2021-08-08T06:28:53Z</time>
      </trkpt>
      <trkpt lat="48.92099" lon="7.48388">
        <ele>330</ele>
        <time>2021-08-08T06:28:54Z</time>
      </trkpt>
      <trkpt lat="48.92101" lon="7.48397">
        <ele>331</ele>
        <time>2021-08-08T06:28:55Z</time>
      </trkpt>
      <trkpt lat="48.92101" lon="7.48397">
        <ele>331</ele>
        <time>2021-08-08T06:28:56Z</time>
      </trkpt>
      <trkpt lat="48.92102" lon="7.48405">
        <ele>331</ele>
        <time>2021-08-08T06:28:57Z</time>
      </trkpt>
      <trkpt lat="48.92102" lon="7.48405">
        <ele>331</ele>
        <time>2021-08-08T06:28:58Z</time>
      </trkpt>
      <trkpt lat="48.92102" lon="7.48413">
        <ele>331</ele>
        <time>2021-08-08T06:28:59Z</time>
      </trkpt>
      <trkpt lat="48.92102" lon="7.48417">
        <ele>332</ele>
        <time>2021-08-08T06:29:00Z</time>
      </trkpt>
      <trkpt lat="48.92102" lon="7.4842">
        <ele>332</ele>
        <time>2021-08-08T06:29:01Z</time>
      </trkpt>
      <trkpt lat="48.92102" lon="7.48423">
        <ele>332</ele>
        <time>2021-08-08T06:29:02Z</time>
      </trkpt>
      <trkpt lat="48.92102" lon="7.48426">
        <ele>332</ele>
        <time>2021-08-08T06:29:03Z</time>
      </trkpt>
      <trkpt lat="48.92102" lon="7.48426">
        <ele>333</ele>
        <time>2021-08-08T06:29:04Z</time>
      </trkpt>
      <trkpt lat="48.92103" lon="7.48432">
        <ele>333</ele>
        <time>2021-08-08T06:29:05Z</time>
      </trkpt>
      <trkpt lat="48.92103" lon="7.48435">
        <ele>333</ele>
        <time>2021-08-08T06:29:06Z</time>
      </trkpt>
      <trkpt lat="48.92103" lon="7.48435">
        <ele>333</ele>
        <time>2021-08-08T06:29:07Z</time>
      </trkpt>
      <trkpt lat="48.92105" lon="7.48441">
        <ele>333</ele>
        <time>2021-08-08T06:29:08Z</time>
      </trkpt>
      <trkpt lat="48.92106" lon="7.48444">
        <ele>333</ele>
        <time>2021-08-08T06:29:09Z</time>
      </trkpt>
      <trkpt lat="48.92106" lon="7.48444">
        <ele>334</ele>
        <time>2021-08-08T06:29:10Z</time>
      </trkpt>
      <trkpt lat="48.92108" lon="7.4845">
        <ele>334</ele>
        <time>2021-08-08T06:29:11Z</time>
      </trkpt>
      <trkpt lat="48.92109" lon="7.48453">
        <ele>334</ele>
        <time>2021-08-08T06:29:12Z</time>
      </trkpt>
      <trkpt lat="48.92109" lon="7.48453">
        <ele>334</ele>
        <time>2021-08-08T06:29:13Z</time>
      </trkpt>
      <trkpt lat="48.92111" lon="7.48458">
        <ele>335</ele>
        <time>2021-08-08T06:29:14Z</time>
      </trkpt>
      <trkpt lat="48.92111" lon="7.48458">
        <ele>335</ele>
        <time>2021-08-08T06:29:15Z</time>
      </trkpt>
      <trkpt lat="48.92114" lon="7.48463">
        <ele>335</ele>
        <time>2021-08-08T06:29:16Z</time>
      </trkpt>
      <trkpt lat="48.92114" lon="7.48463">
        <ele>335</ele>
        <time>2021-08-08T06:29:17Z</time>
      </trkpt>
      <trkpt lat="48.92116" lon="7.48468">
        <ele>336</ele>
        <time>2021-08-08T06:29:18Z</time>
      </trkpt>
      <trkpt lat="48.92118" lon="7.4847">
        <ele>336</ele>
        <time>2021-08-08T06:29:19Z</time>
      </trkpt>
      <trkpt lat="48.92119" lon="7.48472">
        <ele>336</ele>
        <time>2021-08-08T06:29:20Z</time>
      </trkpt>
      <trkpt lat="48.92121" lon="7.48474">
        <ele>336</ele>
        <time>2021-08-08T06:29:21Z</time>
      </trkpt>
      <trkpt lat="48.92121" lon="7.48474">
        <ele>336</ele>
        <time>2021-08-08T06:29:22Z</time>
      </trkpt>
      <trkpt lat="48.92125" lon="7.48477">
        <ele>336</ele>
        <time>2021-08-08T06:29:23Z</time>
      </trkpt>
      <trkpt lat="48.92125" lon="7.48477">
        <ele>337</ele>
        <time>2021-08-08T06:29:24Z</time>
      </trkpt>
      <trkpt lat="48.9213" lon="7.4848">
        <ele>337</ele>
        <time>2021-08-08T06:29:25Z</time>
      </trkpt>
      <trkpt lat="48.9213" lon="7.4848">
        <ele>337</ele>
        <time>2021-08-08T06:29:26Z</time>
      </trkpt>
      <trkpt lat="48.92134" lon="7.48484">
        <ele>337</ele>
        <time>2021-08-08T06:29:27Z</time>
      </trkpt>
      <trkpt lat="48.92134" lon="7.48484">
        <ele>337</ele>
        <time>2021-08-08T06:29:28Z</time>
      </trkpt>
      <trkpt lat="48.92138" lon="7.48488">
        <ele>337</ele>
        <time>2021-08-08T06:29:29Z</time>
      </trkpt>
      <trkpt lat="48.92141" lon="7.48489">
        <ele>337</ele>
        <time>2021-08-08T06:29:30Z</time>
      </trkpt>
      <trkpt lat="48.92141" lon="7.48489">
        <ele>337</ele>
        <time>2021-08-08T06:29:31Z</time>
      </trkpt>
      <trkpt lat="48.92146" lon="7.48491">
        <ele>337</ele>
        <time>2021-08-08T06:29:32Z</time>
      </trkpt>
      <trkpt lat="48.92148" lon="7.48494">
        <ele>337</ele>
        <time>2021-08-08T06:29:33Z</time>
      </trkpt>
      <trkpt lat="48.92148" lon="7.48494">
        <ele>337</ele>
        <time>2021-08-08T06:29:34Z</time>
      </trkpt>
      <trkpt lat="48.92154" lon="7.48499">
        <ele>337</ele>
        <time>2021-08-08T06:29:35Z</time>
      </trkpt>
      <trkpt lat="48.92154" lon="7.48499">
        <ele>337</ele>
        <time>2021-08-08T06:29:36Z</time>
      </trkpt>
      <trkpt lat="48.92161" lon="7.48502">
        <ele>337</ele>
        <time>2021-08-08T06:29:37Z</time>
      </trkpt>
      <trkpt lat="48.92161" lon="7.48502">
        <ele>337</ele>
        <time>2021-08-08T06:29:38Z</time>
      </trkpt>
      <trkpt lat="48.92167" lon="7.48505">
        <ele>337</ele>
        <time>2021-08-08T06:29:39Z</time>
      </trkpt>
      <trkpt lat="48.92167" lon="7.48505">
        <ele>337</ele>
        <time>2021-08-08T06:29:40Z</time>
      </trkpt>
      <trkpt lat="48.92173" lon="7.48508">
        <ele>337</ele>
        <time>2021-08-08T06:29:41Z</time>
      </trkpt>
      <trkpt lat="48.92173" lon="7.48508">
        <ele>337</ele>
        <time>2021-08-08T06:29:42Z</time>
      </trkpt>
      <trkpt lat="48.92177" lon="7.48511">
        <ele>337</ele>
        <time>2021-08-08T06:29:43Z</time>
      </trkpt>
      <trkpt lat="48.92177" lon="7.48511">
        <ele>337</ele>
        <time>2021-08-08T06:29:44Z</time>
      </trkpt>
      <trkpt lat="48.92179" lon="7.48515">
        <ele>337</ele>
        <time>2021-08-08T06:29:45Z</time>
      </trkpt>
      <trkpt lat="48.92179" lon="7.48515">
        <ele>337</ele>
        <time>2021-08-08T06:29:46Z</time>
      </trkpt>
      <trkpt lat="48.92184" lon="7.4852">
        <ele>337</ele>
        <time>2021-08-08T06:29:47Z</time>
      </trkpt>
      <trkpt lat="48.92184" lon="7.4852">
        <ele>337</ele>
        <time>2021-08-08T06:29:48Z</time>
      </trkpt>
      <trkpt lat="48.92188" lon="7.48527">
        <ele>337</ele>
        <time>2021-08-08T06:29:49Z</time>
      </trkpt>
      <trkpt lat="48.92188" lon="7.48527">
        <ele>337</ele>
        <time>2021-08-08T06:29:50Z</time>
      </trkpt>
      <trkpt lat="48.92191" lon="7.48533">
        <ele>338</ele>
        <time>2021-08-08T06:29:51Z</time>
      </trkpt>
      <trkpt lat="48.92191" lon="7.48533">
        <ele>338</ele>
        <time>2021-08-08T06:29:52Z</time>
      </trkpt>
      <trkpt lat="48.92195" lon="7.48539">
        <ele>338</ele>
        <time>2021-08-08T06:29:53Z</time>
      </trkpt>
      <trkpt lat="48.92195" lon="7.48539">
        <ele>338</ele>
        <time>2021-08-08T06:29:54Z</time>
      </trkpt>
      <trkpt lat="48.92199" lon="7.48546">
        <ele>338</ele>
        <time>2021-08-08T06:29:55Z</time>
      </trkpt>
      <trkpt lat="48.92199" lon="7.48546">
        <ele>338</ele>
        <time>2021-08-08T06:29:56Z</time>
      </trkpt>
      <trkpt lat="48.92202" lon="7.48554">
        <ele>338</ele>
        <time>2021-08-08T06:29:57Z</time>
      </trkpt>
      <trkpt lat="48.92202" lon="7.48554">
        <ele>338</ele>
        <time>2021-08-08T06:29:58Z</time>
      </trkpt>
      <trkpt lat="48.92205" lon="7.48565">
        <ele>338</ele>
        <time>2021-08-08T06:29:59Z</time>
      </trkpt>
      <trkpt lat="48.92205" lon="7.48565">
        <ele>338</ele>
        <time>2021-08-08T06:30:00Z</time>
      </trkpt>
      <trkpt lat="48.92208" lon="7.48577">
        <ele>338</ele>
        <time>2021-08-08T06:30:01Z</time>
      </trkpt>
      <trkpt lat="48.92208" lon="7.48577">
        <ele>338</ele>
        <time>2021-08-08T06:30:02Z</time>
      </trkpt>
      <trkpt lat="48.92211" lon="7.48588">
        <ele>338</ele>
        <time>2021-08-08T06:30:03Z</time>
      </trkpt>
      <trkpt lat="48.92211" lon="7.48588">
        <ele>338</ele>
        <time>2021-08-08T06:30:04Z</time>
      </trkpt>
      <trkpt lat="48.92216" lon="7.48601">
        <ele>338</ele>
        <time>2021-08-08T06:30:05Z</time>
      </trkpt>
      <trkpt lat="48.92216" lon="7.48601">
        <ele>338</ele>
        <time>2021-08-08T06:30:06Z</time>
      </trkpt>
      <trkpt lat="48.92219" lon="7.48612">
        <ele>338</ele>
        <time>2021-08-08T06:30:07Z</time>
      </trkpt>
      <trkpt lat="48.92219" lon="7.48612">
        <ele>338</ele>
        <time>2021-08-08T06:30:08Z</time>
      </trkpt>
      <trkpt lat="48.92221" lon="7.48624">
        <ele>338</ele>
        <time>2021-08-08T06:30:09Z</time>
      </trkpt>
      <trkpt lat="48.92221" lon="7.48624">
        <ele>338</ele>
        <time>2021-08-08T06:30:10Z</time>
      </trkpt>
      <trkpt lat="48.92224" lon="7.48636">
        <ele>338</ele>
        <time>2021-08-08T06:30:11Z</time>
      </trkpt>
      <trkpt lat="48.92224" lon="7.48636">
        <ele>338</ele>
        <time>2021-08-08T06:30:12Z</time>
      </trkpt>
      <trkpt lat="48.92226" lon="7.48648">
        <ele>338</ele>
        <time>2021-08-08T06:30:13Z</time>
      </trkpt>
      <trkpt lat="48.92226" lon="7.48648">
        <ele>338</ele>
        <time>2021-08-08T06:30:14Z</time>
      </trkpt>
      <trkpt lat="48.92228" lon="7.4866">
        <ele>338</ele>
        <time>2021-08-08T06:30:15Z</time>
      </trkpt>
      <trkpt lat="48.92228" lon="7.4866">
        <ele>338</ele>
        <time>2021-08-08T06:30:16Z</time>
      </trkpt>
      <trkpt lat="48.9223" lon="7.48672">
        <ele>338</ele>
        <time>2021-08-08T06:30:17Z</time>
      </trkpt>
      <trkpt lat="48.9223" lon="7.48672">
        <ele>338</ele>
        <time>2021-08-08T06:30:18Z</time>
      </trkpt>
      <trkpt lat="48.92229" lon="7.48683">
        <ele>338</ele>
        <time>2021-08-08T06:30:19Z</time>
      </trkpt>
      <trkpt lat="48.92229" lon="7.48683">
        <ele>338</ele>
        <time>2021-08-08T06:30:20Z</time>
      </trkpt>
      <trkpt lat="48.92229" lon="7.48692">
        <ele>338</ele>
        <time>2021-08-08T06:30:21Z</time>
      </trkpt>
      <trkpt lat="48.92229" lon="7.48692">
        <ele>338</ele>
        <time>2021-08-08T06:30:22Z</time>
      </trkpt>
      <trkpt lat="48.92229" lon="7.48699">
        <ele>338</ele>
        <time>2021-08-08T06:30:23Z</time>
      </trkpt>
      <trkpt lat="48.92229" lon="7.48699">
        <ele>338</ele>
        <time>2021-08-08T06:30:24Z</time>
      </trkpt>
      <trkpt lat="48.92229" lon="7.48706">
        <ele>339</ele>
        <time>2021-08-08T06:30:25Z</time>
      </trkpt>
      <trkpt lat="48.92229" lon="7.48706">
        <ele>339</ele>
        <time>2021-08-08T06:30:26Z</time>
      </trkpt>
      <trkpt lat="48.92229" lon="7.48714">
        <ele>339</ele>
        <time>2021-08-08T06:30:27Z</time>
      </trkpt>
      <trkpt lat="48.92229" lon="7.48714">
        <ele>339</ele>
        <time>2021-08-08T06:30:28Z</time>
      </trkpt>
      <trkpt lat="48.92228" lon="7.48722">
        <ele>340</ele>
        <time>2021-08-08T06:30:29Z</time>
      </trkpt>
      <trkpt lat="48.92228" lon="7.48722">
        <ele>340</ele>
        <time>2021-08-08T06:30:30Z</time>
      </trkpt>
      <trkpt lat="48.92226" lon="7.48729">
        <ele>340</ele>
        <time>2021-08-08T06:30:31Z</time>
      </trkpt>
      <trkpt lat="48.92226" lon="7.48729">
        <ele>340</ele>
        <time>2021-08-08T06:30:32Z</time>
      </trkpt>
      <trkpt lat="48.92224" lon="7.48735">
        <ele>341</ele>
        <time>2021-08-08T06:30:33Z</time>
      </trkpt>
      <trkpt lat="48.92224" lon="7.48735">
        <ele>341</ele>
        <time>2021-08-08T06:30:34Z</time>
      </trkpt>
      <trkpt lat="48.92222" lon="7.48741">
        <ele>341</ele>
        <time>2021-08-08T06:30:35Z</time>
      </trkpt>
      <trkpt lat="48.92222" lon="7.48741">
        <ele>341</ele>
        <time>2021-08-08T06:30:36Z</time>
      </trkpt>
      <trkpt lat="48.92221" lon="7.48748">
        <ele>342</ele>
        <time>2021-08-08T06:30:37Z</time>
      </trkpt>
      <trkpt lat="48.92221" lon="7.48748">
        <ele>342</ele>
        <time>2021-08-08T06:30:38Z</time>
      </trkpt>
      <trkpt lat="48.9222" lon="7.48754">
        <ele>342</ele>
        <time>2021-08-08T06:30:39Z</time>
      </trkpt>
      <trkpt lat="48.9222" lon="7.48757">
        <ele>342</ele>
        <time>2021-08-08T06:30:40Z</time>
      </trkpt>
      <trkpt lat="48.9222" lon="7.48757">
        <ele>342</ele>
        <time>2021-08-08T06:30:41Z</time>
      </trkpt>
      <trkpt lat="48.92221" lon="7.48762">
        <ele>343</ele>
        <time>2021-08-08T06:30:42Z</time>
      </trkpt>
      <trkpt lat="48.92221" lon="7.48764">
        <ele>343</ele>
        <time>2021-08-08T06:30:43Z</time>
      </trkpt>
      <trkpt lat="48.92221" lon="7.48764">
        <ele>344</ele>
        <time>2021-08-08T06:30:44Z</time>
      </trkpt>
      <trkpt lat="48.9222" lon="7.48767">
        <ele>344</ele>
        <time>2021-08-08T06:30:45Z</time>
      </trkpt>
      <trkpt lat="48.9222" lon="7.48767">
        <ele>344</ele>
        <time>2021-08-08T06:30:46Z</time>
      </trkpt>
      <trkpt lat="48.92219" lon="7.48769">
        <ele>344</ele>
        <time>2021-08-08T06:30:47Z</time>
      </trkpt>
      <trkpt lat="48.92217" lon="7.48772">
        <ele>345</ele>
        <time>2021-08-08T06:30:49Z</time>
      </trkpt>
      <trkpt lat="48.92217" lon="7.48772">
        <ele>345</ele>
        <time>2021-08-08T06:30:50Z</time>
      </trkpt>
      <trkpt lat="48.92215" lon="7.48776">
        <ele>346</ele>
        <time>2021-08-08T06:30:51Z</time>
      </trkpt>
      <trkpt lat="48.92215" lon="7.48776">
        <ele>346</ele>
        <time>2021-08-08T06:30:52Z</time>
      </trkpt>
      <trkpt lat="48.92214" lon="7.48778">
        <ele>347</ele>
        <time>2021-08-08T06:30:53Z</time>
      </trkpt>
      <trkpt lat="48.92214" lon="7.48778">
        <ele>347</ele>
        <time>2021-08-08T06:30:54Z</time>
      </trkpt>
      <trkpt lat="48.92211" lon="7.48782">
        <ele>347</ele>
        <time>2021-08-08T06:30:55Z</time>
      </trkpt>
      <trkpt lat="48.92211" lon="7.48782">
        <ele>347</ele>
        <time>2021-08-08T06:30:56Z</time>
      </trkpt>
      <trkpt lat="48.92208" lon="7.48785">
        <ele>347</ele>
        <time>2021-08-08T06:30:57Z</time>
      </trkpt>
      <trkpt lat="48.92208" lon="7.48785">
        <ele>347</ele>
        <time>2021-08-08T06:30:58Z</time>
      </trkpt>
      <trkpt lat="48.92205" lon="7.4879">
        <ele>349</ele>
        <time>2021-08-08T06:30:59Z</time>
      </trkpt>
      <trkpt lat="48.92205" lon="7.4879">
        <ele>349</ele>
        <time>2021-08-08T06:31:00Z</time>
      </trkpt>
      <trkpt lat="48.92201" lon="7.48795">
        <ele>349</ele>
        <time>2021-08-08T06:31:01Z</time>
      </trkpt>
      <trkpt lat="48.922" lon="7.48797">
        <ele>349</ele>
        <time>2021-08-08T06:31:02Z</time>
      </trkpt>
      <trkpt lat="48.922" lon="7.48797">
        <ele>349</ele>
        <time>2021-08-08T06:31:03Z</time>
      </trkpt>
      <trkpt lat="48.92197" lon="7.48802">
        <ele>349</ele>
        <time>2021-08-08T06:31:04Z</time>
      </trkpt>
      <trkpt lat="48.92197" lon="7.48802">
        <ele>350</ele>
        <time>2021-08-08T06:31:05Z</time>
      </trkpt>
      <trkpt lat="48.92194" lon="7.48806">
        <ele>350</ele>
        <time>2021-08-08T06:31:06Z</time>
      </trkpt>
      <trkpt lat="48.92193" lon="7.48809">
        <ele>350</ele>
        <time>2021-08-08T06:31:07Z</time>
      </trkpt>
      <trkpt lat="48.92193" lon="7.48809">
        <ele>350</ele>
        <time>2021-08-08T06:31:08Z</time>
      </trkpt>
      <trkpt lat="48.9219" lon="7.48812">
        <ele>351</ele>
        <time>2021-08-08T06:31:09Z</time>
      </trkpt>
      <trkpt lat="48.9219" lon="7.48812">
        <ele>351</ele>
        <time>2021-08-08T06:31:10Z</time>
      </trkpt>
      <trkpt lat="48.92189" lon="7.48814">
        <ele>351</ele>
        <time>2021-08-08T06:31:11Z</time>
      </trkpt>
      <trkpt lat="48.92188" lon="7.48815">
        <ele>351</ele>
        <time>2021-08-08T06:31:12Z</time>
      </trkpt>
      <trkpt lat="48.92188" lon="7.48815">
        <ele>352</ele>
        <time>2021-08-08T06:31:13Z</time>
      </trkpt>
      <trkpt lat="48.92186" lon="7.48818">
        <ele>352</ele>
        <time>2021-08-08T06:31:14Z</time>
      </trkpt>
      <trkpt lat="48.92185" lon="7.48819">
        <ele>352</ele>
        <time>2021-08-08T06:31:15Z</time>
      </trkpt>
      <trkpt lat="48.92185" lon="7.48819">
        <ele>353</ele>
        <time>2021-08-08T06:31:16Z</time>
      </trkpt>
      <trkpt lat="48.92182" lon="7.48821">
        <ele>353</ele>
        <time>2021-08-08T06:31:17Z</time>
      </trkpt>
      <trkpt lat="48.92182" lon="7.48821">
        <ele>353</ele>
        <time>2021-08-08T06:31:18Z</time>
      </trkpt>
      <trkpt lat="48.9218" lon="7.48824">
        <ele>353</ele>
        <time>2021-08-08T06:31:19Z</time>
      </trkpt>
      <trkpt lat="48.9218" lon="7.48824">
        <ele>353</ele>
        <time>2021-08-08T06:31:20Z</time>
      </trkpt>
      <trkpt lat="48.92179" lon="7.48828">
        <ele>353</ele>
        <time>2021-08-08T06:31:21Z</time>
      </trkpt>
      <trkpt lat="48.92179" lon="7.48828">
        <ele>353</ele>
        <time>2021-08-08T06:31:22Z</time>
      </trkpt>
      <trkpt lat="48.92176" lon="7.4883">
        <ele>354</ele>
        <time>2021-08-08T06:31:23Z</time>
      </trkpt>
      <trkpt lat="48.92176" lon="7.4883">
        <ele>354</ele>
        <time>2021-08-08T06:31:24Z</time>
      </trkpt>
      <trkpt lat="48.92173" lon="7.48833">
        <ele>354</ele>
        <time>2021-08-08T06:31:25Z</time>
      </trkpt>
      <trkpt lat="48.92172" lon="7.48835">
        <ele>354</ele>
        <time>2021-08-08T06:31:26Z</time>
      </trkpt>
      <trkpt lat="48.92172" lon="7.48835">
        <ele>354</ele>
        <time>2021-08-08T06:31:27Z</time>
      </trkpt>
      <trkpt lat="48.92169" lon="7.48842">
        <ele>354</ele>
        <time>2021-08-08T06:31:28Z</time>
      </trkpt>
      <trkpt lat="48.92167" lon="7.48846">
        <ele>354</ele>
        <time>2021-08-08T06:31:29Z</time>
      </trkpt>
      <trkpt lat="48.92164" lon="7.4885">
        <ele>354</ele>
        <time>2021-08-08T06:31:30Z</time>
      </trkpt>
      <trkpt lat="48.92164" lon="7.4885">
        <ele>354</ele>
        <time>2021-08-08T06:31:31Z</time>
      </trkpt>
      <trkpt lat="48.92158" lon="7.48857">
        <ele>354</ele>
        <time>2021-08-08T06:31:32Z</time>
      </trkpt>
      <trkpt lat="48.92158" lon="7.48857">
        <ele>353</ele>
        <time>2021-08-08T06:31:33Z</time>
      </trkpt>
      <trkpt lat="48.92151" lon="7.48868">
        <ele>353</ele>
        <time>2021-08-08T06:31:34Z</time>
      </trkpt>
      <trkpt lat="48.92147" lon="7.48875">
        <ele>352</ele>
        <time>2021-08-08T06:31:35Z</time>
      </trkpt>
      <trkpt lat="48.92147" lon="7.48875">
        <ele>352</ele>
        <time>2021-08-08T06:31:36Z</time>
      </trkpt>
      <trkpt lat="48.92136" lon="7.4889">
        <ele>350</ele>
        <time>2021-08-08T06:31:37Z</time>
      </trkpt>
      <trkpt lat="48.92136" lon="7.4889">
        <ele>350</ele>
        <time>2021-08-08T06:31:38Z</time>
      </trkpt>
      <trkpt lat="48.92122" lon="7.48903">
        <ele>348</ele>
        <time>2021-08-08T06:31:39Z</time>
      </trkpt>
      <trkpt lat="48.92122" lon="7.48903">
        <ele>348</ele>
        <time>2021-08-08T06:31:40Z</time>
      </trkpt>
      <trkpt lat="48.92103" lon="7.48919">
        <ele>346</ele>
        <time>2021-08-08T06:31:41Z</time>
      </trkpt>
      <trkpt lat="48.92103" lon="7.48919">
        <ele>346</ele>
        <time>2021-08-08T06:31:42Z</time>
      </trkpt>
      <trkpt lat="48.92084" lon="7.48938">
        <ele>344</ele>
        <time>2021-08-08T06:31:43Z</time>
      </trkpt>
      <trkpt lat="48.92084" lon="7.48938">
        <ele>344</ele>
        <time>2021-08-08T06:31:44Z</time>
      </trkpt>
      <trkpt lat="48.92066" lon="7.48954">
        <ele>343</ele>
        <time>2021-08-08T06:31:45Z</time>
      </trkpt>
      <trkpt lat="48.92066" lon="7.48954">
        <ele>343</ele>
        <time>2021-08-08T06:31:46Z</time>
      </trkpt>
      <trkpt lat="48.92049" lon="7.4896">
        <ele>341</ele>
        <time>2021-08-08T06:31:47Z</time>
      </trkpt>
      <trkpt lat="48.92049" lon="7.4896">
        <ele>341</ele>
        <time>2021-08-08T06:31:48Z</time>
      </trkpt>
      <trkpt lat="48.92031" lon="7.48963">
        <ele>340</ele>
        <time>2021-08-08T06:31:49Z</time>
      </trkpt>
      <trkpt lat="48.92031" lon="7.48963">
        <ele>340</ele>
        <time>2021-08-08T06:31:50Z</time>
      </trkpt>
      <trkpt lat="48.92012" lon="7.48968">
        <ele>339</ele>
        <time>2021-08-08T06:31:51Z</time>
      </trkpt>
      <trkpt lat="48.92012" lon="7.48968">
        <ele>339</ele>
        <time>2021-08-08T06:31:52Z</time>
      </trkpt>
      <trkpt lat="48.91994" lon="7.48974">
        <ele>338</ele>
        <time>2021-08-08T06:31:53Z</time>
      </trkpt>
      <trkpt lat="48.91994" lon="7.48974">
        <ele>338</ele>
        <time>2021-08-08T06:31:54Z</time>
      </trkpt>
      <trkpt lat="48.91977" lon="7.48981">
        <ele>337</ele>
        <time>2021-08-08T06:31:55Z</time>
      </trkpt>
      <trkpt lat="48.91977" lon="7.48981">
        <ele>337</ele>
        <time>2021-08-08T06:31:56Z</time>
      </trkpt>
      <trkpt lat="48.91962" lon="7.48986">
        <ele>337</ele>
        <time>2021-08-08T06:31:57Z</time>
      </trkpt>
      <trkpt lat="48.91962" lon="7.48986">
        <ele>337</ele>
        <time>2021-08-08T06:31:58Z</time>
      </trkpt>
      <trkpt lat="48.91949" lon="7.48993">
        <ele>336</ele>
        <time>2021-08-08T06:31:59Z</time>
      </trkpt>
      <trkpt lat="48.91949" lon="7.48993">
        <ele>336</ele>
        <time>2021-08-08T06:32:00Z</time>
      </trkpt>
      <trkpt lat="48.9194" lon="7.49005">
        <ele>336</ele>
        <time>2021-08-08T06:32:01Z</time>
      </trkpt>
      <trkpt lat="48.91936" lon="7.4901">
        <ele>336</ele>
        <time>2021-08-08T06:32:02Z</time>
      </trkpt>
      <trkpt lat="48.91932" lon="7.49016">
        <ele>336</ele>
        <time>2021-08-08T06:32:03Z</time>
      </trkpt>
      <trkpt lat="48.91932" lon="7.49016">
        <ele>336</ele>
        <time>2021-08-08T06:32:04Z</time>
      </trkpt>
      <trkpt lat="48.91924" lon="7.49029">
        <ele>336</ele>
        <time>2021-08-08T06:32:05Z</time>
      </trkpt>
      <trkpt lat="48.91922" lon="7.49036">
        <ele>336</ele>
        <time>2021-08-08T06:32:06Z</time>
      </trkpt>
      <trkpt lat="48.91922" lon="7.49036">
        <ele>336</ele>
        <time>2021-08-08T06:32:07Z</time>
      </trkpt>
      <trkpt lat="48.91917" lon="7.4905">
        <ele>336</ele>
        <time>2021-08-08T06:32:08Z</time>
      </trkpt>
      <trkpt lat="48.91916" lon="7.49058">
        <ele>336</ele>
        <time>2021-08-08T06:32:09Z</time>
      </trkpt>
      <trkpt lat="48.91916" lon="7.49058">
        <ele>336</ele>
        <time>2021-08-08T06:32:10Z</time>
      </trkpt>
      <trkpt lat="48.91915" lon="7.49072">
        <ele>336</ele>
        <time>2021-08-08T06:32:11Z</time>
      </trkpt>
      <trkpt lat="48.91915" lon="7.49072">
        <ele>336</ele>
        <time>2021-08-08T06:32:12Z</time>
      </trkpt>
      <trkpt lat="48.91914" lon="7.49087">
        <ele>336</ele>
        <time>2021-08-08T06:32:13Z</time>
      </trkpt>
      <trkpt lat="48.91914" lon="7.49087">
        <ele>336</ele>
        <time>2021-08-08T06:32:14Z</time>
      </trkpt>
      <trkpt lat="48.91914" lon="7.49102">
        <ele>336</ele>
        <time>2021-08-08T06:32:15Z</time>
      </trkpt>
      <trkpt lat="48.91914" lon="7.49102">
        <ele>336</ele>
        <time>2021-08-08T06:32:16Z</time>
      </trkpt>
      <trkpt lat="48.91913" lon="7.49117">
        <ele>336</ele>
        <time>2021-08-08T06:32:17Z</time>
      </trkpt>
      <trkpt lat="48.91913" lon="7.49117">
        <ele>336</ele>
        <time>2021-08-08T06:32:18Z</time>
      </trkpt>
      <trkpt lat="48.91912" lon="7.49132">
        <ele>336</ele>
        <time>2021-08-08T06:32:19Z</time>
      </trkpt>
      <trkpt lat="48.91912" lon="7.49132">
        <ele>336</ele>
        <time>2021-08-08T06:32:20Z</time>
      </trkpt>
      <trkpt lat="48.9191" lon="7.49148">
        <ele>336</ele>
        <time>2021-08-08T06:32:21Z</time>
      </trkpt>
      <trkpt lat="48.91908" lon="7.49156">
        <ele>336</ele>
        <time>2021-08-08T06:32:22Z</time>
      </trkpt>
      <trkpt lat="48.91908" lon="7.49156">
        <ele>336</ele>
        <time>2021-08-08T06:32:23Z</time>
      </trkpt>
      <trkpt lat="48.91906" lon="7.49171">
        <ele>336</ele>
        <time>2021-08-08T06:32:24Z</time>
      </trkpt>
      <trkpt lat="48.91904" lon="7.49179">
        <ele>336</ele>
        <time>2021-08-08T06:32:25Z</time>
      </trkpt>
      <trkpt lat="48.91904" lon="7.49179">
        <ele>336</ele>
        <time>2021-08-08T06:32:26Z</time>
      </trkpt>
      <trkpt lat="48.91902" lon="7.49194">
        <ele>336</ele>
        <time>2021-08-08T06:32:27Z</time>
      </trkpt>
      <trkpt lat="48.91902" lon="7.49194">
        <ele>336</ele>
        <time>2021-08-08T06:32:28Z</time>
      </trkpt>
      <trkpt lat="48.91898" lon="7.49207">
        <ele>336</ele>
        <time>2021-08-08T06:32:29Z</time>
      </trkpt>
      <trkpt lat="48.91898" lon="7.49207">
        <ele>336</ele>
        <time>2021-08-08T06:32:30Z</time>
      </trkpt>
      <trkpt lat="48.91895" lon="7.49221">
        <ele>336</ele>
        <time>2021-08-08T06:32:31Z</time>
      </trkpt>
      <trkpt lat="48.91895" lon="7.49221">
        <ele>336</ele>
        <time>2021-08-08T06:32:32Z</time>
      </trkpt>
      <trkpt lat="48.91892" lon="7.49233">
        <ele>336</ele>
        <time>2021-08-08T06:32:33Z</time>
      </trkpt>
      <trkpt lat="48.91892" lon="7.49233">
        <ele>336</ele>
        <time>2021-08-08T06:32:34Z</time>
      </trkpt>
      <trkpt lat="48.91889" lon="7.49245">
        <ele>337</ele>
        <time>2021-08-08T06:32:35Z</time>
      </trkpt>
      <trkpt lat="48.91889" lon="7.49245">
        <ele>337</ele>
        <time>2021-08-08T06:32:36Z</time>
      </trkpt>
      <trkpt lat="48.91885" lon="7.49256">
        <ele>337</ele>
        <time>2021-08-08T06:32:37Z</time>
      </trkpt>
      <trkpt lat="48.91885" lon="7.49256">
        <ele>337</ele>
        <time>2021-08-08T06:32:38Z</time>
      </trkpt>
      <trkpt lat="48.91883" lon="7.49267">
        <ele>338</ele>
        <time>2021-08-08T06:32:39Z</time>
      </trkpt>
      <trkpt lat="48.91883" lon="7.49267">
        <ele>338</ele>
        <time>2021-08-08T06:32:40Z</time>
      </trkpt>
      <trkpt lat="48.9188" lon="7.49279">
        <ele>338</ele>
        <time>2021-08-08T06:32:41Z</time>
      </trkpt>
      <trkpt lat="48.9188" lon="7.49279">
        <ele>338</ele>
        <time>2021-08-08T06:32:42Z</time>
      </trkpt>
      <trkpt lat="48.91878" lon="7.49289">
        <ele>338</ele>
        <time>2021-08-08T06:32:43Z</time>
      </trkpt>
      <trkpt lat="48.91878" lon="7.49289">
        <ele>339</ele>
        <time>2021-08-08T06:32:44Z</time>
      </trkpt>
      <trkpt lat="48.91877" lon="7.49298">
        <ele>339</ele>
        <time>2021-08-08T06:32:45Z</time>
      </trkpt>
      <trkpt lat="48.91877" lon="7.49298">
        <ele>339</ele>
        <time>2021-08-08T06:32:46Z</time>
      </trkpt>
      <trkpt lat="48.91876" lon="7.49307">
        <ele>339</ele>
        <time>2021-08-08T06:32:47Z</time>
      </trkpt>
      <trkpt lat="48.91876" lon="7.49307">
        <ele>339</ele>
        <time>2021-08-08T06:32:48Z</time>
      </trkpt>
      <trkpt lat="48.91872" lon="7.49315">
        <ele>339</ele>
        <time>2021-08-08T06:32:49Z</time>
      </trkpt>
      <trkpt lat="48.91872" lon="7.49315">
        <ele>339</ele>
        <time>2021-08-08T06:32:50Z</time>
      </trkpt>
      <trkpt lat="48.91869" lon="7.49324">
        <ele>339</ele>
        <time>2021-08-08T06:32:51Z</time>
      </trkpt>
      <trkpt lat="48.91869" lon="7.49324">
        <ele>339</ele>
        <time>2021-08-08T06:32:52Z</time>
      </trkpt>
      <trkpt lat="48.91866" lon="7.49333">
        <ele>339</ele>
        <time>2021-08-08T06:32:53Z</time>
      </trkpt>
      <trkpt lat="48.91866" lon="7.49333">
        <ele>339</ele>
        <time>2021-08-08T06:32:54Z</time>
      </trkpt>
      <trkpt lat="48.91863" lon="7.49342">
        <ele>339</ele>
        <time>2021-08-08T06:32:55Z</time>
      </trkpt>
      <trkpt lat="48.91863" lon="7.49342">
        <ele>339</ele>
        <time>2021-08-08T06:32:56Z</time>
      </trkpt>
      <trkpt lat="48.91862" lon="7.49352">
        <ele>339</ele>
        <time>2021-08-08T06:32:57Z</time>
      </trkpt>
      <trkpt lat="48.91862" lon="7.49352">
        <ele>340</ele>
        <time>2021-08-08T06:32:58Z</time>
      </trkpt>
      <trkpt lat="48.9186" lon="7.49362">
        <ele>340</ele>
        <time>2021-08-08T06:32:59Z</time>
      </trkpt>
      <trkpt lat="48.9186" lon="7.49362">
        <ele>340</ele>
        <time>2021-08-08T06:33:00Z</time>
      </trkpt>
      <trkpt lat="48.91859" lon="7.49372">
        <ele>340</ele>
        <time>2021-08-08T06:33:01Z</time>
      </trkpt>
      <trkpt lat="48.91859" lon="7.49372">
        <ele>340</ele>
        <time>2021-08-08T06:33:02Z</time>
      </trkpt>
      <trkpt lat="48.91857" lon="7.49382">
        <ele>340</ele>
        <time>2021-08-08T06:33:03Z</time>
      </trkpt>
      <trkpt lat="48.91857" lon="7.49382">
        <ele>341</ele>
        <time>2021-08-08T06:33:04Z</time>
      </trkpt>
      <trkpt lat="48.91855" lon="7.49391">
        <ele>341</ele>
        <time>2021-08-08T06:33:05Z</time>
      </trkpt>
      <trkpt lat="48.91855" lon="7.49391">
        <ele>341</ele>
        <time>2021-08-08T06:33:06Z</time>
      </trkpt>
      <trkpt lat="48.91853" lon="7.49399">
        <ele>341</ele>
        <time>2021-08-08T06:33:07Z</time>
      </trkpt>
      <trkpt lat="48.91853" lon="7.49399">
        <ele>341</ele>
        <time>2021-08-08T06:33:08Z</time>
      </trkpt>
      <trkpt lat="48.9185" lon="7.49407">
        <ele>342</ele>
        <time>2021-08-08T06:33:09Z</time>
      </trkpt>
      <trkpt lat="48.91848" lon="7.49412">
        <ele>342</ele>
        <time>2021-08-08T06:33:10Z</time>
      </trkpt>
      <trkpt lat="48.91848" lon="7.49412">
        <ele>342</ele>
        <time>2021-08-08T06:33:11Z</time>
      </trkpt>
      <trkpt lat="48.91846" lon="7.4942">
        <ele>342</ele>
        <time>2021-08-08T06:33:12Z</time>
      </trkpt>
      <trkpt lat="48.91844" lon="7.49424">
        <ele>343</ele>
        <time>2021-08-08T06:33:13Z</time>
      </trkpt>
      <trkpt lat="48.91844" lon="7.49424">
        <ele>343</ele>
        <time>2021-08-08T06:33:14Z</time>
      </trkpt>
      <trkpt lat="48.91841" lon="7.49432">
        <ele>343</ele>
        <time>2021-08-08T06:33:15Z</time>
      </trkpt>
      <trkpt lat="48.91841" lon="7.49432">
        <ele>343</ele>
        <time>2021-08-08T06:33:16Z</time>
      </trkpt>
      <trkpt lat="48.91836" lon="7.4944">
        <ele>343</ele>
        <time>2021-08-08T06:33:17Z</time>
      </trkpt>
      <trkpt lat="48.91836" lon="7.4944">
        <ele>343</ele>
        <time>2021-08-08T06:33:18Z</time>
      </trkpt>
      <trkpt lat="48.91833" lon="7.49447">
        <ele>343</ele>
        <time>2021-08-08T06:33:19Z</time>
      </trkpt>
      <trkpt lat="48.91833" lon="7.49447">
        <ele>343</ele>
        <time>2021-08-08T06:33:20Z</time>
      </trkpt>
      <trkpt lat="48.91829" lon="7.49454">
        <ele>343</ele>
        <time>2021-08-08T06:33:21Z</time>
      </trkpt>
      <trkpt lat="48.91829" lon="7.49454">
        <ele>343</ele>
        <time>2021-08-08T06:33:22Z</time>
      </trkpt>
      <trkpt lat="48.91825" lon="7.4946">
        <ele>344</ele>
        <time>2021-08-08T06:33:23Z</time>
      </trkpt>
      <trkpt lat="48.91824" lon="7.49462">
        <ele>344</ele>
        <time>2021-08-08T06:33:24Z</time>
      </trkpt>
      <trkpt lat="48.91822" lon="7.49465">
        <ele>344</ele>
        <time>2021-08-08T06:33:25Z</time>
      </trkpt>
      <trkpt lat="48.91822" lon="7.49465">
        <ele>344</ele>
        <time>2021-08-08T06:33:26Z</time>
      </trkpt>
      <trkpt lat="48.91818" lon="7.49472">
        <ele>344</ele>
        <time>2021-08-08T06:33:27Z</time>
      </trkpt>
      <trkpt lat="48.91818" lon="7.49472">
        <ele>344</ele>
        <time>2021-08-08T06:33:28Z</time>
      </trkpt>
      <trkpt lat="48.91812" lon="7.4948">
        <ele>344</ele>
        <time>2021-08-08T06:33:29Z</time>
      </trkpt>
      <trkpt lat="48.91812" lon="7.4948">
        <ele>344</ele>
        <time>2021-08-08T06:33:30Z</time>
      </trkpt>
      <trkpt lat="48.91805" lon="7.49487">
        <ele>343</ele>
        <time>2021-08-08T06:33:31Z</time>
      </trkpt>
      <trkpt lat="48.91805" lon="7.49487">
        <ele>343</ele>
        <time>2021-08-08T06:33:32Z</time>
      </trkpt>
      <trkpt lat="48.91796" lon="7.49495">
        <ele>343</ele>
        <time>2021-08-08T06:33:33Z</time>
      </trkpt>
      <trkpt lat="48.91791" lon="7.49497">
        <ele>343</ele>
        <time>2021-08-08T06:33:34Z</time>
      </trkpt>
      <trkpt lat="48.91791" lon="7.49497">
        <ele>342</ele>
        <time>2021-08-08T06:33:35Z</time>
      </trkpt>
      <trkpt lat="48.91781" lon="7.495">
        <ele>342</ele>
        <time>2021-08-08T06:33:36Z</time>
      </trkpt>
      <trkpt lat="48.91775" lon="7.49501">
        <ele>342</ele>
        <time>2021-08-08T06:33:37Z</time>
      </trkpt>
      <trkpt lat="48.91775" lon="7.49501">
        <ele>342</ele>
        <time>2021-08-08T06:33:38Z</time>
      </trkpt>
      <trkpt lat="48.91764" lon="7.49503">
        <ele>341</ele>
        <time>2021-08-08T06:33:39Z</time>
      </trkpt>
      <trkpt lat="48.91764" lon="7.49503">
        <ele>341</ele>
        <time>2021-08-08T06:33:40Z</time>
      </trkpt>
      <trkpt lat="48.91754" lon="7.49511">
        <ele>341</ele>
        <time>2021-08-08T06:33:41Z</time>
      </trkpt>
      <trkpt lat="48.91754" lon="7.49511">
        <ele>341</ele>
        <time>2021-08-08T06:33:42Z</time>
      </trkpt>
      <trkpt lat="48.91746" lon="7.49523">
        <ele>340</ele>
        <time>2021-08-08T06:33:43Z</time>
      </trkpt>
      <trkpt lat="48.91746" lon="7.49523">
        <ele>340</ele>
        <time>2021-08-08T06:33:44Z</time>
      </trkpt>
      <trkpt lat="48.91739" lon="7.49532">
        <ele>340</ele>
        <time>2021-08-08T06:33:45Z</time>
      </trkpt>
      <trkpt lat="48.91739" lon="7.49532">
        <ele>340</ele>
        <time>2021-08-08T06:33:46Z</time>
      </trkpt>
      <trkpt lat="48.91733" lon="7.49533">
        <ele>340</ele>
        <time>2021-08-08T06:33:47Z</time>
      </trkpt>
      <trkpt lat="48.91733" lon="7.49533">
        <ele>340</ele>
        <time>2021-08-08T06:33:48Z</time>
      </trkpt>
      <trkpt lat="48.91728" lon="7.49531">
        <ele>340</ele>
        <time>2021-08-08T06:33:49Z</time>
      </trkpt>
      <trkpt lat="48.91728" lon="7.49531">
        <ele>340</ele>
        <time>2021-08-08T06:33:50Z</time>
      </trkpt>
      <trkpt lat="48.91722" lon="7.49529">
        <ele>340</ele>
        <time>2021-08-08T06:33:51Z</time>
      </trkpt>
      <trkpt lat="48.91722" lon="7.49529">
        <ele>340</ele>
        <time>2021-08-08T06:33:52Z</time>
      </trkpt>
      <trkpt lat="48.91718" lon="7.49529">
        <ele>340</ele>
        <time>2021-08-08T06:33:53Z</time>
      </trkpt>
      <trkpt lat="48.91716" lon="7.4953">
        <ele>340</ele>
        <time>2021-08-08T06:33:54Z</time>
      </trkpt>
      <trkpt lat="48.91714" lon="7.49531">
        <ele>340</ele>
        <time>2021-08-08T06:33:55Z</time>
      </trkpt>
      <trkpt lat="48.91714" lon="7.49531">
        <ele>340</ele>
        <time>2021-08-08T06:33:56Z</time>
      </trkpt>
      <trkpt lat="48.91709" lon="7.49532">
        <ele>340</ele>
        <time>2021-08-08T06:33:57Z</time>
      </trkpt>
      <trkpt lat="48.91709" lon="7.49532">
        <ele>340</ele>
        <time>2021-08-08T06:33:58Z</time>
      </trkpt>
      <trkpt lat="48.91706" lon="7.49533">
        <ele>340</ele>
        <time>2021-08-08T06:33:59Z</time>
      </trkpt>
      <trkpt lat="48.91706" lon="7.49533">
        <ele>341</ele>
        <time>2021-08-08T06:34:00Z</time>
      </trkpt>
      <trkpt lat="48.91702" lon="7.49535">
        <ele>341</ele>
        <time>2021-08-08T06:34:01Z</time>
      </trkpt>
      <trkpt lat="48.91702" lon="7.49535">
        <ele>341</ele>
        <time>2021-08-08T06:34:02Z</time>
      </trkpt>
      <trkpt lat="48.91699" lon="7.49537">
        <ele>341</ele>
        <time>2021-08-08T06:34:03Z</time>
      </trkpt>
      <trkpt lat="48.91699" lon="7.49537">
        <ele>341</ele>
        <time>2021-08-08T06:34:04Z</time>
      </trkpt>
      <trkpt lat="48.91696" lon="7.4954">
        <ele>341</ele>
        <time>2021-08-08T06:34:05Z</time>
      </trkpt>
      <trkpt lat="48.91695" lon="7.49541">
        <ele>341</ele>
        <time>2021-08-08T06:34:06Z</time>
      </trkpt>
      <trkpt lat="48.91695" lon="7.49541">
        <ele>341</ele>
        <time>2021-08-08T06:34:07Z</time>
      </trkpt>
      <trkpt lat="48.91693" lon="7.49544">
        <ele>342</ele>
        <time>2021-08-08T06:34:08Z</time>
      </trkpt>
      <trkpt lat="48.91692" lon="7.49545">
        <ele>342</ele>
        <time>2021-08-08T06:34:09Z</time>
      </trkpt>
      <trkpt lat="48.91692" lon="7.49545">
        <ele>342</ele>
        <time>2021-08-08T06:34:10Z</time>
      </trkpt>
      <trkpt lat="48.91688" lon="7.49549">
        <ele>342</ele>
        <time>2021-08-08T06:34:11Z</time>
      </trkpt>
      <trkpt lat="48.91686" lon="7.49551">
        <ele>343</ele>
        <time>2021-08-08T06:34:12Z</time>
      </trkpt>
      <trkpt lat="48.91686" lon="7.49551">
        <ele>343</ele>
        <time>2021-08-08T06:34:13Z</time>
      </trkpt>
      <trkpt lat="48.91683" lon="7.49553">
        <ele>344</ele>
        <time>2021-08-08T06:34:14Z</time>
      </trkpt>
      <trkpt lat="48.91681" lon="7.49554">
        <ele>344</ele>
        <time>2021-08-08T06:34:15Z</time>
      </trkpt>
      <trkpt lat="48.91681" lon="7.49554">
        <ele>344</ele>
        <time>2021-08-08T06:34:16Z</time>
      </trkpt>
      <trkpt lat="48.91678" lon="7.49555">
        <ele>344</ele>
        <time>2021-08-08T06:34:17Z</time>
      </trkpt>
      <trkpt lat="48.91678" lon="7.49555">
        <ele>345</ele>
        <time>2021-08-08T06:34:18Z</time>
      </trkpt>
      <trkpt lat="48.91676" lon="7.49556">
        <ele>345</ele>
        <time>2021-08-08T06:34:19Z</time>
      </trkpt>
      <trkpt lat="48.91676" lon="7.49556">
        <ele>345</ele>
        <time>2021-08-08T06:34:20Z</time>
      </trkpt>
      <trkpt lat="48.91674" lon="7.49558">
        <ele>345</ele>
        <time>2021-08-08T06:34:21Z</time>
      </trkpt>
      <trkpt lat="48.91674" lon="7.49558">
        <ele>346</ele>
        <time>2021-08-08T06:34:22Z</time>
      </trkpt>
      <trkpt lat="48.91672" lon="7.4956">
        <ele>346</ele>
        <time>2021-08-08T06:34:23Z</time>
      </trkpt>
      <trkpt lat="48.91672" lon="7.4956">
        <ele>346</ele>
        <time>2021-08-08T06:34:24Z</time>
      </trkpt>
      <trkpt lat="48.9167" lon="7.49563">
        <ele>346</ele>
        <time>2021-08-08T06:34:25Z</time>
      </trkpt>
      <trkpt lat="48.9167" lon="7.49563">
        <ele>347</ele>
        <time>2021-08-08T06:34:26Z</time>
      </trkpt>
      <trkpt lat="48.91669" lon="7.49565">
        <ele>347</ele>
        <time>2021-08-08T06:34:27Z</time>
      </trkpt>
      <trkpt lat="48.91669" lon="7.49565">
        <ele>347</ele>
        <time>2021-08-08T06:34:28Z</time>
      </trkpt>
      <trkpt lat="48.91665" lon="7.49568">
        <ele>347</ele>
        <time>2021-08-08T06:34:29Z</time>
      </trkpt>
      <trkpt lat="48.91664" lon="7.4957">
        <ele>347</ele>
        <time>2021-08-08T06:34:30Z</time>
      </trkpt>
      <trkpt lat="48.91662" lon="7.49571">
        <ele>347</ele>
        <time>2021-08-08T06:34:31Z</time>
      </trkpt>
      <trkpt lat="48.91662" lon="7.49571">
        <ele>348</ele>
        <time>2021-08-08T06:34:32Z</time>
      </trkpt>
      <trkpt lat="48.9166" lon="7.49576">
        <ele>348</ele>
        <time>2021-08-08T06:34:33Z</time>
      </trkpt>
      <trkpt lat="48.9166" lon="7.49576">
        <ele>348</ele>
        <time>2021-08-08T06:34:34Z</time>
      </trkpt>
      <trkpt lat="48.91657" lon="7.4958">
        <ele>348</ele>
        <time>2021-08-08T06:34:35Z</time>
      </trkpt>
      <trkpt lat="48.91657" lon="7.4958">
        <ele>348</ele>
        <time>2021-08-08T06:34:36Z</time>
      </trkpt>
      <trkpt lat="48.91656" lon="7.49584">
        <ele>348</ele>
        <time>2021-08-08T06:34:37Z</time>
      </trkpt>
      <trkpt lat="48.91656" lon="7.49584">
        <ele>349</ele>
        <time>2021-08-08T06:34:38Z</time>
      </trkpt>
      <trkpt lat="48.91653" lon="7.49588">
        <ele>349</ele>
        <time>2021-08-08T06:34:39Z</time>
      </trkpt>
      <trkpt lat="48.91653" lon="7.49588">
        <ele>349</ele>
        <time>2021-08-08T06:34:40Z</time>
      </trkpt>
      <trkpt lat="48.91651" lon="7.49591">
        <ele>349</ele>
        <time>2021-08-08T06:34:41Z</time>
      </trkpt>
      <trkpt lat="48.91649" lon="7.49592">
        <ele>349</ele>
        <time>2021-08-08T06:34:42Z</time>
      </trkpt>
      <trkpt lat="48.91647" lon="7.49596">
        <ele>349</ele>
        <time>2021-08-08T06:34:43Z</time>
      </trkpt>
      <trkpt lat="48.91647" lon="7.49596">
        <ele>349</ele>
        <time>2021-08-08T06:34:44Z</time>
      </trkpt>
      <trkpt lat="48.91644" lon="7.49602">
        <ele>349</ele>
        <time>2021-08-08T06:34:45Z</time>
      </trkpt>
      <trkpt lat="48.91644" lon="7.49602">
        <ele>349</ele>
        <time>2021-08-08T06:34:46Z</time>
      </trkpt>
      <trkpt lat="48.91642" lon="7.49608">
        <ele>349</ele>
        <time>2021-08-08T06:34:47Z</time>
      </trkpt>
      <trkpt lat="48.91642" lon="7.49608">
        <ele>350</ele>
        <time>2021-08-08T06:34:48Z</time>
      </trkpt>
      <trkpt lat="48.9164" lon="7.49612">
        <ele>350</ele>
        <time>2021-08-08T06:34:49Z</time>
      </trkpt>
      <trkpt lat="48.9164" lon="7.49612">
        <ele>350</ele>
        <time>2021-08-08T06:34:50Z</time>
      </trkpt>
      <trkpt lat="48.91637" lon="7.49616">
        <ele>350</ele>
        <time>2021-08-08T06:34:51Z</time>
      </trkpt>
      <trkpt lat="48.91636" lon="7.49618">
        <ele>350</ele>
        <time>2021-08-08T06:34:52Z</time>
      </trkpt>
      <trkpt lat="48.91636" lon="7.49618">
        <ele>350</ele>
        <time>2021-08-08T06:34:53Z</time>
      </trkpt>
      <trkpt lat="48.91634" lon="7.49623">
        <ele>350</ele>
        <time>2021-08-08T06:34:54Z</time>
      </trkpt>
      <trkpt lat="48.91633" lon="7.49625">
        <ele>350</ele>
        <time>2021-08-08T06:34:55Z</time>
      </trkpt>
      <trkpt lat="48.91633" lon="7.49625">
        <ele>350</ele>
        <time>2021-08-08T06:34:56Z</time>
      </trkpt>
      <trkpt lat="48.9163" lon="7.49629">
        <ele>350</ele>
        <time>2021-08-08T06:34:57Z</time>
      </trkpt>
      <trkpt lat="48.9163" lon="7.49629">
        <ele>350</ele>
        <time>2021-08-08T06:34:58Z</time>
      </trkpt>
      <trkpt lat="48.91627" lon="7.49634">
        <ele>350</ele>
        <time>2021-08-08T06:34:59Z</time>
      </trkpt>
      <trkpt lat="48.91627" lon="7.49634">
        <ele>350</ele>
        <time>2021-08-08T06:35:00Z</time>
      </trkpt>
      <trkpt lat="48.91625" lon="7.49639">
        <ele>351</ele>
        <time>2021-08-08T06:35:01Z</time>
      </trkpt>
      <trkpt lat="48.91623" lon="7.49641">
        <ele>351</ele>
        <time>2021-08-08T06:35:02Z</time>
      </trkpt>
      <trkpt lat="48.91623" lon="7.49641">
        <ele>351</ele>
        <time>2021-08-08T06:35:03Z</time>
      </trkpt>
      <trkpt lat="48.91621" lon="7.49647">
        <ele>351</ele>
        <time>2021-08-08T06:35:04Z</time>
      </trkpt>
      <trkpt lat="48.91619" lon="7.49651">
        <ele>351</ele>
        <time>2021-08-08T06:35:05Z</time>
      </trkpt>
      <trkpt lat="48.91619" lon="7.49651">
        <ele>351</ele>
        <time>2021-08-08T06:35:06Z</time>
      </trkpt>
      <trkpt lat="48.91617" lon="7.49657">
        <ele>351</ele>
        <time>2021-08-08T06:35:07Z</time>
      </trkpt>
      <trkpt lat="48.91617" lon="7.49657">
        <ele>351</ele>
        <time>2021-08-08T06:35:08Z</time>
      </trkpt>
      <trkpt lat="48.91615" lon="7.49663">
        <ele>351</ele>
        <time>2021-08-08T06:35:09Z</time>
      </trkpt>
      <trkpt lat="48.91615" lon="7.49663">
        <ele>351</ele>
        <time>2021-08-08T06:35:10Z</time>
      </trkpt>
      <trkpt lat="48.91612" lon="7.4967">
        <ele>351</ele>
        <time>2021-08-08T06:35:11Z</time>
      </trkpt>
      <trkpt lat="48.91612" lon="7.4967">
        <ele>351</ele>
        <time>2021-08-08T06:35:12Z</time>
      </trkpt>
      <trkpt lat="48.91609" lon="7.49676">
        <ele>351</ele>
        <time>2021-08-08T06:35:13Z</time>
      </trkpt>
      <trkpt lat="48.91609" lon="7.49676">
        <ele>351</ele>
        <time>2021-08-08T06:35:14Z</time>
      </trkpt>
      <trkpt lat="48.91604" lon="7.49681">
        <ele>351</ele>
        <time>2021-08-08T06:35:15Z</time>
      </trkpt>
      <trkpt lat="48.91604" lon="7.49681">
        <ele>352</ele>
        <time>2021-08-08T06:35:16Z</time>
      </trkpt>
      <trkpt lat="48.916" lon="7.49685">
        <ele>352</ele>
        <time>2021-08-08T06:35:17Z</time>
      </trkpt>
      <trkpt lat="48.916" lon="7.49685">
        <ele>352</ele>
        <time>2021-08-08T06:35:18Z</time>
      </trkpt>
      <trkpt lat="48.91598" lon="7.49689">
        <ele>352</ele>
        <time>2021-08-08T06:35:19Z</time>
      </trkpt>
      <trkpt lat="48.91598" lon="7.49692">
        <ele>352</ele>
        <time>2021-08-08T06:35:20Z</time>
      </trkpt>
      <trkpt lat="48.91598" lon="7.49692">
        <ele>352</ele>
        <time>2021-08-08T06:35:21Z</time>
      </trkpt>
      <trkpt lat="48.91596" lon="7.497">
        <ele>352</ele>
        <time>2021-08-08T06:35:22Z</time>
      </trkpt>
      <trkpt lat="48.91595" lon="7.49703">
        <ele>352</ele>
        <time>2021-08-08T06:35:23Z</time>
      </trkpt>
      <trkpt lat="48.91595" lon="7.49703">
        <ele>352</ele>
        <time>2021-08-08T06:35:24Z</time>
      </trkpt>
      <trkpt lat="48.91592" lon="7.4971">
        <ele>352</ele>
        <time>2021-08-08T06:35:25Z</time>
      </trkpt>
      <trkpt lat="48.91592" lon="7.4971">
        <ele>352</ele>
        <time>2021-08-08T06:35:26Z</time>
      </trkpt>
      <trkpt lat="48.91589" lon="7.49716">
        <ele>352</ele>
        <time>2021-08-08T06:35:27Z</time>
      </trkpt>
      <trkpt lat="48.91589" lon="7.49716">
        <ele>352</ele>
        <time>2021-08-08T06:35:28Z</time>
      </trkpt>
      <trkpt lat="48.91585" lon="7.49723">
        <ele>352</ele>
        <time>2021-08-08T06:35:29Z</time>
      </trkpt>
      <trkpt lat="48.91585" lon="7.49723">
        <ele>351</ele>
        <time>2021-08-08T06:35:30Z</time>
      </trkpt>
      <trkpt lat="48.91581" lon="7.49732">
        <ele>351</ele>
        <time>2021-08-08T06:35:31Z</time>
      </trkpt>
      <trkpt lat="48.91581" lon="7.49732">
        <ele>351</ele>
        <time>2021-08-08T06:35:32Z</time>
      </trkpt>
      <trkpt lat="48.91575" lon="7.49744">
        <ele>351</ele>
        <time>2021-08-08T06:35:33Z</time>
      </trkpt>
      <trkpt lat="48.91575" lon="7.49744">
        <ele>351</ele>
        <time>2021-08-08T06:35:34Z</time>
      </trkpt>
      <trkpt lat="48.91568" lon="7.49756">
        <ele>349</ele>
        <time>2021-08-08T06:35:35Z</time>
      </trkpt>
      <trkpt lat="48.91565" lon="7.49758">
        <ele>349</ele>
        <time>2021-08-08T06:35:36Z</time>
      </trkpt>
      <trkpt lat="48.91562" lon="7.49762">
        <ele>349</ele>
        <time>2021-08-08T06:35:37Z</time>
      </trkpt>
      <trkpt lat="48.91562" lon="7.49762">
        <ele>349</ele>
        <time>2021-08-08T06:35:38Z</time>
      </trkpt>
      <trkpt lat="48.91557" lon="7.4977">
        <ele>348</ele>
        <time>2021-08-08T06:35:39Z</time>
      </trkpt>
      <trkpt lat="48.91557" lon="7.4977">
        <ele>348</ele>
        <time>2021-08-08T06:35:40Z</time>
      </trkpt>
      <trkpt lat="48.91554" lon="7.49776">
        <ele>348</ele>
        <time>2021-08-08T06:35:41Z</time>
      </trkpt>
      <trkpt lat="48.91554" lon="7.49776">
        <ele>348</ele>
        <time>2021-08-08T06:35:42Z</time>
      </trkpt>
      <trkpt lat="48.91554" lon="7.49785">
        <ele>348</ele>
        <time>2021-08-08T06:35:43Z</time>
      </trkpt>
      <trkpt lat="48.91554" lon="7.49785">
        <ele>348</ele>
        <time>2021-08-08T06:35:44Z</time>
      </trkpt>
      <trkpt lat="48.91553" lon="7.49795">
        <ele>348</ele>
        <time>2021-08-08T06:35:45Z</time>
      </trkpt>
      <trkpt lat="48.91553" lon="7.49795">
        <ele>348</ele>
        <time>2021-08-08T06:35:46Z</time>
      </trkpt>
      <trkpt lat="48.91548" lon="7.49804">
        <ele>348</ele>
        <time>2021-08-08T06:35:47Z</time>
      </trkpt>
      <trkpt lat="48.91548" lon="7.49804">
        <ele>348</ele>
        <time>2021-08-08T06:35:48Z</time>
      </trkpt>
      <trkpt lat="48.91545" lon="7.49813">
        <ele>348</ele>
        <time>2021-08-08T06:35:49Z</time>
      </trkpt>
      <trkpt lat="48.91545" lon="7.49813">
        <ele>348</ele>
        <time>2021-08-08T06:35:50Z</time>
      </trkpt>
      <trkpt lat="48.91542" lon="7.49821">
        <ele>349</ele>
        <time>2021-08-08T06:35:51Z</time>
      </trkpt>
      <trkpt lat="48.91542" lon="7.49821">
        <ele>349</ele>
        <time>2021-08-08T06:35:52Z</time>
      </trkpt>
      <trkpt lat="48.91539" lon="7.49828">
        <ele>349</ele>
        <time>2021-08-08T06:35:53Z</time>
      </trkpt>
      <trkpt lat="48.91539" lon="7.49828">
        <ele>349</ele>
        <time>2021-08-08T06:35:54Z</time>
      </trkpt>
      <trkpt lat="48.91537" lon="7.49836">
        <ele>349</ele>
        <time>2021-08-08T06:35:55Z</time>
      </trkpt>
      <trkpt lat="48.91537" lon="7.49836">
        <ele>349</ele>
        <time>2021-08-08T06:35:56Z</time>
      </trkpt>
      <trkpt lat="48.91533" lon="7.49845">
        <ele>349</ele>
        <time>2021-08-08T06:35:57Z</time>
      </trkpt>
      <trkpt lat="48.91533" lon="7.49845">
        <ele>349</ele>
        <time>2021-08-08T06:35:58Z</time>
      </trkpt>
      <trkpt lat="48.91529" lon="7.49851">
        <ele>349</ele>
        <time>2021-08-08T06:35:59Z</time>
      </trkpt>
      <trkpt lat="48.91529" lon="7.49851">
        <ele>349</ele>
        <time>2021-08-08T06:36:00Z</time>
      </trkpt>
      <trkpt lat="48.91526" lon="7.49858">
        <ele>349</ele>
        <time>2021-08-08T06:36:01Z</time>
      </trkpt>
      <trkpt lat="48.91526" lon="7.49858">
        <ele>349</ele>
        <time>2021-08-08T06:36:02Z</time>
      </trkpt>
      <trkpt lat="48.91526" lon="7.49865">
        <ele>349</ele>
        <time>2021-08-08T06:36:03Z</time>
      </trkpt>
      <trkpt lat="48.91526" lon="7.49865">
        <ele>349</ele>
        <time>2021-08-08T06:36:04Z</time>
      </trkpt>
      <trkpt lat="48.91525" lon="7.49874">
        <ele>349</ele>
        <time>2021-08-08T06:36:05Z</time>
      </trkpt>
      <trkpt lat="48.91525" lon="7.49874">
        <ele>349</ele>
        <time>2021-08-08T06:36:06Z</time>
      </trkpt>
      <trkpt lat="48.91526" lon="7.49882">
        <ele>349</ele>
        <time>2021-08-08T06:36:07Z</time>
      </trkpt>
      <trkpt lat="48.91526" lon="7.49882">
        <ele>349</ele>
        <time>2021-08-08T06:36:08Z</time>
      </trkpt>
      <trkpt lat="48.91529" lon="7.4989">
        <ele>349</ele>
        <time>2021-08-08T06:36:09Z</time>
      </trkpt>
      <trkpt lat="48.9153" lon="7.49894">
        <ele>349</ele>
        <time>2021-08-08T06:36:10Z</time>
      </trkpt>
      <trkpt lat="48.9153" lon="7.49894">
        <ele>349</ele>
        <time>2021-08-08T06:36:11Z</time>
      </trkpt>
      <trkpt lat="48.91531" lon="7.49903">
        <ele>349</ele>
        <time>2021-08-08T06:36:12Z</time>
      </trkpt>
      <trkpt lat="48.91531" lon="7.49903">
        <ele>349</ele>
        <time>2021-08-08T06:36:13Z</time>
      </trkpt>
      <trkpt lat="48.91532" lon="7.4991">
        <ele>349</ele>
        <time>2021-08-08T06:36:14Z</time>
      </trkpt>
      <trkpt lat="48.91533" lon="7.49914">
        <ele>349</ele>
        <time>2021-08-08T06:36:15Z</time>
      </trkpt>
      <trkpt lat="48.91533" lon="7.49914">
        <ele>350</ele>
        <time>2021-08-08T06:36:16Z</time>
      </trkpt>
      <trkpt lat="48.91533" lon="7.49923">
        <ele>350</ele>
        <time>2021-08-08T06:36:17Z</time>
      </trkpt>
      <trkpt lat="48.91533" lon="7.49927">
        <ele>350</ele>
        <time>2021-08-08T06:36:18Z</time>
      </trkpt>
      <trkpt lat="48.91532" lon="7.4993">
        <ele>350</ele>
        <time>2021-08-08T06:36:19Z</time>
      </trkpt>
      <trkpt lat="48.91532" lon="7.4993">
        <ele>350</ele>
        <time>2021-08-08T06:36:20Z</time>
      </trkpt>
      <trkpt lat="48.9153" lon="7.49935">
        <ele>350</ele>
        <time>2021-08-08T06:36:21Z</time>
      </trkpt>
      <trkpt lat="48.9153" lon="7.49935">
        <ele>350</ele>
        <time>2021-08-08T06:36:22Z</time>
      </trkpt>
      <trkpt lat="48.9153" lon="7.49938">
        <ele>350</ele>
        <time>2021-08-08T06:36:23Z</time>
      </trkpt>
      <trkpt lat="48.9153" lon="7.49938">
        <ele>350</ele>
        <time>2021-08-08T06:36:24Z</time>
      </trkpt>
      <trkpt lat="48.91531" lon="7.49939">
        <ele>350</ele>
        <time>2021-08-08T06:36:25Z</time>
      </trkpt>
      <trkpt lat="48.91531" lon="7.49939">
        <ele>350</ele>
        <time>2021-08-08T06:37:55Z</time>
      </trkpt>
      <trkpt lat="48.91531" lon="7.49939">
        <ele>350</ele>
        <time>2021-08-08T06:37:56Z</time>
      </trkpt>
      <trkpt lat="48.91535" lon="7.4995">
        <ele>350</ele>
        <time>2021-08-08T06:37:57Z</time>
      </trkpt>
      <trkpt lat="48.91535" lon="7.4995">
        <ele>350</ele>
        <time>2021-08-08T06:37:58Z</time>
      </trkpt>
      <trkpt lat="48.91537" lon="7.49957">
        <ele>350</ele>
        <time>2021-08-08T06:37:59Z</time>
      </trkpt>
      <trkpt lat="48.91538" lon="7.49961">
        <ele>350</ele>
        <time>2021-08-08T06:38:00Z</time>
      </trkpt>
      <trkpt lat="48.91538" lon="7.49963">
        <ele>350</ele>
        <time>2021-08-08T06:38:01Z</time>
      </trkpt>
      <trkpt lat="48.91538" lon="7.49963">
        <ele>350</ele>
        <time>2021-08-08T06:38:02Z</time>
      </trkpt>
      <trkpt lat="48.9154" lon="7.49965">
        <ele>350</ele>
        <time>2021-08-08T06:38:03Z</time>
      </trkpt>
      <trkpt lat="48.9154" lon="7.49965">
        <ele>350</ele>
        <time>2021-08-08T06:38:04Z</time>
      </trkpt>
      <trkpt lat="48.91541" lon="7.49968">
        <ele>350</ele>
        <time>2021-08-08T06:38:05Z</time>
      </trkpt>
      <trkpt lat="48.91541" lon="7.49968">
        <ele>350</ele>
        <time>2021-08-08T06:38:06Z</time>
      </trkpt>
      <trkpt lat="48.91544" lon="7.49971">
        <ele>350</ele>
        <time>2021-08-08T06:38:07Z</time>
      </trkpt>
      <trkpt lat="48.91544" lon="7.49971">
        <ele>349</ele>
        <time>2021-08-08T06:38:08Z</time>
      </trkpt>
      <trkpt lat="48.91548" lon="7.49978">
        <ele>349</ele>
        <time>2021-08-08T06:38:09Z</time>
      </trkpt>
      <trkpt lat="48.91548" lon="7.49978">
        <ele>349</ele>
        <time>2021-08-08T06:38:10Z</time>
      </trkpt>
      <trkpt lat="48.91552" lon="7.49984">
        <ele>349</ele>
        <time>2021-08-08T06:38:11Z</time>
      </trkpt>
      <trkpt lat="48.91554" lon="7.49987">
        <ele>348</ele>
        <time>2021-08-08T06:38:12Z</time>
      </trkpt>
      <trkpt lat="48.91555" lon="7.49989">
        <ele>348</ele>
        <time>2021-08-08T06:38:13Z</time>
      </trkpt>
      <trkpt lat="48.91555" lon="7.49989">
        <ele>348</ele>
        <time>2021-08-08T06:38:14Z</time>
      </trkpt>
      <trkpt lat="48.91558" lon="7.49998">
        <ele>348</ele>
        <time>2021-08-08T06:38:15Z</time>
      </trkpt>
      <trkpt lat="48.91558" lon="7.49998">
        <ele>348</ele>
        <time>2021-08-08T06:38:16Z</time>
      </trkpt>
      <trkpt lat="48.9156" lon="7.50006">
        <ele>348</ele>
        <time>2021-08-08T06:38:17Z</time>
      </trkpt>
      <trkpt lat="48.9156" lon="7.50006">
        <ele>348</ele>
        <time>2021-08-08T06:38:18Z</time>
      </trkpt>
      <trkpt lat="48.91559" lon="7.50015">
        <ele>348</ele>
        <time>2021-08-08T06:38:19Z</time>
      </trkpt>
      <trkpt lat="48.91559" lon="7.50015">
        <ele>347</ele>
        <time>2021-08-08T06:38:20Z</time>
      </trkpt>
      <trkpt lat="48.91559" lon="7.50022">
        <ele>347</ele>
        <time>2021-08-08T06:38:21Z</time>
      </trkpt>
      <trkpt lat="48.91559" lon="7.50022">
        <ele>347</ele>
        <time>2021-08-08T06:38:22Z</time>
      </trkpt>
      <trkpt lat="48.91559" lon="7.50031">
        <ele>347</ele>
        <time>2021-08-08T06:38:23Z</time>
      </trkpt>
      <trkpt lat="48.91559" lon="7.50031">
        <ele>347</ele>
        <time>2021-08-08T06:38:24Z</time>
      </trkpt>
      <trkpt lat="48.9156" lon="7.50037">
        <ele>347</ele>
        <time>2021-08-08T06:38:25Z</time>
      </trkpt>
      <trkpt lat="48.9156" lon="7.50037">
        <ele>347</ele>
        <time>2021-08-08T06:38:26Z</time>
      </trkpt>
      <trkpt lat="48.91562" lon="7.50043">
        <ele>347</ele>
        <time>2021-08-08T06:38:27Z</time>
      </trkpt>
      <trkpt lat="48.91562" lon="7.50043">
        <ele>347</ele>
        <time>2021-08-08T06:38:28Z</time>
      </trkpt>
      <trkpt lat="48.91563" lon="7.50048">
        <ele>347</ele>
        <time>2021-08-08T06:38:29Z</time>
      </trkpt>
      <trkpt lat="48.91565" lon="7.50051">
        <ele>346</ele>
        <time>2021-08-08T06:38:30Z</time>
      </trkpt>
      <trkpt lat="48.91566" lon="7.50056">
        <ele>346</ele>
        <time>2021-08-08T06:38:31Z</time>
      </trkpt>
      <trkpt lat="48.91566" lon="7.50056">
        <ele>344</ele>
        <time>2021-08-08T06:38:32Z</time>
      </trkpt>
      <trkpt lat="48.91569" lon="7.50066">
        <ele>344</ele>
        <time>2021-08-08T06:38:33Z</time>
      </trkpt>
      <trkpt lat="48.91569" lon="7.50066">
        <ele>343</ele>
        <time>2021-08-08T06:38:34Z</time>
      </trkpt>
      <trkpt lat="48.9157" lon="7.50074">
        <ele>343</ele>
        <time>2021-08-08T06:38:35Z</time>
      </trkpt>
      <trkpt lat="48.9157" lon="7.50074">
        <ele>342</ele>
        <time>2021-08-08T06:38:36Z</time>
      </trkpt>
      <trkpt lat="48.91572" lon="7.5008">
        <ele>342</ele>
        <time>2021-08-08T06:38:37Z</time>
      </trkpt>
      <trkpt lat="48.91572" lon="7.5008">
        <ele>340</ele>
        <time>2021-08-08T06:38:38Z</time>
      </trkpt>
      <trkpt lat="48.91572" lon="7.50087">
        <ele>340</ele>
        <time>2021-08-08T06:38:39Z</time>
      </trkpt>
      <trkpt lat="48.91572" lon="7.50087">
        <ele>339</ele>
        <time>2021-08-08T06:38:40Z</time>
      </trkpt>
      <trkpt lat="48.91573" lon="7.50091">
        <ele>339</ele>
        <time>2021-08-08T06:38:41Z</time>
      </trkpt>
      <trkpt lat="48.91573" lon="7.50091">
        <ele>338</ele>
        <time>2021-08-08T06:38:42Z</time>
      </trkpt>
      <trkpt lat="48.91571" lon="7.50095">
        <ele>338</ele>
        <time>2021-08-08T06:38:43Z</time>
      </trkpt>
      <trkpt lat="48.91571" lon="7.50095">
        <ele>337</ele>
        <time>2021-08-08T06:38:44Z</time>
      </trkpt>
      <trkpt lat="48.9157" lon="7.50099">
        <ele>337</ele>
        <time>2021-08-08T06:38:45Z</time>
      </trkpt>
      <trkpt lat="48.9157" lon="7.50099">
        <ele>337</ele>
        <time>2021-08-08T06:38:46Z</time>
      </trkpt>
      <trkpt lat="48.91569" lon="7.50103">
        <ele>337</ele>
        <time>2021-08-08T06:38:47Z</time>
      </trkpt>
      <trkpt lat="48.91568" lon="7.50105">
        <ele>336</ele>
        <time>2021-08-08T06:38:48Z</time>
      </trkpt>
      <trkpt lat="48.91568" lon="7.50107">
        <ele>336</ele>
        <time>2021-08-08T06:38:49Z</time>
      </trkpt>
      <trkpt lat="48.91568" lon="7.50107">
        <ele>335</ele>
        <time>2021-08-08T06:38:50Z</time>
      </trkpt>
      <trkpt lat="48.91569" lon="7.50111">
        <ele>335</ele>
        <time>2021-08-08T06:38:51Z</time>
      </trkpt>
      <trkpt lat="48.91569" lon="7.50111">
        <ele>334</ele>
        <time>2021-08-08T06:38:52Z</time>
      </trkpt>
      <trkpt lat="48.91572" lon="7.50115">
        <ele>334</ele>
        <time>2021-08-08T06:38:53Z</time>
      </trkpt>
      <trkpt lat="48.91572" lon="7.50115">
        <ele>333</ele>
        <time>2021-08-08T06:38:54Z</time>
      </trkpt>
      <trkpt lat="48.91573" lon="7.50121">
        <ele>333</ele>
        <time>2021-08-08T06:38:55Z</time>
      </trkpt>
      <trkpt lat="48.91573" lon="7.50121">
        <ele>333</ele>
        <time>2021-08-08T06:38:56Z</time>
      </trkpt>
      <trkpt lat="48.91574" lon="7.50126">
        <ele>333</ele>
        <time>2021-08-08T06:38:57Z</time>
      </trkpt>
      <trkpt lat="48.91574" lon="7.50126">
        <ele>331</ele>
        <time>2021-08-08T06:38:58Z</time>
      </trkpt>
      <trkpt lat="48.91573" lon="7.50132">
        <ele>331</ele>
        <time>2021-08-08T06:38:59Z</time>
      </trkpt>
      <trkpt lat="48.91573" lon="7.50132">
        <ele>330</ele>
        <time>2021-08-08T06:39:00Z</time>
      </trkpt>
      <trkpt lat="48.91574" lon="7.50135">
        <ele>330</ele>
        <time>2021-08-08T06:39:01Z</time>
      </trkpt>
      <trkpt lat="48.91573" lon="7.50138">
        <ele>329</ele>
        <time>2021-08-08T06:39:02Z</time>
      </trkpt>
      <trkpt lat="48.91573" lon="7.50138">
        <ele>328</ele>
        <time>2021-08-08T06:39:03Z</time>
      </trkpt>
      <trkpt lat="48.91574" lon="7.50144">
        <ele>328</ele>
        <time>2021-08-08T06:39:04Z</time>
      </trkpt>
      <trkpt lat="48.91574" lon="7.50147">
        <ele>326</ele>
        <time>2021-08-08T06:39:05Z</time>
      </trkpt>
      <trkpt lat="48.91574" lon="7.50147">
        <ele>326</ele>
        <time>2021-08-08T06:39:06Z</time>
      </trkpt>
      <trkpt lat="48.91573" lon="7.50155">
        <ele>325</ele>
        <time>2021-08-08T06:39:07Z</time>
      </trkpt>
      <trkpt lat="48.91573" lon="7.50155">
        <ele>325</ele>
        <time>2021-08-08T06:39:08Z</time>
      </trkpt>
      <trkpt lat="48.91572" lon="7.50165">
        <ele>324</ele>
        <time>2021-08-08T06:39:09Z</time>
      </trkpt>
      <trkpt lat="48.91571" lon="7.50169">
        <ele>324</ele>
        <time>2021-08-08T06:39:10Z</time>
      </trkpt>
      <trkpt lat="48.91571" lon="7.50169">
        <ele>322</ele>
        <time>2021-08-08T06:39:11Z</time>
      </trkpt>
      <trkpt lat="48.91568" lon="7.50178">
        <ele>322</ele>
        <time>2021-08-08T06:39:12Z</time>
      </trkpt>
      <trkpt lat="48.91566" lon="7.50183">
        <ele>322</ele>
        <time>2021-08-08T06:39:13Z</time>
      </trkpt>
      <trkpt lat="48.91566" lon="7.50183">
        <ele>322</ele>
        <time>2021-08-08T06:39:14Z</time>
      </trkpt>
      <trkpt lat="48.91562" lon="7.50192">
        <ele>321</ele>
        <time>2021-08-08T06:39:15Z</time>
      </trkpt>
      <trkpt lat="48.91558" lon="7.50197">
        <ele>321</ele>
        <time>2021-08-08T06:39:16Z</time>
      </trkpt>
      <trkpt lat="48.91558" lon="7.50197">
        <ele>321</ele>
        <time>2021-08-08T06:39:17Z</time>
      </trkpt>
      <trkpt lat="48.91552" lon="7.50206">
        <ele>321</ele>
        <time>2021-08-08T06:39:18Z</time>
      </trkpt>
      <trkpt lat="48.91548" lon="7.5021">
        <ele>320</ele>
        <time>2021-08-08T06:39:19Z</time>
      </trkpt>
      <trkpt lat="48.91548" lon="7.5021">
        <ele>320</ele>
        <time>2021-08-08T06:39:20Z</time>
      </trkpt>
      <trkpt lat="48.91539" lon="7.50218">
        <ele>320</ele>
        <time>2021-08-08T06:39:21Z</time>
      </trkpt>
      <trkpt lat="48.91539" lon="7.50218">
        <ele>320</ele>
        <time>2021-08-08T06:39:22Z</time>
      </trkpt>
      <trkpt lat="48.9153" lon="7.50227">
        <ele>319</ele>
        <time>2021-08-08T06:39:23Z</time>
      </trkpt>
      <trkpt lat="48.9153" lon="7.50227">
        <ele>319</ele>
        <time>2021-08-08T06:39:24Z</time>
      </trkpt>
      <trkpt lat="48.9152" lon="7.50238">
        <ele>319</ele>
        <time>2021-08-08T06:39:25Z</time>
      </trkpt>
      <trkpt lat="48.9152" lon="7.50238">
        <ele>319</ele>
        <time>2021-08-08T06:39:26Z</time>
      </trkpt>
      <trkpt lat="48.91511" lon="7.50249">
        <ele>318</ele>
        <time>2021-08-08T06:39:27Z</time>
      </trkpt>
      <trkpt lat="48.91511" lon="7.50249">
        <ele>318</ele>
        <time>2021-08-08T06:39:28Z</time>
      </trkpt>
      <trkpt lat="48.91503" lon="7.50261">
        <ele>318</ele>
        <time>2021-08-08T06:39:29Z</time>
      </trkpt>
      <trkpt lat="48.91499" lon="7.50265">
        <ele>318</ele>
        <time>2021-08-08T06:39:30Z</time>
      </trkpt>
      <trkpt lat="48.91494" lon="7.50272">
        <ele>317</ele>
        <time>2021-08-08T06:39:31Z</time>
      </trkpt>
      <trkpt lat="48.9149" lon="7.50278">
        <ele>317</ele>
        <time>2021-08-08T06:39:32Z</time>
      </trkpt>
      <trkpt lat="48.9149" lon="7.50278">
        <ele>317</ele>
        <time>2021-08-08T06:39:33Z</time>
      </trkpt>
      <trkpt lat="48.91472" lon="7.50296">
        <ele>317</ele>
        <time>2021-08-08T06:39:34Z</time>
      </trkpt>
      <trkpt lat="48.91472" lon="7.50296">
        <ele>315</ele>
        <time>2021-08-08T06:39:35Z</time>
      </trkpt>
      <trkpt lat="48.91456" lon="7.5031">
        <ele>315</ele>
        <time>2021-08-08T06:39:36Z</time>
      </trkpt>
      <trkpt lat="48.91449" lon="7.50319">
        <ele>315</ele>
        <time>2021-08-08T06:39:37Z</time>
      </trkpt>
      <trkpt lat="48.91449" lon="7.50319">
        <ele>315</ele>
        <time>2021-08-08T06:39:38Z</time>
      </trkpt>
      <trkpt lat="48.91434" lon="7.50336">
        <ele>313</ele>
        <time>2021-08-08T06:39:39Z</time>
      </trkpt>
      <trkpt lat="48.91434" lon="7.50336">
        <ele>313</ele>
        <time>2021-08-08T06:39:40Z</time>
      </trkpt>
      <trkpt lat="48.91419" lon="7.50352">
        <ele>312</ele>
        <time>2021-08-08T06:39:41Z</time>
      </trkpt>
      <trkpt lat="48.91411" lon="7.50361">
        <ele>312</ele>
        <time>2021-08-08T06:39:42Z</time>
      </trkpt>
      <trkpt lat="48.91411" lon="7.50361">
        <ele>311</ele>
        <time>2021-08-08T06:39:43Z</time>
      </trkpt>
      <trkpt lat="48.91397" lon="7.50377">
        <ele>311</ele>
        <time>2021-08-08T06:39:44Z</time>
      </trkpt>
      <trkpt lat="48.91391" lon="7.50386">
        <ele>310</ele>
        <time>2021-08-08T06:39:45Z</time>
      </trkpt>
      <trkpt lat="48.91385" lon="7.50394">
        <ele>310</ele>
        <time>2021-08-08T06:39:46Z</time>
      </trkpt>
      <trkpt lat="48.91385" lon="7.50394">
        <ele>309</ele>
        <time>2021-08-08T06:39:47Z</time>
      </trkpt>
      <trkpt lat="48.91371" lon="7.50411">
        <ele>309</ele>
        <time>2021-08-08T06:39:48Z</time>
      </trkpt>
      <trkpt lat="48.91364" lon="7.50419">
        <ele>308</ele>
        <time>2021-08-08T06:39:49Z</time>
      </trkpt>
      <trkpt lat="48.91358" lon="7.50428">
        <ele>308</ele>
        <time>2021-08-08T06:39:50Z</time>
      </trkpt>
      <trkpt lat="48.91358" lon="7.50428">
        <ele>306</ele>
        <time>2021-08-08T06:39:51Z</time>
      </trkpt>
      <trkpt lat="48.91347" lon="7.50448">
        <ele>306</ele>
        <time>2021-08-08T06:39:52Z</time>
      </trkpt>
      <trkpt lat="48.91343" lon="7.50458">
        <ele>305</ele>
        <time>2021-08-08T06:39:53Z</time>
      </trkpt>
      <trkpt lat="48.91343" lon="7.50458">
        <ele>305</ele>
        <time>2021-08-08T06:39:54Z</time>
      </trkpt>
      <trkpt lat="48.91331" lon="7.50478">
        <ele>304</ele>
        <time>2021-08-08T06:39:55Z</time>
      </trkpt>
      <trkpt lat="48.91331" lon="7.50478">
        <ele>304</ele>
        <time>2021-08-08T06:39:56Z</time>
      </trkpt>
      <trkpt lat="48.9132" lon="7.50497">
        <ele>303</ele>
        <time>2021-08-08T06:39:57Z</time>
      </trkpt>
      <trkpt lat="48.9132" lon="7.50497">
        <ele>302</ele>
        <time>2021-08-08T06:39:58Z</time>
      </trkpt>
      <trkpt lat="48.91309" lon="7.50518">
        <ele>302</ele>
        <time>2021-08-08T06:39:59Z</time>
      </trkpt>
      <trkpt lat="48.91309" lon="7.50518">
        <ele>301</ele>
        <time>2021-08-08T06:40:00Z</time>
      </trkpt>
      <trkpt lat="48.91299" lon="7.5054">
        <ele>301</ele>
        <time>2021-08-08T06:40:01Z</time>
      </trkpt>
      <trkpt lat="48.91299" lon="7.5054">
        <ele>300</ele>
        <time>2021-08-08T06:40:02Z</time>
      </trkpt>
      <trkpt lat="48.91293" lon="7.50563">
        <ele>300</ele>
        <time>2021-08-08T06:40:03Z</time>
      </trkpt>
      <trkpt lat="48.91289" lon="7.50575">
        <ele>299</ele>
        <time>2021-08-08T06:40:04Z</time>
      </trkpt>
      <trkpt lat="48.91289" lon="7.50575">
        <ele>299</ele>
        <time>2021-08-08T06:40:05Z</time>
      </trkpt>
      <trkpt lat="48.91281" lon="7.50598">
        <ele>298</ele>
        <time>2021-08-08T06:40:06Z</time>
      </trkpt>
      <trkpt lat="48.91281" lon="7.50598">
        <ele>298</ele>
        <time>2021-08-08T06:40:07Z</time>
      </trkpt>
      <trkpt lat="48.91275" lon="7.5062">
        <ele>298</ele>
        <time>2021-08-08T06:40:08Z</time>
      </trkpt>
      <trkpt lat="48.91271" lon="7.50632">
        <ele>298</ele>
        <time>2021-08-08T06:40:09Z</time>
      </trkpt>
      <trkpt lat="48.91271" lon="7.50632">
        <ele>297</ele>
        <time>2021-08-08T06:40:10Z</time>
      </trkpt>
      <trkpt lat="48.91264" lon="7.50655">
        <ele>297</ele>
        <time>2021-08-08T06:40:11Z</time>
      </trkpt>
      <trkpt lat="48.91264" lon="7.50655">
        <ele>296</ele>
        <time>2021-08-08T06:40:12Z</time>
      </trkpt>
      <trkpt lat="48.91258" lon="7.50679">
        <ele>296</ele>
        <time>2021-08-08T06:40:13Z</time>
      </trkpt>
      <trkpt lat="48.91258" lon="7.50679">
        <ele>295</ele>
        <time>2021-08-08T06:40:14Z</time>
      </trkpt>
      <trkpt lat="48.91252" lon="7.50705">
        <ele>295</ele>
        <time>2021-08-08T06:40:15Z</time>
      </trkpt>
      <trkpt lat="48.9125" lon="7.50719">
        <ele>294</ele>
        <time>2021-08-08T06:40:16Z</time>
      </trkpt>
      <trkpt lat="48.9125" lon="7.50719">
        <ele>294</ele>
        <time>2021-08-08T06:40:17Z</time>
      </trkpt>
      <trkpt lat="48.91245" lon="7.50746">
        <ele>293</ele>
        <time>2021-08-08T06:40:18Z</time>
      </trkpt>
      <trkpt lat="48.91244" lon="7.50759">
        <ele>293</ele>
        <time>2021-08-08T06:40:19Z</time>
      </trkpt>
      <trkpt lat="48.91244" lon="7.50773">
        <ele>292</ele>
        <time>2021-08-08T06:40:20Z</time>
      </trkpt>
      <trkpt lat="48.91244" lon="7.50773">
        <ele>292</ele>
        <time>2021-08-08T06:40:21Z</time>
      </trkpt>
      <trkpt lat="48.91249" lon="7.50797">
        <ele>292</ele>
        <time>2021-08-08T06:40:22Z</time>
      </trkpt>
      <trkpt lat="48.91249" lon="7.50797">
        <ele>292</ele>
        <time>2021-08-08T06:40:23Z</time>
      </trkpt>
      <trkpt lat="48.91257" lon="7.50816">
        <ele>291</ele>
        <time>2021-08-08T06:40:24Z</time>
      </trkpt>
      <trkpt lat="48.91259" lon="7.50824">
        <ele>291</ele>
        <time>2021-08-08T06:40:25Z</time>
      </trkpt>
      <trkpt lat="48.91259" lon="7.50824">
        <ele>291</ele>
        <time>2021-08-08T06:40:26Z</time>
      </trkpt>
      <trkpt lat="48.9126" lon="7.50837">
        <ele>291</ele>
        <time>2021-08-08T06:40:27Z</time>
      </trkpt>
      <trkpt lat="48.9126" lon="7.50837">
        <ele>291</ele>
        <time>2021-08-08T06:40:28Z</time>
      </trkpt>
      <trkpt lat="48.91258" lon="7.50847">
        <ele>291</ele>
        <time>2021-08-08T06:40:29Z</time>
      </trkpt>
      <trkpt lat="48.91258" lon="7.50847">
        <ele>291</ele>
        <time>2021-08-08T06:40:30Z</time>
      </trkpt>
      <trkpt lat="48.91256" lon="7.50854">
        <ele>291</ele>
        <time>2021-08-08T06:40:31Z</time>
      </trkpt>
      <trkpt lat="48.91256" lon="7.50854">
        <ele>291</ele>
        <time>2021-08-08T06:40:32Z</time>
      </trkpt>
      <trkpt lat="48.91254" lon="7.50861">
        <ele>291</ele>
        <time>2021-08-08T06:40:33Z</time>
      </trkpt>
      <trkpt lat="48.91252" lon="7.50864">
        <ele>292</ele>
        <time>2021-08-08T06:40:34Z</time>
      </trkpt>
      <trkpt lat="48.91251" lon="7.50866">
        <ele>292</ele>
        <time>2021-08-08T06:40:35Z</time>
      </trkpt>
      <trkpt lat="48.91253" lon="7.50872">
        <ele>292</ele>
        <time>2021-08-08T06:40:36Z</time>
      </trkpt>
      <trkpt lat="48.91253" lon="7.50872">
        <ele>292</ele>
        <time>2021-08-08T06:40:37Z</time>
      </trkpt>
      <trkpt lat="48.9125" lon="7.5088">
        <ele>293</ele>
        <time>2021-08-08T06:40:38Z</time>
      </trkpt>
      <trkpt lat="48.9125" lon="7.5088">
        <ele>293</ele>
        <time>2021-08-08T06:40:39Z</time>
      </trkpt>
      <trkpt lat="48.91248" lon="7.50886">
        <ele>293</ele>
        <time>2021-08-08T06:40:40Z</time>
      </trkpt>
      <trkpt lat="48.91247" lon="7.50889">
        <ele>293</ele>
        <time>2021-08-08T06:40:41Z</time>
      </trkpt>
      <trkpt lat="48.91247" lon="7.50889">
        <ele>294</ele>
        <time>2021-08-08T06:40:42Z</time>
      </trkpt>
      <trkpt lat="48.91244" lon="7.50895">
        <ele>294</ele>
        <time>2021-08-08T06:40:43Z</time>
      </trkpt>
      <trkpt lat="48.91244" lon="7.50895">
        <ele>294</ele>
        <time>2021-08-08T06:40:44Z</time>
      </trkpt>
      <trkpt lat="48.91243" lon="7.50901">
        <ele>294</ele>
        <time>2021-08-08T06:40:45Z</time>
      </trkpt>
      <trkpt lat="48.91243" lon="7.50901">
        <ele>294</ele>
        <time>2021-08-08T06:40:46Z</time>
      </trkpt>
      <trkpt lat="48.91243" lon="7.50906">
        <ele>295</ele>
        <time>2021-08-08T06:40:47Z</time>
      </trkpt>
      <trkpt lat="48.91242" lon="7.50908">
        <ele>295</ele>
        <time>2021-08-08T06:40:48Z</time>
      </trkpt>
      <trkpt lat="48.91242" lon="7.50909">
        <ele>295</ele>
        <time>2021-08-08T06:40:49Z</time>
      </trkpt>
      <trkpt lat="48.91242" lon="7.50909">
        <ele>295</ele>
        <time>2021-08-08T06:40:50Z</time>
      </trkpt>
      <trkpt lat="48.91239" lon="7.50913">
        <ele>296</ele>
        <time>2021-08-08T06:40:51Z</time>
      </trkpt>
      <trkpt lat="48.91239" lon="7.50913">
        <ele>296</ele>
        <time>2021-08-08T06:40:52Z</time>
      </trkpt>
      <trkpt lat="48.91238" lon="7.50916">
        <ele>296</ele>
        <time>2021-08-08T06:40:53Z</time>
      </trkpt>
      <trkpt lat="48.91237" lon="7.50919">
        <ele>296</ele>
        <time>2021-08-08T06:40:54Z</time>
      </trkpt>
      <trkpt lat="48.91237" lon="7.50921">
        <ele>297</ele>
        <time>2021-08-08T06:40:55Z</time>
      </trkpt>
      <trkpt lat="48.91237" lon="7.50921">
        <ele>297</ele>
        <time>2021-08-08T06:40:56Z</time>
      </trkpt>
      <trkpt lat="48.91235" lon="7.50927">
        <ele>297</ele>
        <time>2021-08-08T06:40:57Z</time>
      </trkpt>
      <trkpt lat="48.91235" lon="7.50927">
        <ele>297</ele>
        <time>2021-08-08T06:40:58Z</time>
      </trkpt>
      <trkpt lat="48.91231" lon="7.50933">
        <ele>297</ele>
        <time>2021-08-08T06:40:59Z</time>
      </trkpt>
      <trkpt lat="48.91229" lon="7.50937">
        <ele>297</ele>
        <time>2021-08-08T06:41:00Z</time>
      </trkpt>
      <trkpt lat="48.91228" lon="7.5094">
        <ele>298</ele>
        <time>2021-08-08T06:41:01Z</time>
      </trkpt>
      <trkpt lat="48.91228" lon="7.5094">
        <ele>298</ele>
        <time>2021-08-08T06:41:02Z</time>
      </trkpt>
      <trkpt lat="48.91226" lon="7.50946">
        <ele>298</ele>
        <time>2021-08-08T06:41:03Z</time>
      </trkpt>
      <trkpt lat="48.91226" lon="7.50946">
        <ele>298</ele>
        <time>2021-08-08T06:41:04Z</time>
      </trkpt>
      <trkpt lat="48.91223" lon="7.50951">
        <ele>298</ele>
        <time>2021-08-08T06:41:05Z</time>
      </trkpt>
      <trkpt lat="48.91223" lon="7.50951">
        <ele>298</ele>
        <time>2021-08-08T06:41:06Z</time>
      </trkpt>
      <trkpt lat="48.91221" lon="7.50958">
        <ele>299</ele>
        <time>2021-08-08T06:41:07Z</time>
      </trkpt>
      <trkpt lat="48.91221" lon="7.50958">
        <ele>299</ele>
        <time>2021-08-08T06:41:08Z</time>
      </trkpt>
      <trkpt lat="48.9122" lon="7.50962">
        <ele>299</ele>
        <time>2021-08-08T06:41:09Z</time>
      </trkpt>
      <trkpt lat="48.9122" lon="7.50962">
        <ele>299</ele>
        <time>2021-08-08T06:41:10Z</time>
      </trkpt>
      <trkpt lat="48.91218" lon="7.50967">
        <ele>300</ele>
        <time>2021-08-08T06:41:11Z</time>
      </trkpt>
      <trkpt lat="48.91216" lon="7.5097">
        <ele>300</ele>
        <time>2021-08-08T06:41:12Z</time>
      </trkpt>
      <trkpt lat="48.91216" lon="7.50972">
        <ele>300</ele>
        <time>2021-08-08T06:41:13Z</time>
      </trkpt>
      <trkpt lat="48.91216" lon="7.50972">
        <ele>300</ele>
        <time>2021-08-08T06:41:14Z</time>
      </trkpt>
      <trkpt lat="48.91214" lon="7.50978">
        <ele>300</ele>
        <time>2021-08-08T06:41:15Z</time>
      </trkpt>
      <trkpt lat="48.91214" lon="7.50978">
        <ele>300</ele>
        <time>2021-08-08T06:41:16Z</time>
      </trkpt>
      <trkpt lat="48.91211" lon="7.50983">
        <ele>300</ele>
        <time>2021-08-08T06:41:17Z</time>
      </trkpt>
      <trkpt lat="48.91211" lon="7.50983">
        <ele>300</ele>
        <time>2021-08-08T06:41:18Z</time>
      </trkpt>
      <trkpt lat="48.91208" lon="7.50992">
        <ele>300</ele>
        <time>2021-08-08T06:41:19Z</time>
      </trkpt>
      <trkpt lat="48.91208" lon="7.50992">
        <ele>300</ele>
        <time>2021-08-08T06:41:20Z</time>
      </trkpt>
      <trkpt lat="48.91205" lon="7.50998">
        <ele>300</ele>
        <time>2021-08-08T06:41:21Z</time>
      </trkpt>
      <trkpt lat="48.91205" lon="7.50998">
        <ele>300</ele>
        <time>2021-08-08T06:41:22Z</time>
      </trkpt>
      <trkpt lat="48.91202" lon="7.51004">
        <ele>300</ele>
        <time>2021-08-08T06:41:23Z</time>
      </trkpt>
      <trkpt lat="48.91201" lon="7.51007">
        <ele>300</ele>
        <time>2021-08-08T06:41:24Z</time>
      </trkpt>
      <trkpt lat="48.91201" lon="7.5101">
        <ele>300</ele>
        <time>2021-08-08T06:41:25Z</time>
      </trkpt>
      <trkpt lat="48.91201" lon="7.5101">
        <ele>300</ele>
        <time>2021-08-08T06:41:26Z</time>
      </trkpt>
      <trkpt lat="48.912" lon="7.51015">
        <ele>301</ele>
        <time>2021-08-08T06:41:27Z</time>
      </trkpt>
      <trkpt lat="48.912" lon="7.51015">
        <ele>301</ele>
        <time>2021-08-08T06:41:28Z</time>
      </trkpt>
      <trkpt lat="48.91201" lon="7.5102">
        <ele>301</ele>
        <time>2021-08-08T06:41:29Z</time>
      </trkpt>
      <trkpt lat="48.91201" lon="7.5102">
        <ele>301</ele>
        <time>2021-08-08T06:41:30Z</time>
      </trkpt>
      <trkpt lat="48.91204" lon="7.51028">
        <ele>301</ele>
        <time>2021-08-08T06:41:31Z</time>
      </trkpt>
      <trkpt lat="48.91204" lon="7.51028">
        <ele>301</ele>
        <time>2021-08-08T06:41:32Z</time>
      </trkpt>
      <trkpt lat="48.91207" lon="7.51034">
        <ele>301</ele>
        <time>2021-08-08T06:41:33Z</time>
      </trkpt>
      <trkpt lat="48.91207" lon="7.51034">
        <ele>301</ele>
        <time>2021-08-08T06:41:34Z</time>
      </trkpt>
      <trkpt lat="48.91209" lon="7.5104">
        <ele>301</ele>
        <time>2021-08-08T06:41:35Z</time>
      </trkpt>
      <trkpt lat="48.91211" lon="7.51043">
        <ele>301</ele>
        <time>2021-08-08T06:41:36Z</time>
      </trkpt>
      <trkpt lat="48.91211" lon="7.51043">
        <ele>301</ele>
        <time>2021-08-08T06:41:37Z</time>
      </trkpt>
      <trkpt lat="48.91216" lon="7.5105">
        <ele>301</ele>
        <time>2021-08-08T06:41:38Z</time>
      </trkpt>
      <trkpt lat="48.91219" lon="7.51053">
        <ele>301</ele>
        <time>2021-08-08T06:41:39Z</time>
      </trkpt>
      <trkpt lat="48.91219" lon="7.51053">
        <ele>301</ele>
        <time>2021-08-08T06:41:40Z</time>
      </trkpt>
      <trkpt lat="48.91222" lon="7.51061">
        <ele>301</ele>
        <time>2021-08-08T06:41:41Z</time>
      </trkpt>
      <trkpt lat="48.91223" lon="7.51065">
        <ele>301</ele>
        <time>2021-08-08T06:41:42Z</time>
      </trkpt>
      <trkpt lat="48.91223" lon="7.51065">
        <ele>301</ele>
        <time>2021-08-08T06:41:43Z</time>
      </trkpt>
      <trkpt lat="48.91226" lon="7.5107">
        <ele>301</ele>
        <time>2021-08-08T06:41:44Z</time>
      </trkpt>
      <trkpt lat="48.91228" lon="7.51073">
        <ele>301</ele>
        <time>2021-08-08T06:41:45Z</time>
      </trkpt>
      <trkpt lat="48.91228" lon="7.51073">
        <ele>301</ele>
        <time>2021-08-08T06:41:46Z</time>
      </trkpt>
      <trkpt lat="48.91231" lon="7.51081">
        <ele>301</ele>
        <time>2021-08-08T06:41:47Z</time>
      </trkpt>
      <trkpt lat="48.91231" lon="7.51081">
        <ele>301</ele>
        <time>2021-08-08T06:41:48Z</time>
      </trkpt>
      <trkpt lat="48.91233" lon="7.51087">
        <ele>301</ele>
        <time>2021-08-08T06:41:49Z</time>
      </trkpt>
      <trkpt lat="48.91233" lon="7.5109">
        <ele>301</ele>
        <time>2021-08-08T06:41:50Z</time>
      </trkpt>
      <trkpt lat="48.91234" lon="7.51093">
        <ele>301</ele>
        <time>2021-08-08T06:41:51Z</time>
      </trkpt>
      <trkpt lat="48.91234" lon="7.51093">
        <ele>301</ele>
        <time>2021-08-08T06:41:52Z</time>
      </trkpt>
      <trkpt lat="48.91235" lon="7.51099">
        <ele>301</ele>
        <time>2021-08-08T06:41:53Z</time>
      </trkpt>
      <trkpt lat="48.91235" lon="7.51099">
        <ele>301</ele>
        <time>2021-08-08T06:41:54Z</time>
      </trkpt>
      <trkpt lat="48.91237" lon="7.51108">
        <ele>301</ele>
        <time>2021-08-08T06:41:55Z</time>
      </trkpt>
      <trkpt lat="48.91237" lon="7.51108">
        <ele>301</ele>
        <time>2021-08-08T06:41:56Z</time>
      </trkpt>
      <trkpt lat="48.91238" lon="7.51118">
        <ele>301</ele>
        <time>2021-08-08T06:41:57Z</time>
      </trkpt>
      <trkpt lat="48.91238" lon="7.51118">
        <ele>302</ele>
        <time>2021-08-08T06:41:58Z</time>
      </trkpt>
      <trkpt lat="48.91239" lon="7.51127">
        <ele>302</ele>
        <time>2021-08-08T06:41:59Z</time>
      </trkpt>
      <trkpt lat="48.91239" lon="7.51127">
        <ele>302</ele>
        <time>2021-08-08T06:42:00Z</time>
      </trkpt>
      <trkpt lat="48.9124" lon="7.51135">
        <ele>302</ele>
        <time>2021-08-08T06:42:01Z</time>
      </trkpt>
      <trkpt lat="48.9124" lon="7.51135">
        <ele>302</ele>
        <time>2021-08-08T06:42:02Z</time>
      </trkpt>
      <trkpt lat="48.9124" lon="7.51143">
        <ele>302</ele>
        <time>2021-08-08T06:42:03Z</time>
      </trkpt>
      <trkpt lat="48.9124" lon="7.51143">
        <ele>302</ele>
        <time>2021-08-08T06:42:04Z</time>
      </trkpt>
      <trkpt lat="48.91241" lon="7.51153">
        <ele>302</ele>
        <time>2021-08-08T06:42:05Z</time>
      </trkpt>
      <trkpt lat="48.91241" lon="7.51158">
        <ele>302</ele>
        <time>2021-08-08T06:42:06Z</time>
      </trkpt>
      <trkpt lat="48.91242" lon="7.51162">
        <ele>302</ele>
        <time>2021-08-08T06:42:07Z</time>
      </trkpt>
      <trkpt lat="48.91242" lon="7.51162">
        <ele>303</ele>
        <time>2021-08-08T06:42:08Z</time>
      </trkpt>
      <trkpt lat="48.91243" lon="7.51171">
        <ele>303</ele>
        <time>2021-08-08T06:42:09Z</time>
      </trkpt>
      <trkpt lat="48.91244" lon="7.51176">
        <ele>303</ele>
        <time>2021-08-08T06:42:10Z</time>
      </trkpt>
      <trkpt lat="48.91245" lon="7.51181">
        <ele>303</ele>
        <time>2021-08-08T06:42:11Z</time>
      </trkpt>
      <trkpt lat="48.91245" lon="7.51181">
        <ele>303</ele>
        <time>2021-08-08T06:42:12Z</time>
      </trkpt>
      <trkpt lat="48.91247" lon="7.51191">
        <ele>303</ele>
        <time>2021-08-08T06:42:13Z</time>
      </trkpt>
      <trkpt lat="48.91247" lon="7.51191">
        <ele>303</ele>
        <time>2021-08-08T06:42:14Z</time>
      </trkpt>
      <trkpt lat="48.91247" lon="7.51198">
        <ele>304</ele>
        <time>2021-08-08T06:42:15Z</time>
      </trkpt>
      <trkpt lat="48.91247" lon="7.51198">
        <ele>304</ele>
        <time>2021-08-08T06:42:16Z</time>
      </trkpt>
      <trkpt lat="48.91247" lon="7.51206">
        <ele>304</ele>
        <time>2021-08-08T06:42:17Z</time>
      </trkpt>
      <trkpt lat="48.91247" lon="7.51206">
        <ele>304</ele>
        <time>2021-08-08T06:42:18Z</time>
      </trkpt>
      <trkpt lat="48.91247" lon="7.51213">
        <ele>304</ele>
        <time>2021-08-08T06:42:19Z</time>
      </trkpt>
      <trkpt lat="48.91247" lon="7.51213">
        <ele>304</ele>
        <time>2021-08-08T06:42:20Z</time>
      </trkpt>
      <trkpt lat="48.91249" lon="7.5122">
        <ele>304</ele>
        <time>2021-08-08T06:42:21Z</time>
      </trkpt>
      <trkpt lat="48.91249" lon="7.5122">
        <ele>304</ele>
        <time>2021-08-08T06:42:22Z</time>
      </trkpt>
      <trkpt lat="48.9125" lon="7.51231">
        <ele>304</ele>
        <time>2021-08-08T06:42:23Z</time>
      </trkpt>
      <trkpt lat="48.9125" lon="7.51231">
        <ele>304</ele>
        <time>2021-08-08T06:42:24Z</time>
      </trkpt>
      <trkpt lat="48.91253" lon="7.51241">
        <ele>304</ele>
        <time>2021-08-08T06:42:25Z</time>
      </trkpt>
      <trkpt lat="48.91253" lon="7.51241">
        <ele>304</ele>
        <time>2021-08-08T06:42:26Z</time>
      </trkpt>
      <trkpt lat="48.91254" lon="7.51249">
        <ele>305</ele>
        <time>2021-08-08T06:42:27Z</time>
      </trkpt>
      <trkpt lat="48.91254" lon="7.51249">
        <ele>305</ele>
        <time>2021-08-08T06:42:28Z</time>
      </trkpt>
      <trkpt lat="48.91255" lon="7.5126">
        <ele>305</ele>
        <time>2021-08-08T06:42:29Z</time>
      </trkpt>
      <trkpt lat="48.91255" lon="7.5126">
        <ele>305</ele>
        <time>2021-08-08T06:42:30Z</time>
      </trkpt>
      <trkpt lat="48.91256" lon="7.51271">
        <ele>305</ele>
        <time>2021-08-08T06:42:31Z</time>
      </trkpt>
      <trkpt lat="48.91256" lon="7.51271">
        <ele>305</ele>
        <time>2021-08-08T06:42:32Z</time>
      </trkpt>
      <trkpt lat="48.91258" lon="7.51282">
        <ele>305</ele>
        <time>2021-08-08T06:42:33Z</time>
      </trkpt>
      <trkpt lat="48.91258" lon="7.51282">
        <ele>305</ele>
        <time>2021-08-08T06:42:34Z</time>
      </trkpt>
      <trkpt lat="48.91257" lon="7.51292">
        <ele>305</ele>
        <time>2021-08-08T06:42:35Z</time>
      </trkpt>
      <trkpt lat="48.91257" lon="7.51292">
        <ele>305</ele>
        <time>2021-08-08T06:42:36Z</time>
      </trkpt>
      <trkpt lat="48.91256" lon="7.51304">
        <ele>305</ele>
        <time>2021-08-08T06:42:37Z</time>
      </trkpt>
      <trkpt lat="48.91256" lon="7.51304">
        <ele>305</ele>
        <time>2021-08-08T06:42:38Z</time>
      </trkpt>
      <trkpt lat="48.91256" lon="7.51316">
        <ele>305</ele>
        <time>2021-08-08T06:42:39Z</time>
      </trkpt>
      <trkpt lat="48.91257" lon="7.51326">
        <ele>305</ele>
        <time>2021-08-08T06:42:40Z</time>
      </trkpt>
      <trkpt lat="48.9126" lon="7.51335">
        <ele>305</ele>
        <time>2021-08-08T06:42:41Z</time>
      </trkpt>
      <trkpt lat="48.9126" lon="7.51335">
        <ele>305</ele>
        <time>2021-08-08T06:42:42Z</time>
      </trkpt>
      <trkpt lat="48.91262" lon="7.51348">
        <ele>305</ele>
        <time>2021-08-08T06:42:43Z</time>
      </trkpt>
      <trkpt lat="48.91263" lon="7.51356">
        <ele>305</ele>
        <time>2021-08-08T06:42:44Z</time>
      </trkpt>
      <trkpt lat="48.91263" lon="7.51361">
        <ele>305</ele>
        <time>2021-08-08T06:42:45Z</time>
      </trkpt>
      <trkpt lat="48.91263" lon="7.51361">
        <ele>305</ele>
        <time>2021-08-08T06:42:46Z</time>
      </trkpt>
      <trkpt lat="48.91263" lon="7.51374">
        <ele>305</ele>
        <time>2021-08-08T06:42:47Z</time>
      </trkpt>
      <trkpt lat="48.91263" lon="7.51374">
        <ele>305</ele>
        <time>2021-08-08T06:42:48Z</time>
      </trkpt>
      <trkpt lat="48.91263" lon="7.51386">
        <ele>305</ele>
        <time>2021-08-08T06:42:49Z</time>
      </trkpt>
      <trkpt lat="48.91263" lon="7.51386">
        <ele>305</ele>
        <time>2021-08-08T06:42:50Z</time>
      </trkpt>
      <trkpt lat="48.91263" lon="7.51395">
        <ele>305</ele>
        <time>2021-08-08T06:42:51Z</time>
      </trkpt>
      <trkpt lat="48.91263" lon="7.51395">
        <ele>305</ele>
        <time>2021-08-08T06:42:52Z</time>
      </trkpt>
      <trkpt lat="48.91262" lon="7.51405">
        <ele>305</ele>
        <time>2021-08-08T06:42:53Z</time>
      </trkpt>
      <trkpt lat="48.91261" lon="7.5141">
        <ele>305</ele>
        <time>2021-08-08T06:42:54Z</time>
      </trkpt>
      <trkpt lat="48.9126" lon="7.51415">
        <ele>305</ele>
        <time>2021-08-08T06:42:55Z</time>
      </trkpt>
      <trkpt lat="48.9126" lon="7.51415">
        <ele>305</ele>
        <time>2021-08-08T06:42:56Z</time>
      </trkpt>
      <trkpt lat="48.91256" lon="7.51425">
        <ele>305</ele>
        <time>2021-08-08T06:42:57Z</time>
      </trkpt>
      <trkpt lat="48.91256" lon="7.51425">
        <ele>305</ele>
        <time>2021-08-08T06:42:58Z</time>
      </trkpt>
      <trkpt lat="48.91252" lon="7.51433">
        <ele>305</ele>
        <time>2021-08-08T06:42:59Z</time>
      </trkpt>
      <trkpt lat="48.91252" lon="7.51433">
        <ele>306</ele>
        <time>2021-08-08T06:43:00Z</time>
      </trkpt>
      <trkpt lat="48.91249" lon="7.5144">
        <ele>306</ele>
        <time>2021-08-08T06:43:01Z</time>
      </trkpt>
      <trkpt lat="48.91249" lon="7.5144">
        <ele>306</ele>
        <time>2021-08-08T06:43:02Z</time>
      </trkpt>
      <trkpt lat="48.91245" lon="7.51446">
        <ele>306</ele>
        <time>2021-08-08T06:43:03Z</time>
      </trkpt>
      <trkpt lat="48.91245" lon="7.51446">
        <ele>306</ele>
        <time>2021-08-08T06:43:04Z</time>
      </trkpt>
      <trkpt lat="48.91242" lon="7.51453">
        <ele>306</ele>
        <time>2021-08-08T06:43:05Z</time>
      </trkpt>
      <trkpt lat="48.9124" lon="7.51456">
        <ele>307</ele>
        <time>2021-08-08T06:43:06Z</time>
      </trkpt>
      <trkpt lat="48.9124" lon="7.51456">
        <ele>307</ele>
        <time>2021-08-08T06:43:07Z</time>
      </trkpt>
      <trkpt lat="48.91238" lon="7.51461">
        <ele>307</ele>
        <time>2021-08-08T06:43:08Z</time>
      </trkpt>
      <trkpt lat="48.91235" lon="7.51465">
        <ele>307</ele>
        <time>2021-08-08T06:43:09Z</time>
      </trkpt>
      <trkpt lat="48.91233" lon="7.51471">
        <ele>307</ele>
        <time>2021-08-08T06:43:10Z</time>
      </trkpt>
      <trkpt lat="48.91233" lon="7.51471">
        <ele>307</ele>
        <time>2021-08-08T06:43:11Z</time>
      </trkpt>
      <trkpt lat="48.91232" lon="7.51487">
        <ele>307</ele>
        <time>2021-08-08T06:43:12Z</time>
      </trkpt>
      <trkpt lat="48.91233" lon="7.51494">
        <ele>307</ele>
        <time>2021-08-08T06:43:13Z</time>
      </trkpt>
      <trkpt lat="48.91234" lon="7.515">
        <ele>306</ele>
        <time>2021-08-08T06:43:14Z</time>
      </trkpt>
      <trkpt lat="48.91234" lon="7.515">
        <ele>306</ele>
        <time>2021-08-08T06:43:15Z</time>
      </trkpt>
      <trkpt lat="48.91235" lon="7.51509">
        <ele>306</ele>
        <time>2021-08-08T06:43:16Z</time>
      </trkpt>
      <trkpt lat="48.91235" lon="7.51509">
        <ele>306</ele>
        <time>2021-08-08T06:43:17Z</time>
      </trkpt>
      <trkpt lat="48.91237" lon="7.51514">
        <ele>304</ele>
        <time>2021-08-08T06:43:18Z</time>
      </trkpt>
      <trkpt lat="48.91238" lon="7.51518">
        <ele>304</ele>
        <time>2021-08-08T06:43:19Z</time>
      </trkpt>
      <trkpt lat="48.91238" lon="7.51518">
        <ele>303</ele>
        <time>2021-08-08T06:43:20Z</time>
      </trkpt>
      <trkpt lat="48.91239" lon="7.51526">
        <ele>303</ele>
        <time>2021-08-08T06:43:21Z</time>
      </trkpt>
      <trkpt lat="48.91239" lon="7.51526">
        <ele>302</ele>
        <time>2021-08-08T06:43:22Z</time>
      </trkpt>
      <trkpt lat="48.91241" lon="7.51536">
        <ele>302</ele>
        <time>2021-08-08T06:43:23Z</time>
      </trkpt>
      <trkpt lat="48.91242" lon="7.51539">
        <ele>302</ele>
        <time>2021-08-08T06:43:24Z</time>
      </trkpt>
      <trkpt lat="48.91243" lon="7.51544">
        <ele>302</ele>
        <time>2021-08-08T06:43:25Z</time>
      </trkpt>
      <trkpt lat="48.91243" lon="7.51544">
        <ele>301</ele>
        <time>2021-08-08T06:43:26Z</time>
      </trkpt>
      <trkpt lat="48.91244" lon="7.51553">
        <ele>301</ele>
        <time>2021-08-08T06:43:27Z</time>
      </trkpt>
      <trkpt lat="48.91244" lon="7.51553">
        <ele>301</ele>
        <time>2021-08-08T06:43:28Z</time>
      </trkpt>
      <trkpt lat="48.91244" lon="7.5156">
        <ele>301</ele>
        <time>2021-08-08T06:43:29Z</time>
      </trkpt>
      <trkpt lat="48.91244" lon="7.5156">
        <ele>300</ele>
        <time>2021-08-08T06:43:30Z</time>
      </trkpt>
      <trkpt lat="48.91244" lon="7.5157">
        <ele>300</ele>
        <time>2021-08-08T06:43:31Z</time>
      </trkpt>
      <trkpt lat="48.91244" lon="7.5157">
        <ele>299</ele>
        <time>2021-08-08T06:43:32Z</time>
      </trkpt>
      <trkpt lat="48.91244" lon="7.51577">
        <ele>299</ele>
        <time>2021-08-08T06:43:33Z</time>
      </trkpt>
      <trkpt lat="48.91244" lon="7.51577">
        <ele>298</ele>
        <time>2021-08-08T06:43:34Z</time>
      </trkpt>
      <trkpt lat="48.91241" lon="7.51582">
        <ele>298</ele>
        <time>2021-08-08T06:43:35Z</time>
      </trkpt>
      <trkpt lat="48.91241" lon="7.51582">
        <ele>297</ele>
        <time>2021-08-08T06:43:36Z</time>
      </trkpt>
      <trkpt lat="48.91239" lon="7.51582">
        <ele>297</ele>
        <time>2021-08-08T06:43:37Z</time>
      </trkpt>
      <trkpt lat="48.91239" lon="7.51582">
        <ele>297</ele>
        <time>2021-08-08T06:43:38Z</time>
      </trkpt>
      <trkpt lat="48.91235" lon="7.5158">
        <ele>297</ele>
        <time>2021-08-08T06:43:39Z</time>
      </trkpt>
      <trkpt lat="48.91235" lon="7.5158">
        <ele>297</ele>
        <time>2021-08-08T06:43:40Z</time>
      </trkpt>
      <trkpt lat="48.91232" lon="7.51577">
        <ele>297</ele>
        <time>2021-08-08T06:43:41Z</time>
      </trkpt>
      <trkpt lat="48.91232" lon="7.51577">
        <ele>296</ele>
        <time>2021-08-08T06:43:42Z</time>
      </trkpt>
      <trkpt lat="48.9123" lon="7.51576">
        <ele>296</ele>
        <time>2021-08-08T06:43:43Z</time>
      </trkpt>
      <trkpt lat="48.9123" lon="7.51576">
        <ele>296</ele>
        <time>2021-08-08T06:43:44Z</time>
      </trkpt>
      <trkpt lat="48.91225" lon="7.51575">
        <ele>296</ele>
        <time>2021-08-08T06:43:45Z</time>
      </trkpt>
      <trkpt lat="48.91225" lon="7.51575">
        <ele>296</ele>
        <time>2021-08-08T06:43:46Z</time>
      </trkpt>
      <trkpt lat="48.9122" lon="7.51574">
        <ele>296</ele>
        <time>2021-08-08T06:43:47Z</time>
      </trkpt>
      <trkpt lat="48.9122" lon="7.51574">
        <ele>296</ele>
        <time>2021-08-08T06:43:48Z</time>
      </trkpt>
      <trkpt lat="48.91212" lon="7.51573">
        <ele>296</ele>
        <time>2021-08-08T06:43:49Z</time>
      </trkpt>
      <trkpt lat="48.91212" lon="7.51573">
        <ele>296</ele>
        <time>2021-08-08T06:43:50Z</time>
      </trkpt>
      <trkpt lat="48.91204" lon="7.5157">
        <ele>296</ele>
        <time>2021-08-08T06:43:51Z</time>
      </trkpt>
      <trkpt lat="48.91204" lon="7.5157">
        <ele>296</ele>
        <time>2021-08-08T06:43:52Z</time>
      </trkpt>
      <trkpt lat="48.91198" lon="7.51567">
        <ele>295</ele>
        <time>2021-08-08T06:43:53Z</time>
      </trkpt>
      <trkpt lat="48.91195" lon="7.51565">
        <ele>295</ele>
        <time>2021-08-08T06:43:54Z</time>
      </trkpt>
      <trkpt lat="48.91195" lon="7.51565">
        <ele>295</ele>
        <time>2021-08-08T06:43:55Z</time>
      </trkpt>
      <trkpt lat="48.91186" lon="7.51563">
        <ele>295</ele>
        <time>2021-08-08T06:43:56Z</time>
      </trkpt>
      <trkpt lat="48.91183" lon="7.51561">
        <ele>294</ele>
        <time>2021-08-08T06:43:57Z</time>
      </trkpt>
      <trkpt lat="48.91183" lon="7.51561">
        <ele>294</ele>
        <time>2021-08-08T06:43:58Z</time>
      </trkpt>
      <trkpt lat="48.91178" lon="7.51557">
        <ele>294</ele>
        <time>2021-08-08T06:43:59Z</time>
      </trkpt>
      <trkpt lat="48.91178" lon="7.51557">
        <ele>294</ele>
        <time>2021-08-08T06:44:00Z</time>
      </trkpt>
      <trkpt lat="48.91172" lon="7.51556">
        <ele>294</ele>
        <time>2021-08-08T06:44:01Z</time>
      </trkpt>
      <trkpt lat="48.91172" lon="7.51556">
        <ele>294</ele>
        <time>2021-08-08T06:44:02Z</time>
      </trkpt>
      <trkpt lat="48.91167" lon="7.51554">
        <ele>294</ele>
        <time>2021-08-08T06:44:03Z</time>
      </trkpt>
      <trkpt lat="48.91167" lon="7.51554">
        <ele>294</ele>
        <time>2021-08-08T06:44:04Z</time>
      </trkpt>
      <trkpt lat="48.91163" lon="7.51554">
        <ele>293</ele>
        <time>2021-08-08T06:44:05Z</time>
      </trkpt>
      <trkpt lat="48.9116" lon="7.51553">
        <ele>293</ele>
        <time>2021-08-08T06:44:06Z</time>
      </trkpt>
      <trkpt lat="48.9116" lon="7.51553">
        <ele>291</ele>
        <time>2021-08-08T06:44:07Z</time>
      </trkpt>
      <trkpt lat="48.91152" lon="7.51552">
        <ele>291</ele>
        <time>2021-08-08T06:44:08Z</time>
      </trkpt>
      <trkpt lat="48.91147" lon="7.51552">
        <ele>289</ele>
        <time>2021-08-08T06:44:09Z</time>
      </trkpt>
      <trkpt lat="48.91147" lon="7.51552">
        <ele>289</ele>
        <time>2021-08-08T06:44:10Z</time>
      </trkpt>
      <trkpt lat="48.91136" lon="7.51556">
        <ele>288</ele>
        <time>2021-08-08T06:44:11Z</time>
      </trkpt>
      <trkpt lat="48.91136" lon="7.51556">
        <ele>288</ele>
        <time>2021-08-08T06:44:12Z</time>
      </trkpt>
      <trkpt lat="48.91126" lon="7.51561">
        <ele>287</ele>
        <time>2021-08-08T06:44:13Z</time>
      </trkpt>
      <trkpt lat="48.91126" lon="7.51561">
        <ele>287</ele>
        <time>2021-08-08T06:44:14Z</time>
      </trkpt>
      <trkpt lat="48.91115" lon="7.51572">
        <ele>286</ele>
        <time>2021-08-08T06:44:15Z</time>
      </trkpt>
      <trkpt lat="48.9111" lon="7.51577">
        <ele>286</ele>
        <time>2021-08-08T06:44:16Z</time>
      </trkpt>
      <trkpt lat="48.9111" lon="7.51577">
        <ele>286</ele>
        <time>2021-08-08T06:44:17Z</time>
      </trkpt>
      <trkpt lat="48.91102" lon="7.51587">
        <ele>286</ele>
        <time>2021-08-08T06:44:18Z</time>
      </trkpt>
      <trkpt lat="48.91097" lon="7.51594">
        <ele>285</ele>
        <time>2021-08-08T06:44:19Z</time>
      </trkpt>
      <trkpt lat="48.91097" lon="7.51594">
        <ele>285</ele>
        <time>2021-08-08T06:44:20Z</time>
      </trkpt>
      <trkpt lat="48.9109" lon="7.51605">
        <ele>285</ele>
        <time>2021-08-08T06:44:21Z</time>
      </trkpt>
      <trkpt lat="48.9109" lon="7.51605">
        <ele>285</ele>
        <time>2021-08-08T06:44:22Z</time>
      </trkpt>
      <trkpt lat="48.91081" lon="7.51616">
        <ele>284</ele>
        <time>2021-08-08T06:44:23Z</time>
      </trkpt>
      <trkpt lat="48.91081" lon="7.51616">
        <ele>284</ele>
        <time>2021-08-08T06:44:24Z</time>
      </trkpt>
      <trkpt lat="48.91073" lon="7.51629">
        <ele>283</ele>
        <time>2021-08-08T06:44:25Z</time>
      </trkpt>
      <trkpt lat="48.91073" lon="7.51629">
        <ele>283</ele>
        <time>2021-08-08T06:44:26Z</time>
      </trkpt>
      <trkpt lat="48.91065" lon="7.51643">
        <ele>282</ele>
        <time>2021-08-08T06:44:27Z</time>
      </trkpt>
      <trkpt lat="48.91065" lon="7.51643">
        <ele>282</ele>
        <time>2021-08-08T06:44:28Z</time>
      </trkpt>
      <trkpt lat="48.91062" lon="7.51659">
        <ele>282</ele>
        <time>2021-08-08T06:44:29Z</time>
      </trkpt>
      <trkpt lat="48.9106" lon="7.51666">
        <ele>282</ele>
        <time>2021-08-08T06:44:30Z</time>
      </trkpt>
      <trkpt lat="48.91059" lon="7.51673">
        <ele>282</ele>
        <time>2021-08-08T06:44:31Z</time>
      </trkpt>
      <trkpt lat="48.91059" lon="7.51673">
        <ele>282</ele>
        <time>2021-08-08T06:44:32Z</time>
      </trkpt>
      <trkpt lat="48.91057" lon="7.51687">
        <ele>280</ele>
        <time>2021-08-08T06:44:33Z</time>
      </trkpt>
      <trkpt lat="48.91057" lon="7.51687">
        <ele>280</ele>
        <time>2021-08-08T06:44:34Z</time>
      </trkpt>
      <trkpt lat="48.91055" lon="7.51706">
        <ele>280</ele>
        <time>2021-08-08T06:44:35Z</time>
      </trkpt>
      <trkpt lat="48.91057" lon="7.51716">
        <ele>280</ele>
        <time>2021-08-08T06:44:36Z</time>
      </trkpt>
      <trkpt lat="48.91057" lon="7.51727">
        <ele>279</ele>
        <time>2021-08-08T06:44:37Z</time>
      </trkpt>
      <trkpt lat="48.91057" lon="7.51727">
        <ele>278</ele>
        <time>2021-08-08T06:44:38Z</time>
      </trkpt>
      <trkpt lat="48.91058" lon="7.51744">
        <ele>278</ele>
        <time>2021-08-08T06:44:39Z</time>
      </trkpt>
      <trkpt lat="48.91058" lon="7.51744">
        <ele>276</ele>
        <time>2021-08-08T06:44:40Z</time>
      </trkpt>
      <trkpt lat="48.91064" lon="7.51763">
        <ele>276</ele>
        <time>2021-08-08T06:44:41Z</time>
      </trkpt>
      <trkpt lat="48.91064" lon="7.51763">
        <ele>275</ele>
        <time>2021-08-08T06:44:42Z</time>
      </trkpt>
      <trkpt lat="48.91066" lon="7.51779">
        <ele>275</ele>
        <time>2021-08-08T06:44:43Z</time>
      </trkpt>
      <trkpt lat="48.91066" lon="7.51779">
        <ele>274</ele>
        <time>2021-08-08T06:44:44Z</time>
      </trkpt>
      <trkpt lat="48.91067" lon="7.51799">
        <ele>274</ele>
        <time>2021-08-08T06:44:45Z</time>
      </trkpt>
      <trkpt lat="48.91067" lon="7.51799">
        <ele>273</ele>
        <time>2021-08-08T06:44:46Z</time>
      </trkpt>
      <trkpt lat="48.91074" lon="7.51823">
        <ele>273</ele>
        <time>2021-08-08T06:44:47Z</time>
      </trkpt>
      <trkpt lat="48.91074" lon="7.51823">
        <ele>271</ele>
        <time>2021-08-08T06:44:48Z</time>
      </trkpt>
      <trkpt lat="48.91076" lon="7.5184">
        <ele>271</ele>
        <time>2021-08-08T06:44:49Z</time>
      </trkpt>
      <trkpt lat="48.91076" lon="7.5184">
        <ele>269</ele>
        <time>2021-08-08T06:44:50Z</time>
      </trkpt>
      <trkpt lat="48.91077" lon="7.51857">
        <ele>269</ele>
        <time>2021-08-08T06:44:51Z</time>
      </trkpt>
      <trkpt lat="48.91077" lon="7.51857">
        <ele>267</ele>
        <time>2021-08-08T06:44:52Z</time>
      </trkpt>
      <trkpt lat="48.91077" lon="7.51869">
        <ele>267</ele>
        <time>2021-08-08T06:44:53Z</time>
      </trkpt>
      <trkpt lat="48.91077" lon="7.51875">
        <ele>267</ele>
        <time>2021-08-08T06:44:54Z</time>
      </trkpt>
      <trkpt lat="48.91077" lon="7.51875">
        <ele>265</ele>
        <time>2021-08-08T06:44:55Z</time>
      </trkpt>
      <trkpt lat="48.91076" lon="7.51886">
        <ele>265</ele>
        <time>2021-08-08T06:44:56Z</time>
      </trkpt>
      <trkpt lat="48.91076" lon="7.51891">
        <ele>265</ele>
        <time>2021-08-08T06:44:57Z</time>
      </trkpt>
      <trkpt lat="48.91076" lon="7.51891">
        <ele>262</ele>
        <time>2021-08-08T06:44:58Z</time>
      </trkpt>
      <trkpt lat="48.9108" lon="7.51908">
        <ele>262</ele>
        <time>2021-08-08T06:44:59Z</time>
      </trkpt>
      <trkpt lat="48.9108" lon="7.51908">
        <ele>260</ele>
        <time>2021-08-08T06:45:00Z</time>
      </trkpt>
      <trkpt lat="48.9108" lon="7.51924">
        <ele>260</ele>
        <time>2021-08-08T06:45:01Z</time>
      </trkpt>
      <trkpt lat="48.9108" lon="7.51924">
        <ele>258</ele>
        <time>2021-08-08T06:45:02Z</time>
      </trkpt>
      <trkpt lat="48.91083" lon="7.51941">
        <ele>258</ele>
        <time>2021-08-08T06:45:03Z</time>
      </trkpt>
      <trkpt lat="48.91083" lon="7.51941">
        <ele>257</ele>
        <time>2021-08-08T06:45:04Z</time>
      </trkpt>
      <trkpt lat="48.91083" lon="7.5196">
        <ele>257</ele>
        <time>2021-08-08T06:45:05Z</time>
      </trkpt>
      <trkpt lat="48.91083" lon="7.5196">
        <ele>255</ele>
        <time>2021-08-08T06:45:06Z</time>
      </trkpt>
      <trkpt lat="48.91081" lon="7.51977">
        <ele>255</ele>
        <time>2021-08-08T06:45:07Z</time>
      </trkpt>
      <trkpt lat="48.91081" lon="7.51977">
        <ele>254</ele>
        <time>2021-08-08T06:45:08Z</time>
      </trkpt>
      <trkpt lat="48.91082" lon="7.51993">
        <ele>254</ele>
        <time>2021-08-08T06:45:09Z</time>
      </trkpt>
      <trkpt lat="48.91082" lon="7.51993">
        <ele>252</ele>
        <time>2021-08-08T06:45:10Z</time>
      </trkpt>
      <trkpt lat="48.91084" lon="7.52009">
        <ele>252</ele>
        <time>2021-08-08T06:45:11Z</time>
      </trkpt>
      <trkpt lat="48.91084" lon="7.52009">
        <ele>251</ele>
        <time>2021-08-08T06:45:12Z</time>
      </trkpt>
      <trkpt lat="48.9109" lon="7.52028">
        <ele>251</ele>
        <time>2021-08-08T06:45:13Z</time>
      </trkpt>
      <trkpt lat="48.9109" lon="7.52028">
        <ele>249</ele>
        <time>2021-08-08T06:45:14Z</time>
      </trkpt>
      <trkpt lat="48.91094" lon="7.52045">
        <ele>249</ele>
        <time>2021-08-08T06:45:15Z</time>
      </trkpt>
      <trkpt lat="48.91094" lon="7.52045">
        <ele>247</ele>
        <time>2021-08-08T06:45:16Z</time>
      </trkpt>
      <trkpt lat="48.91095" lon="7.52063">
        <ele>247</ele>
        <time>2021-08-08T06:45:17Z</time>
      </trkpt>
      <trkpt lat="48.91095" lon="7.52063">
        <ele>244</ele>
        <time>2021-08-08T06:45:18Z</time>
      </trkpt>
      <trkpt lat="48.91098" lon="7.52081">
        <ele>244</ele>
        <time>2021-08-08T06:45:19Z</time>
      </trkpt>
      <trkpt lat="48.91098" lon="7.52081">
        <ele>242</ele>
        <time>2021-08-08T06:45:20Z</time>
      </trkpt>
      <trkpt lat="48.91099" lon="7.52101">
        <ele>242</ele>
        <time>2021-08-08T06:45:21Z</time>
      </trkpt>
      <trkpt lat="48.91099" lon="7.52101">
        <ele>241</ele>
        <time>2021-08-08T06:45:22Z</time>
      </trkpt>
      <trkpt lat="48.91104" lon="7.52118">
        <ele>241</ele>
        <time>2021-08-08T06:45:23Z</time>
      </trkpt>
      <trkpt lat="48.91104" lon="7.52118">
        <ele>239</ele>
        <time>2021-08-08T06:45:24Z</time>
      </trkpt>
      <trkpt lat="48.91112" lon="7.52135">
        <ele>239</ele>
        <time>2021-08-08T06:45:25Z</time>
      </trkpt>
      <trkpt lat="48.91112" lon="7.52135">
        <ele>237</ele>
        <time>2021-08-08T06:45:26Z</time>
      </trkpt>
      <trkpt lat="48.91118" lon="7.52149">
        <ele>237</ele>
        <time>2021-08-08T06:45:27Z</time>
      </trkpt>
      <trkpt lat="48.91123" lon="7.52155">
        <ele>234</ele>
        <time>2021-08-08T06:45:28Z</time>
      </trkpt>
      <trkpt lat="48.91123" lon="7.52155">
        <ele>234</ele>
        <time>2021-08-08T06:45:29Z</time>
      </trkpt>
      <trkpt lat="48.91131" lon="7.52168">
        <ele>232</ele>
        <time>2021-08-08T06:45:30Z</time>
      </trkpt>
      <trkpt lat="48.91131" lon="7.52168">
        <ele>232</ele>
        <time>2021-08-08T06:45:31Z</time>
      </trkpt>
      <trkpt lat="48.91135" lon="7.52183">
        <ele>230</ele>
        <time>2021-08-08T06:45:32Z</time>
      </trkpt>
      <trkpt lat="48.91137" lon="7.52188">
        <ele>230</ele>
        <time>2021-08-08T06:45:33Z</time>
      </trkpt>
      <trkpt lat="48.91137" lon="7.52188">
        <ele>228</ele>
        <time>2021-08-08T06:45:34Z</time>
      </trkpt>
      <trkpt lat="48.9114" lon="7.52197">
        <ele>227</ele>
        <time>2021-08-08T06:45:35Z</time>
      </trkpt>
      <trkpt lat="48.9114" lon="7.52197">
        <ele>227</ele>
        <time>2021-08-08T06:45:36Z</time>
      </trkpt>
      <trkpt lat="48.91142" lon="7.52205">
        <ele>226</ele>
        <time>2021-08-08T06:45:37Z</time>
      </trkpt>
      <trkpt lat="48.91142" lon="7.52205">
        <ele>226</ele>
        <time>2021-08-08T06:45:38Z</time>
      </trkpt>
      <trkpt lat="48.9114" lon="7.52213">
        <ele>225</ele>
        <time>2021-08-08T06:45:39Z</time>
      </trkpt>
      <trkpt lat="48.9114" lon="7.52213">
        <ele>225</ele>
        <time>2021-08-08T06:45:40Z</time>
      </trkpt>
      <trkpt lat="48.91139" lon="7.5222">
        <ele>224</ele>
        <time>2021-08-08T06:45:41Z</time>
      </trkpt>
      <trkpt lat="48.91137" lon="7.52223">
        <ele>224</ele>
        <time>2021-08-08T06:45:42Z</time>
      </trkpt>
      <trkpt lat="48.91137" lon="7.52223">
        <ele>224</ele>
        <time>2021-08-08T06:45:43Z</time>
      </trkpt>
      <trkpt lat="48.91133" lon="7.52228">
        <ele>224</ele>
        <time>2021-08-08T06:45:44Z</time>
      </trkpt>
      <trkpt lat="48.9113" lon="7.5223">
        <ele>223</ele>
        <time>2021-08-08T06:45:45Z</time>
      </trkpt>
      <trkpt lat="48.9113" lon="7.5223">
        <ele>223</ele>
        <time>2021-08-08T06:45:46Z</time>
      </trkpt>
      <trkpt lat="48.91126" lon="7.52236">
        <ele>223</ele>
        <time>2021-08-08T06:45:47Z</time>
      </trkpt>
      <trkpt lat="48.91126" lon="7.52236">
        <ele>223</ele>
        <time>2021-08-08T06:45:48Z</time>
      </trkpt>
      <trkpt lat="48.91121" lon="7.52241">
        <ele>222</ele>
        <time>2021-08-08T06:45:49Z</time>
      </trkpt>
      <trkpt lat="48.91121" lon="7.52241">
        <ele>222</ele>
        <time>2021-08-08T06:45:50Z</time>
      </trkpt>
      <trkpt lat="48.91119" lon="7.5225">
        <ele>222</ele>
        <time>2021-08-08T06:45:51Z</time>
      </trkpt>
      <trkpt lat="48.91119" lon="7.5225">
        <ele>222</ele>
        <time>2021-08-08T06:45:52Z</time>
      </trkpt>
      <trkpt lat="48.91115" lon="7.52253">
        <ele>221</ele>
        <time>2021-08-08T06:45:53Z</time>
      </trkpt>
      <trkpt lat="48.91115" lon="7.52253">
        <ele>221</ele>
        <time>2021-08-08T06:45:54Z</time>
      </trkpt>
      <trkpt lat="48.91109" lon="7.52248">
        <ele>221</ele>
        <time>2021-08-08T06:45:55Z</time>
      </trkpt>
      <trkpt lat="48.91109" lon="7.52248">
        <ele>221</ele>
        <time>2021-08-08T06:45:56Z</time>
      </trkpt>
      <trkpt lat="48.91106" lon="7.5224">
        <ele>220</ele>
        <time>2021-08-08T06:45:57Z</time>
      </trkpt>
      <trkpt lat="48.91106" lon="7.5224">
        <ele>220</ele>
        <time>2021-08-08T06:45:58Z</time>
      </trkpt>
      <trkpt lat="48.91101" lon="7.52225">
        <ele>219</ele>
        <time>2021-08-08T06:45:59Z</time>
      </trkpt>
      <trkpt lat="48.91101" lon="7.52225">
        <ele>219</ele>
        <time>2021-08-08T06:46:00Z</time>
      </trkpt>
      <trkpt lat="48.91096" lon="7.52212">
        <ele>218</ele>
        <time>2021-08-08T06:46:01Z</time>
      </trkpt>
      <trkpt lat="48.91096" lon="7.52212">
        <ele>218</ele>
        <time>2021-08-08T06:46:02Z</time>
      </trkpt>
      <trkpt lat="48.9109" lon="7.522">
        <ele>217</ele>
        <time>2021-08-08T06:46:03Z</time>
      </trkpt>
      <trkpt lat="48.9109" lon="7.522">
        <ele>217</ele>
        <time>2021-08-08T06:46:04Z</time>
      </trkpt>
      <trkpt lat="48.91078" lon="7.52191">
        <ele>216</ele>
        <time>2021-08-08T06:46:05Z</time>
      </trkpt>
      <trkpt lat="48.91078" lon="7.52191">
        <ele>216</ele>
        <time>2021-08-08T06:46:06Z</time>
      </trkpt>
      <trkpt lat="48.91067" lon="7.52199">
        <ele>216</ele>
        <time>2021-08-08T06:46:07Z</time>
      </trkpt>
      <trkpt lat="48.91067" lon="7.52199">
        <ele>216</ele>
        <time>2021-08-08T06:46:08Z</time>
      </trkpt>
      <trkpt lat="48.91061" lon="7.52213">
        <ele>215</ele>
        <time>2021-08-08T06:46:09Z</time>
      </trkpt>
      <trkpt lat="48.91061" lon="7.52213">
        <ele>215</ele>
        <time>2021-08-08T06:46:10Z</time>
      </trkpt>
      <trkpt lat="48.91056" lon="7.52228">
        <ele>213</ele>
        <time>2021-08-08T06:46:11Z</time>
      </trkpt>
      <trkpt lat="48.91056" lon="7.52228">
        <ele>213</ele>
        <time>2021-08-08T06:46:12Z</time>
      </trkpt>
      <trkpt lat="48.91052" lon="7.52245">
        <ele>212</ele>
        <time>2021-08-08T06:46:13Z</time>
      </trkpt>
      <trkpt lat="48.91052" lon="7.52245">
        <ele>212</ele>
        <time>2021-08-08T06:46:14Z</time>
      </trkpt>
      <trkpt lat="48.91046" lon="7.52258">
        <ele>211</ele>
        <time>2021-08-08T06:46:15Z</time>
      </trkpt>
      <trkpt lat="48.91046" lon="7.52258">
        <ele>211</ele>
        <time>2021-08-08T06:46:16Z</time>
      </trkpt>
      <trkpt lat="48.91035" lon="7.52266">
        <ele>210</ele>
        <time>2021-08-08T06:46:17Z</time>
      </trkpt>
      <trkpt lat="48.91035" lon="7.52266">
        <ele>210</ele>
        <time>2021-08-08T06:46:18Z</time>
      </trkpt>
      <trkpt lat="48.91025" lon="7.52277">
        <ele>209</ele>
        <time>2021-08-08T06:46:19Z</time>
      </trkpt>
      <trkpt lat="48.91025" lon="7.52277">
        <ele>209</ele>
        <time>2021-08-08T06:46:20Z</time>
      </trkpt>
      <trkpt lat="48.91021" lon="7.5229">
        <ele>208</ele>
        <time>2021-08-08T06:46:21Z</time>
      </trkpt>
      <trkpt lat="48.91021" lon="7.5229">
        <ele>208</ele>
        <time>2021-08-08T06:46:22Z</time>
      </trkpt>
      <trkpt lat="48.91018" lon="7.52304">
        <ele>207</ele>
        <time>2021-08-08T06:46:23Z</time>
      </trkpt>
      <trkpt lat="48.91018" lon="7.52304">
        <ele>207</ele>
        <time>2021-08-08T06:46:24Z</time>
      </trkpt>
      <trkpt lat="48.91022" lon="7.52323">
        <ele>207</ele>
        <time>2021-08-08T06:46:25Z</time>
      </trkpt>
      <trkpt lat="48.91026" lon="7.52331">
        <ele>207</ele>
        <time>2021-08-08T06:46:26Z</time>
      </trkpt>
      <trkpt lat="48.91026" lon="7.52331">
        <ele>206</ele>
        <time>2021-08-08T06:46:27Z</time>
      </trkpt>
      <trkpt lat="48.91035" lon="7.52351">
        <ele>206</ele>
        <time>2021-08-08T06:46:28Z</time>
      </trkpt>
      <trkpt lat="48.91037" lon="7.52358">
        <ele>205</ele>
        <time>2021-08-08T06:46:29Z</time>
      </trkpt>
      <trkpt lat="48.91037" lon="7.52358">
        <ele>205</ele>
        <time>2021-08-08T06:46:30Z</time>
      </trkpt>
      <trkpt lat="48.91038" lon="7.52372">
        <ele>205</ele>
        <time>2021-08-08T06:46:31Z</time>
      </trkpt>
      <trkpt lat="48.91038" lon="7.52372">
        <ele>203</ele>
        <time>2021-08-08T06:46:32Z</time>
      </trkpt>
      <trkpt lat="48.91031" lon="7.52386">
        <ele>203</ele>
        <time>2021-08-08T06:46:33Z</time>
      </trkpt>
      <trkpt lat="48.91031" lon="7.52386">
        <ele>202</ele>
        <time>2021-08-08T06:46:34Z</time>
      </trkpt>
      <trkpt lat="48.91023" lon="7.52395">
        <ele>202</ele>
        <time>2021-08-08T06:46:35Z</time>
      </trkpt>
      <trkpt lat="48.91023" lon="7.52395">
        <ele>201</ele>
        <time>2021-08-08T06:46:36Z</time>
      </trkpt>
      <trkpt lat="48.91011" lon="7.52409">
        <ele>201</ele>
        <time>2021-08-08T06:46:37Z</time>
      </trkpt>
      <trkpt lat="48.91011" lon="7.52409">
        <ele>200</ele>
        <time>2021-08-08T06:46:38Z</time>
      </trkpt>
      <trkpt lat="48.90997" lon="7.52424">
        <ele>200</ele>
        <time>2021-08-08T06:46:39Z</time>
      </trkpt>
      <trkpt lat="48.90997" lon="7.52424">
        <ele>199</ele>
        <time>2021-08-08T06:46:40Z</time>
      </trkpt>
      <trkpt lat="48.90984" lon="7.52438">
        <ele>199</ele>
        <time>2021-08-08T06:46:41Z</time>
      </trkpt>
      <trkpt lat="48.90984" lon="7.52438">
        <ele>198</ele>
        <time>2021-08-08T06:46:42Z</time>
      </trkpt>
      <trkpt lat="48.90971" lon="7.5245">
        <ele>198</ele>
        <time>2021-08-08T06:46:43Z</time>
      </trkpt>
      <trkpt lat="48.90971" lon="7.5245">
        <ele>197</ele>
        <time>2021-08-08T06:46:44Z</time>
      </trkpt>
      <trkpt lat="48.90958" lon="7.52465">
        <ele>197</ele>
        <time>2021-08-08T06:46:45Z</time>
      </trkpt>
      <trkpt lat="48.90958" lon="7.52465">
        <ele>196</ele>
        <time>2021-08-08T06:46:46Z</time>
      </trkpt>
      <trkpt lat="48.90947" lon="7.52483">
        <ele>196</ele>
        <time>2021-08-08T06:46:47Z</time>
      </trkpt>
      <trkpt lat="48.90947" lon="7.52483">
        <ele>194</ele>
        <time>2021-08-08T06:46:48Z</time>
      </trkpt>
      <trkpt lat="48.90938" lon="7.52497">
        <ele>194</ele>
        <time>2021-08-08T06:46:49Z</time>
      </trkpt>
      <trkpt lat="48.90938" lon="7.52497">
        <ele>193</ele>
        <time>2021-08-08T06:46:50Z</time>
      </trkpt>
      <trkpt lat="48.9093" lon="7.52513">
        <ele>193</ele>
        <time>2021-08-08T06:46:51Z</time>
      </trkpt>
      <trkpt lat="48.9093" lon="7.52513">
        <ele>192</ele>
        <time>2021-08-08T06:46:52Z</time>
      </trkpt>
      <trkpt lat="48.90919" lon="7.52532">
        <ele>192</ele>
        <time>2021-08-08T06:46:53Z</time>
      </trkpt>
      <trkpt lat="48.90919" lon="7.52532">
        <ele>191</ele>
        <time>2021-08-08T06:46:54Z</time>
      </trkpt>
      <trkpt lat="48.90909" lon="7.52553">
        <ele>191</ele>
        <time>2021-08-08T06:46:55Z</time>
      </trkpt>
      <trkpt lat="48.90909" lon="7.52553">
        <ele>189</ele>
        <time>2021-08-08T06:46:56Z</time>
      </trkpt>
      <trkpt lat="48.909" lon="7.52572">
        <ele>189</ele>
        <time>2021-08-08T06:46:57Z</time>
      </trkpt>
      <trkpt lat="48.909" lon="7.52572">
        <ele>188</ele>
        <time>2021-08-08T06:46:58Z</time>
      </trkpt>
      <trkpt lat="48.90893" lon="7.52588">
        <ele>188</ele>
        <time>2021-08-08T06:46:59Z</time>
      </trkpt>
      <trkpt lat="48.90889" lon="7.52598">
        <ele>186</ele>
        <time>2021-08-08T06:47:00Z</time>
      </trkpt>
      <trkpt lat="48.90885" lon="7.52607">
        <ele>186</ele>
        <time>2021-08-08T06:47:01Z</time>
      </trkpt>
      <trkpt lat="48.90885" lon="7.52607">
        <ele>185</ele>
        <time>2021-08-08T06:47:02Z</time>
      </trkpt>
      <trkpt lat="48.90878" lon="7.52622">
        <ele>185</ele>
        <time>2021-08-08T06:47:03Z</time>
      </trkpt>
      <trkpt lat="48.90878" lon="7.52622">
        <ele>183</ele>
        <time>2021-08-08T06:47:04Z</time>
      </trkpt>
      <trkpt lat="48.90874" lon="7.52633">
        <ele>183</ele>
        <time>2021-08-08T06:47:05Z</time>
      </trkpt>
      <trkpt lat="48.90874" lon="7.52633">
        <ele>182</ele>
        <time>2021-08-08T06:47:06Z</time>
      </trkpt>
      <trkpt lat="48.90872" lon="7.52643">
        <ele>182</ele>
        <time>2021-08-08T06:47:07Z</time>
      </trkpt>
      <trkpt lat="48.90872" lon="7.52643">
        <ele>181</ele>
        <time>2021-08-08T06:47:08Z</time>
      </trkpt>
      <trkpt lat="48.90868" lon="7.52651">
        <ele>181</ele>
        <time>2021-08-08T06:47:09Z</time>
      </trkpt>
      <trkpt lat="48.90868" lon="7.52651">
        <ele>180</ele>
        <time>2021-08-08T06:47:10Z</time>
      </trkpt>
      <trkpt lat="48.90869" lon="7.52653">
        <ele>180</ele>
        <time>2021-08-08T06:47:11Z</time>
      </trkpt>
      <trkpt lat="48.90869" lon="7.52653">
        <ele>179</ele>
        <time>2021-08-08T06:47:12Z</time>
      </trkpt>
      <trkpt lat="48.90868" lon="7.52653">
        <ele>179</ele>
        <time>2021-08-08T06:47:13Z</time>
      </trkpt>
      <trkpt lat="48.90868" lon="7.52653">
        <ele>179</ele>
        <time>2021-08-08T06:47:14Z</time>
      </trkpt>
      <trkpt lat="48.90867" lon="7.52652">
        <ele>179</ele>
        <time>2021-08-08T06:47:15Z</time>
      </trkpt>
      <trkpt lat="48.90867" lon="7.52652">
        <ele>178</ele>
        <time>2021-08-08T06:47:16Z</time>
      </trkpt>
      <trkpt lat="48.90867" lon="7.52652">
        <ele>178</ele>
        <time>2021-08-08T06:47:17Z</time>
      </trkpt>
      <trkpt lat="48.90867" lon="7.52652">
        <ele>178</ele>
        <time>2021-08-08T06:47:19Z</time>
      </trkpt>
      <trkpt lat="48.90867" lon="7.52652">
        <ele>178</ele>
        <time>2021-08-08T06:47:20Z</time>
      </trkpt>
      <trkpt lat="48.90875" lon="7.52649">
        <ele>178</ele>
        <time>2021-08-08T06:47:21Z</time>
      </trkpt>
      <trkpt lat="48.90875" lon="7.52649">
        <ele>178</ele>
        <time>2021-08-08T06:47:22Z</time>
      </trkpt>
      <trkpt lat="48.90881" lon="7.52645">
        <ele>178</ele>
        <time>2021-08-08T06:47:23Z</time>
      </trkpt>
      <trkpt lat="48.90881" lon="7.52645">
        <ele>178</ele>
        <time>2021-08-08T06:47:24Z</time>
      </trkpt>
      <trkpt lat="48.90885" lon="7.52639">
        <ele>178</ele>
        <time>2021-08-08T06:47:25Z</time>
      </trkpt>
      <trkpt lat="48.90885" lon="7.52639">
        <ele>177</ele>
        <time>2021-08-08T06:47:26Z</time>
      </trkpt>
      <trkpt lat="48.90891" lon="7.52633">
        <ele>177</ele>
        <time>2021-08-08T06:47:27Z</time>
      </trkpt>
      <trkpt lat="48.90891" lon="7.52633">
        <ele>177</ele>
        <time>2021-08-08T06:47:28Z</time>
      </trkpt>
      <trkpt lat="48.90898" lon="7.52628">
        <ele>177</ele>
        <time>2021-08-08T06:47:29Z</time>
      </trkpt>
      <trkpt lat="48.90898" lon="7.52628">
        <ele>177</ele>
        <time>2021-08-08T06:47:30Z</time>
      </trkpt>
      <trkpt lat="48.90905" lon="7.52619">
        <ele>177</ele>
        <time>2021-08-08T06:47:31Z</time>
      </trkpt>
      <trkpt lat="48.90909" lon="7.52614">
        <ele>177</ele>
        <time>2021-08-08T06:47:32Z</time>
      </trkpt>
      <trkpt lat="48.90909" lon="7.52614">
        <ele>177</ele>
        <time>2021-08-08T06:47:33Z</time>
      </trkpt>
      <trkpt lat="48.90917" lon="7.52604">
        <ele>176</ele>
        <time>2021-08-08T06:47:34Z</time>
      </trkpt>
      <trkpt lat="48.90917" lon="7.52604">
        <ele>176</ele>
        <time>2021-08-08T06:47:35Z</time>
      </trkpt>
      <trkpt lat="48.90925" lon="7.52595">
        <ele>176</ele>
        <time>2021-08-08T06:47:36Z</time>
      </trkpt>
      <trkpt lat="48.90925" lon="7.52595">
        <ele>176</ele>
        <time>2021-08-08T06:47:37Z</time>
      </trkpt>
      <trkpt lat="48.90932" lon="7.52584">
        <ele>176</ele>
        <time>2021-08-08T06:47:38Z</time>
      </trkpt>
      <trkpt lat="48.90937" lon="7.5258">
        <ele>176</ele>
        <time>2021-08-08T06:47:39Z</time>
      </trkpt>
      <trkpt lat="48.90937" lon="7.5258">
        <ele>176</ele>
        <time>2021-08-08T06:47:40Z</time>
      </trkpt>
      <trkpt lat="48.90944" lon="7.52572">
        <ele>176</ele>
        <time>2021-08-08T06:47:41Z</time>
      </trkpt>
      <trkpt lat="48.90948" lon="7.52568">
        <ele>176</ele>
        <time>2021-08-08T06:47:42Z</time>
      </trkpt>
      <trkpt lat="48.90948" lon="7.52568">
        <ele>176</ele>
        <time>2021-08-08T06:47:43Z</time>
      </trkpt>
      <trkpt lat="48.90957" lon="7.52562">
        <ele>176</ele>
        <time>2021-08-08T06:47:44Z</time>
      </trkpt>
      <trkpt lat="48.90961" lon="7.52558">
        <ele>176</ele>
        <time>2021-08-08T06:47:45Z</time>
      </trkpt>
      <trkpt lat="48.90961" lon="7.52558">
        <ele>176</ele>
        <time>2021-08-08T06:47:46Z</time>
      </trkpt>
      <trkpt lat="48.9097" lon="7.5255">
        <ele>176</ele>
        <time>2021-08-08T06:47:47Z</time>
      </trkpt>
      <trkpt lat="48.9097" lon="7.5255">
        <ele>176</ele>
        <time>2021-08-08T06:47:48Z</time>
      </trkpt>
      <trkpt lat="48.90977" lon="7.52541">
        <ele>176</ele>
        <time>2021-08-08T06:47:49Z</time>
      </trkpt>
      <trkpt lat="48.90977" lon="7.52541">
        <ele>176</ele>
        <time>2021-08-08T06:47:50Z</time>
      </trkpt>
      <trkpt lat="48.90985" lon="7.52534">
        <ele>176</ele>
        <time>2021-08-08T06:47:51Z</time>
      </trkpt>
      <trkpt lat="48.90985" lon="7.52534">
        <ele>177</ele>
        <time>2021-08-08T06:47:52Z</time>
      </trkpt>
      <trkpt lat="48.90993" lon="7.52527">
        <ele>177</ele>
        <time>2021-08-08T06:47:53Z</time>
      </trkpt>
      <trkpt lat="48.90993" lon="7.52527">
        <ele>177</ele>
        <time>2021-08-08T06:47:54Z</time>
      </trkpt>
      <trkpt lat="48.91002" lon="7.52521">
        <ele>177</ele>
        <time>2021-08-08T06:47:55Z</time>
      </trkpt>
      <trkpt lat="48.91002" lon="7.52521">
        <ele>177</ele>
        <time>2021-08-08T06:47:56Z</time>
      </trkpt>
      <trkpt lat="48.91011" lon="7.52513">
        <ele>177</ele>
        <time>2021-08-08T06:47:57Z</time>
      </trkpt>
      <trkpt lat="48.91011" lon="7.52513">
        <ele>177</ele>
        <time>2021-08-08T06:47:58Z</time>
      </trkpt>
      <trkpt lat="48.91018" lon="7.52506">
        <ele>177</ele>
        <time>2021-08-08T06:47:59Z</time>
      </trkpt>
      <trkpt lat="48.91022" lon="7.52502">
        <ele>177</ele>
        <time>2021-08-08T06:48:00Z</time>
      </trkpt>
      <trkpt lat="48.91025" lon="7.52498">
        <ele>177</ele>
        <time>2021-08-08T06:48:01Z</time>
      </trkpt>
      <trkpt lat="48.91025" lon="7.52498">
        <ele>177</ele>
        <time>2021-08-08T06:48:02Z</time>
      </trkpt>
      <trkpt lat="48.91032" lon="7.52491">
        <ele>177</ele>
        <time>2021-08-08T06:48:03Z</time>
      </trkpt>
      <trkpt lat="48.91032" lon="7.52491">
        <ele>177</ele>
        <time>2021-08-08T06:48:04Z</time>
      </trkpt>
      <trkpt lat="48.9104" lon="7.52487">
        <ele>177</ele>
        <time>2021-08-08T06:48:05Z</time>
      </trkpt>
      <trkpt lat="48.9104" lon="7.52487">
        <ele>177</ele>
        <time>2021-08-08T06:48:06Z</time>
      </trkpt>
      <trkpt lat="48.91049" lon="7.52483">
        <ele>177</ele>
        <time>2021-08-08T06:48:07Z</time>
      </trkpt>
      <trkpt lat="48.91049" lon="7.52483">
        <ele>177</ele>
        <time>2021-08-08T06:48:08Z</time>
      </trkpt>
      <trkpt lat="48.91059" lon="7.52479">
        <ele>177</ele>
        <time>2021-08-08T06:48:09Z</time>
      </trkpt>
      <trkpt lat="48.91059" lon="7.52479">
        <ele>177</ele>
        <time>2021-08-08T06:48:10Z</time>
      </trkpt>
      <trkpt lat="48.91069" lon="7.52475">
        <ele>177</ele>
        <time>2021-08-08T06:48:11Z</time>
      </trkpt>
      <trkpt lat="48.91074" lon="7.52473">
        <ele>177</ele>
        <time>2021-08-08T06:48:12Z</time>
      </trkpt>
      <trkpt lat="48.9108" lon="7.52471">
        <ele>177</ele>
        <time>2021-08-08T06:48:13Z</time>
      </trkpt>
      <trkpt lat="48.9108" lon="7.52471">
        <ele>177</ele>
        <time>2021-08-08T06:48:14Z</time>
      </trkpt>
      <trkpt lat="48.91089" lon="7.52465">
        <ele>178</ele>
        <time>2021-08-08T06:48:15Z</time>
      </trkpt>
      <trkpt lat="48.91089" lon="7.52465">
        <ele>178</ele>
        <time>2021-08-08T06:48:16Z</time>
      </trkpt>
      <trkpt lat="48.91097" lon="7.52458">
        <ele>178</ele>
        <time>2021-08-08T06:48:17Z</time>
      </trkpt>
      <trkpt lat="48.91101" lon="7.52454">
        <ele>178</ele>
        <time>2021-08-08T06:48:18Z</time>
      </trkpt>
      <trkpt lat="48.91101" lon="7.52454">
        <ele>178</ele>
        <time>2021-08-08T06:48:19Z</time>
      </trkpt>
      <trkpt lat="48.91109" lon="7.52448">
        <ele>178</ele>
        <time>2021-08-08T06:48:20Z</time>
      </trkpt>
      <trkpt lat="48.91114" lon="7.52446">
        <ele>178</ele>
        <time>2021-08-08T06:48:21Z</time>
      </trkpt>
      <trkpt lat="48.91114" lon="7.52446">
        <ele>178</ele>
        <time>2021-08-08T06:48:22Z</time>
      </trkpt>
      <trkpt lat="48.91124" lon="7.52442">
        <ele>178</ele>
        <time>2021-08-08T06:48:23Z</time>
      </trkpt>
      <trkpt lat="48.91124" lon="7.52442">
        <ele>178</ele>
        <time>2021-08-08T06:48:24Z</time>
      </trkpt>
      <trkpt lat="48.9114" lon="7.52438">
        <ele>178</ele>
        <time>2021-08-08T06:48:25Z</time>
      </trkpt>
      <trkpt lat="48.9114" lon="7.52438">
        <ele>178</ele>
        <time>2021-08-08T06:48:26Z</time>
      </trkpt>
      <trkpt lat="48.91153" lon="7.52433">
        <ele>178</ele>
        <time>2021-08-08T06:48:27Z</time>
      </trkpt>
      <trkpt lat="48.91153" lon="7.52433">
        <ele>178</ele>
        <time>2021-08-08T06:48:28Z</time>
      </trkpt>
      <trkpt lat="48.91162" lon="7.52428">
        <ele>178</ele>
        <time>2021-08-08T06:48:29Z</time>
      </trkpt>
      <trkpt lat="48.91162" lon="7.52428">
        <ele>178</ele>
        <time>2021-08-08T06:48:30Z</time>
      </trkpt>
      <trkpt lat="48.9117" lon="7.52422">
        <ele>178</ele>
        <time>2021-08-08T06:48:31Z</time>
      </trkpt>
      <trkpt lat="48.9117" lon="7.52422">
        <ele>178</ele>
        <time>2021-08-08T06:48:32Z</time>
      </trkpt>
      <trkpt lat="48.9118" lon="7.52419">
        <ele>178</ele>
        <time>2021-08-08T06:48:33Z</time>
      </trkpt>
      <trkpt lat="48.91184" lon="7.52416">
        <ele>178</ele>
        <time>2021-08-08T06:48:34Z</time>
      </trkpt>
      <trkpt lat="48.91189" lon="7.52414">
        <ele>178</ele>
        <time>2021-08-08T06:48:35Z</time>
      </trkpt>
      <trkpt lat="48.91189" lon="7.52414">
        <ele>178</ele>
        <time>2021-08-08T06:48:36Z</time>
      </trkpt>
      <trkpt lat="48.91199" lon="7.52409">
        <ele>178</ele>
        <time>2021-08-08T06:48:37Z</time>
      </trkpt>
      <trkpt lat="48.91199" lon="7.52409">
        <ele>178</ele>
        <time>2021-08-08T06:48:38Z</time>
      </trkpt>
      <trkpt lat="48.91185" lon="7.52406">
        <ele>178</ele>
        <time>2021-08-08T06:48:39Z</time>
      </trkpt>
      <trkpt lat="48.91185" lon="7.52406">
        <ele>178</ele>
        <time>2021-08-08T06:48:40Z</time>
      </trkpt>
      <trkpt lat="48.91194" lon="7.52398">
        <ele>178</ele>
        <time>2021-08-08T06:48:41Z</time>
      </trkpt>
      <trkpt lat="48.912" lon="7.52393">
        <ele>178</ele>
        <time>2021-08-08T06:48:42Z</time>
      </trkpt>
      <trkpt lat="48.91204" lon="7.52388">
        <ele>178</ele>
        <time>2021-08-08T06:48:43Z</time>
      </trkpt>
      <trkpt lat="48.91204" lon="7.52388">
        <ele>178</ele>
        <time>2021-08-08T06:48:44Z</time>
      </trkpt>
      <trkpt lat="48.91218" lon="7.52379">
        <ele>178</ele>
        <time>2021-08-08T06:48:45Z</time>
      </trkpt>
      <trkpt lat="48.91218" lon="7.52379">
        <ele>178</ele>
        <time>2021-08-08T06:48:46Z</time>
      </trkpt>
      <trkpt lat="48.91229" lon="7.52367">
        <ele>178</ele>
        <time>2021-08-08T06:48:47Z</time>
      </trkpt>
      <trkpt lat="48.91229" lon="7.52367">
        <ele>178</ele>
        <time>2021-08-08T06:48:48Z</time>
      </trkpt>
      <trkpt lat="48.91241" lon="7.52355">
        <ele>178</ele>
        <time>2021-08-08T06:48:49Z</time>
      </trkpt>
      <trkpt lat="48.91241" lon="7.52355">
        <ele>178</ele>
        <time>2021-08-08T06:48:50Z</time>
      </trkpt>
      <trkpt lat="48.91252" lon="7.52345">
        <ele>178</ele>
        <time>2021-08-08T06:48:51Z</time>
      </trkpt>
      <trkpt lat="48.91252" lon="7.52345">
        <ele>178</ele>
        <time>2021-08-08T06:48:52Z</time>
      </trkpt>
      <trkpt lat="48.91263" lon="7.52333">
        <ele>178</ele>
        <time>2021-08-08T06:48:53Z</time>
      </trkpt>
      <trkpt lat="48.91268" lon="7.52327">
        <ele>178</ele>
        <time>2021-08-08T06:48:54Z</time>
      </trkpt>
      <trkpt lat="48.91268" lon="7.52327">
        <ele>178</ele>
        <time>2021-08-08T06:48:55Z</time>
      </trkpt>
      <trkpt lat="48.91283" lon="7.52314">
        <ele>178</ele>
        <time>2021-08-08T06:48:56Z</time>
      </trkpt>
      <trkpt lat="48.91289" lon="7.52308">
        <ele>178</ele>
        <time>2021-08-08T06:48:57Z</time>
      </trkpt>
      <trkpt lat="48.91289" lon="7.52308">
        <ele>178</ele>
        <time>2021-08-08T06:48:58Z</time>
      </trkpt>
      <trkpt lat="48.91297" lon="7.52294">
        <ele>178</ele>
        <time>2021-08-08T06:48:59Z</time>
      </trkpt>
      <trkpt lat="48.91299" lon="7.52287">
        <ele>178</ele>
        <time>2021-08-08T06:49:00Z</time>
      </trkpt>
      <trkpt lat="48.91299" lon="7.52287">
        <ele>178</ele>
        <time>2021-08-08T06:49:01Z</time>
      </trkpt>
      <trkpt lat="48.91303" lon="7.52273">
        <ele>178</ele>
        <time>2021-08-08T06:49:02Z</time>
      </trkpt>
      <trkpt lat="48.91305" lon="7.52265">
        <ele>178</ele>
        <time>2021-08-08T06:49:03Z</time>
      </trkpt>
      <trkpt lat="48.91305" lon="7.52265">
        <ele>178</ele>
        <time>2021-08-08T06:49:04Z</time>
      </trkpt>
      <trkpt lat="48.91308" lon="7.52249">
        <ele>178</ele>
        <time>2021-08-08T06:49:05Z</time>
      </trkpt>
      <trkpt lat="48.91309" lon="7.52241">
        <ele>178</ele>
        <time>2021-08-08T06:49:06Z</time>
      </trkpt>
      <trkpt lat="48.91309" lon="7.52241">
        <ele>178</ele>
        <time>2021-08-08T06:49:07Z</time>
      </trkpt>
      <trkpt lat="48.91313" lon="7.52225">
        <ele>178</ele>
        <time>2021-08-08T06:49:08Z</time>
      </trkpt>
      <trkpt lat="48.91313" lon="7.52217">
        <ele>178</ele>
        <time>2021-08-08T06:49:09Z</time>
      </trkpt>
      <trkpt lat="48.91313" lon="7.52217">
        <ele>178</ele>
        <time>2021-08-08T06:49:10Z</time>
      </trkpt>
      <trkpt lat="48.91315" lon="7.52201">
        <ele>178</ele>
        <time>2021-08-08T06:49:11Z</time>
      </trkpt>
      <trkpt lat="48.91315" lon="7.52201">
        <ele>178</ele>
        <time>2021-08-08T06:49:12Z</time>
      </trkpt>
      <trkpt lat="48.91317" lon="7.52186">
        <ele>179</ele>
        <time>2021-08-08T06:49:13Z</time>
      </trkpt>
      <trkpt lat="48.91317" lon="7.52186">
        <ele>179</ele>
        <time>2021-08-08T06:49:14Z</time>
      </trkpt>
      <trkpt lat="48.9132" lon="7.52171">
        <ele>179</ele>
        <time>2021-08-08T06:49:15Z</time>
      </trkpt>
      <trkpt lat="48.9132" lon="7.52171">
        <ele>179</ele>
        <time>2021-08-08T06:49:16Z</time>
      </trkpt>
      <trkpt lat="48.91323" lon="7.52157">
        <ele>179</ele>
        <time>2021-08-08T06:49:17Z</time>
      </trkpt>
      <trkpt lat="48.91323" lon="7.52157">
        <ele>179</ele>
        <time>2021-08-08T06:49:18Z</time>
      </trkpt>
      <trkpt lat="48.91329" lon="7.52144">
        <ele>179</ele>
        <time>2021-08-08T06:49:19Z</time>
      </trkpt>
      <trkpt lat="48.91329" lon="7.52144">
        <ele>179</ele>
        <time>2021-08-08T06:49:20Z</time>
      </trkpt>
      <trkpt lat="48.91334" lon="7.52131">
        <ele>179</ele>
        <time>2021-08-08T06:49:21Z</time>
      </trkpt>
      <trkpt lat="48.91334" lon="7.52131">
        <ele>179</ele>
        <time>2021-08-08T06:49:22Z</time>
      </trkpt>
      <trkpt lat="48.9134" lon="7.52118">
        <ele>179</ele>
        <time>2021-08-08T06:49:23Z</time>
      </trkpt>
      <trkpt lat="48.91343" lon="7.52112">
        <ele>179</ele>
        <time>2021-08-08T06:49:24Z</time>
      </trkpt>
      <trkpt lat="48.91343" lon="7.52112">
        <ele>179</ele>
        <time>2021-08-08T06:49:25Z</time>
      </trkpt>
      <trkpt lat="48.91348" lon="7.52101">
        <ele>179</ele>
        <time>2021-08-08T06:49:26Z</time>
      </trkpt>
      <trkpt lat="48.91348" lon="7.52101">
        <ele>179</ele>
        <time>2021-08-08T06:49:27Z</time>
      </trkpt>
      <trkpt lat="48.91357" lon="7.52087">
        <ele>179</ele>
        <time>2021-08-08T06:49:28Z</time>
      </trkpt>
      <trkpt lat="48.91362" lon="7.52081">
        <ele>179</ele>
        <time>2021-08-08T06:49:29Z</time>
      </trkpt>
      <trkpt lat="48.91362" lon="7.52081">
        <ele>179</ele>
        <time>2021-08-08T06:49:30Z</time>
      </trkpt>
      <trkpt lat="48.9137" lon="7.52069">
        <ele>179</ele>
        <time>2021-08-08T06:49:31Z</time>
      </trkpt>
      <trkpt lat="48.91374" lon="7.52063">
        <ele>179</ele>
        <time>2021-08-08T06:49:32Z</time>
      </trkpt>
      <trkpt lat="48.91377" lon="7.52059">
        <ele>179</ele>
        <time>2021-08-08T06:49:33Z</time>
      </trkpt>
      <trkpt lat="48.91377" lon="7.52059">
        <ele>179</ele>
        <time>2021-08-08T06:49:34Z</time>
      </trkpt>
      <trkpt lat="48.91385" lon="7.52048">
        <ele>179</ele>
        <time>2021-08-08T06:49:35Z</time>
      </trkpt>
      <trkpt lat="48.91385" lon="7.52048">
        <ele>179</ele>
        <time>2021-08-08T06:49:36Z</time>
      </trkpt>
      <trkpt lat="48.91393" lon="7.52035">
        <ele>179</ele>
        <time>2021-08-08T06:49:37Z</time>
      </trkpt>
      <trkpt lat="48.91393" lon="7.52035">
        <ele>179</ele>
        <time>2021-08-08T06:49:38Z</time>
      </trkpt>
      <trkpt lat="48.91403" lon="7.52021">
        <ele>179</ele>
        <time>2021-08-08T06:49:39Z</time>
      </trkpt>
      <trkpt lat="48.9141" lon="7.52013">
        <ele>179</ele>
        <time>2021-08-08T06:49:40Z</time>
      </trkpt>
      <trkpt lat="48.9141" lon="7.52013">
        <ele>179</ele>
        <time>2021-08-08T06:49:41Z</time>
      </trkpt>
      <trkpt lat="48.91418" lon="7.51997">
        <ele>179</ele>
        <time>2021-08-08T06:49:42Z</time>
      </trkpt>
      <trkpt lat="48.91418" lon="7.51997">
        <ele>179</ele>
        <time>2021-08-08T06:49:43Z</time>
      </trkpt>
      <trkpt lat="48.91425" lon="7.5198">
        <ele>179</ele>
        <time>2021-08-08T06:49:44Z</time>
      </trkpt>
      <trkpt lat="48.91428" lon="7.51971">
        <ele>179</ele>
        <time>2021-08-08T06:49:45Z</time>
      </trkpt>
      <trkpt lat="48.91428" lon="7.51971">
        <ele>179</ele>
        <time>2021-08-08T06:49:46Z</time>
      </trkpt>
      <trkpt lat="48.91434" lon="7.51957">
        <ele>179</ele>
        <time>2021-08-08T06:49:47Z</time>
      </trkpt>
      <trkpt lat="48.91434" lon="7.51957">
        <ele>179</ele>
        <time>2021-08-08T06:49:48Z</time>
      </trkpt>
      <trkpt lat="48.91439" lon="7.51945">
        <ele>179</ele>
        <time>2021-08-08T06:49:49Z</time>
      </trkpt>
      <trkpt lat="48.91439" lon="7.51945">
        <ele>179</ele>
        <time>2021-08-08T06:49:50Z</time>
      </trkpt>
      <trkpt lat="48.91444" lon="7.51937">
        <ele>179</ele>
        <time>2021-08-08T06:49:51Z</time>
      </trkpt>
      <trkpt lat="48.91444" lon="7.51937">
        <ele>179</ele>
        <time>2021-08-08T06:49:52Z</time>
      </trkpt>
      <trkpt lat="48.91449" lon="7.51931">
        <ele>179</ele>
        <time>2021-08-08T06:49:53Z</time>
      </trkpt>
      <trkpt lat="48.91449" lon="7.51931">
        <ele>179</ele>
        <time>2021-08-08T06:49:54Z</time>
      </trkpt>
      <trkpt lat="48.91451" lon="7.51925">
        <ele>179</ele>
        <time>2021-08-08T06:49:55Z</time>
      </trkpt>
      <trkpt lat="48.91451" lon="7.51925">
        <ele>179</ele>
        <time>2021-08-08T06:49:56Z</time>
      </trkpt>
      <trkpt lat="48.91455" lon="7.51922">
        <ele>179</ele>
        <time>2021-08-08T06:49:57Z</time>
      </trkpt>
      <trkpt lat="48.91455" lon="7.51922">
        <ele>179</ele>
        <time>2021-08-08T06:49:58Z</time>
      </trkpt>
      <trkpt lat="48.91465" lon="7.51923">
        <ele>179</ele>
        <time>2021-08-08T06:49:59Z</time>
      </trkpt>
      <trkpt lat="48.91465" lon="7.51923">
        <ele>179</ele>
        <time>2021-08-08T06:50:00Z</time>
      </trkpt>
      <trkpt lat="48.91476" lon="7.51923">
        <ele>178</ele>
        <time>2021-08-08T06:50:01Z</time>
      </trkpt>
      <trkpt lat="48.91476" lon="7.51923">
        <ele>178</ele>
        <time>2021-08-08T06:50:02Z</time>
      </trkpt>
      <trkpt lat="48.9149" lon="7.51922">
        <ele>178</ele>
        <time>2021-08-08T06:50:03Z</time>
      </trkpt>
      <trkpt lat="48.9149" lon="7.51922">
        <ele>178</ele>
        <time>2021-08-08T06:50:04Z</time>
      </trkpt>
      <trkpt lat="48.91501" lon="7.5193">
        <ele>178</ele>
        <time>2021-08-08T06:50:05Z</time>
      </trkpt>
      <trkpt lat="48.91501" lon="7.5193">
        <ele>178</ele>
        <time>2021-08-08T06:50:06Z</time>
      </trkpt>
      <trkpt lat="48.9151" lon="7.51937">
        <ele>178</ele>
        <time>2021-08-08T06:50:07Z</time>
      </trkpt>
      <trkpt lat="48.9151" lon="7.51937">
        <ele>178</ele>
        <time>2021-08-08T06:50:08Z</time>
      </trkpt>
      <trkpt lat="48.9152" lon="7.51945">
        <ele>178</ele>
        <time>2021-08-08T06:50:09Z</time>
      </trkpt>
      <trkpt lat="48.9152" lon="7.51945">
        <ele>178</ele>
        <time>2021-08-08T06:50:10Z</time>
      </trkpt>
      <trkpt lat="48.91536" lon="7.51951">
        <ele>178</ele>
        <time>2021-08-08T06:50:11Z</time>
      </trkpt>
      <trkpt lat="48.91536" lon="7.51951">
        <ele>178</ele>
        <time>2021-08-08T06:50:12Z</time>
      </trkpt>
      <trkpt lat="48.91548" lon="7.51957">
        <ele>178</ele>
        <time>2021-08-08T06:50:13Z</time>
      </trkpt>
      <trkpt lat="48.91553" lon="7.5196">
        <ele>178</ele>
        <time>2021-08-08T06:50:14Z</time>
      </trkpt>
      <trkpt lat="48.9156" lon="7.51961">
        <ele>178</ele>
        <time>2021-08-08T06:50:15Z</time>
      </trkpt>
      <trkpt lat="48.9156" lon="7.51961">
        <ele>178</ele>
        <time>2021-08-08T06:50:16Z</time>
      </trkpt>
      <trkpt lat="48.91571" lon="7.51964">
        <ele>178</ele>
        <time>2021-08-08T06:50:17Z</time>
      </trkpt>
      <trkpt lat="48.91571" lon="7.51964">
        <ele>178</ele>
        <time>2021-08-08T06:50:18Z</time>
      </trkpt>
      <trkpt lat="48.91581" lon="7.51964">
        <ele>178</ele>
        <time>2021-08-08T06:50:19Z</time>
      </trkpt>
      <trkpt lat="48.91581" lon="7.51964">
        <ele>178</ele>
        <time>2021-08-08T06:50:20Z</time>
      </trkpt>
      <trkpt lat="48.91591" lon="7.51963">
        <ele>178</ele>
        <time>2021-08-08T06:50:21Z</time>
      </trkpt>
      <trkpt lat="48.91591" lon="7.51963">
        <ele>179</ele>
        <time>2021-08-08T06:50:22Z</time>
      </trkpt>
      <trkpt lat="48.91598" lon="7.51959">
        <ele>179</ele>
        <time>2021-08-08T06:50:23Z</time>
      </trkpt>
      <trkpt lat="48.91598" lon="7.51959">
        <ele>179</ele>
        <time>2021-08-08T06:50:24Z</time>
      </trkpt>
      <trkpt lat="48.91604" lon="7.51954">
        <ele>179</ele>
        <time>2021-08-08T06:50:25Z</time>
      </trkpt>
      <trkpt lat="48.91604" lon="7.51954">
        <ele>179</ele>
        <time>2021-08-08T06:50:26Z</time>
      </trkpt>
      <trkpt lat="48.9161" lon="7.51948">
        <ele>179</ele>
        <time>2021-08-08T06:50:27Z</time>
      </trkpt>
      <trkpt lat="48.9161" lon="7.51948">
        <ele>179</ele>
        <time>2021-08-08T06:50:28Z</time>
      </trkpt>
      <trkpt lat="48.91618" lon="7.51941">
        <ele>179</ele>
        <time>2021-08-08T06:50:29Z</time>
      </trkpt>
      <trkpt lat="48.91623" lon="7.51935">
        <ele>179</ele>
        <time>2021-08-08T06:50:30Z</time>
      </trkpt>
      <trkpt lat="48.91623" lon="7.51935">
        <ele>179</ele>
        <time>2021-08-08T06:50:31Z</time>
      </trkpt>
      <trkpt lat="48.91632" lon="7.51926">
        <ele>179</ele>
        <time>2021-08-08T06:50:32Z</time>
      </trkpt>
      <trkpt lat="48.91632" lon="7.51926">
        <ele>179</ele>
        <time>2021-08-08T06:50:33Z</time>
      </trkpt>
      <trkpt lat="48.9164" lon="7.51916">
        <ele>180</ele>
        <time>2021-08-08T06:50:34Z</time>
      </trkpt>
      <trkpt lat="48.91644" lon="7.51911">
        <ele>180</ele>
        <time>2021-08-08T06:50:35Z</time>
      </trkpt>
      <trkpt lat="48.91644" lon="7.51911">
        <ele>180</ele>
        <time>2021-08-08T06:50:36Z</time>
      </trkpt>
      <trkpt lat="48.91652" lon="7.51899">
        <ele>180</ele>
        <time>2021-08-08T06:50:37Z</time>
      </trkpt>
      <trkpt lat="48.91652" lon="7.51899">
        <ele>180</ele>
        <time>2021-08-08T06:50:38Z</time>
      </trkpt>
      <trkpt lat="48.9166" lon="7.51887">
        <ele>180</ele>
        <time>2021-08-08T06:50:39Z</time>
      </trkpt>
      <trkpt lat="48.9166" lon="7.51887">
        <ele>180</ele>
        <time>2021-08-08T06:50:40Z</time>
      </trkpt>
      <trkpt lat="48.91669" lon="7.51876">
        <ele>180</ele>
        <time>2021-08-08T06:50:41Z</time>
      </trkpt>
      <trkpt lat="48.91673" lon="7.5187">
        <ele>180</ele>
        <time>2021-08-08T06:50:42Z</time>
      </trkpt>
      <trkpt lat="48.91673" lon="7.5187">
        <ele>180</ele>
        <time>2021-08-08T06:50:43Z</time>
      </trkpt>
      <trkpt lat="48.91682" lon="7.51857">
        <ele>180</ele>
        <time>2021-08-08T06:50:44Z</time>
      </trkpt>
      <trkpt lat="48.91685" lon="7.51851">
        <ele>180</ele>
        <time>2021-08-08T06:50:45Z</time>
      </trkpt>
      <trkpt lat="48.91685" lon="7.51851">
        <ele>180</ele>
        <time>2021-08-08T06:50:46Z</time>
      </trkpt>
      <trkpt lat="48.91693" lon="7.51838">
        <ele>180</ele>
        <time>2021-08-08T06:50:47Z</time>
      </trkpt>
      <trkpt lat="48.91693" lon="7.51838">
        <ele>180</ele>
        <time>2021-08-08T06:50:48Z</time>
      </trkpt>
      <trkpt lat="48.917" lon="7.51824">
        <ele>180</ele>
        <time>2021-08-08T06:50:49Z</time>
      </trkpt>
      <trkpt lat="48.917" lon="7.51824">
        <ele>180</ele>
        <time>2021-08-08T06:50:50Z</time>
      </trkpt>
      <trkpt lat="48.91707" lon="7.51811">
        <ele>180</ele>
        <time>2021-08-08T06:50:51Z</time>
      </trkpt>
      <trkpt lat="48.91707" lon="7.51811">
        <ele>180</ele>
        <time>2021-08-08T06:50:52Z</time>
      </trkpt>
      <trkpt lat="48.91714" lon="7.51797">
        <ele>180</ele>
        <time>2021-08-08T06:50:53Z</time>
      </trkpt>
      <trkpt lat="48.91714" lon="7.51797">
        <ele>180</ele>
        <time>2021-08-08T06:50:54Z</time>
      </trkpt>
      <trkpt lat="48.9172" lon="7.51782">
        <ele>180</ele>
        <time>2021-08-08T06:50:55Z</time>
      </trkpt>
      <trkpt lat="48.9172" lon="7.51782">
        <ele>180</ele>
        <time>2021-08-08T06:50:56Z</time>
      </trkpt>
      <trkpt lat="48.91726" lon="7.51766">
        <ele>180</ele>
        <time>2021-08-08T06:50:57Z</time>
      </trkpt>
      <trkpt lat="48.91726" lon="7.51766">
        <ele>180</ele>
        <time>2021-08-08T06:50:58Z</time>
      </trkpt>
      <trkpt lat="48.91731" lon="7.5175">
        <ele>180</ele>
        <time>2021-08-08T06:50:59Z</time>
      </trkpt>
      <trkpt lat="48.91734" lon="7.51743">
        <ele>180</ele>
        <time>2021-08-08T06:51:00Z</time>
      </trkpt>
      <trkpt lat="48.91734" lon="7.51743">
        <ele>181</ele>
        <time>2021-08-08T06:51:01Z</time>
      </trkpt>
      <trkpt lat="48.9174" lon="7.51727">
        <ele>181</ele>
        <time>2021-08-08T06:51:02Z</time>
      </trkpt>
      <trkpt lat="48.91742" lon="7.51719">
        <ele>181</ele>
        <time>2021-08-08T06:51:03Z</time>
      </trkpt>
      <trkpt lat="48.91742" lon="7.51719">
        <ele>181</ele>
        <time>2021-08-08T06:51:04Z</time>
      </trkpt>
      <trkpt lat="48.91748" lon="7.51703">
        <ele>181</ele>
        <time>2021-08-08T06:51:05Z</time>
      </trkpt>
      <trkpt lat="48.91748" lon="7.51703">
        <ele>181</ele>
        <time>2021-08-08T06:51:06Z</time>
      </trkpt>
      <trkpt lat="48.91753" lon="7.51687">
        <ele>181</ele>
        <time>2021-08-08T06:51:07Z</time>
      </trkpt>
      <trkpt lat="48.91753" lon="7.51687">
        <ele>181</ele>
        <time>2021-08-08T06:51:08Z</time>
      </trkpt>
      <trkpt lat="48.91758" lon="7.51671">
        <ele>180</ele>
        <time>2021-08-08T06:51:09Z</time>
      </trkpt>
      <trkpt lat="48.91761" lon="7.51663">
        <ele>180</ele>
        <time>2021-08-08T06:51:10Z</time>
      </trkpt>
      <trkpt lat="48.91761" lon="7.51663">
        <ele>180</ele>
        <time>2021-08-08T06:51:11Z</time>
      </trkpt>
      <trkpt lat="48.91767" lon="7.51644">
        <ele>180</ele>
        <time>2021-08-08T06:51:12Z</time>
      </trkpt>
      <trkpt lat="48.91772" lon="7.51633">
        <ele>180</ele>
        <time>2021-08-08T06:51:13Z</time>
      </trkpt>
      <trkpt lat="48.91772" lon="7.51633">
        <ele>180</ele>
        <time>2021-08-08T06:51:14Z</time>
      </trkpt>
      <trkpt lat="48.91777" lon="7.51614">
        <ele>180</ele>
        <time>2021-08-08T06:51:15Z</time>
      </trkpt>
      <trkpt lat="48.91777" lon="7.51614">
        <ele>180</ele>
        <time>2021-08-08T06:51:16Z</time>
      </trkpt>
      <trkpt lat="48.91783" lon="7.51598">
        <ele>180</ele>
        <time>2021-08-08T06:51:17Z</time>
      </trkpt>
      <trkpt lat="48.91783" lon="7.51598">
        <ele>180</ele>
        <time>2021-08-08T06:51:18Z</time>
      </trkpt>
      <trkpt lat="48.91789" lon="7.51582">
        <ele>180</ele>
        <time>2021-08-08T06:51:19Z</time>
      </trkpt>
      <trkpt lat="48.91789" lon="7.51582">
        <ele>180</ele>
        <time>2021-08-08T06:51:20Z</time>
      </trkpt>
      <trkpt lat="48.91795" lon="7.51567">
        <ele>180</ele>
        <time>2021-08-08T06:51:21Z</time>
      </trkpt>
      <trkpt lat="48.91795" lon="7.51567">
        <ele>180</ele>
        <time>2021-08-08T06:51:22Z</time>
      </trkpt>
      <trkpt lat="48.918" lon="7.51554">
        <ele>180</ele>
        <time>2021-08-08T06:51:23Z</time>
      </trkpt>
      <trkpt lat="48.918" lon="7.51554">
        <ele>180</ele>
        <time>2021-08-08T06:51:24Z</time>
      </trkpt>
      <trkpt lat="48.91805" lon="7.51543">
        <ele>180</ele>
        <time>2021-08-08T06:51:25Z</time>
      </trkpt>
      <trkpt lat="48.91805" lon="7.51543">
        <ele>180</ele>
        <time>2021-08-08T06:51:26Z</time>
      </trkpt>
      <trkpt lat="48.91811" lon="7.51533">
        <ele>180</ele>
        <time>2021-08-08T06:51:27Z</time>
      </trkpt>
      <trkpt lat="48.91811" lon="7.51533">
        <ele>180</ele>
        <time>2021-08-08T06:51:28Z</time>
      </trkpt>
      <trkpt lat="48.91819" lon="7.51524">
        <ele>180</ele>
        <time>2021-08-08T06:51:29Z</time>
      </trkpt>
      <trkpt lat="48.91819" lon="7.51524">
        <ele>180</ele>
        <time>2021-08-08T06:51:30Z</time>
      </trkpt>
      <trkpt lat="48.91829" lon="7.51513">
        <ele>180</ele>
        <time>2021-08-08T06:51:31Z</time>
      </trkpt>
      <trkpt lat="48.91835" lon="7.51507">
        <ele>180</ele>
        <time>2021-08-08T06:51:32Z</time>
      </trkpt>
      <trkpt lat="48.91835" lon="7.51507">
        <ele>180</ele>
        <time>2021-08-08T06:51:33Z</time>
      </trkpt>
      <trkpt lat="48.91845" lon="7.51498">
        <ele>180</ele>
        <time>2021-08-08T06:51:34Z</time>
      </trkpt>
      <trkpt lat="48.9185" lon="7.51494">
        <ele>180</ele>
        <time>2021-08-08T06:51:35Z</time>
      </trkpt>
      <trkpt lat="48.9185" lon="7.51494">
        <ele>180</ele>
        <time>2021-08-08T06:51:36Z</time>
      </trkpt>
      <trkpt lat="48.9186" lon="7.51485">
        <ele>180</ele>
        <time>2021-08-08T06:51:37Z</time>
      </trkpt>
      <trkpt lat="48.9186" lon="7.51485">
        <ele>180</ele>
        <time>2021-08-08T06:51:38Z</time>
      </trkpt>
      <trkpt lat="48.91869" lon="7.51474">
        <ele>180</ele>
        <time>2021-08-08T06:51:39Z</time>
      </trkpt>
      <trkpt lat="48.91869" lon="7.51474">
        <ele>180</ele>
        <time>2021-08-08T06:51:40Z</time>
      </trkpt>
      <trkpt lat="48.91879" lon="7.51464">
        <ele>180</ele>
        <time>2021-08-08T06:51:41Z</time>
      </trkpt>
      <trkpt lat="48.91879" lon="7.51464">
        <ele>180</ele>
        <time>2021-08-08T06:51:42Z</time>
      </trkpt>
      <trkpt lat="48.91889" lon="7.51453">
        <ele>180</ele>
        <time>2021-08-08T06:51:43Z</time>
      </trkpt>
      <trkpt lat="48.91894" lon="7.51447">
        <ele>180</ele>
        <time>2021-08-08T06:51:44Z</time>
      </trkpt>
      <trkpt lat="48.91894" lon="7.51447">
        <ele>180</ele>
        <time>2021-08-08T06:51:45Z</time>
      </trkpt>
      <trkpt lat="48.91904" lon="7.51436">
        <ele>180</ele>
        <time>2021-08-08T06:51:46Z</time>
      </trkpt>
      <trkpt lat="48.91904" lon="7.51436">
        <ele>180</ele>
        <time>2021-08-08T06:51:47Z</time>
      </trkpt>
      <trkpt lat="48.91913" lon="7.51424">
        <ele>180</ele>
        <time>2021-08-08T06:51:48Z</time>
      </trkpt>
      <trkpt lat="48.91917" lon="7.51418">
        <ele>180</ele>
        <time>2021-08-08T06:51:49Z</time>
      </trkpt>
      <trkpt lat="48.91917" lon="7.51418">
        <ele>180</ele>
        <time>2021-08-08T06:51:50Z</time>
      </trkpt>
      <trkpt lat="48.91926" lon="7.51407">
        <ele>180</ele>
        <time>2021-08-08T06:51:51Z</time>
      </trkpt>
      <trkpt lat="48.91926" lon="7.51407">
        <ele>180</ele>
        <time>2021-08-08T06:51:52Z</time>
      </trkpt>
      <trkpt lat="48.91934" lon="7.51397">
        <ele>180</ele>
        <time>2021-08-08T06:51:53Z</time>
      </trkpt>
      <trkpt lat="48.91934" lon="7.51397">
        <ele>180</ele>
        <time>2021-08-08T06:51:54Z</time>
      </trkpt>
      <trkpt lat="48.91944" lon="7.51387">
        <ele>180</ele>
        <time>2021-08-08T06:51:55Z</time>
      </trkpt>
      <trkpt lat="48.91944" lon="7.51387">
        <ele>180</ele>
        <time>2021-08-08T06:51:56Z</time>
      </trkpt>
      <trkpt lat="48.91954" lon="7.51379">
        <ele>180</ele>
        <time>2021-08-08T06:51:57Z</time>
      </trkpt>
      <trkpt lat="48.91954" lon="7.51379">
        <ele>180</ele>
        <time>2021-08-08T06:51:58Z</time>
      </trkpt>
      <trkpt lat="48.91963" lon="7.51371">
        <ele>180</ele>
        <time>2021-08-08T06:51:59Z</time>
      </trkpt>
      <trkpt lat="48.91963" lon="7.51371">
        <ele>180</ele>
        <time>2021-08-08T06:52:00Z</time>
      </trkpt>
      <trkpt lat="48.91972" lon="7.51364">
        <ele>180</ele>
        <time>2021-08-08T06:52:01Z</time>
      </trkpt>
      <trkpt lat="48.91972" lon="7.51364">
        <ele>180</ele>
        <time>2021-08-08T06:52:02Z</time>
      </trkpt>
      <trkpt lat="48.91979" lon="7.51357">
        <ele>180</ele>
        <time>2021-08-08T06:52:03Z</time>
      </trkpt>
      <trkpt lat="48.91979" lon="7.51357">
        <ele>180</ele>
        <time>2021-08-08T06:52:04Z</time>
      </trkpt>
      <trkpt lat="48.91986" lon="7.5135">
        <ele>180</ele>
        <time>2021-08-08T06:52:05Z</time>
      </trkpt>
      <trkpt lat="48.91991" lon="7.51346">
        <ele>180</ele>
        <time>2021-08-08T06:52:06Z</time>
      </trkpt>
      <trkpt lat="48.91991" lon="7.51346">
        <ele>180</ele>
        <time>2021-08-08T06:52:07Z</time>
      </trkpt>
      <trkpt lat="48.91998" lon="7.5134">
        <ele>180</ele>
        <time>2021-08-08T06:52:08Z</time>
      </trkpt>
      <trkpt lat="48.92002" lon="7.51336">
        <ele>180</ele>
        <time>2021-08-08T06:52:09Z</time>
      </trkpt>
      <trkpt lat="48.92002" lon="7.51336">
        <ele>180</ele>
        <time>2021-08-08T06:52:10Z</time>
      </trkpt>
      <trkpt lat="48.92009" lon="7.5133">
        <ele>180</ele>
        <time>2021-08-08T06:52:11Z</time>
      </trkpt>
      <trkpt lat="48.92009" lon="7.5133">
        <ele>180</ele>
        <time>2021-08-08T06:52:12Z</time>
      </trkpt>
      <trkpt lat="48.92015" lon="7.51325">
        <ele>180</ele>
        <time>2021-08-08T06:52:13Z</time>
      </trkpt>
      <trkpt lat="48.92015" lon="7.51325">
        <ele>180</ele>
        <time>2021-08-08T06:52:14Z</time>
      </trkpt>
      <trkpt lat="48.92021" lon="7.51321">
        <ele>180</ele>
        <time>2021-08-08T06:52:15Z</time>
      </trkpt>
      <trkpt lat="48.92021" lon="7.51321">
        <ele>180</ele>
        <time>2021-08-08T06:52:16Z</time>
      </trkpt>
      <trkpt lat="48.92026" lon="7.51315">
        <ele>180</ele>
        <time>2021-08-08T06:52:17Z</time>
      </trkpt>
      <trkpt lat="48.92026" lon="7.51315">
        <ele>180</ele>
        <time>2021-08-08T06:52:18Z</time>
      </trkpt>
      <trkpt lat="48.92033" lon="7.51307">
        <ele>180</ele>
        <time>2021-08-08T06:52:19Z</time>
      </trkpt>
      <trkpt lat="48.92038" lon="7.51305">
        <ele>180</ele>
        <time>2021-08-08T06:52:20Z</time>
      </trkpt>
      <trkpt lat="48.92038" lon="7.51305">
        <ele>180</ele>
        <time>2021-08-08T06:52:21Z</time>
      </trkpt>
      <trkpt lat="48.92051" lon="7.51299">
        <ele>180</ele>
        <time>2021-08-08T06:52:22Z</time>
      </trkpt>
      <trkpt lat="48.92051" lon="7.51299">
        <ele>180</ele>
        <time>2021-08-08T06:52:23Z</time>
      </trkpt>
      <trkpt lat="48.92066" lon="7.51291">
        <ele>180</ele>
        <time>2021-08-08T06:52:24Z</time>
      </trkpt>
      <trkpt lat="48.92073" lon="7.51288">
        <ele>180</ele>
        <time>2021-08-08T06:52:25Z</time>
      </trkpt>
      <trkpt lat="48.92078" lon="7.51285">
        <ele>180</ele>
        <time>2021-08-08T06:52:26Z</time>
      </trkpt>
      <trkpt lat="48.92083" lon="7.51283">
        <ele>180</ele>
        <time>2021-08-08T06:52:27Z</time>
      </trkpt>
      <trkpt lat="48.92083" lon="7.51283">
        <ele>180</ele>
        <time>2021-08-08T06:52:28Z</time>
      </trkpt>
      <trkpt lat="48.9209" lon="7.51281">
        <ele>180</ele>
        <time>2021-08-08T06:52:29Z</time>
      </trkpt>
      <trkpt lat="48.9209" lon="7.51281">
        <ele>180</ele>
        <time>2021-08-08T06:52:30Z</time>
      </trkpt>
      <trkpt lat="48.92095" lon="7.51284">
        <ele>180</ele>
        <time>2021-08-08T06:52:31Z</time>
      </trkpt>
      <trkpt lat="48.92095" lon="7.51284">
        <ele>180</ele>
        <time>2021-08-08T06:52:32Z</time>
      </trkpt>
      <trkpt lat="48.92104" lon="7.51288">
        <ele>180</ele>
        <time>2021-08-08T06:52:33Z</time>
      </trkpt>
      <trkpt lat="48.92108" lon="7.51292">
        <ele>180</ele>
        <time>2021-08-08T06:52:34Z</time>
      </trkpt>
      <trkpt lat="48.92108" lon="7.51292">
        <ele>180</ele>
        <time>2021-08-08T06:52:35Z</time>
      </trkpt>
      <trkpt lat="48.92114" lon="7.51301">
        <ele>180</ele>
        <time>2021-08-08T06:52:36Z</time>
      </trkpt>
      <trkpt lat="48.92114" lon="7.51301">
        <ele>180</ele>
        <time>2021-08-08T06:52:37Z</time>
      </trkpt>
      <trkpt lat="48.92119" lon="7.51313">
        <ele>180</ele>
        <time>2021-08-08T06:52:38Z</time>
      </trkpt>
      <trkpt lat="48.92121" lon="7.51319">
        <ele>180</ele>
        <time>2021-08-08T06:52:39Z</time>
      </trkpt>
      <trkpt lat="48.92121" lon="7.51319">
        <ele>180</ele>
        <time>2021-08-08T06:52:40Z</time>
      </trkpt>
      <trkpt lat="48.92124" lon="7.51331">
        <ele>180</ele>
        <time>2021-08-08T06:52:41Z</time>
      </trkpt>
      <trkpt lat="48.92124" lon="7.51331">
        <ele>180</ele>
        <time>2021-08-08T06:52:42Z</time>
      </trkpt>
      <trkpt lat="48.92126" lon="7.51343">
        <ele>180</ele>
        <time>2021-08-08T06:52:43Z</time>
      </trkpt>
      <trkpt lat="48.92126" lon="7.51343">
        <ele>180</ele>
        <time>2021-08-08T06:52:44Z</time>
      </trkpt>
      <trkpt lat="48.9213" lon="7.51354">
        <ele>180</ele>
        <time>2021-08-08T06:52:45Z</time>
      </trkpt>
      <trkpt lat="48.9213" lon="7.51354">
        <ele>180</ele>
        <time>2021-08-08T06:52:46Z</time>
      </trkpt>
      <trkpt lat="48.92133" lon="7.51364">
        <ele>180</ele>
        <time>2021-08-08T06:52:47Z</time>
      </trkpt>
      <trkpt lat="48.92133" lon="7.51364">
        <ele>180</ele>
        <time>2021-08-08T06:52:48Z</time>
      </trkpt>
      <trkpt lat="48.92136" lon="7.51374">
        <ele>180</ele>
        <time>2021-08-08T06:52:49Z</time>
      </trkpt>
      <trkpt lat="48.92136" lon="7.51374">
        <ele>180</ele>
        <time>2021-08-08T06:52:50Z</time>
      </trkpt>
      <trkpt lat="48.92139" lon="7.51385">
        <ele>180</ele>
        <time>2021-08-08T06:52:51Z</time>
      </trkpt>
      <trkpt lat="48.92139" lon="7.51385">
        <ele>180</ele>
        <time>2021-08-08T06:52:52Z</time>
      </trkpt>
      <trkpt lat="48.92143" lon="7.51393">
        <ele>180</ele>
        <time>2021-08-08T06:52:53Z</time>
      </trkpt>
      <trkpt lat="48.92143" lon="7.51393">
        <ele>180</ele>
        <time>2021-08-08T06:52:54Z</time>
      </trkpt>
      <trkpt lat="48.92149" lon="7.51399">
        <ele>180</ele>
        <time>2021-08-08T06:52:55Z</time>
      </trkpt>
      <trkpt lat="48.92149" lon="7.51399">
        <ele>180</ele>
        <time>2021-08-08T06:52:56Z</time>
      </trkpt>
      <trkpt lat="48.92156" lon="7.51402">
        <ele>180</ele>
        <time>2021-08-08T06:52:57Z</time>
      </trkpt>
      <trkpt lat="48.92156" lon="7.51402">
        <ele>180</ele>
        <time>2021-08-08T06:52:58Z</time>
      </trkpt>
      <trkpt lat="48.92163" lon="7.51405">
        <ele>180</ele>
        <time>2021-08-08T06:52:59Z</time>
      </trkpt>
      <trkpt lat="48.92167" lon="7.51406">
        <ele>180</ele>
        <time>2021-08-08T06:53:00Z</time>
      </trkpt>
      <trkpt lat="48.9217" lon="7.51407">
        <ele>180</ele>
        <time>2021-08-08T06:53:01Z</time>
      </trkpt>
      <trkpt lat="48.92174" lon="7.51409">
        <ele>180</ele>
        <time>2021-08-08T06:53:02Z</time>
      </trkpt>
      <trkpt lat="48.92174" lon="7.51409">
        <ele>180</ele>
        <time>2021-08-08T06:53:03Z</time>
      </trkpt>
      <trkpt lat="48.92182" lon="7.51412">
        <ele>180</ele>
        <time>2021-08-08T06:53:04Z</time>
      </trkpt>
      <trkpt lat="48.92182" lon="7.51412">
        <ele>180</ele>
        <time>2021-08-08T06:53:05Z</time>
      </trkpt>
      <trkpt lat="48.9219" lon="7.51415">
        <ele>180</ele>
        <time>2021-08-08T06:53:06Z</time>
      </trkpt>
      <trkpt lat="48.92195" lon="7.51416">
        <ele>180</ele>
        <time>2021-08-08T06:53:07Z</time>
      </trkpt>
      <trkpt lat="48.92195" lon="7.51416">
        <ele>180</ele>
        <time>2021-08-08T06:53:08Z</time>
      </trkpt>
      <trkpt lat="48.92202" lon="7.51419">
        <ele>180</ele>
        <time>2021-08-08T06:53:09Z</time>
      </trkpt>
      <trkpt lat="48.92206" lon="7.5142">
        <ele>180</ele>
        <time>2021-08-08T06:53:10Z</time>
      </trkpt>
      <trkpt lat="48.92206" lon="7.5142">
        <ele>180</ele>
        <time>2021-08-08T06:53:11Z</time>
      </trkpt>
      <trkpt lat="48.92211" lon="7.51421">
        <ele>180</ele>
        <time>2021-08-08T06:53:12Z</time>
      </trkpt>
      <trkpt lat="48.92214" lon="7.51422">
        <ele>180</ele>
        <time>2021-08-08T06:53:13Z</time>
      </trkpt>
      <trkpt lat="48.92214" lon="7.51422">
        <ele>180</ele>
        <time>2021-08-08T06:53:14Z</time>
      </trkpt>
      <trkpt lat="48.92221" lon="7.51421">
        <ele>180</ele>
        <time>2021-08-08T06:53:15Z</time>
      </trkpt>
      <trkpt lat="48.92221" lon="7.51421">
        <ele>181</ele>
        <time>2021-08-08T06:53:16Z</time>
      </trkpt>
      <trkpt lat="48.92231" lon="7.51421">
        <ele>181</ele>
        <time>2021-08-08T06:53:17Z</time>
      </trkpt>
      <trkpt lat="48.92231" lon="7.51421">
        <ele>181</ele>
        <time>2021-08-08T06:53:18Z</time>
      </trkpt>
      <trkpt lat="48.92241" lon="7.5142">
        <ele>181</ele>
        <time>2021-08-08T06:53:19Z</time>
      </trkpt>
      <trkpt lat="48.92241" lon="7.5142">
        <ele>181</ele>
        <time>2021-08-08T06:53:20Z</time>
      </trkpt>
      <trkpt lat="48.92247" lon="7.51421">
        <ele>181</ele>
        <time>2021-08-08T06:53:21Z</time>
      </trkpt>
      <trkpt lat="48.92247" lon="7.51421">
        <ele>181</ele>
        <time>2021-08-08T06:53:22Z</time>
      </trkpt>
      <trkpt lat="48.92254" lon="7.51419">
        <ele>181</ele>
        <time>2021-08-08T06:53:23Z</time>
      </trkpt>
      <trkpt lat="48.92259" lon="7.51418">
        <ele>181</ele>
        <time>2021-08-08T06:53:24Z</time>
      </trkpt>
      <trkpt lat="48.92259" lon="7.51418">
        <ele>181</ele>
        <time>2021-08-08T06:53:25Z</time>
      </trkpt>
      <trkpt lat="48.92267" lon="7.51414">
        <ele>181</ele>
        <time>2021-08-08T06:53:26Z</time>
      </trkpt>
      <trkpt lat="48.92267" lon="7.51414">
        <ele>181</ele>
        <time>2021-08-08T06:53:27Z</time>
      </trkpt>
      <trkpt lat="48.92273" lon="7.51406">
        <ele>181</ele>
        <time>2021-08-08T06:53:28Z</time>
      </trkpt>
      <trkpt lat="48.92275" lon="7.51403">
        <ele>181</ele>
        <time>2021-08-08T06:53:29Z</time>
      </trkpt>
      <trkpt lat="48.92275" lon="7.51403">
        <ele>181</ele>
        <time>2021-08-08T06:53:30Z</time>
      </trkpt>
      <trkpt lat="48.92279" lon="7.51396">
        <ele>181</ele>
        <time>2021-08-08T06:53:31Z</time>
      </trkpt>
      <trkpt lat="48.92279" lon="7.51396">
        <ele>181</ele>
        <time>2021-08-08T06:53:32Z</time>
      </trkpt>
      <trkpt lat="48.92285" lon="7.51387">
        <ele>181</ele>
        <time>2021-08-08T06:53:33Z</time>
      </trkpt>
      <trkpt lat="48.92287" lon="7.51383">
        <ele>181</ele>
        <time>2021-08-08T06:53:34Z</time>
      </trkpt>
      <trkpt lat="48.92287" lon="7.51383">
        <ele>181</ele>
        <time>2021-08-08T06:53:35Z</time>
      </trkpt>
      <trkpt lat="48.92293" lon="7.51375">
        <ele>181</ele>
        <time>2021-08-08T06:53:36Z</time>
      </trkpt>
      <trkpt lat="48.92295" lon="7.51372">
        <ele>181</ele>
        <time>2021-08-08T06:53:37Z</time>
      </trkpt>
      <trkpt lat="48.92295" lon="7.51372">
        <ele>182</ele>
        <time>2021-08-08T06:53:38Z</time>
      </trkpt>
      <trkpt lat="48.92301" lon="7.51366">
        <ele>182</ele>
        <time>2021-08-08T06:53:39Z</time>
      </trkpt>
      <trkpt lat="48.92301" lon="7.51366">
        <ele>182</ele>
        <time>2021-08-08T06:53:40Z</time>
      </trkpt>
      <trkpt lat="48.92308" lon="7.51361">
        <ele>182</ele>
        <time>2021-08-08T06:53:41Z</time>
      </trkpt>
      <trkpt lat="48.92312" lon="7.51358">
        <ele>182</ele>
        <time>2021-08-08T06:53:42Z</time>
      </trkpt>
      <trkpt lat="48.92312" lon="7.51358">
        <ele>182</ele>
        <time>2021-08-08T06:53:43Z</time>
      </trkpt>
      <trkpt lat="48.92317" lon="7.51354">
        <ele>182</ele>
        <time>2021-08-08T06:53:44Z</time>
      </trkpt>
      <trkpt lat="48.92319" lon="7.51352">
        <ele>182</ele>
        <time>2021-08-08T06:53:45Z</time>
      </trkpt>
      <trkpt lat="48.92319" lon="7.51352">
        <ele>182</ele>
        <time>2021-08-08T06:53:46Z</time>
      </trkpt>
      <trkpt lat="48.92325" lon="7.5135">
        <ele>182</ele>
        <time>2021-08-08T06:53:47Z</time>
      </trkpt>
      <trkpt lat="48.92325" lon="7.5135">
        <ele>182</ele>
        <time>2021-08-08T06:53:48Z</time>
      </trkpt>
      <trkpt lat="48.92335" lon="7.51341">
        <ele>182</ele>
        <time>2021-08-08T06:53:49Z</time>
      </trkpt>
      <trkpt lat="48.92335" lon="7.51341">
        <ele>182</ele>
        <time>2021-08-08T06:53:50Z</time>
      </trkpt>
      <trkpt lat="48.92346" lon="7.51334">
        <ele>182</ele>
        <time>2021-08-08T06:53:51Z</time>
      </trkpt>
      <trkpt lat="48.92346" lon="7.51334">
        <ele>182</ele>
        <time>2021-08-08T06:53:52Z</time>
      </trkpt>
      <trkpt lat="48.92355" lon="7.51334">
        <ele>182</ele>
        <time>2021-08-08T06:53:53Z</time>
      </trkpt>
      <trkpt lat="48.92359" lon="7.51335">
        <ele>182</ele>
        <time>2021-08-08T06:53:54Z</time>
      </trkpt>
      <trkpt lat="48.92363" lon="7.51337">
        <ele>182</ele>
        <time>2021-08-08T06:53:55Z</time>
      </trkpt>
      <trkpt lat="48.92363" lon="7.51337">
        <ele>182</ele>
        <time>2021-08-08T06:53:56Z</time>
      </trkpt>
      <trkpt lat="48.9237" lon="7.5134">
        <ele>182</ele>
        <time>2021-08-08T06:53:57Z</time>
      </trkpt>
      <trkpt lat="48.9237" lon="7.5134">
        <ele>182</ele>
        <time>2021-08-08T06:53:58Z</time>
      </trkpt>
      <trkpt lat="48.92374" lon="7.51344">
        <ele>182</ele>
        <time>2021-08-08T06:53:59Z</time>
      </trkpt>
      <trkpt lat="48.92374" lon="7.51344">
        <ele>182</ele>
        <time>2021-08-08T06:54:00Z</time>
      </trkpt>
      <trkpt lat="48.92378" lon="7.51349">
        <ele>182</ele>
        <time>2021-08-08T06:54:01Z</time>
      </trkpt>
      <trkpt lat="48.92378" lon="7.51349">
        <ele>182</ele>
        <time>2021-08-08T06:54:02Z</time>
      </trkpt>
      <trkpt lat="48.9238" lon="7.51355">
        <ele>182</ele>
        <time>2021-08-08T06:54:03Z</time>
      </trkpt>
      <trkpt lat="48.9238" lon="7.51355">
        <ele>182</ele>
        <time>2021-08-08T06:54:04Z</time>
      </trkpt>
      <trkpt lat="48.92383" lon="7.51363">
        <ele>182</ele>
        <time>2021-08-08T06:54:05Z</time>
      </trkpt>
      <trkpt lat="48.92383" lon="7.51363">
        <ele>183</ele>
        <time>2021-08-08T06:54:06Z</time>
      </trkpt>
      <trkpt lat="48.92385" lon="7.51371">
        <ele>183</ele>
        <time>2021-08-08T06:54:07Z</time>
      </trkpt>
      <trkpt lat="48.92385" lon="7.51371">
        <ele>183</ele>
        <time>2021-08-08T06:54:08Z</time>
      </trkpt>
      <trkpt lat="48.92388" lon="7.51379">
        <ele>183</ele>
        <time>2021-08-08T06:54:09Z</time>
      </trkpt>
      <trkpt lat="48.92388" lon="7.51379">
        <ele>184</ele>
        <time>2021-08-08T06:54:10Z</time>
      </trkpt>
      <trkpt lat="48.92392" lon="7.51389">
        <ele>184</ele>
        <time>2021-08-08T06:54:11Z</time>
      </trkpt>
      <trkpt lat="48.92392" lon="7.51389">
        <ele>184</ele>
        <time>2021-08-08T06:54:12Z</time>
      </trkpt>
      <trkpt lat="48.92396" lon="7.51398">
        <ele>184</ele>
        <time>2021-08-08T06:54:13Z</time>
      </trkpt>
      <trkpt lat="48.92397" lon="7.51403">
        <ele>184</ele>
        <time>2021-08-08T06:54:14Z</time>
      </trkpt>
      <trkpt lat="48.92397" lon="7.51403">
        <ele>184</ele>
        <time>2021-08-08T06:54:15Z</time>
      </trkpt>
      <trkpt lat="48.92401" lon="7.51413">
        <ele>184</ele>
        <time>2021-08-08T06:54:16Z</time>
      </trkpt>
      <trkpt lat="48.92402" lon="7.51417">
        <ele>184</ele>
        <time>2021-08-08T06:54:17Z</time>
      </trkpt>
      <trkpt lat="48.92402" lon="7.51417">
        <ele>184</ele>
        <time>2021-08-08T06:54:18Z</time>
      </trkpt>
      <trkpt lat="48.92407" lon="7.51427">
        <ele>184</ele>
        <time>2021-08-08T06:54:19Z</time>
      </trkpt>
      <trkpt lat="48.92407" lon="7.51427">
        <ele>184</ele>
        <time>2021-08-08T06:54:20Z</time>
      </trkpt>
      <trkpt lat="48.92411" lon="7.51436">
        <ele>184</ele>
        <time>2021-08-08T06:54:21Z</time>
      </trkpt>
      <trkpt lat="48.92411" lon="7.51436">
        <ele>184</ele>
        <time>2021-08-08T06:54:22Z</time>
      </trkpt>
      <trkpt lat="48.92415" lon="7.51445">
        <ele>184</ele>
        <time>2021-08-08T06:54:23Z</time>
      </trkpt>
      <trkpt lat="48.92415" lon="7.51445">
        <ele>184</ele>
        <time>2021-08-08T06:54:24Z</time>
      </trkpt>
      <trkpt lat="48.92417" lon="7.51454">
        <ele>184</ele>
        <time>2021-08-08T06:54:25Z</time>
      </trkpt>
      <trkpt lat="48.92417" lon="7.51454">
        <ele>184</ele>
        <time>2021-08-08T06:54:26Z</time>
      </trkpt>
      <trkpt lat="48.92419" lon="7.51461">
        <ele>184</ele>
        <time>2021-08-08T06:54:27Z</time>
      </trkpt>
      <trkpt lat="48.92419" lon="7.51461">
        <ele>185</ele>
        <time>2021-08-08T06:54:28Z</time>
      </trkpt>
      <trkpt lat="48.92423" lon="7.51471">
        <ele>185</ele>
        <time>2021-08-08T06:54:29Z</time>
      </trkpt>
      <trkpt lat="48.92423" lon="7.51471">
        <ele>185</ele>
        <time>2021-08-08T06:54:30Z</time>
      </trkpt>
      <trkpt lat="48.92426" lon="7.5148">
        <ele>185</ele>
        <time>2021-08-08T06:54:31Z</time>
      </trkpt>
      <trkpt lat="48.92426" lon="7.5148">
        <ele>185</ele>
        <time>2021-08-08T06:54:32Z</time>
      </trkpt>
      <trkpt lat="48.92428" lon="7.51488">
        <ele>185</ele>
        <time>2021-08-08T06:54:33Z</time>
      </trkpt>
      <trkpt lat="48.9243" lon="7.51491">
        <ele>185</ele>
        <time>2021-08-08T06:54:34Z</time>
      </trkpt>
      <trkpt lat="48.92431" lon="7.51494">
        <ele>185</ele>
        <time>2021-08-08T06:54:35Z</time>
      </trkpt>
      <trkpt lat="48.92432" lon="7.51498">
        <ele>185</ele>
        <time>2021-08-08T06:54:36Z</time>
      </trkpt>
      <trkpt lat="48.92432" lon="7.51498">
        <ele>185</ele>
        <time>2021-08-08T06:54:37Z</time>
      </trkpt>
      <trkpt lat="48.92434" lon="7.51506">
        <ele>186</ele>
        <time>2021-08-08T06:54:38Z</time>
      </trkpt>
      <trkpt lat="48.92436" lon="7.51511">
        <ele>186</ele>
        <time>2021-08-08T06:54:39Z</time>
      </trkpt>
      <trkpt lat="48.92437" lon="7.51515">
        <ele>186</ele>
        <time>2021-08-08T06:54:40Z</time>
      </trkpt>
      <trkpt lat="48.92437" lon="7.51515">
        <ele>186</ele>
        <time>2021-08-08T06:54:41Z</time>
      </trkpt>
      <trkpt lat="48.9244" lon="7.51522">
        <ele>186</ele>
        <time>2021-08-08T06:54:42Z</time>
      </trkpt>
      <trkpt lat="48.9244" lon="7.51522">
        <ele>186</ele>
        <time>2021-08-08T06:54:43Z</time>
      </trkpt>
      <trkpt lat="48.92443" lon="7.51528">
        <ele>186</ele>
        <time>2021-08-08T06:54:44Z</time>
      </trkpt>
      <trkpt lat="48.92444" lon="7.51533">
        <ele>186</ele>
        <time>2021-08-08T06:54:45Z</time>
      </trkpt>
      <trkpt lat="48.92444" lon="7.51533">
        <ele>186</ele>
        <time>2021-08-08T06:54:46Z</time>
      </trkpt>
      <trkpt lat="48.92448" lon="7.51543">
        <ele>186</ele>
        <time>2021-08-08T06:54:47Z</time>
      </trkpt>
      <trkpt lat="48.92448" lon="7.51543">
        <ele>187</ele>
        <time>2021-08-08T06:54:48Z</time>
      </trkpt>
      <trkpt lat="48.92453" lon="7.51554">
        <ele>187</ele>
        <time>2021-08-08T06:54:49Z</time>
      </trkpt>
      <trkpt lat="48.92453" lon="7.51554">
        <ele>187</ele>
        <time>2021-08-08T06:54:50Z</time>
      </trkpt>
      <trkpt lat="48.92458" lon="7.51565">
        <ele>187</ele>
        <time>2021-08-08T06:54:51Z</time>
      </trkpt>
      <trkpt lat="48.92458" lon="7.51565">
        <ele>187</ele>
        <time>2021-08-08T06:54:52Z</time>
      </trkpt>
      <trkpt lat="48.92462" lon="7.51574">
        <ele>187</ele>
        <time>2021-08-08T06:54:53Z</time>
      </trkpt>
      <trkpt lat="48.92464" lon="7.51578">
        <ele>187</ele>
        <time>2021-08-08T06:54:54Z</time>
      </trkpt>
      <trkpt lat="48.92466" lon="7.51583">
        <ele>187</ele>
        <time>2021-08-08T06:54:55Z</time>
      </trkpt>
      <trkpt lat="48.92466" lon="7.51583">
        <ele>187</ele>
        <time>2021-08-08T06:54:56Z</time>
      </trkpt>
      <trkpt lat="48.92468" lon="7.5159">
        <ele>187</ele>
        <time>2021-08-08T06:54:57Z</time>
      </trkpt>
      <trkpt lat="48.92468" lon="7.5159">
        <ele>187</ele>
        <time>2021-08-08T06:54:58Z</time>
      </trkpt>
      <trkpt lat="48.9247" lon="7.51598">
        <ele>187</ele>
        <time>2021-08-08T06:54:59Z</time>
      </trkpt>
      <trkpt lat="48.9247" lon="7.51598">
        <ele>187</ele>
        <time>2021-08-08T06:55:00Z</time>
      </trkpt>
      <trkpt lat="48.92471" lon="7.51605">
        <ele>188</ele>
        <time>2021-08-08T06:55:01Z</time>
      </trkpt>
      <trkpt lat="48.92471" lon="7.51605">
        <ele>188</ele>
        <time>2021-08-08T06:55:02Z</time>
      </trkpt>
      <trkpt lat="48.92473" lon="7.51612">
        <ele>188</ele>
        <time>2021-08-08T06:55:03Z</time>
      </trkpt>
      <trkpt lat="48.92473" lon="7.51612">
        <ele>188</ele>
        <time>2021-08-08T06:55:04Z</time>
      </trkpt>
      <trkpt lat="48.92475" lon="7.5162">
        <ele>188</ele>
        <time>2021-08-08T06:55:05Z</time>
      </trkpt>
      <trkpt lat="48.92475" lon="7.51623">
        <ele>188</ele>
        <time>2021-08-08T06:55:06Z</time>
      </trkpt>
      <trkpt lat="48.92476" lon="7.51626">
        <ele>189</ele>
        <time>2021-08-08T06:55:07Z</time>
      </trkpt>
      <trkpt lat="48.92476" lon="7.51626">
        <ele>189</ele>
        <time>2021-08-08T06:55:08Z</time>
      </trkpt>
      <trkpt lat="48.92477" lon="7.51633">
        <ele>189</ele>
        <time>2021-08-08T06:55:09Z</time>
      </trkpt>
      <trkpt lat="48.92477" lon="7.51633">
        <ele>189</ele>
        <time>2021-08-08T06:55:10Z</time>
      </trkpt>
      <trkpt lat="48.92479" lon="7.51639">
        <ele>190</ele>
        <time>2021-08-08T06:55:11Z</time>
      </trkpt>
      <trkpt lat="48.92479" lon="7.51639">
        <ele>190</ele>
        <time>2021-08-08T06:55:12Z</time>
      </trkpt>
      <trkpt lat="48.9248" lon="7.51646">
        <ele>190</ele>
        <time>2021-08-08T06:55:13Z</time>
      </trkpt>
      <trkpt lat="48.9248" lon="7.51646">
        <ele>190</ele>
        <time>2021-08-08T06:55:14Z</time>
      </trkpt>
      <trkpt lat="48.92482" lon="7.51653">
        <ele>190</ele>
        <time>2021-08-08T06:55:15Z</time>
      </trkpt>
      <trkpt lat="48.92482" lon="7.51653">
        <ele>190</ele>
        <time>2021-08-08T06:55:16Z</time>
      </trkpt>
      <trkpt lat="48.92483" lon="7.51658">
        <ele>190</ele>
        <time>2021-08-08T06:55:17Z</time>
      </trkpt>
      <trkpt lat="48.92483" lon="7.51658">
        <ele>190</ele>
        <time>2021-08-08T06:55:18Z</time>
      </trkpt>
      <trkpt lat="48.92485" lon="7.51664">
        <ele>191</ele>
        <time>2021-08-08T06:55:19Z</time>
      </trkpt>
      <trkpt lat="48.92485" lon="7.51664">
        <ele>191</ele>
        <time>2021-08-08T06:55:20Z</time>
      </trkpt>
      <trkpt lat="48.92489" lon="7.51672">
        <ele>191</ele>
        <time>2021-08-08T06:55:21Z</time>
      </trkpt>
      <trkpt lat="48.9249" lon="7.51675">
        <ele>191</ele>
        <time>2021-08-08T06:55:22Z</time>
      </trkpt>
      <trkpt lat="48.9249" lon="7.51675">
        <ele>191</ele>
        <time>2021-08-08T06:55:23Z</time>
      </trkpt>
      <trkpt lat="48.92492" lon="7.51682">
        <ele>191</ele>
        <time>2021-08-08T06:55:24Z</time>
      </trkpt>
      <trkpt lat="48.92492" lon="7.51684">
        <ele>192</ele>
        <time>2021-08-08T06:55:25Z</time>
      </trkpt>
      <trkpt lat="48.92493" lon="7.51687">
        <ele>192</ele>
        <time>2021-08-08T06:55:26Z</time>
      </trkpt>
      <trkpt lat="48.92493" lon="7.51687">
        <ele>192</ele>
        <time>2021-08-08T06:55:27Z</time>
      </trkpt>
      <trkpt lat="48.92495" lon="7.51693">
        <ele>192</ele>
        <time>2021-08-08T06:55:28Z</time>
      </trkpt>
      <trkpt lat="48.92496" lon="7.51696">
        <ele>192</ele>
        <time>2021-08-08T06:55:29Z</time>
      </trkpt>
      <trkpt lat="48.92496" lon="7.51696">
        <ele>193</ele>
        <time>2021-08-08T06:55:30Z</time>
      </trkpt>
      <trkpt lat="48.92496" lon="7.51699">
        <ele>193</ele>
        <time>2021-08-08T06:55:31Z</time>
      </trkpt>
      <trkpt lat="48.92497" lon="7.51701">
        <ele>193</ele>
        <time>2021-08-08T06:55:32Z</time>
      </trkpt>
      <trkpt lat="48.92498" lon="7.51703">
        <ele>193</ele>
        <time>2021-08-08T06:55:33Z</time>
      </trkpt>
      <trkpt lat="48.92498" lon="7.51703">
        <ele>194</ele>
        <time>2021-08-08T06:55:34Z</time>
      </trkpt>
      <trkpt lat="48.925" lon="7.51709">
        <ele>194</ele>
        <time>2021-08-08T06:55:35Z</time>
      </trkpt>
      <trkpt lat="48.925" lon="7.51709">
        <ele>194</ele>
        <time>2021-08-08T06:55:36Z</time>
      </trkpt>
      <trkpt lat="48.92504" lon="7.51715">
        <ele>194</ele>
        <time>2021-08-08T06:55:37Z</time>
      </trkpt>
      <trkpt lat="48.92506" lon="7.51717">
        <ele>195</ele>
        <time>2021-08-08T06:55:38Z</time>
      </trkpt>
      <trkpt lat="48.92506" lon="7.51717">
        <ele>195</ele>
        <time>2021-08-08T06:55:39Z</time>
      </trkpt>
      <trkpt lat="48.92507" lon="7.51723">
        <ele>195</ele>
        <time>2021-08-08T06:55:40Z</time>
      </trkpt>
      <trkpt lat="48.92509" lon="7.51725">
        <ele>195</ele>
        <time>2021-08-08T06:55:41Z</time>
      </trkpt>
      <trkpt lat="48.92509" lon="7.51725">
        <ele>195</ele>
        <time>2021-08-08T06:55:42Z</time>
      </trkpt>
      <trkpt lat="48.92512" lon="7.5173">
        <ele>195</ele>
        <time>2021-08-08T06:55:43Z</time>
      </trkpt>
      <trkpt lat="48.92512" lon="7.5173">
        <ele>196</ele>
        <time>2021-08-08T06:55:44Z</time>
      </trkpt>
      <trkpt lat="48.92514" lon="7.51735">
        <ele>196</ele>
        <time>2021-08-08T06:55:45Z</time>
      </trkpt>
      <trkpt lat="48.92514" lon="7.51735">
        <ele>196</ele>
        <time>2021-08-08T06:55:46Z</time>
      </trkpt>
      <trkpt lat="48.92517" lon="7.51738">
        <ele>196</ele>
        <time>2021-08-08T06:55:47Z</time>
      </trkpt>
      <trkpt lat="48.92518" lon="7.51741">
        <ele>196</ele>
        <time>2021-08-08T06:55:48Z</time>
      </trkpt>
      <trkpt lat="48.92518" lon="7.51741">
        <ele>196</ele>
        <time>2021-08-08T06:55:49Z</time>
      </trkpt>
      <trkpt lat="48.9252" lon="7.51745">
        <ele>197</ele>
        <time>2021-08-08T06:55:50Z</time>
      </trkpt>
      <trkpt lat="48.9252" lon="7.51745">
        <ele>197</ele>
        <time>2021-08-08T06:55:51Z</time>
      </trkpt>
      <trkpt lat="48.92523" lon="7.51753">
        <ele>197</ele>
        <time>2021-08-08T06:55:52Z</time>
      </trkpt>
      <trkpt lat="48.92523" lon="7.51753">
        <ele>197</ele>
        <time>2021-08-08T06:55:53Z</time>
      </trkpt>
      <trkpt lat="48.92525" lon="7.51758">
        <ele>197</ele>
        <time>2021-08-08T06:55:54Z</time>
      </trkpt>
      <trkpt lat="48.92526" lon="7.5176">
        <ele>197</ele>
        <time>2021-08-08T06:55:55Z</time>
      </trkpt>
      <trkpt lat="48.92526" lon="7.5176">
        <ele>197</ele>
        <time>2021-08-08T06:55:56Z</time>
      </trkpt>
      <trkpt lat="48.92528" lon="7.51765">
        <ele>197</ele>
        <time>2021-08-08T06:55:57Z</time>
      </trkpt>
      <trkpt lat="48.92528" lon="7.51765">
        <ele>197</ele>
        <time>2021-08-08T06:55:58Z</time>
      </trkpt>
      <trkpt lat="48.92531" lon="7.51771">
        <ele>197</ele>
        <time>2021-08-08T06:55:59Z</time>
      </trkpt>
      <trkpt lat="48.92531" lon="7.51771">
        <ele>197</ele>
        <time>2021-08-08T06:56:00Z</time>
      </trkpt>
      <trkpt lat="48.92533" lon="7.51777">
        <ele>197</ele>
        <time>2021-08-08T06:56:01Z</time>
      </trkpt>
      <trkpt lat="48.92534" lon="7.51779">
        <ele>197</ele>
        <time>2021-08-08T06:56:02Z</time>
      </trkpt>
      <trkpt lat="48.92534" lon="7.51779">
        <ele>197</ele>
        <time>2021-08-08T06:56:03Z</time>
      </trkpt>
      <trkpt lat="48.92538" lon="7.51784">
        <ele>197</ele>
        <time>2021-08-08T06:56:04Z</time>
      </trkpt>
      <trkpt lat="48.92538" lon="7.51784">
        <ele>198</ele>
        <time>2021-08-08T06:56:05Z</time>
      </trkpt>
      <trkpt lat="48.92542" lon="7.51789">
        <ele>198</ele>
        <time>2021-08-08T06:56:06Z</time>
      </trkpt>
      <trkpt lat="48.92545" lon="7.51791">
        <ele>198</ele>
        <time>2021-08-08T06:56:07Z</time>
      </trkpt>
      <trkpt lat="48.92545" lon="7.51791">
        <ele>198</ele>
        <time>2021-08-08T06:56:08Z</time>
      </trkpt>
      <trkpt lat="48.92549" lon="7.51794">
        <ele>199</ele>
        <time>2021-08-08T06:56:09Z</time>
      </trkpt>
      <trkpt lat="48.92549" lon="7.51794">
        <ele>199</ele>
        <time>2021-08-08T06:56:10Z</time>
      </trkpt>
      <trkpt lat="48.92553" lon="7.51798">
        <ele>199</ele>
        <time>2021-08-08T06:56:11Z</time>
      </trkpt>
      <trkpt lat="48.92553" lon="7.51798">
        <ele>199</ele>
        <time>2021-08-08T06:56:12Z</time>
      </trkpt>
      <trkpt lat="48.92558" lon="7.51802">
        <ele>199</ele>
        <time>2021-08-08T06:56:13Z</time>
      </trkpt>
      <trkpt lat="48.92558" lon="7.51802">
        <ele>199</ele>
        <time>2021-08-08T06:56:14Z</time>
      </trkpt>
      <trkpt lat="48.92561" lon="7.51805">
        <ele>199</ele>
        <time>2021-08-08T06:56:15Z</time>
      </trkpt>
      <trkpt lat="48.92561" lon="7.51805">
        <ele>199</ele>
        <time>2021-08-08T06:56:16Z</time>
      </trkpt>
      <trkpt lat="48.92565" lon="7.51809">
        <ele>200</ele>
        <time>2021-08-08T06:56:17Z</time>
      </trkpt>
      <trkpt lat="48.92565" lon="7.51809">
        <ele>200</ele>
        <time>2021-08-08T06:56:18Z</time>
      </trkpt>
      <trkpt lat="48.92568" lon="7.51812">
        <ele>200</ele>
        <time>2021-08-08T06:56:19Z</time>
      </trkpt>
      <trkpt lat="48.92568" lon="7.51812">
        <ele>200</ele>
        <time>2021-08-08T06:56:20Z</time>
      </trkpt>
      <trkpt lat="48.92572" lon="7.51815">
        <ele>200</ele>
        <time>2021-08-08T06:56:21Z</time>
      </trkpt>
      <trkpt lat="48.92572" lon="7.51815">
        <ele>201</ele>
        <time>2021-08-08T06:56:22Z</time>
      </trkpt>
      <trkpt lat="48.92576" lon="7.51819">
        <ele>201</ele>
        <time>2021-08-08T06:56:23Z</time>
      </trkpt>
      <trkpt lat="48.92576" lon="7.51819">
        <ele>201</ele>
        <time>2021-08-08T06:56:24Z</time>
      </trkpt>
      <trkpt lat="48.92579" lon="7.51822">
        <ele>201</ele>
        <time>2021-08-08T06:56:25Z</time>
      </trkpt>
      <trkpt lat="48.92579" lon="7.51822">
        <ele>201</ele>
        <time>2021-08-08T06:56:26Z</time>
      </trkpt>
      <trkpt lat="48.92583" lon="7.51825">
        <ele>201</ele>
        <time>2021-08-08T06:56:27Z</time>
      </trkpt>
      <trkpt lat="48.92583" lon="7.51825">
        <ele>201</ele>
        <time>2021-08-08T06:56:28Z</time>
      </trkpt>
      <trkpt lat="48.92586" lon="7.51828">
        <ele>201</ele>
        <time>2021-08-08T06:56:29Z</time>
      </trkpt>
      <trkpt lat="48.92586" lon="7.51828">
        <ele>201</ele>
        <time>2021-08-08T06:56:30Z</time>
      </trkpt>
      <trkpt lat="48.92591" lon="7.51831">
        <ele>201</ele>
        <time>2021-08-08T06:56:31Z</time>
      </trkpt>
      <trkpt lat="48.92591" lon="7.51831">
        <ele>201</ele>
        <time>2021-08-08T06:56:32Z</time>
      </trkpt>
      <trkpt lat="48.92596" lon="7.51834">
        <ele>202</ele>
        <time>2021-08-08T06:56:33Z</time>
      </trkpt>
      <trkpt lat="48.92596" lon="7.51834">
        <ele>202</ele>
        <time>2021-08-08T06:56:34Z</time>
      </trkpt>
      <trkpt lat="48.92601" lon="7.51838">
        <ele>202</ele>
        <time>2021-08-08T06:56:35Z</time>
      </trkpt>
      <trkpt lat="48.92602" lon="7.5184">
        <ele>202</ele>
        <time>2021-08-08T06:56:36Z</time>
      </trkpt>
      <trkpt lat="48.92604" lon="7.51841">
        <ele>202</ele>
        <time>2021-08-08T06:56:37Z</time>
      </trkpt>
      <trkpt lat="48.92604" lon="7.51841">
        <ele>202</ele>
        <time>2021-08-08T06:56:38Z</time>
      </trkpt>
      <trkpt lat="48.92607" lon="7.51845">
        <ele>203</ele>
        <time>2021-08-08T06:56:39Z</time>
      </trkpt>
      <trkpt lat="48.92608" lon="7.51847">
        <ele>203</ele>
        <time>2021-08-08T06:56:40Z</time>
      </trkpt>
      <trkpt lat="48.9261" lon="7.51849">
        <ele>203</ele>
        <time>2021-08-08T06:56:41Z</time>
      </trkpt>
      <trkpt lat="48.9261" lon="7.51849">
        <ele>203</ele>
        <time>2021-08-08T06:56:42Z</time>
      </trkpt>
      <trkpt lat="48.92613" lon="7.51853">
        <ele>204</ele>
        <time>2021-08-08T06:56:43Z</time>
      </trkpt>
      <trkpt lat="48.92613" lon="7.51853">
        <ele>204</ele>
        <time>2021-08-08T06:56:44Z</time>
      </trkpt>
      <trkpt lat="48.92616" lon="7.51857">
        <ele>204</ele>
        <time>2021-08-08T06:56:45Z</time>
      </trkpt>
      <trkpt lat="48.92616" lon="7.51857">
        <ele>204</ele>
        <time>2021-08-08T06:56:46Z</time>
      </trkpt>
      <trkpt lat="48.92619" lon="7.51862">
        <ele>204</ele>
        <time>2021-08-08T06:56:47Z</time>
      </trkpt>
      <trkpt lat="48.92619" lon="7.51862">
        <ele>204</ele>
        <time>2021-08-08T06:56:48Z</time>
      </trkpt>
      <trkpt lat="48.92622" lon="7.51866">
        <ele>205</ele>
        <time>2021-08-08T06:56:49Z</time>
      </trkpt>
      <trkpt lat="48.92622" lon="7.51866">
        <ele>205</ele>
        <time>2021-08-08T06:56:50Z</time>
      </trkpt>
      <trkpt lat="48.92625" lon="7.5187">
        <ele>205</ele>
        <time>2021-08-08T06:56:51Z</time>
      </trkpt>
      <trkpt lat="48.92625" lon="7.5187">
        <ele>205</ele>
        <time>2021-08-08T06:56:52Z</time>
      </trkpt>
      <trkpt lat="48.92627" lon="7.51875">
        <ele>205</ele>
        <time>2021-08-08T06:56:53Z</time>
      </trkpt>
      <trkpt lat="48.92628" lon="7.51877">
        <ele>205</ele>
        <time>2021-08-08T06:56:54Z</time>
      </trkpt>
      <trkpt lat="48.9263" lon="7.51879">
        <ele>206</ele>
        <time>2021-08-08T06:56:55Z</time>
      </trkpt>
      <trkpt lat="48.9263" lon="7.51879">
        <ele>206</ele>
        <time>2021-08-08T06:56:56Z</time>
      </trkpt>
      <trkpt lat="48.92632" lon="7.51886">
        <ele>206</ele>
        <time>2021-08-08T06:56:57Z</time>
      </trkpt>
      <trkpt lat="48.92632" lon="7.51886">
        <ele>206</ele>
        <time>2021-08-08T06:56:58Z</time>
      </trkpt>
      <trkpt lat="48.92635" lon="7.51891">
        <ele>207</ele>
        <time>2021-08-08T06:56:59Z</time>
      </trkpt>
      <trkpt lat="48.92635" lon="7.51891">
        <ele>207</ele>
        <time>2021-08-08T06:57:00Z</time>
      </trkpt>
      <trkpt lat="48.92637" lon="7.51894">
        <ele>207</ele>
        <time>2021-08-08T06:57:01Z</time>
      </trkpt>
      <trkpt lat="48.92637" lon="7.51894">
        <ele>207</ele>
        <time>2021-08-08T06:57:02Z</time>
      </trkpt>
      <trkpt lat="48.9264" lon="7.51897">
        <ele>207</ele>
        <time>2021-08-08T06:57:03Z</time>
      </trkpt>
      <trkpt lat="48.9264" lon="7.51897">
        <ele>207</ele>
        <time>2021-08-08T06:57:04Z</time>
      </trkpt>
      <trkpt lat="48.92642" lon="7.51899">
        <ele>208</ele>
        <time>2021-08-08T06:57:05Z</time>
      </trkpt>
      <trkpt lat="48.92642" lon="7.51899">
        <ele>208</ele>
        <time>2021-08-08T06:57:06Z</time>
      </trkpt>
      <trkpt lat="48.92645" lon="7.51902">
        <ele>208</ele>
        <time>2021-08-08T06:57:07Z</time>
      </trkpt>
      <trkpt lat="48.92645" lon="7.51902">
        <ele>208</ele>
        <time>2021-08-08T06:57:08Z</time>
      </trkpt>
      <trkpt lat="48.92648" lon="7.51907">
        <ele>209</ele>
        <time>2021-08-08T06:57:09Z</time>
      </trkpt>
      <trkpt lat="48.92648" lon="7.51907">
        <ele>209</ele>
        <time>2021-08-08T06:57:10Z</time>
      </trkpt>
      <trkpt lat="48.92652" lon="7.5191">
        <ele>209</ele>
        <time>2021-08-08T06:57:11Z</time>
      </trkpt>
      <trkpt lat="48.92653" lon="7.51912">
        <ele>209</ele>
        <time>2021-08-08T06:57:12Z</time>
      </trkpt>
      <trkpt lat="48.92655" lon="7.51914">
        <ele>209</ele>
        <time>2021-08-08T06:57:13Z</time>
      </trkpt>
      <trkpt lat="48.92655" lon="7.51914">
        <ele>209</ele>
        <time>2021-08-08T06:57:14Z</time>
      </trkpt>
      <trkpt lat="48.92658" lon="7.51917">
        <ele>209</ele>
        <time>2021-08-08T06:57:15Z</time>
      </trkpt>
      <trkpt lat="48.92658" lon="7.51917">
        <ele>209</ele>
        <time>2021-08-08T06:57:16Z</time>
      </trkpt>
      <trkpt lat="48.92661" lon="7.51918">
        <ele>210</ele>
        <time>2021-08-08T06:57:17Z</time>
      </trkpt>
      <trkpt lat="48.92663" lon="7.51919">
        <ele>210</ele>
        <time>2021-08-08T06:57:18Z</time>
      </trkpt>
      <trkpt lat="48.92664" lon="7.51921">
        <ele>210</ele>
        <time>2021-08-08T06:57:19Z</time>
      </trkpt>
      <trkpt lat="48.92664" lon="7.51921">
        <ele>210</ele>
        <time>2021-08-08T06:57:20Z</time>
      </trkpt>
      <trkpt lat="48.92668" lon="7.51924">
        <ele>211</ele>
        <time>2021-08-08T06:57:21Z</time>
      </trkpt>
      <trkpt lat="48.92668" lon="7.51924">
        <ele>211</ele>
        <time>2021-08-08T06:57:22Z</time>
      </trkpt>
      <trkpt lat="48.92671" lon="7.51928">
        <ele>211</ele>
        <time>2021-08-08T06:57:23Z</time>
      </trkpt>
      <trkpt lat="48.92674" lon="7.51931">
        <ele>211</ele>
        <time>2021-08-08T06:57:24Z</time>
      </trkpt>
      <trkpt lat="48.92674" lon="7.51931">
        <ele>211</ele>
        <time>2021-08-08T06:57:25Z</time>
      </trkpt>
      <trkpt lat="48.92679" lon="7.51937">
        <ele>211</ele>
        <time>2021-08-08T06:57:26Z</time>
      </trkpt>
      <trkpt lat="48.92681" lon="7.5194">
        <ele>212</ele>
        <time>2021-08-08T06:57:27Z</time>
      </trkpt>
      <trkpt lat="48.92681" lon="7.5194">
        <ele>212</ele>
        <time>2021-08-08T06:57:28Z</time>
      </trkpt>
      <trkpt lat="48.92684" lon="7.51944">
        <ele>212</ele>
        <time>2021-08-08T06:57:29Z</time>
      </trkpt>
      <trkpt lat="48.92684" lon="7.51944">
        <ele>212</ele>
        <time>2021-08-08T06:57:30Z</time>
      </trkpt>
      <trkpt lat="48.92687" lon="7.5195">
        <ele>213</ele>
        <time>2021-08-08T06:57:31Z</time>
      </trkpt>
      <trkpt lat="48.92687" lon="7.5195">
        <ele>213</ele>
        <time>2021-08-08T06:57:32Z</time>
      </trkpt>
      <trkpt lat="48.92691" lon="7.51954">
        <ele>213</ele>
        <time>2021-08-08T06:57:33Z</time>
      </trkpt>
      <trkpt lat="48.92692" lon="7.51956">
        <ele>213</ele>
        <time>2021-08-08T06:57:34Z</time>
      </trkpt>
      <trkpt lat="48.92692" lon="7.51956">
        <ele>213</ele>
        <time>2021-08-08T06:57:35Z</time>
      </trkpt>
      <trkpt lat="48.92695" lon="7.5196">
        <ele>213</ele>
        <time>2021-08-08T06:57:36Z</time>
      </trkpt>
      <trkpt lat="48.92696" lon="7.51961">
        <ele>213</ele>
        <time>2021-08-08T06:57:37Z</time>
      </trkpt>
      <trkpt lat="48.92696" lon="7.51961">
        <ele>213</ele>
        <time>2021-08-08T06:57:38Z</time>
      </trkpt>
      <trkpt lat="48.92699" lon="7.51966">
        <ele>213</ele>
        <time>2021-08-08T06:57:39Z</time>
      </trkpt>
      <trkpt lat="48.92699" lon="7.51966">
        <ele>213</ele>
        <time>2021-08-08T06:57:40Z</time>
      </trkpt>
      <trkpt lat="48.92703" lon="7.51969">
        <ele>213</ele>
        <time>2021-08-08T06:57:41Z</time>
      </trkpt>
      <trkpt lat="48.92703" lon="7.51969">
        <ele>213</ele>
        <time>2021-08-08T06:57:42Z</time>
      </trkpt>
      <trkpt lat="48.92706" lon="7.51971">
        <ele>214</ele>
        <time>2021-08-08T06:57:43Z</time>
      </trkpt>
      <trkpt lat="48.92706" lon="7.51971">
        <ele>214</ele>
        <time>2021-08-08T06:57:44Z</time>
      </trkpt>
      <trkpt lat="48.9271" lon="7.51973">
        <ele>214</ele>
        <time>2021-08-08T06:57:45Z</time>
      </trkpt>
      <trkpt lat="48.9271" lon="7.51973">
        <ele>214</ele>
        <time>2021-08-08T06:57:46Z</time>
      </trkpt>
      <trkpt lat="48.92713" lon="7.51976">
        <ele>214</ele>
        <time>2021-08-08T06:57:47Z</time>
      </trkpt>
      <trkpt lat="48.92713" lon="7.51976">
        <ele>214</ele>
        <time>2021-08-08T06:57:48Z</time>
      </trkpt>
      <trkpt lat="48.92717" lon="7.51976">
        <ele>214</ele>
        <time>2021-08-08T06:57:49Z</time>
      </trkpt>
      <trkpt lat="48.92717" lon="7.51976">
        <ele>214</ele>
        <time>2021-08-08T06:57:50Z</time>
      </trkpt>
      <trkpt lat="48.92719" lon="7.51975">
        <ele>215</ele>
        <time>2021-08-08T06:57:51Z</time>
      </trkpt>
      <trkpt lat="48.92719" lon="7.51975">
        <ele>215</ele>
        <time>2021-08-08T06:57:52Z</time>
      </trkpt>
      <trkpt lat="48.92721" lon="7.51973">
        <ele>215</ele>
        <time>2021-08-08T06:57:53Z</time>
      </trkpt>
      <trkpt lat="48.92721" lon="7.51973">
        <ele>215</ele>
        <time>2021-08-08T06:57:54Z</time>
      </trkpt>
      <trkpt lat="48.92723" lon="7.51973">
        <ele>216</ele>
        <time>2021-08-08T06:57:55Z</time>
      </trkpt>
      <trkpt lat="48.92723" lon="7.51973">
        <ele>216</ele>
        <time>2021-08-08T06:57:56Z</time>
      </trkpt>
      <trkpt lat="48.92724" lon="7.5197">
        <ele>216</ele>
        <time>2021-08-08T06:57:57Z</time>
      </trkpt>
      <trkpt lat="48.92724" lon="7.5197">
        <ele>216</ele>
        <time>2021-08-08T06:57:58Z</time>
      </trkpt>
      <trkpt lat="48.92725" lon="7.51967">
        <ele>217</ele>
        <time>2021-08-08T06:57:59Z</time>
      </trkpt>
      <trkpt lat="48.92726" lon="7.51965">
        <ele>217</ele>
        <time>2021-08-08T06:58:00Z</time>
      </trkpt>
      <trkpt lat="48.92726" lon="7.51963">
        <ele>217</ele>
        <time>2021-08-08T06:58:01Z</time>
      </trkpt>
      <trkpt lat="48.92726" lon="7.51963">
        <ele>217</ele>
        <time>2021-08-08T06:58:02Z</time>
      </trkpt>
      <trkpt lat="48.92727" lon="7.51959">
        <ele>217</ele>
        <time>2021-08-08T06:58:03Z</time>
      </trkpt>
      <trkpt lat="48.92727" lon="7.51959">
        <ele>217</ele>
        <time>2021-08-08T06:58:04Z</time>
      </trkpt>
      <trkpt lat="48.92727" lon="7.51954">
        <ele>218</ele>
        <time>2021-08-08T06:58:05Z</time>
      </trkpt>
      <trkpt lat="48.92727" lon="7.51954">
        <ele>218</ele>
        <time>2021-08-08T06:58:06Z</time>
      </trkpt>
      <trkpt lat="48.92728" lon="7.51949">
        <ele>218</ele>
        <time>2021-08-08T06:58:07Z</time>
      </trkpt>
      <trkpt lat="48.92728" lon="7.51949">
        <ele>218</ele>
        <time>2021-08-08T06:58:08Z</time>
      </trkpt>
      <trkpt lat="48.92728" lon="7.51945">
        <ele>218</ele>
        <time>2021-08-08T06:58:09Z</time>
      </trkpt>
      <trkpt lat="48.92728" lon="7.51945">
        <ele>218</ele>
        <time>2021-08-08T06:58:10Z</time>
      </trkpt>
      <trkpt lat="48.92729" lon="7.5194">
        <ele>218</ele>
        <time>2021-08-08T06:58:11Z</time>
      </trkpt>
      <trkpt lat="48.9273" lon="7.51937">
        <ele>219</ele>
        <time>2021-08-08T06:58:12Z</time>
      </trkpt>
      <trkpt lat="48.9273" lon="7.51935">
        <ele>219</ele>
        <time>2021-08-08T06:58:13Z</time>
      </trkpt>
      <trkpt lat="48.9273" lon="7.51935">
        <ele>219</ele>
        <time>2021-08-08T06:58:14Z</time>
      </trkpt>
      <trkpt lat="48.92731" lon="7.5193">
        <ele>219</ele>
        <time>2021-08-08T06:58:15Z</time>
      </trkpt>
      <trkpt lat="48.92731" lon="7.5193">
        <ele>219</ele>
        <time>2021-08-08T06:58:16Z</time>
      </trkpt>
      <trkpt lat="48.9273" lon="7.51924">
        <ele>220</ele>
        <time>2021-08-08T06:58:17Z</time>
      </trkpt>
      <trkpt lat="48.9273" lon="7.51924">
        <ele>220</ele>
        <time>2021-08-08T06:58:18Z</time>
      </trkpt>
      <trkpt lat="48.92731" lon="7.51919">
        <ele>220</ele>
        <time>2021-08-08T06:58:19Z</time>
      </trkpt>
      <trkpt lat="48.92731" lon="7.51919">
        <ele>220</ele>
        <time>2021-08-08T06:58:20Z</time>
      </trkpt>
      <trkpt lat="48.9273" lon="7.51915">
        <ele>220</ele>
        <time>2021-08-08T06:58:21Z</time>
      </trkpt>
      <trkpt lat="48.9273" lon="7.51915">
        <ele>221</ele>
        <time>2021-08-08T06:58:22Z</time>
      </trkpt>
      <trkpt lat="48.92731" lon="7.5191">
        <ele>221</ele>
        <time>2021-08-08T06:58:23Z</time>
      </trkpt>
      <trkpt lat="48.92731" lon="7.5191">
        <ele>221</ele>
        <time>2021-08-08T06:58:24Z</time>
      </trkpt>
      <trkpt lat="48.92732" lon="7.51904">
        <ele>221</ele>
        <time>2021-08-08T06:58:25Z</time>
      </trkpt>
      <trkpt lat="48.92734" lon="7.51899">
        <ele>221</ele>
        <time>2021-08-08T06:58:26Z</time>
      </trkpt>
      <trkpt lat="48.92734" lon="7.51895">
        <ele>221</ele>
        <time>2021-08-08T06:58:27Z</time>
      </trkpt>
      <trkpt lat="48.92734" lon="7.51895">
        <ele>221</ele>
        <time>2021-08-08T06:58:28Z</time>
      </trkpt>
      <trkpt lat="48.92735" lon="7.51887">
        <ele>221</ele>
        <time>2021-08-08T06:58:29Z</time>
      </trkpt>
      <trkpt lat="48.92735" lon="7.51887">
        <ele>221</ele>
        <time>2021-08-08T06:58:30Z</time>
      </trkpt>
      <trkpt lat="48.92737" lon="7.51882">
        <ele>221</ele>
        <time>2021-08-08T06:58:31Z</time>
      </trkpt>
      <trkpt lat="48.92737" lon="7.51882">
        <ele>221</ele>
        <time>2021-08-08T06:58:32Z</time>
      </trkpt>
      <trkpt lat="48.92739" lon="7.51878">
        <ele>221</ele>
        <time>2021-08-08T06:58:33Z</time>
      </trkpt>
      <trkpt lat="48.92739" lon="7.51878">
        <ele>222</ele>
        <time>2021-08-08T06:58:34Z</time>
      </trkpt>
      <trkpt lat="48.92741" lon="7.51873">
        <ele>222</ele>
        <time>2021-08-08T06:58:35Z</time>
      </trkpt>
      <trkpt lat="48.92741" lon="7.51873">
        <ele>222</ele>
        <time>2021-08-08T06:58:36Z</time>
      </trkpt>
      <trkpt lat="48.92743" lon="7.51868">
        <ele>222</ele>
        <time>2021-08-08T06:58:37Z</time>
      </trkpt>
      <trkpt lat="48.92743" lon="7.51868">
        <ele>222</ele>
        <time>2021-08-08T06:58:38Z</time>
      </trkpt>
      <trkpt lat="48.92745" lon="7.51863">
        <ele>222</ele>
        <time>2021-08-08T06:58:39Z</time>
      </trkpt>
      <trkpt lat="48.92745" lon="7.51863">
        <ele>223</ele>
        <time>2021-08-08T06:58:40Z</time>
      </trkpt>
      <trkpt lat="48.92747" lon="7.51856">
        <ele>223</ele>
        <time>2021-08-08T06:58:41Z</time>
      </trkpt>
      <trkpt lat="48.92747" lon="7.51853">
        <ele>223</ele>
        <time>2021-08-08T06:58:42Z</time>
      </trkpt>
      <trkpt lat="48.92747" lon="7.51853">
        <ele>223</ele>
        <time>2021-08-08T06:58:43Z</time>
      </trkpt>
      <trkpt lat="48.92748" lon="7.51849">
        <ele>224</ele>
        <time>2021-08-08T06:58:44Z</time>
      </trkpt>
      <trkpt lat="48.92748" lon="7.51847">
        <ele>224</ele>
        <time>2021-08-08T06:58:45Z</time>
      </trkpt>
      <trkpt lat="48.92748" lon="7.51847">
        <ele>224</ele>
        <time>2021-08-08T06:58:46Z</time>
      </trkpt>
      <trkpt lat="48.92749" lon="7.51842">
        <ele>224</ele>
        <time>2021-08-08T06:58:47Z</time>
      </trkpt>
      <trkpt lat="48.92749" lon="7.51842">
        <ele>225</ele>
        <time>2021-08-08T06:58:48Z</time>
      </trkpt>
      <trkpt lat="48.9275" lon="7.51837">
        <ele>225</ele>
        <time>2021-08-08T06:58:49Z</time>
      </trkpt>
      <trkpt lat="48.9275" lon="7.51837">
        <ele>225</ele>
        <time>2021-08-08T06:58:50Z</time>
      </trkpt>
      <trkpt lat="48.92751" lon="7.51832">
        <ele>225</ele>
        <time>2021-08-08T06:58:51Z</time>
      </trkpt>
      <trkpt lat="48.92751" lon="7.51832">
        <ele>226</ele>
        <time>2021-08-08T06:58:52Z</time>
      </trkpt>
      <trkpt lat="48.92751" lon="7.51828">
        <ele>226</ele>
        <time>2021-08-08T06:58:53Z</time>
      </trkpt>
      <trkpt lat="48.92751" lon="7.51826">
        <ele>226</ele>
        <time>2021-08-08T06:58:54Z</time>
      </trkpt>
      <trkpt lat="48.92751" lon="7.51826">
        <ele>226</ele>
        <time>2021-08-08T06:58:55Z</time>
      </trkpt>
      <trkpt lat="48.9275" lon="7.51821">
        <ele>227</ele>
        <time>2021-08-08T06:58:56Z</time>
      </trkpt>
      <trkpt lat="48.9275" lon="7.51821">
        <ele>227</ele>
        <time>2021-08-08T06:58:57Z</time>
      </trkpt>
      <trkpt lat="48.92751" lon="7.51814">
        <ele>227</ele>
        <time>2021-08-08T06:58:58Z</time>
      </trkpt>
      <trkpt lat="48.92752" lon="7.5181">
        <ele>227</ele>
        <time>2021-08-08T06:58:59Z</time>
      </trkpt>
      <trkpt lat="48.92752" lon="7.51806">
        <ele>227</ele>
        <time>2021-08-08T06:59:00Z</time>
      </trkpt>
      <trkpt lat="48.92752" lon="7.51806">
        <ele>227</ele>
        <time>2021-08-08T06:59:01Z</time>
      </trkpt>
      <trkpt lat="48.92751" lon="7.51799">
        <ele>227</ele>
        <time>2021-08-08T06:59:02Z</time>
      </trkpt>
      <trkpt lat="48.92751" lon="7.51799">
        <ele>227</ele>
        <time>2021-08-08T06:59:03Z</time>
      </trkpt>
      <trkpt lat="48.92751" lon="7.51793">
        <ele>228</ele>
        <time>2021-08-08T06:59:04Z</time>
      </trkpt>
      <trkpt lat="48.92751" lon="7.51793">
        <ele>228</ele>
        <time>2021-08-08T06:59:05Z</time>
      </trkpt>
      <trkpt lat="48.92749" lon="7.51787">
        <ele>228</ele>
        <time>2021-08-08T06:59:06Z</time>
      </trkpt>
      <trkpt lat="48.92749" lon="7.51787">
        <ele>228</ele>
        <time>2021-08-08T06:59:07Z</time>
      </trkpt>
      <trkpt lat="48.92749" lon="7.5178">
        <ele>228</ele>
        <time>2021-08-08T06:59:08Z</time>
      </trkpt>
      <trkpt lat="48.92748" lon="7.51776">
        <ele>228</ele>
        <time>2021-08-08T06:59:09Z</time>
      </trkpt>
      <trkpt lat="48.92748" lon="7.51776">
        <ele>228</ele>
        <time>2021-08-08T06:59:10Z</time>
      </trkpt>
      <trkpt lat="48.92748" lon="7.5177">
        <ele>228</ele>
        <time>2021-08-08T06:59:11Z</time>
      </trkpt>
      <trkpt lat="48.92748" lon="7.5177">
        <ele>228</ele>
        <time>2021-08-08T06:59:12Z</time>
      </trkpt>
      <trkpt lat="48.92747" lon="7.51764">
        <ele>228</ele>
        <time>2021-08-08T06:59:13Z</time>
      </trkpt>
      <trkpt lat="48.92747" lon="7.51764">
        <ele>228</ele>
        <time>2021-08-08T06:59:14Z</time>
      </trkpt>
      <trkpt lat="48.92747" lon="7.51758">
        <ele>228</ele>
        <time>2021-08-08T06:59:15Z</time>
      </trkpt>
      <trkpt lat="48.92747" lon="7.51758">
        <ele>228</ele>
        <time>2021-08-08T06:59:16Z</time>
      </trkpt>
      <trkpt lat="48.92746" lon="7.51752">
        <ele>229</ele>
        <time>2021-08-08T06:59:17Z</time>
      </trkpt>
      <trkpt lat="48.92746" lon="7.51752">
        <ele>229</ele>
        <time>2021-08-08T06:59:18Z</time>
      </trkpt>
      <trkpt lat="48.92746" lon="7.51745">
        <ele>229</ele>
        <time>2021-08-08T06:59:19Z</time>
      </trkpt>
      <trkpt lat="48.92746" lon="7.51745">
        <ele>229</ele>
        <time>2021-08-08T06:59:20Z</time>
      </trkpt>
      <trkpt lat="48.92746" lon="7.51739">
        <ele>229</ele>
        <time>2021-08-08T06:59:21Z</time>
      </trkpt>
      <trkpt lat="48.92746" lon="7.51739">
        <ele>229</ele>
        <time>2021-08-08T06:59:22Z</time>
      </trkpt>
      <trkpt lat="48.92746" lon="7.51732">
        <ele>229</ele>
        <time>2021-08-08T06:59:23Z</time>
      </trkpt>
      <trkpt lat="48.92746" lon="7.51728">
        <ele>229</ele>
        <time>2021-08-08T06:59:24Z</time>
      </trkpt>
      <trkpt lat="48.92745" lon="7.51726">
        <ele>230</ele>
        <time>2021-08-08T06:59:25Z</time>
      </trkpt>
      <trkpt lat="48.92745" lon="7.51726">
        <ele>230</ele>
        <time>2021-08-08T06:59:26Z</time>
      </trkpt>
      <trkpt lat="48.92745" lon="7.5172">
        <ele>230</ele>
        <time>2021-08-08T06:59:27Z</time>
      </trkpt>
      <trkpt lat="48.92745" lon="7.5172">
        <ele>230</ele>
        <time>2021-08-08T06:59:28Z</time>
      </trkpt>
      <trkpt lat="48.92746" lon="7.51711">
        <ele>230</ele>
        <time>2021-08-08T06:59:29Z</time>
      </trkpt>
      <trkpt lat="48.92746" lon="7.51711">
        <ele>230</ele>
        <time>2021-08-08T06:59:30Z</time>
      </trkpt>
      <trkpt lat="48.92749" lon="7.51705">
        <ele>231</ele>
        <time>2021-08-08T06:59:31Z</time>
      </trkpt>
      <trkpt lat="48.9275" lon="7.51702">
        <ele>231</ele>
        <time>2021-08-08T06:59:32Z</time>
      </trkpt>
      <trkpt lat="48.9275" lon="7.51702">
        <ele>231</ele>
        <time>2021-08-08T06:59:33Z</time>
      </trkpt>
      <trkpt lat="48.92753" lon="7.51696">
        <ele>231</ele>
        <time>2021-08-08T06:59:34Z</time>
      </trkpt>
      <trkpt lat="48.92753" lon="7.51696">
        <ele>231</ele>
        <time>2021-08-08T06:59:35Z</time>
      </trkpt>
      <trkpt lat="48.92754" lon="7.51691">
        <ele>231</ele>
        <time>2021-08-08T06:59:36Z</time>
      </trkpt>
      <trkpt lat="48.92755" lon="7.5169">
        <ele>232</ele>
        <time>2021-08-08T06:59:37Z</time>
      </trkpt>
      <trkpt lat="48.92755" lon="7.5169">
        <ele>232</ele>
        <time>2021-08-08T06:59:38Z</time>
      </trkpt>
      <trkpt lat="48.92758" lon="7.51688">
        <ele>232</ele>
        <time>2021-08-08T06:59:39Z</time>
      </trkpt>
      <trkpt lat="48.92758" lon="7.51688">
        <ele>232</ele>
        <time>2021-08-08T06:59:40Z</time>
      </trkpt>
      <trkpt lat="48.92761" lon="7.51685">
        <ele>232</ele>
        <time>2021-08-08T06:59:41Z</time>
      </trkpt>
      <trkpt lat="48.92761" lon="7.51685">
        <ele>232</ele>
        <time>2021-08-08T06:59:42Z</time>
      </trkpt>
      <trkpt lat="48.92762" lon="7.51683">
        <ele>233</ele>
        <time>2021-08-08T06:59:43Z</time>
      </trkpt>
      <trkpt lat="48.92762" lon="7.51683">
        <ele>233</ele>
        <time>2021-08-08T06:59:44Z</time>
      </trkpt>
      <trkpt lat="48.92765" lon="7.5168">
        <ele>233</ele>
        <time>2021-08-08T06:59:45Z</time>
      </trkpt>
      <trkpt lat="48.92765" lon="7.5168">
        <ele>233</ele>
        <time>2021-08-08T06:59:46Z</time>
      </trkpt>
      <trkpt lat="48.92768" lon="7.51677">
        <ele>233</ele>
        <time>2021-08-08T06:59:47Z</time>
      </trkpt>
      <trkpt lat="48.92768" lon="7.51677">
        <ele>233</ele>
        <time>2021-08-08T06:59:48Z</time>
      </trkpt>
      <trkpt lat="48.92771" lon="7.51671">
        <ele>233</ele>
        <time>2021-08-08T06:59:49Z</time>
      </trkpt>
      <trkpt lat="48.92771" lon="7.51671">
        <ele>233</ele>
        <time>2021-08-08T06:59:50Z</time>
      </trkpt>
      <trkpt lat="48.92774" lon="7.51667">
        <ele>233</ele>
        <time>2021-08-08T06:59:51Z</time>
      </trkpt>
      <trkpt lat="48.92774" lon="7.51667">
        <ele>233</ele>
        <time>2021-08-08T06:59:52Z</time>
      </trkpt>
      <trkpt lat="48.92776" lon="7.51661">
        <ele>233</ele>
        <time>2021-08-08T06:59:53Z</time>
      </trkpt>
      <trkpt lat="48.92777" lon="7.51658">
        <ele>233</ele>
        <time>2021-08-08T06:59:54Z</time>
      </trkpt>
      <trkpt lat="48.92779" lon="7.51654">
        <ele>233</ele>
        <time>2021-08-08T06:59:55Z</time>
      </trkpt>
      <trkpt lat="48.92779" lon="7.51654">
        <ele>233</ele>
        <time>2021-08-08T06:59:56Z</time>
      </trkpt>
      <trkpt lat="48.92782" lon="7.51648">
        <ele>233</ele>
        <time>2021-08-08T06:59:57Z</time>
      </trkpt>
      <trkpt lat="48.92782" lon="7.51648">
        <ele>233</ele>
        <time>2021-08-08T06:59:58Z</time>
      </trkpt>
      <trkpt lat="48.92785" lon="7.51639">
        <ele>233</ele>
        <time>2021-08-08T06:59:59Z</time>
      </trkpt>
      <trkpt lat="48.92785" lon="7.51639">
        <ele>233</ele>
        <time>2021-08-08T07:00:00Z</time>
      </trkpt>
      <trkpt lat="48.92785" lon="7.51632">
        <ele>233</ele>
        <time>2021-08-08T07:00:01Z</time>
      </trkpt>
      <trkpt lat="48.92785" lon="7.51632">
        <ele>233</ele>
        <time>2021-08-08T07:00:02Z</time>
      </trkpt>
      <trkpt lat="48.92784" lon="7.51625">
        <ele>233</ele>
        <time>2021-08-08T07:00:03Z</time>
      </trkpt>
      <trkpt lat="48.92784" lon="7.51623">
        <ele>234</ele>
        <time>2021-08-08T07:00:04Z</time>
      </trkpt>
      <trkpt lat="48.92783" lon="7.5162">
        <ele>234</ele>
        <time>2021-08-08T07:00:05Z</time>
      </trkpt>
      <trkpt lat="48.92783" lon="7.5162">
        <ele>234</ele>
        <time>2021-08-08T07:00:06Z</time>
      </trkpt>
      <trkpt lat="48.92783" lon="7.51615">
        <ele>234</ele>
        <time>2021-08-08T07:00:07Z</time>
      </trkpt>
      <trkpt lat="48.92783" lon="7.51615">
        <ele>234</ele>
        <time>2021-08-08T07:00:08Z</time>
      </trkpt>
      <trkpt lat="48.92782" lon="7.51609">
        <ele>234</ele>
        <time>2021-08-08T07:00:09Z</time>
      </trkpt>
      <trkpt lat="48.92782" lon="7.51609">
        <ele>234</ele>
        <time>2021-08-08T07:00:10Z</time>
      </trkpt>
      <trkpt lat="48.9278" lon="7.51603">
        <ele>234</ele>
        <time>2021-08-08T07:00:11Z</time>
      </trkpt>
      <trkpt lat="48.9278" lon="7.51603">
        <ele>234</ele>
        <time>2021-08-08T07:00:12Z</time>
      </trkpt>
      <trkpt lat="48.9278" lon="7.51597">
        <ele>234</ele>
        <time>2021-08-08T07:00:13Z</time>
      </trkpt>
      <trkpt lat="48.9278" lon="7.51597">
        <ele>235</ele>
        <time>2021-08-08T07:00:14Z</time>
      </trkpt>
      <trkpt lat="48.92779" lon="7.5159">
        <ele>235</ele>
        <time>2021-08-08T07:00:15Z</time>
      </trkpt>
      <trkpt lat="48.92779" lon="7.5159">
        <ele>235</ele>
        <time>2021-08-08T07:00:16Z</time>
      </trkpt>
      <trkpt lat="48.92778" lon="7.51585">
        <ele>235</ele>
        <time>2021-08-08T07:00:17Z</time>
      </trkpt>
      <trkpt lat="48.92778" lon="7.51585">
        <ele>235</ele>
        <time>2021-08-08T07:00:18Z</time>
      </trkpt>
      <trkpt lat="48.92777" lon="7.51579">
        <ele>235</ele>
        <time>2021-08-08T07:00:19Z</time>
      </trkpt>
      <trkpt lat="48.92778" lon="7.51576">
        <ele>235</ele>
        <time>2021-08-08T07:00:20Z</time>
      </trkpt>
      <trkpt lat="48.92778" lon="7.51574">
        <ele>235</ele>
        <time>2021-08-08T07:00:21Z</time>
      </trkpt>
      <trkpt lat="48.92778" lon="7.51574">
        <ele>236</ele>
        <time>2021-08-08T07:00:22Z</time>
      </trkpt>
      <trkpt lat="48.92779" lon="7.51569">
        <ele>236</ele>
        <time>2021-08-08T07:00:23Z</time>
      </trkpt>
      <trkpt lat="48.92779" lon="7.51569">
        <ele>236</ele>
        <time>2021-08-08T07:00:24Z</time>
      </trkpt>
      <trkpt lat="48.92779" lon="7.51563">
        <ele>236</ele>
        <time>2021-08-08T07:00:25Z</time>
      </trkpt>
      <trkpt lat="48.92779" lon="7.51563">
        <ele>236</ele>
        <time>2021-08-08T07:00:26Z</time>
      </trkpt>
      <trkpt lat="48.9278" lon="7.51556">
        <ele>236</ele>
        <time>2021-08-08T07:00:27Z</time>
      </trkpt>
      <trkpt lat="48.9278" lon="7.51556">
        <ele>236</ele>
        <time>2021-08-08T07:00:28Z</time>
      </trkpt>
      <trkpt lat="48.92781" lon="7.51549">
        <ele>236</ele>
        <time>2021-08-08T07:00:29Z</time>
      </trkpt>
      <trkpt lat="48.92781" lon="7.51549">
        <ele>237</ele>
        <time>2021-08-08T07:00:30Z</time>
      </trkpt>
      <trkpt lat="48.92783" lon="7.51541">
        <ele>237</ele>
        <time>2021-08-08T07:00:31Z</time>
      </trkpt>
      <trkpt lat="48.92783" lon="7.51541">
        <ele>237</ele>
        <time>2021-08-08T07:00:32Z</time>
      </trkpt>
      <trkpt lat="48.92784" lon="7.51535">
        <ele>237</ele>
        <time>2021-08-08T07:00:33Z</time>
      </trkpt>
      <trkpt lat="48.92784" lon="7.51532">
        <ele>238</ele>
        <time>2021-08-08T07:00:34Z</time>
      </trkpt>
      <trkpt lat="48.92784" lon="7.51532">
        <ele>238</ele>
        <time>2021-08-08T07:00:35Z</time>
      </trkpt>
      <trkpt lat="48.92784" lon="7.51526">
        <ele>238</ele>
        <time>2021-08-08T07:00:36Z</time>
      </trkpt>
      <trkpt lat="48.92784" lon="7.51526">
        <ele>238</ele>
        <time>2021-08-08T07:00:37Z</time>
      </trkpt>
      <trkpt lat="48.92785" lon="7.5152">
        <ele>238</ele>
        <time>2021-08-08T07:00:38Z</time>
      </trkpt>
      <trkpt lat="48.92786" lon="7.51517">
        <ele>238</ele>
        <time>2021-08-08T07:00:39Z</time>
      </trkpt>
      <trkpt lat="48.92786" lon="7.51517">
        <ele>238</ele>
        <time>2021-08-08T07:00:40Z</time>
      </trkpt>
      <trkpt lat="48.92788" lon="7.5151">
        <ele>238</ele>
        <time>2021-08-08T07:00:41Z</time>
      </trkpt>
      <trkpt lat="48.92788" lon="7.5151">
        <ele>238</ele>
        <time>2021-08-08T07:00:42Z</time>
      </trkpt>
      <trkpt lat="48.9279" lon="7.51505">
        <ele>238</ele>
        <time>2021-08-08T07:00:43Z</time>
      </trkpt>
      <trkpt lat="48.9279" lon="7.51505">
        <ele>239</ele>
        <time>2021-08-08T07:00:44Z</time>
      </trkpt>
      <trkpt lat="48.92792" lon="7.51499">
        <ele>239</ele>
        <time>2021-08-08T07:00:45Z</time>
      </trkpt>
      <trkpt lat="48.92792" lon="7.51499">
        <ele>239</ele>
        <time>2021-08-08T07:00:46Z</time>
      </trkpt>
      <trkpt lat="48.92792" lon="7.51494">
        <ele>239</ele>
        <time>2021-08-08T07:00:47Z</time>
      </trkpt>
      <trkpt lat="48.92792" lon="7.51494">
        <ele>239</ele>
        <time>2021-08-08T07:00:48Z</time>
      </trkpt>
      <trkpt lat="48.92793" lon="7.51487">
        <ele>239</ele>
        <time>2021-08-08T07:00:49Z</time>
      </trkpt>
      <trkpt lat="48.92793" lon="7.51487">
        <ele>239</ele>
        <time>2021-08-08T07:00:50Z</time>
      </trkpt>
      <trkpt lat="48.92794" lon="7.51481">
        <ele>239</ele>
        <time>2021-08-08T07:00:51Z</time>
      </trkpt>
      <trkpt lat="48.92794" lon="7.51481">
        <ele>239</ele>
        <time>2021-08-08T07:00:52Z</time>
      </trkpt>
      <trkpt lat="48.92795" lon="7.51475">
        <ele>239</ele>
        <time>2021-08-08T07:00:53Z</time>
      </trkpt>
      <trkpt lat="48.92796" lon="7.51472">
        <ele>239</ele>
        <time>2021-08-08T07:00:54Z</time>
      </trkpt>
      <trkpt lat="48.92796" lon="7.51472">
        <ele>239</ele>
        <time>2021-08-08T07:00:55Z</time>
      </trkpt>
      <trkpt lat="48.92795" lon="7.51466">
        <ele>239</ele>
        <time>2021-08-08T07:00:56Z</time>
      </trkpt>
      <trkpt lat="48.92795" lon="7.51465">
        <ele>239</ele>
        <time>2021-08-08T07:00:57Z</time>
      </trkpt>
      <trkpt lat="48.92795" lon="7.51465">
        <ele>240</ele>
        <time>2021-08-08T07:00:58Z</time>
      </trkpt>
      <trkpt lat="48.92794" lon="7.51459">
        <ele>240</ele>
        <time>2021-08-08T07:00:59Z</time>
      </trkpt>
      <trkpt lat="48.92794" lon="7.51459">
        <ele>240</ele>
        <time>2021-08-08T07:01:00Z</time>
      </trkpt>
      <trkpt lat="48.92792" lon="7.51452">
        <ele>240</ele>
        <time>2021-08-08T07:01:01Z</time>
      </trkpt>
      <trkpt lat="48.92792" lon="7.51452">
        <ele>240</ele>
        <time>2021-08-08T07:01:02Z</time>
      </trkpt>
      <trkpt lat="48.9279" lon="7.51445">
        <ele>240</ele>
        <time>2021-08-08T07:01:03Z</time>
      </trkpt>
      <trkpt lat="48.9279" lon="7.51445">
        <ele>240</ele>
        <time>2021-08-08T07:01:04Z</time>
      </trkpt>
      <trkpt lat="48.9279" lon="7.51437">
        <ele>240</ele>
        <time>2021-08-08T07:01:05Z</time>
      </trkpt>
      <trkpt lat="48.92789" lon="7.51432">
        <ele>241</ele>
        <time>2021-08-08T07:01:06Z</time>
      </trkpt>
      <trkpt lat="48.92789" lon="7.51432">
        <ele>241</ele>
        <time>2021-08-08T07:01:07Z</time>
      </trkpt>
      <trkpt lat="48.92788" lon="7.51425">
        <ele>241</ele>
        <time>2021-08-08T07:01:08Z</time>
      </trkpt>
      <trkpt lat="48.92788" lon="7.51423">
        <ele>242</ele>
        <time>2021-08-08T07:01:09Z</time>
      </trkpt>
      <trkpt lat="48.92788" lon="7.5142">
        <ele>242</ele>
        <time>2021-08-08T07:01:10Z</time>
      </trkpt>
      <trkpt lat="48.92788" lon="7.5142">
        <ele>242</ele>
        <time>2021-08-08T07:01:11Z</time>
      </trkpt>
      <trkpt lat="48.92787" lon="7.51415">
        <ele>242</ele>
        <time>2021-08-08T07:01:12Z</time>
      </trkpt>
      <trkpt lat="48.92787" lon="7.51415">
        <ele>243</ele>
        <time>2021-08-08T07:01:13Z</time>
      </trkpt>
      <trkpt lat="48.92788" lon="7.51408">
        <ele>243</ele>
        <time>2021-08-08T07:01:14Z</time>
      </trkpt>
      <trkpt lat="48.92789" lon="7.51405">
        <ele>243</ele>
        <time>2021-08-08T07:01:15Z</time>
      </trkpt>
      <trkpt lat="48.92789" lon="7.51402">
        <ele>243</ele>
        <time>2021-08-08T07:01:16Z</time>
      </trkpt>
      <trkpt lat="48.92789" lon="7.51402">
        <ele>244</ele>
        <time>2021-08-08T07:01:17Z</time>
      </trkpt>
      <trkpt lat="48.9279" lon="7.51397">
        <ele>244</ele>
        <time>2021-08-08T07:01:18Z</time>
      </trkpt>
      <trkpt lat="48.9279" lon="7.51394">
        <ele>244</ele>
        <time>2021-08-08T07:01:19Z</time>
      </trkpt>
      <trkpt lat="48.9279" lon="7.51394">
        <ele>244</ele>
        <time>2021-08-08T07:01:20Z</time>
      </trkpt>
      <trkpt lat="48.92791" lon="7.51388">
        <ele>244</ele>
        <time>2021-08-08T07:01:21Z</time>
      </trkpt>
      <trkpt lat="48.92791" lon="7.51388">
        <ele>244</ele>
        <time>2021-08-08T07:01:22Z</time>
      </trkpt>
      <trkpt lat="48.92793" lon="7.51384">
        <ele>245</ele>
        <time>2021-08-08T07:01:23Z</time>
      </trkpt>
      <trkpt lat="48.92793" lon="7.51384">
        <ele>245</ele>
        <time>2021-08-08T07:01:24Z</time>
      </trkpt>
      <trkpt lat="48.92795" lon="7.5138">
        <ele>245</ele>
        <time>2021-08-08T07:01:25Z</time>
      </trkpt>
      <trkpt lat="48.92795" lon="7.5138">
        <ele>245</ele>
        <time>2021-08-08T07:01:26Z</time>
      </trkpt>
      <trkpt lat="48.92797" lon="7.51378">
        <ele>245</ele>
        <time>2021-08-08T07:01:27Z</time>
      </trkpt>
      <trkpt lat="48.92798" lon="7.51376">
        <ele>245</ele>
        <time>2021-08-08T07:01:28Z</time>
      </trkpt>
      <trkpt lat="48.92799" lon="7.51374">
        <ele>245</ele>
        <time>2021-08-08T07:01:29Z</time>
      </trkpt>
      <trkpt lat="48.92799" lon="7.51374">
        <ele>245</ele>
        <time>2021-08-08T07:01:30Z</time>
      </trkpt>
      <trkpt lat="48.92801" lon="7.51371">
        <ele>245</ele>
        <time>2021-08-08T07:01:31Z</time>
      </trkpt>
      <trkpt lat="48.92801" lon="7.51371">
        <ele>246</ele>
        <time>2021-08-08T07:01:32Z</time>
      </trkpt>
      <trkpt lat="48.92806" lon="7.51361">
        <ele>246</ele>
        <time>2021-08-08T07:01:33Z</time>
      </trkpt>
      <trkpt lat="48.92806" lon="7.51361">
        <ele>246</ele>
        <time>2021-08-08T07:01:34Z</time>
      </trkpt>
      <trkpt lat="48.92809" lon="7.51359">
        <ele>246</ele>
        <time>2021-08-08T07:01:35Z</time>
      </trkpt>
      <trkpt lat="48.92809" lon="7.51359">
        <ele>246</ele>
        <time>2021-08-08T07:01:36Z</time>
      </trkpt>
      <trkpt lat="48.92812" lon="7.51356">
        <ele>246</ele>
        <time>2021-08-08T07:01:37Z</time>
      </trkpt>
      <trkpt lat="48.92812" lon="7.51356">
        <ele>246</ele>
        <time>2021-08-08T07:01:38Z</time>
      </trkpt>
      <trkpt lat="48.92815" lon="7.51355">
        <ele>246</ele>
        <time>2021-08-08T07:01:39Z</time>
      </trkpt>
      <trkpt lat="48.92815" lon="7.51355">
        <ele>246</ele>
        <time>2021-08-08T07:01:40Z</time>
      </trkpt>
      <trkpt lat="48.9282" lon="7.51354">
        <ele>246</ele>
        <time>2021-08-08T07:01:41Z</time>
      </trkpt>
      <trkpt lat="48.92822" lon="7.51353">
        <ele>246</ele>
        <time>2021-08-08T07:01:42Z</time>
      </trkpt>
      <trkpt lat="48.92822" lon="7.51353">
        <ele>247</ele>
        <time>2021-08-08T07:01:43Z</time>
      </trkpt>
      <trkpt lat="48.92826" lon="7.51353">
        <ele>247</ele>
        <time>2021-08-08T07:01:44Z</time>
      </trkpt>
      <trkpt lat="48.92828" lon="7.51354">
        <ele>247</ele>
        <time>2021-08-08T07:01:45Z</time>
      </trkpt>
      <trkpt lat="48.92829" lon="7.51355">
        <ele>247</ele>
        <time>2021-08-08T07:01:46Z</time>
      </trkpt>
      <trkpt lat="48.92829" lon="7.51355">
        <ele>247</ele>
        <time>2021-08-08T07:01:47Z</time>
      </trkpt>
      <trkpt lat="48.92833" lon="7.51357">
        <ele>247</ele>
        <time>2021-08-08T07:01:48Z</time>
      </trkpt>
      <trkpt lat="48.92835" lon="7.51359">
        <ele>248</ele>
        <time>2021-08-08T07:01:49Z</time>
      </trkpt>
      <trkpt lat="48.92835" lon="7.51359">
        <ele>248</ele>
        <time>2021-08-08T07:01:50Z</time>
      </trkpt>
      <trkpt lat="48.92838" lon="7.51362">
        <ele>248</ele>
        <time>2021-08-08T07:01:51Z</time>
      </trkpt>
      <trkpt lat="48.92838" lon="7.51362">
        <ele>248</ele>
        <time>2021-08-08T07:01:52Z</time>
      </trkpt>
      <trkpt lat="48.92841" lon="7.51366">
        <ele>248</ele>
        <time>2021-08-08T07:01:53Z</time>
      </trkpt>
      <trkpt lat="48.92841" lon="7.51366">
        <ele>248</ele>
        <time>2021-08-08T07:01:54Z</time>
      </trkpt>
      <trkpt lat="48.92843" lon="7.5137">
        <ele>248</ele>
        <time>2021-08-08T07:01:55Z</time>
      </trkpt>
      <trkpt lat="48.92843" lon="7.5137">
        <ele>248</ele>
        <time>2021-08-08T07:01:56Z</time>
      </trkpt>
      <trkpt lat="48.92845" lon="7.51372">
        <ele>249</ele>
        <time>2021-08-08T07:01:57Z</time>
      </trkpt>
      <trkpt lat="48.92845" lon="7.51372">
        <ele>249</ele>
        <time>2021-08-08T07:01:58Z</time>
      </trkpt>
      <trkpt lat="48.92847" lon="7.51375">
        <ele>249</ele>
        <time>2021-08-08T07:01:59Z</time>
      </trkpt>
      <trkpt lat="48.92847" lon="7.51375">
        <ele>249</ele>
        <time>2021-08-08T07:02:00Z</time>
      </trkpt>
      <trkpt lat="48.92849" lon="7.51378">
        <ele>250</ele>
        <time>2021-08-08T07:02:01Z</time>
      </trkpt>
      <trkpt lat="48.92849" lon="7.51378">
        <ele>250</ele>
        <time>2021-08-08T07:02:02Z</time>
      </trkpt>
      <trkpt lat="48.9285" lon="7.51383">
        <ele>250</ele>
        <time>2021-08-08T07:02:03Z</time>
      </trkpt>
      <trkpt lat="48.9285" lon="7.51383">
        <ele>250</ele>
        <time>2021-08-08T07:02:04Z</time>
      </trkpt>
      <trkpt lat="48.92851" lon="7.51387">
        <ele>250</ele>
        <time>2021-08-08T07:02:05Z</time>
      </trkpt>
      <trkpt lat="48.92851" lon="7.51387">
        <ele>250</ele>
        <time>2021-08-08T07:02:06Z</time>
      </trkpt>
      <trkpt lat="48.92854" lon="7.51392">
        <ele>250</ele>
        <time>2021-08-08T07:02:07Z</time>
      </trkpt>
      <trkpt lat="48.92854" lon="7.51392">
        <ele>250</ele>
        <time>2021-08-08T07:02:08Z</time>
      </trkpt>
      <trkpt lat="48.92856" lon="7.51396">
        <ele>250</ele>
        <time>2021-08-08T07:02:09Z</time>
      </trkpt>
      <trkpt lat="48.92856" lon="7.51396">
        <ele>250</ele>
        <time>2021-08-08T07:02:10Z</time>
      </trkpt>
      <trkpt lat="48.9286" lon="7.514">
        <ele>250</ele>
        <time>2021-08-08T07:02:11Z</time>
      </trkpt>
      <trkpt lat="48.92861" lon="7.51402">
        <ele>251</ele>
        <time>2021-08-08T07:02:12Z</time>
      </trkpt>
      <trkpt lat="48.92861" lon="7.51402">
        <ele>251</ele>
        <time>2021-08-08T07:02:13Z</time>
      </trkpt>
      <trkpt lat="48.92864" lon="7.51407">
        <ele>251</ele>
        <time>2021-08-08T07:02:14Z</time>
      </trkpt>
      <trkpt lat="48.92865" lon="7.51408">
        <ele>251</ele>
        <time>2021-08-08T07:02:15Z</time>
      </trkpt>
      <trkpt lat="48.92865" lon="7.51408">
        <ele>252</ele>
        <time>2021-08-08T07:02:16Z</time>
      </trkpt>
      <trkpt lat="48.92868" lon="7.51412">
        <ele>252</ele>
        <time>2021-08-08T07:02:17Z</time>
      </trkpt>
      <trkpt lat="48.92868" lon="7.51412">
        <ele>252</ele>
        <time>2021-08-08T07:02:18Z</time>
      </trkpt>
      <trkpt lat="48.92871" lon="7.51416">
        <ele>252</ele>
        <time>2021-08-08T07:02:19Z</time>
      </trkpt>
      <trkpt lat="48.92871" lon="7.51416">
        <ele>252</ele>
        <time>2021-08-08T07:02:20Z</time>
      </trkpt>
      <trkpt lat="48.92874" lon="7.5142">
        <ele>252</ele>
        <time>2021-08-08T07:02:21Z</time>
      </trkpt>
      <trkpt lat="48.92874" lon="7.5142">
        <ele>253</ele>
        <time>2021-08-08T07:02:22Z</time>
      </trkpt>
      <trkpt lat="48.92877" lon="7.51422">
        <ele>253</ele>
        <time>2021-08-08T07:02:23Z</time>
      </trkpt>
      <trkpt lat="48.92877" lon="7.51422">
        <ele>253</ele>
        <time>2021-08-08T07:02:24Z</time>
      </trkpt>
      <trkpt lat="48.92879" lon="7.51427">
        <ele>253</ele>
        <time>2021-08-08T07:02:25Z</time>
      </trkpt>
      <trkpt lat="48.92879" lon="7.51427">
        <ele>253</ele>
        <time>2021-08-08T07:02:26Z</time>
      </trkpt>
      <trkpt lat="48.92881" lon="7.51431">
        <ele>253</ele>
        <time>2021-08-08T07:02:27Z</time>
      </trkpt>
      <trkpt lat="48.92881" lon="7.51431">
        <ele>254</ele>
        <time>2021-08-08T07:02:28Z</time>
      </trkpt>
      <trkpt lat="48.92886" lon="7.51436">
        <ele>254</ele>
        <time>2021-08-08T07:02:29Z</time>
      </trkpt>
      <trkpt lat="48.92886" lon="7.51436">
        <ele>254</ele>
        <time>2021-08-08T07:02:30Z</time>
      </trkpt>
      <trkpt lat="48.92888" lon="7.5144">
        <ele>254</ele>
        <time>2021-08-08T07:02:31Z</time>
      </trkpt>
      <trkpt lat="48.92888" lon="7.5144">
        <ele>254</ele>
        <time>2021-08-08T07:02:32Z</time>
      </trkpt>
      <trkpt lat="48.9289" lon="7.51444">
        <ele>254</ele>
        <time>2021-08-08T07:02:33Z</time>
      </trkpt>
      <trkpt lat="48.9289" lon="7.51444">
        <ele>255</ele>
        <time>2021-08-08T07:02:34Z</time>
      </trkpt>
      <trkpt lat="48.92894" lon="7.51449">
        <ele>255</ele>
        <time>2021-08-08T07:02:35Z</time>
      </trkpt>
      <trkpt lat="48.92894" lon="7.51449">
        <ele>255</ele>
        <time>2021-08-08T07:02:36Z</time>
      </trkpt>
      <trkpt lat="48.92897" lon="7.51453">
        <ele>255</ele>
        <time>2021-08-08T07:02:37Z</time>
      </trkpt>
      <trkpt lat="48.92897" lon="7.51453">
        <ele>255</ele>
        <time>2021-08-08T07:02:38Z</time>
      </trkpt>
      <trkpt lat="48.92898" lon="7.51457">
        <ele>255</ele>
        <time>2021-08-08T07:02:39Z</time>
      </trkpt>
      <trkpt lat="48.92899" lon="7.51458">
        <ele>255</ele>
        <time>2021-08-08T07:02:40Z</time>
      </trkpt>
      <trkpt lat="48.92899" lon="7.51459">
        <ele>255</ele>
        <time>2021-08-08T07:02:41Z</time>
      </trkpt>
      <trkpt lat="48.92899" lon="7.51459">
        <ele>255</ele>
        <time>2021-08-08T07:02:42Z</time>
      </trkpt>
      <trkpt lat="48.92901" lon="7.51463">
        <ele>255</ele>
        <time>2021-08-08T07:02:43Z</time>
      </trkpt>
      <trkpt lat="48.92901" lon="7.51463">
        <ele>257</ele>
        <time>2021-08-08T07:02:44Z</time>
      </trkpt>
      <trkpt lat="48.92903" lon="7.51467">
        <ele>257</ele>
        <time>2021-08-08T07:02:45Z</time>
      </trkpt>
      <trkpt lat="48.92903" lon="7.51467">
        <ele>257</ele>
        <time>2021-08-08T07:02:46Z</time>
      </trkpt>
      <trkpt lat="48.92906" lon="7.51471">
        <ele>257</ele>
        <time>2021-08-08T07:02:47Z</time>
      </trkpt>
      <trkpt lat="48.92906" lon="7.51471">
        <ele>258</ele>
        <time>2021-08-08T07:02:48Z</time>
      </trkpt>
      <trkpt lat="48.92908" lon="7.51475">
        <ele>258</ele>
        <time>2021-08-08T07:02:49Z</time>
      </trkpt>
      <trkpt lat="48.92908" lon="7.51475">
        <ele>258</ele>
        <time>2021-08-08T07:02:50Z</time>
      </trkpt>
      <trkpt lat="48.9291" lon="7.51478">
        <ele>258</ele>
        <time>2021-08-08T07:02:51Z</time>
      </trkpt>
      <trkpt lat="48.9291" lon="7.51478">
        <ele>258</ele>
        <time>2021-08-08T07:02:52Z</time>
      </trkpt>
      <trkpt lat="48.92912" lon="7.51482">
        <ele>258</ele>
        <time>2021-08-08T07:02:53Z</time>
      </trkpt>
      <trkpt lat="48.92912" lon="7.51482">
        <ele>258</ele>
        <time>2021-08-08T07:02:54Z</time>
      </trkpt>
      <trkpt lat="48.92915" lon="7.51487">
        <ele>258</ele>
        <time>2021-08-08T07:02:55Z</time>
      </trkpt>
      <trkpt lat="48.92915" lon="7.51487">
        <ele>259</ele>
        <time>2021-08-08T07:02:56Z</time>
      </trkpt>
      <trkpt lat="48.92917" lon="7.51491">
        <ele>259</ele>
        <time>2021-08-08T07:02:57Z</time>
      </trkpt>
      <trkpt lat="48.92917" lon="7.51491">
        <ele>259</ele>
        <time>2021-08-08T07:02:58Z</time>
      </trkpt>
      <trkpt lat="48.92919" lon="7.51495">
        <ele>259</ele>
        <time>2021-08-08T07:02:59Z</time>
      </trkpt>
      <trkpt lat="48.9292" lon="7.51497">
        <ele>259</ele>
        <time>2021-08-08T07:03:00Z</time>
      </trkpt>
      <trkpt lat="48.92922" lon="7.51499">
        <ele>260</ele>
        <time>2021-08-08T07:03:01Z</time>
      </trkpt>
      <trkpt lat="48.92922" lon="7.51499">
        <ele>260</ele>
        <time>2021-08-08T07:03:02Z</time>
      </trkpt>
      <trkpt lat="48.92924" lon="7.51503">
        <ele>260</ele>
        <time>2021-08-08T07:03:03Z</time>
      </trkpt>
      <trkpt lat="48.92924" lon="7.51503">
        <ele>260</ele>
        <time>2021-08-08T07:03:04Z</time>
      </trkpt>
      <trkpt lat="48.92928" lon="7.51509">
        <ele>260</ele>
        <time>2021-08-08T07:03:05Z</time>
      </trkpt>
      <trkpt lat="48.92928" lon="7.51509">
        <ele>260</ele>
        <time>2021-08-08T07:03:06Z</time>
      </trkpt>
      <trkpt lat="48.9293" lon="7.51515">
        <ele>261</ele>
        <time>2021-08-08T07:03:07Z</time>
      </trkpt>
      <trkpt lat="48.9293" lon="7.51515">
        <ele>261</ele>
        <time>2021-08-08T07:03:08Z</time>
      </trkpt>
      <trkpt lat="48.92932" lon="7.51519">
        <ele>261</ele>
        <time>2021-08-08T07:03:09Z</time>
      </trkpt>
      <trkpt lat="48.92932" lon="7.51519">
        <ele>261</ele>
        <time>2021-08-08T07:03:10Z</time>
      </trkpt>
      <trkpt lat="48.92934" lon="7.51522">
        <ele>261</ele>
        <time>2021-08-08T07:03:11Z</time>
      </trkpt>
      <trkpt lat="48.92934" lon="7.51522">
        <ele>262</ele>
        <time>2021-08-08T07:03:12Z</time>
      </trkpt>
      <trkpt lat="48.92936" lon="7.51524">
        <ele>262</ele>
        <time>2021-08-08T07:03:13Z</time>
      </trkpt>
      <trkpt lat="48.92936" lon="7.51524">
        <ele>262</ele>
        <time>2021-08-08T07:03:14Z</time>
      </trkpt>
      <trkpt lat="48.92939" lon="7.51526">
        <ele>262</ele>
        <time>2021-08-08T07:03:15Z</time>
      </trkpt>
      <trkpt lat="48.92939" lon="7.51526">
        <ele>263</ele>
        <time>2021-08-08T07:03:16Z</time>
      </trkpt>
      <trkpt lat="48.92941" lon="7.5153">
        <ele>263</ele>
        <time>2021-08-08T07:03:17Z</time>
      </trkpt>
      <trkpt lat="48.92941" lon="7.51532">
        <ele>263</ele>
        <time>2021-08-08T07:03:18Z</time>
      </trkpt>
      <trkpt lat="48.92942" lon="7.51534">
        <ele>263</ele>
        <time>2021-08-08T07:03:19Z</time>
      </trkpt>
      <trkpt lat="48.92942" lon="7.51534">
        <ele>264</ele>
        <time>2021-08-08T07:03:20Z</time>
      </trkpt>
      <trkpt lat="48.92944" lon="7.51539">
        <ele>264</ele>
        <time>2021-08-08T07:03:21Z</time>
      </trkpt>
      <trkpt lat="48.92944" lon="7.51539">
        <ele>264</ele>
        <time>2021-08-08T07:03:22Z</time>
      </trkpt>
      <trkpt lat="48.92945" lon="7.51543">
        <ele>264</ele>
        <time>2021-08-08T07:03:23Z</time>
      </trkpt>
      <trkpt lat="48.92945" lon="7.51543">
        <ele>265</ele>
        <time>2021-08-08T07:03:24Z</time>
      </trkpt>
      <trkpt lat="48.92947" lon="7.51548">
        <ele>265</ele>
        <time>2021-08-08T07:03:25Z</time>
      </trkpt>
      <trkpt lat="48.92947" lon="7.51548">
        <ele>265</ele>
        <time>2021-08-08T07:03:26Z</time>
      </trkpt>
      <trkpt lat="48.92949" lon="7.51555">
        <ele>265</ele>
        <time>2021-08-08T07:03:27Z</time>
      </trkpt>
      <trkpt lat="48.92949" lon="7.51555">
        <ele>266</ele>
        <time>2021-08-08T07:03:28Z</time>
      </trkpt>
      <trkpt lat="48.92951" lon="7.5156">
        <ele>266</ele>
        <time>2021-08-08T07:03:29Z</time>
      </trkpt>
      <trkpt lat="48.92951" lon="7.5156">
        <ele>266</ele>
        <time>2021-08-08T07:03:30Z</time>
      </trkpt>
      <trkpt lat="48.92952" lon="7.51564">
        <ele>266</ele>
        <time>2021-08-08T07:03:31Z</time>
      </trkpt>
      <trkpt lat="48.92952" lon="7.51567">
        <ele>266</ele>
        <time>2021-08-08T07:03:32Z</time>
      </trkpt>
      <trkpt lat="48.92952" lon="7.51567">
        <ele>266</ele>
        <time>2021-08-08T07:03:33Z</time>
      </trkpt>
      <trkpt lat="48.92954" lon="7.51573">
        <ele>266</ele>
        <time>2021-08-08T07:03:34Z</time>
      </trkpt>
      <trkpt lat="48.92954" lon="7.51573">
        <ele>266</ele>
        <time>2021-08-08T07:03:35Z</time>
      </trkpt>
      <trkpt lat="48.92957" lon="7.5158">
        <ele>267</ele>
        <time>2021-08-08T07:03:36Z</time>
      </trkpt>
      <trkpt lat="48.92957" lon="7.51583">
        <ele>267</ele>
        <time>2021-08-08T07:03:37Z</time>
      </trkpt>
      <trkpt lat="48.92957" lon="7.51583">
        <ele>267</ele>
        <time>2021-08-08T07:03:38Z</time>
      </trkpt>
      <trkpt lat="48.92958" lon="7.51589">
        <ele>267</ele>
        <time>2021-08-08T07:03:39Z</time>
      </trkpt>
      <trkpt lat="48.9296" lon="7.51591">
        <ele>267</ele>
        <time>2021-08-08T07:03:40Z</time>
      </trkpt>
      <trkpt lat="48.9296" lon="7.51593">
        <ele>267</ele>
        <time>2021-08-08T07:03:41Z</time>
      </trkpt>
      <trkpt lat="48.9296" lon="7.51593">
        <ele>267</ele>
        <time>2021-08-08T07:03:42Z</time>
      </trkpt>
      <trkpt lat="48.92961" lon="7.51597">
        <ele>267</ele>
        <time>2021-08-08T07:03:43Z</time>
      </trkpt>
      <trkpt lat="48.92961" lon="7.51597">
        <ele>267</ele>
        <time>2021-08-08T07:03:44Z</time>
      </trkpt>
      <trkpt lat="48.92963" lon="7.51603">
        <ele>267</ele>
        <time>2021-08-08T07:03:45Z</time>
      </trkpt>
      <trkpt lat="48.92963" lon="7.51605">
        <ele>268</ele>
        <time>2021-08-08T07:03:46Z</time>
      </trkpt>
      <trkpt lat="48.92963" lon="7.51607">
        <ele>268</ele>
        <time>2021-08-08T07:03:47Z</time>
      </trkpt>
      <trkpt lat="48.92963" lon="7.51607">
        <ele>268</ele>
        <time>2021-08-08T07:03:48Z</time>
      </trkpt>
      <trkpt lat="48.92965" lon="7.5161">
        <ele>268</ele>
        <time>2021-08-08T07:03:49Z</time>
      </trkpt>
      <trkpt lat="48.92965" lon="7.5161">
        <ele>269</ele>
        <time>2021-08-08T07:03:50Z</time>
      </trkpt>
      <trkpt lat="48.92967" lon="7.51613">
        <ele>269</ele>
        <time>2021-08-08T07:03:51Z</time>
      </trkpt>
      <trkpt lat="48.92967" lon="7.51613">
        <ele>269</ele>
        <time>2021-08-08T07:03:52Z</time>
      </trkpt>
      <trkpt lat="48.92968" lon="7.51616">
        <ele>269</ele>
        <time>2021-08-08T07:03:53Z</time>
      </trkpt>
      <trkpt lat="48.92968" lon="7.51616">
        <ele>270</ele>
        <time>2021-08-08T07:03:54Z</time>
      </trkpt>
      <trkpt lat="48.92969" lon="7.51618">
        <ele>270</ele>
        <time>2021-08-08T07:03:55Z</time>
      </trkpt>
      <trkpt lat="48.92969" lon="7.51618">
        <ele>270</ele>
        <time>2021-08-08T07:03:56Z</time>
      </trkpt>
      <trkpt lat="48.9297" lon="7.51621">
        <ele>270</ele>
        <time>2021-08-08T07:03:57Z</time>
      </trkpt>
      <trkpt lat="48.9297" lon="7.51621">
        <ele>270</ele>
        <time>2021-08-08T07:03:58Z</time>
      </trkpt>
      <trkpt lat="48.92971" lon="7.51624">
        <ele>270</ele>
        <time>2021-08-08T07:03:59Z</time>
      </trkpt>
      <trkpt lat="48.92971" lon="7.51624">
        <ele>271</ele>
        <time>2021-08-08T07:04:00Z</time>
      </trkpt>
      <trkpt lat="48.92972" lon="7.51628">
        <ele>271</ele>
        <time>2021-08-08T07:04:01Z</time>
      </trkpt>
      <trkpt lat="48.92972" lon="7.51628">
        <ele>271</ele>
        <time>2021-08-08T07:04:02Z</time>
      </trkpt>
      <trkpt lat="48.92973" lon="7.51632">
        <ele>271</ele>
        <time>2021-08-08T07:04:03Z</time>
      </trkpt>
      <trkpt lat="48.92973" lon="7.51632">
        <ele>271</ele>
        <time>2021-08-08T07:04:04Z</time>
      </trkpt>
      <trkpt lat="48.92974" lon="7.5164">
        <ele>271</ele>
        <time>2021-08-08T07:04:05Z</time>
      </trkpt>
      <trkpt lat="48.92974" lon="7.5164">
        <ele>271</ele>
        <time>2021-08-08T07:04:06Z</time>
      </trkpt>
      <trkpt lat="48.92976" lon="7.51647">
        <ele>271</ele>
        <time>2021-08-08T07:04:07Z</time>
      </trkpt>
      <trkpt lat="48.92976" lon="7.51647">
        <ele>272</ele>
        <time>2021-08-08T07:04:08Z</time>
      </trkpt>
      <trkpt lat="48.92978" lon="7.51654">
        <ele>272</ele>
        <time>2021-08-08T07:04:09Z</time>
      </trkpt>
      <trkpt lat="48.92978" lon="7.51654">
        <ele>272</ele>
        <time>2021-08-08T07:04:10Z</time>
      </trkpt>
      <trkpt lat="48.9298" lon="7.51659">
        <ele>272</ele>
        <time>2021-08-08T07:04:11Z</time>
      </trkpt>
      <trkpt lat="48.9298" lon="7.51659">
        <ele>272</ele>
        <time>2021-08-08T07:04:12Z</time>
      </trkpt>
      <trkpt lat="48.92982" lon="7.51664">
        <ele>272</ele>
        <time>2021-08-08T07:04:13Z</time>
      </trkpt>
      <trkpt lat="48.92983" lon="7.51666">
        <ele>273</ele>
        <time>2021-08-08T07:04:14Z</time>
      </trkpt>
      <trkpt lat="48.92983" lon="7.51666">
        <ele>273</ele>
        <time>2021-08-08T07:04:15Z</time>
      </trkpt>
      <trkpt lat="48.92984" lon="7.5167">
        <ele>273</ele>
        <time>2021-08-08T07:04:16Z</time>
      </trkpt>
      <trkpt lat="48.92984" lon="7.5167">
        <ele>273</ele>
        <time>2021-08-08T07:04:17Z</time>
      </trkpt>
      <trkpt lat="48.92985" lon="7.51675">
        <ele>274</ele>
        <time>2021-08-08T07:04:18Z</time>
      </trkpt>
      <trkpt lat="48.92986" lon="7.51677">
        <ele>274</ele>
        <time>2021-08-08T07:04:19Z</time>
      </trkpt>
      <trkpt lat="48.92986" lon="7.51677">
        <ele>274</ele>
        <time>2021-08-08T07:04:20Z</time>
      </trkpt>
      <trkpt lat="48.92988" lon="7.51682">
        <ele>274</ele>
        <time>2021-08-08T07:04:21Z</time>
      </trkpt>
      <trkpt lat="48.92988" lon="7.51682">
        <ele>275</ele>
        <time>2021-08-08T07:04:22Z</time>
      </trkpt>
      <trkpt lat="48.9299" lon="7.51685">
        <ele>275</ele>
        <time>2021-08-08T07:04:23Z</time>
      </trkpt>
      <trkpt lat="48.9299" lon="7.51685">
        <ele>275</ele>
        <time>2021-08-08T07:04:24Z</time>
      </trkpt>
      <trkpt lat="48.92993" lon="7.51689">
        <ele>275</ele>
        <time>2021-08-08T07:04:25Z</time>
      </trkpt>
      <trkpt lat="48.92993" lon="7.51689">
        <ele>275</ele>
        <time>2021-08-08T07:04:26Z</time>
      </trkpt>
      <trkpt lat="48.92995" lon="7.51692">
        <ele>275</ele>
        <time>2021-08-08T07:04:27Z</time>
      </trkpt>
      <trkpt lat="48.92995" lon="7.51692">
        <ele>276</ele>
        <time>2021-08-08T07:04:28Z</time>
      </trkpt>
      <trkpt lat="48.92997" lon="7.51695">
        <ele>276</ele>
        <time>2021-08-08T07:04:29Z</time>
      </trkpt>
      <trkpt lat="48.92997" lon="7.51695">
        <ele>276</ele>
        <time>2021-08-08T07:04:30Z</time>
      </trkpt>
      <trkpt lat="48.92998" lon="7.51698">
        <ele>276</ele>
        <time>2021-08-08T07:04:31Z</time>
      </trkpt>
      <trkpt lat="48.92998" lon="7.51698">
        <ele>277</ele>
        <time>2021-08-08T07:04:32Z</time>
      </trkpt>
      <trkpt lat="48.93" lon="7.51701">
        <ele>277</ele>
        <time>2021-08-08T07:04:33Z</time>
      </trkpt>
      <trkpt lat="48.93" lon="7.51701">
        <ele>277</ele>
        <time>2021-08-08T07:04:34Z</time>
      </trkpt>
      <trkpt lat="48.93003" lon="7.51705">
        <ele>277</ele>
        <time>2021-08-08T07:04:35Z</time>
      </trkpt>
      <trkpt lat="48.93004" lon="7.51707">
        <ele>278</ele>
        <time>2021-08-08T07:04:36Z</time>
      </trkpt>
      <trkpt lat="48.93004" lon="7.51707">
        <ele>278</ele>
        <time>2021-08-08T07:04:37Z</time>
      </trkpt>
      <trkpt lat="48.93007" lon="7.51711">
        <ele>278</ele>
        <time>2021-08-08T07:04:38Z</time>
      </trkpt>
      <trkpt lat="48.93009" lon="7.51713">
        <ele>278</ele>
        <time>2021-08-08T07:04:39Z</time>
      </trkpt>
      <trkpt lat="48.93009" lon="7.51713">
        <ele>279</ele>
        <time>2021-08-08T07:04:40Z</time>
      </trkpt>
      <trkpt lat="48.93012" lon="7.51718">
        <ele>279</ele>
        <time>2021-08-08T07:04:41Z</time>
      </trkpt>
      <trkpt lat="48.93012" lon="7.51718">
        <ele>279</ele>
        <time>2021-08-08T07:04:42Z</time>
      </trkpt>
      <trkpt lat="48.93015" lon="7.51723">
        <ele>279</ele>
        <time>2021-08-08T07:04:43Z</time>
      </trkpt>
      <trkpt lat="48.93015" lon="7.51723">
        <ele>280</ele>
        <time>2021-08-08T07:04:44Z</time>
      </trkpt>
      <trkpt lat="48.93019" lon="7.51726">
        <ele>280</ele>
        <time>2021-08-08T07:04:45Z</time>
      </trkpt>
      <trkpt lat="48.93019" lon="7.51726">
        <ele>280</ele>
        <time>2021-08-08T07:04:46Z</time>
      </trkpt>
      <trkpt lat="48.93021" lon="7.51729">
        <ele>280</ele>
        <time>2021-08-08T07:04:47Z</time>
      </trkpt>
      <trkpt lat="48.93021" lon="7.51729">
        <ele>280</ele>
        <time>2021-08-08T07:04:48Z</time>
      </trkpt>
      <trkpt lat="48.93024" lon="7.51734">
        <ele>280</ele>
        <time>2021-08-08T07:04:49Z</time>
      </trkpt>
      <trkpt lat="48.93024" lon="7.51734">
        <ele>281</ele>
        <time>2021-08-08T07:04:50Z</time>
      </trkpt>
      <trkpt lat="48.93026" lon="7.51736">
        <ele>281</ele>
        <time>2021-08-08T07:04:51Z</time>
      </trkpt>
      <trkpt lat="48.93026" lon="7.51736">
        <ele>281</ele>
        <time>2021-08-08T07:04:52Z</time>
      </trkpt>
      <trkpt lat="48.93028" lon="7.51738">
        <ele>282</ele>
        <time>2021-08-08T07:04:53Z</time>
      </trkpt>
      <trkpt lat="48.93028" lon="7.51739">
        <ele>282</ele>
        <time>2021-08-08T07:04:54Z</time>
      </trkpt>
      <trkpt lat="48.93028" lon="7.51739">
        <ele>282</ele>
        <time>2021-08-08T07:04:55Z</time>
      </trkpt>
      <trkpt lat="48.9303" lon="7.51742">
        <ele>282</ele>
        <time>2021-08-08T07:04:56Z</time>
      </trkpt>
      <trkpt lat="48.9303" lon="7.51742">
        <ele>282</ele>
        <time>2021-08-08T07:04:57Z</time>
      </trkpt>
      <trkpt lat="48.93032" lon="7.51744">
        <ele>283</ele>
        <time>2021-08-08T07:04:58Z</time>
      </trkpt>
      <trkpt lat="48.93032" lon="7.51745">
        <ele>283</ele>
        <time>2021-08-08T07:04:59Z</time>
      </trkpt>
      <trkpt lat="48.93032" lon="7.51745">
        <ele>283</ele>
        <time>2021-08-08T07:05:00Z</time>
      </trkpt>
      <trkpt lat="48.93033" lon="7.51749">
        <ele>283</ele>
        <time>2021-08-08T07:05:01Z</time>
      </trkpt>
      <trkpt lat="48.93033" lon="7.51749">
        <ele>284</ele>
        <time>2021-08-08T07:05:02Z</time>
      </trkpt>
      <trkpt lat="48.93034" lon="7.51752">
        <ele>284</ele>
        <time>2021-08-08T07:05:03Z</time>
      </trkpt>
      <trkpt lat="48.93034" lon="7.51752">
        <ele>284</ele>
        <time>2021-08-08T07:05:04Z</time>
      </trkpt>
      <trkpt lat="48.93036" lon="7.51756">
        <ele>284</ele>
        <time>2021-08-08T07:05:05Z</time>
      </trkpt>
      <trkpt lat="48.93036" lon="7.51756">
        <ele>285</ele>
        <time>2021-08-08T07:05:06Z</time>
      </trkpt>
      <trkpt lat="48.93037" lon="7.5176">
        <ele>285</ele>
        <time>2021-08-08T07:05:07Z</time>
      </trkpt>
      <trkpt lat="48.93037" lon="7.5176">
        <ele>285</ele>
        <time>2021-08-08T07:05:08Z</time>
      </trkpt>
      <trkpt lat="48.93039" lon="7.51765">
        <ele>285</ele>
        <time>2021-08-08T07:05:09Z</time>
      </trkpt>
      <trkpt lat="48.93039" lon="7.51765">
        <ele>286</ele>
        <time>2021-08-08T07:05:10Z</time>
      </trkpt>
      <trkpt lat="48.93041" lon="7.51769">
        <ele>286</ele>
        <time>2021-08-08T07:05:11Z</time>
      </trkpt>
      <trkpt lat="48.93041" lon="7.51769">
        <ele>286</ele>
        <time>2021-08-08T07:05:12Z</time>
      </trkpt>
      <trkpt lat="48.93043" lon="7.51772">
        <ele>286</ele>
        <time>2021-08-08T07:05:13Z</time>
      </trkpt>
      <trkpt lat="48.93043" lon="7.51772">
        <ele>286</ele>
        <time>2021-08-08T07:05:14Z</time>
      </trkpt>
      <trkpt lat="48.93045" lon="7.51776">
        <ele>286</ele>
        <time>2021-08-08T07:05:15Z</time>
      </trkpt>
      <trkpt lat="48.93045" lon="7.51776">
        <ele>286</ele>
        <time>2021-08-08T07:05:16Z</time>
      </trkpt>
      <trkpt lat="48.93046" lon="7.51779">
        <ele>287</ele>
        <time>2021-08-08T07:05:17Z</time>
      </trkpt>
      <trkpt lat="48.93046" lon="7.51781">
        <ele>287</ele>
        <time>2021-08-08T07:05:18Z</time>
      </trkpt>
      <trkpt lat="48.93047" lon="7.51783">
        <ele>287</ele>
        <time>2021-08-08T07:05:19Z</time>
      </trkpt>
      <trkpt lat="48.93047" lon="7.51783">
        <ele>287</ele>
        <time>2021-08-08T07:05:20Z</time>
      </trkpt>
      <trkpt lat="48.93049" lon="7.51785">
        <ele>287</ele>
        <time>2021-08-08T07:05:21Z</time>
      </trkpt>
      <trkpt lat="48.93049" lon="7.51785">
        <ele>287</ele>
        <time>2021-08-08T07:05:22Z</time>
      </trkpt>
      <trkpt lat="48.9305" lon="7.51789">
        <ele>287</ele>
        <time>2021-08-08T07:05:23Z</time>
      </trkpt>
      <trkpt lat="48.93052" lon="7.5179">
        <ele>287</ele>
        <time>2021-08-08T07:05:24Z</time>
      </trkpt>
      <trkpt lat="48.93052" lon="7.5179">
        <ele>287</ele>
        <time>2021-08-08T07:05:25Z</time>
      </trkpt>
      <trkpt lat="48.93053" lon="7.51793">
        <ele>287</ele>
        <time>2021-08-08T07:05:26Z</time>
      </trkpt>
      <trkpt lat="48.93054" lon="7.51795">
        <ele>287</ele>
        <time>2021-08-08T07:05:27Z</time>
      </trkpt>
      <trkpt lat="48.93054" lon="7.51795">
        <ele>287</ele>
        <time>2021-08-08T07:05:28Z</time>
      </trkpt>
      <trkpt lat="48.93056" lon="7.51798">
        <ele>287</ele>
        <time>2021-08-08T07:05:29Z</time>
      </trkpt>
      <trkpt lat="48.93056" lon="7.51798">
        <ele>287</ele>
        <time>2021-08-08T07:05:30Z</time>
      </trkpt>
      <trkpt lat="48.93059" lon="7.518">
        <ele>287</ele>
        <time>2021-08-08T07:05:31Z</time>
      </trkpt>
      <trkpt lat="48.93059" lon="7.518">
        <ele>287</ele>
        <time>2021-08-08T07:05:32Z</time>
      </trkpt>
      <trkpt lat="48.93062" lon="7.51803">
        <ele>287</ele>
        <time>2021-08-08T07:05:33Z</time>
      </trkpt>
      <trkpt lat="48.93062" lon="7.51803">
        <ele>287</ele>
        <time>2021-08-08T07:05:34Z</time>
      </trkpt>
      <trkpt lat="48.93065" lon="7.51805">
        <ele>287</ele>
        <time>2021-08-08T07:05:35Z</time>
      </trkpt>
      <trkpt lat="48.93065" lon="7.51805">
        <ele>287</ele>
        <time>2021-08-08T07:05:36Z</time>
      </trkpt>
      <trkpt lat="48.93067" lon="7.51806">
        <ele>288</ele>
        <time>2021-08-08T07:05:37Z</time>
      </trkpt>
      <trkpt lat="48.93067" lon="7.51806">
        <ele>288</ele>
        <time>2021-08-08T07:05:38Z</time>
      </trkpt>
      <trkpt lat="48.93069" lon="7.51807">
        <ele>288</ele>
        <time>2021-08-08T07:05:39Z</time>
      </trkpt>
      <trkpt lat="48.93069" lon="7.51807">
        <ele>288</ele>
        <time>2021-08-08T07:05:40Z</time>
      </trkpt>
      <trkpt lat="48.93072" lon="7.5181">
        <ele>288</ele>
        <time>2021-08-08T07:05:41Z</time>
      </trkpt>
      <trkpt lat="48.93072" lon="7.5181">
        <ele>288</ele>
        <time>2021-08-08T07:05:42Z</time>
      </trkpt>
      <trkpt lat="48.93076" lon="7.51814">
        <ele>289</ele>
        <time>2021-08-08T07:05:43Z</time>
      </trkpt>
      <trkpt lat="48.93076" lon="7.51814">
        <ele>289</ele>
        <time>2021-08-08T07:05:44Z</time>
      </trkpt>
      <trkpt lat="48.93079" lon="7.51815">
        <ele>289</ele>
        <time>2021-08-08T07:05:45Z</time>
      </trkpt>
      <trkpt lat="48.93079" lon="7.51815">
        <ele>289</ele>
        <time>2021-08-08T07:05:46Z</time>
      </trkpt>
      <trkpt lat="48.93081" lon="7.51817">
        <ele>289</ele>
        <time>2021-08-08T07:05:47Z</time>
      </trkpt>
      <trkpt lat="48.93081" lon="7.51817">
        <ele>290</ele>
        <time>2021-08-08T07:05:48Z</time>
      </trkpt>
      <trkpt lat="48.93082" lon="7.51818">
        <ele>290</ele>
        <time>2021-08-08T07:05:49Z</time>
      </trkpt>
      <trkpt lat="48.93083" lon="7.51818">
        <ele>290</ele>
        <time>2021-08-08T07:05:50Z</time>
      </trkpt>
      <trkpt lat="48.93083" lon="7.51818">
        <ele>290</ele>
        <time>2021-08-08T07:05:51Z</time>
      </trkpt>
      <trkpt lat="48.93085" lon="7.51819">
        <ele>291</ele>
        <time>2021-08-08T07:05:52Z</time>
      </trkpt>
      <trkpt lat="48.93085" lon="7.51819">
        <ele>291</ele>
        <time>2021-08-08T07:05:53Z</time>
      </trkpt>
      <trkpt lat="48.93088" lon="7.5182">
        <ele>291</ele>
        <time>2021-08-08T07:05:54Z</time>
      </trkpt>
      <trkpt lat="48.93088" lon="7.5182">
        <ele>291</ele>
        <time>2021-08-08T07:05:55Z</time>
      </trkpt>
      <trkpt lat="48.93088" lon="7.5182">
        <ele>292</ele>
        <time>2021-08-08T07:05:56Z</time>
      </trkpt>
      <trkpt lat="48.9309" lon="7.51822">
        <ele>292</ele>
        <time>2021-08-08T07:05:57Z</time>
      </trkpt>
      <trkpt lat="48.9309" lon="7.51822">
        <ele>292</ele>
        <time>2021-08-08T07:05:58Z</time>
      </trkpt>
      <trkpt lat="48.93092" lon="7.51822">
        <ele>292</ele>
        <time>2021-08-08T07:05:59Z</time>
      </trkpt>
      <trkpt lat="48.93093" lon="7.51823">
        <ele>293</ele>
        <time>2021-08-08T07:06:00Z</time>
      </trkpt>
      <trkpt lat="48.93094" lon="7.51823">
        <ele>293</ele>
        <time>2021-08-08T07:06:01Z</time>
      </trkpt>
      <trkpt lat="48.93094" lon="7.51823">
        <ele>293</ele>
        <time>2021-08-08T07:06:02Z</time>
      </trkpt>
      <trkpt lat="48.93097" lon="7.51824">
        <ele>293</ele>
        <time>2021-08-08T07:06:03Z</time>
      </trkpt>
      <trkpt lat="48.93097" lon="7.51824">
        <ele>294</ele>
        <time>2021-08-08T07:06:04Z</time>
      </trkpt>
      <trkpt lat="48.93099" lon="7.51825">
        <ele>294</ele>
        <time>2021-08-08T07:06:05Z</time>
      </trkpt>
      <trkpt lat="48.931" lon="7.51825">
        <ele>294</ele>
        <time>2021-08-08T07:06:06Z</time>
      </trkpt>
      <trkpt lat="48.93101" lon="7.51825">
        <ele>294</ele>
        <time>2021-08-08T07:06:07Z</time>
      </trkpt>
      <trkpt lat="48.93101" lon="7.51825">
        <ele>294</ele>
        <time>2021-08-08T07:06:08Z</time>
      </trkpt>
      <trkpt lat="48.93103" lon="7.51824">
        <ele>294</ele>
        <time>2021-08-08T07:06:09Z</time>
      </trkpt>
      <trkpt lat="48.93104" lon="7.51824">
        <ele>294</ele>
        <time>2021-08-08T07:06:10Z</time>
      </trkpt>
      <trkpt lat="48.93106" lon="7.51825">
        <ele>294</ele>
        <time>2021-08-08T07:06:11Z</time>
      </trkpt>
      <trkpt lat="48.93106" lon="7.51825">
        <ele>295</ele>
        <time>2021-08-08T07:06:12Z</time>
      </trkpt>
      <trkpt lat="48.93107" lon="7.51825">
        <ele>295</ele>
        <time>2021-08-08T07:06:13Z</time>
      </trkpt>
      <trkpt lat="48.93107" lon="7.51825">
        <ele>295</ele>
        <time>2021-08-08T07:06:14Z</time>
      </trkpt>
      <trkpt lat="48.9311" lon="7.51825">
        <ele>295</ele>
        <time>2021-08-08T07:06:15Z</time>
      </trkpt>
      <trkpt lat="48.9311" lon="7.51825">
        <ele>295</ele>
        <time>2021-08-08T07:06:16Z</time>
      </trkpt>
      <trkpt lat="48.93112" lon="7.51826">
        <ele>295</ele>
        <time>2021-08-08T07:06:17Z</time>
      </trkpt>
      <trkpt lat="48.93114" lon="7.51827">
        <ele>296</ele>
        <time>2021-08-08T07:06:18Z</time>
      </trkpt>
      <trkpt lat="48.93114" lon="7.51827">
        <ele>296</ele>
        <time>2021-08-08T07:06:19Z</time>
      </trkpt>
      <trkpt lat="48.93118" lon="7.51827">
        <ele>296</ele>
        <time>2021-08-08T07:06:20Z</time>
      </trkpt>
      <trkpt lat="48.93118" lon="7.51827">
        <ele>296</ele>
        <time>2021-08-08T07:06:21Z</time>
      </trkpt>
      <trkpt lat="48.93121" lon="7.51828">
        <ele>297</ele>
        <time>2021-08-08T07:06:22Z</time>
      </trkpt>
      <trkpt lat="48.93122" lon="7.51827">
        <ele>297</ele>
        <time>2021-08-08T07:06:23Z</time>
      </trkpt>
      <trkpt lat="48.93122" lon="7.51827">
        <ele>297</ele>
        <time>2021-08-08T07:06:24Z</time>
      </trkpt>
      <trkpt lat="48.93125" lon="7.51828">
        <ele>297</ele>
        <time>2021-08-08T07:06:25Z</time>
      </trkpt>
      <trkpt lat="48.93125" lon="7.51828">
        <ele>298</ele>
        <time>2021-08-08T07:06:26Z</time>
      </trkpt>
      <trkpt lat="48.93128" lon="7.5183">
        <ele>298</ele>
        <time>2021-08-08T07:06:27Z</time>
      </trkpt>
      <trkpt lat="48.93128" lon="7.5183">
        <ele>298</ele>
        <time>2021-08-08T07:06:28Z</time>
      </trkpt>
      <trkpt lat="48.93132" lon="7.51831">
        <ele>298</ele>
        <time>2021-08-08T07:06:29Z</time>
      </trkpt>
      <trkpt lat="48.93132" lon="7.51831">
        <ele>298</ele>
        <time>2021-08-08T07:06:30Z</time>
      </trkpt>
      <trkpt lat="48.93135" lon="7.51831">
        <ele>298</ele>
        <time>2021-08-08T07:06:31Z</time>
      </trkpt>
      <trkpt lat="48.93135" lon="7.51831">
        <ele>299</ele>
        <time>2021-08-08T07:06:32Z</time>
      </trkpt>
      <trkpt lat="48.93137" lon="7.5183">
        <ele>299</ele>
        <time>2021-08-08T07:06:33Z</time>
      </trkpt>
      <trkpt lat="48.93137" lon="7.5183">
        <ele>299</ele>
        <time>2021-08-08T07:06:34Z</time>
      </trkpt>
      <trkpt lat="48.9314" lon="7.51829">
        <ele>299</ele>
        <time>2021-08-08T07:06:35Z</time>
      </trkpt>
      <trkpt lat="48.9314" lon="7.51829">
        <ele>300</ele>
        <time>2021-08-08T07:06:36Z</time>
      </trkpt>
      <trkpt lat="48.93141" lon="7.51828">
        <ele>300</ele>
        <time>2021-08-08T07:06:37Z</time>
      </trkpt>
      <trkpt lat="48.93141" lon="7.51828">
        <ele>301</ele>
        <time>2021-08-08T07:06:38Z</time>
      </trkpt>
      <trkpt lat="48.93143" lon="7.51828">
        <ele>301</ele>
        <time>2021-08-08T07:06:39Z</time>
      </trkpt>
      <trkpt lat="48.93143" lon="7.51828">
        <ele>301</ele>
        <time>2021-08-08T07:06:40Z</time>
      </trkpt>
      <trkpt lat="48.93144" lon="7.51827">
        <ele>301</ele>
        <time>2021-08-08T07:06:41Z</time>
      </trkpt>
      <trkpt lat="48.93144" lon="7.51827">
        <ele>301</ele>
        <time>2021-08-08T07:06:42Z</time>
      </trkpt>
      <trkpt lat="48.93147" lon="7.51825">
        <ele>301</ele>
        <time>2021-08-08T07:06:43Z</time>
      </trkpt>
      <trkpt lat="48.93147" lon="7.51825">
        <ele>303</ele>
        <time>2021-08-08T07:06:44Z</time>
      </trkpt>
      <trkpt lat="48.93149" lon="7.51824">
        <ele>303</ele>
        <time>2021-08-08T07:06:45Z</time>
      </trkpt>
      <trkpt lat="48.9315" lon="7.51824">
        <ele>303</ele>
        <time>2021-08-08T07:06:46Z</time>
      </trkpt>
      <trkpt lat="48.9315" lon="7.51824">
        <ele>304</ele>
        <time>2021-08-08T07:06:47Z</time>
      </trkpt>
      <trkpt lat="48.93152" lon="7.51822">
        <ele>304</ele>
        <time>2021-08-08T07:06:48Z</time>
      </trkpt>
      <trkpt lat="48.93154" lon="7.51822">
        <ele>305</ele>
        <time>2021-08-08T07:06:49Z</time>
      </trkpt>
      <trkpt lat="48.93154" lon="7.51822">
        <ele>305</ele>
        <time>2021-08-08T07:06:50Z</time>
      </trkpt>
      <trkpt lat="48.93156" lon="7.51821">
        <ele>305</ele>
        <time>2021-08-08T07:06:51Z</time>
      </trkpt>
      <trkpt lat="48.93156" lon="7.51821">
        <ele>305</ele>
        <time>2021-08-08T07:06:52Z</time>
      </trkpt>
      <trkpt lat="48.93158" lon="7.51821">
        <ele>305</ele>
        <time>2021-08-08T07:06:53Z</time>
      </trkpt>
      <trkpt lat="48.93159" lon="7.5182">
        <ele>305</ele>
        <time>2021-08-08T07:06:54Z</time>
      </trkpt>
      <trkpt lat="48.93159" lon="7.5182">
        <ele>305</ele>
        <time>2021-08-08T07:06:55Z</time>
      </trkpt>
      <trkpt lat="48.93162" lon="7.5182">
        <ele>305</ele>
        <time>2021-08-08T07:06:56Z</time>
      </trkpt>
      <trkpt lat="48.93162" lon="7.5182">
        <ele>306</ele>
        <time>2021-08-08T07:06:57Z</time>
      </trkpt>
      <trkpt lat="48.93164" lon="7.51819">
        <ele>306</ele>
        <time>2021-08-08T07:06:58Z</time>
      </trkpt>
      <trkpt lat="48.93164" lon="7.51819">
        <ele>306</ele>
        <time>2021-08-08T07:06:59Z</time>
      </trkpt>
      <trkpt lat="48.93167" lon="7.51817">
        <ele>306</ele>
        <time>2021-08-08T07:07:00Z</time>
      </trkpt>
      <trkpt lat="48.93167" lon="7.51817">
        <ele>306</ele>
        <time>2021-08-08T07:07:01Z</time>
      </trkpt>
      <trkpt lat="48.93169" lon="7.51815">
        <ele>306</ele>
        <time>2021-08-08T07:07:02Z</time>
      </trkpt>
      <trkpt lat="48.93169" lon="7.51815">
        <ele>307</ele>
        <time>2021-08-08T07:07:03Z</time>
      </trkpt>
      <trkpt lat="48.93172" lon="7.51814">
        <ele>307</ele>
        <time>2021-08-08T07:07:04Z</time>
      </trkpt>
      <trkpt lat="48.93173" lon="7.51814">
        <ele>307</ele>
        <time>2021-08-08T07:07:05Z</time>
      </trkpt>
      <trkpt lat="48.93173" lon="7.51814">
        <ele>307</ele>
        <time>2021-08-08T07:07:06Z</time>
      </trkpt>
      <trkpt lat="48.93175" lon="7.51813">
        <ele>308</ele>
        <time>2021-08-08T07:07:07Z</time>
      </trkpt>
      <trkpt lat="48.93175" lon="7.51813">
        <ele>308</ele>
        <time>2021-08-08T07:07:08Z</time>
      </trkpt>
      <trkpt lat="48.93178" lon="7.51812">
        <ele>308</ele>
        <time>2021-08-08T07:07:09Z</time>
      </trkpt>
      <trkpt lat="48.93178" lon="7.51812">
        <ele>308</ele>
        <time>2021-08-08T07:07:10Z</time>
      </trkpt>
      <trkpt lat="48.93181" lon="7.51811">
        <ele>308</ele>
        <time>2021-08-08T07:07:11Z</time>
      </trkpt>
      <trkpt lat="48.93181" lon="7.51811">
        <ele>308</ele>
        <time>2021-08-08T07:07:12Z</time>
      </trkpt>
      <trkpt lat="48.93184" lon="7.51811">
        <ele>308</ele>
        <time>2021-08-08T07:07:13Z</time>
      </trkpt>
      <trkpt lat="48.93184" lon="7.51811">
        <ele>308</ele>
        <time>2021-08-08T07:07:14Z</time>
      </trkpt>
      <trkpt lat="48.93187" lon="7.5181">
        <ele>308</ele>
        <time>2021-08-08T07:07:15Z</time>
      </trkpt>
      <trkpt lat="48.93188" lon="7.5181">
        <ele>308</ele>
        <time>2021-08-08T07:07:16Z</time>
      </trkpt>
      <trkpt lat="48.93188" lon="7.5181">
        <ele>308</ele>
        <time>2021-08-08T07:07:17Z</time>
      </trkpt>
      <trkpt lat="48.93191" lon="7.5181">
        <ele>308</ele>
        <time>2021-08-08T07:07:18Z</time>
      </trkpt>
      <trkpt lat="48.93192" lon="7.5181">
        <ele>309</ele>
        <time>2021-08-08T07:07:19Z</time>
      </trkpt>
      <trkpt lat="48.93192" lon="7.5181">
        <ele>309</ele>
        <time>2021-08-08T07:07:20Z</time>
      </trkpt>
      <trkpt lat="48.93196" lon="7.5181">
        <ele>309</ele>
        <time>2021-08-08T07:07:21Z</time>
      </trkpt>
      <trkpt lat="48.93196" lon="7.5181">
        <ele>309</ele>
        <time>2021-08-08T07:07:22Z</time>
      </trkpt>
      <trkpt lat="48.93198" lon="7.51809">
        <ele>309</ele>
        <time>2021-08-08T07:07:23Z</time>
      </trkpt>
      <trkpt lat="48.93198" lon="7.51809">
        <ele>309</ele>
        <time>2021-08-08T07:07:24Z</time>
      </trkpt>
      <trkpt lat="48.93202" lon="7.51809">
        <ele>309</ele>
        <time>2021-08-08T07:07:25Z</time>
      </trkpt>
      <trkpt lat="48.93204" lon="7.51809">
        <ele>309</ele>
        <time>2021-08-08T07:07:26Z</time>
      </trkpt>
      <trkpt lat="48.93204" lon="7.51809">
        <ele>309</ele>
        <time>2021-08-08T07:07:27Z</time>
      </trkpt>
      <trkpt lat="48.93207" lon="7.51809">
        <ele>309</ele>
        <time>2021-08-08T07:07:28Z</time>
      </trkpt>
      <trkpt lat="48.93207" lon="7.51809">
        <ele>309</ele>
        <time>2021-08-08T07:07:29Z</time>
      </trkpt>
      <trkpt lat="48.93211" lon="7.51809">
        <ele>309</ele>
        <time>2021-08-08T07:07:30Z</time>
      </trkpt>
      <trkpt lat="48.93211" lon="7.51809">
        <ele>309</ele>
        <time>2021-08-08T07:07:31Z</time>
      </trkpt>
      <trkpt lat="48.93214" lon="7.51808">
        <ele>309</ele>
        <time>2021-08-08T07:07:32Z</time>
      </trkpt>
      <trkpt lat="48.93214" lon="7.51808">
        <ele>309</ele>
        <time>2021-08-08T07:07:33Z</time>
      </trkpt>
      <trkpt lat="48.93217" lon="7.51808">
        <ele>309</ele>
        <time>2021-08-08T07:07:34Z</time>
      </trkpt>
      <trkpt lat="48.93219" lon="7.51809">
        <ele>309</ele>
        <time>2021-08-08T07:07:35Z</time>
      </trkpt>
      <trkpt lat="48.93219" lon="7.51809">
        <ele>309</ele>
        <time>2021-08-08T07:07:36Z</time>
      </trkpt>
      <trkpt lat="48.93222" lon="7.51811">
        <ele>309</ele>
        <time>2021-08-08T07:07:37Z</time>
      </trkpt>
      <trkpt lat="48.93222" lon="7.51811">
        <ele>309</ele>
        <time>2021-08-08T07:07:38Z</time>
      </trkpt>
      <trkpt lat="48.93227" lon="7.51814">
        <ele>309</ele>
        <time>2021-08-08T07:07:39Z</time>
      </trkpt>
      <trkpt lat="48.93227" lon="7.51814">
        <ele>309</ele>
        <time>2021-08-08T07:07:40Z</time>
      </trkpt>
      <trkpt lat="48.93233" lon="7.51817">
        <ele>309</ele>
        <time>2021-08-08T07:07:41Z</time>
      </trkpt>
      <trkpt lat="48.93233" lon="7.51817">
        <ele>309</ele>
        <time>2021-08-08T07:07:42Z</time>
      </trkpt>
      <trkpt lat="48.93238" lon="7.51819">
        <ele>309</ele>
        <time>2021-08-08T07:07:43Z</time>
      </trkpt>
      <trkpt lat="48.93238" lon="7.51819">
        <ele>309</ele>
        <time>2021-08-08T07:07:44Z</time>
      </trkpt>
      <trkpt lat="48.93244" lon="7.51822">
        <ele>309</ele>
        <time>2021-08-08T07:07:45Z</time>
      </trkpt>
      <trkpt lat="48.93244" lon="7.51822">
        <ele>309</ele>
        <time>2021-08-08T07:07:46Z</time>
      </trkpt>
      <trkpt lat="48.93249" lon="7.51826">
        <ele>309</ele>
        <time>2021-08-08T07:07:47Z</time>
      </trkpt>
      <trkpt lat="48.93249" lon="7.51826">
        <ele>309</ele>
        <time>2021-08-08T07:07:48Z</time>
      </trkpt>
      <trkpt lat="48.93255" lon="7.5183">
        <ele>309</ele>
        <time>2021-08-08T07:07:49Z</time>
      </trkpt>
      <trkpt lat="48.93258" lon="7.51831">
        <ele>309</ele>
        <time>2021-08-08T07:07:50Z</time>
      </trkpt>
      <trkpt lat="48.93258" lon="7.51831">
        <ele>309</ele>
        <time>2021-08-08T07:07:51Z</time>
      </trkpt>
      <trkpt lat="48.93266" lon="7.51835">
        <ele>309</ele>
        <time>2021-08-08T07:07:52Z</time>
      </trkpt>
      <trkpt lat="48.93269" lon="7.51838">
        <ele>309</ele>
        <time>2021-08-08T07:07:53Z</time>
      </trkpt>
      <trkpt lat="48.93269" lon="7.51838">
        <ele>309</ele>
        <time>2021-08-08T07:07:54Z</time>
      </trkpt>
      <trkpt lat="48.93275" lon="7.51842">
        <ele>309</ele>
        <time>2021-08-08T07:07:55Z</time>
      </trkpt>
      <trkpt lat="48.93275" lon="7.51842">
        <ele>309</ele>
        <time>2021-08-08T07:07:56Z</time>
      </trkpt>
      <trkpt lat="48.93282" lon="7.51846">
        <ele>309</ele>
        <time>2021-08-08T07:07:57Z</time>
      </trkpt>
      <trkpt lat="48.93282" lon="7.51846">
        <ele>309</ele>
        <time>2021-08-08T07:07:58Z</time>
      </trkpt>
      <trkpt lat="48.93287" lon="7.5185">
        <ele>309</ele>
        <time>2021-08-08T07:07:59Z</time>
      </trkpt>
      <trkpt lat="48.93287" lon="7.5185">
        <ele>309</ele>
        <time>2021-08-08T07:08:00Z</time>
      </trkpt>
      <trkpt lat="48.93292" lon="7.51854">
        <ele>309</ele>
        <time>2021-08-08T07:08:01Z</time>
      </trkpt>
      <trkpt lat="48.93292" lon="7.51854">
        <ele>309</ele>
        <time>2021-08-08T07:08:02Z</time>
      </trkpt>
      <trkpt lat="48.93297" lon="7.51858">
        <ele>309</ele>
        <time>2021-08-08T07:08:03Z</time>
      </trkpt>
      <trkpt lat="48.93297" lon="7.51858">
        <ele>309</ele>
        <time>2021-08-08T07:08:04Z</time>
      </trkpt>
      <trkpt lat="48.93301" lon="7.51862">
        <ele>309</ele>
        <time>2021-08-08T07:08:05Z</time>
      </trkpt>
      <trkpt lat="48.93304" lon="7.51864">
        <ele>309</ele>
        <time>2021-08-08T07:08:06Z</time>
      </trkpt>
      <trkpt lat="48.93304" lon="7.51864">
        <ele>309</ele>
        <time>2021-08-08T07:08:07Z</time>
      </trkpt>
      <trkpt lat="48.93308" lon="7.51869">
        <ele>309</ele>
        <time>2021-08-08T07:08:08Z</time>
      </trkpt>
      <trkpt lat="48.93308" lon="7.51869">
        <ele>309</ele>
        <time>2021-08-08T07:08:09Z</time>
      </trkpt>
      <trkpt lat="48.93313" lon="7.51874">
        <ele>309</ele>
        <time>2021-08-08T07:08:10Z</time>
      </trkpt>
      <trkpt lat="48.93313" lon="7.51874">
        <ele>309</ele>
        <time>2021-08-08T07:08:11Z</time>
      </trkpt>
      <trkpt lat="48.93319" lon="7.5188">
        <ele>309</ele>
        <time>2021-08-08T07:08:12Z</time>
      </trkpt>
      <trkpt lat="48.93319" lon="7.5188">
        <ele>309</ele>
        <time>2021-08-08T07:08:13Z</time>
      </trkpt>
      <trkpt lat="48.93324" lon="7.51884">
        <ele>309</ele>
        <time>2021-08-08T07:08:14Z</time>
      </trkpt>
      <trkpt lat="48.93324" lon="7.51884">
        <ele>309</ele>
        <time>2021-08-08T07:08:15Z</time>
      </trkpt>
      <trkpt lat="48.9333" lon="7.51889">
        <ele>309</ele>
        <time>2021-08-08T07:08:16Z</time>
      </trkpt>
      <trkpt lat="48.93332" lon="7.51891">
        <ele>309</ele>
        <time>2021-08-08T07:08:17Z</time>
      </trkpt>
      <trkpt lat="48.93332" lon="7.51891">
        <ele>309</ele>
        <time>2021-08-08T07:08:18Z</time>
      </trkpt>
      <trkpt lat="48.93337" lon="7.51895">
        <ele>309</ele>
        <time>2021-08-08T07:08:19Z</time>
      </trkpt>
      <trkpt lat="48.93339" lon="7.51898">
        <ele>309</ele>
        <time>2021-08-08T07:08:20Z</time>
      </trkpt>
      <trkpt lat="48.93342" lon="7.519">
        <ele>309</ele>
        <time>2021-08-08T07:08:21Z</time>
      </trkpt>
      <trkpt lat="48.93346" lon="7.51906">
        <ele>309</ele>
        <time>2021-08-08T07:08:22Z</time>
      </trkpt>
      <trkpt lat="48.93346" lon="7.51906">
        <ele>309</ele>
        <time>2021-08-08T07:08:23Z</time>
      </trkpt>
      <trkpt lat="48.93355" lon="7.51914">
        <ele>309</ele>
        <time>2021-08-08T07:08:24Z</time>
      </trkpt>
      <trkpt lat="48.93355" lon="7.51914">
        <ele>309</ele>
        <time>2021-08-08T07:08:25Z</time>
      </trkpt>
      <trkpt lat="48.93361" lon="7.5192">
        <ele>309</ele>
        <time>2021-08-08T07:08:26Z</time>
      </trkpt>
      <trkpt lat="48.93364" lon="7.51922">
        <ele>309</ele>
        <time>2021-08-08T07:08:27Z</time>
      </trkpt>
      <trkpt lat="48.93364" lon="7.51922">
        <ele>309</ele>
        <time>2021-08-08T07:08:28Z</time>
      </trkpt>
      <trkpt lat="48.9337" lon="7.51927">
        <ele>309</ele>
        <time>2021-08-08T07:08:29Z</time>
      </trkpt>
      <trkpt lat="48.9337" lon="7.51927">
        <ele>309</ele>
        <time>2021-08-08T07:08:30Z</time>
      </trkpt>
      <trkpt lat="48.93376" lon="7.51931">
        <ele>309</ele>
        <time>2021-08-08T07:08:31Z</time>
      </trkpt>
      <trkpt lat="48.93379" lon="7.51934">
        <ele>309</ele>
        <time>2021-08-08T07:08:32Z</time>
      </trkpt>
      <trkpt lat="48.93379" lon="7.51934">
        <ele>309</ele>
        <time>2021-08-08T07:08:33Z</time>
      </trkpt>
      <trkpt lat="48.93384" lon="7.51939">
        <ele>309</ele>
        <time>2021-08-08T07:08:34Z</time>
      </trkpt>
      <trkpt lat="48.93386" lon="7.51941">
        <ele>310</ele>
        <time>2021-08-08T07:08:35Z</time>
      </trkpt>
      <trkpt lat="48.93386" lon="7.51941">
        <ele>310</ele>
        <time>2021-08-08T07:08:36Z</time>
      </trkpt>
      <trkpt lat="48.93391" lon="7.51945">
        <ele>310</ele>
        <time>2021-08-08T07:08:37Z</time>
      </trkpt>
      <trkpt lat="48.93394" lon="7.51948">
        <ele>310</ele>
        <time>2021-08-08T07:08:38Z</time>
      </trkpt>
      <trkpt lat="48.93394" lon="7.51948">
        <ele>310</ele>
        <time>2021-08-08T07:08:39Z</time>
      </trkpt>
      <trkpt lat="48.934" lon="7.51955">
        <ele>310</ele>
        <time>2021-08-08T07:08:40Z</time>
      </trkpt>
      <trkpt lat="48.93403" lon="7.51958">
        <ele>310</ele>
        <time>2021-08-08T07:08:41Z</time>
      </trkpt>
      <trkpt lat="48.93403" lon="7.51958">
        <ele>310</ele>
        <time>2021-08-08T07:08:42Z</time>
      </trkpt>
      <trkpt lat="48.93409" lon="7.51965">
        <ele>310</ele>
        <time>2021-08-08T07:08:43Z</time>
      </trkpt>
      <trkpt lat="48.93409" lon="7.51965">
        <ele>310</ele>
        <time>2021-08-08T07:08:44Z</time>
      </trkpt>
      <trkpt lat="48.93416" lon="7.51971">
        <ele>310</ele>
        <time>2021-08-08T07:08:45Z</time>
      </trkpt>
      <trkpt lat="48.93416" lon="7.51971">
        <ele>310</ele>
        <time>2021-08-08T07:08:46Z</time>
      </trkpt>
      <trkpt lat="48.93422" lon="7.51974">
        <ele>310</ele>
        <time>2021-08-08T07:08:47Z</time>
      </trkpt>
      <trkpt lat="48.93422" lon="7.51974">
        <ele>310</ele>
        <time>2021-08-08T07:08:48Z</time>
      </trkpt>
      <trkpt lat="48.93429" lon="7.51978">
        <ele>310</ele>
        <time>2021-08-08T07:08:49Z</time>
      </trkpt>
      <trkpt lat="48.93429" lon="7.51978">
        <ele>310</ele>
        <time>2021-08-08T07:08:50Z</time>
      </trkpt>
      <trkpt lat="48.93434" lon="7.5198">
        <ele>311</ele>
        <time>2021-08-08T07:08:51Z</time>
      </trkpt>
      <trkpt lat="48.93435" lon="7.5198">
        <ele>311</ele>
        <time>2021-08-08T07:08:52Z</time>
      </trkpt>
      <trkpt lat="48.93439" lon="7.51982">
        <ele>311</ele>
        <time>2021-08-08T07:08:53Z</time>
      </trkpt>
      <trkpt lat="48.93439" lon="7.51982">
        <ele>311</ele>
        <time>2021-08-08T07:08:54Z</time>
      </trkpt>
      <trkpt lat="48.93446" lon="7.51986">
        <ele>312</ele>
        <time>2021-08-08T07:08:55Z</time>
      </trkpt>
      <trkpt lat="48.93446" lon="7.51986">
        <ele>312</ele>
        <time>2021-08-08T07:08:56Z</time>
      </trkpt>
      <trkpt lat="48.9345" lon="7.51987">
        <ele>313</ele>
        <time>2021-08-08T07:08:57Z</time>
      </trkpt>
      <trkpt lat="48.9345" lon="7.51987">
        <ele>313</ele>
        <time>2021-08-08T07:08:58Z</time>
      </trkpt>
      <trkpt lat="48.93453" lon="7.5199">
        <ele>313</ele>
        <time>2021-08-08T07:08:59Z</time>
      </trkpt>
      <trkpt lat="48.93453" lon="7.5199">
        <ele>313</ele>
        <time>2021-08-08T07:09:00Z</time>
      </trkpt>
      <trkpt lat="48.93455" lon="7.51992">
        <ele>313</ele>
        <time>2021-08-08T07:09:01Z</time>
      </trkpt>
      <trkpt lat="48.93455" lon="7.51992">
        <ele>313</ele>
        <time>2021-08-08T07:09:02Z</time>
      </trkpt>
      <trkpt lat="48.93459" lon="7.51992">
        <ele>314</ele>
        <time>2021-08-08T07:09:03Z</time>
      </trkpt>
      <trkpt lat="48.93459" lon="7.51992">
        <ele>314</ele>
        <time>2021-08-08T07:09:04Z</time>
      </trkpt>
      <trkpt lat="48.93463" lon="7.51996">
        <ele>314</ele>
        <time>2021-08-08T07:09:05Z</time>
      </trkpt>
      <trkpt lat="48.93463" lon="7.51996">
        <ele>314</ele>
        <time>2021-08-08T07:09:06Z</time>
      </trkpt>
      <trkpt lat="48.93468" lon="7.52">
        <ele>314</ele>
        <time>2021-08-08T07:09:07Z</time>
      </trkpt>
      <trkpt lat="48.93468" lon="7.52">
        <ele>314</ele>
        <time>2021-08-08T07:09:08Z</time>
      </trkpt>
      <trkpt lat="48.93472" lon="7.52003">
        <ele>315</ele>
        <time>2021-08-08T07:09:09Z</time>
      </trkpt>
      <trkpt lat="48.93472" lon="7.52003">
        <ele>315</ele>
        <time>2021-08-08T07:09:10Z</time>
      </trkpt>
      <trkpt lat="48.93476" lon="7.52007">
        <ele>315</ele>
        <time>2021-08-08T07:09:11Z</time>
      </trkpt>
      <trkpt lat="48.93476" lon="7.52007">
        <ele>315</ele>
        <time>2021-08-08T07:09:12Z</time>
      </trkpt>
      <trkpt lat="48.93481" lon="7.52011">
        <ele>315</ele>
        <time>2021-08-08T07:09:13Z</time>
      </trkpt>
      <trkpt lat="48.93481" lon="7.52011">
        <ele>315</ele>
        <time>2021-08-08T07:09:14Z</time>
      </trkpt>
      <trkpt lat="48.93485" lon="7.52015">
        <ele>315</ele>
        <time>2021-08-08T07:09:15Z</time>
      </trkpt>
      <trkpt lat="48.93485" lon="7.52015">
        <ele>315</ele>
        <time>2021-08-08T07:09:16Z</time>
      </trkpt>
      <trkpt lat="48.93488" lon="7.52021">
        <ele>315</ele>
        <time>2021-08-08T07:09:17Z</time>
      </trkpt>
      <trkpt lat="48.93488" lon="7.52021">
        <ele>315</ele>
        <time>2021-08-08T07:09:18Z</time>
      </trkpt>
      <trkpt lat="48.93493" lon="7.52027">
        <ele>315</ele>
        <time>2021-08-08T07:09:19Z</time>
      </trkpt>
      <trkpt lat="48.93493" lon="7.52027">
        <ele>315</ele>
        <time>2021-08-08T07:09:20Z</time>
      </trkpt>
      <trkpt lat="48.93498" lon="7.52032">
        <ele>315</ele>
        <time>2021-08-08T07:09:21Z</time>
      </trkpt>
      <trkpt lat="48.93501" lon="7.52035">
        <ele>315</ele>
        <time>2021-08-08T07:09:22Z</time>
      </trkpt>
      <trkpt lat="48.93501" lon="7.52035">
        <ele>315</ele>
        <time>2021-08-08T07:09:23Z</time>
      </trkpt>
      <trkpt lat="48.93508" lon="7.52041">
        <ele>315</ele>
        <time>2021-08-08T07:09:24Z</time>
      </trkpt>
      <trkpt lat="48.93512" lon="7.52043">
        <ele>315</ele>
        <time>2021-08-08T07:09:25Z</time>
      </trkpt>
      <trkpt lat="48.93512" lon="7.52043">
        <ele>315</ele>
        <time>2021-08-08T07:09:26Z</time>
      </trkpt>
      <trkpt lat="48.93516" lon="7.52047">
        <ele>315</ele>
        <time>2021-08-08T07:09:27Z</time>
      </trkpt>
      <trkpt lat="48.93516" lon="7.52047">
        <ele>315</ele>
        <time>2021-08-08T07:09:28Z</time>
      </trkpt>
      <trkpt lat="48.93522" lon="7.52054">
        <ele>315</ele>
        <time>2021-08-08T07:09:29Z</time>
      </trkpt>
      <trkpt lat="48.93522" lon="7.52054">
        <ele>315</ele>
        <time>2021-08-08T07:09:30Z</time>
      </trkpt>
      <trkpt lat="48.93529" lon="7.52062">
        <ele>315</ele>
        <time>2021-08-08T07:09:31Z</time>
      </trkpt>
      <trkpt lat="48.93529" lon="7.52062">
        <ele>315</ele>
        <time>2021-08-08T07:09:32Z</time>
      </trkpt>
      <trkpt lat="48.93536" lon="7.52069">
        <ele>315</ele>
        <time>2021-08-08T07:09:33Z</time>
      </trkpt>
      <trkpt lat="48.93536" lon="7.52069">
        <ele>315</ele>
        <time>2021-08-08T07:09:34Z</time>
      </trkpt>
      <trkpt lat="48.93542" lon="7.52076">
        <ele>315</ele>
        <time>2021-08-08T07:09:35Z</time>
      </trkpt>
      <trkpt lat="48.93542" lon="7.52076">
        <ele>315</ele>
        <time>2021-08-08T07:09:36Z</time>
      </trkpt>
      <trkpt lat="48.93549" lon="7.52083">
        <ele>315</ele>
        <time>2021-08-08T07:09:37Z</time>
      </trkpt>
      <trkpt lat="48.93552" lon="7.52087">
        <ele>315</ele>
        <time>2021-08-08T07:09:38Z</time>
      </trkpt>
      <trkpt lat="48.93552" lon="7.52087">
        <ele>315</ele>
        <time>2021-08-08T07:09:39Z</time>
      </trkpt>
      <trkpt lat="48.9356" lon="7.52095">
        <ele>315</ele>
        <time>2021-08-08T07:09:40Z</time>
      </trkpt>
      <trkpt lat="48.93564" lon="7.52099">
        <ele>315</ele>
        <time>2021-08-08T07:09:41Z</time>
      </trkpt>
      <trkpt lat="48.93567" lon="7.52102">
        <ele>315</ele>
        <time>2021-08-08T07:09:42Z</time>
      </trkpt>
      <trkpt lat="48.93567" lon="7.52102">
        <ele>315</ele>
        <time>2021-08-08T07:09:43Z</time>
      </trkpt>
      <trkpt lat="48.93574" lon="7.5211">
        <ele>314</ele>
        <time>2021-08-08T07:09:44Z</time>
      </trkpt>
      <trkpt lat="48.93574" lon="7.5211">
        <ele>314</ele>
        <time>2021-08-08T07:09:45Z</time>
      </trkpt>
      <trkpt lat="48.9358" lon="7.52117">
        <ele>314</ele>
        <time>2021-08-08T07:09:46Z</time>
      </trkpt>
      <trkpt lat="48.93583" lon="7.52121">
        <ele>314</ele>
        <time>2021-08-08T07:09:47Z</time>
      </trkpt>
      <trkpt lat="48.93583" lon="7.52121">
        <ele>313</ele>
        <time>2021-08-08T07:09:48Z</time>
      </trkpt>
      <trkpt lat="48.93589" lon="7.52129">
        <ele>313</ele>
        <time>2021-08-08T07:09:49Z</time>
      </trkpt>
      <trkpt lat="48.93589" lon="7.52129">
        <ele>313</ele>
        <time>2021-08-08T07:09:50Z</time>
      </trkpt>
      <trkpt lat="48.93596" lon="7.52134">
        <ele>313</ele>
        <time>2021-08-08T07:09:51Z</time>
      </trkpt>
      <trkpt lat="48.93596" lon="7.52134">
        <ele>313</ele>
        <time>2021-08-08T07:09:52Z</time>
      </trkpt>
      <trkpt lat="48.93605" lon="7.5214">
        <ele>313</ele>
        <time>2021-08-08T07:09:53Z</time>
      </trkpt>
      <trkpt lat="48.93605" lon="7.5214">
        <ele>313</ele>
        <time>2021-08-08T07:09:54Z</time>
      </trkpt>
      <trkpt lat="48.93616" lon="7.52149">
        <ele>313</ele>
        <time>2021-08-08T07:09:55Z</time>
      </trkpt>
      <trkpt lat="48.93616" lon="7.52149">
        <ele>313</ele>
        <time>2021-08-08T07:09:56Z</time>
      </trkpt>
      <trkpt lat="48.93629" lon="7.52159">
        <ele>313</ele>
        <time>2021-08-08T07:09:57Z</time>
      </trkpt>
      <trkpt lat="48.93629" lon="7.52159">
        <ele>313</ele>
        <time>2021-08-08T07:09:58Z</time>
      </trkpt>
      <trkpt lat="48.93635" lon="7.52162">
        <ele>313</ele>
        <time>2021-08-08T07:09:59Z</time>
      </trkpt>
      <trkpt lat="48.93635" lon="7.52162">
        <ele>313</ele>
        <time>2021-08-08T07:10:00Z</time>
      </trkpt>
      <trkpt lat="48.9364" lon="7.52165">
        <ele>313</ele>
        <time>2021-08-08T07:10:01Z</time>
      </trkpt>
      <trkpt lat="48.9364" lon="7.52165">
        <ele>314</ele>
        <time>2021-08-08T07:10:02Z</time>
      </trkpt>
      <trkpt lat="48.93645" lon="7.52167">
        <ele>314</ele>
        <time>2021-08-08T07:10:03Z</time>
      </trkpt>
      <trkpt lat="48.93645" lon="7.52167">
        <ele>314</ele>
        <time>2021-08-08T07:10:04Z</time>
      </trkpt>
      <trkpt lat="48.9365" lon="7.5217">
        <ele>314</ele>
        <time>2021-08-08T07:10:05Z</time>
      </trkpt>
      <trkpt lat="48.9365" lon="7.5217">
        <ele>314</ele>
        <time>2021-08-08T07:10:06Z</time>
      </trkpt>
      <trkpt lat="48.93655" lon="7.52172">
        <ele>314</ele>
        <time>2021-08-08T07:10:07Z</time>
      </trkpt>
      <trkpt lat="48.93655" lon="7.52172">
        <ele>315</ele>
        <time>2021-08-08T07:10:08Z</time>
      </trkpt>
      <trkpt lat="48.9366" lon="7.52175">
        <ele>315</ele>
        <time>2021-08-08T07:10:09Z</time>
      </trkpt>
      <trkpt lat="48.9366" lon="7.52175">
        <ele>315</ele>
        <time>2021-08-08T07:10:10Z</time>
      </trkpt>
      <trkpt lat="48.93667" lon="7.5218">
        <ele>315</ele>
        <time>2021-08-08T07:10:11Z</time>
      </trkpt>
      <trkpt lat="48.93667" lon="7.5218">
        <ele>315</ele>
        <time>2021-08-08T07:10:12Z</time>
      </trkpt>
      <trkpt lat="48.93674" lon="7.52185">
        <ele>315</ele>
        <time>2021-08-08T07:10:13Z</time>
      </trkpt>
      <trkpt lat="48.93674" lon="7.52185">
        <ele>315</ele>
        <time>2021-08-08T07:10:14Z</time>
      </trkpt>
      <trkpt lat="48.93681" lon="7.5219">
        <ele>315</ele>
        <time>2021-08-08T07:10:15Z</time>
      </trkpt>
      <trkpt lat="48.93681" lon="7.5219">
        <ele>315</ele>
        <time>2021-08-08T07:10:16Z</time>
      </trkpt>
      <trkpt lat="48.93688" lon="7.52195">
        <ele>315</ele>
        <time>2021-08-08T07:10:17Z</time>
      </trkpt>
      <trkpt lat="48.93688" lon="7.52195">
        <ele>316</ele>
        <time>2021-08-08T07:10:18Z</time>
      </trkpt>
      <trkpt lat="48.93694" lon="7.52203">
        <ele>316</ele>
        <time>2021-08-08T07:10:19Z</time>
      </trkpt>
      <trkpt lat="48.93697" lon="7.52207">
        <ele>316</ele>
        <time>2021-08-08T07:10:20Z</time>
      </trkpt>
      <trkpt lat="48.93697" lon="7.52207">
        <ele>316</ele>
        <time>2021-08-08T07:10:21Z</time>
      </trkpt>
      <trkpt lat="48.93704" lon="7.52213">
        <ele>316</ele>
        <time>2021-08-08T07:10:22Z</time>
      </trkpt>
      <trkpt lat="48.93708" lon="7.52215">
        <ele>316</ele>
        <time>2021-08-08T07:10:23Z</time>
      </trkpt>
      <trkpt lat="48.93708" lon="7.52215">
        <ele>316</ele>
        <time>2021-08-08T07:10:24Z</time>
      </trkpt>
      <trkpt lat="48.93714" lon="7.52219">
        <ele>316</ele>
        <time>2021-08-08T07:10:25Z</time>
      </trkpt>
      <trkpt lat="48.93717" lon="7.52223">
        <ele>316</ele>
        <time>2021-08-08T07:10:26Z</time>
      </trkpt>
      <trkpt lat="48.93717" lon="7.52223">
        <ele>317</ele>
        <time>2021-08-08T07:10:27Z</time>
      </trkpt>
      <trkpt lat="48.93722" lon="7.52227">
        <ele>317</ele>
        <time>2021-08-08T07:10:28Z</time>
      </trkpt>
      <trkpt lat="48.93726" lon="7.5223">
        <ele>317</ele>
        <time>2021-08-08T07:10:29Z</time>
      </trkpt>
      <trkpt lat="48.93726" lon="7.5223">
        <ele>317</ele>
        <time>2021-08-08T07:10:30Z</time>
      </trkpt>
      <trkpt lat="48.93733" lon="7.52237">
        <ele>317</ele>
        <time>2021-08-08T07:10:31Z</time>
      </trkpt>
      <trkpt lat="48.93736" lon="7.52241">
        <ele>317</ele>
        <time>2021-08-08T07:10:32Z</time>
      </trkpt>
      <trkpt lat="48.93739" lon="7.52244">
        <ele>317</ele>
        <time>2021-08-08T07:10:33Z</time>
      </trkpt>
      <trkpt lat="48.93739" lon="7.52244">
        <ele>317</ele>
        <time>2021-08-08T07:10:34Z</time>
      </trkpt>
      <trkpt lat="48.93744" lon="7.5225">
        <ele>317</ele>
        <time>2021-08-08T07:10:35Z</time>
      </trkpt>
      <trkpt lat="48.93744" lon="7.5225">
        <ele>317</ele>
        <time>2021-08-08T07:10:36Z</time>
      </trkpt>
      <trkpt lat="48.93751" lon="7.52257">
        <ele>317</ele>
        <time>2021-08-08T07:10:37Z</time>
      </trkpt>
      <trkpt lat="48.93751" lon="7.52257">
        <ele>317</ele>
        <time>2021-08-08T07:10:38Z</time>
      </trkpt>
      <trkpt lat="48.93757" lon="7.52263">
        <ele>317</ele>
        <time>2021-08-08T07:10:39Z</time>
      </trkpt>
      <trkpt lat="48.93757" lon="7.52263">
        <ele>318</ele>
        <time>2021-08-08T07:10:40Z</time>
      </trkpt>
      <trkpt lat="48.93764" lon="7.52269">
        <ele>318</ele>
        <time>2021-08-08T07:10:41Z</time>
      </trkpt>
      <trkpt lat="48.93767" lon="7.52271">
        <ele>318</ele>
        <time>2021-08-08T07:10:42Z</time>
      </trkpt>
      <trkpt lat="48.93767" lon="7.52271">
        <ele>318</ele>
        <time>2021-08-08T07:10:43Z</time>
      </trkpt>
      <trkpt lat="48.93772" lon="7.52274">
        <ele>318</ele>
        <time>2021-08-08T07:10:44Z</time>
      </trkpt>
      <trkpt lat="48.93772" lon="7.52274">
        <ele>318</ele>
        <time>2021-08-08T07:10:45Z</time>
      </trkpt>
      <trkpt lat="48.93778" lon="7.52278">
        <ele>318</ele>
        <time>2021-08-08T07:10:46Z</time>
      </trkpt>
      <trkpt lat="48.93778" lon="7.52278">
        <ele>318</ele>
        <time>2021-08-08T07:10:47Z</time>
      </trkpt>
      <trkpt lat="48.93783" lon="7.52282">
        <ele>318</ele>
        <time>2021-08-08T07:10:48Z</time>
      </trkpt>
      <trkpt lat="48.93786" lon="7.52285">
        <ele>318</ele>
        <time>2021-08-08T07:10:49Z</time>
      </trkpt>
      <trkpt lat="48.93786" lon="7.52285">
        <ele>319</ele>
        <time>2021-08-08T07:10:50Z</time>
      </trkpt>
      <trkpt lat="48.93792" lon="7.52291">
        <ele>319</ele>
        <time>2021-08-08T07:10:51Z</time>
      </trkpt>
      <trkpt lat="48.93792" lon="7.52291">
        <ele>319</ele>
        <time>2021-08-08T07:10:52Z</time>
      </trkpt>
      <trkpt lat="48.93799" lon="7.52295">
        <ele>319</ele>
        <time>2021-08-08T07:10:53Z</time>
      </trkpt>
      <trkpt lat="48.93802" lon="7.52298">
        <ele>319</ele>
        <time>2021-08-08T07:10:54Z</time>
      </trkpt>
      <trkpt lat="48.93805" lon="7.52301">
        <ele>319</ele>
        <time>2021-08-08T07:10:55Z</time>
      </trkpt>
      <trkpt lat="48.93805" lon="7.52301">
        <ele>319</ele>
        <time>2021-08-08T07:10:56Z</time>
      </trkpt>
      <trkpt lat="48.93812" lon="7.52308">
        <ele>319</ele>
        <time>2021-08-08T07:10:57Z</time>
      </trkpt>
      <trkpt lat="48.93812" lon="7.52308">
        <ele>319</ele>
        <time>2021-08-08T07:10:58Z</time>
      </trkpt>
      <trkpt lat="48.93819" lon="7.52315">
        <ele>320</ele>
        <time>2021-08-08T07:10:59Z</time>
      </trkpt>
      <trkpt lat="48.93819" lon="7.52315">
        <ele>320</ele>
        <time>2021-08-08T07:11:00Z</time>
      </trkpt>
      <trkpt lat="48.93824" lon="7.52321">
        <ele>320</ele>
        <time>2021-08-08T07:11:01Z</time>
      </trkpt>
      <trkpt lat="48.93824" lon="7.52321">
        <ele>320</ele>
        <time>2021-08-08T07:11:02Z</time>
      </trkpt>
      <trkpt lat="48.93831" lon="7.52325">
        <ele>320</ele>
        <time>2021-08-08T07:11:03Z</time>
      </trkpt>
      <trkpt lat="48.93831" lon="7.52325">
        <ele>320</ele>
        <time>2021-08-08T07:11:04Z</time>
      </trkpt>
      <trkpt lat="48.93839" lon="7.52331">
        <ele>320</ele>
        <time>2021-08-08T07:11:05Z</time>
      </trkpt>
      <trkpt lat="48.93839" lon="7.52331">
        <ele>320</ele>
        <time>2021-08-08T07:11:06Z</time>
      </trkpt>
      <trkpt lat="48.93845" lon="7.52335">
        <ele>320</ele>
        <time>2021-08-08T07:11:07Z</time>
      </trkpt>
      <trkpt lat="48.93845" lon="7.52335">
        <ele>320</ele>
        <time>2021-08-08T07:11:08Z</time>
      </trkpt>
      <trkpt lat="48.93851" lon="7.52338">
        <ele>320</ele>
        <time>2021-08-08T07:11:09Z</time>
      </trkpt>
      <trkpt lat="48.93851" lon="7.52338">
        <ele>320</ele>
        <time>2021-08-08T07:11:10Z</time>
      </trkpt>
      <trkpt lat="48.93857" lon="7.52338">
        <ele>320</ele>
        <time>2021-08-08T07:11:11Z</time>
      </trkpt>
      <trkpt lat="48.93857" lon="7.52338">
        <ele>320</ele>
        <time>2021-08-08T07:11:12Z</time>
      </trkpt>
      <trkpt lat="48.93864" lon="7.52339">
        <ele>320</ele>
        <time>2021-08-08T07:11:13Z</time>
      </trkpt>
      <trkpt lat="48.93864" lon="7.52339">
        <ele>320</ele>
        <time>2021-08-08T07:11:14Z</time>
      </trkpt>
      <trkpt lat="48.93872" lon="7.52341">
        <ele>320</ele>
        <time>2021-08-08T07:11:15Z</time>
      </trkpt>
      <trkpt lat="48.93872" lon="7.52341">
        <ele>320</ele>
        <time>2021-08-08T07:11:16Z</time>
      </trkpt>
      <trkpt lat="48.93878" lon="7.52345">
        <ele>321</ele>
        <time>2021-08-08T07:11:17Z</time>
      </trkpt>
      <trkpt lat="48.93878" lon="7.52345">
        <ele>321</ele>
        <time>2021-08-08T07:11:18Z</time>
      </trkpt>
      <trkpt lat="48.93884" lon="7.52349">
        <ele>321</ele>
        <time>2021-08-08T07:11:19Z</time>
      </trkpt>
      <trkpt lat="48.93884" lon="7.52349">
        <ele>321</ele>
        <time>2021-08-08T07:11:20Z</time>
      </trkpt>
      <trkpt lat="48.93888" lon="7.52356">
        <ele>321</ele>
        <time>2021-08-08T07:11:21Z</time>
      </trkpt>
      <trkpt lat="48.93888" lon="7.52356">
        <ele>321</ele>
        <time>2021-08-08T07:11:22Z</time>
      </trkpt>
      <trkpt lat="48.93892" lon="7.52363">
        <ele>321</ele>
        <time>2021-08-08T07:11:23Z</time>
      </trkpt>
      <trkpt lat="48.93892" lon="7.52363">
        <ele>321</ele>
        <time>2021-08-08T07:11:24Z</time>
      </trkpt>
      <trkpt lat="48.93897" lon="7.52371">
        <ele>321</ele>
        <time>2021-08-08T07:11:25Z</time>
      </trkpt>
      <trkpt lat="48.93897" lon="7.52371">
        <ele>321</ele>
        <time>2021-08-08T07:11:26Z</time>
      </trkpt>
      <trkpt lat="48.93902" lon="7.52381">
        <ele>321</ele>
        <time>2021-08-08T07:11:27Z</time>
      </trkpt>
      <trkpt lat="48.93902" lon="7.52381">
        <ele>321</ele>
        <time>2021-08-08T07:11:28Z</time>
      </trkpt>
      <trkpt lat="48.93912" lon="7.52391">
        <ele>321</ele>
        <time>2021-08-08T07:11:29Z</time>
      </trkpt>
      <trkpt lat="48.93916" lon="7.52395">
        <ele>321</ele>
        <time>2021-08-08T07:11:30Z</time>
      </trkpt>
      <trkpt lat="48.93916" lon="7.52395">
        <ele>321</ele>
        <time>2021-08-08T07:11:31Z</time>
      </trkpt>
      <trkpt lat="48.93921" lon="7.52404">
        <ele>321</ele>
        <time>2021-08-08T07:11:32Z</time>
      </trkpt>
      <trkpt lat="48.93921" lon="7.52404">
        <ele>321</ele>
        <time>2021-08-08T07:11:33Z</time>
      </trkpt>
      <trkpt lat="48.93926" lon="7.52413">
        <ele>321</ele>
        <time>2021-08-08T07:11:34Z</time>
      </trkpt>
      <trkpt lat="48.93926" lon="7.52413">
        <ele>321</ele>
        <time>2021-08-08T07:11:35Z</time>
      </trkpt>
      <trkpt lat="48.93931" lon="7.52422">
        <ele>321</ele>
        <time>2021-08-08T07:11:36Z</time>
      </trkpt>
      <trkpt lat="48.93934" lon="7.52426">
        <ele>321</ele>
        <time>2021-08-08T07:11:37Z</time>
      </trkpt>
      <trkpt lat="48.93934" lon="7.52426">
        <ele>320</ele>
        <time>2021-08-08T07:11:38Z</time>
      </trkpt>
      <trkpt lat="48.93941" lon="7.52434">
        <ele>320</ele>
        <time>2021-08-08T07:11:39Z</time>
      </trkpt>
      <trkpt lat="48.93941" lon="7.52434">
        <ele>320</ele>
        <time>2021-08-08T07:11:40Z</time>
      </trkpt>
      <trkpt lat="48.93947" lon="7.52442">
        <ele>320</ele>
        <time>2021-08-08T07:11:41Z</time>
      </trkpt>
      <trkpt lat="48.93947" lon="7.52442">
        <ele>320</ele>
        <time>2021-08-08T07:11:42Z</time>
      </trkpt>
      <trkpt lat="48.93953" lon="7.52449">
        <ele>320</ele>
        <time>2021-08-08T07:11:43Z</time>
      </trkpt>
      <trkpt lat="48.93953" lon="7.52449">
        <ele>320</ele>
        <time>2021-08-08T07:11:44Z</time>
      </trkpt>
      <trkpt lat="48.9396" lon="7.52458">
        <ele>320</ele>
        <time>2021-08-08T07:11:45Z</time>
      </trkpt>
      <trkpt lat="48.9396" lon="7.52458">
        <ele>320</ele>
        <time>2021-08-08T07:11:46Z</time>
      </trkpt>
      <trkpt lat="48.93966" lon="7.52467">
        <ele>320</ele>
        <time>2021-08-08T07:11:47Z</time>
      </trkpt>
      <trkpt lat="48.93966" lon="7.52467">
        <ele>320</ele>
        <time>2021-08-08T07:11:48Z</time>
      </trkpt>
      <trkpt lat="48.93973" lon="7.52475">
        <ele>320</ele>
        <time>2021-08-08T07:11:49Z</time>
      </trkpt>
      <trkpt lat="48.93973" lon="7.52475">
        <ele>320</ele>
        <time>2021-08-08T07:11:50Z</time>
      </trkpt>
      <trkpt lat="48.9398" lon="7.52484">
        <ele>320</ele>
        <time>2021-08-08T07:11:51Z</time>
      </trkpt>
      <trkpt lat="48.93984" lon="7.52488">
        <ele>320</ele>
        <time>2021-08-08T07:11:52Z</time>
      </trkpt>
      <trkpt lat="48.93987" lon="7.52492">
        <ele>320</ele>
        <time>2021-08-08T07:11:53Z</time>
      </trkpt>
      <trkpt lat="48.93987" lon="7.52492">
        <ele>320</ele>
        <time>2021-08-08T07:11:54Z</time>
      </trkpt>
      <trkpt lat="48.93993" lon="7.525">
        <ele>320</ele>
        <time>2021-08-08T07:11:55Z</time>
      </trkpt>
      <trkpt lat="48.93993" lon="7.525">
        <ele>320</ele>
        <time>2021-08-08T07:11:56Z</time>
      </trkpt>
      <trkpt lat="48.94" lon="7.52506">
        <ele>320</ele>
        <time>2021-08-08T07:11:57Z</time>
      </trkpt>
      <trkpt lat="48.94" lon="7.52506">
        <ele>320</ele>
        <time>2021-08-08T07:11:58Z</time>
      </trkpt>
      <trkpt lat="48.94007" lon="7.52512">
        <ele>320</ele>
        <time>2021-08-08T07:11:59Z</time>
      </trkpt>
      <trkpt lat="48.94012" lon="7.52516">
        <ele>320</ele>
        <time>2021-08-08T07:12:00Z</time>
      </trkpt>
      <trkpt lat="48.94017" lon="7.52519">
        <ele>320</ele>
        <time>2021-08-08T07:12:01Z</time>
      </trkpt>
      <trkpt lat="48.94017" lon="7.52519">
        <ele>320</ele>
        <time>2021-08-08T07:12:02Z</time>
      </trkpt>
      <trkpt lat="48.94025" lon="7.52527">
        <ele>320</ele>
        <time>2021-08-08T07:12:03Z</time>
      </trkpt>
      <trkpt lat="48.94025" lon="7.52527">
        <ele>320</ele>
        <time>2021-08-08T07:12:04Z</time>
      </trkpt>
      <trkpt lat="48.94032" lon="7.52535">
        <ele>320</ele>
        <time>2021-08-08T07:12:05Z</time>
      </trkpt>
      <trkpt lat="48.94036" lon="7.52539">
        <ele>320</ele>
        <time>2021-08-08T07:12:06Z</time>
      </trkpt>
      <trkpt lat="48.94039" lon="7.52543">
        <ele>320</ele>
        <time>2021-08-08T07:12:07Z</time>
      </trkpt>
      <trkpt lat="48.94039" lon="7.52543">
        <ele>320</ele>
        <time>2021-08-08T07:12:08Z</time>
      </trkpt>
      <trkpt lat="48.94045" lon="7.52553">
        <ele>320</ele>
        <time>2021-08-08T07:12:09Z</time>
      </trkpt>
      <trkpt lat="48.94048" lon="7.52558">
        <ele>320</ele>
        <time>2021-08-08T07:12:10Z</time>
      </trkpt>
      <trkpt lat="48.94048" lon="7.52558">
        <ele>320</ele>
        <time>2021-08-08T07:12:11Z</time>
      </trkpt>
      <trkpt lat="48.94054" lon="7.52567">
        <ele>320</ele>
        <time>2021-08-08T07:12:12Z</time>
      </trkpt>
      <trkpt lat="48.94056" lon="7.52571">
        <ele>320</ele>
        <time>2021-08-08T07:12:13Z</time>
      </trkpt>
      <trkpt lat="48.94056" lon="7.52571">
        <ele>320</ele>
        <time>2021-08-08T07:12:14Z</time>
      </trkpt>
      <trkpt lat="48.94062" lon="7.52581">
        <ele>320</ele>
        <time>2021-08-08T07:12:15Z</time>
      </trkpt>
      <trkpt lat="48.94062" lon="7.52581">
        <ele>320</ele>
        <time>2021-08-08T07:12:16Z</time>
      </trkpt>
      <trkpt lat="48.94069" lon="7.5259">
        <ele>319</ele>
        <time>2021-08-08T07:12:17Z</time>
      </trkpt>
      <trkpt lat="48.94069" lon="7.5259">
        <ele>319</ele>
        <time>2021-08-08T07:12:18Z</time>
      </trkpt>
      <trkpt lat="48.94076" lon="7.52598">
        <ele>319</ele>
        <time>2021-08-08T07:12:19Z</time>
      </trkpt>
      <trkpt lat="48.94076" lon="7.52598">
        <ele>319</ele>
        <time>2021-08-08T07:12:20Z</time>
      </trkpt>
      <trkpt lat="48.9408" lon="7.52606">
        <ele>319</ele>
        <time>2021-08-08T07:12:21Z</time>
      </trkpt>
      <trkpt lat="48.9408" lon="7.52606">
        <ele>319</ele>
        <time>2021-08-08T07:12:22Z</time>
      </trkpt>
      <trkpt lat="48.94083" lon="7.52614">
        <ele>319</ele>
        <time>2021-08-08T07:12:23Z</time>
      </trkpt>
      <trkpt lat="48.94083" lon="7.52614">
        <ele>319</ele>
        <time>2021-08-08T07:12:24Z</time>
      </trkpt>
      <trkpt lat="48.94086" lon="7.52622">
        <ele>319</ele>
        <time>2021-08-08T07:12:25Z</time>
      </trkpt>
      <trkpt lat="48.94086" lon="7.52622">
        <ele>319</ele>
        <time>2021-08-08T07:12:26Z</time>
      </trkpt>
      <trkpt lat="48.94089" lon="7.52631">
        <ele>319</ele>
        <time>2021-08-08T07:12:27Z</time>
      </trkpt>
      <trkpt lat="48.94089" lon="7.52631">
        <ele>319</ele>
        <time>2021-08-08T07:12:28Z</time>
      </trkpt>
      <trkpt lat="48.94092" lon="7.52641">
        <ele>319</ele>
        <time>2021-08-08T07:12:29Z</time>
      </trkpt>
      <trkpt lat="48.94092" lon="7.52641">
        <ele>319</ele>
        <time>2021-08-08T07:12:30Z</time>
      </trkpt>
      <trkpt lat="48.94097" lon="7.52651">
        <ele>319</ele>
        <time>2021-08-08T07:12:31Z</time>
      </trkpt>
      <trkpt lat="48.94097" lon="7.52651">
        <ele>319</ele>
        <time>2021-08-08T07:12:32Z</time>
      </trkpt>
      <trkpt lat="48.941" lon="7.52661">
        <ele>319</ele>
        <time>2021-08-08T07:12:33Z</time>
      </trkpt>
      <trkpt lat="48.941" lon="7.52661">
        <ele>319</ele>
        <time>2021-08-08T07:12:34Z</time>
      </trkpt>
      <trkpt lat="48.94102" lon="7.52671">
        <ele>319</ele>
        <time>2021-08-08T07:12:35Z</time>
      </trkpt>
      <trkpt lat="48.94102" lon="7.52671">
        <ele>319</ele>
        <time>2021-08-08T07:12:36Z</time>
      </trkpt>
      <trkpt lat="48.94105" lon="7.52679">
        <ele>319</ele>
        <time>2021-08-08T07:12:37Z</time>
      </trkpt>
      <trkpt lat="48.94105" lon="7.52679">
        <ele>318</ele>
        <time>2021-08-08T07:12:38Z</time>
      </trkpt>
      <trkpt lat="48.94107" lon="7.52692">
        <ele>318</ele>
        <time>2021-08-08T07:12:39Z</time>
      </trkpt>
      <trkpt lat="48.94107" lon="7.52692">
        <ele>318</ele>
        <time>2021-08-08T07:12:40Z</time>
      </trkpt>
      <trkpt lat="48.94109" lon="7.52702">
        <ele>318</ele>
        <time>2021-08-08T07:12:41Z</time>
      </trkpt>
      <trkpt lat="48.94109" lon="7.52702">
        <ele>318</ele>
        <time>2021-08-08T07:12:42Z</time>
      </trkpt>
      <trkpt lat="48.94112" lon="7.52711">
        <ele>318</ele>
        <time>2021-08-08T07:12:43Z</time>
      </trkpt>
      <trkpt lat="48.94112" lon="7.52711">
        <ele>317</ele>
        <time>2021-08-08T07:12:44Z</time>
      </trkpt>
      <trkpt lat="48.94115" lon="7.52722">
        <ele>317</ele>
        <time>2021-08-08T07:12:45Z</time>
      </trkpt>
      <trkpt lat="48.94115" lon="7.52722">
        <ele>317</ele>
        <time>2021-08-08T07:12:46Z</time>
      </trkpt>
      <trkpt lat="48.94118" lon="7.52732">
        <ele>317</ele>
        <time>2021-08-08T07:12:47Z</time>
      </trkpt>
      <trkpt lat="48.94118" lon="7.52732">
        <ele>317</ele>
        <time>2021-08-08T07:12:48Z</time>
      </trkpt>
      <trkpt lat="48.9412" lon="7.52741">
        <ele>317</ele>
        <time>2021-08-08T07:12:49Z</time>
      </trkpt>
      <trkpt lat="48.9412" lon="7.52741">
        <ele>317</ele>
        <time>2021-08-08T07:12:50Z</time>
      </trkpt>
      <trkpt lat="48.94122" lon="7.5275">
        <ele>317</ele>
        <time>2021-08-08T07:12:51Z</time>
      </trkpt>
      <trkpt lat="48.94122" lon="7.5275">
        <ele>317</ele>
        <time>2021-08-08T07:12:52Z</time>
      </trkpt>
      <trkpt lat="48.94121" lon="7.5276">
        <ele>317</ele>
        <time>2021-08-08T07:12:53Z</time>
      </trkpt>
      <trkpt lat="48.94121" lon="7.52765">
        <ele>317</ele>
        <time>2021-08-08T07:12:54Z</time>
      </trkpt>
      <trkpt lat="48.94121" lon="7.52765">
        <ele>317</ele>
        <time>2021-08-08T07:12:55Z</time>
      </trkpt>
      <trkpt lat="48.94119" lon="7.52777">
        <ele>316</ele>
        <time>2021-08-08T07:12:56Z</time>
      </trkpt>
      <trkpt lat="48.94119" lon="7.52777">
        <ele>316</ele>
        <time>2021-08-08T07:12:57Z</time>
      </trkpt>
      <trkpt lat="48.94117" lon="7.52785">
        <ele>316</ele>
        <time>2021-08-08T07:12:58Z</time>
      </trkpt>
      <trkpt lat="48.94116" lon="7.5279">
        <ele>316</ele>
        <time>2021-08-08T07:12:59Z</time>
      </trkpt>
      <trkpt lat="48.94116" lon="7.5279">
        <ele>316</ele>
        <time>2021-08-08T07:13:00Z</time>
      </trkpt>
      <trkpt lat="48.94117" lon="7.52801">
        <ele>315</ele>
        <time>2021-08-08T07:13:01Z</time>
      </trkpt>
      <trkpt lat="48.94117" lon="7.52801">
        <ele>315</ele>
        <time>2021-08-08T07:13:02Z</time>
      </trkpt>
      <trkpt lat="48.94116" lon="7.52812">
        <ele>315</ele>
        <time>2021-08-08T07:13:03Z</time>
      </trkpt>
      <trkpt lat="48.94116" lon="7.52812">
        <ele>315</ele>
        <time>2021-08-08T07:13:04Z</time>
      </trkpt>
      <trkpt lat="48.94117" lon="7.5282">
        <ele>315</ele>
        <time>2021-08-08T07:13:05Z</time>
      </trkpt>
      <trkpt lat="48.94117" lon="7.5282">
        <ele>315</ele>
        <time>2021-08-08T07:13:06Z</time>
      </trkpt>
      <trkpt lat="48.94119" lon="7.52825">
        <ele>315</ele>
        <time>2021-08-08T07:13:07Z</time>
      </trkpt>
      <trkpt lat="48.94119" lon="7.52825">
        <ele>315</ele>
        <time>2021-08-08T07:13:08Z</time>
      </trkpt>
      <trkpt lat="48.94122" lon="7.5283">
        <ele>315</ele>
        <time>2021-08-08T07:13:09Z</time>
      </trkpt>
      <trkpt lat="48.94122" lon="7.5283">
        <ele>315</ele>
        <time>2021-08-08T07:13:10Z</time>
      </trkpt>
      <trkpt lat="48.94123" lon="7.52834">
        <ele>315</ele>
        <time>2021-08-08T07:13:11Z</time>
      </trkpt>
      <trkpt lat="48.94123" lon="7.52834">
        <ele>315</ele>
        <time>2021-08-08T07:13:12Z</time>
      </trkpt>
      <trkpt lat="48.94123" lon="7.52837">
        <ele>315</ele>
        <time>2021-08-08T07:13:13Z</time>
      </trkpt>
      <trkpt lat="48.94123" lon="7.52837">
        <ele>315</ele>
        <time>2021-08-08T07:13:14Z</time>
      </trkpt>
      <trkpt lat="48.94123" lon="7.52837">
        <ele>315</ele>
        <time>2021-08-08T07:13:15Z</time>
      </trkpt>
      <trkpt lat="48.94129" lon="7.52866">
        <ele>315</ele>
        <time>2021-08-08T07:13:51Z</time>
      </trkpt>
      <trkpt lat="48.94128" lon="7.52866">
        <ele>315</ele>
        <time>2021-08-08T07:13:52Z</time>
      </trkpt>
      <trkpt lat="48.94128" lon="7.52866">
        <ele>315</ele>
        <time>2021-08-08T07:13:53Z</time>
      </trkpt>
      <trkpt lat="48.94128" lon="7.52867">
        <ele>315</ele>
        <time>2021-08-08T07:13:54Z</time>
      </trkpt>
      <trkpt lat="48.94128" lon="7.52867">
        <ele>315</ele>
        <time>2021-08-08T07:13:55Z</time>
      </trkpt>
      <trkpt lat="48.94128" lon="7.52867">
        <ele>315</ele>
        <time>2021-08-08T07:16:14Z</time>
      </trkpt>
      <trkpt lat="48.94126" lon="7.52866">
        <ele>315</ele>
        <time>2021-08-08T07:16:15Z</time>
      </trkpt>
      <trkpt lat="48.94126" lon="7.52866">
        <ele>315</ele>
        <time>2021-08-08T07:16:16Z</time>
      </trkpt>
      <trkpt lat="48.94125" lon="7.52868">
        <ele>315</ele>
        <time>2021-08-08T07:16:17Z</time>
      </trkpt>
      <trkpt lat="48.94125" lon="7.52868">
        <ele>315</ele>
        <time>2021-08-08T07:16:48Z</time>
      </trkpt>
      <trkpt lat="48.94132" lon="7.52876">
        <ele>315</ele>
        <time>2021-08-08T07:16:49Z</time>
      </trkpt>
      <trkpt lat="48.94132" lon="7.52876">
        <ele>315</ele>
        <time>2021-08-08T07:16:50Z</time>
      </trkpt>
      <trkpt lat="48.94132" lon="7.52876">
        <ele>315</ele>
        <time>2021-08-08T07:17:54Z</time>
      </trkpt>
      <trkpt lat="48.94138" lon="7.52861">
        <ele>315</ele>
        <time>2021-08-08T07:17:55Z</time>
      </trkpt>
      <trkpt lat="48.94138" lon="7.52861">
        <ele>315</ele>
        <time>2021-08-08T07:17:56Z</time>
      </trkpt>
      <trkpt lat="48.94138" lon="7.52861">
        <ele>315</ele>
        <time>2021-08-08T07:18:55Z</time>
      </trkpt>
      <trkpt lat="48.94138" lon="7.52861">
        <ele>315</ele>
        <time>2021-08-08T07:18:56Z</time>
      </trkpt>
      <trkpt lat="48.94148" lon="7.52857">
        <ele>315</ele>
        <time>2021-08-08T07:18:57Z</time>
      </trkpt>
      <trkpt lat="48.94148" lon="7.52857">
        <ele>315</ele>
        <time>2021-08-08T07:19:27Z</time>
      </trkpt>
      <trkpt lat="48.94148" lon="7.52857">
        <ele>315</ele>
        <time>2021-08-08T07:19:28Z</time>
      </trkpt>
      <trkpt lat="48.94139" lon="7.52848">
        <ele>315</ele>
        <time>2021-08-08T07:19:29Z</time>
      </trkpt>
      <trkpt lat="48.94138" lon="7.52845">
        <ele>315</ele>
        <time>2021-08-08T07:19:30Z</time>
      </trkpt>
      <trkpt lat="48.94138" lon="7.52845">
        <ele>315</ele>
        <time>2021-08-08T07:19:31Z</time>
      </trkpt>
      <trkpt lat="48.94136" lon="7.52841">
        <ele>315</ele>
        <time>2021-08-08T07:19:32Z</time>
      </trkpt>
      <trkpt lat="48.94136" lon="7.52841">
        <ele>315</ele>
        <time>2021-08-08T07:19:33Z</time>
      </trkpt>
      <trkpt lat="48.94134" lon="7.52838">
        <ele>315</ele>
        <time>2021-08-08T07:19:34Z</time>
      </trkpt>
      <trkpt lat="48.94134" lon="7.52838">
        <ele>315</ele>
        <time>2021-08-08T07:19:35Z</time>
      </trkpt>
      <trkpt lat="48.94133" lon="7.52833">
        <ele>315</ele>
        <time>2021-08-08T07:19:36Z</time>
      </trkpt>
      <trkpt lat="48.94133" lon="7.5283">
        <ele>315</ele>
        <time>2021-08-08T07:19:37Z</time>
      </trkpt>
      <trkpt lat="48.94133" lon="7.5283">
        <ele>315</ele>
        <time>2021-08-08T07:19:38Z</time>
      </trkpt>
      <trkpt lat="48.94133" lon="7.52822">
        <ele>315</ele>
        <time>2021-08-08T07:19:39Z</time>
      </trkpt>
      <trkpt lat="48.94133" lon="7.52822">
        <ele>315</ele>
        <time>2021-08-08T07:19:40Z</time>
      </trkpt>
      <trkpt lat="48.94133" lon="7.52815">
        <ele>315</ele>
        <time>2021-08-08T07:19:41Z</time>
      </trkpt>
      <trkpt lat="48.94133" lon="7.52815">
        <ele>315</ele>
        <time>2021-08-08T07:19:42Z</time>
      </trkpt>
      <trkpt lat="48.94135" lon="7.52807">
        <ele>315</ele>
        <time>2021-08-08T07:19:43Z</time>
      </trkpt>
      <trkpt lat="48.94135" lon="7.52807">
        <ele>315</ele>
        <time>2021-08-08T07:19:44Z</time>
      </trkpt>
      <trkpt lat="48.94136" lon="7.52799">
        <ele>315</ele>
        <time>2021-08-08T07:19:45Z</time>
      </trkpt>
      <trkpt lat="48.94136" lon="7.52799">
        <ele>315</ele>
        <time>2021-08-08T07:19:46Z</time>
      </trkpt>
      <trkpt lat="48.94137" lon="7.52792">
        <ele>315</ele>
        <time>2021-08-08T07:19:47Z</time>
      </trkpt>
      <trkpt lat="48.94137" lon="7.52788">
        <ele>315</ele>
        <time>2021-08-08T07:19:48Z</time>
      </trkpt>
      <trkpt lat="48.94137" lon="7.52788">
        <ele>315</ele>
        <time>2021-08-08T07:19:49Z</time>
      </trkpt>
      <trkpt lat="48.94138" lon="7.5278">
        <ele>315</ele>
        <time>2021-08-08T07:19:50Z</time>
      </trkpt>
      <trkpt lat="48.94138" lon="7.5278">
        <ele>315</ele>
        <time>2021-08-08T07:19:51Z</time>
      </trkpt>
      <trkpt lat="48.94139" lon="7.52774">
        <ele>316</ele>
        <time>2021-08-08T07:19:52Z</time>
      </trkpt>
      <trkpt lat="48.94139" lon="7.52772">
        <ele>316</ele>
        <time>2021-08-08T07:19:53Z</time>
      </trkpt>
      <trkpt lat="48.94139" lon="7.52772">
        <ele>316</ele>
        <time>2021-08-08T07:19:54Z</time>
      </trkpt>
      <trkpt lat="48.9414" lon="7.52767">
        <ele>316</ele>
        <time>2021-08-08T07:19:55Z</time>
      </trkpt>
      <trkpt lat="48.9414" lon="7.52767">
        <ele>317</ele>
        <time>2021-08-08T07:19:56Z</time>
      </trkpt>
      <trkpt lat="48.9414" lon="7.52763">
        <ele>317</ele>
        <time>2021-08-08T07:19:57Z</time>
      </trkpt>
      <trkpt lat="48.9414" lon="7.52763">
        <ele>317</ele>
        <time>2021-08-08T07:19:58Z</time>
      </trkpt>
      <trkpt lat="48.94141" lon="7.52758">
        <ele>317</ele>
        <time>2021-08-08T07:19:59Z</time>
      </trkpt>
      <trkpt lat="48.94141" lon="7.52758">
        <ele>317</ele>
        <time>2021-08-08T07:20:00Z</time>
      </trkpt>
      <trkpt lat="48.9414" lon="7.52753">
        <ele>317</ele>
        <time>2021-08-08T07:20:01Z</time>
      </trkpt>
      <trkpt lat="48.9414" lon="7.5275">
        <ele>319</ele>
        <time>2021-08-08T07:20:02Z</time>
      </trkpt>
      <trkpt lat="48.9414" lon="7.5275">
        <ele>319</ele>
        <time>2021-08-08T07:20:03Z</time>
      </trkpt>
      <trkpt lat="48.94141" lon="7.52744">
        <ele>319</ele>
        <time>2021-08-08T07:20:04Z</time>
      </trkpt>
      <trkpt lat="48.94141" lon="7.52744">
        <ele>320</ele>
        <time>2021-08-08T07:20:05Z</time>
      </trkpt>
      <trkpt lat="48.94141" lon="7.52739">
        <ele>320</ele>
        <time>2021-08-08T07:20:06Z</time>
      </trkpt>
      <trkpt lat="48.94141" lon="7.52739">
        <ele>320</ele>
        <time>2021-08-08T07:20:07Z</time>
      </trkpt>
      <trkpt lat="48.94141" lon="7.52734">
        <ele>320</ele>
        <time>2021-08-08T07:20:08Z</time>
      </trkpt>
      <trkpt lat="48.9414" lon="7.52732">
        <ele>321</ele>
        <time>2021-08-08T07:20:09Z</time>
      </trkpt>
      <trkpt lat="48.9414" lon="7.52732">
        <ele>321</ele>
        <time>2021-08-08T07:20:10Z</time>
      </trkpt>
      <trkpt lat="48.9414" lon="7.52728">
        <ele>321</ele>
        <time>2021-08-08T07:20:11Z</time>
      </trkpt>
      <trkpt lat="48.9414" lon="7.52728">
        <ele>321</ele>
        <time>2021-08-08T07:20:12Z</time>
      </trkpt>
      <trkpt lat="48.94139" lon="7.52724">
        <ele>321</ele>
        <time>2021-08-08T07:20:13Z</time>
      </trkpt>
      <trkpt lat="48.94139" lon="7.52724">
        <ele>322</ele>
        <time>2021-08-08T07:20:14Z</time>
      </trkpt>
      <trkpt lat="48.94137" lon="7.52717">
        <ele>322</ele>
        <time>2021-08-08T07:20:15Z</time>
      </trkpt>
      <trkpt lat="48.94137" lon="7.52717">
        <ele>322</ele>
        <time>2021-08-08T07:20:16Z</time>
      </trkpt>
      <trkpt lat="48.94136" lon="7.5271">
        <ele>322</ele>
        <time>2021-08-08T07:20:17Z</time>
      </trkpt>
      <trkpt lat="48.94136" lon="7.5271">
        <ele>322</ele>
        <time>2021-08-08T07:20:18Z</time>
      </trkpt>
      <trkpt lat="48.94135" lon="7.52705">
        <ele>322</ele>
        <time>2021-08-08T07:20:19Z</time>
      </trkpt>
      <trkpt lat="48.94134" lon="7.52703">
        <ele>322</ele>
        <time>2021-08-08T07:20:20Z</time>
      </trkpt>
      <trkpt lat="48.94134" lon="7.52703">
        <ele>322</ele>
        <time>2021-08-08T07:20:21Z</time>
      </trkpt>
      <trkpt lat="48.94132" lon="7.52699">
        <ele>322</ele>
        <time>2021-08-08T07:20:22Z</time>
      </trkpt>
      <trkpt lat="48.94132" lon="7.52699">
        <ele>322</ele>
        <time>2021-08-08T07:20:23Z</time>
      </trkpt>
      <trkpt lat="48.94131" lon="7.52696">
        <ele>324</ele>
        <time>2021-08-08T07:20:24Z</time>
      </trkpt>
      <trkpt lat="48.9413" lon="7.52693">
        <ele>324</ele>
        <time>2021-08-08T07:20:25Z</time>
      </trkpt>
      <trkpt lat="48.9413" lon="7.52693">
        <ele>324</ele>
        <time>2021-08-08T07:20:26Z</time>
      </trkpt>
      <trkpt lat="48.94129" lon="7.52688">
        <ele>324</ele>
        <time>2021-08-08T07:20:27Z</time>
      </trkpt>
      <trkpt lat="48.94129" lon="7.52688">
        <ele>324</ele>
        <time>2021-08-08T07:20:28Z</time>
      </trkpt>
      <trkpt lat="48.94126" lon="7.52682">
        <ele>324</ele>
        <time>2021-08-08T07:20:29Z</time>
      </trkpt>
      <trkpt lat="48.94126" lon="7.52679">
        <ele>324</ele>
        <time>2021-08-08T07:20:30Z</time>
      </trkpt>
      <trkpt lat="48.94125" lon="7.52676">
        <ele>324</ele>
        <time>2021-08-08T07:20:31Z</time>
      </trkpt>
      <trkpt lat="48.94125" lon="7.52676">
        <ele>325</ele>
        <time>2021-08-08T07:20:32Z</time>
      </trkpt>
      <trkpt lat="48.94125" lon="7.52671">
        <ele>325</ele>
        <time>2021-08-08T07:20:33Z</time>
      </trkpt>
      <trkpt lat="48.94125" lon="7.52671">
        <ele>325</ele>
        <time>2021-08-08T07:20:34Z</time>
      </trkpt>
      <trkpt lat="48.94123" lon="7.52666">
        <ele>325</ele>
        <time>2021-08-08T07:20:35Z</time>
      </trkpt>
      <trkpt lat="48.94122" lon="7.52664">
        <ele>325</ele>
        <time>2021-08-08T07:20:36Z</time>
      </trkpt>
      <trkpt lat="48.94122" lon="7.52664">
        <ele>325</ele>
        <time>2021-08-08T07:20:37Z</time>
      </trkpt>
      <trkpt lat="48.9412" lon="7.52658">
        <ele>326</ele>
        <time>2021-08-08T07:20:38Z</time>
      </trkpt>
      <trkpt lat="48.94119" lon="7.52656">
        <ele>326</ele>
        <time>2021-08-08T07:20:39Z</time>
      </trkpt>
      <trkpt lat="48.94119" lon="7.52656">
        <ele>326</ele>
        <time>2021-08-08T07:20:40Z</time>
      </trkpt>
      <trkpt lat="48.94116" lon="7.52649">
        <ele>326</ele>
        <time>2021-08-08T07:20:41Z</time>
      </trkpt>
      <trkpt lat="48.94116" lon="7.52649">
        <ele>327</ele>
        <time>2021-08-08T07:20:42Z</time>
      </trkpt>
      <trkpt lat="48.94115" lon="7.52643">
        <ele>327</ele>
        <time>2021-08-08T07:20:43Z</time>
      </trkpt>
      <trkpt lat="48.94115" lon="7.52643">
        <ele>327</ele>
        <time>2021-08-08T07:20:44Z</time>
      </trkpt>
      <trkpt lat="48.94113" lon="7.52639">
        <ele>327</ele>
        <time>2021-08-08T07:20:45Z</time>
      </trkpt>
      <trkpt lat="48.94113" lon="7.52639">
        <ele>327</ele>
        <time>2021-08-08T07:20:46Z</time>
      </trkpt>
      <trkpt lat="48.94111" lon="7.52634">
        <ele>327</ele>
        <time>2021-08-08T07:20:47Z</time>
      </trkpt>
      <trkpt lat="48.94111" lon="7.52634">
        <ele>328</ele>
        <time>2021-08-08T07:20:48Z</time>
      </trkpt>
      <trkpt lat="48.94109" lon="7.5263">
        <ele>328</ele>
        <time>2021-08-08T07:20:49Z</time>
      </trkpt>
      <trkpt lat="48.94109" lon="7.5263">
        <ele>328</ele>
        <time>2021-08-08T07:20:50Z</time>
      </trkpt>
      <trkpt lat="48.94108" lon="7.52627">
        <ele>328</ele>
        <time>2021-08-08T07:20:51Z</time>
      </trkpt>
      <trkpt lat="48.94108" lon="7.52627">
        <ele>328</ele>
        <time>2021-08-08T07:20:52Z</time>
      </trkpt>
      <trkpt lat="48.94107" lon="7.52623">
        <ele>328</ele>
        <time>2021-08-08T07:20:53Z</time>
      </trkpt>
      <trkpt lat="48.94107" lon="7.52623">
        <ele>329</ele>
        <time>2021-08-08T07:20:54Z</time>
      </trkpt>
      <trkpt lat="48.94105" lon="7.52618">
        <ele>329</ele>
        <time>2021-08-08T07:20:55Z</time>
      </trkpt>
      <trkpt lat="48.94104" lon="7.52615">
        <ele>329</ele>
        <time>2021-08-08T07:20:56Z</time>
      </trkpt>
      <trkpt lat="48.94104" lon="7.52615">
        <ele>329</ele>
        <time>2021-08-08T07:20:57Z</time>
      </trkpt>
      <trkpt lat="48.94103" lon="7.52609">
        <ele>329</ele>
        <time>2021-08-08T07:20:58Z</time>
      </trkpt>
      <trkpt lat="48.94102" lon="7.52606">
        <ele>329</ele>
        <time>2021-08-08T07:20:59Z</time>
      </trkpt>
      <trkpt lat="48.94102" lon="7.52606">
        <ele>330</ele>
        <time>2021-08-08T07:21:00Z</time>
      </trkpt>
      <trkpt lat="48.941" lon="7.526">
        <ele>330</ele>
        <time>2021-08-08T07:21:01Z</time>
      </trkpt>
      <trkpt lat="48.941" lon="7.526">
        <ele>330</ele>
        <time>2021-08-08T07:21:02Z</time>
      </trkpt>
      <trkpt lat="48.94097" lon="7.52593">
        <ele>330</ele>
        <time>2021-08-08T07:21:03Z</time>
      </trkpt>
      <trkpt lat="48.94097" lon="7.52593">
        <ele>330</ele>
        <time>2021-08-08T07:21:04Z</time>
      </trkpt>
      <trkpt lat="48.94094" lon="7.52587">
        <ele>330</ele>
        <time>2021-08-08T07:21:05Z</time>
      </trkpt>
      <trkpt lat="48.94094" lon="7.52587">
        <ele>330</ele>
        <time>2021-08-08T07:21:06Z</time>
      </trkpt>
      <trkpt lat="48.94092" lon="7.52581">
        <ele>331</ele>
        <time>2021-08-08T07:21:07Z</time>
      </trkpt>
      <trkpt lat="48.94092" lon="7.52581">
        <ele>331</ele>
        <time>2021-08-08T07:21:08Z</time>
      </trkpt>
      <trkpt lat="48.9409" lon="7.52576">
        <ele>331</ele>
        <time>2021-08-08T07:21:09Z</time>
      </trkpt>
      <trkpt lat="48.9409" lon="7.52576">
        <ele>331</ele>
        <time>2021-08-08T07:21:10Z</time>
      </trkpt>
      <trkpt lat="48.94088" lon="7.52572">
        <ele>331</ele>
        <time>2021-08-08T07:21:11Z</time>
      </trkpt>
      <trkpt lat="48.94088" lon="7.52572">
        <ele>331</ele>
        <time>2021-08-08T07:21:12Z</time>
      </trkpt>
      <trkpt lat="48.94085" lon="7.52569">
        <ele>331</ele>
        <time>2021-08-08T07:21:13Z</time>
      </trkpt>
      <trkpt lat="48.94083" lon="7.52567">
        <ele>331</ele>
        <time>2021-08-08T07:21:14Z</time>
      </trkpt>
      <trkpt lat="48.94083" lon="7.52567">
        <ele>331</ele>
        <time>2021-08-08T07:21:15Z</time>
      </trkpt>
      <trkpt lat="48.94081" lon="7.52563">
        <ele>331</ele>
        <time>2021-08-08T07:21:16Z</time>
      </trkpt>
      <trkpt lat="48.9408" lon="7.52561">
        <ele>331</ele>
        <time>2021-08-08T07:21:17Z</time>
      </trkpt>
      <trkpt lat="48.9408" lon="7.52561">
        <ele>331</ele>
        <time>2021-08-08T07:21:18Z</time>
      </trkpt>
      <trkpt lat="48.94079" lon="7.52557">
        <ele>332</ele>
        <time>2021-08-08T07:21:19Z</time>
      </trkpt>
      <trkpt lat="48.94079" lon="7.52557">
        <ele>332</ele>
        <time>2021-08-08T07:21:20Z</time>
      </trkpt>
      <trkpt lat="48.94077" lon="7.52552">
        <ele>332</ele>
        <time>2021-08-08T07:21:21Z</time>
      </trkpt>
      <trkpt lat="48.94077" lon="7.52552">
        <ele>332</ele>
        <time>2021-08-08T07:21:22Z</time>
      </trkpt>
      <trkpt lat="48.94074" lon="7.52547">
        <ele>332</ele>
        <time>2021-08-08T07:21:23Z</time>
      </trkpt>
      <trkpt lat="48.94073" lon="7.52545">
        <ele>332</ele>
        <time>2021-08-08T07:21:24Z</time>
      </trkpt>
      <trkpt lat="48.94072" lon="7.52542">
        <ele>333</ele>
        <time>2021-08-08T07:21:25Z</time>
      </trkpt>
      <trkpt lat="48.94072" lon="7.5254">
        <ele>333</ele>
        <time>2021-08-08T07:21:26Z</time>
      </trkpt>
      <trkpt lat="48.94071" lon="7.52538">
        <ele>333</ele>
        <time>2021-08-08T07:21:27Z</time>
      </trkpt>
      <trkpt lat="48.94071" lon="7.52538">
        <ele>333</ele>
        <time>2021-08-08T07:21:28Z</time>
      </trkpt>
      <trkpt lat="48.94068" lon="7.52533">
        <ele>334</ele>
        <time>2021-08-08T07:21:29Z</time>
      </trkpt>
      <trkpt lat="48.94068" lon="7.52533">
        <ele>334</ele>
        <time>2021-08-08T07:21:30Z</time>
      </trkpt>
      <trkpt lat="48.94065" lon="7.52528">
        <ele>334</ele>
        <time>2021-08-08T07:21:31Z</time>
      </trkpt>
      <trkpt lat="48.94065" lon="7.52528">
        <ele>334</ele>
        <time>2021-08-08T07:21:32Z</time>
      </trkpt>
      <trkpt lat="48.94062" lon="7.52523">
        <ele>335</ele>
        <time>2021-08-08T07:21:33Z</time>
      </trkpt>
      <trkpt lat="48.94062" lon="7.52523">
        <ele>335</ele>
        <time>2021-08-08T07:21:34Z</time>
      </trkpt>
      <trkpt lat="48.9406" lon="7.52517">
        <ele>335</ele>
        <time>2021-08-08T07:21:35Z</time>
      </trkpt>
      <trkpt lat="48.94058" lon="7.52515">
        <ele>335</ele>
        <time>2021-08-08T07:21:36Z</time>
      </trkpt>
      <trkpt lat="48.94058" lon="7.52515">
        <ele>336</ele>
        <time>2021-08-08T07:21:37Z</time>
      </trkpt>
      <trkpt lat="48.94055" lon="7.52509">
        <ele>336</ele>
        <time>2021-08-08T07:21:38Z</time>
      </trkpt>
      <trkpt lat="48.94054" lon="7.52507">
        <ele>336</ele>
        <time>2021-08-08T07:21:39Z</time>
      </trkpt>
      <trkpt lat="48.94053" lon="7.52504">
        <ele>336</ele>
        <time>2021-08-08T07:21:40Z</time>
      </trkpt>
      <trkpt lat="48.94053" lon="7.52504">
        <ele>336</ele>
        <time>2021-08-08T07:21:41Z</time>
      </trkpt>
      <trkpt lat="48.9405" lon="7.52501">
        <ele>336</ele>
        <time>2021-08-08T07:21:42Z</time>
      </trkpt>
      <trkpt lat="48.94048" lon="7.52499">
        <ele>336</ele>
        <time>2021-08-08T07:21:43Z</time>
      </trkpt>
      <trkpt lat="48.94048" lon="7.52499">
        <ele>337</ele>
        <time>2021-08-08T07:21:44Z</time>
      </trkpt>
      <trkpt lat="48.94045" lon="7.52496">
        <ele>337</ele>
        <time>2021-08-08T07:21:45Z</time>
      </trkpt>
      <trkpt lat="48.94045" lon="7.52496">
        <ele>337</ele>
        <time>2021-08-08T07:21:46Z</time>
      </trkpt>
      <trkpt lat="48.94042" lon="7.52493">
        <ele>337</ele>
        <time>2021-08-08T07:21:47Z</time>
      </trkpt>
      <trkpt lat="48.94042" lon="7.52493">
        <ele>337</ele>
        <time>2021-08-08T07:21:48Z</time>
      </trkpt>
      <trkpt lat="48.94039" lon="7.5249">
        <ele>337</ele>
        <time>2021-08-08T07:21:49Z</time>
      </trkpt>
      <trkpt lat="48.94039" lon="7.5249">
        <ele>337</ele>
        <time>2021-08-08T07:21:50Z</time>
      </trkpt>
      <trkpt lat="48.94036" lon="7.52486">
        <ele>337</ele>
        <time>2021-08-08T07:21:51Z</time>
      </trkpt>
      <trkpt lat="48.94036" lon="7.52486">
        <ele>337</ele>
        <time>2021-08-08T07:21:52Z</time>
      </trkpt>
      <trkpt lat="48.94032" lon="7.52483">
        <ele>337</ele>
        <time>2021-08-08T07:21:53Z</time>
      </trkpt>
      <trkpt lat="48.94032" lon="7.52483">
        <ele>337</ele>
        <time>2021-08-08T07:21:54Z</time>
      </trkpt>
      <trkpt lat="48.9403" lon="7.52479">
        <ele>338</ele>
        <time>2021-08-08T07:21:55Z</time>
      </trkpt>
      <trkpt lat="48.94028" lon="7.52477">
        <ele>338</ele>
        <time>2021-08-08T07:21:56Z</time>
      </trkpt>
      <trkpt lat="48.94027" lon="7.52476">
        <ele>338</ele>
        <time>2021-08-08T07:21:57Z</time>
      </trkpt>
      <trkpt lat="48.94027" lon="7.52476">
        <ele>338</ele>
        <time>2021-08-08T07:21:58Z</time>
      </trkpt>
      <trkpt lat="48.94025" lon="7.52472">
        <ele>338</ele>
        <time>2021-08-08T07:21:59Z</time>
      </trkpt>
      <trkpt lat="48.94025" lon="7.52472">
        <ele>338</ele>
        <time>2021-08-08T07:22:00Z</time>
      </trkpt>
      <trkpt lat="48.94022" lon="7.52469">
        <ele>338</ele>
        <time>2021-08-08T07:22:01Z</time>
      </trkpt>
      <trkpt lat="48.94022" lon="7.52469">
        <ele>339</ele>
        <time>2021-08-08T07:22:02Z</time>
      </trkpt>
      <trkpt lat="48.94019" lon="7.52465">
        <ele>339</ele>
        <time>2021-08-08T07:22:03Z</time>
      </trkpt>
      <trkpt lat="48.94019" lon="7.52465">
        <ele>339</ele>
        <time>2021-08-08T07:22:04Z</time>
      </trkpt>
      <trkpt lat="48.94015" lon="7.5246">
        <ele>339</ele>
        <time>2021-08-08T07:22:05Z</time>
      </trkpt>
      <trkpt lat="48.94015" lon="7.5246">
        <ele>340</ele>
        <time>2021-08-08T07:22:06Z</time>
      </trkpt>
      <trkpt lat="48.94012" lon="7.52455">
        <ele>340</ele>
        <time>2021-08-08T07:22:07Z</time>
      </trkpt>
      <trkpt lat="48.94012" lon="7.52455">
        <ele>340</ele>
        <time>2021-08-08T07:22:08Z</time>
      </trkpt>
      <trkpt lat="48.94009" lon="7.5245">
        <ele>340</ele>
        <time>2021-08-08T07:22:09Z</time>
      </trkpt>
      <trkpt lat="48.94008" lon="7.52447">
        <ele>340</ele>
        <time>2021-08-08T07:22:10Z</time>
      </trkpt>
      <trkpt lat="48.94008" lon="7.52447">
        <ele>340</ele>
        <time>2021-08-08T07:22:11Z</time>
      </trkpt>
      <trkpt lat="48.94006" lon="7.52443">
        <ele>341</ele>
        <time>2021-08-08T07:22:12Z</time>
      </trkpt>
      <trkpt lat="48.94004" lon="7.52441">
        <ele>341</ele>
        <time>2021-08-08T07:22:13Z</time>
      </trkpt>
      <trkpt lat="48.94003" lon="7.52439">
        <ele>341</ele>
        <time>2021-08-08T07:22:14Z</time>
      </trkpt>
      <trkpt lat="48.94003" lon="7.52439">
        <ele>341</ele>
        <time>2021-08-08T07:22:15Z</time>
      </trkpt>
      <trkpt lat="48.94001" lon="7.52435">
        <ele>341</ele>
        <time>2021-08-08T07:22:16Z</time>
      </trkpt>
      <trkpt lat="48.94" lon="7.52433">
        <ele>341</ele>
        <time>2021-08-08T07:22:17Z</time>
      </trkpt>
      <trkpt lat="48.94" lon="7.52433">
        <ele>342</ele>
        <time>2021-08-08T07:22:18Z</time>
      </trkpt>
      <trkpt lat="48.93997" lon="7.52429">
        <ele>342</ele>
        <time>2021-08-08T07:22:19Z</time>
      </trkpt>
      <trkpt lat="48.93997" lon="7.52429">
        <ele>342</ele>
        <time>2021-08-08T07:22:20Z</time>
      </trkpt>
      <trkpt lat="48.93995" lon="7.52424">
        <ele>342</ele>
        <time>2021-08-08T07:22:21Z</time>
      </trkpt>
      <trkpt lat="48.93995" lon="7.52424">
        <ele>342</ele>
        <time>2021-08-08T07:22:22Z</time>
      </trkpt>
      <trkpt lat="48.93993" lon="7.52421">
        <ele>342</ele>
        <time>2021-08-08T07:22:23Z</time>
      </trkpt>
      <trkpt lat="48.93993" lon="7.52421">
        <ele>342</ele>
        <time>2021-08-08T07:22:24Z</time>
      </trkpt>
      <trkpt lat="48.93992" lon="7.52416">
        <ele>342</ele>
        <time>2021-08-08T07:22:25Z</time>
      </trkpt>
      <trkpt lat="48.93991" lon="7.52414">
        <ele>344</ele>
        <time>2021-08-08T07:22:26Z</time>
      </trkpt>
      <trkpt lat="48.9399" lon="7.52412">
        <ele>344</ele>
        <time>2021-08-08T07:22:27Z</time>
      </trkpt>
      <trkpt lat="48.9399" lon="7.52412">
        <ele>344</ele>
        <time>2021-08-08T07:22:28Z</time>
      </trkpt>
      <trkpt lat="48.93988" lon="7.52407">
        <ele>344</ele>
        <time>2021-08-08T07:22:29Z</time>
      </trkpt>
      <trkpt lat="48.93988" lon="7.52407">
        <ele>344</ele>
        <time>2021-08-08T07:22:30Z</time>
      </trkpt>
      <trkpt lat="48.93986" lon="7.52403">
        <ele>344</ele>
        <time>2021-08-08T07:22:31Z</time>
      </trkpt>
      <trkpt lat="48.93986" lon="7.52403">
        <ele>345</ele>
        <time>2021-08-08T07:22:32Z</time>
      </trkpt>
      <trkpt lat="48.93983" lon="7.52399">
        <ele>345</ele>
        <time>2021-08-08T07:22:33Z</time>
      </trkpt>
      <trkpt lat="48.93983" lon="7.52399">
        <ele>345</ele>
        <time>2021-08-08T07:22:34Z</time>
      </trkpt>
      <trkpt lat="48.9398" lon="7.52393">
        <ele>345</ele>
        <time>2021-08-08T07:22:35Z</time>
      </trkpt>
      <trkpt lat="48.93979" lon="7.5239">
        <ele>345</ele>
        <time>2021-08-08T07:22:36Z</time>
      </trkpt>
      <trkpt lat="48.93978" lon="7.52388">
        <ele>345</ele>
        <time>2021-08-08T07:22:37Z</time>
      </trkpt>
      <trkpt lat="48.93978" lon="7.52388">
        <ele>345</ele>
        <time>2021-08-08T07:22:38Z</time>
      </trkpt>
      <trkpt lat="48.93976" lon="7.52381">
        <ele>345</ele>
        <time>2021-08-08T07:22:39Z</time>
      </trkpt>
      <trkpt lat="48.93976" lon="7.52381">
        <ele>346</ele>
        <time>2021-08-08T07:22:40Z</time>
      </trkpt>
      <trkpt lat="48.93973" lon="7.52377">
        <ele>346</ele>
        <time>2021-08-08T07:22:41Z</time>
      </trkpt>
      <trkpt lat="48.93973" lon="7.52377">
        <ele>346</ele>
        <time>2021-08-08T07:22:42Z</time>
      </trkpt>
      <trkpt lat="48.93971" lon="7.52373">
        <ele>346</ele>
        <time>2021-08-08T07:22:43Z</time>
      </trkpt>
      <trkpt lat="48.93971" lon="7.52373">
        <ele>347</ele>
        <time>2021-08-08T07:22:44Z</time>
      </trkpt>
      <trkpt lat="48.93969" lon="7.52369">
        <ele>347</ele>
        <time>2021-08-08T07:22:45Z</time>
      </trkpt>
      <trkpt lat="48.93969" lon="7.52367">
        <ele>347</ele>
        <time>2021-08-08T07:22:46Z</time>
      </trkpt>
      <trkpt lat="48.93969" lon="7.52367">
        <ele>348</ele>
        <time>2021-08-08T07:22:47Z</time>
      </trkpt>
      <trkpt lat="48.93967" lon="7.52362">
        <ele>348</ele>
        <time>2021-08-08T07:22:48Z</time>
      </trkpt>
      <trkpt lat="48.93967" lon="7.52362">
        <ele>348</ele>
        <time>2021-08-08T07:22:49Z</time>
      </trkpt>
      <trkpt lat="48.93965" lon="7.52358">
        <ele>348</ele>
        <time>2021-08-08T07:22:50Z</time>
      </trkpt>
      <trkpt lat="48.93964" lon="7.52356">
        <ele>348</ele>
        <time>2021-08-08T07:22:51Z</time>
      </trkpt>
      <trkpt lat="48.93964" lon="7.52356">
        <ele>349</ele>
        <time>2021-08-08T07:22:52Z</time>
      </trkpt>
      <trkpt lat="48.93962" lon="7.52351">
        <ele>349</ele>
        <time>2021-08-08T07:22:53Z</time>
      </trkpt>
      <trkpt lat="48.93962" lon="7.52351">
        <ele>350</ele>
        <time>2021-08-08T07:22:54Z</time>
      </trkpt>
      <trkpt lat="48.9396" lon="7.52348">
        <ele>350</ele>
        <time>2021-08-08T07:22:55Z</time>
      </trkpt>
      <trkpt lat="48.9396" lon="7.52348">
        <ele>350</ele>
        <time>2021-08-08T07:22:56Z</time>
      </trkpt>
      <trkpt lat="48.93958" lon="7.52343">
        <ele>350</ele>
        <time>2021-08-08T07:22:57Z</time>
      </trkpt>
      <trkpt lat="48.93958" lon="7.52343">
        <ele>351</ele>
        <time>2021-08-08T07:22:58Z</time>
      </trkpt>
      <trkpt lat="48.93955" lon="7.52339">
        <ele>351</ele>
        <time>2021-08-08T07:22:59Z</time>
      </trkpt>
      <trkpt lat="48.93954" lon="7.52336">
        <ele>351</ele>
        <time>2021-08-08T07:23:00Z</time>
      </trkpt>
      <trkpt lat="48.93954" lon="7.52336">
        <ele>351</ele>
        <time>2021-08-08T07:23:01Z</time>
      </trkpt>
      <trkpt lat="48.93952" lon="7.52332">
        <ele>352</ele>
        <time>2021-08-08T07:23:02Z</time>
      </trkpt>
      <trkpt lat="48.93951" lon="7.5233">
        <ele>352</ele>
        <time>2021-08-08T07:23:03Z</time>
      </trkpt>
      <trkpt lat="48.93951" lon="7.5233">
        <ele>352</ele>
        <time>2021-08-08T07:23:04Z</time>
      </trkpt>
      <trkpt lat="48.93948" lon="7.52326">
        <ele>352</ele>
        <time>2021-08-08T07:23:05Z</time>
      </trkpt>
      <trkpt lat="48.93948" lon="7.52326">
        <ele>353</ele>
        <time>2021-08-08T07:23:06Z</time>
      </trkpt>
      <trkpt lat="48.93946" lon="7.52322">
        <ele>353</ele>
        <time>2021-08-08T07:23:07Z</time>
      </trkpt>
      <trkpt lat="48.93946" lon="7.52322">
        <ele>353</ele>
        <time>2021-08-08T07:23:08Z</time>
      </trkpt>
      <trkpt lat="48.93943" lon="7.52318">
        <ele>353</ele>
        <time>2021-08-08T07:23:09Z</time>
      </trkpt>
      <trkpt lat="48.93943" lon="7.52318">
        <ele>354</ele>
        <time>2021-08-08T07:23:10Z</time>
      </trkpt>
      <trkpt lat="48.93941" lon="7.52313">
        <ele>354</ele>
        <time>2021-08-08T07:23:11Z</time>
      </trkpt>
      <trkpt lat="48.9394" lon="7.52311">
        <ele>354</ele>
        <time>2021-08-08T07:23:12Z</time>
      </trkpt>
      <trkpt lat="48.9394" lon="7.52311">
        <ele>354</ele>
        <time>2021-08-08T07:23:13Z</time>
      </trkpt>
      <trkpt lat="48.93938" lon="7.52305">
        <ele>354</ele>
        <time>2021-08-08T07:23:14Z</time>
      </trkpt>
      <trkpt lat="48.93937" lon="7.52302">
        <ele>354</ele>
        <time>2021-08-08T07:23:15Z</time>
      </trkpt>
      <trkpt lat="48.93937" lon="7.52302">
        <ele>354</ele>
        <time>2021-08-08T07:23:16Z</time>
      </trkpt>
      <trkpt lat="48.93934" lon="7.52295">
        <ele>354</ele>
        <time>2021-08-08T07:23:17Z</time>
      </trkpt>
      <trkpt lat="48.93934" lon="7.52295">
        <ele>355</ele>
        <time>2021-08-08T07:23:18Z</time>
      </trkpt>
      <trkpt lat="48.93932" lon="7.5229">
        <ele>355</ele>
        <time>2021-08-08T07:23:19Z</time>
      </trkpt>
      <trkpt lat="48.93931" lon="7.52288">
        <ele>355</ele>
        <time>2021-08-08T07:23:20Z</time>
      </trkpt>
      <trkpt lat="48.9393" lon="7.52286">
        <ele>355</ele>
        <time>2021-08-08T07:23:21Z</time>
      </trkpt>
      <trkpt lat="48.9393" lon="7.52286">
        <ele>355</ele>
        <time>2021-08-08T07:23:22Z</time>
      </trkpt>
      <trkpt lat="48.93928" lon="7.52283">
        <ele>355</ele>
        <time>2021-08-08T07:23:23Z</time>
      </trkpt>
      <trkpt lat="48.93927" lon="7.52281">
        <ele>355</ele>
        <time>2021-08-08T07:23:24Z</time>
      </trkpt>
      <trkpt lat="48.93925" lon="7.52279">
        <ele>355</ele>
        <time>2021-08-08T07:23:25Z</time>
      </trkpt>
      <trkpt lat="48.93925" lon="7.52279">
        <ele>356</ele>
        <time>2021-08-08T07:23:26Z</time>
      </trkpt>
      <trkpt lat="48.93922" lon="7.52276">
        <ele>356</ele>
        <time>2021-08-08T07:23:27Z</time>
      </trkpt>
      <trkpt lat="48.93922" lon="7.52276">
        <ele>356</ele>
        <time>2021-08-08T07:23:28Z</time>
      </trkpt>
      <trkpt lat="48.9392" lon="7.52273">
        <ele>356</ele>
        <time>2021-08-08T07:23:29Z</time>
      </trkpt>
      <trkpt lat="48.9392" lon="7.52273">
        <ele>357</ele>
        <time>2021-08-08T07:23:30Z</time>
      </trkpt>
      <trkpt lat="48.93918" lon="7.5227">
        <ele>357</ele>
        <time>2021-08-08T07:23:31Z</time>
      </trkpt>
      <trkpt lat="48.93918" lon="7.5227">
        <ele>357</ele>
        <time>2021-08-08T07:23:32Z</time>
      </trkpt>
      <trkpt lat="48.93915" lon="7.52268">
        <ele>357</ele>
        <time>2021-08-08T07:23:33Z</time>
      </trkpt>
      <trkpt lat="48.93915" lon="7.52268">
        <ele>357</ele>
        <time>2021-08-08T07:23:34Z</time>
      </trkpt>
      <trkpt lat="48.93912" lon="7.52265">
        <ele>357</ele>
        <time>2021-08-08T07:23:35Z</time>
      </trkpt>
      <trkpt lat="48.93912" lon="7.52265">
        <ele>358</ele>
        <time>2021-08-08T07:23:36Z</time>
      </trkpt>
      <trkpt lat="48.93908" lon="7.52262">
        <ele>358</ele>
        <time>2021-08-08T07:23:37Z</time>
      </trkpt>
      <trkpt lat="48.93908" lon="7.52262">
        <ele>358</ele>
        <time>2021-08-08T07:23:38Z</time>
      </trkpt>
      <trkpt lat="48.93905" lon="7.52259">
        <ele>358</ele>
        <time>2021-08-08T07:23:39Z</time>
      </trkpt>
      <trkpt lat="48.93905" lon="7.52259">
        <ele>358</ele>
        <time>2021-08-08T07:23:40Z</time>
      </trkpt>
      <trkpt lat="48.93902" lon="7.52257">
        <ele>358</ele>
        <time>2021-08-08T07:23:41Z</time>
      </trkpt>
      <trkpt lat="48.93902" lon="7.52257">
        <ele>358</ele>
        <time>2021-08-08T07:23:42Z</time>
      </trkpt>
      <trkpt lat="48.93898" lon="7.52254">
        <ele>358</ele>
        <time>2021-08-08T07:23:43Z</time>
      </trkpt>
      <trkpt lat="48.93898" lon="7.52254">
        <ele>358</ele>
        <time>2021-08-08T07:23:44Z</time>
      </trkpt>
      <trkpt lat="48.93894" lon="7.5225">
        <ele>358</ele>
        <time>2021-08-08T07:23:45Z</time>
      </trkpt>
      <trkpt lat="48.93894" lon="7.5225">
        <ele>358</ele>
        <time>2021-08-08T07:23:46Z</time>
      </trkpt>
      <trkpt lat="48.9389" lon="7.52247">
        <ele>358</ele>
        <time>2021-08-08T07:23:47Z</time>
      </trkpt>
      <trkpt lat="48.93889" lon="7.52246">
        <ele>358</ele>
        <time>2021-08-08T07:23:48Z</time>
      </trkpt>
      <trkpt lat="48.93889" lon="7.52246">
        <ele>358</ele>
        <time>2021-08-08T07:23:49Z</time>
      </trkpt>
      <trkpt lat="48.93887" lon="7.52242">
        <ele>360</ele>
        <time>2021-08-08T07:23:50Z</time>
      </trkpt>
      <trkpt lat="48.93886" lon="7.52241">
        <ele>360</ele>
        <time>2021-08-08T07:23:51Z</time>
      </trkpt>
      <trkpt lat="48.93886" lon="7.52241">
        <ele>360</ele>
        <time>2021-08-08T07:23:52Z</time>
      </trkpt>
      <trkpt lat="48.93883" lon="7.52239">
        <ele>360</ele>
        <time>2021-08-08T07:23:53Z</time>
      </trkpt>
      <trkpt lat="48.93883" lon="7.52239">
        <ele>360</ele>
        <time>2021-08-08T07:23:54Z</time>
      </trkpt>
      <trkpt lat="48.93881" lon="7.52236">
        <ele>360</ele>
        <time>2021-08-08T07:23:55Z</time>
      </trkpt>
      <trkpt lat="48.93879" lon="7.52234">
        <ele>360</ele>
        <time>2021-08-08T07:23:56Z</time>
      </trkpt>
      <trkpt lat="48.93879" lon="7.52234">
        <ele>361</ele>
        <time>2021-08-08T07:23:57Z</time>
      </trkpt>
      <trkpt lat="48.93876" lon="7.52231">
        <ele>361</ele>
        <time>2021-08-08T07:23:58Z</time>
      </trkpt>
      <trkpt lat="48.93875" lon="7.5223">
        <ele>361</ele>
        <time>2021-08-08T07:23:59Z</time>
      </trkpt>
      <trkpt lat="48.93875" lon="7.5223">
        <ele>361</ele>
        <time>2021-08-08T07:24:00Z</time>
      </trkpt>
      <trkpt lat="48.93872" lon="7.52228">
        <ele>361</ele>
        <time>2021-08-08T07:24:01Z</time>
      </trkpt>
      <trkpt lat="48.93872" lon="7.52228">
        <ele>362</ele>
        <time>2021-08-08T07:24:02Z</time>
      </trkpt>
      <trkpt lat="48.93869" lon="7.52224">
        <ele>362</ele>
        <time>2021-08-08T07:24:03Z</time>
      </trkpt>
      <trkpt lat="48.93869" lon="7.52224">
        <ele>362</ele>
        <time>2021-08-08T07:24:04Z</time>
      </trkpt>
      <trkpt lat="48.93867" lon="7.52221">
        <ele>362</ele>
        <time>2021-08-08T07:24:05Z</time>
      </trkpt>
      <trkpt lat="48.93866" lon="7.52219">
        <ele>363</ele>
        <time>2021-08-08T07:24:06Z</time>
      </trkpt>
      <trkpt lat="48.93864" lon="7.52217">
        <ele>363</ele>
        <time>2021-08-08T07:24:07Z</time>
      </trkpt>
      <trkpt lat="48.93864" lon="7.52217">
        <ele>363</ele>
        <time>2021-08-08T07:24:08Z</time>
      </trkpt>
      <trkpt lat="48.9386" lon="7.52212">
        <ele>363</ele>
        <time>2021-08-08T07:24:09Z</time>
      </trkpt>
      <trkpt lat="48.9386" lon="7.52212">
        <ele>363</ele>
        <time>2021-08-08T07:24:10Z</time>
      </trkpt>
      <trkpt lat="48.93855" lon="7.52207">
        <ele>363</ele>
        <time>2021-08-08T07:24:11Z</time>
      </trkpt>
      <trkpt lat="48.93855" lon="7.52207">
        <ele>364</ele>
        <time>2021-08-08T07:24:12Z</time>
      </trkpt>
      <trkpt lat="48.93852" lon="7.52203">
        <ele>364</ele>
        <time>2021-08-08T07:24:13Z</time>
      </trkpt>
      <trkpt lat="48.93852" lon="7.52203">
        <ele>364</ele>
        <time>2021-08-08T07:24:14Z</time>
      </trkpt>
      <trkpt lat="48.93848" lon="7.52199">
        <ele>364</ele>
        <time>2021-08-08T07:24:15Z</time>
      </trkpt>
      <trkpt lat="48.93848" lon="7.52199">
        <ele>364</ele>
        <time>2021-08-08T07:24:16Z</time>
      </trkpt>
      <trkpt lat="48.93844" lon="7.52195">
        <ele>364</ele>
        <time>2021-08-08T07:24:17Z</time>
      </trkpt>
      <trkpt lat="48.93844" lon="7.52195">
        <ele>364</ele>
        <time>2021-08-08T07:24:18Z</time>
      </trkpt>
      <trkpt lat="48.93841" lon="7.52191">
        <ele>364</ele>
        <time>2021-08-08T07:24:19Z</time>
      </trkpt>
      <trkpt lat="48.93841" lon="7.52191">
        <ele>365</ele>
        <time>2021-08-08T07:24:20Z</time>
      </trkpt>
      <trkpt lat="48.93838" lon="7.52189">
        <ele>365</ele>
        <time>2021-08-08T07:24:21Z</time>
      </trkpt>
      <trkpt lat="48.93838" lon="7.52189">
        <ele>365</ele>
        <time>2021-08-08T07:24:22Z</time>
      </trkpt>
      <trkpt lat="48.93835" lon="7.52186">
        <ele>365</ele>
        <time>2021-08-08T07:24:23Z</time>
      </trkpt>
      <trkpt lat="48.93834" lon="7.52183">
        <ele>365</ele>
        <time>2021-08-08T07:24:24Z</time>
      </trkpt>
      <trkpt lat="48.93833" lon="7.52181">
        <ele>365</ele>
        <time>2021-08-08T07:24:25Z</time>
      </trkpt>
      <trkpt lat="48.93833" lon="7.52181">
        <ele>365</ele>
        <time>2021-08-08T07:24:26Z</time>
      </trkpt>
      <trkpt lat="48.9383" lon="7.52176">
        <ele>365</ele>
        <time>2021-08-08T07:24:27Z</time>
      </trkpt>
      <trkpt lat="48.93828" lon="7.52174">
        <ele>365</ele>
        <time>2021-08-08T07:24:28Z</time>
      </trkpt>
      <trkpt lat="48.93828" lon="7.52174">
        <ele>365</ele>
        <time>2021-08-08T07:24:29Z</time>
      </trkpt>
      <trkpt lat="48.93825" lon="7.5217">
        <ele>365</ele>
        <time>2021-08-08T07:24:30Z</time>
      </trkpt>
      <trkpt lat="48.93823" lon="7.52166">
        <ele>365</ele>
        <time>2021-08-08T07:24:31Z</time>
      </trkpt>
      <trkpt lat="48.93823" lon="7.52166">
        <ele>365</ele>
        <time>2021-08-08T07:24:32Z</time>
      </trkpt>
      <trkpt lat="48.9382" lon="7.52159">
        <ele>365</ele>
        <time>2021-08-08T07:24:33Z</time>
      </trkpt>
      <trkpt lat="48.9382" lon="7.52159">
        <ele>365</ele>
        <time>2021-08-08T07:24:34Z</time>
      </trkpt>
      <trkpt lat="48.93819" lon="7.52154">
        <ele>365</ele>
        <time>2021-08-08T07:24:35Z</time>
      </trkpt>
      <trkpt lat="48.93819" lon="7.52154">
        <ele>366</ele>
        <time>2021-08-08T07:24:36Z</time>
      </trkpt>
      <trkpt lat="48.93816" lon="7.52148">
        <ele>366</ele>
        <time>2021-08-08T07:24:37Z</time>
      </trkpt>
      <trkpt lat="48.93816" lon="7.52148">
        <ele>366</ele>
        <time>2021-08-08T07:24:38Z</time>
      </trkpt>
      <trkpt lat="48.93814" lon="7.52141">
        <ele>366</ele>
        <time>2021-08-08T07:24:39Z</time>
      </trkpt>
      <trkpt lat="48.93814" lon="7.52141">
        <ele>366</ele>
        <time>2021-08-08T07:24:40Z</time>
      </trkpt>
      <trkpt lat="48.9381" lon="7.52133">
        <ele>366</ele>
        <time>2021-08-08T07:24:41Z</time>
      </trkpt>
      <trkpt lat="48.9381" lon="7.52133">
        <ele>366</ele>
        <time>2021-08-08T07:24:42Z</time>
      </trkpt>
      <trkpt lat="48.93807" lon="7.52125">
        <ele>366</ele>
        <time>2021-08-08T07:24:43Z</time>
      </trkpt>
      <trkpt lat="48.93807" lon="7.52125">
        <ele>367</ele>
        <time>2021-08-08T07:24:44Z</time>
      </trkpt>
      <trkpt lat="48.93806" lon="7.52116">
        <ele>367</ele>
        <time>2021-08-08T07:24:45Z</time>
      </trkpt>
      <trkpt lat="48.93806" lon="7.52116">
        <ele>367</ele>
        <time>2021-08-08T07:24:46Z</time>
      </trkpt>
      <trkpt lat="48.93806" lon="7.52109">
        <ele>368</ele>
        <time>2021-08-08T07:24:47Z</time>
      </trkpt>
      <trkpt lat="48.93806" lon="7.52109">
        <ele>368</ele>
        <time>2021-08-08T07:24:48Z</time>
      </trkpt>
      <trkpt lat="48.93808" lon="7.52102">
        <ele>368</ele>
        <time>2021-08-08T07:24:49Z</time>
      </trkpt>
      <trkpt lat="48.93808" lon="7.52102">
        <ele>368</ele>
        <time>2021-08-08T07:24:50Z</time>
      </trkpt>
      <trkpt lat="48.9381" lon="7.52096">
        <ele>368</ele>
        <time>2021-08-08T07:24:51Z</time>
      </trkpt>
      <trkpt lat="48.9381" lon="7.52096">
        <ele>368</ele>
        <time>2021-08-08T07:24:52Z</time>
      </trkpt>
      <trkpt lat="48.93812" lon="7.5209">
        <ele>368</ele>
        <time>2021-08-08T07:24:53Z</time>
      </trkpt>
      <trkpt lat="48.93814" lon="7.52087">
        <ele>368</ele>
        <time>2021-08-08T07:24:54Z</time>
      </trkpt>
      <trkpt lat="48.93814" lon="7.52087">
        <ele>368</ele>
        <time>2021-08-08T07:24:55Z</time>
      </trkpt>
      <trkpt lat="48.93817" lon="7.52081">
        <ele>368</ele>
        <time>2021-08-08T07:24:56Z</time>
      </trkpt>
      <trkpt lat="48.93817" lon="7.52081">
        <ele>368</ele>
        <time>2021-08-08T07:24:57Z</time>
      </trkpt>
      <trkpt lat="48.93822" lon="7.52074">
        <ele>368</ele>
        <time>2021-08-08T07:24:58Z</time>
      </trkpt>
      <trkpt lat="48.93822" lon="7.52074">
        <ele>368</ele>
        <time>2021-08-08T07:24:59Z</time>
      </trkpt>
      <trkpt lat="48.93828" lon="7.52067">
        <ele>368</ele>
        <time>2021-08-08T07:25:00Z</time>
      </trkpt>
      <trkpt lat="48.93832" lon="7.52063">
        <ele>368</ele>
        <time>2021-08-08T07:25:01Z</time>
      </trkpt>
      <trkpt lat="48.93832" lon="7.52063">
        <ele>368</ele>
        <time>2021-08-08T07:25:02Z</time>
      </trkpt>
      <trkpt lat="48.93841" lon="7.52059">
        <ele>368</ele>
        <time>2021-08-08T07:25:03Z</time>
      </trkpt>
      <trkpt lat="48.93841" lon="7.52059">
        <ele>368</ele>
        <time>2021-08-08T07:25:04Z</time>
      </trkpt>
      <trkpt lat="48.93849" lon="7.52056">
        <ele>368</ele>
        <time>2021-08-08T07:25:05Z</time>
      </trkpt>
      <trkpt lat="48.93853" lon="7.52055">
        <ele>368</ele>
        <time>2021-08-08T07:25:06Z</time>
      </trkpt>
      <trkpt lat="48.93853" lon="7.52055">
        <ele>368</ele>
        <time>2021-08-08T07:25:07Z</time>
      </trkpt>
      <trkpt lat="48.93862" lon="7.5205">
        <ele>368</ele>
        <time>2021-08-08T07:25:08Z</time>
      </trkpt>
      <trkpt lat="48.93866" lon="7.52048">
        <ele>368</ele>
        <time>2021-08-08T07:25:09Z</time>
      </trkpt>
      <trkpt lat="48.93866" lon="7.52048">
        <ele>368</ele>
        <time>2021-08-08T07:25:10Z</time>
      </trkpt>
      <trkpt lat="48.93873" lon="7.52037">
        <ele>368</ele>
        <time>2021-08-08T07:25:11Z</time>
      </trkpt>
      <trkpt lat="48.93873" lon="7.52037">
        <ele>368</ele>
        <time>2021-08-08T07:25:12Z</time>
      </trkpt>
      <trkpt lat="48.9388" lon="7.52028">
        <ele>367</ele>
        <time>2021-08-08T07:25:13Z</time>
      </trkpt>
      <trkpt lat="48.9388" lon="7.52028">
        <ele>367</ele>
        <time>2021-08-08T07:25:14Z</time>
      </trkpt>
      <trkpt lat="48.93888" lon="7.52019">
        <ele>367</ele>
        <time>2021-08-08T07:25:15Z</time>
      </trkpt>
      <trkpt lat="48.93888" lon="7.52019">
        <ele>367</ele>
        <time>2021-08-08T07:25:16Z</time>
      </trkpt>
      <trkpt lat="48.93894" lon="7.52008">
        <ele>366</ele>
        <time>2021-08-08T07:25:17Z</time>
      </trkpt>
      <trkpt lat="48.93894" lon="7.52008">
        <ele>366</ele>
        <time>2021-08-08T07:25:18Z</time>
      </trkpt>
      <trkpt lat="48.93901" lon="7.51997">
        <ele>366</ele>
        <time>2021-08-08T07:25:19Z</time>
      </trkpt>
      <trkpt lat="48.93901" lon="7.51997">
        <ele>366</ele>
        <time>2021-08-08T07:25:20Z</time>
      </trkpt>
      <trkpt lat="48.93908" lon="7.51986">
        <ele>365</ele>
        <time>2021-08-08T07:25:21Z</time>
      </trkpt>
      <trkpt lat="48.93908" lon="7.51986">
        <ele>365</ele>
        <time>2021-08-08T07:25:22Z</time>
      </trkpt>
      <trkpt lat="48.93914" lon="7.51971">
        <ele>365</ele>
        <time>2021-08-08T07:25:23Z</time>
      </trkpt>
      <trkpt lat="48.93917" lon="7.51964">
        <ele>365</ele>
        <time>2021-08-08T07:25:24Z</time>
      </trkpt>
      <trkpt lat="48.93917" lon="7.51964">
        <ele>365</ele>
        <time>2021-08-08T07:25:25Z</time>
      </trkpt>
      <trkpt lat="48.93923" lon="7.51951">
        <ele>364</ele>
        <time>2021-08-08T07:25:26Z</time>
      </trkpt>
      <trkpt lat="48.93927" lon="7.51945">
        <ele>364</ele>
        <time>2021-08-08T07:25:27Z</time>
      </trkpt>
      <trkpt lat="48.93927" lon="7.51945">
        <ele>364</ele>
        <time>2021-08-08T07:25:28Z</time>
      </trkpt>
      <trkpt lat="48.93933" lon="7.51934">
        <ele>364</ele>
        <time>2021-08-08T07:25:29Z</time>
      </trkpt>
      <trkpt lat="48.93933" lon="7.51934">
        <ele>363</ele>
        <time>2021-08-08T07:25:30Z</time>
      </trkpt>
      <trkpt lat="48.93939" lon="7.51921">
        <ele>363</ele>
        <time>2021-08-08T07:25:31Z</time>
      </trkpt>
      <trkpt lat="48.93939" lon="7.51921">
        <ele>363</ele>
        <time>2021-08-08T07:25:32Z</time>
      </trkpt>
      <trkpt lat="48.93946" lon="7.51906">
        <ele>363</ele>
        <time>2021-08-08T07:25:33Z</time>
      </trkpt>
      <trkpt lat="48.9395" lon="7.51898">
        <ele>362</ele>
        <time>2021-08-08T07:25:34Z</time>
      </trkpt>
      <trkpt lat="48.93953" lon="7.51891">
        <ele>361</ele>
        <time>2021-08-08T07:25:35Z</time>
      </trkpt>
      <trkpt lat="48.93953" lon="7.51891">
        <ele>361</ele>
        <time>2021-08-08T07:25:36Z</time>
      </trkpt>
      <trkpt lat="48.93962" lon="7.51882">
        <ele>361</ele>
        <time>2021-08-08T07:25:37Z</time>
      </trkpt>
      <trkpt lat="48.93962" lon="7.51882">
        <ele>361</ele>
        <time>2021-08-08T07:25:38Z</time>
      </trkpt>
      <trkpt lat="48.93973" lon="7.51876">
        <ele>360</ele>
        <time>2021-08-08T07:25:39Z</time>
      </trkpt>
      <trkpt lat="48.93973" lon="7.51876">
        <ele>360</ele>
        <time>2021-08-08T07:25:40Z</time>
      </trkpt>
      <trkpt lat="48.93989" lon="7.51872">
        <ele>360</ele>
        <time>2021-08-08T07:25:41Z</time>
      </trkpt>
      <trkpt lat="48.93989" lon="7.51872">
        <ele>360</ele>
        <time>2021-08-08T07:25:42Z</time>
      </trkpt>
      <trkpt lat="48.93999" lon="7.51865">
        <ele>360</ele>
        <time>2021-08-08T07:25:43Z</time>
      </trkpt>
      <trkpt lat="48.93999" lon="7.51865">
        <ele>360</ele>
        <time>2021-08-08T07:25:44Z</time>
      </trkpt>
      <trkpt lat="48.94007" lon="7.51852">
        <ele>360</ele>
        <time>2021-08-08T07:25:45Z</time>
      </trkpt>
      <trkpt lat="48.94007" lon="7.51852">
        <ele>360</ele>
        <time>2021-08-08T07:25:46Z</time>
      </trkpt>
      <trkpt lat="48.94011" lon="7.51836">
        <ele>360</ele>
        <time>2021-08-08T07:25:47Z</time>
      </trkpt>
      <trkpt lat="48.94011" lon="7.51836">
        <ele>360</ele>
        <time>2021-08-08T07:25:48Z</time>
      </trkpt>
      <trkpt lat="48.94014" lon="7.51822">
        <ele>360</ele>
        <time>2021-08-08T07:25:49Z</time>
      </trkpt>
      <trkpt lat="48.94014" lon="7.51822">
        <ele>360</ele>
        <time>2021-08-08T07:25:50Z</time>
      </trkpt>
      <trkpt lat="48.94018" lon="7.51811">
        <ele>360</ele>
        <time>2021-08-08T07:25:51Z</time>
      </trkpt>
      <trkpt lat="48.94018" lon="7.51811">
        <ele>360</ele>
        <time>2021-08-08T07:25:52Z</time>
      </trkpt>
      <trkpt lat="48.94021" lon="7.51801">
        <ele>360</ele>
        <time>2021-08-08T07:25:53Z</time>
      </trkpt>
      <trkpt lat="48.94021" lon="7.51801">
        <ele>360</ele>
        <time>2021-08-08T07:25:54Z</time>
      </trkpt>
      <trkpt lat="48.94024" lon="7.51792">
        <ele>360</ele>
        <time>2021-08-08T07:25:55Z</time>
      </trkpt>
      <trkpt lat="48.94024" lon="7.51792">
        <ele>360</ele>
        <time>2021-08-08T07:25:56Z</time>
      </trkpt>
      <trkpt lat="48.94027" lon="7.51784">
        <ele>360</ele>
        <time>2021-08-08T07:25:57Z</time>
      </trkpt>
      <trkpt lat="48.94029" lon="7.51779">
        <ele>360</ele>
        <time>2021-08-08T07:25:58Z</time>
      </trkpt>
      <trkpt lat="48.94029" lon="7.51779">
        <ele>360</ele>
        <time>2021-08-08T07:25:59Z</time>
      </trkpt>
      <trkpt lat="48.94034" lon="7.51769">
        <ele>360</ele>
        <time>2021-08-08T07:26:00Z</time>
      </trkpt>
      <trkpt lat="48.94037" lon="7.51763">
        <ele>360</ele>
        <time>2021-08-08T07:26:01Z</time>
      </trkpt>
      <trkpt lat="48.94037" lon="7.51763">
        <ele>360</ele>
        <time>2021-08-08T07:26:02Z</time>
      </trkpt>
      <trkpt lat="48.94042" lon="7.51752">
        <ele>360</ele>
        <time>2021-08-08T07:26:03Z</time>
      </trkpt>
      <trkpt lat="48.94043" lon="7.51747">
        <ele>360</ele>
        <time>2021-08-08T07:26:04Z</time>
      </trkpt>
      <trkpt lat="48.94043" lon="7.51747">
        <ele>360</ele>
        <time>2021-08-08T07:26:05Z</time>
      </trkpt>
      <trkpt lat="48.94045" lon="7.51738">
        <ele>360</ele>
        <time>2021-08-08T07:26:06Z</time>
      </trkpt>
      <trkpt lat="48.94047" lon="7.51734">
        <ele>360</ele>
        <time>2021-08-08T07:26:07Z</time>
      </trkpt>
      <trkpt lat="48.94047" lon="7.51734">
        <ele>360</ele>
        <time>2021-08-08T07:26:08Z</time>
      </trkpt>
      <trkpt lat="48.94049" lon="7.51728">
        <ele>360</ele>
        <time>2021-08-08T07:26:09Z</time>
      </trkpt>
      <trkpt lat="48.94049" lon="7.51728">
        <ele>360</ele>
        <time>2021-08-08T07:26:10Z</time>
      </trkpt>
      <trkpt lat="48.94052" lon="7.51723">
        <ele>360</ele>
        <time>2021-08-08T07:26:11Z</time>
      </trkpt>
      <trkpt lat="48.94052" lon="7.51723">
        <ele>360</ele>
        <time>2021-08-08T07:26:12Z</time>
      </trkpt>
      <trkpt lat="48.94055" lon="7.51716">
        <ele>360</ele>
        <time>2021-08-08T07:26:13Z</time>
      </trkpt>
      <trkpt lat="48.94055" lon="7.51716">
        <ele>360</ele>
        <time>2021-08-08T07:26:14Z</time>
      </trkpt>
      <trkpt lat="48.94057" lon="7.5171">
        <ele>360</ele>
        <time>2021-08-08T07:26:15Z</time>
      </trkpt>
      <trkpt lat="48.94057" lon="7.5171">
        <ele>360</ele>
        <time>2021-08-08T07:26:16Z</time>
      </trkpt>
      <trkpt lat="48.94059" lon="7.51705">
        <ele>361</ele>
        <time>2021-08-08T07:26:17Z</time>
      </trkpt>
      <trkpt lat="48.94059" lon="7.51705">
        <ele>361</ele>
        <time>2021-08-08T07:26:18Z</time>
      </trkpt>
      <trkpt lat="48.94062" lon="7.51698">
        <ele>361</ele>
        <time>2021-08-08T07:26:19Z</time>
      </trkpt>
      <trkpt lat="48.94062" lon="7.51698">
        <ele>361</ele>
        <time>2021-08-08T07:26:20Z</time>
      </trkpt>
      <trkpt lat="48.94064" lon="7.51693">
        <ele>361</ele>
        <time>2021-08-08T07:26:21Z</time>
      </trkpt>
      <trkpt lat="48.94064" lon="7.51693">
        <ele>361</ele>
        <time>2021-08-08T07:26:22Z</time>
      </trkpt>
      <trkpt lat="48.94067" lon="7.51686">
        <ele>361</ele>
        <time>2021-08-08T07:26:23Z</time>
      </trkpt>
      <trkpt lat="48.94067" lon="7.51686">
        <ele>361</ele>
        <time>2021-08-08T07:26:24Z</time>
      </trkpt>
      <trkpt lat="48.94069" lon="7.5168">
        <ele>361</ele>
        <time>2021-08-08T07:26:25Z</time>
      </trkpt>
      <trkpt lat="48.94069" lon="7.5168">
        <ele>361</ele>
        <time>2021-08-08T07:26:26Z</time>
      </trkpt>
      <trkpt lat="48.94071" lon="7.51675">
        <ele>362</ele>
        <time>2021-08-08T07:26:27Z</time>
      </trkpt>
      <trkpt lat="48.94072" lon="7.51673">
        <ele>362</ele>
        <time>2021-08-08T07:26:28Z</time>
      </trkpt>
      <trkpt lat="48.94073" lon="7.5167">
        <ele>362</ele>
        <time>2021-08-08T07:26:29Z</time>
      </trkpt>
      <trkpt lat="48.94073" lon="7.5167">
        <ele>362</ele>
        <time>2021-08-08T07:26:30Z</time>
      </trkpt>
      <trkpt lat="48.94075" lon="7.51664">
        <ele>362</ele>
        <time>2021-08-08T07:26:31Z</time>
      </trkpt>
      <trkpt lat="48.94075" lon="7.51664">
        <ele>362</ele>
        <time>2021-08-08T07:26:32Z</time>
      </trkpt>
      <trkpt lat="48.94077" lon="7.51662">
        <ele>362</ele>
        <time>2021-08-08T07:26:33Z</time>
      </trkpt>
      <trkpt lat="48.94077" lon="7.51661">
        <ele>363</ele>
        <time>2021-08-08T07:26:34Z</time>
      </trkpt>
      <trkpt lat="48.94078" lon="7.51659">
        <ele>363</ele>
        <time>2021-08-08T07:26:35Z</time>
      </trkpt>
      <trkpt lat="48.94078" lon="7.51659">
        <ele>363</ele>
        <time>2021-08-08T07:26:36Z</time>
      </trkpt>
      <trkpt lat="48.94081" lon="7.51655">
        <ele>363</ele>
        <time>2021-08-08T07:26:37Z</time>
      </trkpt>
      <trkpt lat="48.94081" lon="7.51655">
        <ele>363</ele>
        <time>2021-08-08T07:26:38Z</time>
      </trkpt>
      <trkpt lat="48.94082" lon="7.51653">
        <ele>363</ele>
        <time>2021-08-08T07:26:39Z</time>
      </trkpt>
      <trkpt lat="48.94082" lon="7.51653">
        <ele>363</ele>
        <time>2021-08-08T07:26:40Z</time>
      </trkpt>
      <trkpt lat="48.94084" lon="7.5165">
        <ele>363</ele>
        <time>2021-08-08T07:26:41Z</time>
      </trkpt>
      <trkpt lat="48.94085" lon="7.51649">
        <ele>365</ele>
        <time>2021-08-08T07:26:42Z</time>
      </trkpt>
      <trkpt lat="48.94085" lon="7.51649">
        <ele>365</ele>
        <time>2021-08-08T07:26:43Z</time>
      </trkpt>
      <trkpt lat="48.94086" lon="7.51647">
        <ele>365</ele>
        <time>2021-08-08T07:26:44Z</time>
      </trkpt>
      <trkpt lat="48.94087" lon="7.51645">
        <ele>365</ele>
        <time>2021-08-08T07:26:45Z</time>
      </trkpt>
      <trkpt lat="48.94087" lon="7.51645">
        <ele>366</ele>
        <time>2021-08-08T07:26:46Z</time>
      </trkpt>
      <trkpt lat="48.94088" lon="7.51642">
        <ele>366</ele>
        <time>2021-08-08T07:26:47Z</time>
      </trkpt>
      <trkpt lat="48.94088" lon="7.51642">
        <ele>366</ele>
        <time>2021-08-08T07:26:48Z</time>
      </trkpt>
      <trkpt lat="48.94092" lon="7.51634">
        <ele>366</ele>
        <time>2021-08-08T07:26:49Z</time>
      </trkpt>
      <trkpt lat="48.94092" lon="7.51634">
        <ele>367</ele>
        <time>2021-08-08T07:26:50Z</time>
      </trkpt>
      <trkpt lat="48.94094" lon="7.5163">
        <ele>367</ele>
        <time>2021-08-08T07:26:51Z</time>
      </trkpt>
      <trkpt lat="48.94094" lon="7.5163">
        <ele>367</ele>
        <time>2021-08-08T07:26:52Z</time>
      </trkpt>
      <trkpt lat="48.94095" lon="7.51626">
        <ele>367</ele>
        <time>2021-08-08T07:26:53Z</time>
      </trkpt>
      <trkpt lat="48.94093" lon="7.51625">
        <ele>369</ele>
        <time>2021-08-08T07:26:54Z</time>
      </trkpt>
      <trkpt lat="48.94093" lon="7.51623">
        <ele>369</ele>
        <time>2021-08-08T07:26:55Z</time>
      </trkpt>
      <trkpt lat="48.94093" lon="7.51623">
        <ele>369</ele>
        <time>2021-08-08T07:26:56Z</time>
      </trkpt>
      <trkpt lat="48.94094" lon="7.5162">
        <ele>369</ele>
        <time>2021-08-08T07:26:57Z</time>
      </trkpt>
      <trkpt lat="48.94094" lon="7.5162">
        <ele>369</ele>
        <time>2021-08-08T07:26:58Z</time>
      </trkpt>
      <trkpt lat="48.94095" lon="7.51617">
        <ele>369</ele>
        <time>2021-08-08T07:26:59Z</time>
      </trkpt>
      <trkpt lat="48.94095" lon="7.51615">
        <ele>370</ele>
        <time>2021-08-08T07:27:00Z</time>
      </trkpt>
      <trkpt lat="48.94096" lon="7.51613">
        <ele>370</ele>
        <time>2021-08-08T07:27:01Z</time>
      </trkpt>
      <trkpt lat="48.94096" lon="7.51613">
        <ele>370</ele>
        <time>2021-08-08T07:27:02Z</time>
      </trkpt>
      <trkpt lat="48.94098" lon="7.5161">
        <ele>370</ele>
        <time>2021-08-08T07:27:03Z</time>
      </trkpt>
      <trkpt lat="48.94098" lon="7.5161">
        <ele>371</ele>
        <time>2021-08-08T07:27:04Z</time>
      </trkpt>
      <trkpt lat="48.941" lon="7.51607">
        <ele>371</ele>
        <time>2021-08-08T07:27:05Z</time>
      </trkpt>
      <trkpt lat="48.941" lon="7.51607">
        <ele>371</ele>
        <time>2021-08-08T07:27:06Z</time>
      </trkpt>
      <trkpt lat="48.94102" lon="7.51603">
        <ele>371</ele>
        <time>2021-08-08T07:27:07Z</time>
      </trkpt>
      <trkpt lat="48.94102" lon="7.51603">
        <ele>371</ele>
        <time>2021-08-08T07:27:08Z</time>
      </trkpt>
      <trkpt lat="48.94105" lon="7.516">
        <ele>371</ele>
        <time>2021-08-08T07:27:09Z</time>
      </trkpt>
      <trkpt lat="48.94106" lon="7.51599">
        <ele>372</ele>
        <time>2021-08-08T07:27:10Z</time>
      </trkpt>
      <trkpt lat="48.94106" lon="7.51599">
        <ele>372</ele>
        <time>2021-08-08T07:27:11Z</time>
      </trkpt>
      <trkpt lat="48.9411" lon="7.51598">
        <ele>372</ele>
        <time>2021-08-08T07:27:12Z</time>
      </trkpt>
      <trkpt lat="48.94112" lon="7.51597">
        <ele>372</ele>
        <time>2021-08-08T07:27:13Z</time>
      </trkpt>
      <trkpt lat="48.94112" lon="7.51597">
        <ele>372</ele>
        <time>2021-08-08T07:27:14Z</time>
      </trkpt>
      <trkpt lat="48.94116" lon="7.51595">
        <ele>372</ele>
        <time>2021-08-08T07:27:15Z</time>
      </trkpt>
      <trkpt lat="48.94116" lon="7.51595">
        <ele>372</ele>
        <time>2021-08-08T07:27:16Z</time>
      </trkpt>
      <trkpt lat="48.94122" lon="7.5159">
        <ele>372</ele>
        <time>2021-08-08T07:27:17Z</time>
      </trkpt>
      <trkpt lat="48.94122" lon="7.5159">
        <ele>372</ele>
        <time>2021-08-08T07:27:18Z</time>
      </trkpt>
      <trkpt lat="48.94126" lon="7.51581">
        <ele>372</ele>
        <time>2021-08-08T07:27:19Z</time>
      </trkpt>
      <trkpt lat="48.94126" lon="7.51581">
        <ele>372</ele>
        <time>2021-08-08T07:27:20Z</time>
      </trkpt>
      <trkpt lat="48.94132" lon="7.51573">
        <ele>372</ele>
        <time>2021-08-08T07:27:21Z</time>
      </trkpt>
      <trkpt lat="48.94132" lon="7.51573">
        <ele>372</ele>
        <time>2021-08-08T07:27:22Z</time>
      </trkpt>
      <trkpt lat="48.94135" lon="7.51566">
        <ele>372</ele>
        <time>2021-08-08T07:27:23Z</time>
      </trkpt>
      <trkpt lat="48.94138" lon="7.51563">
        <ele>372</ele>
        <time>2021-08-08T07:27:24Z</time>
      </trkpt>
      <trkpt lat="48.94138" lon="7.51563">
        <ele>372</ele>
        <time>2021-08-08T07:27:25Z</time>
      </trkpt>
      <trkpt lat="48.94143" lon="7.51555">
        <ele>372</ele>
        <time>2021-08-08T07:27:26Z</time>
      </trkpt>
      <trkpt lat="48.94146" lon="7.51551">
        <ele>372</ele>
        <time>2021-08-08T07:27:27Z</time>
      </trkpt>
      <trkpt lat="48.94146" lon="7.51551">
        <ele>372</ele>
        <time>2021-08-08T07:27:28Z</time>
      </trkpt>
      <trkpt lat="48.94152" lon="7.51542">
        <ele>372</ele>
        <time>2021-08-08T07:27:29Z</time>
      </trkpt>
      <trkpt lat="48.94156" lon="7.51537">
        <ele>371</ele>
        <time>2021-08-08T07:27:30Z</time>
      </trkpt>
      <trkpt lat="48.9416" lon="7.51533">
        <ele>371</ele>
        <time>2021-08-08T07:27:31Z</time>
      </trkpt>
      <trkpt lat="48.9416" lon="7.51533">
        <ele>371</ele>
        <time>2021-08-08T07:27:32Z</time>
      </trkpt>
      <trkpt lat="48.94167" lon="7.51523">
        <ele>371</ele>
        <time>2021-08-08T07:27:33Z</time>
      </trkpt>
      <trkpt lat="48.94167" lon="7.51523">
        <ele>371</ele>
        <time>2021-08-08T07:27:34Z</time>
      </trkpt>
      <trkpt lat="48.94174" lon="7.51512">
        <ele>371</ele>
        <time>2021-08-08T07:27:35Z</time>
      </trkpt>
      <trkpt lat="48.94174" lon="7.51512">
        <ele>371</ele>
        <time>2021-08-08T07:27:36Z</time>
      </trkpt>
      <trkpt lat="48.94181" lon="7.51504">
        <ele>370</ele>
        <time>2021-08-08T07:27:37Z</time>
      </trkpt>
      <trkpt lat="48.94181" lon="7.51504">
        <ele>370</ele>
        <time>2021-08-08T07:27:38Z</time>
      </trkpt>
      <trkpt lat="48.94187" lon="7.51498">
        <ele>370</ele>
        <time>2021-08-08T07:27:39Z</time>
      </trkpt>
      <trkpt lat="48.94187" lon="7.51498">
        <ele>370</ele>
        <time>2021-08-08T07:27:40Z</time>
      </trkpt>
      <trkpt lat="48.94193" lon="7.5149">
        <ele>370</ele>
        <time>2021-08-08T07:27:41Z</time>
      </trkpt>
      <trkpt lat="48.94193" lon="7.5149">
        <ele>370</ele>
        <time>2021-08-08T07:27:42Z</time>
      </trkpt>
      <trkpt lat="48.942" lon="7.5148">
        <ele>370</ele>
        <time>2021-08-08T07:27:43Z</time>
      </trkpt>
      <trkpt lat="48.942" lon="7.5148">
        <ele>370</ele>
        <time>2021-08-08T07:27:44Z</time>
      </trkpt>
      <trkpt lat="48.94208" lon="7.51469">
        <ele>369</ele>
        <time>2021-08-08T07:27:45Z</time>
      </trkpt>
      <trkpt lat="48.94208" lon="7.51469">
        <ele>369</ele>
        <time>2021-08-08T07:27:46Z</time>
      </trkpt>
      <trkpt lat="48.94213" lon="7.5146">
        <ele>369</ele>
        <time>2021-08-08T07:27:47Z</time>
      </trkpt>
      <trkpt lat="48.94213" lon="7.5146">
        <ele>369</ele>
        <time>2021-08-08T07:27:48Z</time>
      </trkpt>
      <trkpt lat="48.94219" lon="7.5145">
        <ele>369</ele>
        <time>2021-08-08T07:27:49Z</time>
      </trkpt>
      <trkpt lat="48.94223" lon="7.51444">
        <ele>369</ele>
        <time>2021-08-08T07:27:50Z</time>
      </trkpt>
      <trkpt lat="48.94228" lon="7.51439">
        <ele>369</ele>
        <time>2021-08-08T07:27:51Z</time>
      </trkpt>
      <trkpt lat="48.94228" lon="7.51439">
        <ele>369</ele>
        <time>2021-08-08T07:27:52Z</time>
      </trkpt>
      <trkpt lat="48.94237" lon="7.51432">
        <ele>369</ele>
        <time>2021-08-08T07:27:53Z</time>
      </trkpt>
      <trkpt lat="48.94237" lon="7.51432">
        <ele>369</ele>
        <time>2021-08-08T07:27:54Z</time>
      </trkpt>
      <trkpt lat="48.94244" lon="7.51422">
        <ele>369</ele>
        <time>2021-08-08T07:27:55Z</time>
      </trkpt>
      <trkpt lat="48.94244" lon="7.51422">
        <ele>369</ele>
        <time>2021-08-08T07:27:56Z</time>
      </trkpt>
      <trkpt lat="48.94251" lon="7.51415">
        <ele>368</ele>
        <time>2021-08-08T07:27:57Z</time>
      </trkpt>
      <trkpt lat="48.94251" lon="7.51415">
        <ele>368</ele>
        <time>2021-08-08T07:27:58Z</time>
      </trkpt>
      <trkpt lat="48.9426" lon="7.5141">
        <ele>368</ele>
        <time>2021-08-08T07:27:59Z</time>
      </trkpt>
      <trkpt lat="48.9426" lon="7.5141">
        <ele>368</ele>
        <time>2021-08-08T07:28:00Z</time>
      </trkpt>
      <trkpt lat="48.94269" lon="7.51404">
        <ele>367</ele>
        <time>2021-08-08T07:28:01Z</time>
      </trkpt>
      <trkpt lat="48.94269" lon="7.51404">
        <ele>367</ele>
        <time>2021-08-08T07:28:02Z</time>
      </trkpt>
      <trkpt lat="48.94277" lon="7.51396">
        <ele>367</ele>
        <time>2021-08-08T07:28:03Z</time>
      </trkpt>
      <trkpt lat="48.94277" lon="7.51396">
        <ele>367</ele>
        <time>2021-08-08T07:28:04Z</time>
      </trkpt>
      <trkpt lat="48.94284" lon="7.51387">
        <ele>367</ele>
        <time>2021-08-08T07:28:05Z</time>
      </trkpt>
      <trkpt lat="48.94284" lon="7.51387">
        <ele>367</ele>
        <time>2021-08-08T07:28:06Z</time>
      </trkpt>
      <trkpt lat="48.94291" lon="7.51377">
        <ele>367</ele>
        <time>2021-08-08T07:28:07Z</time>
      </trkpt>
      <trkpt lat="48.94291" lon="7.51377">
        <ele>367</ele>
        <time>2021-08-08T07:28:08Z</time>
      </trkpt>
      <trkpt lat="48.94296" lon="7.51369">
        <ele>367</ele>
        <time>2021-08-08T07:28:09Z</time>
      </trkpt>
      <trkpt lat="48.94296" lon="7.51369">
        <ele>367</ele>
        <time>2021-08-08T07:28:10Z</time>
      </trkpt>
      <trkpt lat="48.94301" lon="7.5136">
        <ele>367</ele>
        <time>2021-08-08T07:28:11Z</time>
      </trkpt>
      <trkpt lat="48.94301" lon="7.5136">
        <ele>367</ele>
        <time>2021-08-08T07:28:12Z</time>
      </trkpt>
      <trkpt lat="48.94306" lon="7.51351">
        <ele>368</ele>
        <time>2021-08-08T07:28:13Z</time>
      </trkpt>
      <trkpt lat="48.94308" lon="7.51347">
        <ele>368</ele>
        <time>2021-08-08T07:28:14Z</time>
      </trkpt>
      <trkpt lat="48.94308" lon="7.51347">
        <ele>368</ele>
        <time>2021-08-08T07:28:15Z</time>
      </trkpt>
      <trkpt lat="48.94314" lon="7.51338">
        <ele>368</ele>
        <time>2021-08-08T07:28:16Z</time>
      </trkpt>
      <trkpt lat="48.94317" lon="7.51335">
        <ele>368</ele>
        <time>2021-08-08T07:28:17Z</time>
      </trkpt>
      <trkpt lat="48.94317" lon="7.51335">
        <ele>368</ele>
        <time>2021-08-08T07:28:18Z</time>
      </trkpt>
      <trkpt lat="48.94322" lon="7.51326">
        <ele>368</ele>
        <time>2021-08-08T07:28:19Z</time>
      </trkpt>
      <trkpt lat="48.94325" lon="7.5132">
        <ele>368</ele>
        <time>2021-08-08T07:28:20Z</time>
      </trkpt>
      <trkpt lat="48.94329" lon="7.51313">
        <ele>368</ele>
        <time>2021-08-08T07:28:21Z</time>
      </trkpt>
      <trkpt lat="48.94329" lon="7.51313">
        <ele>368</ele>
        <time>2021-08-08T07:28:22Z</time>
      </trkpt>
      <trkpt lat="48.94334" lon="7.51297">
        <ele>368</ele>
        <time>2021-08-08T07:28:23Z</time>
      </trkpt>
      <trkpt lat="48.94334" lon="7.51297">
        <ele>367</ele>
        <time>2021-08-08T07:28:24Z</time>
      </trkpt>
      <trkpt lat="48.94338" lon="7.51278">
        <ele>366</ele>
        <time>2021-08-08T07:28:25Z</time>
      </trkpt>
      <trkpt lat="48.94338" lon="7.51278">
        <ele>366</ele>
        <time>2021-08-08T07:28:26Z</time>
      </trkpt>
      <trkpt lat="48.94341" lon="7.51259">
        <ele>366</ele>
        <time>2021-08-08T07:28:27Z</time>
      </trkpt>
      <trkpt lat="48.94341" lon="7.51259">
        <ele>366</ele>
        <time>2021-08-08T07:28:28Z</time>
      </trkpt>
      <trkpt lat="48.94341" lon="7.51241">
        <ele>365</ele>
        <time>2021-08-08T07:28:29Z</time>
      </trkpt>
      <trkpt lat="48.94341" lon="7.51241">
        <ele>365</ele>
        <time>2021-08-08T07:28:30Z</time>
      </trkpt>
      <trkpt lat="48.9434" lon="7.51225">
        <ele>365</ele>
        <time>2021-08-08T07:28:31Z</time>
      </trkpt>
      <trkpt lat="48.9434" lon="7.51225">
        <ele>365</ele>
        <time>2021-08-08T07:28:32Z</time>
      </trkpt>
      <trkpt lat="48.94338" lon="7.51212">
        <ele>365</ele>
        <time>2021-08-08T07:28:33Z</time>
      </trkpt>
      <trkpt lat="48.94338" lon="7.51212">
        <ele>365</ele>
        <time>2021-08-08T07:28:34Z</time>
      </trkpt>
      <trkpt lat="48.94335" lon="7.51197">
        <ele>364</ele>
        <time>2021-08-08T07:28:35Z</time>
      </trkpt>
      <trkpt lat="48.94335" lon="7.51197">
        <ele>364</ele>
        <time>2021-08-08T07:28:36Z</time>
      </trkpt>
      <trkpt lat="48.94332" lon="7.51179">
        <ele>363</ele>
        <time>2021-08-08T07:28:37Z</time>
      </trkpt>
      <trkpt lat="48.94332" lon="7.51179">
        <ele>363</ele>
        <time>2021-08-08T07:28:38Z</time>
      </trkpt>
      <trkpt lat="48.94328" lon="7.51162">
        <ele>363</ele>
        <time>2021-08-08T07:28:39Z</time>
      </trkpt>
      <trkpt lat="48.94328" lon="7.51162">
        <ele>363</ele>
        <time>2021-08-08T07:28:40Z</time>
      </trkpt>
      <trkpt lat="48.94323" lon="7.51145">
        <ele>362</ele>
        <time>2021-08-08T07:28:41Z</time>
      </trkpt>
      <trkpt lat="48.94323" lon="7.51145">
        <ele>362</ele>
        <time>2021-08-08T07:28:42Z</time>
      </trkpt>
      <trkpt lat="48.94318" lon="7.51132">
        <ele>362</ele>
        <time>2021-08-08T07:28:43Z</time>
      </trkpt>
      <trkpt lat="48.94318" lon="7.51132">
        <ele>362</ele>
        <time>2021-08-08T07:28:44Z</time>
      </trkpt>
      <trkpt lat="48.94313" lon="7.51117">
        <ele>362</ele>
        <time>2021-08-08T07:28:45Z</time>
      </trkpt>
      <trkpt lat="48.94313" lon="7.51117">
        <ele>362</ele>
        <time>2021-08-08T07:28:46Z</time>
      </trkpt>
      <trkpt lat="48.94309" lon="7.511">
        <ele>360</ele>
        <time>2021-08-08T07:28:47Z</time>
      </trkpt>
      <trkpt lat="48.94309" lon="7.511">
        <ele>360</ele>
        <time>2021-08-08T07:28:48Z</time>
      </trkpt>
      <trkpt lat="48.94307" lon="7.5108">
        <ele>358</ele>
        <time>2021-08-08T07:28:49Z</time>
      </trkpt>
      <trkpt lat="48.94307" lon="7.5108">
        <ele>358</ele>
        <time>2021-08-08T07:28:50Z</time>
      </trkpt>
      <trkpt lat="48.94306" lon="7.5106">
        <ele>356</ele>
        <time>2021-08-08T07:28:51Z</time>
      </trkpt>
      <trkpt lat="48.94306" lon="7.5106">
        <ele>356</ele>
        <time>2021-08-08T07:28:52Z</time>
      </trkpt>
      <trkpt lat="48.94305" lon="7.51035">
        <ele>354</ele>
        <time>2021-08-08T07:28:53Z</time>
      </trkpt>
      <trkpt lat="48.94305" lon="7.51035">
        <ele>354</ele>
        <time>2021-08-08T07:28:54Z</time>
      </trkpt>
      <trkpt lat="48.94306" lon="7.51013">
        <ele>353</ele>
        <time>2021-08-08T07:28:55Z</time>
      </trkpt>
      <trkpt lat="48.94306" lon="7.51013">
        <ele>353</ele>
        <time>2021-08-08T07:28:56Z</time>
      </trkpt>
      <trkpt lat="48.94304" lon="7.50989">
        <ele>352</ele>
        <time>2021-08-08T07:28:57Z</time>
      </trkpt>
      <trkpt lat="48.94304" lon="7.50989">
        <ele>352</ele>
        <time>2021-08-08T07:28:58Z</time>
      </trkpt>
      <trkpt lat="48.94304" lon="7.50966">
        <ele>351</ele>
        <time>2021-08-08T07:28:59Z</time>
      </trkpt>
      <trkpt lat="48.94304" lon="7.50966">
        <ele>351</ele>
        <time>2021-08-08T07:29:00Z</time>
      </trkpt>
      <trkpt lat="48.94303" lon="7.50945">
        <ele>350</ele>
        <time>2021-08-08T07:29:01Z</time>
      </trkpt>
      <trkpt lat="48.94303" lon="7.50945">
        <ele>350</ele>
        <time>2021-08-08T07:29:02Z</time>
      </trkpt>
      <trkpt lat="48.94299" lon="7.50924">
        <ele>349</ele>
        <time>2021-08-08T07:29:03Z</time>
      </trkpt>
      <trkpt lat="48.94298" lon="7.50914">
        <ele>349</ele>
        <time>2021-08-08T07:29:04Z</time>
      </trkpt>
      <trkpt lat="48.94298" lon="7.50914">
        <ele>347</ele>
        <time>2021-08-08T07:29:05Z</time>
      </trkpt>
      <trkpt lat="48.943" lon="7.50893">
        <ele>347</ele>
        <time>2021-08-08T07:29:06Z</time>
      </trkpt>
      <trkpt lat="48.94301" lon="7.50882">
        <ele>346</ele>
        <time>2021-08-08T07:29:07Z</time>
      </trkpt>
      <trkpt lat="48.94301" lon="7.50882">
        <ele>346</ele>
        <time>2021-08-08T07:29:08Z</time>
      </trkpt>
      <trkpt lat="48.94306" lon="7.50863">
        <ele>344</ele>
        <time>2021-08-08T07:29:09Z</time>
      </trkpt>
      <trkpt lat="48.94306" lon="7.50863">
        <ele>344</ele>
        <time>2021-08-08T07:29:10Z</time>
      </trkpt>
      <trkpt lat="48.9431" lon="7.50843">
        <ele>343</ele>
        <time>2021-08-08T07:29:11Z</time>
      </trkpt>
      <trkpt lat="48.94311" lon="7.50834">
        <ele>343</ele>
        <time>2021-08-08T07:29:12Z</time>
      </trkpt>
      <trkpt lat="48.94314" lon="7.50824">
        <ele>343</ele>
        <time>2021-08-08T07:29:13Z</time>
      </trkpt>
      <trkpt lat="48.94314" lon="7.50824">
        <ele>343</ele>
        <time>2021-08-08T07:29:14Z</time>
      </trkpt>
      <trkpt lat="48.94317" lon="7.50804">
        <ele>343</ele>
        <time>2021-08-08T07:29:15Z</time>
      </trkpt>
      <trkpt lat="48.94317" lon="7.50804">
        <ele>342</ele>
        <time>2021-08-08T07:29:16Z</time>
      </trkpt>
      <trkpt lat="48.94319" lon="7.50784">
        <ele>342</ele>
        <time>2021-08-08T07:29:17Z</time>
      </trkpt>
      <trkpt lat="48.9432" lon="7.50775">
        <ele>342</ele>
        <time>2021-08-08T07:29:18Z</time>
      </trkpt>
      <trkpt lat="48.9432" lon="7.50765">
        <ele>341</ele>
        <time>2021-08-08T07:29:19Z</time>
      </trkpt>
      <trkpt lat="48.9432" lon="7.50765">
        <ele>341</ele>
        <time>2021-08-08T07:29:20Z</time>
      </trkpt>
      <trkpt lat="48.94321" lon="7.50747">
        <ele>341</ele>
        <time>2021-08-08T07:29:21Z</time>
      </trkpt>
      <trkpt lat="48.94321" lon="7.50747">
        <ele>341</ele>
        <time>2021-08-08T07:29:22Z</time>
      </trkpt>
      <trkpt lat="48.94324" lon="7.5073">
        <ele>341</ele>
        <time>2021-08-08T07:29:23Z</time>
      </trkpt>
      <trkpt lat="48.94324" lon="7.5073">
        <ele>341</ele>
        <time>2021-08-08T07:29:24Z</time>
      </trkpt>
      <trkpt lat="48.94322" lon="7.5071">
        <ele>341</ele>
        <time>2021-08-08T07:29:25Z</time>
      </trkpt>
      <trkpt lat="48.94322" lon="7.5071">
        <ele>341</ele>
        <time>2021-08-08T07:29:26Z</time>
      </trkpt>
      <trkpt lat="48.94322" lon="7.50691">
        <ele>341</ele>
        <time>2021-08-08T07:29:27Z</time>
      </trkpt>
      <trkpt lat="48.94322" lon="7.50682">
        <ele>341</ele>
        <time>2021-08-08T07:29:28Z</time>
      </trkpt>
      <trkpt lat="48.94322" lon="7.50682">
        <ele>341</ele>
        <time>2021-08-08T07:29:29Z</time>
      </trkpt>
      <trkpt lat="48.94321" lon="7.50665">
        <ele>341</ele>
        <time>2021-08-08T07:29:30Z</time>
      </trkpt>
      <trkpt lat="48.94321" lon="7.50656">
        <ele>341</ele>
        <time>2021-08-08T07:29:31Z</time>
      </trkpt>
      <trkpt lat="48.94321" lon="7.50656">
        <ele>341</ele>
        <time>2021-08-08T07:29:32Z</time>
      </trkpt>
      <trkpt lat="48.9432" lon="7.50641">
        <ele>341</ele>
        <time>2021-08-08T07:29:33Z</time>
      </trkpt>
      <trkpt lat="48.94319" lon="7.50634">
        <ele>341</ele>
        <time>2021-08-08T07:29:34Z</time>
      </trkpt>
      <trkpt lat="48.94319" lon="7.50634">
        <ele>341</ele>
        <time>2021-08-08T07:29:35Z</time>
      </trkpt>
      <trkpt lat="48.94318" lon="7.50622">
        <ele>341</ele>
        <time>2021-08-08T07:29:36Z</time>
      </trkpt>
      <trkpt lat="48.94317" lon="7.50616">
        <ele>341</ele>
        <time>2021-08-08T07:29:37Z</time>
      </trkpt>
      <trkpt lat="48.94317" lon="7.50616">
        <ele>341</ele>
        <time>2021-08-08T07:29:38Z</time>
      </trkpt>
      <trkpt lat="48.94315" lon="7.50606">
        <ele>342</ele>
        <time>2021-08-08T07:29:39Z</time>
      </trkpt>
      <trkpt lat="48.94315" lon="7.50606">
        <ele>342</ele>
        <time>2021-08-08T07:29:40Z</time>
      </trkpt>
      <trkpt lat="48.94314" lon="7.50599">
        <ele>343</ele>
        <time>2021-08-08T07:29:41Z</time>
      </trkpt>
      <trkpt lat="48.94314" lon="7.50599">
        <ele>343</ele>
        <time>2021-08-08T07:29:42Z</time>
      </trkpt>
      <trkpt lat="48.94312" lon="7.50592">
        <ele>343</ele>
        <time>2021-08-08T07:29:43Z</time>
      </trkpt>
      <trkpt lat="48.94312" lon="7.50592">
        <ele>343</ele>
        <time>2021-08-08T07:29:44Z</time>
      </trkpt>
      <trkpt lat="48.9431" lon="7.50584">
        <ele>344</ele>
        <time>2021-08-08T07:29:45Z</time>
      </trkpt>
      <trkpt lat="48.9431" lon="7.50584">
        <ele>344</ele>
        <time>2021-08-08T07:29:46Z</time>
      </trkpt>
      <trkpt lat="48.94308" lon="7.50578">
        <ele>344</ele>
        <time>2021-08-08T07:29:47Z</time>
      </trkpt>
      <trkpt lat="48.94308" lon="7.50578">
        <ele>344</ele>
        <time>2021-08-08T07:29:48Z</time>
      </trkpt>
      <trkpt lat="48.94305" lon="7.50571">
        <ele>345</ele>
        <time>2021-08-08T07:29:49Z</time>
      </trkpt>
      <trkpt lat="48.94305" lon="7.50571">
        <ele>345</ele>
        <time>2021-08-08T07:29:50Z</time>
      </trkpt>
      <trkpt lat="48.94302" lon="7.50565">
        <ele>345</ele>
        <time>2021-08-08T07:29:51Z</time>
      </trkpt>
      <trkpt lat="48.94302" lon="7.50565">
        <ele>345</ele>
        <time>2021-08-08T07:29:52Z</time>
      </trkpt>
      <trkpt lat="48.943" lon="7.50559">
        <ele>346</ele>
        <time>2021-08-08T07:29:53Z</time>
      </trkpt>
      <trkpt lat="48.94298" lon="7.50555">
        <ele>346</ele>
        <time>2021-08-08T07:29:54Z</time>
      </trkpt>
      <trkpt lat="48.94296" lon="7.50552">
        <ele>346</ele>
        <time>2021-08-08T07:29:55Z</time>
      </trkpt>
      <trkpt lat="48.94296" lon="7.50552">
        <ele>346</ele>
        <time>2021-08-08T07:29:56Z</time>
      </trkpt>
      <trkpt lat="48.94294" lon="7.50546">
        <ele>347</ele>
        <time>2021-08-08T07:29:57Z</time>
      </trkpt>
      <trkpt lat="48.94294" lon="7.50546">
        <ele>347</ele>
        <time>2021-08-08T07:29:58Z</time>
      </trkpt>
      <trkpt lat="48.94291" lon="7.50539">
        <ele>347</ele>
        <time>2021-08-08T07:29:59Z</time>
      </trkpt>
      <trkpt lat="48.94291" lon="7.50539">
        <ele>347</ele>
        <time>2021-08-08T07:30:00Z</time>
      </trkpt>
      <trkpt lat="48.94288" lon="7.50533">
        <ele>348</ele>
        <time>2021-08-08T07:30:01Z</time>
      </trkpt>
      <trkpt lat="48.94288" lon="7.50533">
        <ele>348</ele>
        <time>2021-08-08T07:30:02Z</time>
      </trkpt>
      <trkpt lat="48.94286" lon="7.50527">
        <ele>348</ele>
        <time>2021-08-08T07:30:03Z</time>
      </trkpt>
      <trkpt lat="48.94286" lon="7.50527">
        <ele>348</ele>
        <time>2021-08-08T07:30:04Z</time>
      </trkpt>
      <trkpt lat="48.94283" lon="7.50523">
        <ele>348</ele>
        <time>2021-08-08T07:30:05Z</time>
      </trkpt>
      <trkpt lat="48.94283" lon="7.50523">
        <ele>348</ele>
        <time>2021-08-08T07:30:06Z</time>
      </trkpt>
      <trkpt lat="48.9428" lon="7.50517">
        <ele>348</ele>
        <time>2021-08-08T07:30:07Z</time>
      </trkpt>
      <trkpt lat="48.9428" lon="7.50517">
        <ele>348</ele>
        <time>2021-08-08T07:30:08Z</time>
      </trkpt>
      <trkpt lat="48.94276" lon="7.50511">
        <ele>348</ele>
        <time>2021-08-08T07:30:09Z</time>
      </trkpt>
      <trkpt lat="48.94274" lon="7.50509">
        <ele>348</ele>
        <time>2021-08-08T07:30:10Z</time>
      </trkpt>
      <trkpt lat="48.94272" lon="7.50507">
        <ele>349</ele>
        <time>2021-08-08T07:30:11Z</time>
      </trkpt>
      <trkpt lat="48.94272" lon="7.50507">
        <ele>349</ele>
        <time>2021-08-08T07:30:12Z</time>
      </trkpt>
      <trkpt lat="48.94267" lon="7.50503">
        <ele>349</ele>
        <time>2021-08-08T07:30:13Z</time>
      </trkpt>
      <trkpt lat="48.94267" lon="7.50503">
        <ele>349</ele>
        <time>2021-08-08T07:30:14Z</time>
      </trkpt>
      <trkpt lat="48.94261" lon="7.50497">
        <ele>349</ele>
        <time>2021-08-08T07:30:15Z</time>
      </trkpt>
      <trkpt lat="48.94261" lon="7.50497">
        <ele>349</ele>
        <time>2021-08-08T07:30:16Z</time>
      </trkpt>
      <trkpt lat="48.94255" lon="7.50492">
        <ele>349</ele>
        <time>2021-08-08T07:30:17Z</time>
      </trkpt>
      <trkpt lat="48.94255" lon="7.50492">
        <ele>349</ele>
        <time>2021-08-08T07:30:18Z</time>
      </trkpt>
      <trkpt lat="48.94249" lon="7.50488">
        <ele>349</ele>
        <time>2021-08-08T07:30:19Z</time>
      </trkpt>
      <trkpt lat="48.94249" lon="7.50488">
        <ele>349</ele>
        <time>2021-08-08T07:30:20Z</time>
      </trkpt>
      <trkpt lat="48.94242" lon="7.50483">
        <ele>349</ele>
        <time>2021-08-08T07:30:21Z</time>
      </trkpt>
      <trkpt lat="48.94242" lon="7.50483">
        <ele>349</ele>
        <time>2021-08-08T07:30:22Z</time>
      </trkpt>
      <trkpt lat="48.94233" lon="7.50478">
        <ele>349</ele>
        <time>2021-08-08T07:30:23Z</time>
      </trkpt>
      <trkpt lat="48.94233" lon="7.50478">
        <ele>348</ele>
        <time>2021-08-08T07:30:24Z</time>
      </trkpt>
      <trkpt lat="48.94219" lon="7.50474">
        <ele>348</ele>
        <time>2021-08-08T07:30:25Z</time>
      </trkpt>
      <trkpt lat="48.94219" lon="7.50474">
        <ele>347</ele>
        <time>2021-08-08T07:30:26Z</time>
      </trkpt>
      <trkpt lat="48.94207" lon="7.50468">
        <ele>347</ele>
        <time>2021-08-08T07:30:27Z</time>
      </trkpt>
      <trkpt lat="48.94207" lon="7.50468">
        <ele>347</ele>
        <time>2021-08-08T07:30:28Z</time>
      </trkpt>
      <trkpt lat="48.94195" lon="7.5046">
        <ele>347</ele>
        <time>2021-08-08T07:30:29Z</time>
      </trkpt>
      <trkpt lat="48.94189" lon="7.50456">
        <ele>346</ele>
        <time>2021-08-08T07:30:30Z</time>
      </trkpt>
      <trkpt lat="48.94183" lon="7.5045">
        <ele>346</ele>
        <time>2021-08-08T07:30:31Z</time>
      </trkpt>
      <trkpt lat="48.94183" lon="7.5045">
        <ele>346</ele>
        <time>2021-08-08T07:30:32Z</time>
      </trkpt>
      <trkpt lat="48.94173" lon="7.5044">
        <ele>346</ele>
        <time>2021-08-08T07:30:33Z</time>
      </trkpt>
      <trkpt lat="48.94173" lon="7.5044">
        <ele>346</ele>
        <time>2021-08-08T07:30:34Z</time>
      </trkpt>
      <trkpt lat="48.94164" lon="7.50427">
        <ele>346</ele>
        <time>2021-08-08T07:30:35Z</time>
      </trkpt>
      <trkpt lat="48.94164" lon="7.50427">
        <ele>345</ele>
        <time>2021-08-08T07:30:36Z</time>
      </trkpt>
      <trkpt lat="48.94156" lon="7.50417">
        <ele>345</ele>
        <time>2021-08-08T07:30:37Z</time>
      </trkpt>
      <trkpt lat="48.94156" lon="7.50417">
        <ele>345</ele>
        <time>2021-08-08T07:30:38Z</time>
      </trkpt>
      <trkpt lat="48.94151" lon="7.50408">
        <ele>345</ele>
        <time>2021-08-08T07:30:39Z</time>
      </trkpt>
      <trkpt lat="48.94151" lon="7.50408">
        <ele>345</ele>
        <time>2021-08-08T07:30:40Z</time>
      </trkpt>
      <trkpt lat="48.94145" lon="7.50398">
        <ele>345</ele>
        <time>2021-08-08T07:30:41Z</time>
      </trkpt>
      <trkpt lat="48.94142" lon="7.50393">
        <ele>345</ele>
        <time>2021-08-08T07:30:42Z</time>
      </trkpt>
      <trkpt lat="48.9414" lon="7.50387">
        <ele>345</ele>
        <time>2021-08-08T07:30:43Z</time>
      </trkpt>
      <trkpt lat="48.9414" lon="7.50387">
        <ele>345</ele>
        <time>2021-08-08T07:30:44Z</time>
      </trkpt>
      <trkpt lat="48.94135" lon="7.50377">
        <ele>345</ele>
        <time>2021-08-08T07:30:45Z</time>
      </trkpt>
      <trkpt lat="48.94135" lon="7.50377">
        <ele>345</ele>
        <time>2021-08-08T07:30:46Z</time>
      </trkpt>
      <trkpt lat="48.94128" lon="7.50366">
        <ele>345</ele>
        <time>2021-08-08T07:30:47Z</time>
      </trkpt>
      <trkpt lat="48.94128" lon="7.50366">
        <ele>345</ele>
        <time>2021-08-08T07:30:48Z</time>
      </trkpt>
      <trkpt lat="48.94122" lon="7.50354">
        <ele>345</ele>
        <time>2021-08-08T07:30:49Z</time>
      </trkpt>
      <trkpt lat="48.94122" lon="7.50354">
        <ele>345</ele>
        <time>2021-08-08T07:30:50Z</time>
      </trkpt>
      <trkpt lat="48.94116" lon="7.50342">
        <ele>345</ele>
        <time>2021-08-08T07:30:51Z</time>
      </trkpt>
      <trkpt lat="48.94116" lon="7.50342">
        <ele>344</ele>
        <time>2021-08-08T07:30:52Z</time>
      </trkpt>
      <trkpt lat="48.9411" lon="7.5033">
        <ele>344</ele>
        <time>2021-08-08T07:30:53Z</time>
      </trkpt>
      <trkpt lat="48.9411" lon="7.5033">
        <ele>344</ele>
        <time>2021-08-08T07:30:54Z</time>
      </trkpt>
      <trkpt lat="48.94106" lon="7.50319">
        <ele>344</ele>
        <time>2021-08-08T07:30:55Z</time>
      </trkpt>
      <trkpt lat="48.94106" lon="7.50319">
        <ele>344</ele>
        <time>2021-08-08T07:30:56Z</time>
      </trkpt>
      <trkpt lat="48.941" lon="7.50305">
        <ele>344</ele>
        <time>2021-08-08T07:30:57Z</time>
      </trkpt>
      <trkpt lat="48.941" lon="7.50305">
        <ele>344</ele>
        <time>2021-08-08T07:30:58Z</time>
      </trkpt>
      <trkpt lat="48.94096" lon="7.50294">
        <ele>344</ele>
        <time>2021-08-08T07:30:59Z</time>
      </trkpt>
      <trkpt lat="48.94095" lon="7.50287">
        <ele>344</ele>
        <time>2021-08-08T07:31:00Z</time>
      </trkpt>
      <trkpt lat="48.94094" lon="7.5028">
        <ele>344</ele>
        <time>2021-08-08T07:31:01Z</time>
      </trkpt>
      <trkpt lat="48.94094" lon="7.5028">
        <ele>344</ele>
        <time>2021-08-08T07:31:02Z</time>
      </trkpt>
      <trkpt lat="48.94093" lon="7.50267">
        <ele>344</ele>
        <time>2021-08-08T07:31:03Z</time>
      </trkpt>
      <trkpt lat="48.94093" lon="7.50267">
        <ele>344</ele>
        <time>2021-08-08T07:31:04Z</time>
      </trkpt>
      <trkpt lat="48.94093" lon="7.50254">
        <ele>344</ele>
        <time>2021-08-08T07:31:05Z</time>
      </trkpt>
      <trkpt lat="48.94093" lon="7.50247">
        <ele>344</ele>
        <time>2021-08-08T07:31:06Z</time>
      </trkpt>
      <trkpt lat="48.94093" lon="7.50247">
        <ele>344</ele>
        <time>2021-08-08T07:31:07Z</time>
      </trkpt>
      <trkpt lat="48.94095" lon="7.50234">
        <ele>344</ele>
        <time>2021-08-08T07:31:08Z</time>
      </trkpt>
      <trkpt lat="48.94097" lon="7.50226">
        <ele>344</ele>
        <time>2021-08-08T07:31:09Z</time>
      </trkpt>
      <trkpt lat="48.94098" lon="7.50219">
        <ele>344</ele>
        <time>2021-08-08T07:31:10Z</time>
      </trkpt>
      <trkpt lat="48.94098" lon="7.50219">
        <ele>344</ele>
        <time>2021-08-08T07:31:11Z</time>
      </trkpt>
      <trkpt lat="48.94104" lon="7.50205">
        <ele>344</ele>
        <time>2021-08-08T07:31:12Z</time>
      </trkpt>
      <trkpt lat="48.94107" lon="7.502">
        <ele>344</ele>
        <time>2021-08-08T07:31:13Z</time>
      </trkpt>
      <trkpt lat="48.94107" lon="7.502">
        <ele>344</ele>
        <time>2021-08-08T07:31:14Z</time>
      </trkpt>
      <trkpt lat="48.94111" lon="7.50186">
        <ele>344</ele>
        <time>2021-08-08T07:31:15Z</time>
      </trkpt>
      <trkpt lat="48.94111" lon="7.50186">
        <ele>342</ele>
        <time>2021-08-08T07:31:16Z</time>
      </trkpt>
      <trkpt lat="48.94116" lon="7.50173">
        <ele>342</ele>
        <time>2021-08-08T07:31:17Z</time>
      </trkpt>
      <trkpt lat="48.94116" lon="7.50173">
        <ele>342</ele>
        <time>2021-08-08T07:31:18Z</time>
      </trkpt>
      <trkpt lat="48.9412" lon="7.50157">
        <ele>342</ele>
        <time>2021-08-08T07:31:19Z</time>
      </trkpt>
      <trkpt lat="48.9412" lon="7.50157">
        <ele>342</ele>
        <time>2021-08-08T07:31:20Z</time>
      </trkpt>
      <trkpt lat="48.94125" lon="7.50144">
        <ele>342</ele>
        <time>2021-08-08T07:31:21Z</time>
      </trkpt>
      <trkpt lat="48.94125" lon="7.50144">
        <ele>342</ele>
        <time>2021-08-08T07:31:22Z</time>
      </trkpt>
      <trkpt lat="48.94131" lon="7.50132">
        <ele>341</ele>
        <time>2021-08-08T07:31:23Z</time>
      </trkpt>
      <trkpt lat="48.94134" lon="7.50125">
        <ele>341</ele>
        <time>2021-08-08T07:31:24Z</time>
      </trkpt>
      <trkpt lat="48.94137" lon="7.50117">
        <ele>339</ele>
        <time>2021-08-08T07:31:25Z</time>
      </trkpt>
      <trkpt lat="48.94137" lon="7.50117">
        <ele>339</ele>
        <time>2021-08-08T07:31:26Z</time>
      </trkpt>
      <trkpt lat="48.94147" lon="7.50096">
        <ele>338</ele>
        <time>2021-08-08T07:31:27Z</time>
      </trkpt>
      <trkpt lat="48.94147" lon="7.50096">
        <ele>338</ele>
        <time>2021-08-08T07:31:28Z</time>
      </trkpt>
      <trkpt lat="48.94156" lon="7.50074">
        <ele>337</ele>
        <time>2021-08-08T07:31:29Z</time>
      </trkpt>
      <trkpt lat="48.94156" lon="7.50074">
        <ele>337</ele>
        <time>2021-08-08T07:31:30Z</time>
      </trkpt>
      <trkpt lat="48.94164" lon="7.50053">
        <ele>335</ele>
        <time>2021-08-08T07:31:31Z</time>
      </trkpt>
      <trkpt lat="48.94164" lon="7.50053">
        <ele>335</ele>
        <time>2021-08-08T07:31:32Z</time>
      </trkpt>
      <trkpt lat="48.94171" lon="7.50032">
        <ele>335</ele>
        <time>2021-08-08T07:31:33Z</time>
      </trkpt>
      <trkpt lat="48.94171" lon="7.50032">
        <ele>335</ele>
        <time>2021-08-08T07:31:34Z</time>
      </trkpt>
      <trkpt lat="48.94175" lon="7.50013">
        <ele>334</ele>
        <time>2021-08-08T07:31:35Z</time>
      </trkpt>
      <trkpt lat="48.94177" lon="7.50002">
        <ele>334</ele>
        <time>2021-08-08T07:31:36Z</time>
      </trkpt>
      <trkpt lat="48.94179" lon="7.49991">
        <ele>333</ele>
        <time>2021-08-08T07:31:37Z</time>
      </trkpt>
      <trkpt lat="48.94179" lon="7.49991">
        <ele>333</ele>
        <time>2021-08-08T07:31:38Z</time>
      </trkpt>
      <trkpt lat="48.94185" lon="7.49972">
        <ele>333</ele>
        <time>2021-08-08T07:31:39Z</time>
      </trkpt>
      <trkpt lat="48.94185" lon="7.49972">
        <ele>333</ele>
        <time>2021-08-08T07:31:40Z</time>
      </trkpt>
      <trkpt lat="48.94189" lon="7.4995">
        <ele>333</ele>
        <time>2021-08-08T07:31:41Z</time>
      </trkpt>
      <trkpt lat="48.94191" lon="7.4994">
        <ele>332</ele>
        <time>2021-08-08T07:31:42Z</time>
      </trkpt>
      <trkpt lat="48.94191" lon="7.49929">
        <ele>332</ele>
        <time>2021-08-08T07:31:43Z</time>
      </trkpt>
      <trkpt lat="48.94191" lon="7.49929">
        <ele>331</ele>
        <time>2021-08-08T07:31:44Z</time>
      </trkpt>
      <trkpt lat="48.94197" lon="7.49905">
        <ele>331</ele>
        <time>2021-08-08T07:31:45Z</time>
      </trkpt>
      <trkpt lat="48.94199" lon="7.49894">
        <ele>330</ele>
        <time>2021-08-08T07:31:46Z</time>
      </trkpt>
      <trkpt lat="48.94199" lon="7.49894">
        <ele>330</ele>
        <time>2021-08-08T07:31:47Z</time>
      </trkpt>
      <trkpt lat="48.94203" lon="7.49872">
        <ele>329</ele>
        <time>2021-08-08T07:31:48Z</time>
      </trkpt>
      <trkpt lat="48.94206" lon="7.4986">
        <ele>329</ele>
        <time>2021-08-08T07:31:49Z</time>
      </trkpt>
      <trkpt lat="48.94206" lon="7.4986">
        <ele>329</ele>
        <time>2021-08-08T07:31:50Z</time>
      </trkpt>
      <trkpt lat="48.94211" lon="7.49838">
        <ele>329</ele>
        <time>2021-08-08T07:31:51Z</time>
      </trkpt>
      <trkpt lat="48.94211" lon="7.49838">
        <ele>328</ele>
        <time>2021-08-08T07:31:52Z</time>
      </trkpt>
      <trkpt lat="48.94216" lon="7.49818">
        <ele>328</ele>
        <time>2021-08-08T07:31:53Z</time>
      </trkpt>
      <trkpt lat="48.94216" lon="7.49818">
        <ele>328</ele>
        <time>2021-08-08T07:31:54Z</time>
      </trkpt>
      <trkpt lat="48.94222" lon="7.49797">
        <ele>328</ele>
        <time>2021-08-08T07:31:55Z</time>
      </trkpt>
      <trkpt lat="48.94222" lon="7.49797">
        <ele>326</ele>
        <time>2021-08-08T07:31:56Z</time>
      </trkpt>
      <trkpt lat="48.94229" lon="7.49777">
        <ele>326</ele>
        <time>2021-08-08T07:31:57Z</time>
      </trkpt>
      <trkpt lat="48.94229" lon="7.49777">
        <ele>326</ele>
        <time>2021-08-08T07:31:58Z</time>
      </trkpt>
      <trkpt lat="48.94241" lon="7.49753">
        <ele>326</ele>
        <time>2021-08-08T07:31:59Z</time>
      </trkpt>
      <trkpt lat="48.94241" lon="7.49753">
        <ele>325</ele>
        <time>2021-08-08T07:32:00Z</time>
      </trkpt>
      <trkpt lat="48.94251" lon="7.49733">
        <ele>325</ele>
        <time>2021-08-08T07:32:01Z</time>
      </trkpt>
      <trkpt lat="48.94251" lon="7.49733">
        <ele>325</ele>
        <time>2021-08-08T07:32:02Z</time>
      </trkpt>
      <trkpt lat="48.94258" lon="7.49717">
        <ele>325</ele>
        <time>2021-08-08T07:32:03Z</time>
      </trkpt>
      <trkpt lat="48.94258" lon="7.49717">
        <ele>324</ele>
        <time>2021-08-08T07:32:04Z</time>
      </trkpt>
      <trkpt lat="48.94267" lon="7.49705">
        <ele>324</ele>
        <time>2021-08-08T07:32:05Z</time>
      </trkpt>
      <trkpt lat="48.94272" lon="7.49699">
        <ele>324</ele>
        <time>2021-08-08T07:32:06Z</time>
      </trkpt>
      <trkpt lat="48.94272" lon="7.49699">
        <ele>324</ele>
        <time>2021-08-08T07:32:07Z</time>
      </trkpt>
      <trkpt lat="48.94282" lon="7.49689">
        <ele>323</ele>
        <time>2021-08-08T07:32:08Z</time>
      </trkpt>
      <trkpt lat="48.94288" lon="7.49686">
        <ele>323</ele>
        <time>2021-08-08T07:32:09Z</time>
      </trkpt>
      <trkpt lat="48.94288" lon="7.49686">
        <ele>322</ele>
        <time>2021-08-08T07:32:10Z</time>
      </trkpt>
      <trkpt lat="48.94301" lon="7.49676">
        <ele>322</ele>
        <time>2021-08-08T07:32:11Z</time>
      </trkpt>
      <trkpt lat="48.94301" lon="7.49676">
        <ele>321</ele>
        <time>2021-08-08T07:32:12Z</time>
      </trkpt>
      <trkpt lat="48.94316" lon="7.49672">
        <ele>321</ele>
        <time>2021-08-08T07:32:13Z</time>
      </trkpt>
      <trkpt lat="48.94316" lon="7.49672">
        <ele>321</ele>
        <time>2021-08-08T07:32:14Z</time>
      </trkpt>
      <trkpt lat="48.94331" lon="7.49664">
        <ele>320</ele>
        <time>2021-08-08T07:32:15Z</time>
      </trkpt>
      <trkpt lat="48.94331" lon="7.49664">
        <ele>319</ele>
        <time>2021-08-08T07:32:16Z</time>
      </trkpt>
      <trkpt lat="48.94345" lon="7.49661">
        <ele>319</ele>
        <time>2021-08-08T07:32:17Z</time>
      </trkpt>
      <trkpt lat="48.94345" lon="7.49661">
        <ele>319</ele>
        <time>2021-08-08T07:32:18Z</time>
      </trkpt>
      <trkpt lat="48.94358" lon="7.49664">
        <ele>319</ele>
        <time>2021-08-08T07:32:19Z</time>
      </trkpt>
      <trkpt lat="48.94358" lon="7.49664">
        <ele>318</ele>
        <time>2021-08-08T07:32:20Z</time>
      </trkpt>
      <trkpt lat="48.9437" lon="7.4967">
        <ele>318</ele>
        <time>2021-08-08T07:32:21Z</time>
      </trkpt>
      <trkpt lat="48.94377" lon="7.49674">
        <ele>318</ele>
        <time>2021-08-08T07:32:22Z</time>
      </trkpt>
      <trkpt lat="48.94377" lon="7.49674">
        <ele>318</ele>
        <time>2021-08-08T07:32:23Z</time>
      </trkpt>
      <trkpt lat="48.94392" lon="7.49683">
        <ele>316</ele>
        <time>2021-08-08T07:32:24Z</time>
      </trkpt>
      <trkpt lat="48.94399" lon="7.49687">
        <ele>316</ele>
        <time>2021-08-08T07:32:25Z</time>
      </trkpt>
      <trkpt lat="48.94399" lon="7.49687">
        <ele>315</ele>
        <time>2021-08-08T07:32:26Z</time>
      </trkpt>
      <trkpt lat="48.94417" lon="7.49693">
        <ele>315</ele>
        <time>2021-08-08T07:32:27Z</time>
      </trkpt>
      <trkpt lat="48.94417" lon="7.49693">
        <ele>314</ele>
        <time>2021-08-08T07:32:28Z</time>
      </trkpt>
      <trkpt lat="48.94436" lon="7.49691">
        <ele>314</ele>
        <time>2021-08-08T07:32:29Z</time>
      </trkpt>
      <trkpt lat="48.94448" lon="7.49687">
        <ele>313</ele>
        <time>2021-08-08T07:32:30Z</time>
      </trkpt>
      <trkpt lat="48.94459" lon="7.49686">
        <ele>313</ele>
        <time>2021-08-08T07:32:31Z</time>
      </trkpt>
      <trkpt lat="48.94459" lon="7.49686">
        <ele>313</ele>
        <time>2021-08-08T07:32:32Z</time>
      </trkpt>
      <trkpt lat="48.94472" lon="7.49685">
        <ele>313</ele>
        <time>2021-08-08T07:32:33Z</time>
      </trkpt>
      <trkpt lat="48.94472" lon="7.49685">
        <ele>313</ele>
        <time>2021-08-08T07:32:34Z</time>
      </trkpt>
      <trkpt lat="48.9448" lon="7.49683">
        <ele>313</ele>
        <time>2021-08-08T07:32:35Z</time>
      </trkpt>
      <trkpt lat="48.94483" lon="7.49683">
        <ele>313</ele>
        <time>2021-08-08T07:32:36Z</time>
      </trkpt>
      <trkpt lat="48.94483" lon="7.49683">
        <ele>313</ele>
        <time>2021-08-08T07:32:37Z</time>
      </trkpt>
      <trkpt lat="48.94488" lon="7.49685">
        <ele>313</ele>
        <time>2021-08-08T07:32:38Z</time>
      </trkpt>
      <trkpt lat="48.94488" lon="7.49685">
        <ele>313</ele>
        <time>2021-08-08T07:32:39Z</time>
      </trkpt>
      <trkpt lat="48.9449" lon="7.49685">
        <ele>314</ele>
        <time>2021-08-08T07:32:40Z</time>
      </trkpt>
      <trkpt lat="48.94491" lon="7.49686">
        <ele>314</ele>
        <time>2021-08-08T07:32:41Z</time>
      </trkpt>
      <trkpt lat="48.94491" lon="7.49686">
        <ele>314</ele>
        <time>2021-08-08T07:32:42Z</time>
      </trkpt>
      <trkpt lat="48.94495" lon="7.49687">
        <ele>315</ele>
        <time>2021-08-08T07:32:43Z</time>
      </trkpt>
      <trkpt lat="48.94495" lon="7.49687">
        <ele>315</ele>
        <time>2021-08-08T07:32:44Z</time>
      </trkpt>
      <trkpt lat="48.94499" lon="7.49688">
        <ele>316</ele>
        <time>2021-08-08T07:32:45Z</time>
      </trkpt>
      <trkpt lat="48.94502" lon="7.49689">
        <ele>316</ele>
        <time>2021-08-08T07:32:46Z</time>
      </trkpt>
      <trkpt lat="48.94505" lon="7.49689">
        <ele>316</ele>
        <time>2021-08-08T07:32:47Z</time>
      </trkpt>
      <trkpt lat="48.94505" lon="7.49689">
        <ele>316</ele>
        <time>2021-08-08T07:32:48Z</time>
      </trkpt>
      <trkpt lat="48.94511" lon="7.4969">
        <ele>316</ele>
        <time>2021-08-08T07:32:49Z</time>
      </trkpt>
      <trkpt lat="48.94515" lon="7.4969">
        <ele>316</ele>
        <time>2021-08-08T07:32:50Z</time>
      </trkpt>
      <trkpt lat="48.94515" lon="7.4969">
        <ele>316</ele>
        <time>2021-08-08T07:32:51Z</time>
      </trkpt>
      <trkpt lat="48.94522" lon="7.49691">
        <ele>316</ele>
        <time>2021-08-08T07:32:52Z</time>
      </trkpt>
      <trkpt lat="48.94522" lon="7.49691">
        <ele>317</ele>
        <time>2021-08-08T07:32:53Z</time>
      </trkpt>
      <trkpt lat="48.94529" lon="7.49692">
        <ele>317</ele>
        <time>2021-08-08T07:32:54Z</time>
      </trkpt>
      <trkpt lat="48.94532" lon="7.49692">
        <ele>317</ele>
        <time>2021-08-08T07:32:55Z</time>
      </trkpt>
      <trkpt lat="48.94532" lon="7.49692">
        <ele>317</ele>
        <time>2021-08-08T07:32:56Z</time>
      </trkpt>
      <trkpt lat="48.94539" lon="7.49693">
        <ele>317</ele>
        <time>2021-08-08T07:32:57Z</time>
      </trkpt>
      <trkpt lat="48.94542" lon="7.49694">
        <ele>317</ele>
        <time>2021-08-08T07:32:58Z</time>
      </trkpt>
      <trkpt lat="48.94542" lon="7.49694">
        <ele>317</ele>
        <time>2021-08-08T07:32:59Z</time>
      </trkpt>
      <trkpt lat="48.9455" lon="7.49693">
        <ele>317</ele>
        <time>2021-08-08T07:33:00Z</time>
      </trkpt>
      <trkpt lat="48.94555" lon="7.49692">
        <ele>317</ele>
        <time>2021-08-08T07:33:01Z</time>
      </trkpt>
      <trkpt lat="48.94559" lon="7.4969">
        <ele>317</ele>
        <time>2021-08-08T07:33:02Z</time>
      </trkpt>
      <trkpt lat="48.94563" lon="7.49688">
        <ele>317</ele>
        <time>2021-08-08T07:33:03Z</time>
      </trkpt>
      <trkpt lat="48.94563" lon="7.49688">
        <ele>317</ele>
        <time>2021-08-08T07:33:04Z</time>
      </trkpt>
      <trkpt lat="48.94572" lon="7.49686">
        <ele>317</ele>
        <time>2021-08-08T07:33:05Z</time>
      </trkpt>
      <trkpt lat="48.94572" lon="7.49686">
        <ele>317</ele>
        <time>2021-08-08T07:33:06Z</time>
      </trkpt>
      <trkpt lat="48.94582" lon="7.49684">
        <ele>317</ele>
        <time>2021-08-08T07:33:07Z</time>
      </trkpt>
      <trkpt lat="48.94585" lon="7.49683">
        <ele>317</ele>
        <time>2021-08-08T07:33:08Z</time>
      </trkpt>
      <trkpt lat="48.94585" lon="7.49683">
        <ele>317</ele>
        <time>2021-08-08T07:33:09Z</time>
      </trkpt>
      <trkpt lat="48.94593" lon="7.49682">
        <ele>316</ele>
        <time>2021-08-08T07:33:10Z</time>
      </trkpt>
      <trkpt lat="48.94593" lon="7.49682">
        <ele>316</ele>
        <time>2021-08-08T07:33:11Z</time>
      </trkpt>
      <trkpt lat="48.946" lon="7.4968">
        <ele>316</ele>
        <time>2021-08-08T07:33:12Z</time>
      </trkpt>
      <trkpt lat="48.94604" lon="7.49679">
        <ele>316</ele>
        <time>2021-08-08T07:33:13Z</time>
      </trkpt>
      <trkpt lat="48.94604" lon="7.49679">
        <ele>316</ele>
        <time>2021-08-08T07:33:14Z</time>
      </trkpt>
      <trkpt lat="48.94611" lon="7.49676">
        <ele>316</ele>
        <time>2021-08-08T07:33:15Z</time>
      </trkpt>
      <trkpt lat="48.94616" lon="7.49675">
        <ele>316</ele>
        <time>2021-08-08T07:33:16Z</time>
      </trkpt>
      <trkpt lat="48.94616" lon="7.49675">
        <ele>316</ele>
        <time>2021-08-08T07:33:17Z</time>
      </trkpt>
      <trkpt lat="48.94624" lon="7.49673">
        <ele>316</ele>
        <time>2021-08-08T07:33:18Z</time>
      </trkpt>
      <trkpt lat="48.94624" lon="7.49673">
        <ele>315</ele>
        <time>2021-08-08T07:33:19Z</time>
      </trkpt>
      <trkpt lat="48.94633" lon="7.4967">
        <ele>315</ele>
        <time>2021-08-08T07:33:20Z</time>
      </trkpt>
      <trkpt lat="48.94638" lon="7.49668">
        <ele>315</ele>
        <time>2021-08-08T07:33:21Z</time>
      </trkpt>
      <trkpt lat="48.94638" lon="7.49668">
        <ele>315</ele>
        <time>2021-08-08T07:33:22Z</time>
      </trkpt>
      <trkpt lat="48.94647" lon="7.49662">
        <ele>315</ele>
        <time>2021-08-08T07:33:23Z</time>
      </trkpt>
      <trkpt lat="48.94651" lon="7.4966">
        <ele>315</ele>
        <time>2021-08-08T07:33:24Z</time>
      </trkpt>
      <trkpt lat="48.94654" lon="7.49658">
        <ele>315</ele>
        <time>2021-08-08T07:33:25Z</time>
      </trkpt>
      <trkpt lat="48.94657" lon="7.49657">
        <ele>315</ele>
        <time>2021-08-08T07:33:26Z</time>
      </trkpt>
      <trkpt lat="48.94657" lon="7.49657">
        <ele>315</ele>
        <time>2021-08-08T07:33:27Z</time>
      </trkpt>
      <trkpt lat="48.94662" lon="7.49653">
        <ele>315</ele>
        <time>2021-08-08T07:33:28Z</time>
      </trkpt>
      <trkpt lat="48.94662" lon="7.49653">
        <ele>315</ele>
        <time>2021-08-08T07:33:29Z</time>
      </trkpt>
      <trkpt lat="48.94667" lon="7.49649">
        <ele>315</ele>
        <time>2021-08-08T07:33:30Z</time>
      </trkpt>
      <trkpt lat="48.94667" lon="7.49649">
        <ele>315</ele>
        <time>2021-08-08T07:33:31Z</time>
      </trkpt>
      <trkpt lat="48.94681" lon="7.4964">
        <ele>315</ele>
        <time>2021-08-08T07:33:32Z</time>
      </trkpt>
      <trkpt lat="48.94686" lon="7.49635">
        <ele>315</ele>
        <time>2021-08-08T07:33:33Z</time>
      </trkpt>
      <trkpt lat="48.94686" lon="7.49635">
        <ele>315</ele>
        <time>2021-08-08T07:33:34Z</time>
      </trkpt>
      <trkpt lat="48.94692" lon="7.49626">
        <ele>315</ele>
        <time>2021-08-08T07:33:35Z</time>
      </trkpt>
      <trkpt lat="48.94692" lon="7.49626">
        <ele>315</ele>
        <time>2021-08-08T07:33:36Z</time>
      </trkpt>
      <trkpt lat="48.947" lon="7.49617">
        <ele>315</ele>
        <time>2021-08-08T07:33:37Z</time>
      </trkpt>
      <trkpt lat="48.947" lon="7.49617">
        <ele>315</ele>
        <time>2021-08-08T07:33:38Z</time>
      </trkpt>
      <trkpt lat="48.94706" lon="7.49607">
        <ele>315</ele>
        <time>2021-08-08T07:33:39Z</time>
      </trkpt>
      <trkpt lat="48.94709" lon="7.49602">
        <ele>315</ele>
        <time>2021-08-08T07:33:40Z</time>
      </trkpt>
      <trkpt lat="48.94709" lon="7.49602">
        <ele>315</ele>
        <time>2021-08-08T07:33:41Z</time>
      </trkpt>
      <trkpt lat="48.94713" lon="7.49593">
        <ele>314</ele>
        <time>2021-08-08T07:33:42Z</time>
      </trkpt>
      <trkpt lat="48.94713" lon="7.49593">
        <ele>314</ele>
        <time>2021-08-08T07:33:43Z</time>
      </trkpt>
      <trkpt lat="48.94718" lon="7.49583">
        <ele>314</ele>
        <time>2021-08-08T07:33:44Z</time>
      </trkpt>
      <trkpt lat="48.94718" lon="7.49583">
        <ele>314</ele>
        <time>2021-08-08T07:33:45Z</time>
      </trkpt>
      <trkpt lat="48.94722" lon="7.49572">
        <ele>314</ele>
        <time>2021-08-08T07:33:46Z</time>
      </trkpt>
      <trkpt lat="48.94722" lon="7.49572">
        <ele>314</ele>
        <time>2021-08-08T07:33:47Z</time>
      </trkpt>
      <trkpt lat="48.94726" lon="7.49564">
        <ele>314</ele>
        <time>2021-08-08T07:33:48Z</time>
      </trkpt>
      <trkpt lat="48.94726" lon="7.49564">
        <ele>314</ele>
        <time>2021-08-08T07:33:49Z</time>
      </trkpt>
      <trkpt lat="48.9473" lon="7.49554">
        <ele>314</ele>
        <time>2021-08-08T07:33:50Z</time>
      </trkpt>
      <trkpt lat="48.9473" lon="7.49554">
        <ele>314</ele>
        <time>2021-08-08T07:33:51Z</time>
      </trkpt>
      <trkpt lat="48.94736" lon="7.49544">
        <ele>314</ele>
        <time>2021-08-08T07:33:52Z</time>
      </trkpt>
      <trkpt lat="48.94736" lon="7.49544">
        <ele>314</ele>
        <time>2021-08-08T07:33:53Z</time>
      </trkpt>
      <trkpt lat="48.94741" lon="7.49532">
        <ele>314</ele>
        <time>2021-08-08T07:33:54Z</time>
      </trkpt>
      <trkpt lat="48.94744" lon="7.49525">
        <ele>314</ele>
        <time>2021-08-08T07:33:55Z</time>
      </trkpt>
      <trkpt lat="48.94747" lon="7.49518">
        <ele>314</ele>
        <time>2021-08-08T07:33:56Z</time>
      </trkpt>
      <trkpt lat="48.94747" lon="7.49518">
        <ele>314</ele>
        <time>2021-08-08T07:33:57Z</time>
      </trkpt>
      <trkpt lat="48.94752" lon="7.49503">
        <ele>314</ele>
        <time>2021-08-08T07:33:58Z</time>
      </trkpt>
      <trkpt lat="48.94752" lon="7.49503">
        <ele>314</ele>
        <time>2021-08-08T07:33:59Z</time>
      </trkpt>
      <trkpt lat="48.94757" lon="7.49488">
        <ele>314</ele>
        <time>2021-08-08T07:34:00Z</time>
      </trkpt>
      <trkpt lat="48.94757" lon="7.49488">
        <ele>313</ele>
        <time>2021-08-08T07:34:01Z</time>
      </trkpt>
      <trkpt lat="48.94764" lon="7.49471">
        <ele>313</ele>
        <time>2021-08-08T07:34:02Z</time>
      </trkpt>
      <trkpt lat="48.94764" lon="7.49471">
        <ele>313</ele>
        <time>2021-08-08T07:34:03Z</time>
      </trkpt>
      <trkpt lat="48.94768" lon="7.49452">
        <ele>312</ele>
        <time>2021-08-08T07:34:04Z</time>
      </trkpt>
      <trkpt lat="48.94769" lon="7.49442">
        <ele>312</ele>
        <time>2021-08-08T07:34:05Z</time>
      </trkpt>
      <trkpt lat="48.94769" lon="7.49442">
        <ele>312</ele>
        <time>2021-08-08T07:34:06Z</time>
      </trkpt>
      <trkpt lat="48.94774" lon="7.49427">
        <ele>312</ele>
        <time>2021-08-08T07:34:07Z</time>
      </trkpt>
      <trkpt lat="48.94774" lon="7.49427">
        <ele>312</ele>
        <time>2021-08-08T07:34:08Z</time>
      </trkpt>
      <trkpt lat="48.94778" lon="7.49415">
        <ele>311</ele>
        <time>2021-08-08T07:34:09Z</time>
      </trkpt>
      <trkpt lat="48.94778" lon="7.49415">
        <ele>311</ele>
        <time>2021-08-08T07:34:10Z</time>
      </trkpt>
      <trkpt lat="48.94781" lon="7.49403">
        <ele>311</ele>
        <time>2021-08-08T07:34:11Z</time>
      </trkpt>
      <trkpt lat="48.94782" lon="7.49398">
        <ele>311</ele>
        <time>2021-08-08T07:34:12Z</time>
      </trkpt>
      <trkpt lat="48.94784" lon="7.49393">
        <ele>311</ele>
        <time>2021-08-08T07:34:13Z</time>
      </trkpt>
      <trkpt lat="48.94784" lon="7.49393">
        <ele>311</ele>
        <time>2021-08-08T07:34:14Z</time>
      </trkpt>
      <trkpt lat="48.94787" lon="7.49385">
        <ele>310</ele>
        <time>2021-08-08T07:34:15Z</time>
      </trkpt>
      <trkpt lat="48.94787" lon="7.49385">
        <ele>310</ele>
        <time>2021-08-08T07:34:16Z</time>
      </trkpt>
      <trkpt lat="48.94792" lon="7.49374">
        <ele>310</ele>
        <time>2021-08-08T07:34:17Z</time>
      </trkpt>
      <trkpt lat="48.94794" lon="7.49368">
        <ele>310</ele>
        <time>2021-08-08T07:34:18Z</time>
      </trkpt>
      <trkpt lat="48.94797" lon="7.49362">
        <ele>310</ele>
        <time>2021-08-08T07:34:19Z</time>
      </trkpt>
      <trkpt lat="48.94797" lon="7.49362">
        <ele>310</ele>
        <time>2021-08-08T07:34:20Z</time>
      </trkpt>
      <trkpt lat="48.94802" lon="7.49348">
        <ele>310</ele>
        <time>2021-08-08T07:34:21Z</time>
      </trkpt>
      <trkpt lat="48.94802" lon="7.49348">
        <ele>310</ele>
        <time>2021-08-08T07:34:22Z</time>
      </trkpt>
      <trkpt lat="48.94805" lon="7.49333">
        <ele>310</ele>
        <time>2021-08-08T07:34:23Z</time>
      </trkpt>
      <trkpt lat="48.94805" lon="7.49333">
        <ele>310</ele>
        <time>2021-08-08T07:34:24Z</time>
      </trkpt>
      <trkpt lat="48.94808" lon="7.49321">
        <ele>310</ele>
        <time>2021-08-08T07:34:25Z</time>
      </trkpt>
      <trkpt lat="48.94809" lon="7.49316">
        <ele>310</ele>
        <time>2021-08-08T07:34:26Z</time>
      </trkpt>
      <trkpt lat="48.9481" lon="7.4931">
        <ele>310</ele>
        <time>2021-08-08T07:34:27Z</time>
      </trkpt>
      <trkpt lat="48.94811" lon="7.49304">
        <ele>310</ele>
        <time>2021-08-08T07:34:28Z</time>
      </trkpt>
      <trkpt lat="48.94811" lon="7.49304">
        <ele>311</ele>
        <time>2021-08-08T07:34:29Z</time>
      </trkpt>
      <trkpt lat="48.94813" lon="7.4929">
        <ele>311</ele>
        <time>2021-08-08T07:34:30Z</time>
      </trkpt>
      <trkpt lat="48.94814" lon="7.49284">
        <ele>311</ele>
        <time>2021-08-08T07:34:31Z</time>
      </trkpt>
      <trkpt lat="48.94814" lon="7.49284">
        <ele>311</ele>
        <time>2021-08-08T07:34:32Z</time>
      </trkpt>
      <trkpt lat="48.94818" lon="7.49267">
        <ele>312</ele>
        <time>2021-08-08T07:34:33Z</time>
      </trkpt>
      <trkpt lat="48.94818" lon="7.49267">
        <ele>312</ele>
        <time>2021-08-08T07:34:34Z</time>
      </trkpt>
      <trkpt lat="48.94819" lon="7.49254">
        <ele>312</ele>
        <time>2021-08-08T07:34:35Z</time>
      </trkpt>
      <trkpt lat="48.94819" lon="7.49254">
        <ele>312</ele>
        <time>2021-08-08T07:34:36Z</time>
      </trkpt>
      <trkpt lat="48.94816" lon="7.49244">
        <ele>312</ele>
        <time>2021-08-08T07:34:37Z</time>
      </trkpt>
      <trkpt lat="48.94816" lon="7.49244">
        <ele>312</ele>
        <time>2021-08-08T07:34:38Z</time>
      </trkpt>
      <trkpt lat="48.94814" lon="7.49234">
        <ele>312</ele>
        <time>2021-08-08T07:34:39Z</time>
      </trkpt>
      <trkpt lat="48.94814" lon="7.49228">
        <ele>312</ele>
        <time>2021-08-08T07:34:40Z</time>
      </trkpt>
      <trkpt lat="48.94812" lon="7.49222">
        <ele>312</ele>
        <time>2021-08-08T07:34:41Z</time>
      </trkpt>
      <trkpt lat="48.94812" lon="7.49222">
        <ele>312</ele>
        <time>2021-08-08T07:34:42Z</time>
      </trkpt>
      <trkpt lat="48.94809" lon="7.49212">
        <ele>312</ele>
        <time>2021-08-08T07:34:43Z</time>
      </trkpt>
      <trkpt lat="48.94809" lon="7.49212">
        <ele>312</ele>
        <time>2021-08-08T07:34:44Z</time>
      </trkpt>
      <trkpt lat="48.94807" lon="7.49203">
        <ele>312</ele>
        <time>2021-08-08T07:34:45Z</time>
      </trkpt>
      <trkpt lat="48.94807" lon="7.49203">
        <ele>312</ele>
        <time>2021-08-08T07:34:46Z</time>
      </trkpt>
      <trkpt lat="48.94804" lon="7.49194">
        <ele>312</ele>
        <time>2021-08-08T07:34:47Z</time>
      </trkpt>
      <trkpt lat="48.94804" lon="7.49194">
        <ele>312</ele>
        <time>2021-08-08T07:34:48Z</time>
      </trkpt>
      <trkpt lat="48.94805" lon="7.49183">
        <ele>312</ele>
        <time>2021-08-08T07:34:49Z</time>
      </trkpt>
      <trkpt lat="48.94805" lon="7.49183">
        <ele>312</ele>
        <time>2021-08-08T07:34:50Z</time>
      </trkpt>
      <trkpt lat="48.94806" lon="7.49174">
        <ele>312</ele>
        <time>2021-08-08T07:34:51Z</time>
      </trkpt>
      <trkpt lat="48.94806" lon="7.49174">
        <ele>312</ele>
        <time>2021-08-08T07:34:52Z</time>
      </trkpt>
      <trkpt lat="48.94808" lon="7.49164">
        <ele>312</ele>
        <time>2021-08-08T07:34:53Z</time>
      </trkpt>
      <trkpt lat="48.94808" lon="7.49164">
        <ele>312</ele>
        <time>2021-08-08T07:34:54Z</time>
      </trkpt>
      <trkpt lat="48.9481" lon="7.49155">
        <ele>312</ele>
        <time>2021-08-08T07:34:55Z</time>
      </trkpt>
      <trkpt lat="48.9481" lon="7.49155">
        <ele>312</ele>
        <time>2021-08-08T07:34:56Z</time>
      </trkpt>
      <trkpt lat="48.94813" lon="7.49148">
        <ele>312</ele>
        <time>2021-08-08T07:34:57Z</time>
      </trkpt>
      <trkpt lat="48.94813" lon="7.49148">
        <ele>312</ele>
        <time>2021-08-08T07:34:58Z</time>
      </trkpt>
      <trkpt lat="48.94815" lon="7.49141">
        <ele>312</ele>
        <time>2021-08-08T07:34:59Z</time>
      </trkpt>
      <trkpt lat="48.94817" lon="7.49138">
        <ele>312</ele>
        <time>2021-08-08T07:35:00Z</time>
      </trkpt>
      <trkpt lat="48.94817" lon="7.49138">
        <ele>312</ele>
        <time>2021-08-08T07:35:01Z</time>
      </trkpt>
      <trkpt lat="48.9482" lon="7.49133">
        <ele>312</ele>
        <time>2021-08-08T07:35:02Z</time>
      </trkpt>
      <trkpt lat="48.94822" lon="7.49131">
        <ele>312</ele>
        <time>2021-08-08T07:35:03Z</time>
      </trkpt>
      <trkpt lat="48.94822" lon="7.49131">
        <ele>312</ele>
        <time>2021-08-08T07:35:04Z</time>
      </trkpt>
      <trkpt lat="48.94826" lon="7.49125">
        <ele>312</ele>
        <time>2021-08-08T07:35:05Z</time>
      </trkpt>
      <trkpt lat="48.94826" lon="7.49125">
        <ele>312</ele>
        <time>2021-08-08T07:35:06Z</time>
      </trkpt>
      <trkpt lat="48.94829" lon="7.49121">
        <ele>312</ele>
        <time>2021-08-08T07:35:07Z</time>
      </trkpt>
      <trkpt lat="48.94829" lon="7.49121">
        <ele>312</ele>
        <time>2021-08-08T07:35:08Z</time>
      </trkpt>
      <trkpt lat="48.94832" lon="7.49115">
        <ele>313</ele>
        <time>2021-08-08T07:35:09Z</time>
      </trkpt>
      <trkpt lat="48.94835" lon="7.49113">
        <ele>313</ele>
        <time>2021-08-08T07:35:10Z</time>
      </trkpt>
      <trkpt lat="48.94835" lon="7.49113">
        <ele>313</ele>
        <time>2021-08-08T07:35:11Z</time>
      </trkpt>
      <trkpt lat="48.94838" lon="7.49108">
        <ele>313</ele>
        <time>2021-08-08T07:35:12Z</time>
      </trkpt>
      <trkpt lat="48.9484" lon="7.49105">
        <ele>313</ele>
        <time>2021-08-08T07:35:13Z</time>
      </trkpt>
      <trkpt lat="48.9484" lon="7.49105">
        <ele>314</ele>
        <time>2021-08-08T07:35:14Z</time>
      </trkpt>
      <trkpt lat="48.94843" lon="7.49099">
        <ele>314</ele>
        <time>2021-08-08T07:35:15Z</time>
      </trkpt>
      <trkpt lat="48.94843" lon="7.49099">
        <ele>314</ele>
        <time>2021-08-08T07:35:16Z</time>
      </trkpt>
      <trkpt lat="48.94847" lon="7.49094">
        <ele>314</ele>
        <time>2021-08-08T07:35:17Z</time>
      </trkpt>
      <trkpt lat="48.94847" lon="7.49094">
        <ele>315</ele>
        <time>2021-08-08T07:35:18Z</time>
      </trkpt>
      <trkpt lat="48.94851" lon="7.49089">
        <ele>315</ele>
        <time>2021-08-08T07:35:19Z</time>
      </trkpt>
      <trkpt lat="48.94852" lon="7.49087">
        <ele>315</ele>
        <time>2021-08-08T07:35:20Z</time>
      </trkpt>
      <trkpt lat="48.94852" lon="7.49087">
        <ele>315</ele>
        <time>2021-08-08T07:35:21Z</time>
      </trkpt>
      <trkpt lat="48.94855" lon="7.49084">
        <ele>315</ele>
        <time>2021-08-08T07:35:22Z</time>
      </trkpt>
      <trkpt lat="48.94855" lon="7.49084">
        <ele>315</ele>
        <time>2021-08-08T07:35:23Z</time>
      </trkpt>
      <trkpt lat="48.94859" lon="7.49079">
        <ele>315</ele>
        <time>2021-08-08T07:35:24Z</time>
      </trkpt>
      <trkpt lat="48.94861" lon="7.49075">
        <ele>315</ele>
        <time>2021-08-08T07:35:25Z</time>
      </trkpt>
      <trkpt lat="48.94863" lon="7.49073">
        <ele>316</ele>
        <time>2021-08-08T07:35:26Z</time>
      </trkpt>
      <trkpt lat="48.94864" lon="7.49071">
        <ele>316</ele>
        <time>2021-08-08T07:35:27Z</time>
      </trkpt>
      <trkpt lat="48.94866" lon="7.49069">
        <ele>316</ele>
        <time>2021-08-08T07:35:28Z</time>
      </trkpt>
      <trkpt lat="48.94866" lon="7.49069">
        <ele>316</ele>
        <time>2021-08-08T07:35:29Z</time>
      </trkpt>
      <trkpt lat="48.94869" lon="7.49063">
        <ele>316</ele>
        <time>2021-08-08T07:35:30Z</time>
      </trkpt>
      <trkpt lat="48.94872" lon="7.4906">
        <ele>316</ele>
        <time>2021-08-08T07:35:31Z</time>
      </trkpt>
      <trkpt lat="48.94873" lon="7.49058">
        <ele>317</ele>
        <time>2021-08-08T07:35:32Z</time>
      </trkpt>
      <trkpt lat="48.94873" lon="7.49058">
        <ele>317</ele>
        <time>2021-08-08T07:35:33Z</time>
      </trkpt>
      <trkpt lat="48.94875" lon="7.49052">
        <ele>317</ele>
        <time>2021-08-08T07:35:34Z</time>
      </trkpt>
      <trkpt lat="48.94875" lon="7.49052">
        <ele>317</ele>
        <time>2021-08-08T07:35:35Z</time>
      </trkpt>
      <trkpt lat="48.9488" lon="7.49039">
        <ele>318</ele>
        <time>2021-08-08T07:35:36Z</time>
      </trkpt>
      <trkpt lat="48.94881" lon="7.49037">
        <ele>318</ele>
        <time>2021-08-08T07:35:37Z</time>
      </trkpt>
      <trkpt lat="48.94881" lon="7.49037">
        <ele>318</ele>
        <time>2021-08-08T07:35:38Z</time>
      </trkpt>
      <trkpt lat="48.94883" lon="7.49034">
        <ele>318</ele>
        <time>2021-08-08T07:35:39Z</time>
      </trkpt>
      <trkpt lat="48.94883" lon="7.49034">
        <ele>319</ele>
        <time>2021-08-08T07:35:40Z</time>
      </trkpt>
      <trkpt lat="48.94885" lon="7.49032">
        <ele>319</ele>
        <time>2021-08-08T07:35:41Z</time>
      </trkpt>
      <trkpt lat="48.94885" lon="7.49032">
        <ele>319</ele>
        <time>2021-08-08T07:35:42Z</time>
      </trkpt>
      <trkpt lat="48.94888" lon="7.4903">
        <ele>319</ele>
        <time>2021-08-08T07:35:43Z</time>
      </trkpt>
      <trkpt lat="48.94889" lon="7.49029">
        <ele>320</ele>
        <time>2021-08-08T07:35:44Z</time>
      </trkpt>
      <trkpt lat="48.94889" lon="7.49029">
        <ele>320</ele>
        <time>2021-08-08T07:35:45Z</time>
      </trkpt>
      <trkpt lat="48.94891" lon="7.49027">
        <ele>320</ele>
        <time>2021-08-08T07:35:46Z</time>
      </trkpt>
      <trkpt lat="48.94891" lon="7.49027">
        <ele>320</ele>
        <time>2021-08-08T07:35:47Z</time>
      </trkpt>
      <trkpt lat="48.94893" lon="7.49022">
        <ele>321</ele>
        <time>2021-08-08T07:35:48Z</time>
      </trkpt>
      <trkpt lat="48.94893" lon="7.49022">
        <ele>321</ele>
        <time>2021-08-08T07:35:49Z</time>
      </trkpt>
      <trkpt lat="48.94895" lon="7.49018">
        <ele>321</ele>
        <time>2021-08-08T07:35:50Z</time>
      </trkpt>
      <trkpt lat="48.94897" lon="7.49016">
        <ele>321</ele>
        <time>2021-08-08T07:35:51Z</time>
      </trkpt>
      <trkpt lat="48.94897" lon="7.49016">
        <ele>321</ele>
        <time>2021-08-08T07:35:52Z</time>
      </trkpt>
      <trkpt lat="48.94899" lon="7.49012">
        <ele>321</ele>
        <time>2021-08-08T07:35:53Z</time>
      </trkpt>
      <trkpt lat="48.94899" lon="7.49012">
        <ele>322</ele>
        <time>2021-08-08T07:35:54Z</time>
      </trkpt>
      <trkpt lat="48.94901" lon="7.49009">
        <ele>322</ele>
        <time>2021-08-08T07:35:55Z</time>
      </trkpt>
      <trkpt lat="48.94901" lon="7.49009">
        <ele>322</ele>
        <time>2021-08-08T07:35:56Z</time>
      </trkpt>
      <trkpt lat="48.94903" lon="7.49008">
        <ele>324</ele>
        <time>2021-08-08T07:35:57Z</time>
      </trkpt>
      <trkpt lat="48.94905" lon="7.49006">
        <ele>324</ele>
        <time>2021-08-08T07:35:58Z</time>
      </trkpt>
      <trkpt lat="48.94905" lon="7.49006">
        <ele>324</ele>
        <time>2021-08-08T07:35:59Z</time>
      </trkpt>
      <trkpt lat="48.94906" lon="7.49002">
        <ele>324</ele>
        <time>2021-08-08T07:36:00Z</time>
      </trkpt>
      <trkpt lat="48.94908" lon="7.49001">
        <ele>324</ele>
        <time>2021-08-08T07:36:01Z</time>
      </trkpt>
      <trkpt lat="48.94908" lon="7.49001">
        <ele>324</ele>
        <time>2021-08-08T07:36:02Z</time>
      </trkpt>
      <trkpt lat="48.94911" lon="7.48997">
        <ele>324</ele>
        <time>2021-08-08T07:36:03Z</time>
      </trkpt>
      <trkpt lat="48.94911" lon="7.48997">
        <ele>324</ele>
        <time>2021-08-08T07:36:04Z</time>
      </trkpt>
      <trkpt lat="48.94913" lon="7.48993">
        <ele>324</ele>
        <time>2021-08-08T07:36:05Z</time>
      </trkpt>
      <trkpt lat="48.94913" lon="7.48993">
        <ele>324</ele>
        <time>2021-08-08T07:36:06Z</time>
      </trkpt>
      <trkpt lat="48.94916" lon="7.48986">
        <ele>324</ele>
        <time>2021-08-08T07:36:07Z</time>
      </trkpt>
      <trkpt lat="48.94916" lon="7.48986">
        <ele>324</ele>
        <time>2021-08-08T07:36:08Z</time>
      </trkpt>
      <trkpt lat="48.94918" lon="7.4898">
        <ele>324</ele>
        <time>2021-08-08T07:36:09Z</time>
      </trkpt>
      <trkpt lat="48.94918" lon="7.4898">
        <ele>324</ele>
        <time>2021-08-08T07:36:10Z</time>
      </trkpt>
      <trkpt lat="48.9492" lon="7.48975">
        <ele>324</ele>
        <time>2021-08-08T07:36:11Z</time>
      </trkpt>
      <trkpt lat="48.9492" lon="7.48975">
        <ele>324</ele>
        <time>2021-08-08T07:36:12Z</time>
      </trkpt>
      <trkpt lat="48.94923" lon="7.48969">
        <ele>324</ele>
        <time>2021-08-08T07:36:13Z</time>
      </trkpt>
      <trkpt lat="48.94923" lon="7.48969">
        <ele>324</ele>
        <time>2021-08-08T07:36:14Z</time>
      </trkpt>
      <trkpt lat="48.94926" lon="7.48962">
        <ele>326</ele>
        <time>2021-08-08T07:36:15Z</time>
      </trkpt>
      <trkpt lat="48.94926" lon="7.48962">
        <ele>326</ele>
        <time>2021-08-08T07:36:16Z</time>
      </trkpt>
      <trkpt lat="48.94928" lon="7.48956">
        <ele>326</ele>
        <time>2021-08-08T07:36:17Z</time>
      </trkpt>
      <trkpt lat="48.94928" lon="7.48956">
        <ele>326</ele>
        <time>2021-08-08T07:36:18Z</time>
      </trkpt>
      <trkpt lat="48.94931" lon="7.48949">
        <ele>326</ele>
        <time>2021-08-08T07:36:19Z</time>
      </trkpt>
      <trkpt lat="48.94932" lon="7.48945">
        <ele>326</ele>
        <time>2021-08-08T07:36:20Z</time>
      </trkpt>
      <trkpt lat="48.94932" lon="7.48945">
        <ele>326</ele>
        <time>2021-08-08T07:36:21Z</time>
      </trkpt>
      <trkpt lat="48.94934" lon="7.48939">
        <ele>326</ele>
        <time>2021-08-08T07:36:22Z</time>
      </trkpt>
      <trkpt lat="48.94934" lon="7.48939">
        <ele>326</ele>
        <time>2021-08-08T07:36:23Z</time>
      </trkpt>
      <trkpt lat="48.94935" lon="7.48932">
        <ele>326</ele>
        <time>2021-08-08T07:36:24Z</time>
      </trkpt>
      <trkpt lat="48.94936" lon="7.48928">
        <ele>326</ele>
        <time>2021-08-08T07:36:25Z</time>
      </trkpt>
      <trkpt lat="48.94936" lon="7.48928">
        <ele>326</ele>
        <time>2021-08-08T07:36:26Z</time>
      </trkpt>
      <trkpt lat="48.94938" lon="7.48922">
        <ele>326</ele>
        <time>2021-08-08T07:36:27Z</time>
      </trkpt>
      <trkpt lat="48.94938" lon="7.48922">
        <ele>326</ele>
        <time>2021-08-08T07:36:28Z</time>
      </trkpt>
      <trkpt lat="48.94939" lon="7.48917">
        <ele>326</ele>
        <time>2021-08-08T07:36:29Z</time>
      </trkpt>
      <trkpt lat="48.94939" lon="7.48917">
        <ele>326</ele>
        <time>2021-08-08T07:36:30Z</time>
      </trkpt>
      <trkpt lat="48.94942" lon="7.4891">
        <ele>326</ele>
        <time>2021-08-08T07:36:31Z</time>
      </trkpt>
      <trkpt lat="48.94942" lon="7.4891">
        <ele>326</ele>
        <time>2021-08-08T07:36:32Z</time>
      </trkpt>
      <trkpt lat="48.94943" lon="7.48903">
        <ele>327</ele>
        <time>2021-08-08T07:36:33Z</time>
      </trkpt>
      <trkpt lat="48.94943" lon="7.48903">
        <ele>327</ele>
        <time>2021-08-08T07:36:34Z</time>
      </trkpt>
      <trkpt lat="48.94944" lon="7.48898">
        <ele>327</ele>
        <time>2021-08-08T07:36:35Z</time>
      </trkpt>
      <trkpt lat="48.94944" lon="7.48898">
        <ele>327</ele>
        <time>2021-08-08T07:36:36Z</time>
      </trkpt>
      <trkpt lat="48.94947" lon="7.48891">
        <ele>327</ele>
        <time>2021-08-08T07:36:37Z</time>
      </trkpt>
      <trkpt lat="48.94947" lon="7.48891">
        <ele>327</ele>
        <time>2021-08-08T07:36:38Z</time>
      </trkpt>
      <trkpt lat="48.94948" lon="7.48885">
        <ele>328</ele>
        <time>2021-08-08T07:36:39Z</time>
      </trkpt>
      <trkpt lat="48.94948" lon="7.48885">
        <ele>328</ele>
        <time>2021-08-08T07:36:40Z</time>
      </trkpt>
      <trkpt lat="48.94949" lon="7.48879">
        <ele>328</ele>
        <time>2021-08-08T07:36:41Z</time>
      </trkpt>
      <trkpt lat="48.94949" lon="7.48879">
        <ele>328</ele>
        <time>2021-08-08T07:36:42Z</time>
      </trkpt>
      <trkpt lat="48.94951" lon="7.48874">
        <ele>329</ele>
        <time>2021-08-08T07:36:43Z</time>
      </trkpt>
      <trkpt lat="48.94951" lon="7.48874">
        <ele>329</ele>
        <time>2021-08-08T07:36:44Z</time>
      </trkpt>
      <trkpt lat="48.94952" lon="7.48869">
        <ele>329</ele>
        <time>2021-08-08T07:36:45Z</time>
      </trkpt>
      <trkpt lat="48.94953" lon="7.48868">
        <ele>329</ele>
        <time>2021-08-08T07:36:46Z</time>
      </trkpt>
      <trkpt lat="48.94953" lon="7.48868">
        <ele>329</ele>
        <time>2021-08-08T07:36:47Z</time>
      </trkpt>
      <trkpt lat="48.94955" lon="7.48864">
        <ele>329</ele>
        <time>2021-08-08T07:36:48Z</time>
      </trkpt>
      <trkpt lat="48.94956" lon="7.48862">
        <ele>330</ele>
        <time>2021-08-08T07:36:49Z</time>
      </trkpt>
      <trkpt lat="48.94956" lon="7.48862">
        <ele>330</ele>
        <time>2021-08-08T07:36:50Z</time>
      </trkpt>
      <trkpt lat="48.94957" lon="7.4886">
        <ele>330</ele>
        <time>2021-08-08T07:36:51Z</time>
      </trkpt>
      <trkpt lat="48.94957" lon="7.4886">
        <ele>330</ele>
        <time>2021-08-08T07:36:52Z</time>
      </trkpt>
      <trkpt lat="48.94958" lon="7.48858">
        <ele>331</ele>
        <time>2021-08-08T07:36:53Z</time>
      </trkpt>
      <trkpt lat="48.94958" lon="7.48858">
        <ele>331</ele>
        <time>2021-08-08T07:36:54Z</time>
      </trkpt>
      <trkpt lat="48.94961" lon="7.48856">
        <ele>331</ele>
        <time>2021-08-08T07:36:55Z</time>
      </trkpt>
      <trkpt lat="48.94961" lon="7.48856">
        <ele>331</ele>
        <time>2021-08-08T07:36:56Z</time>
      </trkpt>
      <trkpt lat="48.94963" lon="7.48854">
        <ele>332</ele>
        <time>2021-08-08T07:36:57Z</time>
      </trkpt>
      <trkpt lat="48.94963" lon="7.48854">
        <ele>332</ele>
        <time>2021-08-08T07:36:58Z</time>
      </trkpt>
      <trkpt lat="48.94965" lon="7.4885">
        <ele>332</ele>
        <time>2021-08-08T07:36:59Z</time>
      </trkpt>
      <trkpt lat="48.94965" lon="7.4885">
        <ele>332</ele>
        <time>2021-08-08T07:37:00Z</time>
      </trkpt>
      <trkpt lat="48.94966" lon="7.48847">
        <ele>333</ele>
        <time>2021-08-08T07:37:01Z</time>
      </trkpt>
      <trkpt lat="48.94966" lon="7.48847">
        <ele>333</ele>
        <time>2021-08-08T07:37:02Z</time>
      </trkpt>
      <trkpt lat="48.94968" lon="7.48843">
        <ele>333</ele>
        <time>2021-08-08T07:37:03Z</time>
      </trkpt>
      <trkpt lat="48.94968" lon="7.48843">
        <ele>334</ele>
        <time>2021-08-08T07:37:04Z</time>
      </trkpt>
      <trkpt lat="48.9497" lon="7.48839">
        <ele>334</ele>
        <time>2021-08-08T07:37:05Z</time>
      </trkpt>
      <trkpt lat="48.94971" lon="7.48838">
        <ele>334</ele>
        <time>2021-08-08T07:37:06Z</time>
      </trkpt>
      <trkpt lat="48.94972" lon="7.48837">
        <ele>334</ele>
        <time>2021-08-08T07:37:07Z</time>
      </trkpt>
      <trkpt lat="48.94972" lon="7.48837">
        <ele>335</ele>
        <time>2021-08-08T07:37:08Z</time>
      </trkpt>
      <trkpt lat="48.94975" lon="7.48833">
        <ele>335</ele>
        <time>2021-08-08T07:37:09Z</time>
      </trkpt>
      <trkpt lat="48.94975" lon="7.48833">
        <ele>335</ele>
        <time>2021-08-08T07:37:10Z</time>
      </trkpt>
      <trkpt lat="48.94978" lon="7.4883">
        <ele>335</ele>
        <time>2021-08-08T07:37:11Z</time>
      </trkpt>
      <trkpt lat="48.94978" lon="7.4883">
        <ele>336</ele>
        <time>2021-08-08T07:37:12Z</time>
      </trkpt>
      <trkpt lat="48.94981" lon="7.48825">
        <ele>336</ele>
        <time>2021-08-08T07:37:13Z</time>
      </trkpt>
      <trkpt lat="48.94981" lon="7.48825">
        <ele>336</ele>
        <time>2021-08-08T07:37:14Z</time>
      </trkpt>
      <trkpt lat="48.94984" lon="7.48822">
        <ele>336</ele>
        <time>2021-08-08T07:37:15Z</time>
      </trkpt>
      <trkpt lat="48.94984" lon="7.48822">
        <ele>336</ele>
        <time>2021-08-08T07:37:16Z</time>
      </trkpt>
      <trkpt lat="48.94987" lon="7.4882">
        <ele>336</ele>
        <time>2021-08-08T07:37:17Z</time>
      </trkpt>
      <trkpt lat="48.94987" lon="7.4882">
        <ele>337</ele>
        <time>2021-08-08T07:37:18Z</time>
      </trkpt>
      <trkpt lat="48.9499" lon="7.48818">
        <ele>337</ele>
        <time>2021-08-08T07:37:19Z</time>
      </trkpt>
      <trkpt lat="48.94991" lon="7.48817">
        <ele>337</ele>
        <time>2021-08-08T07:37:20Z</time>
      </trkpt>
      <trkpt lat="48.94993" lon="7.48815">
        <ele>337</ele>
        <time>2021-08-08T07:37:21Z</time>
      </trkpt>
      <trkpt lat="48.94993" lon="7.48815">
        <ele>337</ele>
        <time>2021-08-08T07:37:22Z</time>
      </trkpt>
      <trkpt lat="48.94997" lon="7.48812">
        <ele>337</ele>
        <time>2021-08-08T07:37:23Z</time>
      </trkpt>
      <trkpt lat="48.94999" lon="7.4881">
        <ele>338</ele>
        <time>2021-08-08T07:37:24Z</time>
      </trkpt>
      <trkpt lat="48.94999" lon="7.4881">
        <ele>338</ele>
        <time>2021-08-08T07:37:25Z</time>
      </trkpt>
      <trkpt lat="48.95002" lon="7.48807">
        <ele>338</ele>
        <time>2021-08-08T07:37:26Z</time>
      </trkpt>
      <trkpt lat="48.95002" lon="7.48807">
        <ele>338</ele>
        <time>2021-08-08T07:37:27Z</time>
      </trkpt>
      <trkpt lat="48.95004" lon="7.48803">
        <ele>338</ele>
        <time>2021-08-08T07:37:28Z</time>
      </trkpt>
      <trkpt lat="48.95004" lon="7.48803">
        <ele>338</ele>
        <time>2021-08-08T07:37:29Z</time>
      </trkpt>
      <trkpt lat="48.95006" lon="7.48799">
        <ele>339</ele>
        <time>2021-08-08T07:37:30Z</time>
      </trkpt>
      <trkpt lat="48.95008" lon="7.48796">
        <ele>339</ele>
        <time>2021-08-08T07:37:31Z</time>
      </trkpt>
      <trkpt lat="48.95008" lon="7.48796">
        <ele>339</ele>
        <time>2021-08-08T07:37:32Z</time>
      </trkpt>
      <trkpt lat="48.95012" lon="7.4879">
        <ele>339</ele>
        <time>2021-08-08T07:37:33Z</time>
      </trkpt>
      <trkpt lat="48.95013" lon="7.48786">
        <ele>339</ele>
        <time>2021-08-08T07:37:34Z</time>
      </trkpt>
      <trkpt lat="48.95013" lon="7.48786">
        <ele>339</ele>
        <time>2021-08-08T07:37:35Z</time>
      </trkpt>
      <trkpt lat="48.95015" lon="7.48777">
        <ele>339</ele>
        <time>2021-08-08T07:37:36Z</time>
      </trkpt>
      <trkpt lat="48.95015" lon="7.48777">
        <ele>339</ele>
        <time>2021-08-08T07:37:37Z</time>
      </trkpt>
      <trkpt lat="48.95017" lon="7.4877">
        <ele>339</ele>
        <time>2021-08-08T07:37:38Z</time>
      </trkpt>
      <trkpt lat="48.95019" lon="7.48764">
        <ele>339</ele>
        <time>2021-08-08T07:37:39Z</time>
      </trkpt>
      <trkpt lat="48.95019" lon="7.48764">
        <ele>339</ele>
        <time>2021-08-08T07:37:40Z</time>
      </trkpt>
      <trkpt lat="48.95018" lon="7.48752">
        <ele>339</ele>
        <time>2021-08-08T07:37:41Z</time>
      </trkpt>
      <trkpt lat="48.95018" lon="7.48752">
        <ele>340</ele>
        <time>2021-08-08T07:37:42Z</time>
      </trkpt>
      <trkpt lat="48.95019" lon="7.48743">
        <ele>340</ele>
        <time>2021-08-08T07:37:43Z</time>
      </trkpt>
      <trkpt lat="48.95019" lon="7.48738">
        <ele>340</ele>
        <time>2021-08-08T07:37:44Z</time>
      </trkpt>
      <trkpt lat="48.95019" lon="7.48738">
        <ele>340</ele>
        <time>2021-08-08T07:37:45Z</time>
      </trkpt>
      <trkpt lat="48.95017" lon="7.48728">
        <ele>340</ele>
        <time>2021-08-08T07:37:46Z</time>
      </trkpt>
      <trkpt lat="48.95017" lon="7.48723">
        <ele>340</ele>
        <time>2021-08-08T07:37:47Z</time>
      </trkpt>
      <trkpt lat="48.95017" lon="7.48723">
        <ele>340</ele>
        <time>2021-08-08T07:37:48Z</time>
      </trkpt>
      <trkpt lat="48.95016" lon="7.48714">
        <ele>340</ele>
        <time>2021-08-08T07:37:49Z</time>
      </trkpt>
      <trkpt lat="48.95015" lon="7.48709">
        <ele>340</ele>
        <time>2021-08-08T07:37:50Z</time>
      </trkpt>
      <trkpt lat="48.95013" lon="7.48704">
        <ele>340</ele>
        <time>2021-08-08T07:37:51Z</time>
      </trkpt>
      <trkpt lat="48.95013" lon="7.48704">
        <ele>340</ele>
        <time>2021-08-08T07:37:52Z</time>
      </trkpt>
      <trkpt lat="48.9501" lon="7.48694">
        <ele>340</ele>
        <time>2021-08-08T07:37:53Z</time>
      </trkpt>
      <trkpt lat="48.95009" lon="7.48689">
        <ele>340</ele>
        <time>2021-08-08T07:37:54Z</time>
      </trkpt>
      <trkpt lat="48.95007" lon="7.48684">
        <ele>340</ele>
        <time>2021-08-08T07:37:55Z</time>
      </trkpt>
      <trkpt lat="48.95007" lon="7.48684">
        <ele>340</ele>
        <time>2021-08-08T07:37:56Z</time>
      </trkpt>
      <trkpt lat="48.95004" lon="7.48674">
        <ele>340</ele>
        <time>2021-08-08T07:37:57Z</time>
      </trkpt>
      <trkpt lat="48.95001" lon="7.48669">
        <ele>340</ele>
        <time>2021-08-08T07:37:58Z</time>
      </trkpt>
      <trkpt lat="48.95001" lon="7.48669">
        <ele>340</ele>
        <time>2021-08-08T07:37:59Z</time>
      </trkpt>
      <trkpt lat="48.94998" lon="7.4866">
        <ele>340</ele>
        <time>2021-08-08T07:38:00Z</time>
      </trkpt>
      <trkpt lat="48.94997" lon="7.48657">
        <ele>339</ele>
        <time>2021-08-08T07:38:01Z</time>
      </trkpt>
      <trkpt lat="48.94997" lon="7.48657">
        <ele>339</ele>
        <time>2021-08-08T07:38:02Z</time>
      </trkpt>
      <trkpt lat="48.94992" lon="7.48648">
        <ele>339</ele>
        <time>2021-08-08T07:38:03Z</time>
      </trkpt>
      <trkpt lat="48.94992" lon="7.48648">
        <ele>339</ele>
        <time>2021-08-08T07:38:04Z</time>
      </trkpt>
      <trkpt lat="48.94989" lon="7.48641">
        <ele>339</ele>
        <time>2021-08-08T07:38:05Z</time>
      </trkpt>
      <trkpt lat="48.94989" lon="7.48641">
        <ele>339</ele>
        <time>2021-08-08T07:38:06Z</time>
      </trkpt>
      <trkpt lat="48.94983" lon="7.48633">
        <ele>339</ele>
        <time>2021-08-08T07:38:07Z</time>
      </trkpt>
      <trkpt lat="48.94983" lon="7.48633">
        <ele>339</ele>
        <time>2021-08-08T07:38:08Z</time>
      </trkpt>
      <trkpt lat="48.94978" lon="7.48625">
        <ele>339</ele>
        <time>2021-08-08T07:38:09Z</time>
      </trkpt>
      <trkpt lat="48.94978" lon="7.48625">
        <ele>339</ele>
        <time>2021-08-08T07:38:10Z</time>
      </trkpt>
      <trkpt lat="48.94966" lon="7.48611">
        <ele>337</ele>
        <time>2021-08-08T07:38:11Z</time>
      </trkpt>
      <trkpt lat="48.94966" lon="7.48611">
        <ele>337</ele>
        <time>2021-08-08T07:38:12Z</time>
      </trkpt>
      <trkpt lat="48.9496" lon="7.48598">
        <ele>337</ele>
        <time>2021-08-08T07:38:13Z</time>
      </trkpt>
      <trkpt lat="48.9496" lon="7.48598">
        <ele>337</ele>
        <time>2021-08-08T07:38:14Z</time>
      </trkpt>
      <trkpt lat="48.94955" lon="7.48584">
        <ele>337</ele>
        <time>2021-08-08T07:38:15Z</time>
      </trkpt>
      <trkpt lat="48.94955" lon="7.48584">
        <ele>337</ele>
        <time>2021-08-08T07:38:16Z</time>
      </trkpt>
      <trkpt lat="48.9495" lon="7.48573">
        <ele>337</ele>
        <time>2021-08-08T07:38:17Z</time>
      </trkpt>
      <trkpt lat="48.9495" lon="7.48573">
        <ele>337</ele>
        <time>2021-08-08T07:38:18Z</time>
      </trkpt>
      <trkpt lat="48.94944" lon="7.48561">
        <ele>337</ele>
        <time>2021-08-08T07:38:19Z</time>
      </trkpt>
      <trkpt lat="48.94944" lon="7.48561">
        <ele>337</ele>
        <time>2021-08-08T07:38:20Z</time>
      </trkpt>
      <trkpt lat="48.9494" lon="7.48548">
        <ele>337</ele>
        <time>2021-08-08T07:38:21Z</time>
      </trkpt>
      <trkpt lat="48.94938" lon="7.48542">
        <ele>337</ele>
        <time>2021-08-08T07:38:22Z</time>
      </trkpt>
      <trkpt lat="48.94938" lon="7.48542">
        <ele>337</ele>
        <time>2021-08-08T07:38:23Z</time>
      </trkpt>
      <trkpt lat="48.94933" lon="7.48529">
        <ele>337</ele>
        <time>2021-08-08T07:38:24Z</time>
      </trkpt>
      <trkpt lat="48.9493" lon="7.48522">
        <ele>336</ele>
        <time>2021-08-08T07:38:25Z</time>
      </trkpt>
      <trkpt lat="48.9493" lon="7.48522">
        <ele>336</ele>
        <time>2021-08-08T07:38:26Z</time>
      </trkpt>
      <trkpt lat="48.94924" lon="7.4851">
        <ele>336</ele>
        <time>2021-08-08T07:38:27Z</time>
      </trkpt>
      <trkpt lat="48.94924" lon="7.4851">
        <ele>336</ele>
        <time>2021-08-08T07:38:28Z</time>
      </trkpt>
      <trkpt lat="48.94919" lon="7.48497">
        <ele>335</ele>
        <time>2021-08-08T07:38:29Z</time>
      </trkpt>
      <trkpt lat="48.94915" lon="7.48488">
        <ele>335</ele>
        <time>2021-08-08T07:38:30Z</time>
      </trkpt>
      <trkpt lat="48.94913" lon="7.4848">
        <ele>335</ele>
        <time>2021-08-08T07:38:31Z</time>
      </trkpt>
      <trkpt lat="48.94913" lon="7.4848">
        <ele>335</ele>
        <time>2021-08-08T07:38:32Z</time>
      </trkpt>
      <trkpt lat="48.94907" lon="7.48466">
        <ele>334</ele>
        <time>2021-08-08T07:38:33Z</time>
      </trkpt>
      <trkpt lat="48.94907" lon="7.48466">
        <ele>334</ele>
        <time>2021-08-08T07:38:34Z</time>
      </trkpt>
      <trkpt lat="48.94901" lon="7.48451">
        <ele>333</ele>
        <time>2021-08-08T07:38:35Z</time>
      </trkpt>
      <trkpt lat="48.94901" lon="7.48451">
        <ele>333</ele>
        <time>2021-08-08T07:38:36Z</time>
      </trkpt>
      <trkpt lat="48.94894" lon="7.48431">
        <ele>332</ele>
        <time>2021-08-08T07:38:37Z</time>
      </trkpt>
      <trkpt lat="48.94894" lon="7.48431">
        <ele>332</ele>
        <time>2021-08-08T07:38:38Z</time>
      </trkpt>
      <trkpt lat="48.94894" lon="7.48414">
        <ele>332</ele>
        <time>2021-08-08T07:38:39Z</time>
      </trkpt>
      <trkpt lat="48.94894" lon="7.48414">
        <ele>332</ele>
        <time>2021-08-08T07:38:40Z</time>
      </trkpt>
      <trkpt lat="48.94894" lon="7.48399">
        <ele>331</ele>
        <time>2021-08-08T07:38:41Z</time>
      </trkpt>
      <trkpt lat="48.94894" lon="7.48399">
        <ele>331</ele>
        <time>2021-08-08T07:38:42Z</time>
      </trkpt>
      <trkpt lat="48.94894" lon="7.48388">
        <ele>331</ele>
        <time>2021-08-08T07:38:43Z</time>
      </trkpt>
      <trkpt lat="48.94894" lon="7.48388">
        <ele>331</ele>
        <time>2021-08-08T07:38:44Z</time>
      </trkpt>
      <trkpt lat="48.94893" lon="7.48379">
        <ele>330</ele>
        <time>2021-08-08T07:38:45Z</time>
      </trkpt>
      <trkpt lat="48.94893" lon="7.48379">
        <ele>330</ele>
        <time>2021-08-08T07:38:46Z</time>
      </trkpt>
      <trkpt lat="48.94892" lon="7.48371">
        <ele>330</ele>
        <time>2021-08-08T07:38:47Z</time>
      </trkpt>
      <trkpt lat="48.94892" lon="7.48371">
        <ele>330</ele>
        <time>2021-08-08T07:38:48Z</time>
      </trkpt>
      <trkpt lat="48.94892" lon="7.48365">
        <ele>329</ele>
        <time>2021-08-08T07:38:49Z</time>
      </trkpt>
      <trkpt lat="48.94892" lon="7.48365">
        <ele>329</ele>
        <time>2021-08-08T07:38:50Z</time>
      </trkpt>
      <trkpt lat="48.94893" lon="7.48359">
        <ele>329</ele>
        <time>2021-08-08T07:38:51Z</time>
      </trkpt>
      <trkpt lat="48.94893" lon="7.48359">
        <ele>329</ele>
        <time>2021-08-08T07:38:52Z</time>
      </trkpt>
      <trkpt lat="48.94894" lon="7.48352">
        <ele>329</ele>
        <time>2021-08-08T07:38:53Z</time>
      </trkpt>
      <trkpt lat="48.94895" lon="7.48348">
        <ele>329</ele>
        <time>2021-08-08T07:38:54Z</time>
      </trkpt>
      <trkpt lat="48.94897" lon="7.48345">
        <ele>329</ele>
        <time>2021-08-08T07:38:55Z</time>
      </trkpt>
      <trkpt lat="48.94897" lon="7.48345">
        <ele>329</ele>
        <time>2021-08-08T07:38:56Z</time>
      </trkpt>
      <trkpt lat="48.94899" lon="7.48339">
        <ele>329</ele>
        <time>2021-08-08T07:38:57Z</time>
      </trkpt>
      <trkpt lat="48.94899" lon="7.48339">
        <ele>329</ele>
        <time>2021-08-08T07:38:58Z</time>
      </trkpt>
      <trkpt lat="48.94904" lon="7.48334">
        <ele>329</ele>
        <time>2021-08-08T07:38:59Z</time>
      </trkpt>
      <trkpt lat="48.94906" lon="7.48332">
        <ele>329</ele>
        <time>2021-08-08T07:39:00Z</time>
      </trkpt>
      <trkpt lat="48.94909" lon="7.4833">
        <ele>329</ele>
        <time>2021-08-08T07:39:01Z</time>
      </trkpt>
      <trkpt lat="48.94909" lon="7.4833">
        <ele>329</ele>
        <time>2021-08-08T07:39:02Z</time>
      </trkpt>
      <trkpt lat="48.94916" lon="7.48322">
        <ele>329</ele>
        <time>2021-08-08T07:39:03Z</time>
      </trkpt>
      <trkpt lat="48.94916" lon="7.48322">
        <ele>329</ele>
        <time>2021-08-08T07:39:04Z</time>
      </trkpt>
      <trkpt lat="48.94923" lon="7.48316">
        <ele>329</ele>
        <time>2021-08-08T07:39:05Z</time>
      </trkpt>
      <trkpt lat="48.94923" lon="7.48316">
        <ele>329</ele>
        <time>2021-08-08T07:39:06Z</time>
      </trkpt>
      <trkpt lat="48.94931" lon="7.48309">
        <ele>329</ele>
        <time>2021-08-08T07:39:07Z</time>
      </trkpt>
      <trkpt lat="48.94931" lon="7.48309">
        <ele>329</ele>
        <time>2021-08-08T07:39:08Z</time>
      </trkpt>
      <trkpt lat="48.9494" lon="7.48302">
        <ele>329</ele>
        <time>2021-08-08T07:39:09Z</time>
      </trkpt>
      <trkpt lat="48.9494" lon="7.48302">
        <ele>328</ele>
        <time>2021-08-08T07:39:10Z</time>
      </trkpt>
      <trkpt lat="48.9495" lon="7.48295">
        <ele>328</ele>
        <time>2021-08-08T07:39:11Z</time>
      </trkpt>
      <trkpt lat="48.94955" lon="7.48289">
        <ele>328</ele>
        <time>2021-08-08T07:39:12Z</time>
      </trkpt>
      <trkpt lat="48.94955" lon="7.48289">
        <ele>328</ele>
        <time>2021-08-08T07:39:13Z</time>
      </trkpt>
      <trkpt lat="48.94963" lon="7.48285">
        <ele>328</ele>
        <time>2021-08-08T07:39:14Z</time>
      </trkpt>
      <trkpt lat="48.94968" lon="7.48284">
        <ele>328</ele>
        <time>2021-08-08T07:39:15Z</time>
      </trkpt>
      <trkpt lat="48.94968" lon="7.48284">
        <ele>328</ele>
        <time>2021-08-08T07:39:16Z</time>
      </trkpt>
      <trkpt lat="48.94975" lon="7.48283">
        <ele>328</ele>
        <time>2021-08-08T07:39:17Z</time>
      </trkpt>
      <trkpt lat="48.94975" lon="7.48283">
        <ele>329</ele>
        <time>2021-08-08T07:39:18Z</time>
      </trkpt>
      <trkpt lat="48.94981" lon="7.48282">
        <ele>329</ele>
        <time>2021-08-08T07:39:19Z</time>
      </trkpt>
      <trkpt lat="48.94983" lon="7.48282">
        <ele>329</ele>
        <time>2021-08-08T07:39:20Z</time>
      </trkpt>
      <trkpt lat="48.94986" lon="7.48281">
        <ele>329</ele>
        <time>2021-08-08T07:39:21Z</time>
      </trkpt>
      <trkpt lat="48.94986" lon="7.48281">
        <ele>329</ele>
        <time>2021-08-08T07:39:22Z</time>
      </trkpt>
      <trkpt lat="48.94991" lon="7.48278">
        <ele>329</ele>
        <time>2021-08-08T07:39:23Z</time>
      </trkpt>
      <trkpt lat="48.94994" lon="7.48278">
        <ele>329</ele>
        <time>2021-08-08T07:39:24Z</time>
      </trkpt>
      <trkpt lat="48.94997" lon="7.48276">
        <ele>329</ele>
        <time>2021-08-08T07:39:25Z</time>
      </trkpt>
      <trkpt lat="48.95" lon="7.48276">
        <ele>330</ele>
        <time>2021-08-08T07:39:26Z</time>
      </trkpt>
      <trkpt lat="48.95005" lon="7.48274">
        <ele>330</ele>
        <time>2021-08-08T07:39:27Z</time>
      </trkpt>
      <trkpt lat="48.95005" lon="7.48274">
        <ele>330</ele>
        <time>2021-08-08T07:39:28Z</time>
      </trkpt>
      <trkpt lat="48.95011" lon="7.48272">
        <ele>330</ele>
        <time>2021-08-08T07:39:29Z</time>
      </trkpt>
      <trkpt lat="48.95011" lon="7.48272">
        <ele>331</ele>
        <time>2021-08-08T07:39:30Z</time>
      </trkpt>
      <trkpt lat="48.95016" lon="7.48271">
        <ele>331</ele>
        <time>2021-08-08T07:39:31Z</time>
      </trkpt>
      <trkpt lat="48.95016" lon="7.48271">
        <ele>331</ele>
        <time>2021-08-08T07:39:32Z</time>
      </trkpt>
      <trkpt lat="48.95022" lon="7.48271">
        <ele>331</ele>
        <time>2021-08-08T07:39:33Z</time>
      </trkpt>
      <trkpt lat="48.95022" lon="7.48271">
        <ele>332</ele>
        <time>2021-08-08T07:39:34Z</time>
      </trkpt>
      <trkpt lat="48.95028" lon="7.48267">
        <ele>332</ele>
        <time>2021-08-08T07:39:35Z</time>
      </trkpt>
      <trkpt lat="48.95028" lon="7.48267">
        <ele>332</ele>
        <time>2021-08-08T07:39:36Z</time>
      </trkpt>
      <trkpt lat="48.95034" lon="7.48266">
        <ele>332</ele>
        <time>2021-08-08T07:39:37Z</time>
      </trkpt>
      <trkpt lat="48.95034" lon="7.48266">
        <ele>332</ele>
        <time>2021-08-08T07:39:38Z</time>
      </trkpt>
      <trkpt lat="48.95039" lon="7.48263">
        <ele>332</ele>
        <time>2021-08-08T07:39:39Z</time>
      </trkpt>
      <trkpt lat="48.95042" lon="7.48261">
        <ele>333</ele>
        <time>2021-08-08T07:39:40Z</time>
      </trkpt>
      <trkpt lat="48.95042" lon="7.48261">
        <ele>333</ele>
        <time>2021-08-08T07:39:41Z</time>
      </trkpt>
      <trkpt lat="48.95047" lon="7.48259">
        <ele>333</ele>
        <time>2021-08-08T07:39:42Z</time>
      </trkpt>
      <trkpt lat="48.95047" lon="7.48259">
        <ele>333</ele>
        <time>2021-08-08T07:39:43Z</time>
      </trkpt>
      <trkpt lat="48.95055" lon="7.48255">
        <ele>333</ele>
        <time>2021-08-08T07:39:44Z</time>
      </trkpt>
      <trkpt lat="48.95058" lon="7.48255">
        <ele>333</ele>
        <time>2021-08-08T07:39:45Z</time>
      </trkpt>
      <trkpt lat="48.95058" lon="7.48255">
        <ele>333</ele>
        <time>2021-08-08T07:39:46Z</time>
      </trkpt>
      <trkpt lat="48.95063" lon="7.48253">
        <ele>333</ele>
        <time>2021-08-08T07:39:47Z</time>
      </trkpt>
      <trkpt lat="48.95063" lon="7.48253">
        <ele>333</ele>
        <time>2021-08-08T07:39:48Z</time>
      </trkpt>
      <trkpt lat="48.95067" lon="7.48252">
        <ele>333</ele>
        <time>2021-08-08T07:39:49Z</time>
      </trkpt>
      <trkpt lat="48.95067" lon="7.48252">
        <ele>333</ele>
        <time>2021-08-08T07:39:50Z</time>
      </trkpt>
      <trkpt lat="48.95071" lon="7.48251">
        <ele>333</ele>
        <time>2021-08-08T07:39:51Z</time>
      </trkpt>
      <trkpt lat="48.95071" lon="7.48251">
        <ele>335</ele>
        <time>2021-08-08T07:39:52Z</time>
      </trkpt>
      <trkpt lat="48.95074" lon="7.4825">
        <ele>335</ele>
        <time>2021-08-08T07:39:53Z</time>
      </trkpt>
      <trkpt lat="48.95074" lon="7.4825">
        <ele>335</ele>
        <time>2021-08-08T07:39:54Z</time>
      </trkpt>
      <trkpt lat="48.95079" lon="7.48248">
        <ele>335</ele>
        <time>2021-08-08T07:39:55Z</time>
      </trkpt>
      <trkpt lat="48.95079" lon="7.48248">
        <ele>336</ele>
        <time>2021-08-08T07:39:56Z</time>
      </trkpt>
      <trkpt lat="48.95082" lon="7.48247">
        <ele>336</ele>
        <time>2021-08-08T07:39:57Z</time>
      </trkpt>
      <trkpt lat="48.95082" lon="7.48247">
        <ele>336</ele>
        <time>2021-08-08T07:39:58Z</time>
      </trkpt>
      <trkpt lat="48.95085" lon="7.48244">
        <ele>336</ele>
        <time>2021-08-08T07:39:59Z</time>
      </trkpt>
      <trkpt lat="48.95087" lon="7.48245">
        <ele>337</ele>
        <time>2021-08-08T07:40:00Z</time>
      </trkpt>
      <trkpt lat="48.95087" lon="7.48245">
        <ele>337</ele>
        <time>2021-08-08T07:40:01Z</time>
      </trkpt>
      <trkpt lat="48.95089" lon="7.48244">
        <ele>337</ele>
        <time>2021-08-08T07:40:02Z</time>
      </trkpt>
      <trkpt lat="48.95091" lon="7.48243">
        <ele>337</ele>
        <time>2021-08-08T07:40:03Z</time>
      </trkpt>
      <trkpt lat="48.95091" lon="7.48243">
        <ele>338</ele>
        <time>2021-08-08T07:40:04Z</time>
      </trkpt>
      <trkpt lat="48.95093" lon="7.48243">
        <ele>338</ele>
        <time>2021-08-08T07:40:05Z</time>
      </trkpt>
      <trkpt lat="48.95094" lon="7.48242">
        <ele>338</ele>
        <time>2021-08-08T07:40:06Z</time>
      </trkpt>
      <trkpt lat="48.95095" lon="7.48241">
        <ele>338</ele>
        <time>2021-08-08T07:40:07Z</time>
      </trkpt>
      <trkpt lat="48.95095" lon="7.48241">
        <ele>338</ele>
        <time>2021-08-08T07:40:08Z</time>
      </trkpt>
      <trkpt lat="48.95098" lon="7.48238">
        <ele>338</ele>
        <time>2021-08-08T07:40:09Z</time>
      </trkpt>
      <trkpt lat="48.95098" lon="7.48238">
        <ele>339</ele>
        <time>2021-08-08T07:40:10Z</time>
      </trkpt>
      <trkpt lat="48.951" lon="7.48235">
        <ele>339</ele>
        <time>2021-08-08T07:40:11Z</time>
      </trkpt>
      <trkpt lat="48.951" lon="7.48235">
        <ele>339</ele>
        <time>2021-08-08T07:40:12Z</time>
      </trkpt>
      <trkpt lat="48.95102" lon="7.48234">
        <ele>339</ele>
        <time>2021-08-08T07:40:13Z</time>
      </trkpt>
      <trkpt lat="48.95102" lon="7.48234">
        <ele>339</ele>
        <time>2021-08-08T07:40:14Z</time>
      </trkpt>
      <trkpt lat="48.95108" lon="7.4823">
        <ele>339</ele>
        <time>2021-08-08T07:40:15Z</time>
      </trkpt>
      <trkpt lat="48.95108" lon="7.4823">
        <ele>340</ele>
        <time>2021-08-08T07:40:16Z</time>
      </trkpt>
      <trkpt lat="48.95113" lon="7.48229">
        <ele>340</ele>
        <time>2021-08-08T07:40:17Z</time>
      </trkpt>
      <trkpt lat="48.95113" lon="7.48229">
        <ele>340</ele>
        <time>2021-08-08T07:40:18Z</time>
      </trkpt>
      <trkpt lat="48.95116" lon="7.48229">
        <ele>340</ele>
        <time>2021-08-08T07:40:19Z</time>
      </trkpt>
      <trkpt lat="48.95116" lon="7.48229">
        <ele>341</ele>
        <time>2021-08-08T07:40:20Z</time>
      </trkpt>
      <trkpt lat="48.95119" lon="7.48228">
        <ele>341</ele>
        <time>2021-08-08T07:40:21Z</time>
      </trkpt>
      <trkpt lat="48.95119" lon="7.48228">
        <ele>341</ele>
        <time>2021-08-08T07:40:22Z</time>
      </trkpt>
      <trkpt lat="48.95122" lon="7.48228">
        <ele>341</ele>
        <time>2021-08-08T07:40:23Z</time>
      </trkpt>
      <trkpt lat="48.95124" lon="7.48228">
        <ele>342</ele>
        <time>2021-08-08T07:40:24Z</time>
      </trkpt>
      <trkpt lat="48.95125" lon="7.4823">
        <ele>342</ele>
        <time>2021-08-08T07:40:25Z</time>
      </trkpt>
      <trkpt lat="48.95125" lon="7.4823">
        <ele>342</ele>
        <time>2021-08-08T07:40:26Z</time>
      </trkpt>
      <trkpt lat="48.95128" lon="7.4823">
        <ele>342</ele>
        <time>2021-08-08T07:40:27Z</time>
      </trkpt>
      <trkpt lat="48.95128" lon="7.4823">
        <ele>343</ele>
        <time>2021-08-08T07:40:28Z</time>
      </trkpt>
      <trkpt lat="48.95131" lon="7.4823">
        <ele>343</ele>
        <time>2021-08-08T07:40:29Z</time>
      </trkpt>
      <trkpt lat="48.95132" lon="7.48229">
        <ele>343</ele>
        <time>2021-08-08T07:40:30Z</time>
      </trkpt>
      <trkpt lat="48.95133" lon="7.48229">
        <ele>343</ele>
        <time>2021-08-08T07:40:31Z</time>
      </trkpt>
      <trkpt lat="48.95133" lon="7.48229">
        <ele>343</ele>
        <time>2021-08-08T07:40:32Z</time>
      </trkpt>
      <trkpt lat="48.95135" lon="7.48228">
        <ele>343</ele>
        <time>2021-08-08T07:40:33Z</time>
      </trkpt>
      <trkpt lat="48.95135" lon="7.48228">
        <ele>344</ele>
        <time>2021-08-08T07:40:34Z</time>
      </trkpt>
      <trkpt lat="48.95137" lon="7.48226">
        <ele>344</ele>
        <time>2021-08-08T07:40:35Z</time>
      </trkpt>
      <trkpt lat="48.95137" lon="7.48226">
        <ele>344</ele>
        <time>2021-08-08T07:40:36Z</time>
      </trkpt>
      <trkpt lat="48.9514" lon="7.48225">
        <ele>344</ele>
        <time>2021-08-08T07:40:37Z</time>
      </trkpt>
      <trkpt lat="48.9514" lon="7.48225">
        <ele>345</ele>
        <time>2021-08-08T07:40:38Z</time>
      </trkpt>
      <trkpt lat="48.95143" lon="7.48223">
        <ele>345</ele>
        <time>2021-08-08T07:40:39Z</time>
      </trkpt>
      <trkpt lat="48.95143" lon="7.48223">
        <ele>345</ele>
        <time>2021-08-08T07:40:40Z</time>
      </trkpt>
      <trkpt lat="48.95146" lon="7.48221">
        <ele>345</ele>
        <time>2021-08-08T07:40:41Z</time>
      </trkpt>
      <trkpt lat="48.95147" lon="7.48221">
        <ele>346</ele>
        <time>2021-08-08T07:40:42Z</time>
      </trkpt>
      <trkpt lat="48.95147" lon="7.48221">
        <ele>346</ele>
        <time>2021-08-08T07:40:43Z</time>
      </trkpt>
      <trkpt lat="48.95148" lon="7.48219">
        <ele>346</ele>
        <time>2021-08-08T07:40:44Z</time>
      </trkpt>
      <trkpt lat="48.95149" lon="7.48218">
        <ele>347</ele>
        <time>2021-08-08T07:40:45Z</time>
      </trkpt>
      <trkpt lat="48.95149" lon="7.48218">
        <ele>347</ele>
        <time>2021-08-08T07:40:46Z</time>
      </trkpt>
      <trkpt lat="48.95155" lon="7.48215">
        <ele>347</ele>
        <time>2021-08-08T07:40:47Z</time>
      </trkpt>
      <trkpt lat="48.95155" lon="7.48215">
        <ele>347</ele>
        <time>2021-08-08T07:40:48Z</time>
      </trkpt>
      <trkpt lat="48.95157" lon="7.48214">
        <ele>348</ele>
        <time>2021-08-08T07:40:49Z</time>
      </trkpt>
      <trkpt lat="48.95157" lon="7.48214">
        <ele>348</ele>
        <time>2021-08-08T07:40:50Z</time>
      </trkpt>
      <trkpt lat="48.95158" lon="7.48212">
        <ele>348</ele>
        <time>2021-08-08T07:40:51Z</time>
      </trkpt>
      <trkpt lat="48.95158" lon="7.48212">
        <ele>348</ele>
        <time>2021-08-08T07:40:52Z</time>
      </trkpt>
      <trkpt lat="48.9516" lon="7.48211">
        <ele>349</ele>
        <time>2021-08-08T07:40:53Z</time>
      </trkpt>
      <trkpt lat="48.95161" lon="7.48211">
        <ele>349</ele>
        <time>2021-08-08T07:40:54Z</time>
      </trkpt>
      <trkpt lat="48.95161" lon="7.4821">
        <ele>349</ele>
        <time>2021-08-08T07:40:55Z</time>
      </trkpt>
      <trkpt lat="48.95161" lon="7.4821">
        <ele>349</ele>
        <time>2021-08-08T07:40:56Z</time>
      </trkpt>
      <trkpt lat="48.95164" lon="7.48207">
        <ele>349</ele>
        <time>2021-08-08T07:40:57Z</time>
      </trkpt>
      <trkpt lat="48.95164" lon="7.48207">
        <ele>349</ele>
        <time>2021-08-08T07:40:58Z</time>
      </trkpt>
      <trkpt lat="48.95167" lon="7.48207">
        <ele>349</ele>
        <time>2021-08-08T07:40:59Z</time>
      </trkpt>
      <trkpt lat="48.95167" lon="7.48207">
        <ele>349</ele>
        <time>2021-08-08T07:41:00Z</time>
      </trkpt>
      <trkpt lat="48.95167" lon="7.48207">
        <ele>349</ele>
        <time>2021-08-08T07:41:01Z</time>
      </trkpt>
      <trkpt lat="48.95171" lon="7.48207">
        <ele>351</ele>
        <time>2021-08-08T07:41:02Z</time>
      </trkpt>
      <trkpt lat="48.95172" lon="7.48208">
        <ele>351</ele>
        <time>2021-08-08T07:41:03Z</time>
      </trkpt>
      <trkpt lat="48.95172" lon="7.48208">
        <ele>352</ele>
        <time>2021-08-08T07:41:04Z</time>
      </trkpt>
      <trkpt lat="48.95176" lon="7.48208">
        <ele>352</ele>
        <time>2021-08-08T07:41:05Z</time>
      </trkpt>
      <trkpt lat="48.95176" lon="7.48208">
        <ele>352</ele>
        <time>2021-08-08T07:41:06Z</time>
      </trkpt>
      <trkpt lat="48.95179" lon="7.48208">
        <ele>352</ele>
        <time>2021-08-08T07:41:07Z</time>
      </trkpt>
      <trkpt lat="48.95179" lon="7.48208">
        <ele>353</ele>
        <time>2021-08-08T07:41:08Z</time>
      </trkpt>
      <trkpt lat="48.95181" lon="7.48208">
        <ele>353</ele>
        <time>2021-08-08T07:41:09Z</time>
      </trkpt>
      <trkpt lat="48.95181" lon="7.48208">
        <ele>353</ele>
        <time>2021-08-08T07:41:10Z</time>
      </trkpt>
      <trkpt lat="48.95184" lon="7.48208">
        <ele>353</ele>
        <time>2021-08-08T07:41:11Z</time>
      </trkpt>
      <trkpt lat="48.95184" lon="7.48207">
        <ele>354</ele>
        <time>2021-08-08T07:41:12Z</time>
      </trkpt>
      <trkpt lat="48.95184" lon="7.48207">
        <ele>354</ele>
        <time>2021-08-08T07:41:13Z</time>
      </trkpt>
      <trkpt lat="48.95187" lon="7.48207">
        <ele>354</ele>
        <time>2021-08-08T07:41:14Z</time>
      </trkpt>
      <trkpt lat="48.95188" lon="7.48207">
        <ele>354</ele>
        <time>2021-08-08T07:41:15Z</time>
      </trkpt>
      <trkpt lat="48.95188" lon="7.48207">
        <ele>355</ele>
        <time>2021-08-08T07:41:16Z</time>
      </trkpt>
      <trkpt lat="48.95191" lon="7.48208">
        <ele>355</ele>
        <time>2021-08-08T07:41:17Z</time>
      </trkpt>
      <trkpt lat="48.95191" lon="7.48208">
        <ele>355</ele>
        <time>2021-08-08T07:41:18Z</time>
      </trkpt>
      <trkpt lat="48.95194" lon="7.48205">
        <ele>355</ele>
        <time>2021-08-08T07:41:19Z</time>
      </trkpt>
      <trkpt lat="48.95194" lon="7.48205">
        <ele>356</ele>
        <time>2021-08-08T07:41:20Z</time>
      </trkpt>
      <trkpt lat="48.95196" lon="7.48204">
        <ele>356</ele>
        <time>2021-08-08T07:41:21Z</time>
      </trkpt>
      <trkpt lat="48.95197" lon="7.48205">
        <ele>356</ele>
        <time>2021-08-08T07:41:22Z</time>
      </trkpt>
      <trkpt lat="48.95197" lon="7.48205">
        <ele>356</ele>
        <time>2021-08-08T07:41:23Z</time>
      </trkpt>
      <trkpt lat="48.95199" lon="7.48205">
        <ele>356</ele>
        <time>2021-08-08T07:41:24Z</time>
      </trkpt>
      <trkpt lat="48.952" lon="7.48205">
        <ele>356</ele>
        <time>2021-08-08T07:41:25Z</time>
      </trkpt>
      <trkpt lat="48.95201" lon="7.48205">
        <ele>356</ele>
        <time>2021-08-08T07:41:26Z</time>
      </trkpt>
      <trkpt lat="48.95201" lon="7.48205">
        <ele>356</ele>
        <time>2021-08-08T07:41:27Z</time>
      </trkpt>
      <trkpt lat="48.95202" lon="7.48205">
        <ele>358</ele>
        <time>2021-08-08T07:41:28Z</time>
      </trkpt>
      <trkpt lat="48.95202" lon="7.48205">
        <ele>358</ele>
        <time>2021-08-08T07:41:29Z</time>
      </trkpt>
      <trkpt lat="48.95204" lon="7.48207">
        <ele>358</ele>
        <time>2021-08-08T07:41:30Z</time>
      </trkpt>
      <trkpt lat="48.95204" lon="7.48207">
        <ele>358</ele>
        <time>2021-08-08T07:41:31Z</time>
      </trkpt>
      <trkpt lat="48.95208" lon="7.48209">
        <ele>358</ele>
        <time>2021-08-08T07:41:32Z</time>
      </trkpt>
      <trkpt lat="48.95208" lon="7.48209">
        <ele>358</ele>
        <time>2021-08-08T07:41:33Z</time>
      </trkpt>
      <trkpt lat="48.95211" lon="7.48211">
        <ele>358</ele>
        <time>2021-08-08T07:41:34Z</time>
      </trkpt>
      <trkpt lat="48.95211" lon="7.48211">
        <ele>359</ele>
        <time>2021-08-08T07:41:35Z</time>
      </trkpt>
      <trkpt lat="48.95214" lon="7.48213">
        <ele>359</ele>
        <time>2021-08-08T07:41:36Z</time>
      </trkpt>
      <trkpt lat="48.95215" lon="7.48214">
        <ele>359</ele>
        <time>2021-08-08T07:41:37Z</time>
      </trkpt>
      <trkpt lat="48.95215" lon="7.48214">
        <ele>359</ele>
        <time>2021-08-08T07:41:38Z</time>
      </trkpt>
      <trkpt lat="48.95217" lon="7.48215">
        <ele>360</ele>
        <time>2021-08-08T07:41:39Z</time>
      </trkpt>
      <trkpt lat="48.95217" lon="7.48215">
        <ele>360</ele>
        <time>2021-08-08T07:41:40Z</time>
      </trkpt>
      <trkpt lat="48.95219" lon="7.48216">
        <ele>360</ele>
        <time>2021-08-08T07:41:41Z</time>
      </trkpt>
      <trkpt lat="48.95219" lon="7.48216">
        <ele>360</ele>
        <time>2021-08-08T07:41:42Z</time>
      </trkpt>
      <trkpt lat="48.95221" lon="7.48217">
        <ele>361</ele>
        <time>2021-08-08T07:41:43Z</time>
      </trkpt>
      <trkpt lat="48.95221" lon="7.48217">
        <ele>361</ele>
        <time>2021-08-08T07:41:44Z</time>
      </trkpt>
      <trkpt lat="48.95222" lon="7.48219">
        <ele>361</ele>
        <time>2021-08-08T07:41:45Z</time>
      </trkpt>
      <trkpt lat="48.95223" lon="7.4822">
        <ele>361</ele>
        <time>2021-08-08T07:41:46Z</time>
      </trkpt>
      <trkpt lat="48.95223" lon="7.4822">
        <ele>362</ele>
        <time>2021-08-08T07:41:47Z</time>
      </trkpt>
      <trkpt lat="48.95227" lon="7.48223">
        <ele>362</ele>
        <time>2021-08-08T07:41:48Z</time>
      </trkpt>
      <trkpt lat="48.95228" lon="7.48225">
        <ele>362</ele>
        <time>2021-08-08T07:41:49Z</time>
      </trkpt>
      <trkpt lat="48.95228" lon="7.48225">
        <ele>362</ele>
        <time>2021-08-08T07:41:50Z</time>
      </trkpt>
      <trkpt lat="48.95231" lon="7.48228">
        <ele>362</ele>
        <time>2021-08-08T07:41:51Z</time>
      </trkpt>
      <trkpt lat="48.95231" lon="7.48228">
        <ele>362</ele>
        <time>2021-08-08T07:41:52Z</time>
      </trkpt>
      <trkpt lat="48.95234" lon="7.48231">
        <ele>362</ele>
        <time>2021-08-08T07:41:53Z</time>
      </trkpt>
      <trkpt lat="48.95236" lon="7.48232">
        <ele>362</ele>
        <time>2021-08-08T07:41:54Z</time>
      </trkpt>
      <trkpt lat="48.95236" lon="7.48232">
        <ele>362</ele>
        <time>2021-08-08T07:41:55Z</time>
      </trkpt>
      <trkpt lat="48.95238" lon="7.48236">
        <ele>362</ele>
        <time>2021-08-08T07:41:56Z</time>
      </trkpt>
      <trkpt lat="48.95238" lon="7.48236">
        <ele>362</ele>
        <time>2021-08-08T07:41:57Z</time>
      </trkpt>
      <trkpt lat="48.95241" lon="7.48239">
        <ele>362</ele>
        <time>2021-08-08T07:41:58Z</time>
      </trkpt>
      <trkpt lat="48.95241" lon="7.48239">
        <ele>362</ele>
        <time>2021-08-08T07:41:59Z</time>
      </trkpt>
      <trkpt lat="48.95245" lon="7.48242">
        <ele>362</ele>
        <time>2021-08-08T07:42:00Z</time>
      </trkpt>
      <trkpt lat="48.95248" lon="7.48243">
        <ele>362</ele>
        <time>2021-08-08T07:42:01Z</time>
      </trkpt>
      <trkpt lat="48.95248" lon="7.48243">
        <ele>362</ele>
        <time>2021-08-08T07:42:02Z</time>
      </trkpt>
      <trkpt lat="48.95252" lon="7.48246">
        <ele>362</ele>
        <time>2021-08-08T07:42:03Z</time>
      </trkpt>
      <trkpt lat="48.95252" lon="7.48246">
        <ele>362</ele>
        <time>2021-08-08T07:42:04Z</time>
      </trkpt>
      <trkpt lat="48.95256" lon="7.48248">
        <ele>362</ele>
        <time>2021-08-08T07:42:05Z</time>
      </trkpt>
      <trkpt lat="48.95258" lon="7.48249">
        <ele>362</ele>
        <time>2021-08-08T07:42:06Z</time>
      </trkpt>
      <trkpt lat="48.9526" lon="7.48251">
        <ele>362</ele>
        <time>2021-08-08T07:42:07Z</time>
      </trkpt>
      <trkpt lat="48.9526" lon="7.48251">
        <ele>362</ele>
        <time>2021-08-08T07:42:08Z</time>
      </trkpt>
      <trkpt lat="48.95264" lon="7.48256">
        <ele>362</ele>
        <time>2021-08-08T07:42:09Z</time>
      </trkpt>
      <trkpt lat="48.95264" lon="7.48256">
        <ele>362</ele>
        <time>2021-08-08T07:42:10Z</time>
      </trkpt>
      <trkpt lat="48.95268" lon="7.4826">
        <ele>362</ele>
        <time>2021-08-08T07:42:11Z</time>
      </trkpt>
      <trkpt lat="48.95268" lon="7.4826">
        <ele>361</ele>
        <time>2021-08-08T07:42:12Z</time>
      </trkpt>
      <trkpt lat="48.95274" lon="7.48266">
        <ele>361</ele>
        <time>2021-08-08T07:42:13Z</time>
      </trkpt>
      <trkpt lat="48.95274" lon="7.48266">
        <ele>360</ele>
        <time>2021-08-08T07:42:14Z</time>
      </trkpt>
      <trkpt lat="48.9528" lon="7.48272">
        <ele>360</ele>
        <time>2021-08-08T07:42:15Z</time>
      </trkpt>
      <trkpt lat="48.9528" lon="7.48272">
        <ele>359</ele>
        <time>2021-08-08T07:42:16Z</time>
      </trkpt>
      <trkpt lat="48.95287" lon="7.48279">
        <ele>359</ele>
        <time>2021-08-08T07:42:17Z</time>
      </trkpt>
      <trkpt lat="48.95287" lon="7.48279">
        <ele>358</ele>
        <time>2021-08-08T07:42:18Z</time>
      </trkpt>
      <trkpt lat="48.95295" lon="7.48286">
        <ele>358</ele>
        <time>2021-08-08T07:42:19Z</time>
      </trkpt>
      <trkpt lat="48.95295" lon="7.48286">
        <ele>357</ele>
        <time>2021-08-08T07:42:20Z</time>
      </trkpt>
      <trkpt lat="48.95303" lon="7.4829">
        <ele>357</ele>
        <time>2021-08-08T07:42:21Z</time>
      </trkpt>
      <trkpt lat="48.95303" lon="7.4829">
        <ele>356</ele>
        <time>2021-08-08T07:42:22Z</time>
      </trkpt>
      <trkpt lat="48.95312" lon="7.48294">
        <ele>356</ele>
        <time>2021-08-08T07:42:23Z</time>
      </trkpt>
      <trkpt lat="48.95316" lon="7.48295">
        <ele>354</ele>
        <time>2021-08-08T07:42:24Z</time>
      </trkpt>
      <trkpt lat="48.95316" lon="7.48295">
        <ele>354</ele>
        <time>2021-08-08T07:42:25Z</time>
      </trkpt>
      <trkpt lat="48.95323" lon="7.48298">
        <ele>352</ele>
        <time>2021-08-08T07:42:26Z</time>
      </trkpt>
      <trkpt lat="48.95326" lon="7.48301">
        <ele>352</ele>
        <time>2021-08-08T07:42:27Z</time>
      </trkpt>
      <trkpt lat="48.95326" lon="7.48301">
        <ele>351</ele>
        <time>2021-08-08T07:42:28Z</time>
      </trkpt>
      <trkpt lat="48.95332" lon="7.48304">
        <ele>351</ele>
        <time>2021-08-08T07:42:29Z</time>
      </trkpt>
      <trkpt lat="48.95332" lon="7.48304">
        <ele>349</ele>
        <time>2021-08-08T07:42:30Z</time>
      </trkpt>
      <trkpt lat="48.95339" lon="7.48308">
        <ele>348</ele>
        <time>2021-08-08T07:42:31Z</time>
      </trkpt>
      <trkpt lat="48.95339" lon="7.48308">
        <ele>348</ele>
        <time>2021-08-08T07:42:32Z</time>
      </trkpt>
      <trkpt lat="48.95344" lon="7.4831">
        <ele>348</ele>
        <time>2021-08-08T07:42:33Z</time>
      </trkpt>
      <trkpt lat="48.95344" lon="7.4831">
        <ele>347</ele>
        <time>2021-08-08T07:42:34Z</time>
      </trkpt>
      <trkpt lat="48.95348" lon="7.48311">
        <ele>347</ele>
        <time>2021-08-08T07:42:35Z</time>
      </trkpt>
      <trkpt lat="48.95348" lon="7.48311">
        <ele>347</ele>
        <time>2021-08-08T07:42:36Z</time>
      </trkpt>
      <trkpt lat="48.95354" lon="7.48311">
        <ele>346</ele>
        <time>2021-08-08T07:42:37Z</time>
      </trkpt>
      <trkpt lat="48.95354" lon="7.48311">
        <ele>346</ele>
        <time>2021-08-08T07:42:38Z</time>
      </trkpt>
      <trkpt lat="48.95362" lon="7.48307">
        <ele>345</ele>
        <time>2021-08-08T07:42:39Z</time>
      </trkpt>
      <trkpt lat="48.95362" lon="7.48307">
        <ele>345</ele>
        <time>2021-08-08T07:42:40Z</time>
      </trkpt>
      <trkpt lat="48.95367" lon="7.48298">
        <ele>344</ele>
        <time>2021-08-08T07:42:41Z</time>
      </trkpt>
      <trkpt lat="48.95367" lon="7.48298">
        <ele>344</ele>
        <time>2021-08-08T07:42:42Z</time>
      </trkpt>
      <trkpt lat="48.95373" lon="7.48292">
        <ele>344</ele>
        <time>2021-08-08T07:42:43Z</time>
      </trkpt>
      <trkpt lat="48.95373" lon="7.48292">
        <ele>343</ele>
        <time>2021-08-08T07:42:44Z</time>
      </trkpt>
      <trkpt lat="48.95381" lon="7.48285">
        <ele>343</ele>
        <time>2021-08-08T07:42:45Z</time>
      </trkpt>
      <trkpt lat="48.95384" lon="7.48283">
        <ele>343</ele>
        <time>2021-08-08T07:42:46Z</time>
      </trkpt>
      <trkpt lat="48.95384" lon="7.48283">
        <ele>343</ele>
        <time>2021-08-08T07:42:47Z</time>
      </trkpt>
      <trkpt lat="48.95392" lon="7.4828">
        <ele>343</ele>
        <time>2021-08-08T07:42:48Z</time>
      </trkpt>
      <trkpt lat="48.95397" lon="7.48279">
        <ele>343</ele>
        <time>2021-08-08T07:42:49Z</time>
      </trkpt>
      <trkpt lat="48.95403" lon="7.48278">
        <ele>343</ele>
        <time>2021-08-08T07:42:50Z</time>
      </trkpt>
      <trkpt lat="48.95403" lon="7.48278">
        <ele>343</ele>
        <time>2021-08-08T07:42:51Z</time>
      </trkpt>
      <trkpt lat="48.95414" lon="7.48278">
        <ele>343</ele>
        <time>2021-08-08T07:42:52Z</time>
      </trkpt>
      <trkpt lat="48.95414" lon="7.48278">
        <ele>343</ele>
        <time>2021-08-08T07:42:53Z</time>
      </trkpt>
      <trkpt lat="48.95425" lon="7.48279">
        <ele>343</ele>
        <time>2021-08-08T07:42:54Z</time>
      </trkpt>
      <trkpt lat="48.9543" lon="7.48281">
        <ele>343</ele>
        <time>2021-08-08T07:42:55Z</time>
      </trkpt>
      <trkpt lat="48.9543" lon="7.48281">
        <ele>343</ele>
        <time>2021-08-08T07:42:56Z</time>
      </trkpt>
      <trkpt lat="48.95438" lon="7.48283">
        <ele>343</ele>
        <time>2021-08-08T07:42:57Z</time>
      </trkpt>
      <trkpt lat="48.95438" lon="7.48283">
        <ele>343</ele>
        <time>2021-08-08T07:42:58Z</time>
      </trkpt>
      <trkpt lat="48.95444" lon="7.48284">
        <ele>343</ele>
        <time>2021-08-08T07:42:59Z</time>
      </trkpt>
      <trkpt lat="48.95446" lon="7.48285">
        <ele>343</ele>
        <time>2021-08-08T07:43:00Z</time>
      </trkpt>
      <trkpt lat="48.95448" lon="7.48287">
        <ele>344</ele>
        <time>2021-08-08T07:43:01Z</time>
      </trkpt>
      <trkpt lat="48.95448" lon="7.48287">
        <ele>344</ele>
        <time>2021-08-08T07:43:02Z</time>
      </trkpt>
      <trkpt lat="48.95455" lon="7.48292">
        <ele>344</ele>
        <time>2021-08-08T07:43:03Z</time>
      </trkpt>
      <trkpt lat="48.95455" lon="7.48292">
        <ele>344</ele>
        <time>2021-08-08T07:43:04Z</time>
      </trkpt>
      <trkpt lat="48.95461" lon="7.48297">
        <ele>344</ele>
        <time>2021-08-08T07:43:05Z</time>
      </trkpt>
      <trkpt lat="48.95464" lon="7.483">
        <ele>344</ele>
        <time>2021-08-08T07:43:06Z</time>
      </trkpt>
      <trkpt lat="48.95464" lon="7.483">
        <ele>344</ele>
        <time>2021-08-08T07:43:07Z</time>
      </trkpt>
      <trkpt lat="48.95472" lon="7.48308">
        <ele>344</ele>
        <time>2021-08-08T07:43:08Z</time>
      </trkpt>
      <trkpt lat="48.95476" lon="7.48312">
        <ele>344</ele>
        <time>2021-08-08T07:43:09Z</time>
      </trkpt>
      <trkpt lat="48.9548" lon="7.48316">
        <ele>344</ele>
        <time>2021-08-08T07:43:10Z</time>
      </trkpt>
      <trkpt lat="48.9548" lon="7.48316">
        <ele>344</ele>
        <time>2021-08-08T07:43:11Z</time>
      </trkpt>
      <trkpt lat="48.95487" lon="7.48324">
        <ele>344</ele>
        <time>2021-08-08T07:43:12Z</time>
      </trkpt>
      <trkpt lat="48.95491" lon="7.48327">
        <ele>344</ele>
        <time>2021-08-08T07:43:13Z</time>
      </trkpt>
      <trkpt lat="48.95491" lon="7.48327">
        <ele>344</ele>
        <time>2021-08-08T07:43:14Z</time>
      </trkpt>
      <trkpt lat="48.955" lon="7.48336">
        <ele>344</ele>
        <time>2021-08-08T07:43:15Z</time>
      </trkpt>
      <trkpt lat="48.955" lon="7.48336">
        <ele>344</ele>
        <time>2021-08-08T07:43:16Z</time>
      </trkpt>
      <trkpt lat="48.95507" lon="7.48344">
        <ele>344</ele>
        <time>2021-08-08T07:43:17Z</time>
      </trkpt>
      <trkpt lat="48.95507" lon="7.48344">
        <ele>344</ele>
        <time>2021-08-08T07:43:18Z</time>
      </trkpt>
      <trkpt lat="48.95514" lon="7.48351">
        <ele>344</ele>
        <time>2021-08-08T07:43:19Z</time>
      </trkpt>
      <trkpt lat="48.95518" lon="7.48355">
        <ele>344</ele>
        <time>2021-08-08T07:43:20Z</time>
      </trkpt>
      <trkpt lat="48.95523" lon="7.48361">
        <ele>344</ele>
        <time>2021-08-08T07:43:21Z</time>
      </trkpt>
      <trkpt lat="48.95523" lon="7.48361">
        <ele>345</ele>
        <time>2021-08-08T07:43:22Z</time>
      </trkpt>
      <trkpt lat="48.9553" lon="7.4837">
        <ele>345</ele>
        <time>2021-08-08T07:43:23Z</time>
      </trkpt>
      <trkpt lat="48.9553" lon="7.4837">
        <ele>345</ele>
        <time>2021-08-08T07:43:24Z</time>
      </trkpt>
      <trkpt lat="48.95539" lon="7.4838">
        <ele>345</ele>
        <time>2021-08-08T07:43:25Z</time>
      </trkpt>
      <trkpt lat="48.95539" lon="7.4838">
        <ele>345</ele>
        <time>2021-08-08T07:43:26Z</time>
      </trkpt>
      <trkpt lat="48.95548" lon="7.4839">
        <ele>345</ele>
        <time>2021-08-08T07:43:27Z</time>
      </trkpt>
      <trkpt lat="48.95548" lon="7.4839">
        <ele>345</ele>
        <time>2021-08-08T07:43:28Z</time>
      </trkpt>
      <trkpt lat="48.95556" lon="7.48401">
        <ele>345</ele>
        <time>2021-08-08T07:43:29Z</time>
      </trkpt>
      <trkpt lat="48.95556" lon="7.48401">
        <ele>345</ele>
        <time>2021-08-08T07:43:30Z</time>
      </trkpt>
      <trkpt lat="48.95563" lon="7.4841">
        <ele>345</ele>
        <time>2021-08-08T07:43:31Z</time>
      </trkpt>
      <trkpt lat="48.95563" lon="7.4841">
        <ele>345</ele>
        <time>2021-08-08T07:43:32Z</time>
      </trkpt>
      <trkpt lat="48.95571" lon="7.48417">
        <ele>345</ele>
        <time>2021-08-08T07:43:33Z</time>
      </trkpt>
      <trkpt lat="48.95571" lon="7.48417">
        <ele>345</ele>
        <time>2021-08-08T07:43:34Z</time>
      </trkpt>
      <trkpt lat="48.95581" lon="7.48424">
        <ele>345</ele>
        <time>2021-08-08T07:43:35Z</time>
      </trkpt>
      <trkpt lat="48.95581" lon="7.48424">
        <ele>345</ele>
        <time>2021-08-08T07:43:36Z</time>
      </trkpt>
      <trkpt lat="48.95592" lon="7.4843">
        <ele>345</ele>
        <time>2021-08-08T07:43:37Z</time>
      </trkpt>
      <trkpt lat="48.95592" lon="7.4843">
        <ele>345</ele>
        <time>2021-08-08T07:43:38Z</time>
      </trkpt>
      <trkpt lat="48.95602" lon="7.48431">
        <ele>345</ele>
        <time>2021-08-08T07:43:39Z</time>
      </trkpt>
      <trkpt lat="48.95607" lon="7.4843">
        <ele>345</ele>
        <time>2021-08-08T07:43:40Z</time>
      </trkpt>
      <trkpt lat="48.95607" lon="7.4843">
        <ele>345</ele>
        <time>2021-08-08T07:43:41Z</time>
      </trkpt>
      <trkpt lat="48.95615" lon="7.48425">
        <ele>345</ele>
        <time>2021-08-08T07:43:42Z</time>
      </trkpt>
      <trkpt lat="48.95619" lon="7.48421">
        <ele>344</ele>
        <time>2021-08-08T07:43:43Z</time>
      </trkpt>
      <trkpt lat="48.95619" lon="7.48421">
        <ele>344</ele>
        <time>2021-08-08T07:43:44Z</time>
      </trkpt>
      <trkpt lat="48.95629" lon="7.48413">
        <ele>344</ele>
        <time>2021-08-08T07:43:45Z</time>
      </trkpt>
      <trkpt lat="48.95629" lon="7.48413">
        <ele>344</ele>
        <time>2021-08-08T07:43:46Z</time>
      </trkpt>
      <trkpt lat="48.95638" lon="7.48405">
        <ele>343</ele>
        <time>2021-08-08T07:43:47Z</time>
      </trkpt>
      <trkpt lat="48.95638" lon="7.48405">
        <ele>343</ele>
        <time>2021-08-08T07:43:48Z</time>
      </trkpt>
      <trkpt lat="48.95648" lon="7.48397">
        <ele>342</ele>
        <time>2021-08-08T07:43:49Z</time>
      </trkpt>
      <trkpt lat="48.95648" lon="7.48397">
        <ele>342</ele>
        <time>2021-08-08T07:43:50Z</time>
      </trkpt>
      <trkpt lat="48.95657" lon="7.48389">
        <ele>342</ele>
        <time>2021-08-08T07:43:51Z</time>
      </trkpt>
      <trkpt lat="48.95657" lon="7.48389">
        <ele>342</ele>
        <time>2021-08-08T07:43:52Z</time>
      </trkpt>
      <trkpt lat="48.95668" lon="7.4838">
        <ele>341</ele>
        <time>2021-08-08T07:43:53Z</time>
      </trkpt>
      <trkpt lat="48.95671" lon="7.48375">
        <ele>341</ele>
        <time>2021-08-08T07:43:54Z</time>
      </trkpt>
      <trkpt lat="48.95676" lon="7.48369">
        <ele>340</ele>
        <time>2021-08-08T07:43:55Z</time>
      </trkpt>
      <trkpt lat="48.95676" lon="7.48369">
        <ele>340</ele>
        <time>2021-08-08T07:43:56Z</time>
      </trkpt>
      <trkpt lat="48.95689" lon="7.48349">
        <ele>339</ele>
        <time>2021-08-08T07:43:57Z</time>
      </trkpt>
      <trkpt lat="48.95689" lon="7.48349">
        <ele>339</ele>
        <time>2021-08-08T07:43:58Z</time>
      </trkpt>
      <trkpt lat="48.95701" lon="7.48327">
        <ele>338</ele>
        <time>2021-08-08T07:43:59Z</time>
      </trkpt>
      <trkpt lat="48.95701" lon="7.48327">
        <ele>338</ele>
        <time>2021-08-08T07:44:00Z</time>
      </trkpt>
      <trkpt lat="48.95714" lon="7.48305">
        <ele>336</ele>
        <time>2021-08-08T07:44:01Z</time>
      </trkpt>
      <trkpt lat="48.95714" lon="7.48305">
        <ele>336</ele>
        <time>2021-08-08T07:44:02Z</time>
      </trkpt>
      <trkpt lat="48.95728" lon="7.48281">
        <ele>335</ele>
        <time>2021-08-08T07:44:03Z</time>
      </trkpt>
      <trkpt lat="48.95728" lon="7.48281">
        <ele>335</ele>
        <time>2021-08-08T07:44:04Z</time>
      </trkpt>
      <trkpt lat="48.95738" lon="7.48259">
        <ele>334</ele>
        <time>2021-08-08T07:44:05Z</time>
      </trkpt>
      <trkpt lat="48.95738" lon="7.48259">
        <ele>334</ele>
        <time>2021-08-08T07:44:06Z</time>
      </trkpt>
      <trkpt lat="48.95744" lon="7.4824">
        <ele>334</ele>
        <time>2021-08-08T07:44:07Z</time>
      </trkpt>
      <trkpt lat="48.95744" lon="7.4824">
        <ele>334</ele>
        <time>2021-08-08T07:44:08Z</time>
      </trkpt>
      <trkpt lat="48.95751" lon="7.48224">
        <ele>334</ele>
        <time>2021-08-08T07:44:09Z</time>
      </trkpt>
      <trkpt lat="48.95754" lon="7.48217">
        <ele>333</ele>
        <time>2021-08-08T07:44:10Z</time>
      </trkpt>
      <trkpt lat="48.95754" lon="7.48217">
        <ele>333</ele>
        <time>2021-08-08T07:44:11Z</time>
      </trkpt>
      <trkpt lat="48.95761" lon="7.48207">
        <ele>333</ele>
        <time>2021-08-08T07:44:12Z</time>
      </trkpt>
      <trkpt lat="48.95761" lon="7.48207">
        <ele>333</ele>
        <time>2021-08-08T07:44:13Z</time>
      </trkpt>
      <trkpt lat="48.95768" lon="7.48199">
        <ele>333</ele>
        <time>2021-08-08T07:44:14Z</time>
      </trkpt>
      <trkpt lat="48.95773" lon="7.48194">
        <ele>333</ele>
        <time>2021-08-08T07:44:15Z</time>
      </trkpt>
      <trkpt lat="48.95773" lon="7.48194">
        <ele>333</ele>
        <time>2021-08-08T07:44:16Z</time>
      </trkpt>
      <trkpt lat="48.95782" lon="7.48187">
        <ele>333</ele>
        <time>2021-08-08T07:44:17Z</time>
      </trkpt>
      <trkpt lat="48.95782" lon="7.48187">
        <ele>333</ele>
        <time>2021-08-08T07:44:18Z</time>
      </trkpt>
      <trkpt lat="48.95791" lon="7.4818">
        <ele>333</ele>
        <time>2021-08-08T07:44:19Z</time>
      </trkpt>
      <trkpt lat="48.95796" lon="7.48176">
        <ele>333</ele>
        <time>2021-08-08T07:44:20Z</time>
      </trkpt>
      <trkpt lat="48.95801" lon="7.48173">
        <ele>333</ele>
        <time>2021-08-08T07:44:21Z</time>
      </trkpt>
      <trkpt lat="48.95801" lon="7.48173">
        <ele>333</ele>
        <time>2021-08-08T07:44:22Z</time>
      </trkpt>
      <trkpt lat="48.95812" lon="7.48166">
        <ele>333</ele>
        <time>2021-08-08T07:44:23Z</time>
      </trkpt>
      <trkpt lat="48.95818" lon="7.48163">
        <ele>333</ele>
        <time>2021-08-08T07:44:24Z</time>
      </trkpt>
      <trkpt lat="48.95818" lon="7.48163">
        <ele>333</ele>
        <time>2021-08-08T07:44:25Z</time>
      </trkpt>
      <trkpt lat="48.95826" lon="7.48157">
        <ele>333</ele>
        <time>2021-08-08T07:44:26Z</time>
      </trkpt>
      <trkpt lat="48.9583" lon="7.48153">
        <ele>333</ele>
        <time>2021-08-08T07:44:27Z</time>
      </trkpt>
      <trkpt lat="48.9583" lon="7.48153">
        <ele>333</ele>
        <time>2021-08-08T07:44:28Z</time>
      </trkpt>
      <trkpt lat="48.95838" lon="7.48147">
        <ele>333</ele>
        <time>2021-08-08T07:44:29Z</time>
      </trkpt>
      <trkpt lat="48.95838" lon="7.48147">
        <ele>333</ele>
        <time>2021-08-08T07:44:30Z</time>
      </trkpt>
      <trkpt lat="48.95845" lon="7.48139">
        <ele>333</ele>
        <time>2021-08-08T07:44:31Z</time>
      </trkpt>
      <trkpt lat="48.95845" lon="7.48139">
        <ele>333</ele>
        <time>2021-08-08T07:44:32Z</time>
      </trkpt>
      <trkpt lat="48.95851" lon="7.48129">
        <ele>333</ele>
        <time>2021-08-08T07:44:33Z</time>
      </trkpt>
      <trkpt lat="48.95851" lon="7.48129">
        <ele>333</ele>
        <time>2021-08-08T07:44:34Z</time>
      </trkpt>
      <trkpt lat="48.95857" lon="7.48121">
        <ele>333</ele>
        <time>2021-08-08T07:44:35Z</time>
      </trkpt>
      <trkpt lat="48.9586" lon="7.48117">
        <ele>333</ele>
        <time>2021-08-08T07:44:36Z</time>
      </trkpt>
      <trkpt lat="48.9586" lon="7.48117">
        <ele>333</ele>
        <time>2021-08-08T07:44:37Z</time>
      </trkpt>
      <trkpt lat="48.95867" lon="7.48106">
        <ele>333</ele>
        <time>2021-08-08T07:44:38Z</time>
      </trkpt>
      <trkpt lat="48.95871" lon="7.48101">
        <ele>333</ele>
        <time>2021-08-08T07:44:39Z</time>
      </trkpt>
      <trkpt lat="48.95871" lon="7.48101">
        <ele>332</ele>
        <time>2021-08-08T07:44:40Z</time>
      </trkpt>
      <trkpt lat="48.95881" lon="7.48092">
        <ele>332</ele>
        <time>2021-08-08T07:44:41Z</time>
      </trkpt>
      <trkpt lat="48.95881" lon="7.48092">
        <ele>331</ele>
        <time>2021-08-08T07:44:42Z</time>
      </trkpt>
      <trkpt lat="48.95892" lon="7.48086">
        <ele>331</ele>
        <time>2021-08-08T07:44:43Z</time>
      </trkpt>
      <trkpt lat="48.95892" lon="7.48086">
        <ele>331</ele>
        <time>2021-08-08T07:44:44Z</time>
      </trkpt>
      <trkpt lat="48.95906" lon="7.4808">
        <ele>331</ele>
        <time>2021-08-08T07:44:45Z</time>
      </trkpt>
      <trkpt lat="48.95912" lon="7.4808">
        <ele>331</ele>
        <time>2021-08-08T07:44:46Z</time>
      </trkpt>
      <trkpt lat="48.95912" lon="7.4808">
        <ele>331</ele>
        <time>2021-08-08T07:44:47Z</time>
      </trkpt>
      <trkpt lat="48.95923" lon="7.48079">
        <ele>330</ele>
        <time>2021-08-08T07:44:48Z</time>
      </trkpt>
      <trkpt lat="48.95928" lon="7.48079">
        <ele>330</ele>
        <time>2021-08-08T07:44:49Z</time>
      </trkpt>
      <trkpt lat="48.95928" lon="7.48079">
        <ele>330</ele>
        <time>2021-08-08T07:44:50Z</time>
      </trkpt>
      <trkpt lat="48.95938" lon="7.48079">
        <ele>330</ele>
        <time>2021-08-08T07:44:51Z</time>
      </trkpt>
      <trkpt lat="48.95938" lon="7.48079">
        <ele>330</ele>
        <time>2021-08-08T07:44:52Z</time>
      </trkpt>
      <trkpt lat="48.95949" lon="7.48078">
        <ele>330</ele>
        <time>2021-08-08T07:44:53Z</time>
      </trkpt>
      <trkpt lat="48.95949" lon="7.48078">
        <ele>330</ele>
        <time>2021-08-08T07:44:54Z</time>
      </trkpt>
      <trkpt lat="48.95963" lon="7.48071">
        <ele>330</ele>
        <time>2021-08-08T07:44:55Z</time>
      </trkpt>
      <trkpt lat="48.95963" lon="7.48071">
        <ele>330</ele>
        <time>2021-08-08T07:44:56Z</time>
      </trkpt>
      <trkpt lat="48.95978" lon="7.48071">
        <ele>330</ele>
        <time>2021-08-08T07:44:57Z</time>
      </trkpt>
      <trkpt lat="48.95978" lon="7.48071">
        <ele>330</ele>
        <time>2021-08-08T07:44:58Z</time>
      </trkpt>
      <trkpt lat="48.9599" lon="7.48074">
        <ele>330</ele>
        <time>2021-08-08T07:44:59Z</time>
      </trkpt>
      <trkpt lat="48.95996" lon="7.48075">
        <ele>330</ele>
        <time>2021-08-08T07:45:00Z</time>
      </trkpt>
      <trkpt lat="48.96002" lon="7.48077">
        <ele>330</ele>
        <time>2021-08-08T07:45:01Z</time>
      </trkpt>
      <trkpt lat="48.96002" lon="7.48077">
        <ele>330</ele>
        <time>2021-08-08T07:45:02Z</time>
      </trkpt>
      <trkpt lat="48.96011" lon="7.4808">
        <ele>330</ele>
        <time>2021-08-08T07:45:03Z</time>
      </trkpt>
      <trkpt lat="48.96011" lon="7.4808">
        <ele>330</ele>
        <time>2021-08-08T07:45:04Z</time>
      </trkpt>
      <trkpt lat="48.9602" lon="7.48078">
        <ele>330</ele>
        <time>2021-08-08T07:45:05Z</time>
      </trkpt>
      <trkpt lat="48.9602" lon="7.48078">
        <ele>330</ele>
        <time>2021-08-08T07:45:06Z</time>
      </trkpt>
      <trkpt lat="48.96028" lon="7.48072">
        <ele>330</ele>
        <time>2021-08-08T07:45:07Z</time>
      </trkpt>
      <trkpt lat="48.96028" lon="7.48072">
        <ele>330</ele>
        <time>2021-08-08T07:45:08Z</time>
      </trkpt>
      <trkpt lat="48.96036" lon="7.48067">
        <ele>330</ele>
        <time>2021-08-08T07:45:09Z</time>
      </trkpt>
      <trkpt lat="48.96036" lon="7.48067">
        <ele>330</ele>
        <time>2021-08-08T07:45:10Z</time>
      </trkpt>
      <trkpt lat="48.96043" lon="7.4806">
        <ele>329</ele>
        <time>2021-08-08T07:45:11Z</time>
      </trkpt>
      <trkpt lat="48.96043" lon="7.4806">
        <ele>329</ele>
        <time>2021-08-08T07:45:12Z</time>
      </trkpt>
      <trkpt lat="48.96051" lon="7.48053">
        <ele>329</ele>
        <time>2021-08-08T07:45:13Z</time>
      </trkpt>
      <trkpt lat="48.96051" lon="7.48053">
        <ele>329</ele>
        <time>2021-08-08T07:45:14Z</time>
      </trkpt>
      <trkpt lat="48.9606" lon="7.48045">
        <ele>329</ele>
        <time>2021-08-08T07:45:15Z</time>
      </trkpt>
      <trkpt lat="48.9606" lon="7.48045">
        <ele>329</ele>
        <time>2021-08-08T07:45:16Z</time>
      </trkpt>
      <trkpt lat="48.96068" lon="7.48039">
        <ele>329</ele>
        <time>2021-08-08T07:45:17Z</time>
      </trkpt>
      <trkpt lat="48.96072" lon="7.48035">
        <ele>330</ele>
        <time>2021-08-08T07:45:18Z</time>
      </trkpt>
      <trkpt lat="48.96076" lon="7.48031">
        <ele>330</ele>
        <time>2021-08-08T07:45:19Z</time>
      </trkpt>
      <trkpt lat="48.96076" lon="7.48031">
        <ele>330</ele>
        <time>2021-08-08T07:45:20Z</time>
      </trkpt>
      <trkpt lat="48.96082" lon="7.48025">
        <ele>330</ele>
        <time>2021-08-08T07:45:21Z</time>
      </trkpt>
      <trkpt lat="48.96082" lon="7.48025">
        <ele>330</ele>
        <time>2021-08-08T07:45:22Z</time>
      </trkpt>
      <trkpt lat="48.96089" lon="7.48019">
        <ele>330</ele>
        <time>2021-08-08T07:45:23Z</time>
      </trkpt>
      <trkpt lat="48.96092" lon="7.48016">
        <ele>330</ele>
        <time>2021-08-08T07:45:24Z</time>
      </trkpt>
      <trkpt lat="48.96099" lon="7.48011">
        <ele>331</ele>
        <time>2021-08-08T07:45:25Z</time>
      </trkpt>
      <trkpt lat="48.96099" lon="7.48011">
        <ele>331</ele>
        <time>2021-08-08T07:45:26Z</time>
      </trkpt>
      <trkpt lat="48.96108" lon="7.48006">
        <ele>331</ele>
        <time>2021-08-08T07:45:27Z</time>
      </trkpt>
      <trkpt lat="48.96108" lon="7.48006">
        <ele>331</ele>
        <time>2021-08-08T07:45:28Z</time>
      </trkpt>
      <trkpt lat="48.96116" lon="7.47999">
        <ele>331</ele>
        <time>2021-08-08T07:45:29Z</time>
      </trkpt>
      <trkpt lat="48.96116" lon="7.47999">
        <ele>331</ele>
        <time>2021-08-08T07:45:30Z</time>
      </trkpt>
      <trkpt lat="48.96123" lon="7.47991">
        <ele>331</ele>
        <time>2021-08-08T07:45:31Z</time>
      </trkpt>
      <trkpt lat="48.96123" lon="7.47991">
        <ele>331</ele>
        <time>2021-08-08T07:45:32Z</time>
      </trkpt>
      <trkpt lat="48.96129" lon="7.47981">
        <ele>331</ele>
        <time>2021-08-08T07:45:33Z</time>
      </trkpt>
      <trkpt lat="48.96129" lon="7.47981">
        <ele>331</ele>
        <time>2021-08-08T07:45:34Z</time>
      </trkpt>
      <trkpt lat="48.96137" lon="7.47969">
        <ele>331</ele>
        <time>2021-08-08T07:45:35Z</time>
      </trkpt>
      <trkpt lat="48.96137" lon="7.47969">
        <ele>331</ele>
        <time>2021-08-08T07:45:36Z</time>
      </trkpt>
      <trkpt lat="48.96143" lon="7.47955">
        <ele>331</ele>
        <time>2021-08-08T07:45:37Z</time>
      </trkpt>
      <trkpt lat="48.96147" lon="7.47948">
        <ele>331</ele>
        <time>2021-08-08T07:45:38Z</time>
      </trkpt>
      <trkpt lat="48.96147" lon="7.47948">
        <ele>331</ele>
        <time>2021-08-08T07:45:39Z</time>
      </trkpt>
      <trkpt lat="48.96152" lon="7.47935">
        <ele>332</ele>
        <time>2021-08-08T07:45:40Z</time>
      </trkpt>
      <trkpt lat="48.96152" lon="7.47935">
        <ele>332</ele>
        <time>2021-08-08T07:45:41Z</time>
      </trkpt>
      <trkpt lat="48.96156" lon="7.47923">
        <ele>332</ele>
        <time>2021-08-08T07:45:42Z</time>
      </trkpt>
      <trkpt lat="48.96157" lon="7.47916">
        <ele>332</ele>
        <time>2021-08-08T07:45:43Z</time>
      </trkpt>
      <trkpt lat="48.96157" lon="7.47916">
        <ele>332</ele>
        <time>2021-08-08T07:45:44Z</time>
      </trkpt>
      <trkpt lat="48.96161" lon="7.47902">
        <ele>332</ele>
        <time>2021-08-08T07:45:45Z</time>
      </trkpt>
      <trkpt lat="48.96161" lon="7.47902">
        <ele>332</ele>
        <time>2021-08-08T07:45:46Z</time>
      </trkpt>
      <trkpt lat="48.96164" lon="7.47887">
        <ele>332</ele>
        <time>2021-08-08T07:45:47Z</time>
      </trkpt>
      <trkpt lat="48.96164" lon="7.47887">
        <ele>332</ele>
        <time>2021-08-08T07:45:48Z</time>
      </trkpt>
      <trkpt lat="48.96168" lon="7.47874">
        <ele>332</ele>
        <time>2021-08-08T07:45:49Z</time>
      </trkpt>
      <trkpt lat="48.96168" lon="7.47874">
        <ele>332</ele>
        <time>2021-08-08T07:45:50Z</time>
      </trkpt>
      <trkpt lat="48.96172" lon="7.47861">
        <ele>332</ele>
        <time>2021-08-08T07:45:51Z</time>
      </trkpt>
      <trkpt lat="48.96172" lon="7.47861">
        <ele>332</ele>
        <time>2021-08-08T07:45:52Z</time>
      </trkpt>
      <trkpt lat="48.96177" lon="7.47846">
        <ele>331</ele>
        <time>2021-08-08T07:45:53Z</time>
      </trkpt>
      <trkpt lat="48.96179" lon="7.47839">
        <ele>331</ele>
        <time>2021-08-08T07:45:54Z</time>
      </trkpt>
      <trkpt lat="48.96181" lon="7.47833">
        <ele>331</ele>
        <time>2021-08-08T07:45:55Z</time>
      </trkpt>
      <trkpt lat="48.96181" lon="7.47833">
        <ele>331</ele>
        <time>2021-08-08T07:45:56Z</time>
      </trkpt>
      <trkpt lat="48.96187" lon="7.47816">
        <ele>331</ele>
        <time>2021-08-08T07:45:57Z</time>
      </trkpt>
      <trkpt lat="48.96187" lon="7.47816">
        <ele>331</ele>
        <time>2021-08-08T07:45:58Z</time>
      </trkpt>
      <trkpt lat="48.96189" lon="7.47801">
        <ele>330</ele>
        <time>2021-08-08T07:45:59Z</time>
      </trkpt>
      <trkpt lat="48.96189" lon="7.47801">
        <ele>330</ele>
        <time>2021-08-08T07:46:00Z</time>
      </trkpt>
      <trkpt lat="48.96192" lon="7.47787">
        <ele>330</ele>
        <time>2021-08-08T07:46:01Z</time>
      </trkpt>
      <trkpt lat="48.96192" lon="7.47787">
        <ele>330</ele>
        <time>2021-08-08T07:46:02Z</time>
      </trkpt>
      <trkpt lat="48.96195" lon="7.47772">
        <ele>330</ele>
        <time>2021-08-08T07:46:03Z</time>
      </trkpt>
      <trkpt lat="48.96195" lon="7.47772">
        <ele>330</ele>
        <time>2021-08-08T07:46:04Z</time>
      </trkpt>
      <trkpt lat="48.96199" lon="7.47759">
        <ele>330</ele>
        <time>2021-08-08T07:46:05Z</time>
      </trkpt>
      <trkpt lat="48.96199" lon="7.47759">
        <ele>330</ele>
        <time>2021-08-08T07:46:06Z</time>
      </trkpt>
      <trkpt lat="48.96202" lon="7.47746">
        <ele>330</ele>
        <time>2021-08-08T07:46:07Z</time>
      </trkpt>
      <trkpt lat="48.96202" lon="7.47746">
        <ele>330</ele>
        <time>2021-08-08T07:46:08Z</time>
      </trkpt>
      <trkpt lat="48.96206" lon="7.47732">
        <ele>330</ele>
        <time>2021-08-08T07:46:09Z</time>
      </trkpt>
      <trkpt lat="48.96207" lon="7.47726">
        <ele>330</ele>
        <time>2021-08-08T07:46:10Z</time>
      </trkpt>
      <trkpt lat="48.96207" lon="7.47726">
        <ele>331</ele>
        <time>2021-08-08T07:46:11Z</time>
      </trkpt>
      <trkpt lat="48.96211" lon="7.47715">
        <ele>331</ele>
        <time>2021-08-08T07:46:12Z</time>
      </trkpt>
      <trkpt lat="48.96211" lon="7.47715">
        <ele>331</ele>
        <time>2021-08-08T07:46:13Z</time>
      </trkpt>
      <trkpt lat="48.96214" lon="7.47702">
        <ele>331</ele>
        <time>2021-08-08T07:46:14Z</time>
      </trkpt>
      <trkpt lat="48.96215" lon="7.47695">
        <ele>331</ele>
        <time>2021-08-08T07:46:15Z</time>
      </trkpt>
      <trkpt lat="48.96216" lon="7.47686">
        <ele>332</ele>
        <time>2021-08-08T07:46:16Z</time>
      </trkpt>
      <trkpt lat="48.96216" lon="7.47686">
        <ele>332</ele>
        <time>2021-08-08T07:46:17Z</time>
      </trkpt>
      <trkpt lat="48.96218" lon="7.47673">
        <ele>332</ele>
        <time>2021-08-08T07:46:18Z</time>
      </trkpt>
      <trkpt lat="48.96219" lon="7.47666">
        <ele>332</ele>
        <time>2021-08-08T07:46:19Z</time>
      </trkpt>
      <trkpt lat="48.96219" lon="7.47666">
        <ele>332</ele>
        <time>2021-08-08T07:46:20Z</time>
      </trkpt>
      <trkpt lat="48.96221" lon="7.47652">
        <ele>332</ele>
        <time>2021-08-08T07:46:21Z</time>
      </trkpt>
      <trkpt lat="48.96221" lon="7.47646">
        <ele>332</ele>
        <time>2021-08-08T07:46:22Z</time>
      </trkpt>
      <trkpt lat="48.96221" lon="7.47646">
        <ele>333</ele>
        <time>2021-08-08T07:46:23Z</time>
      </trkpt>
      <trkpt lat="48.96223" lon="7.47634">
        <ele>333</ele>
        <time>2021-08-08T07:46:24Z</time>
      </trkpt>
      <trkpt lat="48.96223" lon="7.47627">
        <ele>333</ele>
        <time>2021-08-08T07:46:25Z</time>
      </trkpt>
      <trkpt lat="48.96223" lon="7.47627">
        <ele>334</ele>
        <time>2021-08-08T07:46:26Z</time>
      </trkpt>
      <trkpt lat="48.96226" lon="7.47616">
        <ele>334</ele>
        <time>2021-08-08T07:46:27Z</time>
      </trkpt>
      <trkpt lat="48.96226" lon="7.47616">
        <ele>334</ele>
        <time>2021-08-08T07:46:28Z</time>
      </trkpt>
      <trkpt lat="48.96228" lon="7.47606">
        <ele>334</ele>
        <time>2021-08-08T07:46:29Z</time>
      </trkpt>
      <trkpt lat="48.96228" lon="7.476">
        <ele>335</ele>
        <time>2021-08-08T07:46:30Z</time>
      </trkpt>
      <trkpt lat="48.96228" lon="7.476">
        <ele>335</ele>
        <time>2021-08-08T07:46:31Z</time>
      </trkpt>
      <trkpt lat="48.96229" lon="7.47589">
        <ele>335</ele>
        <time>2021-08-08T07:46:32Z</time>
      </trkpt>
      <trkpt lat="48.96229" lon="7.47589">
        <ele>335</ele>
        <time>2021-08-08T07:46:33Z</time>
      </trkpt>
      <trkpt lat="48.96229" lon="7.47576">
        <ele>335</ele>
        <time>2021-08-08T07:46:34Z</time>
      </trkpt>
      <trkpt lat="48.96229" lon="7.47576">
        <ele>335</ele>
        <time>2021-08-08T07:46:35Z</time>
      </trkpt>
      <trkpt lat="48.9623" lon="7.47564">
        <ele>336</ele>
        <time>2021-08-08T07:46:36Z</time>
      </trkpt>
      <trkpt lat="48.9623" lon="7.47564">
        <ele>336</ele>
        <time>2021-08-08T07:46:37Z</time>
      </trkpt>
      <trkpt lat="48.96229" lon="7.47555">
        <ele>336</ele>
        <time>2021-08-08T07:46:38Z</time>
      </trkpt>
      <trkpt lat="48.96228" lon="7.47551">
        <ele>336</ele>
        <time>2021-08-08T07:46:39Z</time>
      </trkpt>
      <trkpt lat="48.96228" lon="7.47551">
        <ele>337</ele>
        <time>2021-08-08T07:46:40Z</time>
      </trkpt>
      <trkpt lat="48.96228" lon="7.47541">
        <ele>337</ele>
        <time>2021-08-08T07:46:41Z</time>
      </trkpt>
      <trkpt lat="48.96227" lon="7.47537">
        <ele>337</ele>
        <time>2021-08-08T07:46:42Z</time>
      </trkpt>
      <trkpt lat="48.96227" lon="7.47537">
        <ele>337</ele>
        <time>2021-08-08T07:46:43Z</time>
      </trkpt>
      <trkpt lat="48.96227" lon="7.47528">
        <ele>337</ele>
        <time>2021-08-08T07:46:44Z</time>
      </trkpt>
      <trkpt lat="48.96226" lon="7.47523">
        <ele>337</ele>
        <time>2021-08-08T07:46:45Z</time>
      </trkpt>
      <trkpt lat="48.96225" lon="7.47518">
        <ele>338</ele>
        <time>2021-08-08T07:46:46Z</time>
      </trkpt>
      <trkpt lat="48.96225" lon="7.47518">
        <ele>338</ele>
        <time>2021-08-08T07:46:47Z</time>
      </trkpt>
      <trkpt lat="48.96224" lon="7.47508">
        <ele>338</ele>
        <time>2021-08-08T07:46:48Z</time>
      </trkpt>
      <trkpt lat="48.96223" lon="7.47502">
        <ele>338</ele>
        <time>2021-08-08T07:46:49Z</time>
      </trkpt>
      <trkpt lat="48.96223" lon="7.47502">
        <ele>338</ele>
        <time>2021-08-08T07:46:50Z</time>
      </trkpt>
      <trkpt lat="48.96222" lon="7.47491">
        <ele>338</ele>
        <time>2021-08-08T07:46:51Z</time>
      </trkpt>
      <trkpt lat="48.96222" lon="7.47491">
        <ele>338</ele>
        <time>2021-08-08T07:46:52Z</time>
      </trkpt>
      <trkpt lat="48.9622" lon="7.47481">
        <ele>338</ele>
        <time>2021-08-08T07:46:53Z</time>
      </trkpt>
      <trkpt lat="48.9622" lon="7.47481">
        <ele>338</ele>
        <time>2021-08-08T07:46:54Z</time>
      </trkpt>
      <trkpt lat="48.96219" lon="7.4747">
        <ele>338</ele>
        <time>2021-08-08T07:46:55Z</time>
      </trkpt>
      <trkpt lat="48.96219" lon="7.4747">
        <ele>338</ele>
        <time>2021-08-08T07:46:56Z</time>
      </trkpt>
      <trkpt lat="48.96216" lon="7.47461">
        <ele>338</ele>
        <time>2021-08-08T07:46:57Z</time>
      </trkpt>
      <trkpt lat="48.96216" lon="7.47461">
        <ele>338</ele>
        <time>2021-08-08T07:46:58Z</time>
      </trkpt>
      <trkpt lat="48.96216" lon="7.47447">
        <ele>338</ele>
        <time>2021-08-08T07:46:59Z</time>
      </trkpt>
      <trkpt lat="48.96215" lon="7.47441">
        <ele>338</ele>
        <time>2021-08-08T07:47:00Z</time>
      </trkpt>
      <trkpt lat="48.96215" lon="7.47441">
        <ele>338</ele>
        <time>2021-08-08T07:47:01Z</time>
      </trkpt>
      <trkpt lat="48.96213" lon="7.4743">
        <ele>338</ele>
        <time>2021-08-08T07:47:02Z</time>
      </trkpt>
      <trkpt lat="48.96213" lon="7.4743">
        <ele>339</ele>
        <time>2021-08-08T07:47:03Z</time>
      </trkpt>
      <trkpt lat="48.96211" lon="7.47418">
        <ele>339</ele>
        <time>2021-08-08T07:47:04Z</time>
      </trkpt>
      <trkpt lat="48.9621" lon="7.47412">
        <ele>339</ele>
        <time>2021-08-08T07:47:05Z</time>
      </trkpt>
      <trkpt lat="48.9621" lon="7.47412">
        <ele>339</ele>
        <time>2021-08-08T07:47:06Z</time>
      </trkpt>
      <trkpt lat="48.96207" lon="7.47399">
        <ele>339</ele>
        <time>2021-08-08T07:47:07Z</time>
      </trkpt>
      <trkpt lat="48.96207" lon="7.47399">
        <ele>339</ele>
        <time>2021-08-08T07:47:08Z</time>
      </trkpt>
      <trkpt lat="48.96205" lon="7.47385">
        <ele>339</ele>
        <time>2021-08-08T07:47:09Z</time>
      </trkpt>
      <trkpt lat="48.96204" lon="7.47379">
        <ele>339</ele>
        <time>2021-08-08T07:47:10Z</time>
      </trkpt>
      <trkpt lat="48.96204" lon="7.47379">
        <ele>339</ele>
        <time>2021-08-08T07:47:11Z</time>
      </trkpt>
      <trkpt lat="48.96201" lon="7.47367">
        <ele>339</ele>
        <time>2021-08-08T07:47:12Z</time>
      </trkpt>
      <trkpt lat="48.96201" lon="7.47367">
        <ele>339</ele>
        <time>2021-08-08T07:47:13Z</time>
      </trkpt>
      <trkpt lat="48.96197" lon="7.47355">
        <ele>339</ele>
        <time>2021-08-08T07:47:14Z</time>
      </trkpt>
      <trkpt lat="48.96196" lon="7.4735">
        <ele>339</ele>
        <time>2021-08-08T07:47:15Z</time>
      </trkpt>
      <trkpt lat="48.96194" lon="7.47344">
        <ele>339</ele>
        <time>2021-08-08T07:47:16Z</time>
      </trkpt>
      <trkpt lat="48.96194" lon="7.47344">
        <ele>339</ele>
        <time>2021-08-08T07:47:17Z</time>
      </trkpt>
      <trkpt lat="48.96192" lon="7.47332">
        <ele>339</ele>
        <time>2021-08-08T07:47:18Z</time>
      </trkpt>
      <trkpt lat="48.9619" lon="7.47326">
        <ele>339</ele>
        <time>2021-08-08T07:47:19Z</time>
      </trkpt>
      <trkpt lat="48.96189" lon="7.4732">
        <ele>339</ele>
        <time>2021-08-08T07:47:20Z</time>
      </trkpt>
      <trkpt lat="48.96189" lon="7.4732">
        <ele>339</ele>
        <time>2021-08-08T07:47:21Z</time>
      </trkpt>
      <trkpt lat="48.96188" lon="7.47307">
        <ele>339</ele>
        <time>2021-08-08T07:47:22Z</time>
      </trkpt>
      <trkpt lat="48.96188" lon="7.47307">
        <ele>339</ele>
        <time>2021-08-08T07:47:23Z</time>
      </trkpt>
      <trkpt lat="48.96187" lon="7.47294">
        <ele>339</ele>
        <time>2021-08-08T07:47:24Z</time>
      </trkpt>
      <trkpt lat="48.96186" lon="7.47288">
        <ele>339</ele>
        <time>2021-08-08T07:47:25Z</time>
      </trkpt>
      <trkpt lat="48.96186" lon="7.47288">
        <ele>339</ele>
        <time>2021-08-08T07:47:26Z</time>
      </trkpt>
      <trkpt lat="48.96185" lon="7.47277">
        <ele>339</ele>
        <time>2021-08-08T07:47:27Z</time>
      </trkpt>
      <trkpt lat="48.96185" lon="7.47277">
        <ele>339</ele>
        <time>2021-08-08T07:47:28Z</time>
      </trkpt>
      <trkpt lat="48.96184" lon="7.47264">
        <ele>340</ele>
        <time>2021-08-08T07:47:29Z</time>
      </trkpt>
      <trkpt lat="48.96183" lon="7.47257">
        <ele>340</ele>
        <time>2021-08-08T07:47:30Z</time>
      </trkpt>
      <trkpt lat="48.96183" lon="7.47257">
        <ele>340</ele>
        <time>2021-08-08T07:47:31Z</time>
      </trkpt>
      <trkpt lat="48.96183" lon="7.47245">
        <ele>340</ele>
        <time>2021-08-08T07:47:32Z</time>
      </trkpt>
      <trkpt lat="48.96183" lon="7.47245">
        <ele>341</ele>
        <time>2021-08-08T07:47:33Z</time>
      </trkpt>
      <trkpt lat="48.96184" lon="7.47233">
        <ele>341</ele>
        <time>2021-08-08T07:47:34Z</time>
      </trkpt>
      <trkpt lat="48.96183" lon="7.47227">
        <ele>341</ele>
        <time>2021-08-08T07:47:35Z</time>
      </trkpt>
      <trkpt lat="48.96182" lon="7.47221">
        <ele>341</ele>
        <time>2021-08-08T07:47:36Z</time>
      </trkpt>
      <trkpt lat="48.96182" lon="7.47221">
        <ele>341</ele>
        <time>2021-08-08T07:47:37Z</time>
      </trkpt>
      <trkpt lat="48.9618" lon="7.47209">
        <ele>341</ele>
        <time>2021-08-08T07:47:38Z</time>
      </trkpt>
      <trkpt lat="48.96178" lon="7.47203">
        <ele>341</ele>
        <time>2021-08-08T07:47:39Z</time>
      </trkpt>
      <trkpt lat="48.96177" lon="7.47198">
        <ele>341</ele>
        <time>2021-08-08T07:47:40Z</time>
      </trkpt>
      <trkpt lat="48.96177" lon="7.47198">
        <ele>341</ele>
        <time>2021-08-08T07:47:41Z</time>
      </trkpt>
      <trkpt lat="48.96175" lon="7.47185">
        <ele>341</ele>
        <time>2021-08-08T07:47:42Z</time>
      </trkpt>
      <trkpt lat="48.96175" lon="7.47185">
        <ele>341</ele>
        <time>2021-08-08T07:47:43Z</time>
      </trkpt>
      <trkpt lat="48.96174" lon="7.47175">
        <ele>341</ele>
        <time>2021-08-08T07:47:44Z</time>
      </trkpt>
      <trkpt lat="48.96173" lon="7.47168">
        <ele>342</ele>
        <time>2021-08-08T07:47:45Z</time>
      </trkpt>
      <trkpt lat="48.96173" lon="7.47168">
        <ele>342</ele>
        <time>2021-08-08T07:47:46Z</time>
      </trkpt>
      <trkpt lat="48.96172" lon="7.47155">
        <ele>342</ele>
        <time>2021-08-08T07:47:47Z</time>
      </trkpt>
      <trkpt lat="48.96172" lon="7.47155">
        <ele>342</ele>
        <time>2021-08-08T07:47:48Z</time>
      </trkpt>
      <trkpt lat="48.96171" lon="7.47142">
        <ele>342</ele>
        <time>2021-08-08T07:47:49Z</time>
      </trkpt>
      <trkpt lat="48.96171" lon="7.47142">
        <ele>342</ele>
        <time>2021-08-08T07:47:50Z</time>
      </trkpt>
      <trkpt lat="48.9617" lon="7.47128">
        <ele>342</ele>
        <time>2021-08-08T07:47:51Z</time>
      </trkpt>
      <trkpt lat="48.96169" lon="7.47121">
        <ele>342</ele>
        <time>2021-08-08T07:47:52Z</time>
      </trkpt>
      <trkpt lat="48.96169" lon="7.47121">
        <ele>342</ele>
        <time>2021-08-08T07:47:53Z</time>
      </trkpt>
      <trkpt lat="48.96167" lon="7.47108">
        <ele>342</ele>
        <time>2021-08-08T07:47:54Z</time>
      </trkpt>
      <trkpt lat="48.96166" lon="7.47101">
        <ele>342</ele>
        <time>2021-08-08T07:47:55Z</time>
      </trkpt>
      <trkpt lat="48.96166" lon="7.47101">
        <ele>342</ele>
        <time>2021-08-08T07:47:56Z</time>
      </trkpt>
      <trkpt lat="48.96165" lon="7.47087">
        <ele>342</ele>
        <time>2021-08-08T07:47:57Z</time>
      </trkpt>
      <trkpt lat="48.96165" lon="7.47087">
        <ele>342</ele>
        <time>2021-08-08T07:47:58Z</time>
      </trkpt>
      <trkpt lat="48.96163" lon="7.47075">
        <ele>342</ele>
        <time>2021-08-08T07:47:59Z</time>
      </trkpt>
      <trkpt lat="48.96163" lon="7.47075">
        <ele>342</ele>
        <time>2021-08-08T07:48:00Z</time>
      </trkpt>
      <trkpt lat="48.96163" lon="7.47062">
        <ele>342</ele>
        <time>2021-08-08T07:48:01Z</time>
      </trkpt>
      <trkpt lat="48.96163" lon="7.47062">
        <ele>341</ele>
        <time>2021-08-08T07:48:02Z</time>
      </trkpt>
      <trkpt lat="48.96164" lon="7.4705">
        <ele>341</ele>
        <time>2021-08-08T07:48:03Z</time>
      </trkpt>
      <trkpt lat="48.96164" lon="7.4705">
        <ele>341</ele>
        <time>2021-08-08T07:48:04Z</time>
      </trkpt>
      <trkpt lat="48.96165" lon="7.4704">
        <ele>341</ele>
        <time>2021-08-08T07:48:05Z</time>
      </trkpt>
      <trkpt lat="48.96165" lon="7.4704">
        <ele>341</ele>
        <time>2021-08-08T07:48:06Z</time>
      </trkpt>
      <trkpt lat="48.96163" lon="7.4703">
        <ele>341</ele>
        <time>2021-08-08T07:48:07Z</time>
      </trkpt>
      <trkpt lat="48.96162" lon="7.47023">
        <ele>341</ele>
        <time>2021-08-08T07:48:08Z</time>
      </trkpt>
      <trkpt lat="48.96162" lon="7.47023">
        <ele>341</ele>
        <time>2021-08-08T07:48:09Z</time>
      </trkpt>
      <trkpt lat="48.96161" lon="7.47012">
        <ele>341</ele>
        <time>2021-08-08T07:48:10Z</time>
      </trkpt>
      <trkpt lat="48.9616" lon="7.47006">
        <ele>341</ele>
        <time>2021-08-08T07:48:11Z</time>
      </trkpt>
      <trkpt lat="48.96161" lon="7.47">
        <ele>341</ele>
        <time>2021-08-08T07:48:12Z</time>
      </trkpt>
      <trkpt lat="48.96161" lon="7.47">
        <ele>341</ele>
        <time>2021-08-08T07:48:13Z</time>
      </trkpt>
      <trkpt lat="48.96161" lon="7.46988">
        <ele>340</ele>
        <time>2021-08-08T07:48:14Z</time>
      </trkpt>
      <trkpt lat="48.96161" lon="7.46982">
        <ele>340</ele>
        <time>2021-08-08T07:48:15Z</time>
      </trkpt>
      <trkpt lat="48.96161" lon="7.46982">
        <ele>340</ele>
        <time>2021-08-08T07:48:16Z</time>
      </trkpt>
      <trkpt lat="48.96161" lon="7.4697">
        <ele>340</ele>
        <time>2021-08-08T07:48:17Z</time>
      </trkpt>
      <trkpt lat="48.96161" lon="7.4697">
        <ele>340</ele>
        <time>2021-08-08T07:48:18Z</time>
      </trkpt>
      <trkpt lat="48.9616" lon="7.46956">
        <ele>339</ele>
        <time>2021-08-08T07:48:19Z</time>
      </trkpt>
      <trkpt lat="48.9616" lon="7.46956">
        <ele>339</ele>
        <time>2021-08-08T07:48:20Z</time>
      </trkpt>
      <trkpt lat="48.96162" lon="7.46941">
        <ele>339</ele>
        <time>2021-08-08T07:48:21Z</time>
      </trkpt>
      <trkpt lat="48.96162" lon="7.46941">
        <ele>339</ele>
        <time>2021-08-08T07:48:22Z</time>
      </trkpt>
      <trkpt lat="48.96167" lon="7.46926">
        <ele>339</ele>
        <time>2021-08-08T07:48:23Z</time>
      </trkpt>
      <trkpt lat="48.96168" lon="7.46918">
        <ele>339</ele>
        <time>2021-08-08T07:48:24Z</time>
      </trkpt>
      <trkpt lat="48.96168" lon="7.46918">
        <ele>338</ele>
        <time>2021-08-08T07:48:25Z</time>
      </trkpt>
      <trkpt lat="48.96172" lon="7.46902">
        <ele>338</ele>
        <time>2021-08-08T07:48:26Z</time>
      </trkpt>
      <trkpt lat="48.96173" lon="7.46895">
        <ele>338</ele>
        <time>2021-08-08T07:48:27Z</time>
      </trkpt>
      <trkpt lat="48.96173" lon="7.46895">
        <ele>338</ele>
        <time>2021-08-08T07:48:28Z</time>
      </trkpt>
      <trkpt lat="48.96176" lon="7.46878">
        <ele>338</ele>
        <time>2021-08-08T07:48:29Z</time>
      </trkpt>
      <trkpt lat="48.96177" lon="7.46869">
        <ele>338</ele>
        <time>2021-08-08T07:48:30Z</time>
      </trkpt>
      <trkpt lat="48.96177" lon="7.46869">
        <ele>337</ele>
        <time>2021-08-08T07:48:31Z</time>
      </trkpt>
      <trkpt lat="48.96181" lon="7.46849">
        <ele>337</ele>
        <time>2021-08-08T07:48:32Z</time>
      </trkpt>
      <trkpt lat="48.96182" lon="7.46838">
        <ele>337</ele>
        <time>2021-08-08T07:48:33Z</time>
      </trkpt>
      <trkpt lat="48.96182" lon="7.46838">
        <ele>337</ele>
        <time>2021-08-08T07:48:34Z</time>
      </trkpt>
      <trkpt lat="48.96182" lon="7.46817">
        <ele>336</ele>
        <time>2021-08-08T07:48:35Z</time>
      </trkpt>
      <trkpt lat="48.96182" lon="7.46817">
        <ele>336</ele>
        <time>2021-08-08T07:48:36Z</time>
      </trkpt>
      <trkpt lat="48.96181" lon="7.46795">
        <ele>336</ele>
        <time>2021-08-08T07:48:37Z</time>
      </trkpt>
      <trkpt lat="48.96181" lon="7.46795">
        <ele>336</ele>
        <time>2021-08-08T07:48:38Z</time>
      </trkpt>
      <trkpt lat="48.96179" lon="7.46774">
        <ele>335</ele>
        <time>2021-08-08T07:48:39Z</time>
      </trkpt>
      <trkpt lat="48.96179" lon="7.46774">
        <ele>335</ele>
        <time>2021-08-08T07:48:40Z</time>
      </trkpt>
      <trkpt lat="48.96177" lon="7.46752">
        <ele>335</ele>
        <time>2021-08-08T07:48:41Z</time>
      </trkpt>
      <trkpt lat="48.96177" lon="7.46752">
        <ele>335</ele>
        <time>2021-08-08T07:48:42Z</time>
      </trkpt>
      <trkpt lat="48.96176" lon="7.46731">
        <ele>334</ele>
        <time>2021-08-08T07:48:43Z</time>
      </trkpt>
      <trkpt lat="48.96176" lon="7.46731">
        <ele>334</ele>
        <time>2021-08-08T07:48:44Z</time>
      </trkpt>
      <trkpt lat="48.96174" lon="7.46708">
        <ele>333</ele>
        <time>2021-08-08T07:48:45Z</time>
      </trkpt>
      <trkpt lat="48.96174" lon="7.46708">
        <ele>333</ele>
        <time>2021-08-08T07:48:46Z</time>
      </trkpt>
      <trkpt lat="48.96171" lon="7.46685">
        <ele>333</ele>
        <time>2021-08-08T07:48:47Z</time>
      </trkpt>
      <trkpt lat="48.96171" lon="7.46685">
        <ele>332</ele>
        <time>2021-08-08T07:48:48Z</time>
      </trkpt>
      <trkpt lat="48.9617" lon="7.46663">
        <ele>332</ele>
        <time>2021-08-08T07:48:49Z</time>
      </trkpt>
      <trkpt lat="48.96169" lon="7.46651">
        <ele>331</ele>
        <time>2021-08-08T07:48:50Z</time>
      </trkpt>
      <trkpt lat="48.96168" lon="7.46639">
        <ele>331</ele>
        <time>2021-08-08T07:48:51Z</time>
      </trkpt>
      <trkpt lat="48.96167" lon="7.46629">
        <ele>331</ele>
        <time>2021-08-08T07:48:52Z</time>
      </trkpt>
      <trkpt lat="48.96167" lon="7.46629">
        <ele>331</ele>
        <time>2021-08-08T07:48:53Z</time>
      </trkpt>
      <trkpt lat="48.96164" lon="7.46608">
        <ele>331</ele>
        <time>2021-08-08T07:48:54Z</time>
      </trkpt>
      <trkpt lat="48.96164" lon="7.46608">
        <ele>331</ele>
        <time>2021-08-08T07:48:55Z</time>
      </trkpt>
      <trkpt lat="48.9616" lon="7.46588">
        <ele>329</ele>
        <time>2021-08-08T07:48:56Z</time>
      </trkpt>
      <trkpt lat="48.96159" lon="7.46579">
        <ele>329</ele>
        <time>2021-08-08T07:48:57Z</time>
      </trkpt>
      <trkpt lat="48.96159" lon="7.46579">
        <ele>329</ele>
        <time>2021-08-08T07:48:58Z</time>
      </trkpt>
      <trkpt lat="48.96156" lon="7.46559">
        <ele>329</ele>
        <time>2021-08-08T07:48:59Z</time>
      </trkpt>
      <trkpt lat="48.96154" lon="7.46549">
        <ele>328</ele>
        <time>2021-08-08T07:49:00Z</time>
      </trkpt>
      <trkpt lat="48.96153" lon="7.46539">
        <ele>328</ele>
        <time>2021-08-08T07:49:01Z</time>
      </trkpt>
      <trkpt lat="48.96153" lon="7.46539">
        <ele>328</ele>
        <time>2021-08-08T07:49:02Z</time>
      </trkpt>
      <trkpt lat="48.96151" lon="7.46517">
        <ele>328</ele>
        <time>2021-08-08T07:49:03Z</time>
      </trkpt>
      <trkpt lat="48.96151" lon="7.46517">
        <ele>327</ele>
        <time>2021-08-08T07:49:04Z</time>
      </trkpt>
      <trkpt lat="48.96151" lon="7.46498">
        <ele>327</ele>
        <time>2021-08-08T07:49:05Z</time>
      </trkpt>
      <trkpt lat="48.96152" lon="7.46489">
        <ele>326</ele>
        <time>2021-08-08T07:49:06Z</time>
      </trkpt>
      <trkpt lat="48.96152" lon="7.46489">
        <ele>326</ele>
        <time>2021-08-08T07:49:07Z</time>
      </trkpt>
      <trkpt lat="48.96155" lon="7.46473">
        <ele>324</ele>
        <time>2021-08-08T07:49:08Z</time>
      </trkpt>
      <trkpt lat="48.96155" lon="7.46473">
        <ele>324</ele>
        <time>2021-08-08T07:49:09Z</time>
      </trkpt>
      <trkpt lat="48.96159" lon="7.46457">
        <ele>324</ele>
        <time>2021-08-08T07:49:10Z</time>
      </trkpt>
      <trkpt lat="48.96159" lon="7.46457">
        <ele>324</ele>
        <time>2021-08-08T07:49:11Z</time>
      </trkpt>
      <trkpt lat="48.96163" lon="7.46445">
        <ele>323</ele>
        <time>2021-08-08T07:49:12Z</time>
      </trkpt>
      <trkpt lat="48.96165" lon="7.4644">
        <ele>323</ele>
        <time>2021-08-08T07:49:13Z</time>
      </trkpt>
      <trkpt lat="48.96168" lon="7.46435">
        <ele>323</ele>
        <time>2021-08-08T07:49:14Z</time>
      </trkpt>
      <trkpt lat="48.96168" lon="7.46435">
        <ele>322</ele>
        <time>2021-08-08T07:49:15Z</time>
      </trkpt>
      <trkpt lat="48.96173" lon="7.46425">
        <ele>322</ele>
        <time>2021-08-08T07:49:16Z</time>
      </trkpt>
      <trkpt lat="48.96174" lon="7.46422">
        <ele>322</ele>
        <time>2021-08-08T07:49:17Z</time>
      </trkpt>
      <trkpt lat="48.96174" lon="7.46422">
        <ele>322</ele>
        <time>2021-08-08T07:49:18Z</time>
      </trkpt>
      <trkpt lat="48.96177" lon="7.46415">
        <ele>322</ele>
        <time>2021-08-08T07:49:19Z</time>
      </trkpt>
      <trkpt lat="48.96177" lon="7.46415">
        <ele>322</ele>
        <time>2021-08-08T07:49:20Z</time>
      </trkpt>
      <trkpt lat="48.96179" lon="7.46407">
        <ele>321</ele>
        <time>2021-08-08T07:49:21Z</time>
      </trkpt>
      <trkpt lat="48.96179" lon="7.46407">
        <ele>321</ele>
        <time>2021-08-08T07:49:22Z</time>
      </trkpt>
      <trkpt lat="48.96182" lon="7.46399">
        <ele>321</ele>
        <time>2021-08-08T07:49:23Z</time>
      </trkpt>
      <trkpt lat="48.96184" lon="7.46395">
        <ele>321</ele>
        <time>2021-08-08T07:49:24Z</time>
      </trkpt>
      <trkpt lat="48.96184" lon="7.46395">
        <ele>321</ele>
        <time>2021-08-08T07:49:25Z</time>
      </trkpt>
      <trkpt lat="48.96187" lon="7.46389">
        <ele>321</ele>
        <time>2021-08-08T07:49:26Z</time>
      </trkpt>
      <trkpt lat="48.96189" lon="7.46385">
        <ele>321</ele>
        <time>2021-08-08T07:49:27Z</time>
      </trkpt>
      <trkpt lat="48.96189" lon="7.46385">
        <ele>321</ele>
        <time>2021-08-08T07:49:28Z</time>
      </trkpt>
      <trkpt lat="48.96191" lon="7.46378">
        <ele>321</ele>
        <time>2021-08-08T07:49:29Z</time>
      </trkpt>
      <trkpt lat="48.96191" lon="7.46378">
        <ele>321</ele>
        <time>2021-08-08T07:49:30Z</time>
      </trkpt>
      <trkpt lat="48.96194" lon="7.46371">
        <ele>321</ele>
        <time>2021-08-08T07:49:31Z</time>
      </trkpt>
      <trkpt lat="48.96194" lon="7.46371">
        <ele>321</ele>
        <time>2021-08-08T07:49:32Z</time>
      </trkpt>
      <trkpt lat="48.96196" lon="7.46365">
        <ele>321</ele>
        <time>2021-08-08T07:49:33Z</time>
      </trkpt>
      <trkpt lat="48.96197" lon="7.46361">
        <ele>321</ele>
        <time>2021-08-08T07:49:34Z</time>
      </trkpt>
      <trkpt lat="48.96197" lon="7.46361">
        <ele>321</ele>
        <time>2021-08-08T07:49:35Z</time>
      </trkpt>
      <trkpt lat="48.96199" lon="7.46354">
        <ele>321</ele>
        <time>2021-08-08T07:49:36Z</time>
      </trkpt>
      <trkpt lat="48.96199" lon="7.46354">
        <ele>321</ele>
        <time>2021-08-08T07:49:37Z</time>
      </trkpt>
      <trkpt lat="48.96201" lon="7.46349">
        <ele>321</ele>
        <time>2021-08-08T07:49:38Z</time>
      </trkpt>
      <trkpt lat="48.96203" lon="7.46346">
        <ele>322</ele>
        <time>2021-08-08T07:49:39Z</time>
      </trkpt>
      <trkpt lat="48.96204" lon="7.46342">
        <ele>322</ele>
        <time>2021-08-08T07:49:40Z</time>
      </trkpt>
      <trkpt lat="48.96205" lon="7.46339">
        <ele>322</ele>
        <time>2021-08-08T07:49:41Z</time>
      </trkpt>
      <trkpt lat="48.96205" lon="7.46339">
        <ele>322</ele>
        <time>2021-08-08T07:49:42Z</time>
      </trkpt>
      <trkpt lat="48.96206" lon="7.46333">
        <ele>322</ele>
        <time>2021-08-08T07:49:43Z</time>
      </trkpt>
      <trkpt lat="48.96206" lon="7.46333">
        <ele>322</ele>
        <time>2021-08-08T07:49:44Z</time>
      </trkpt>
      <trkpt lat="48.96207" lon="7.46327">
        <ele>322</ele>
        <time>2021-08-08T07:49:45Z</time>
      </trkpt>
      <trkpt lat="48.96207" lon="7.46327">
        <ele>322</ele>
        <time>2021-08-08T07:49:46Z</time>
      </trkpt>
      <trkpt lat="48.96209" lon="7.46322">
        <ele>322</ele>
        <time>2021-08-08T07:49:47Z</time>
      </trkpt>
      <trkpt lat="48.96209" lon="7.46322">
        <ele>322</ele>
        <time>2021-08-08T07:49:48Z</time>
      </trkpt>
      <trkpt lat="48.96211" lon="7.46316">
        <ele>322</ele>
        <time>2021-08-08T07:49:49Z</time>
      </trkpt>
      <trkpt lat="48.96211" lon="7.46316">
        <ele>323</ele>
        <time>2021-08-08T07:49:50Z</time>
      </trkpt>
      <trkpt lat="48.96213" lon="7.4631">
        <ele>323</ele>
        <time>2021-08-08T07:49:51Z</time>
      </trkpt>
      <trkpt lat="48.96213" lon="7.4631">
        <ele>323</ele>
        <time>2021-08-08T07:49:52Z</time>
      </trkpt>
      <trkpt lat="48.96215" lon="7.46305">
        <ele>323</ele>
        <time>2021-08-08T07:49:53Z</time>
      </trkpt>
      <trkpt lat="48.96215" lon="7.46305">
        <ele>323</ele>
        <time>2021-08-08T07:49:54Z</time>
      </trkpt>
      <trkpt lat="48.96217" lon="7.46299">
        <ele>323</ele>
        <time>2021-08-08T07:49:55Z</time>
      </trkpt>
      <trkpt lat="48.96217" lon="7.46299">
        <ele>324</ele>
        <time>2021-08-08T07:49:56Z</time>
      </trkpt>
      <trkpt lat="48.9622" lon="7.46292">
        <ele>324</ele>
        <time>2021-08-08T07:49:57Z</time>
      </trkpt>
      <trkpt lat="48.9622" lon="7.46292">
        <ele>324</ele>
        <time>2021-08-08T07:49:58Z</time>
      </trkpt>
      <trkpt lat="48.96221" lon="7.46285">
        <ele>324</ele>
        <time>2021-08-08T07:49:59Z</time>
      </trkpt>
      <trkpt lat="48.96221" lon="7.46285">
        <ele>324</ele>
        <time>2021-08-08T07:50:00Z</time>
      </trkpt>
      <trkpt lat="48.96224" lon="7.46278">
        <ele>324</ele>
        <time>2021-08-08T07:50:01Z</time>
      </trkpt>
      <trkpt lat="48.96224" lon="7.46278">
        <ele>324</ele>
        <time>2021-08-08T07:50:02Z</time>
      </trkpt>
      <trkpt lat="48.96226" lon="7.46271">
        <ele>324</ele>
        <time>2021-08-08T07:50:03Z</time>
      </trkpt>
      <trkpt lat="48.96226" lon="7.46271">
        <ele>324</ele>
        <time>2021-08-08T07:50:04Z</time>
      </trkpt>
      <trkpt lat="48.96231" lon="7.46265">
        <ele>324</ele>
        <time>2021-08-08T07:50:05Z</time>
      </trkpt>
      <trkpt lat="48.96231" lon="7.46265">
        <ele>324</ele>
        <time>2021-08-08T07:50:06Z</time>
      </trkpt>
      <trkpt lat="48.96234" lon="7.46258">
        <ele>325</ele>
        <time>2021-08-08T07:50:07Z</time>
      </trkpt>
      <trkpt lat="48.96234" lon="7.46258">
        <ele>325</ele>
        <time>2021-08-08T07:50:08Z</time>
      </trkpt>
      <trkpt lat="48.96236" lon="7.46253">
        <ele>325</ele>
        <time>2021-08-08T07:50:09Z</time>
      </trkpt>
      <trkpt lat="48.96237" lon="7.46251">
        <ele>325</ele>
        <time>2021-08-08T07:50:10Z</time>
      </trkpt>
      <trkpt lat="48.96237" lon="7.46251">
        <ele>326</ele>
        <time>2021-08-08T07:50:11Z</time>
      </trkpt>
      <trkpt lat="48.9624" lon="7.46246">
        <ele>326</ele>
        <time>2021-08-08T07:50:12Z</time>
      </trkpt>
      <trkpt lat="48.96241" lon="7.46244">
        <ele>326</ele>
        <time>2021-08-08T07:50:13Z</time>
      </trkpt>
      <trkpt lat="48.96241" lon="7.46244">
        <ele>326</ele>
        <time>2021-08-08T07:50:14Z</time>
      </trkpt>
      <trkpt lat="48.96243" lon="7.4624">
        <ele>327</ele>
        <time>2021-08-08T07:50:15Z</time>
      </trkpt>
      <trkpt lat="48.96243" lon="7.4624">
        <ele>327</ele>
        <time>2021-08-08T07:50:16Z</time>
      </trkpt>
      <trkpt lat="48.96246" lon="7.46234">
        <ele>327</ele>
        <time>2021-08-08T07:50:17Z</time>
      </trkpt>
      <trkpt lat="48.96246" lon="7.46234">
        <ele>327</ele>
        <time>2021-08-08T07:50:18Z</time>
      </trkpt>
      <trkpt lat="48.96248" lon="7.46229">
        <ele>328</ele>
        <time>2021-08-08T07:50:19Z</time>
      </trkpt>
      <trkpt lat="48.96248" lon="7.46229">
        <ele>328</ele>
        <time>2021-08-08T07:50:20Z</time>
      </trkpt>
      <trkpt lat="48.9625" lon="7.46224">
        <ele>328</ele>
        <time>2021-08-08T07:50:21Z</time>
      </trkpt>
      <trkpt lat="48.9625" lon="7.46224">
        <ele>328</ele>
        <time>2021-08-08T07:50:22Z</time>
      </trkpt>
      <trkpt lat="48.96253" lon="7.46219">
        <ele>329</ele>
        <time>2021-08-08T07:50:23Z</time>
      </trkpt>
      <trkpt lat="48.96253" lon="7.46219">
        <ele>329</ele>
        <time>2021-08-08T07:50:24Z</time>
      </trkpt>
      <trkpt lat="48.96255" lon="7.46214">
        <ele>329</ele>
        <time>2021-08-08T07:50:25Z</time>
      </trkpt>
      <trkpt lat="48.96256" lon="7.46212">
        <ele>329</ele>
        <time>2021-08-08T07:50:26Z</time>
      </trkpt>
      <trkpt lat="48.96256" lon="7.46212">
        <ele>329</ele>
        <time>2021-08-08T07:50:27Z</time>
      </trkpt>
      <trkpt lat="48.96258" lon="7.46207">
        <ele>329</ele>
        <time>2021-08-08T07:50:28Z</time>
      </trkpt>
      <trkpt lat="48.9626" lon="7.46203">
        <ele>330</ele>
        <time>2021-08-08T07:50:29Z</time>
      </trkpt>
      <trkpt lat="48.9626" lon="7.46203">
        <ele>330</ele>
        <time>2021-08-08T07:50:30Z</time>
      </trkpt>
      <trkpt lat="48.96262" lon="7.46197">
        <ele>330</ele>
        <time>2021-08-08T07:50:31Z</time>
      </trkpt>
      <trkpt lat="48.96262" lon="7.46197">
        <ele>330</ele>
        <time>2021-08-08T07:50:32Z</time>
      </trkpt>
      <trkpt lat="48.96263" lon="7.46193">
        <ele>331</ele>
        <time>2021-08-08T07:50:33Z</time>
      </trkpt>
      <trkpt lat="48.96263" lon="7.46193">
        <ele>331</ele>
        <time>2021-08-08T07:50:34Z</time>
      </trkpt>
      <trkpt lat="48.96266" lon="7.46187">
        <ele>331</ele>
        <time>2021-08-08T07:50:35Z</time>
      </trkpt>
      <trkpt lat="48.96266" lon="7.46187">
        <ele>331</ele>
        <time>2021-08-08T07:50:36Z</time>
      </trkpt>
      <trkpt lat="48.96268" lon="7.46183">
        <ele>331</ele>
        <time>2021-08-08T07:50:37Z</time>
      </trkpt>
      <trkpt lat="48.96268" lon="7.46183">
        <ele>331</ele>
        <time>2021-08-08T07:50:38Z</time>
      </trkpt>
      <trkpt lat="48.96271" lon="7.46177">
        <ele>331</ele>
        <time>2021-08-08T07:50:39Z</time>
      </trkpt>
      <trkpt lat="48.96271" lon="7.46177">
        <ele>331</ele>
        <time>2021-08-08T07:50:40Z</time>
      </trkpt>
      <trkpt lat="48.96274" lon="7.46173">
        <ele>332</ele>
        <time>2021-08-08T07:50:41Z</time>
      </trkpt>
      <trkpt lat="48.96276" lon="7.46172">
        <ele>332</ele>
        <time>2021-08-08T07:50:42Z</time>
      </trkpt>
      <trkpt lat="48.96276" lon="7.46172">
        <ele>332</ele>
        <time>2021-08-08T07:50:43Z</time>
      </trkpt>
      <trkpt lat="48.96277" lon="7.46168">
        <ele>332</ele>
        <time>2021-08-08T07:50:44Z</time>
      </trkpt>
      <trkpt lat="48.96277" lon="7.46168">
        <ele>332</ele>
        <time>2021-08-08T07:50:45Z</time>
      </trkpt>
      <trkpt lat="48.96278" lon="7.46165">
        <ele>332</ele>
        <time>2021-08-08T07:50:46Z</time>
      </trkpt>
      <trkpt lat="48.96279" lon="7.46163">
        <ele>333</ele>
        <time>2021-08-08T07:50:47Z</time>
      </trkpt>
      <trkpt lat="48.96279" lon="7.46163">
        <ele>333</ele>
        <time>2021-08-08T07:50:48Z</time>
      </trkpt>
      <trkpt lat="48.96281" lon="7.46157">
        <ele>333</ele>
        <time>2021-08-08T07:50:49Z</time>
      </trkpt>
      <trkpt lat="48.96281" lon="7.46157">
        <ele>333</ele>
        <time>2021-08-08T07:50:50Z</time>
      </trkpt>
      <trkpt lat="48.96283" lon="7.46152">
        <ele>334</ele>
        <time>2021-08-08T07:50:51Z</time>
      </trkpt>
      <trkpt lat="48.96283" lon="7.46152">
        <ele>334</ele>
        <time>2021-08-08T07:50:52Z</time>
      </trkpt>
      <trkpt lat="48.96285" lon="7.46147">
        <ele>334</ele>
        <time>2021-08-08T07:50:53Z</time>
      </trkpt>
      <trkpt lat="48.96285" lon="7.46147">
        <ele>334</ele>
        <time>2021-08-08T07:50:54Z</time>
      </trkpt>
      <trkpt lat="48.96286" lon="7.46143">
        <ele>335</ele>
        <time>2021-08-08T07:50:55Z</time>
      </trkpt>
      <trkpt lat="48.96286" lon="7.46143">
        <ele>335</ele>
        <time>2021-08-08T07:50:56Z</time>
      </trkpt>
      <trkpt lat="48.96287" lon="7.46138">
        <ele>335</ele>
        <time>2021-08-08T07:50:57Z</time>
      </trkpt>
      <trkpt lat="48.96287" lon="7.46138">
        <ele>335</ele>
        <time>2021-08-08T07:50:58Z</time>
      </trkpt>
      <trkpt lat="48.9629" lon="7.46132">
        <ele>335</ele>
        <time>2021-08-08T07:50:59Z</time>
      </trkpt>
      <trkpt lat="48.9629" lon="7.46132">
        <ele>335</ele>
        <time>2021-08-08T07:51:00Z</time>
      </trkpt>
      <trkpt lat="48.96291" lon="7.46127">
        <ele>336</ele>
        <time>2021-08-08T07:51:01Z</time>
      </trkpt>
      <trkpt lat="48.96292" lon="7.46124">
        <ele>336</ele>
        <time>2021-08-08T07:51:02Z</time>
      </trkpt>
      <trkpt lat="48.96292" lon="7.46124">
        <ele>336</ele>
        <time>2021-08-08T07:51:03Z</time>
      </trkpt>
      <trkpt lat="48.96294" lon="7.46119">
        <ele>336</ele>
        <time>2021-08-08T07:51:04Z</time>
      </trkpt>
      <trkpt lat="48.96294" lon="7.46119">
        <ele>336</ele>
        <time>2021-08-08T07:51:05Z</time>
      </trkpt>
      <trkpt lat="48.96295" lon="7.46114">
        <ele>336</ele>
        <time>2021-08-08T07:51:06Z</time>
      </trkpt>
      <trkpt lat="48.96296" lon="7.46111">
        <ele>336</ele>
        <time>2021-08-08T07:51:07Z</time>
      </trkpt>
      <trkpt lat="48.96296" lon="7.46111">
        <ele>337</ele>
        <time>2021-08-08T07:51:08Z</time>
      </trkpt>
      <trkpt lat="48.96297" lon="7.46105">
        <ele>337</ele>
        <time>2021-08-08T07:51:09Z</time>
      </trkpt>
      <trkpt lat="48.96297" lon="7.46105">
        <ele>337</ele>
        <time>2021-08-08T07:51:10Z</time>
      </trkpt>
      <trkpt lat="48.96297" lon="7.46101">
        <ele>337</ele>
        <time>2021-08-08T07:51:11Z</time>
      </trkpt>
      <trkpt lat="48.96298" lon="7.46098">
        <ele>338</ele>
        <time>2021-08-08T07:51:12Z</time>
      </trkpt>
      <trkpt lat="48.96298" lon="7.46098">
        <ele>338</ele>
        <time>2021-08-08T07:51:13Z</time>
      </trkpt>
      <trkpt lat="48.96298" lon="7.46092">
        <ele>338</ele>
        <time>2021-08-08T07:51:14Z</time>
      </trkpt>
      <trkpt lat="48.96299" lon="7.46089">
        <ele>338</ele>
        <time>2021-08-08T07:51:15Z</time>
      </trkpt>
      <trkpt lat="48.96299" lon="7.46089">
        <ele>338</ele>
        <time>2021-08-08T07:51:16Z</time>
      </trkpt>
      <trkpt lat="48.963" lon="7.46085">
        <ele>338</ele>
        <time>2021-08-08T07:51:17Z</time>
      </trkpt>
      <trkpt lat="48.963" lon="7.46085">
        <ele>339</ele>
        <time>2021-08-08T07:51:18Z</time>
      </trkpt>
      <trkpt lat="48.96301" lon="7.4608">
        <ele>339</ele>
        <time>2021-08-08T07:51:19Z</time>
      </trkpt>
      <trkpt lat="48.96301" lon="7.46077">
        <ele>339</ele>
        <time>2021-08-08T07:51:20Z</time>
      </trkpt>
      <trkpt lat="48.96301" lon="7.46077">
        <ele>339</ele>
        <time>2021-08-08T07:51:21Z</time>
      </trkpt>
      <trkpt lat="48.96302" lon="7.46073">
        <ele>340</ele>
        <time>2021-08-08T07:51:22Z</time>
      </trkpt>
      <trkpt lat="48.96302" lon="7.46073">
        <ele>340</ele>
        <time>2021-08-08T07:51:23Z</time>
      </trkpt>
      <trkpt lat="48.96303" lon="7.46068">
        <ele>340</ele>
        <time>2021-08-08T07:51:24Z</time>
      </trkpt>
      <trkpt lat="48.96304" lon="7.46067">
        <ele>340</ele>
        <time>2021-08-08T07:51:25Z</time>
      </trkpt>
      <trkpt lat="48.96304" lon="7.46067">
        <ele>341</ele>
        <time>2021-08-08T07:51:26Z</time>
      </trkpt>
      <trkpt lat="48.96305" lon="7.46063">
        <ele>341</ele>
        <time>2021-08-08T07:51:27Z</time>
      </trkpt>
      <trkpt lat="48.96305" lon="7.46063">
        <ele>341</ele>
        <time>2021-08-08T07:51:28Z</time>
      </trkpt>
      <trkpt lat="48.96307" lon="7.46059">
        <ele>341</ele>
        <time>2021-08-08T07:51:29Z</time>
      </trkpt>
      <trkpt lat="48.96307" lon="7.46057">
        <ele>341</ele>
        <time>2021-08-08T07:51:30Z</time>
      </trkpt>
      <trkpt lat="48.96308" lon="7.46055">
        <ele>341</ele>
        <time>2021-08-08T07:51:31Z</time>
      </trkpt>
      <trkpt lat="48.96308" lon="7.46055">
        <ele>341</ele>
        <time>2021-08-08T07:51:32Z</time>
      </trkpt>
      <trkpt lat="48.9631" lon="7.4605">
        <ele>341</ele>
        <time>2021-08-08T07:51:33Z</time>
      </trkpt>
      <trkpt lat="48.9631" lon="7.4605">
        <ele>342</ele>
        <time>2021-08-08T07:51:34Z</time>
      </trkpt>
      <trkpt lat="48.9631" lon="7.46046">
        <ele>342</ele>
        <time>2021-08-08T07:51:35Z</time>
      </trkpt>
      <trkpt lat="48.9631" lon="7.46045">
        <ele>342</ele>
        <time>2021-08-08T07:51:36Z</time>
      </trkpt>
      <trkpt lat="48.96311" lon="7.46044">
        <ele>342</ele>
        <time>2021-08-08T07:51:37Z</time>
      </trkpt>
      <trkpt lat="48.96311" lon="7.46044">
        <ele>343</ele>
        <time>2021-08-08T07:51:38Z</time>
      </trkpt>
      <trkpt lat="48.96311" lon="7.4604">
        <ele>343</ele>
        <time>2021-08-08T07:51:39Z</time>
      </trkpt>
      <trkpt lat="48.96311" lon="7.4604">
        <ele>343</ele>
        <time>2021-08-08T07:51:40Z</time>
      </trkpt>
      <trkpt lat="48.96311" lon="7.46037">
        <ele>343</ele>
        <time>2021-08-08T07:51:41Z</time>
      </trkpt>
      <trkpt lat="48.96311" lon="7.46037">
        <ele>343</ele>
        <time>2021-08-08T07:51:42Z</time>
      </trkpt>
      <trkpt lat="48.9631" lon="7.46033">
        <ele>343</ele>
        <time>2021-08-08T07:51:43Z</time>
      </trkpt>
      <trkpt lat="48.9631" lon="7.46033">
        <ele>344</ele>
        <time>2021-08-08T07:51:44Z</time>
      </trkpt>
      <trkpt lat="48.96311" lon="7.46029">
        <ele>344</ele>
        <time>2021-08-08T07:51:45Z</time>
      </trkpt>
      <trkpt lat="48.96311" lon="7.46029">
        <ele>344</ele>
        <time>2021-08-08T07:51:46Z</time>
      </trkpt>
      <trkpt lat="48.96311" lon="7.46025">
        <ele>344</ele>
        <time>2021-08-08T07:51:47Z</time>
      </trkpt>
      <trkpt lat="48.96311" lon="7.46025">
        <ele>345</ele>
        <time>2021-08-08T07:51:48Z</time>
      </trkpt>
      <trkpt lat="48.96311" lon="7.46021">
        <ele>345</ele>
        <time>2021-08-08T07:51:49Z</time>
      </trkpt>
      <trkpt lat="48.96311" lon="7.46021">
        <ele>345</ele>
        <time>2021-08-08T07:51:50Z</time>
      </trkpt>
      <trkpt lat="48.96312" lon="7.46018">
        <ele>345</ele>
        <time>2021-08-08T07:51:51Z</time>
      </trkpt>
      <trkpt lat="48.96312" lon="7.46018">
        <ele>346</ele>
        <time>2021-08-08T07:51:52Z</time>
      </trkpt>
      <trkpt lat="48.96313" lon="7.46013">
        <ele>346</ele>
        <time>2021-08-08T07:51:53Z</time>
      </trkpt>
      <trkpt lat="48.96313" lon="7.46013">
        <ele>346</ele>
        <time>2021-08-08T07:51:54Z</time>
      </trkpt>
      <trkpt lat="48.96313" lon="7.46007">
        <ele>347</ele>
        <time>2021-08-08T07:51:55Z</time>
      </trkpt>
      <trkpt lat="48.96313" lon="7.46007">
        <ele>347</ele>
        <time>2021-08-08T07:51:56Z</time>
      </trkpt>
      <trkpt lat="48.96313" lon="7.46002">
        <ele>347</ele>
        <time>2021-08-08T07:51:57Z</time>
      </trkpt>
      <trkpt lat="48.96313" lon="7.46002">
        <ele>347</ele>
        <time>2021-08-08T07:51:58Z</time>
      </trkpt>
      <trkpt lat="48.96313" lon="7.45999">
        <ele>348</ele>
        <time>2021-08-08T07:51:59Z</time>
      </trkpt>
      <trkpt lat="48.96313" lon="7.45999">
        <ele>348</ele>
        <time>2021-08-08T07:52:00Z</time>
      </trkpt>
      <trkpt lat="48.96314" lon="7.45995">
        <ele>348</ele>
        <time>2021-08-08T07:52:01Z</time>
      </trkpt>
      <trkpt lat="48.96314" lon="7.45995">
        <ele>348</ele>
        <time>2021-08-08T07:52:02Z</time>
      </trkpt>
      <trkpt lat="48.96315" lon="7.45991">
        <ele>348</ele>
        <time>2021-08-08T07:52:03Z</time>
      </trkpt>
      <trkpt lat="48.96315" lon="7.45991">
        <ele>349</ele>
        <time>2021-08-08T07:52:04Z</time>
      </trkpt>
      <trkpt lat="48.96315" lon="7.45989">
        <ele>349</ele>
        <time>2021-08-08T07:52:05Z</time>
      </trkpt>
      <trkpt lat="48.96315" lon="7.45987">
        <ele>349</ele>
        <time>2021-08-08T07:52:06Z</time>
      </trkpt>
      <trkpt lat="48.96315" lon="7.45986">
        <ele>350</ele>
        <time>2021-08-08T07:52:07Z</time>
      </trkpt>
      <trkpt lat="48.96315" lon="7.45986">
        <ele>350</ele>
        <time>2021-08-08T07:52:08Z</time>
      </trkpt>
      <trkpt lat="48.96317" lon="7.45982">
        <ele>350</ele>
        <time>2021-08-08T07:52:09Z</time>
      </trkpt>
      <trkpt lat="48.96317" lon="7.45982">
        <ele>350</ele>
        <time>2021-08-08T07:52:10Z</time>
      </trkpt>
      <trkpt lat="48.96316" lon="7.45979">
        <ele>351</ele>
        <time>2021-08-08T07:52:11Z</time>
      </trkpt>
      <trkpt lat="48.96316" lon="7.45979">
        <ele>351</ele>
        <time>2021-08-08T07:52:12Z</time>
      </trkpt>
      <trkpt lat="48.96316" lon="7.45975">
        <ele>351</ele>
        <time>2021-08-08T07:52:13Z</time>
      </trkpt>
      <trkpt lat="48.96316" lon="7.45975">
        <ele>351</ele>
        <time>2021-08-08T07:52:14Z</time>
      </trkpt>
      <trkpt lat="48.96316" lon="7.45972">
        <ele>351</ele>
        <time>2021-08-08T07:52:15Z</time>
      </trkpt>
      <trkpt lat="48.96316" lon="7.45972">
        <ele>351</ele>
        <time>2021-08-08T07:52:16Z</time>
      </trkpt>
      <trkpt lat="48.96317" lon="7.45968">
        <ele>351</ele>
        <time>2021-08-08T07:52:17Z</time>
      </trkpt>
      <trkpt lat="48.96317" lon="7.45966">
        <ele>351</ele>
        <time>2021-08-08T07:52:18Z</time>
      </trkpt>
      <trkpt lat="48.96317" lon="7.45966">
        <ele>352</ele>
        <time>2021-08-08T07:52:19Z</time>
      </trkpt>
      <trkpt lat="48.96318" lon="7.45963">
        <ele>352</ele>
        <time>2021-08-08T07:52:20Z</time>
      </trkpt>
      <trkpt lat="48.96318" lon="7.45961">
        <ele>353</ele>
        <time>2021-08-08T07:52:21Z</time>
      </trkpt>
      <trkpt lat="48.96318" lon="7.45961">
        <ele>353</ele>
        <time>2021-08-08T07:52:22Z</time>
      </trkpt>
      <trkpt lat="48.96319" lon="7.45958">
        <ele>353</ele>
        <time>2021-08-08T07:52:23Z</time>
      </trkpt>
      <trkpt lat="48.96319" lon="7.45956">
        <ele>353</ele>
        <time>2021-08-08T07:52:24Z</time>
      </trkpt>
      <trkpt lat="48.9632" lon="7.45954">
        <ele>353</ele>
        <time>2021-08-08T07:52:25Z</time>
      </trkpt>
      <trkpt lat="48.9632" lon="7.45952">
        <ele>353</ele>
        <time>2021-08-08T07:52:26Z</time>
      </trkpt>
      <trkpt lat="48.9632" lon="7.4595">
        <ele>354</ele>
        <time>2021-08-08T07:52:27Z</time>
      </trkpt>
      <trkpt lat="48.9632" lon="7.4595">
        <ele>354</ele>
        <time>2021-08-08T07:52:28Z</time>
      </trkpt>
      <trkpt lat="48.96321" lon="7.45946">
        <ele>354</ele>
        <time>2021-08-08T07:52:29Z</time>
      </trkpt>
      <trkpt lat="48.96321" lon="7.45946">
        <ele>354</ele>
        <time>2021-08-08T07:52:30Z</time>
      </trkpt>
      <trkpt lat="48.96322" lon="7.45943">
        <ele>355</ele>
        <time>2021-08-08T07:52:31Z</time>
      </trkpt>
      <trkpt lat="48.96322" lon="7.45943">
        <ele>355</ele>
        <time>2021-08-08T07:52:32Z</time>
      </trkpt>
      <trkpt lat="48.96323" lon="7.4594">
        <ele>355</ele>
        <time>2021-08-08T07:52:33Z</time>
      </trkpt>
      <trkpt lat="48.96323" lon="7.4594">
        <ele>355</ele>
        <time>2021-08-08T07:52:34Z</time>
      </trkpt>
      <trkpt lat="48.96323" lon="7.45937">
        <ele>357</ele>
        <time>2021-08-08T07:52:35Z</time>
      </trkpt>
      <trkpt lat="48.96323" lon="7.45937">
        <ele>357</ele>
        <time>2021-08-08T07:52:36Z</time>
      </trkpt>
      <trkpt lat="48.96325" lon="7.45934">
        <ele>357</ele>
        <time>2021-08-08T07:52:37Z</time>
      </trkpt>
      <trkpt lat="48.96325" lon="7.45934">
        <ele>357</ele>
        <time>2021-08-08T07:52:38Z</time>
      </trkpt>
      <trkpt lat="48.96327" lon="7.4593">
        <ele>358</ele>
        <time>2021-08-08T07:52:39Z</time>
      </trkpt>
      <trkpt lat="48.96327" lon="7.4593">
        <ele>358</ele>
        <time>2021-08-08T07:52:40Z</time>
      </trkpt>
      <trkpt lat="48.96328" lon="7.45927">
        <ele>358</ele>
        <time>2021-08-08T07:52:41Z</time>
      </trkpt>
      <trkpt lat="48.96328" lon="7.45927">
        <ele>358</ele>
        <time>2021-08-08T07:52:42Z</time>
      </trkpt>
      <trkpt lat="48.96329" lon="7.45924">
        <ele>358</ele>
        <time>2021-08-08T07:52:43Z</time>
      </trkpt>
      <trkpt lat="48.96329" lon="7.45924">
        <ele>358</ele>
        <time>2021-08-08T07:52:44Z</time>
      </trkpt>
      <trkpt lat="48.9633" lon="7.45921">
        <ele>358</ele>
        <time>2021-08-08T07:52:45Z</time>
      </trkpt>
      <trkpt lat="48.9633" lon="7.45921">
        <ele>358</ele>
        <time>2021-08-08T07:52:46Z</time>
      </trkpt>
      <trkpt lat="48.96331" lon="7.45919">
        <ele>360</ele>
        <time>2021-08-08T07:52:47Z</time>
      </trkpt>
      <trkpt lat="48.96331" lon="7.45919">
        <ele>360</ele>
        <time>2021-08-08T07:52:48Z</time>
      </trkpt>
      <trkpt lat="48.96333" lon="7.45918">
        <ele>360</ele>
        <time>2021-08-08T07:52:49Z</time>
      </trkpt>
      <trkpt lat="48.96333" lon="7.45918">
        <ele>360</ele>
        <time>2021-08-08T07:52:50Z</time>
      </trkpt>
      <trkpt lat="48.96335" lon="7.45916">
        <ele>360</ele>
        <time>2021-08-08T07:52:51Z</time>
      </trkpt>
      <trkpt lat="48.96335" lon="7.45914">
        <ele>360</ele>
        <time>2021-08-08T07:52:52Z</time>
      </trkpt>
      <trkpt lat="48.96335" lon="7.45914">
        <ele>360</ele>
        <time>2021-08-08T07:52:53Z</time>
      </trkpt>
      <trkpt lat="48.96337" lon="7.4591">
        <ele>360</ele>
        <time>2021-08-08T07:52:54Z</time>
      </trkpt>
      <trkpt lat="48.96337" lon="7.4591">
        <ele>360</ele>
        <time>2021-08-08T07:52:55Z</time>
      </trkpt>
      <trkpt lat="48.96337" lon="7.45907">
        <ele>360</ele>
        <time>2021-08-08T07:52:56Z</time>
      </trkpt>
      <trkpt lat="48.96338" lon="7.45905">
        <ele>360</ele>
        <time>2021-08-08T07:52:57Z</time>
      </trkpt>
      <trkpt lat="48.96338" lon="7.45905">
        <ele>360</ele>
        <time>2021-08-08T07:52:58Z</time>
      </trkpt>
      <trkpt lat="48.96339" lon="7.45902">
        <ele>361</ele>
        <time>2021-08-08T07:52:59Z</time>
      </trkpt>
      <trkpt lat="48.96339" lon="7.45902">
        <ele>361</ele>
        <time>2021-08-08T07:53:00Z</time>
      </trkpt>
      <trkpt lat="48.9634" lon="7.45899">
        <ele>361</ele>
        <time>2021-08-08T07:53:01Z</time>
      </trkpt>
      <trkpt lat="48.9634" lon="7.45899">
        <ele>361</ele>
        <time>2021-08-08T07:53:02Z</time>
      </trkpt>
      <trkpt lat="48.96341" lon="7.45896">
        <ele>361</ele>
        <time>2021-08-08T07:53:03Z</time>
      </trkpt>
      <trkpt lat="48.96341" lon="7.45896">
        <ele>361</ele>
        <time>2021-08-08T07:53:04Z</time>
      </trkpt>
      <trkpt lat="48.96342" lon="7.45894">
        <ele>361</ele>
        <time>2021-08-08T07:53:05Z</time>
      </trkpt>
      <trkpt lat="48.96342" lon="7.45894">
        <ele>361</ele>
        <time>2021-08-08T07:53:06Z</time>
      </trkpt>
      <trkpt lat="48.96343" lon="7.4589">
        <ele>361</ele>
        <time>2021-08-08T07:53:07Z</time>
      </trkpt>
      <trkpt lat="48.96343" lon="7.4589">
        <ele>361</ele>
        <time>2021-08-08T07:53:08Z</time>
      </trkpt>
      <trkpt lat="48.96344" lon="7.45885">
        <ele>361</ele>
        <time>2021-08-08T07:53:09Z</time>
      </trkpt>
      <trkpt lat="48.96344" lon="7.45885">
        <ele>361</ele>
        <time>2021-08-08T07:53:10Z</time>
      </trkpt>
      <trkpt lat="48.96347" lon="7.45877">
        <ele>361</ele>
        <time>2021-08-08T07:53:11Z</time>
      </trkpt>
      <trkpt lat="48.96348" lon="7.45871">
        <ele>361</ele>
        <time>2021-08-08T07:53:12Z</time>
      </trkpt>
      <trkpt lat="48.96348" lon="7.45871">
        <ele>361</ele>
        <time>2021-08-08T07:53:13Z</time>
      </trkpt>
      <trkpt lat="48.96346" lon="7.45859">
        <ele>361</ele>
        <time>2021-08-08T07:53:14Z</time>
      </trkpt>
      <trkpt lat="48.96346" lon="7.45854">
        <ele>361</ele>
        <time>2021-08-08T07:53:15Z</time>
      </trkpt>
      <trkpt lat="48.96346" lon="7.45854">
        <ele>361</ele>
        <time>2021-08-08T07:53:16Z</time>
      </trkpt>
      <trkpt lat="48.96346" lon="7.45839">
        <ele>361</ele>
        <time>2021-08-08T07:53:17Z</time>
      </trkpt>
      <trkpt lat="48.96346" lon="7.45839">
        <ele>360</ele>
        <time>2021-08-08T07:53:18Z</time>
      </trkpt>
      <trkpt lat="48.96344" lon="7.45821">
        <ele>360</ele>
        <time>2021-08-08T07:53:19Z</time>
      </trkpt>
      <trkpt lat="48.96344" lon="7.45821">
        <ele>360</ele>
        <time>2021-08-08T07:53:20Z</time>
      </trkpt>
      <trkpt lat="48.96342" lon="7.45803">
        <ele>360</ele>
        <time>2021-08-08T07:53:21Z</time>
      </trkpt>
      <trkpt lat="48.96342" lon="7.45803">
        <ele>360</ele>
        <time>2021-08-08T07:53:22Z</time>
      </trkpt>
      <trkpt lat="48.96339" lon="7.45782">
        <ele>359</ele>
        <time>2021-08-08T07:53:23Z</time>
      </trkpt>
      <trkpt lat="48.96338" lon="7.45771">
        <ele>359</ele>
        <time>2021-08-08T07:53:24Z</time>
      </trkpt>
      <trkpt lat="48.96336" lon="7.45759">
        <ele>358</ele>
        <time>2021-08-08T07:53:25Z</time>
      </trkpt>
      <trkpt lat="48.96336" lon="7.45759">
        <ele>358</ele>
        <time>2021-08-08T07:53:26Z</time>
      </trkpt>
      <trkpt lat="48.96333" lon="7.45737">
        <ele>357</ele>
        <time>2021-08-08T07:53:27Z</time>
      </trkpt>
      <trkpt lat="48.96333" lon="7.45737">
        <ele>357</ele>
        <time>2021-08-08T07:53:28Z</time>
      </trkpt>
      <trkpt lat="48.96329" lon="7.45716">
        <ele>357</ele>
        <time>2021-08-08T07:53:29Z</time>
      </trkpt>
      <trkpt lat="48.96328" lon="7.45705">
        <ele>357</ele>
        <time>2021-08-08T07:53:30Z</time>
      </trkpt>
      <trkpt lat="48.96326" lon="7.45696">
        <ele>357</ele>
        <time>2021-08-08T07:53:31Z</time>
      </trkpt>
      <trkpt lat="48.96326" lon="7.45696">
        <ele>357</ele>
        <time>2021-08-08T07:53:32Z</time>
      </trkpt>
      <trkpt lat="48.96322" lon="7.45678">
        <ele>356</ele>
        <time>2021-08-08T07:53:33Z</time>
      </trkpt>
      <trkpt lat="48.96322" lon="7.45678">
        <ele>356</ele>
        <time>2021-08-08T07:53:34Z</time>
      </trkpt>
      <trkpt lat="48.96318" lon="7.45661">
        <ele>356</ele>
        <time>2021-08-08T07:53:35Z</time>
      </trkpt>
      <trkpt lat="48.96318" lon="7.45661">
        <ele>356</ele>
        <time>2021-08-08T07:53:36Z</time>
      </trkpt>
      <trkpt lat="48.96316" lon="7.45644">
        <ele>355</ele>
        <time>2021-08-08T07:53:37Z</time>
      </trkpt>
      <trkpt lat="48.96316" lon="7.45644">
        <ele>355</ele>
        <time>2021-08-08T07:53:38Z</time>
      </trkpt>
      <trkpt lat="48.96314" lon="7.45629">
        <ele>355</ele>
        <time>2021-08-08T07:53:39Z</time>
      </trkpt>
      <trkpt lat="48.96314" lon="7.45621">
        <ele>355</ele>
        <time>2021-08-08T07:53:40Z</time>
      </trkpt>
      <trkpt lat="48.96314" lon="7.45621">
        <ele>354</ele>
        <time>2021-08-08T07:53:41Z</time>
      </trkpt>
      <trkpt lat="48.96312" lon="7.45604">
        <ele>354</ele>
        <time>2021-08-08T07:53:42Z</time>
      </trkpt>
      <trkpt lat="48.96312" lon="7.45595">
        <ele>354</ele>
        <time>2021-08-08T07:53:43Z</time>
      </trkpt>
      <trkpt lat="48.96312" lon="7.45595">
        <ele>354</ele>
        <time>2021-08-08T07:53:44Z</time>
      </trkpt>
      <trkpt lat="48.96315" lon="7.45579">
        <ele>353</ele>
        <time>2021-08-08T07:53:45Z</time>
      </trkpt>
      <trkpt lat="48.96315" lon="7.45579">
        <ele>353</ele>
        <time>2021-08-08T07:53:46Z</time>
      </trkpt>
      <trkpt lat="48.96319" lon="7.45565">
        <ele>353</ele>
        <time>2021-08-08T07:53:47Z</time>
      </trkpt>
      <trkpt lat="48.96319" lon="7.45565">
        <ele>352</ele>
        <time>2021-08-08T07:53:48Z</time>
      </trkpt>
      <trkpt lat="48.96322" lon="7.45552">
        <ele>352</ele>
        <time>2021-08-08T07:53:49Z</time>
      </trkpt>
      <trkpt lat="48.96322" lon="7.45552">
        <ele>352</ele>
        <time>2021-08-08T07:53:50Z</time>
      </trkpt>
      <trkpt lat="48.96325" lon="7.4554">
        <ele>352</ele>
        <time>2021-08-08T07:53:51Z</time>
      </trkpt>
      <trkpt lat="48.96325" lon="7.4554">
        <ele>352</ele>
        <time>2021-08-08T07:53:52Z</time>
      </trkpt>
      <trkpt lat="48.9633" lon="7.45533">
        <ele>352</ele>
        <time>2021-08-08T07:53:53Z</time>
      </trkpt>
      <trkpt lat="48.96332" lon="7.45531">
        <ele>352</ele>
        <time>2021-08-08T07:53:54Z</time>
      </trkpt>
      <trkpt lat="48.96335" lon="7.45528">
        <ele>352</ele>
        <time>2021-08-08T07:53:55Z</time>
      </trkpt>
      <trkpt lat="48.96335" lon="7.45528">
        <ele>352</ele>
        <time>2021-08-08T07:53:56Z</time>
      </trkpt>
      <trkpt lat="48.96339" lon="7.45522">
        <ele>352</ele>
        <time>2021-08-08T07:53:57Z</time>
      </trkpt>
      <trkpt lat="48.96339" lon="7.45522">
        <ele>352</ele>
        <time>2021-08-08T07:53:58Z</time>
      </trkpt>
      <trkpt lat="48.96344" lon="7.45515">
        <ele>352</ele>
        <time>2021-08-08T07:53:59Z</time>
      </trkpt>
      <trkpt lat="48.96344" lon="7.45515">
        <ele>352</ele>
        <time>2021-08-08T07:54:00Z</time>
      </trkpt>
      <trkpt lat="48.9635" lon="7.45508">
        <ele>352</ele>
        <time>2021-08-08T07:54:01Z</time>
      </trkpt>
      <trkpt lat="48.9635" lon="7.45508">
        <ele>352</ele>
        <time>2021-08-08T07:54:02Z</time>
      </trkpt>
      <trkpt lat="48.96356" lon="7.45502">
        <ele>352</ele>
        <time>2021-08-08T07:54:03Z</time>
      </trkpt>
      <trkpt lat="48.96356" lon="7.45502">
        <ele>352</ele>
        <time>2021-08-08T07:54:04Z</time>
      </trkpt>
      <trkpt lat="48.96361" lon="7.45497">
        <ele>352</ele>
        <time>2021-08-08T07:54:05Z</time>
      </trkpt>
      <trkpt lat="48.96363" lon="7.45495">
        <ele>352</ele>
        <time>2021-08-08T07:54:06Z</time>
      </trkpt>
      <trkpt lat="48.96366" lon="7.45492">
        <ele>352</ele>
        <time>2021-08-08T07:54:07Z</time>
      </trkpt>
      <trkpt lat="48.96366" lon="7.45492">
        <ele>352</ele>
        <time>2021-08-08T07:54:08Z</time>
      </trkpt>
      <trkpt lat="48.96369" lon="7.45487">
        <ele>352</ele>
        <time>2021-08-08T07:54:09Z</time>
      </trkpt>
      <trkpt lat="48.96371" lon="7.45485">
        <ele>353</ele>
        <time>2021-08-08T07:54:10Z</time>
      </trkpt>
      <trkpt lat="48.96371" lon="7.45485">
        <ele>353</ele>
        <time>2021-08-08T07:54:11Z</time>
      </trkpt>
      <trkpt lat="48.96377" lon="7.45479">
        <ele>353</ele>
        <time>2021-08-08T07:54:12Z</time>
      </trkpt>
      <trkpt lat="48.9638" lon="7.45476">
        <ele>353</ele>
        <time>2021-08-08T07:54:13Z</time>
      </trkpt>
      <trkpt lat="48.9638" lon="7.45476">
        <ele>353</ele>
        <time>2021-08-08T07:54:14Z</time>
      </trkpt>
      <trkpt lat="48.96386" lon="7.4547">
        <ele>353</ele>
        <time>2021-08-08T07:54:15Z</time>
      </trkpt>
      <trkpt lat="48.96386" lon="7.4547">
        <ele>353</ele>
        <time>2021-08-08T07:54:16Z</time>
      </trkpt>
      <trkpt lat="48.96391" lon="7.45465">
        <ele>353</ele>
        <time>2021-08-08T07:54:17Z</time>
      </trkpt>
      <trkpt lat="48.96391" lon="7.45465">
        <ele>353</ele>
        <time>2021-08-08T07:54:18Z</time>
      </trkpt>
      <trkpt lat="48.96396" lon="7.45456">
        <ele>353</ele>
        <time>2021-08-08T07:54:19Z</time>
      </trkpt>
      <trkpt lat="48.96396" lon="7.45456">
        <ele>353</ele>
        <time>2021-08-08T07:54:20Z</time>
      </trkpt>
      <trkpt lat="48.96404" lon="7.45447">
        <ele>353</ele>
        <time>2021-08-08T07:54:21Z</time>
      </trkpt>
      <trkpt lat="48.96404" lon="7.45447">
        <ele>353</ele>
        <time>2021-08-08T07:54:22Z</time>
      </trkpt>
      <trkpt lat="48.96411" lon="7.45439">
        <ele>353</ele>
        <time>2021-08-08T07:54:23Z</time>
      </trkpt>
      <trkpt lat="48.96415" lon="7.45435">
        <ele>353</ele>
        <time>2021-08-08T07:54:24Z</time>
      </trkpt>
      <trkpt lat="48.96419" lon="7.45431">
        <ele>353</ele>
        <time>2021-08-08T07:54:25Z</time>
      </trkpt>
      <trkpt lat="48.96419" lon="7.45431">
        <ele>353</ele>
        <time>2021-08-08T07:54:26Z</time>
      </trkpt>
      <trkpt lat="48.96428" lon="7.45427">
        <ele>353</ele>
        <time>2021-08-08T07:54:27Z</time>
      </trkpt>
      <trkpt lat="48.96428" lon="7.45427">
        <ele>351</ele>
        <time>2021-08-08T07:54:28Z</time>
      </trkpt>
      <trkpt lat="48.96437" lon="7.45417">
        <ele>351</ele>
        <time>2021-08-08T07:54:29Z</time>
      </trkpt>
      <trkpt lat="48.96437" lon="7.45417">
        <ele>351</ele>
        <time>2021-08-08T07:54:30Z</time>
      </trkpt>
      <trkpt lat="48.96446" lon="7.45409">
        <ele>351</ele>
        <time>2021-08-08T07:54:31Z</time>
      </trkpt>
      <trkpt lat="48.96446" lon="7.45409">
        <ele>351</ele>
        <time>2021-08-08T07:54:32Z</time>
      </trkpt>
      <trkpt lat="48.96453" lon="7.45401">
        <ele>351</ele>
        <time>2021-08-08T07:54:33Z</time>
      </trkpt>
      <trkpt lat="48.96453" lon="7.45401">
        <ele>350</ele>
        <time>2021-08-08T07:54:34Z</time>
      </trkpt>
      <trkpt lat="48.96463" lon="7.45394">
        <ele>350</ele>
        <time>2021-08-08T07:54:35Z</time>
      </trkpt>
      <trkpt lat="48.96469" lon="7.45392">
        <ele>350</ele>
        <time>2021-08-08T07:54:36Z</time>
      </trkpt>
      <trkpt lat="48.96469" lon="7.45392">
        <ele>350</ele>
        <time>2021-08-08T07:54:37Z</time>
      </trkpt>
      <trkpt lat="48.96478" lon="7.45386">
        <ele>350</ele>
        <time>2021-08-08T07:54:38Z</time>
      </trkpt>
      <trkpt lat="48.96483" lon="7.45383">
        <ele>350</ele>
        <time>2021-08-08T07:54:39Z</time>
      </trkpt>
      <trkpt lat="48.96483" lon="7.45383">
        <ele>350</ele>
        <time>2021-08-08T07:54:40Z</time>
      </trkpt>
      <trkpt lat="48.96491" lon="7.45377">
        <ele>350</ele>
        <time>2021-08-08T07:54:41Z</time>
      </trkpt>
      <trkpt lat="48.96491" lon="7.45377">
        <ele>350</ele>
        <time>2021-08-08T07:54:42Z</time>
      </trkpt>
      <trkpt lat="48.96502" lon="7.45371">
        <ele>350</ele>
        <time>2021-08-08T07:54:43Z</time>
      </trkpt>
      <trkpt lat="48.96509" lon="7.45369">
        <ele>350</ele>
        <time>2021-08-08T07:54:44Z</time>
      </trkpt>
      <trkpt lat="48.96509" lon="7.45369">
        <ele>350</ele>
        <time>2021-08-08T07:54:45Z</time>
      </trkpt>
      <trkpt lat="48.9652" lon="7.45364">
        <ele>350</ele>
        <time>2021-08-08T07:54:46Z</time>
      </trkpt>
      <trkpt lat="48.9652" lon="7.45364">
        <ele>350</ele>
        <time>2021-08-08T07:54:47Z</time>
      </trkpt>
      <trkpt lat="48.96528" lon="7.45361">
        <ele>350</ele>
        <time>2021-08-08T07:54:48Z</time>
      </trkpt>
      <trkpt lat="48.96532" lon="7.45359">
        <ele>350</ele>
        <time>2021-08-08T07:54:49Z</time>
      </trkpt>
      <trkpt lat="48.96532" lon="7.45359">
        <ele>350</ele>
        <time>2021-08-08T07:54:50Z</time>
      </trkpt>
      <trkpt lat="48.9654" lon="7.45355">
        <ele>350</ele>
        <time>2021-08-08T07:54:51Z</time>
      </trkpt>
      <trkpt lat="48.9654" lon="7.45355">
        <ele>350</ele>
        <time>2021-08-08T07:54:52Z</time>
      </trkpt>
      <trkpt lat="48.96546" lon="7.45353">
        <ele>350</ele>
        <time>2021-08-08T07:54:53Z</time>
      </trkpt>
      <trkpt lat="48.96546" lon="7.45353">
        <ele>350</ele>
        <time>2021-08-08T07:54:54Z</time>
      </trkpt>
      <trkpt lat="48.96552" lon="7.45349">
        <ele>350</ele>
        <time>2021-08-08T07:54:55Z</time>
      </trkpt>
      <trkpt lat="48.96552" lon="7.45349">
        <ele>350</ele>
        <time>2021-08-08T07:54:56Z</time>
      </trkpt>
      <trkpt lat="48.96559" lon="7.45344">
        <ele>351</ele>
        <time>2021-08-08T07:54:57Z</time>
      </trkpt>
      <trkpt lat="48.96559" lon="7.45344">
        <ele>351</ele>
        <time>2021-08-08T07:54:58Z</time>
      </trkpt>
      <trkpt lat="48.96565" lon="7.45339">
        <ele>351</ele>
        <time>2021-08-08T07:54:59Z</time>
      </trkpt>
      <trkpt lat="48.96568" lon="7.45338">
        <ele>351</ele>
        <time>2021-08-08T07:55:00Z</time>
      </trkpt>
      <trkpt lat="48.96571" lon="7.45337">
        <ele>351</ele>
        <time>2021-08-08T07:55:01Z</time>
      </trkpt>
      <trkpt lat="48.96571" lon="7.45337">
        <ele>351</ele>
        <time>2021-08-08T07:55:02Z</time>
      </trkpt>
      <trkpt lat="48.96578" lon="7.45333">
        <ele>351</ele>
        <time>2021-08-08T07:55:03Z</time>
      </trkpt>
      <trkpt lat="48.96578" lon="7.45333">
        <ele>351</ele>
        <time>2021-08-08T07:55:04Z</time>
      </trkpt>
      <trkpt lat="48.96585" lon="7.4533">
        <ele>351</ele>
        <time>2021-08-08T07:55:05Z</time>
      </trkpt>
      <trkpt lat="48.96585" lon="7.4533">
        <ele>353</ele>
        <time>2021-08-08T07:55:06Z</time>
      </trkpt>
      <trkpt lat="48.96593" lon="7.45329">
        <ele>353</ele>
        <time>2021-08-08T07:55:07Z</time>
      </trkpt>
      <trkpt lat="48.96593" lon="7.45329">
        <ele>353</ele>
        <time>2021-08-08T07:55:08Z</time>
      </trkpt>
      <trkpt lat="48.96599" lon="7.45329">
        <ele>353</ele>
        <time>2021-08-08T07:55:09Z</time>
      </trkpt>
      <trkpt lat="48.96599" lon="7.45329">
        <ele>353</ele>
        <time>2021-08-08T07:55:10Z</time>
      </trkpt>
      <trkpt lat="48.96605" lon="7.45329">
        <ele>353</ele>
        <time>2021-08-08T07:55:11Z</time>
      </trkpt>
      <trkpt lat="48.96605" lon="7.45329">
        <ele>353</ele>
        <time>2021-08-08T07:55:12Z</time>
      </trkpt>
      <trkpt lat="48.96609" lon="7.4533">
        <ele>353</ele>
        <time>2021-08-08T07:55:13Z</time>
      </trkpt>
      <trkpt lat="48.96609" lon="7.4533">
        <ele>353</ele>
        <time>2021-08-08T07:55:14Z</time>
      </trkpt>
      <trkpt lat="48.96615" lon="7.4533">
        <ele>353</ele>
        <time>2021-08-08T07:55:15Z</time>
      </trkpt>
      <trkpt lat="48.96615" lon="7.4533">
        <ele>355</ele>
        <time>2021-08-08T07:55:16Z</time>
      </trkpt>
      <trkpt lat="48.96619" lon="7.4533">
        <ele>355</ele>
        <time>2021-08-08T07:55:17Z</time>
      </trkpt>
      <trkpt lat="48.96619" lon="7.4533">
        <ele>355</ele>
        <time>2021-08-08T07:55:18Z</time>
      </trkpt>
      <trkpt lat="48.96625" lon="7.45332">
        <ele>355</ele>
        <time>2021-08-08T07:55:19Z</time>
      </trkpt>
      <trkpt lat="48.96625" lon="7.45332">
        <ele>356</ele>
        <time>2021-08-08T07:55:20Z</time>
      </trkpt>
      <trkpt lat="48.9663" lon="7.45334">
        <ele>356</ele>
        <time>2021-08-08T07:55:21Z</time>
      </trkpt>
      <trkpt lat="48.9663" lon="7.45334">
        <ele>356</ele>
        <time>2021-08-08T07:55:22Z</time>
      </trkpt>
      <trkpt lat="48.96633" lon="7.45336">
        <ele>356</ele>
        <time>2021-08-08T07:55:23Z</time>
      </trkpt>
      <trkpt lat="48.96633" lon="7.45336">
        <ele>356</ele>
        <time>2021-08-08T07:55:24Z</time>
      </trkpt>
      <trkpt lat="48.96639" lon="7.4534">
        <ele>356</ele>
        <time>2021-08-08T07:55:25Z</time>
      </trkpt>
      <trkpt lat="48.96639" lon="7.4534">
        <ele>357</ele>
        <time>2021-08-08T07:55:26Z</time>
      </trkpt>
      <trkpt lat="48.96644" lon="7.45343">
        <ele>357</ele>
        <time>2021-08-08T07:55:27Z</time>
      </trkpt>
      <trkpt lat="48.96644" lon="7.45343">
        <ele>357</ele>
        <time>2021-08-08T07:55:28Z</time>
      </trkpt>
      <trkpt lat="48.96649" lon="7.45346">
        <ele>357</ele>
        <time>2021-08-08T07:55:29Z</time>
      </trkpt>
      <trkpt lat="48.96649" lon="7.45346">
        <ele>358</ele>
        <time>2021-08-08T07:55:30Z</time>
      </trkpt>
      <trkpt lat="48.96654" lon="7.45347">
        <ele>358</ele>
        <time>2021-08-08T07:55:31Z</time>
      </trkpt>
      <trkpt lat="48.96654" lon="7.45347">
        <ele>358</ele>
        <time>2021-08-08T07:55:32Z</time>
      </trkpt>
      <trkpt lat="48.96658" lon="7.45348">
        <ele>358</ele>
        <time>2021-08-08T07:55:33Z</time>
      </trkpt>
      <trkpt lat="48.96658" lon="7.45348">
        <ele>359</ele>
        <time>2021-08-08T07:55:34Z</time>
      </trkpt>
      <trkpt lat="48.96661" lon="7.45349">
        <ele>359</ele>
        <time>2021-08-08T07:55:35Z</time>
      </trkpt>
      <trkpt lat="48.96661" lon="7.45349">
        <ele>359</ele>
        <time>2021-08-08T07:55:36Z</time>
      </trkpt>
      <trkpt lat="48.96665" lon="7.45351">
        <ele>360</ele>
        <time>2021-08-08T07:55:37Z</time>
      </trkpt>
      <trkpt lat="48.96665" lon="7.45351">
        <ele>360</ele>
        <time>2021-08-08T07:55:38Z</time>
      </trkpt>
      <trkpt lat="48.96668" lon="7.45351">
        <ele>360</ele>
        <time>2021-08-08T07:55:39Z</time>
      </trkpt>
      <trkpt lat="48.96668" lon="7.45351">
        <ele>360</ele>
        <time>2021-08-08T07:55:40Z</time>
      </trkpt>
      <trkpt lat="48.96672" lon="7.4535">
        <ele>361</ele>
        <time>2021-08-08T07:55:41Z</time>
      </trkpt>
      <trkpt lat="48.96672" lon="7.4535">
        <ele>361</ele>
        <time>2021-08-08T07:55:42Z</time>
      </trkpt>
      <trkpt lat="48.96677" lon="7.45349">
        <ele>361</ele>
        <time>2021-08-08T07:55:43Z</time>
      </trkpt>
      <trkpt lat="48.96677" lon="7.45349">
        <ele>361</ele>
        <time>2021-08-08T07:55:44Z</time>
      </trkpt>
      <trkpt lat="48.96684" lon="7.45348">
        <ele>362</ele>
        <time>2021-08-08T07:55:45Z</time>
      </trkpt>
      <trkpt lat="48.96684" lon="7.45348">
        <ele>362</ele>
        <time>2021-08-08T07:55:46Z</time>
      </trkpt>
      <trkpt lat="48.96689" lon="7.45348">
        <ele>362</ele>
        <time>2021-08-08T07:55:47Z</time>
      </trkpt>
      <trkpt lat="48.96689" lon="7.45348">
        <ele>362</ele>
        <time>2021-08-08T07:55:48Z</time>
      </trkpt>
      <trkpt lat="48.96692" lon="7.45347">
        <ele>362</ele>
        <time>2021-08-08T07:55:49Z</time>
      </trkpt>
      <trkpt lat="48.96692" lon="7.45347">
        <ele>362</ele>
        <time>2021-08-08T07:55:50Z</time>
      </trkpt>
      <trkpt lat="48.96693" lon="7.45345">
        <ele>362</ele>
        <time>2021-08-08T07:55:51Z</time>
      </trkpt>
      <trkpt lat="48.96693" lon="7.45345">
        <ele>362</ele>
        <time>2021-08-08T07:55:52Z</time>
      </trkpt>
      <trkpt lat="48.96696" lon="7.45341">
        <ele>362</ele>
        <time>2021-08-08T07:55:53Z</time>
      </trkpt>
      <trkpt lat="48.96696" lon="7.45341">
        <ele>363</ele>
        <time>2021-08-08T07:55:54Z</time>
      </trkpt>
      <trkpt lat="48.96699" lon="7.4534">
        <ele>363</ele>
        <time>2021-08-08T07:55:55Z</time>
      </trkpt>
      <trkpt lat="48.96699" lon="7.4534">
        <ele>363</ele>
        <time>2021-08-08T07:55:56Z</time>
      </trkpt>
      <trkpt lat="48.967" lon="7.45336">
        <ele>363</ele>
        <time>2021-08-08T07:55:57Z</time>
      </trkpt>
      <trkpt lat="48.967" lon="7.45336">
        <ele>363</ele>
        <time>2021-08-08T07:55:58Z</time>
      </trkpt>
      <trkpt lat="48.96702" lon="7.45333">
        <ele>364</ele>
        <time>2021-08-08T07:55:59Z</time>
      </trkpt>
      <trkpt lat="48.96702" lon="7.45333">
        <ele>364</ele>
        <time>2021-08-08T07:56:00Z</time>
      </trkpt>
      <trkpt lat="48.96704" lon="7.45331">
        <ele>364</ele>
        <time>2021-08-08T07:56:01Z</time>
      </trkpt>
      <trkpt lat="48.96704" lon="7.45331">
        <ele>364</ele>
        <time>2021-08-08T07:56:02Z</time>
      </trkpt>
      <trkpt lat="48.96707" lon="7.45328">
        <ele>364</ele>
        <time>2021-08-08T07:56:03Z</time>
      </trkpt>
      <trkpt lat="48.96709" lon="7.45326">
        <ele>364</ele>
        <time>2021-08-08T07:56:04Z</time>
      </trkpt>
      <trkpt lat="48.96709" lon="7.45326">
        <ele>364</ele>
        <time>2021-08-08T07:56:05Z</time>
      </trkpt>
      <trkpt lat="48.96713" lon="7.45323">
        <ele>364</ele>
        <time>2021-08-08T07:56:06Z</time>
      </trkpt>
      <trkpt lat="48.96714" lon="7.45321">
        <ele>365</ele>
        <time>2021-08-08T07:56:07Z</time>
      </trkpt>
      <trkpt lat="48.96714" lon="7.45321">
        <ele>365</ele>
        <time>2021-08-08T07:56:08Z</time>
      </trkpt>
      <trkpt lat="48.96717" lon="7.45317">
        <ele>365</ele>
        <time>2021-08-08T07:56:09Z</time>
      </trkpt>
      <trkpt lat="48.96718" lon="7.45315">
        <ele>365</ele>
        <time>2021-08-08T07:56:10Z</time>
      </trkpt>
      <trkpt lat="48.96718" lon="7.45315">
        <ele>365</ele>
        <time>2021-08-08T07:56:11Z</time>
      </trkpt>
      <trkpt lat="48.9672" lon="7.45311">
        <ele>365</ele>
        <time>2021-08-08T07:56:12Z</time>
      </trkpt>
      <trkpt lat="48.9672" lon="7.45309">
        <ele>365</ele>
        <time>2021-08-08T07:56:13Z</time>
      </trkpt>
      <trkpt lat="48.9672" lon="7.45309">
        <ele>365</ele>
        <time>2021-08-08T07:56:14Z</time>
      </trkpt>
      <trkpt lat="48.96724" lon="7.45305">
        <ele>365</ele>
        <time>2021-08-08T07:56:15Z</time>
      </trkpt>
      <trkpt lat="48.96724" lon="7.45305">
        <ele>365</ele>
        <time>2021-08-08T07:56:16Z</time>
      </trkpt>
      <trkpt lat="48.9673" lon="7.45299">
        <ele>366</ele>
        <time>2021-08-08T07:56:17Z</time>
      </trkpt>
      <trkpt lat="48.9673" lon="7.45299">
        <ele>366</ele>
        <time>2021-08-08T07:56:18Z</time>
      </trkpt>
      <trkpt lat="48.96734" lon="7.45297">
        <ele>366</ele>
        <time>2021-08-08T07:56:19Z</time>
      </trkpt>
      <trkpt lat="48.96734" lon="7.45297">
        <ele>366</ele>
        <time>2021-08-08T07:56:20Z</time>
      </trkpt>
      <trkpt lat="48.96738" lon="7.45293">
        <ele>366</ele>
        <time>2021-08-08T07:56:21Z</time>
      </trkpt>
      <trkpt lat="48.96738" lon="7.45293">
        <ele>366</ele>
        <time>2021-08-08T07:56:22Z</time>
      </trkpt>
      <trkpt lat="48.96741" lon="7.45289">
        <ele>367</ele>
        <time>2021-08-08T07:56:23Z</time>
      </trkpt>
      <trkpt lat="48.96742" lon="7.45288">
        <ele>367</ele>
        <time>2021-08-08T07:56:24Z</time>
      </trkpt>
      <trkpt lat="48.96743" lon="7.45286">
        <ele>367</ele>
        <time>2021-08-08T07:56:25Z</time>
      </trkpt>
      <trkpt lat="48.96743" lon="7.45286">
        <ele>367</ele>
        <time>2021-08-08T07:56:26Z</time>
      </trkpt>
      <trkpt lat="48.96745" lon="7.45283">
        <ele>368</ele>
        <time>2021-08-08T07:56:27Z</time>
      </trkpt>
      <trkpt lat="48.96745" lon="7.45283">
        <ele>368</ele>
        <time>2021-08-08T07:56:28Z</time>
      </trkpt>
      <trkpt lat="48.96748" lon="7.45276">
        <ele>368</ele>
        <time>2021-08-08T07:56:29Z</time>
      </trkpt>
      <trkpt lat="48.96749" lon="7.45271">
        <ele>368</ele>
        <time>2021-08-08T07:56:30Z</time>
      </trkpt>
      <trkpt lat="48.96749" lon="7.45271">
        <ele>369</ele>
        <time>2021-08-08T07:56:31Z</time>
      </trkpt>
      <trkpt lat="48.96753" lon="7.45266">
        <ele>369</ele>
        <time>2021-08-08T07:56:32Z</time>
      </trkpt>
      <trkpt lat="48.96753" lon="7.45266">
        <ele>369</ele>
        <time>2021-08-08T07:56:33Z</time>
      </trkpt>
      <trkpt lat="48.96755" lon="7.45261">
        <ele>369</ele>
        <time>2021-08-08T07:56:34Z</time>
      </trkpt>
      <trkpt lat="48.96757" lon="7.45258">
        <ele>369</ele>
        <time>2021-08-08T07:56:35Z</time>
      </trkpt>
      <trkpt lat="48.96757" lon="7.45258">
        <ele>369</ele>
        <time>2021-08-08T07:56:36Z</time>
      </trkpt>
      <trkpt lat="48.9676" lon="7.45252">
        <ele>369</ele>
        <time>2021-08-08T07:56:37Z</time>
      </trkpt>
      <trkpt lat="48.9676" lon="7.45252">
        <ele>369</ele>
        <time>2021-08-08T07:56:38Z</time>
      </trkpt>
      <trkpt lat="48.96762" lon="7.45247">
        <ele>371</ele>
        <time>2021-08-08T07:56:39Z</time>
      </trkpt>
      <trkpt lat="48.96762" lon="7.45247">
        <ele>371</ele>
        <time>2021-08-08T07:56:40Z</time>
      </trkpt>
      <trkpt lat="48.96764" lon="7.4524">
        <ele>371</ele>
        <time>2021-08-08T07:56:41Z</time>
      </trkpt>
      <trkpt lat="48.96764" lon="7.4524">
        <ele>371</ele>
        <time>2021-08-08T07:56:42Z</time>
      </trkpt>
      <trkpt lat="48.96767" lon="7.45233">
        <ele>372</ele>
        <time>2021-08-08T07:56:43Z</time>
      </trkpt>
      <trkpt lat="48.96768" lon="7.45231">
        <ele>372</ele>
        <time>2021-08-08T07:56:44Z</time>
      </trkpt>
      <trkpt lat="48.9677" lon="7.45227">
        <ele>372</ele>
        <time>2021-08-08T07:56:45Z</time>
      </trkpt>
      <trkpt lat="48.9677" lon="7.45227">
        <ele>373</ele>
        <time>2021-08-08T07:56:46Z</time>
      </trkpt>
      <trkpt lat="48.96774" lon="7.4522">
        <ele>373</ele>
        <time>2021-08-08T07:56:47Z</time>
      </trkpt>
      <trkpt lat="48.96774" lon="7.4522">
        <ele>374</ele>
        <time>2021-08-08T07:56:48Z</time>
      </trkpt>
      <trkpt lat="48.96778" lon="7.45214">
        <ele>374</ele>
        <time>2021-08-08T07:56:49Z</time>
      </trkpt>
      <trkpt lat="48.96778" lon="7.45214">
        <ele>374</ele>
        <time>2021-08-08T07:56:50Z</time>
      </trkpt>
      <trkpt lat="48.96782" lon="7.45209">
        <ele>374</ele>
        <time>2021-08-08T07:56:51Z</time>
      </trkpt>
      <trkpt lat="48.96783" lon="7.45207">
        <ele>375</ele>
        <time>2021-08-08T07:56:52Z</time>
      </trkpt>
      <trkpt lat="48.96783" lon="7.45207">
        <ele>375</ele>
        <time>2021-08-08T07:56:53Z</time>
      </trkpt>
      <trkpt lat="48.96786" lon="7.45202">
        <ele>375</ele>
        <time>2021-08-08T07:56:54Z</time>
      </trkpt>
      <trkpt lat="48.96787" lon="7.45199">
        <ele>375</ele>
        <time>2021-08-08T07:56:55Z</time>
      </trkpt>
      <trkpt lat="48.96787" lon="7.45199">
        <ele>376</ele>
        <time>2021-08-08T07:56:56Z</time>
      </trkpt>
      <trkpt lat="48.96791" lon="7.45194">
        <ele>376</ele>
        <time>2021-08-08T07:56:57Z</time>
      </trkpt>
      <trkpt lat="48.96791" lon="7.45194">
        <ele>376</ele>
        <time>2021-08-08T07:56:58Z</time>
      </trkpt>
      <trkpt lat="48.96793" lon="7.45189">
        <ele>376</ele>
        <time>2021-08-08T07:56:59Z</time>
      </trkpt>
      <trkpt lat="48.96794" lon="7.45186">
        <ele>376</ele>
        <time>2021-08-08T07:57:00Z</time>
      </trkpt>
      <trkpt lat="48.96796" lon="7.45184">
        <ele>376</ele>
        <time>2021-08-08T07:57:01Z</time>
      </trkpt>
      <trkpt lat="48.96796" lon="7.45184">
        <ele>377</ele>
        <time>2021-08-08T07:57:02Z</time>
      </trkpt>
      <trkpt lat="48.96797" lon="7.45177">
        <ele>377</ele>
        <time>2021-08-08T07:57:03Z</time>
      </trkpt>
      <trkpt lat="48.96797" lon="7.45177">
        <ele>377</ele>
        <time>2021-08-08T07:57:04Z</time>
      </trkpt>
      <trkpt lat="48.96798" lon="7.45171">
        <ele>377</ele>
        <time>2021-08-08T07:57:05Z</time>
      </trkpt>
      <trkpt lat="48.96798" lon="7.45169">
        <ele>377</ele>
        <time>2021-08-08T07:57:06Z</time>
      </trkpt>
      <trkpt lat="48.96799" lon="7.45165">
        <ele>377</ele>
        <time>2021-08-08T07:57:07Z</time>
      </trkpt>
      <trkpt lat="48.96799" lon="7.45165">
        <ele>377</ele>
        <time>2021-08-08T07:57:08Z</time>
      </trkpt>
      <trkpt lat="48.96797" lon="7.45158">
        <ele>377</ele>
        <time>2021-08-08T07:57:09Z</time>
      </trkpt>
      <trkpt lat="48.96797" lon="7.45158">
        <ele>377</ele>
        <time>2021-08-08T07:57:10Z</time>
      </trkpt>
      <trkpt lat="48.96795" lon="7.4515">
        <ele>377</ele>
        <time>2021-08-08T07:57:11Z</time>
      </trkpt>
      <trkpt lat="48.96795" lon="7.4515">
        <ele>377</ele>
        <time>2021-08-08T07:57:12Z</time>
      </trkpt>
      <trkpt lat="48.96794" lon="7.45144">
        <ele>377</ele>
        <time>2021-08-08T07:57:13Z</time>
      </trkpt>
      <trkpt lat="48.96794" lon="7.45144">
        <ele>377</ele>
        <time>2021-08-08T07:57:14Z</time>
      </trkpt>
      <trkpt lat="48.96792" lon="7.45138">
        <ele>377</ele>
        <time>2021-08-08T07:57:15Z</time>
      </trkpt>
      <trkpt lat="48.96792" lon="7.45138">
        <ele>377</ele>
        <time>2021-08-08T07:57:16Z</time>
      </trkpt>
      <trkpt lat="48.96789" lon="7.45131">
        <ele>377</ele>
        <time>2021-08-08T07:57:17Z</time>
      </trkpt>
      <trkpt lat="48.96789" lon="7.45131">
        <ele>378</ele>
        <time>2021-08-08T07:57:18Z</time>
      </trkpt>
      <trkpt lat="48.96788" lon="7.45121">
        <ele>378</ele>
        <time>2021-08-08T07:57:19Z</time>
      </trkpt>
      <trkpt lat="48.96788" lon="7.45121">
        <ele>378</ele>
        <time>2021-08-08T07:57:20Z</time>
      </trkpt>
      <trkpt lat="48.96785" lon="7.45114">
        <ele>378</ele>
        <time>2021-08-08T07:57:21Z</time>
      </trkpt>
      <trkpt lat="48.96785" lon="7.45114">
        <ele>378</ele>
        <time>2021-08-08T07:57:22Z</time>
      </trkpt>
      <trkpt lat="48.96781" lon="7.45107">
        <ele>378</ele>
        <time>2021-08-08T07:57:23Z</time>
      </trkpt>
      <trkpt lat="48.9678" lon="7.45103">
        <ele>378</ele>
        <time>2021-08-08T07:57:24Z</time>
      </trkpt>
      <trkpt lat="48.96778" lon="7.45099">
        <ele>378</ele>
        <time>2021-08-08T07:57:25Z</time>
      </trkpt>
      <trkpt lat="48.96776" lon="7.45095">
        <ele>378</ele>
        <time>2021-08-08T07:57:26Z</time>
      </trkpt>
      <trkpt lat="48.96773" lon="7.45091">
        <ele>378</ele>
        <time>2021-08-08T07:57:27Z</time>
      </trkpt>
      <trkpt lat="48.96773" lon="7.45091">
        <ele>378</ele>
        <time>2021-08-08T07:57:28Z</time>
      </trkpt>
      <trkpt lat="48.96769" lon="7.45082">
        <ele>378</ele>
        <time>2021-08-08T07:57:29Z</time>
      </trkpt>
      <trkpt lat="48.96769" lon="7.45082">
        <ele>378</ele>
        <time>2021-08-08T07:57:30Z</time>
      </trkpt>
      <trkpt lat="48.96765" lon="7.45072">
        <ele>378</ele>
        <time>2021-08-08T07:57:31Z</time>
      </trkpt>
      <trkpt lat="48.96765" lon="7.45072">
        <ele>378</ele>
        <time>2021-08-08T07:57:32Z</time>
      </trkpt>
      <trkpt lat="48.96761" lon="7.45062">
        <ele>378</ele>
        <time>2021-08-08T07:57:33Z</time>
      </trkpt>
      <trkpt lat="48.96761" lon="7.45062">
        <ele>378</ele>
        <time>2021-08-08T07:57:34Z</time>
      </trkpt>
      <trkpt lat="48.96757" lon="7.45052">
        <ele>378</ele>
        <time>2021-08-08T07:57:35Z</time>
      </trkpt>
      <trkpt lat="48.96757" lon="7.45052">
        <ele>378</ele>
        <time>2021-08-08T07:57:36Z</time>
      </trkpt>
      <trkpt lat="48.96752" lon="7.45042">
        <ele>377</ele>
        <time>2021-08-08T07:57:37Z</time>
      </trkpt>
      <trkpt lat="48.96752" lon="7.45042">
        <ele>377</ele>
        <time>2021-08-08T07:57:38Z</time>
      </trkpt>
      <trkpt lat="48.96749" lon="7.45031">
        <ele>377</ele>
        <time>2021-08-08T07:57:39Z</time>
      </trkpt>
      <trkpt lat="48.96747" lon="7.45025">
        <ele>377</ele>
        <time>2021-08-08T07:57:40Z</time>
      </trkpt>
      <trkpt lat="48.96747" lon="7.45025">
        <ele>377</ele>
        <time>2021-08-08T07:57:41Z</time>
      </trkpt>
      <trkpt lat="48.96743" lon="7.45016">
        <ele>377</ele>
        <time>2021-08-08T07:57:42Z</time>
      </trkpt>
      <trkpt lat="48.96741" lon="7.45011">
        <ele>376</ele>
        <time>2021-08-08T07:57:43Z</time>
      </trkpt>
      <trkpt lat="48.96741" lon="7.45011">
        <ele>376</ele>
        <time>2021-08-08T07:57:44Z</time>
      </trkpt>
      <trkpt lat="48.96737" lon="7.45">
        <ele>376</ele>
        <time>2021-08-08T07:57:45Z</time>
      </trkpt>
      <trkpt lat="48.96737" lon="7.45">
        <ele>376</ele>
        <time>2021-08-08T07:57:46Z</time>
      </trkpt>
      <trkpt lat="48.96734" lon="7.4499">
        <ele>376</ele>
        <time>2021-08-08T07:57:47Z</time>
      </trkpt>
      <trkpt lat="48.96734" lon="7.4499">
        <ele>376</ele>
        <time>2021-08-08T07:57:48Z</time>
      </trkpt>
      <trkpt lat="48.9673" lon="7.4498">
        <ele>376</ele>
        <time>2021-08-08T07:57:49Z</time>
      </trkpt>
      <trkpt lat="48.9673" lon="7.4498">
        <ele>376</ele>
        <time>2021-08-08T07:57:50Z</time>
      </trkpt>
      <trkpt lat="48.96725" lon="7.44971">
        <ele>376</ele>
        <time>2021-08-08T07:57:51Z</time>
      </trkpt>
      <trkpt lat="48.96725" lon="7.44971">
        <ele>376</ele>
        <time>2021-08-08T07:57:52Z</time>
      </trkpt>
      <trkpt lat="48.9672" lon="7.44961">
        <ele>376</ele>
        <time>2021-08-08T07:57:53Z</time>
      </trkpt>
      <trkpt lat="48.96717" lon="7.44955">
        <ele>376</ele>
        <time>2021-08-08T07:57:54Z</time>
      </trkpt>
      <trkpt lat="48.96717" lon="7.44955">
        <ele>376</ele>
        <time>2021-08-08T07:57:55Z</time>
      </trkpt>
      <trkpt lat="48.96713" lon="7.44946">
        <ele>376</ele>
        <time>2021-08-08T07:57:56Z</time>
      </trkpt>
      <trkpt lat="48.96711" lon="7.4494">
        <ele>375</ele>
        <time>2021-08-08T07:57:57Z</time>
      </trkpt>
      <trkpt lat="48.96711" lon="7.4494">
        <ele>375</ele>
        <time>2021-08-08T07:57:58Z</time>
      </trkpt>
      <trkpt lat="48.96709" lon="7.4493">
        <ele>375</ele>
        <time>2021-08-08T07:57:59Z</time>
      </trkpt>
      <trkpt lat="48.96709" lon="7.4493">
        <ele>375</ele>
        <time>2021-08-08T07:58:00Z</time>
      </trkpt>
      <trkpt lat="48.96706" lon="7.44921">
        <ele>375</ele>
        <time>2021-08-08T07:58:01Z</time>
      </trkpt>
      <trkpt lat="48.96706" lon="7.44921">
        <ele>375</ele>
        <time>2021-08-08T07:58:02Z</time>
      </trkpt>
      <trkpt lat="48.96703" lon="7.44913">
        <ele>374</ele>
        <time>2021-08-08T07:58:03Z</time>
      </trkpt>
      <trkpt lat="48.96703" lon="7.44913">
        <ele>374</ele>
        <time>2021-08-08T07:58:04Z</time>
      </trkpt>
      <trkpt lat="48.96698" lon="7.44906">
        <ele>374</ele>
        <time>2021-08-08T07:58:05Z</time>
      </trkpt>
      <trkpt lat="48.96698" lon="7.44906">
        <ele>374</ele>
        <time>2021-08-08T07:58:06Z</time>
      </trkpt>
      <trkpt lat="48.96693" lon="7.44898">
        <ele>373</ele>
        <time>2021-08-08T07:58:07Z</time>
      </trkpt>
      <trkpt lat="48.96693" lon="7.44898">
        <ele>373</ele>
        <time>2021-08-08T07:58:08Z</time>
      </trkpt>
      <trkpt lat="48.96689" lon="7.4489">
        <ele>373</ele>
        <time>2021-08-08T07:58:09Z</time>
      </trkpt>
      <trkpt lat="48.96689" lon="7.4489">
        <ele>373</ele>
        <time>2021-08-08T07:58:10Z</time>
      </trkpt>
      <trkpt lat="48.96686" lon="7.44878">
        <ele>373</ele>
        <time>2021-08-08T07:58:11Z</time>
      </trkpt>
      <trkpt lat="48.96686" lon="7.44878">
        <ele>373</ele>
        <time>2021-08-08T07:58:12Z</time>
      </trkpt>
      <trkpt lat="48.96682" lon="7.44867">
        <ele>373</ele>
        <time>2021-08-08T07:58:13Z</time>
      </trkpt>
      <trkpt lat="48.96682" lon="7.44867">
        <ele>373</ele>
        <time>2021-08-08T07:58:14Z</time>
      </trkpt>
      <trkpt lat="48.96678" lon="7.44856">
        <ele>373</ele>
        <time>2021-08-08T07:58:15Z</time>
      </trkpt>
      <trkpt lat="48.96678" lon="7.44856">
        <ele>372</ele>
        <time>2021-08-08T07:58:16Z</time>
      </trkpt>
      <trkpt lat="48.96674" lon="7.44846">
        <ele>372</ele>
        <time>2021-08-08T07:58:17Z</time>
      </trkpt>
      <trkpt lat="48.96674" lon="7.44846">
        <ele>372</ele>
        <time>2021-08-08T07:58:18Z</time>
      </trkpt>
      <trkpt lat="48.9667" lon="7.44839">
        <ele>372</ele>
        <time>2021-08-08T07:58:19Z</time>
      </trkpt>
      <trkpt lat="48.96665" lon="7.44834">
        <ele>372</ele>
        <time>2021-08-08T07:58:20Z</time>
      </trkpt>
      <trkpt lat="48.96665" lon="7.44834">
        <ele>372</ele>
        <time>2021-08-08T07:58:21Z</time>
      </trkpt>
      <trkpt lat="48.96658" lon="7.44824">
        <ele>372</ele>
        <time>2021-08-08T07:58:22Z</time>
      </trkpt>
      <trkpt lat="48.96658" lon="7.44824">
        <ele>372</ele>
        <time>2021-08-08T07:58:23Z</time>
      </trkpt>
      <trkpt lat="48.96652" lon="7.4481">
        <ele>372</ele>
        <time>2021-08-08T07:58:24Z</time>
      </trkpt>
      <trkpt lat="48.96652" lon="7.4481">
        <ele>371</ele>
        <time>2021-08-08T07:58:25Z</time>
      </trkpt>
      <trkpt lat="48.96644" lon="7.44795">
        <ele>370</ele>
        <time>2021-08-08T07:58:26Z</time>
      </trkpt>
      <trkpt lat="48.96641" lon="7.44789">
        <ele>370</ele>
        <time>2021-08-08T07:58:27Z</time>
      </trkpt>
      <trkpt lat="48.96641" lon="7.44789">
        <ele>370</ele>
        <time>2021-08-08T07:58:28Z</time>
      </trkpt>
      <trkpt lat="48.96634" lon="7.44774">
        <ele>370</ele>
        <time>2021-08-08T07:58:29Z</time>
      </trkpt>
      <trkpt lat="48.96629" lon="7.44766">
        <ele>368</ele>
        <time>2021-08-08T07:58:30Z</time>
      </trkpt>
      <trkpt lat="48.96625" lon="7.44759">
        <ele>368</ele>
        <time>2021-08-08T07:58:31Z</time>
      </trkpt>
      <trkpt lat="48.96625" lon="7.44759">
        <ele>368</ele>
        <time>2021-08-08T07:58:32Z</time>
      </trkpt>
      <trkpt lat="48.96616" lon="7.44743">
        <ele>367</ele>
        <time>2021-08-08T07:58:33Z</time>
      </trkpt>
      <trkpt lat="48.96616" lon="7.44743">
        <ele>367</ele>
        <time>2021-08-08T07:58:34Z</time>
      </trkpt>
      <trkpt lat="48.96609" lon="7.44727">
        <ele>366</ele>
        <time>2021-08-08T07:58:35Z</time>
      </trkpt>
      <trkpt lat="48.96609" lon="7.44727">
        <ele>366</ele>
        <time>2021-08-08T07:58:36Z</time>
      </trkpt>
      <trkpt lat="48.96603" lon="7.44713">
        <ele>365</ele>
        <time>2021-08-08T07:58:37Z</time>
      </trkpt>
      <trkpt lat="48.96603" lon="7.44713">
        <ele>365</ele>
        <time>2021-08-08T07:58:38Z</time>
      </trkpt>
      <trkpt lat="48.96594" lon="7.44703">
        <ele>364</ele>
        <time>2021-08-08T07:58:39Z</time>
      </trkpt>
      <trkpt lat="48.96594" lon="7.44703">
        <ele>364</ele>
        <time>2021-08-08T07:58:40Z</time>
      </trkpt>
      <trkpt lat="48.96585" lon="7.44698">
        <ele>362</ele>
        <time>2021-08-08T07:58:41Z</time>
      </trkpt>
      <trkpt lat="48.96585" lon="7.44698">
        <ele>362</ele>
        <time>2021-08-08T07:58:42Z</time>
      </trkpt>
      <trkpt lat="48.96575" lon="7.44692">
        <ele>362</ele>
        <time>2021-08-08T07:58:43Z</time>
      </trkpt>
      <trkpt lat="48.96575" lon="7.44692">
        <ele>362</ele>
        <time>2021-08-08T07:58:44Z</time>
      </trkpt>
      <trkpt lat="48.96566" lon="7.4468">
        <ele>360</ele>
        <time>2021-08-08T07:58:45Z</time>
      </trkpt>
      <trkpt lat="48.96566" lon="7.4468">
        <ele>360</ele>
        <time>2021-08-08T07:58:46Z</time>
      </trkpt>
      <trkpt lat="48.96556" lon="7.44668">
        <ele>359</ele>
        <time>2021-08-08T07:58:47Z</time>
      </trkpt>
      <trkpt lat="48.96556" lon="7.44668">
        <ele>359</ele>
        <time>2021-08-08T07:58:48Z</time>
      </trkpt>
      <trkpt lat="48.96545" lon="7.44655">
        <ele>358</ele>
        <time>2021-08-08T07:58:49Z</time>
      </trkpt>
      <trkpt lat="48.96539" lon="7.44649">
        <ele>358</ele>
        <time>2021-08-08T07:58:50Z</time>
      </trkpt>
      <trkpt lat="48.96532" lon="7.44641">
        <ele>357</ele>
        <time>2021-08-08T07:58:51Z</time>
      </trkpt>
      <trkpt lat="48.96532" lon="7.44641">
        <ele>357</ele>
        <time>2021-08-08T07:58:52Z</time>
      </trkpt>
      <trkpt lat="48.96522" lon="7.44628">
        <ele>357</ele>
        <time>2021-08-08T07:58:53Z</time>
      </trkpt>
      <trkpt lat="48.96522" lon="7.44628">
        <ele>357</ele>
        <time>2021-08-08T07:58:54Z</time>
      </trkpt>
      <trkpt lat="48.96515" lon="7.44615">
        <ele>356</ele>
        <time>2021-08-08T07:58:55Z</time>
      </trkpt>
      <trkpt lat="48.96512" lon="7.44608">
        <ele>356</ele>
        <time>2021-08-08T07:58:56Z</time>
      </trkpt>
      <trkpt lat="48.96512" lon="7.44608">
        <ele>356</ele>
        <time>2021-08-08T07:58:57Z</time>
      </trkpt>
      <trkpt lat="48.96505" lon="7.44595">
        <ele>356</ele>
        <time>2021-08-08T07:58:58Z</time>
      </trkpt>
      <trkpt lat="48.96505" lon="7.44595">
        <ele>356</ele>
        <time>2021-08-08T07:58:59Z</time>
      </trkpt>
      <trkpt lat="48.965" lon="7.44583">
        <ele>356</ele>
        <time>2021-08-08T07:59:00Z</time>
      </trkpt>
      <trkpt lat="48.96497" lon="7.44577">
        <ele>356</ele>
        <time>2021-08-08T07:59:01Z</time>
      </trkpt>
      <trkpt lat="48.96497" lon="7.44577">
        <ele>356</ele>
        <time>2021-08-08T07:59:02Z</time>
      </trkpt>
      <trkpt lat="48.96492" lon="7.44566">
        <ele>356</ele>
        <time>2021-08-08T07:59:03Z</time>
      </trkpt>
      <trkpt lat="48.96492" lon="7.44566">
        <ele>356</ele>
        <time>2021-08-08T07:59:04Z</time>
      </trkpt>
      <trkpt lat="48.96485" lon="7.44555">
        <ele>356</ele>
        <time>2021-08-08T07:59:05Z</time>
      </trkpt>
      <trkpt lat="48.96485" lon="7.44555">
        <ele>356</ele>
        <time>2021-08-08T07:59:06Z</time>
      </trkpt>
      <trkpt lat="48.96479" lon="7.44548">
        <ele>356</ele>
        <time>2021-08-08T07:59:07Z</time>
      </trkpt>
      <trkpt lat="48.96479" lon="7.44548">
        <ele>356</ele>
        <time>2021-08-08T07:59:08Z</time>
      </trkpt>
      <trkpt lat="48.96474" lon="7.44541">
        <ele>356</ele>
        <time>2021-08-08T07:59:09Z</time>
      </trkpt>
      <trkpt lat="48.96474" lon="7.44541">
        <ele>356</ele>
        <time>2021-08-08T07:59:10Z</time>
      </trkpt>
      <trkpt lat="48.96467" lon="7.44531">
        <ele>356</ele>
        <time>2021-08-08T07:59:11Z</time>
      </trkpt>
      <trkpt lat="48.96467" lon="7.44531">
        <ele>356</ele>
        <time>2021-08-08T07:59:12Z</time>
      </trkpt>
      <trkpt lat="48.96461" lon="7.44523">
        <ele>356</ele>
        <time>2021-08-08T07:59:13Z</time>
      </trkpt>
      <trkpt lat="48.96459" lon="7.44519">
        <ele>356</ele>
        <time>2021-08-08T07:59:14Z</time>
      </trkpt>
      <trkpt lat="48.96459" lon="7.44519">
        <ele>356</ele>
        <time>2021-08-08T07:59:15Z</time>
      </trkpt>
      <trkpt lat="48.96456" lon="7.44511">
        <ele>356</ele>
        <time>2021-08-08T07:59:16Z</time>
      </trkpt>
      <trkpt lat="48.96456" lon="7.44511">
        <ele>356</ele>
        <time>2021-08-08T07:59:17Z</time>
      </trkpt>
      <trkpt lat="48.96453" lon="7.44501">
        <ele>356</ele>
        <time>2021-08-08T07:59:18Z</time>
      </trkpt>
      <trkpt lat="48.96451" lon="7.44496">
        <ele>356</ele>
        <time>2021-08-08T07:59:19Z</time>
      </trkpt>
      <trkpt lat="48.96451" lon="7.44496">
        <ele>356</ele>
        <time>2021-08-08T07:59:20Z</time>
      </trkpt>
      <trkpt lat="48.96446" lon="7.44484">
        <ele>356</ele>
        <time>2021-08-08T07:59:21Z</time>
      </trkpt>
      <trkpt lat="48.96446" lon="7.44484">
        <ele>356</ele>
        <time>2021-08-08T07:59:22Z</time>
      </trkpt>
      <trkpt lat="48.96441" lon="7.44469">
        <ele>356</ele>
        <time>2021-08-08T07:59:23Z</time>
      </trkpt>
      <trkpt lat="48.96441" lon="7.44469">
        <ele>356</ele>
        <time>2021-08-08T07:59:24Z</time>
      </trkpt>
      <trkpt lat="48.96435" lon="7.44455">
        <ele>356</ele>
        <time>2021-08-08T07:59:25Z</time>
      </trkpt>
      <trkpt lat="48.96435" lon="7.44455">
        <ele>356</ele>
        <time>2021-08-08T07:59:26Z</time>
      </trkpt>
      <trkpt lat="48.9643" lon="7.4444">
        <ele>356</ele>
        <time>2021-08-08T07:59:27Z</time>
      </trkpt>
      <trkpt lat="48.9643" lon="7.4444">
        <ele>356</ele>
        <time>2021-08-08T07:59:28Z</time>
      </trkpt>
      <trkpt lat="48.96424" lon="7.44426">
        <ele>356</ele>
        <time>2021-08-08T07:59:29Z</time>
      </trkpt>
      <trkpt lat="48.96424" lon="7.44426">
        <ele>355</ele>
        <time>2021-08-08T07:59:30Z</time>
      </trkpt>
      <trkpt lat="48.96416" lon="7.44412">
        <ele>355</ele>
        <time>2021-08-08T07:59:31Z</time>
      </trkpt>
      <trkpt lat="48.96416" lon="7.44412">
        <ele>355</ele>
        <time>2021-08-08T07:59:32Z</time>
      </trkpt>
      <trkpt lat="48.96407" lon="7.44402">
        <ele>354</ele>
        <time>2021-08-08T07:59:33Z</time>
      </trkpt>
      <trkpt lat="48.96407" lon="7.44402">
        <ele>354</ele>
        <time>2021-08-08T07:59:34Z</time>
      </trkpt>
      <trkpt lat="48.96402" lon="7.44392">
        <ele>353</ele>
        <time>2021-08-08T07:59:35Z</time>
      </trkpt>
      <trkpt lat="48.96402" lon="7.44392">
        <ele>353</ele>
        <time>2021-08-08T07:59:36Z</time>
      </trkpt>
      <trkpt lat="48.96398" lon="7.44378">
        <ele>352</ele>
        <time>2021-08-08T07:59:37Z</time>
      </trkpt>
      <trkpt lat="48.96398" lon="7.44378">
        <ele>352</ele>
        <time>2021-08-08T07:59:38Z</time>
      </trkpt>
      <trkpt lat="48.96394" lon="7.44363">
        <ele>351</ele>
        <time>2021-08-08T07:59:39Z</time>
      </trkpt>
      <trkpt lat="48.96394" lon="7.44363">
        <ele>351</ele>
        <time>2021-08-08T07:59:40Z</time>
      </trkpt>
      <trkpt lat="48.96397" lon="7.44352">
        <ele>350</ele>
        <time>2021-08-08T07:59:41Z</time>
      </trkpt>
      <trkpt lat="48.96397" lon="7.44352">
        <ele>350</ele>
        <time>2021-08-08T07:59:42Z</time>
      </trkpt>
      <trkpt lat="48.96399" lon="7.44343">
        <ele>349</ele>
        <time>2021-08-08T07:59:43Z</time>
      </trkpt>
      <trkpt lat="48.96401" lon="7.44337">
        <ele>349</ele>
        <time>2021-08-08T07:59:44Z</time>
      </trkpt>
      <trkpt lat="48.96401" lon="7.44337">
        <ele>348</ele>
        <time>2021-08-08T07:59:45Z</time>
      </trkpt>
      <trkpt lat="48.96407" lon="7.44326">
        <ele>348</ele>
        <time>2021-08-08T07:59:46Z</time>
      </trkpt>
      <trkpt lat="48.96407" lon="7.44326">
        <ele>346</ele>
        <time>2021-08-08T07:59:47Z</time>
      </trkpt>
      <trkpt lat="48.96414" lon="7.44315">
        <ele>346</ele>
        <time>2021-08-08T07:59:48Z</time>
      </trkpt>
      <trkpt lat="48.96416" lon="7.4431">
        <ele>345</ele>
        <time>2021-08-08T07:59:49Z</time>
      </trkpt>
      <trkpt lat="48.96416" lon="7.4431">
        <ele>345</ele>
        <time>2021-08-08T07:59:50Z</time>
      </trkpt>
      <trkpt lat="48.96417" lon="7.44298">
        <ele>343</ele>
        <time>2021-08-08T07:59:51Z</time>
      </trkpt>
      <trkpt lat="48.96417" lon="7.44291">
        <ele>343</ele>
        <time>2021-08-08T07:59:52Z</time>
      </trkpt>
      <trkpt lat="48.96417" lon="7.44291">
        <ele>342</ele>
        <time>2021-08-08T07:59:53Z</time>
      </trkpt>
      <trkpt lat="48.9642" lon="7.44276">
        <ele>342</ele>
        <time>2021-08-08T07:59:54Z</time>
      </trkpt>
      <trkpt lat="48.96422" lon="7.44271">
        <ele>341</ele>
        <time>2021-08-08T07:59:55Z</time>
      </trkpt>
      <trkpt lat="48.96422" lon="7.44271">
        <ele>341</ele>
        <time>2021-08-08T07:59:56Z</time>
      </trkpt>
      <trkpt lat="48.96422" lon="7.44263">
        <ele>340</ele>
        <time>2021-08-08T07:59:57Z</time>
      </trkpt>
      <trkpt lat="48.96422" lon="7.44263">
        <ele>340</ele>
        <time>2021-08-08T07:59:58Z</time>
      </trkpt>
      <trkpt lat="48.96421" lon="7.44252">
        <ele>339</ele>
        <time>2021-08-08T07:59:59Z</time>
      </trkpt>
      <trkpt lat="48.96421" lon="7.44252">
        <ele>339</ele>
        <time>2021-08-08T08:00:00Z</time>
      </trkpt>
      <trkpt lat="48.96421" lon="7.44242">
        <ele>339</ele>
        <time>2021-08-08T08:00:01Z</time>
      </trkpt>
      <trkpt lat="48.9642" lon="7.44238">
        <ele>339</ele>
        <time>2021-08-08T08:00:02Z</time>
      </trkpt>
      <trkpt lat="48.9642" lon="7.44238">
        <ele>339</ele>
        <time>2021-08-08T08:00:03Z</time>
      </trkpt>
      <trkpt lat="48.96419" lon="7.44232">
        <ele>339</ele>
        <time>2021-08-08T08:00:04Z</time>
      </trkpt>
      <trkpt lat="48.96419" lon="7.4423">
        <ele>339</ele>
        <time>2021-08-08T08:00:05Z</time>
      </trkpt>
      <trkpt lat="48.96419" lon="7.4423">
        <ele>339</ele>
        <time>2021-08-08T08:00:06Z</time>
      </trkpt>
      <trkpt lat="48.9642" lon="7.44225">
        <ele>339</ele>
        <time>2021-08-08T08:00:07Z</time>
      </trkpt>
      <trkpt lat="48.9642" lon="7.44225">
        <ele>339</ele>
        <time>2021-08-08T08:00:08Z</time>
      </trkpt>
      <trkpt lat="48.96422" lon="7.44222">
        <ele>339</ele>
        <time>2021-08-08T08:00:09Z</time>
      </trkpt>
      <trkpt lat="48.96422" lon="7.44222">
        <ele>339</ele>
        <time>2021-08-08T08:00:10Z</time>
      </trkpt>
      <trkpt lat="48.96423" lon="7.4422">
        <ele>339</ele>
        <time>2021-08-08T08:00:11Z</time>
      </trkpt>
      <trkpt lat="48.96423" lon="7.4422">
        <ele>339</ele>
        <time>2021-08-08T08:00:12Z</time>
      </trkpt>
      <trkpt lat="48.96424" lon="7.44218">
        <ele>339</ele>
        <time>2021-08-08T08:00:13Z</time>
      </trkpt>
      <trkpt lat="48.96424" lon="7.44218">
        <ele>339</ele>
        <time>2021-08-08T08:00:14Z</time>
      </trkpt>
      <trkpt lat="48.96425" lon="7.44217">
        <ele>339</ele>
        <time>2021-08-08T08:02:24Z</time>
      </trkpt>
      <trkpt lat="48.96433" lon="7.44211">
        <ele>339</ele>
        <time>2021-08-08T08:02:25Z</time>
      </trkpt>
      <trkpt lat="48.96433" lon="7.44211">
        <ele>339</ele>
        <time>2021-08-08T08:02:26Z</time>
      </trkpt>
      <trkpt lat="48.96433" lon="7.44209">
        <ele>339</ele>
        <time>2021-08-08T08:02:51Z</time>
      </trkpt>
      <trkpt lat="48.96433" lon="7.44209">
        <ele>339</ele>
        <time>2021-08-08T08:02:52Z</time>
      </trkpt>
      <trkpt lat="48.96431" lon="7.44194">
        <ele>339</ele>
        <time>2021-08-08T08:02:53Z</time>
      </trkpt>
      <trkpt lat="48.96431" lon="7.44194">
        <ele>339</ele>
        <time>2021-08-08T08:02:54Z</time>
      </trkpt>
      <trkpt lat="48.96432" lon="7.44189">
        <ele>339</ele>
        <time>2021-08-08T08:02:55Z</time>
      </trkpt>
      <trkpt lat="48.96432" lon="7.44189">
        <ele>339</ele>
        <time>2021-08-08T08:02:56Z</time>
      </trkpt>
      <trkpt lat="48.96433" lon="7.44184">
        <ele>339</ele>
        <time>2021-08-08T08:02:57Z</time>
      </trkpt>
      <trkpt lat="48.96433" lon="7.44184">
        <ele>339</ele>
        <time>2021-08-08T08:02:58Z</time>
      </trkpt>
      <trkpt lat="48.96434" lon="7.44178">
        <ele>339</ele>
        <time>2021-08-08T08:02:59Z</time>
      </trkpt>
      <trkpt lat="48.96434" lon="7.44178">
        <ele>339</ele>
        <time>2021-08-08T08:03:00Z</time>
      </trkpt>
      <trkpt lat="48.96435" lon="7.44171">
        <ele>339</ele>
        <time>2021-08-08T08:03:01Z</time>
      </trkpt>
      <trkpt lat="48.96435" lon="7.44171">
        <ele>339</ele>
        <time>2021-08-08T08:03:02Z</time>
      </trkpt>
      <trkpt lat="48.96437" lon="7.44164">
        <ele>340</ele>
        <time>2021-08-08T08:03:03Z</time>
      </trkpt>
      <trkpt lat="48.96437" lon="7.44164">
        <ele>340</ele>
        <time>2021-08-08T08:03:04Z</time>
      </trkpt>
      <trkpt lat="48.96438" lon="7.44157">
        <ele>340</ele>
        <time>2021-08-08T08:03:05Z</time>
      </trkpt>
      <trkpt lat="48.96438" lon="7.44157">
        <ele>340</ele>
        <time>2021-08-08T08:03:06Z</time>
      </trkpt>
      <trkpt lat="48.96439" lon="7.4415">
        <ele>340</ele>
        <time>2021-08-08T08:03:07Z</time>
      </trkpt>
      <trkpt lat="48.96439" lon="7.4415">
        <ele>340</ele>
        <time>2021-08-08T08:03:08Z</time>
      </trkpt>
      <trkpt lat="48.96441" lon="7.44143">
        <ele>340</ele>
        <time>2021-08-08T08:03:09Z</time>
      </trkpt>
      <trkpt lat="48.96441" lon="7.44143">
        <ele>341</ele>
        <time>2021-08-08T08:03:10Z</time>
      </trkpt>
      <trkpt lat="48.96442" lon="7.44136">
        <ele>341</ele>
        <time>2021-08-08T08:03:11Z</time>
      </trkpt>
      <trkpt lat="48.96442" lon="7.44136">
        <ele>341</ele>
        <time>2021-08-08T08:03:12Z</time>
      </trkpt>
      <trkpt lat="48.96443" lon="7.44129">
        <ele>341</ele>
        <time>2021-08-08T08:03:13Z</time>
      </trkpt>
      <trkpt lat="48.96443" lon="7.44129">
        <ele>341</ele>
        <time>2021-08-08T08:03:14Z</time>
      </trkpt>
      <trkpt lat="48.96444" lon="7.44122">
        <ele>341</ele>
        <time>2021-08-08T08:03:15Z</time>
      </trkpt>
      <trkpt lat="48.96445" lon="7.44119">
        <ele>342</ele>
        <time>2021-08-08T08:03:16Z</time>
      </trkpt>
      <trkpt lat="48.96445" lon="7.44119">
        <ele>342</ele>
        <time>2021-08-08T08:03:17Z</time>
      </trkpt>
      <trkpt lat="48.96446" lon="7.44112">
        <ele>342</ele>
        <time>2021-08-08T08:03:18Z</time>
      </trkpt>
      <trkpt lat="48.96447" lon="7.44108">
        <ele>342</ele>
        <time>2021-08-08T08:03:19Z</time>
      </trkpt>
      <trkpt lat="48.96447" lon="7.44108">
        <ele>342</ele>
        <time>2021-08-08T08:03:20Z</time>
      </trkpt>
      <trkpt lat="48.96447" lon="7.44101">
        <ele>342</ele>
        <time>2021-08-08T08:03:21Z</time>
      </trkpt>
      <trkpt lat="48.96447" lon="7.44101">
        <ele>342</ele>
        <time>2021-08-08T08:03:22Z</time>
      </trkpt>
      <trkpt lat="48.96449" lon="7.44095">
        <ele>342</ele>
        <time>2021-08-08T08:03:23Z</time>
      </trkpt>
      <trkpt lat="48.9645" lon="7.44092">
        <ele>342</ele>
        <time>2021-08-08T08:03:24Z</time>
      </trkpt>
      <trkpt lat="48.96452" lon="7.44088">
        <ele>342</ele>
        <time>2021-08-08T08:03:25Z</time>
      </trkpt>
      <trkpt lat="48.96452" lon="7.44088">
        <ele>344</ele>
        <time>2021-08-08T08:03:26Z</time>
      </trkpt>
      <trkpt lat="48.96453" lon="7.44081">
        <ele>344</ele>
        <time>2021-08-08T08:03:27Z</time>
      </trkpt>
      <trkpt lat="48.96453" lon="7.44081">
        <ele>344</ele>
        <time>2021-08-08T08:03:28Z</time>
      </trkpt>
      <trkpt lat="48.96455" lon="7.44076">
        <ele>344</ele>
        <time>2021-08-08T08:03:29Z</time>
      </trkpt>
      <trkpt lat="48.96455" lon="7.44076">
        <ele>345</ele>
        <time>2021-08-08T08:03:30Z</time>
      </trkpt>
      <trkpt lat="48.96456" lon="7.4407">
        <ele>345</ele>
        <time>2021-08-08T08:03:31Z</time>
      </trkpt>
      <trkpt lat="48.96456" lon="7.4407">
        <ele>345</ele>
        <time>2021-08-08T08:03:32Z</time>
      </trkpt>
      <trkpt lat="48.96458" lon="7.44063">
        <ele>345</ele>
        <time>2021-08-08T08:03:33Z</time>
      </trkpt>
      <trkpt lat="48.96458" lon="7.44063">
        <ele>346</ele>
        <time>2021-08-08T08:03:34Z</time>
      </trkpt>
      <trkpt lat="48.9646" lon="7.44057">
        <ele>346</ele>
        <time>2021-08-08T08:03:35Z</time>
      </trkpt>
      <trkpt lat="48.96461" lon="7.44055">
        <ele>346</ele>
        <time>2021-08-08T08:03:36Z</time>
      </trkpt>
      <trkpt lat="48.96461" lon="7.44055">
        <ele>346</ele>
        <time>2021-08-08T08:03:37Z</time>
      </trkpt>
      <trkpt lat="48.96463" lon="7.44049">
        <ele>346</ele>
        <time>2021-08-08T08:03:38Z</time>
      </trkpt>
      <trkpt lat="48.96464" lon="7.44045">
        <ele>346</ele>
        <time>2021-08-08T08:03:39Z</time>
      </trkpt>
      <trkpt lat="48.96464" lon="7.44045">
        <ele>346</ele>
        <time>2021-08-08T08:03:40Z</time>
      </trkpt>
      <trkpt lat="48.96466" lon="7.44038">
        <ele>346</ele>
        <time>2021-08-08T08:03:41Z</time>
      </trkpt>
      <trkpt lat="48.96466" lon="7.44038">
        <ele>346</ele>
        <time>2021-08-08T08:03:42Z</time>
      </trkpt>
      <trkpt lat="48.96469" lon="7.44032">
        <ele>346</ele>
        <time>2021-08-08T08:03:43Z</time>
      </trkpt>
      <trkpt lat="48.96469" lon="7.44032">
        <ele>346</ele>
        <time>2021-08-08T08:03:44Z</time>
      </trkpt>
      <trkpt lat="48.9647" lon="7.44027">
        <ele>346</ele>
        <time>2021-08-08T08:03:45Z</time>
      </trkpt>
      <trkpt lat="48.96471" lon="7.44025">
        <ele>346</ele>
        <time>2021-08-08T08:03:46Z</time>
      </trkpt>
      <trkpt lat="48.96471" lon="7.44025">
        <ele>346</ele>
        <time>2021-08-08T08:03:47Z</time>
      </trkpt>
      <trkpt lat="48.96472" lon="7.44019">
        <ele>346</ele>
        <time>2021-08-08T08:03:48Z</time>
      </trkpt>
      <trkpt lat="48.96473" lon="7.44016">
        <ele>347</ele>
        <time>2021-08-08T08:03:49Z</time>
      </trkpt>
      <trkpt lat="48.96473" lon="7.44016">
        <ele>347</ele>
        <time>2021-08-08T08:03:50Z</time>
      </trkpt>
      <trkpt lat="48.96475" lon="7.44009">
        <ele>347</ele>
        <time>2021-08-08T08:03:51Z</time>
      </trkpt>
      <trkpt lat="48.96475" lon="7.44009">
        <ele>347</ele>
        <time>2021-08-08T08:03:52Z</time>
      </trkpt>
      <trkpt lat="48.96477" lon="7.44002">
        <ele>348</ele>
        <time>2021-08-08T08:03:53Z</time>
      </trkpt>
      <trkpt lat="48.96478" lon="7.43998">
        <ele>348</ele>
        <time>2021-08-08T08:03:54Z</time>
      </trkpt>
      <trkpt lat="48.96478" lon="7.43998">
        <ele>348</ele>
        <time>2021-08-08T08:03:55Z</time>
      </trkpt>
      <trkpt lat="48.96481" lon="7.43989">
        <ele>348</ele>
        <time>2021-08-08T08:03:56Z</time>
      </trkpt>
      <trkpt lat="48.96483" lon="7.43985">
        <ele>349</ele>
        <time>2021-08-08T08:03:57Z</time>
      </trkpt>
      <trkpt lat="48.96483" lon="7.43985">
        <ele>349</ele>
        <time>2021-08-08T08:03:58Z</time>
      </trkpt>
      <trkpt lat="48.96485" lon="7.43977">
        <ele>349</ele>
        <time>2021-08-08T08:03:59Z</time>
      </trkpt>
      <trkpt lat="48.96485" lon="7.43974">
        <ele>350</ele>
        <time>2021-08-08T08:04:00Z</time>
      </trkpt>
      <trkpt lat="48.96485" lon="7.43971">
        <ele>350</ele>
        <time>2021-08-08T08:04:01Z</time>
      </trkpt>
      <trkpt lat="48.96485" lon="7.43971">
        <ele>350</ele>
        <time>2021-08-08T08:04:02Z</time>
      </trkpt>
      <trkpt lat="48.96486" lon="7.43963">
        <ele>350</ele>
        <time>2021-08-08T08:04:03Z</time>
      </trkpt>
      <trkpt lat="48.96486" lon="7.43963">
        <ele>351</ele>
        <time>2021-08-08T08:04:04Z</time>
      </trkpt>
      <trkpt lat="48.96486" lon="7.43956">
        <ele>351</ele>
        <time>2021-08-08T08:04:05Z</time>
      </trkpt>
      <trkpt lat="48.96486" lon="7.43953">
        <ele>351</ele>
        <time>2021-08-08T08:04:06Z</time>
      </trkpt>
      <trkpt lat="48.96486" lon="7.43953">
        <ele>351</ele>
        <time>2021-08-08T08:04:07Z</time>
      </trkpt>
      <trkpt lat="48.96486" lon="7.43946">
        <ele>352</ele>
        <time>2021-08-08T08:04:08Z</time>
      </trkpt>
      <trkpt lat="48.96486" lon="7.43943">
        <ele>352</ele>
        <time>2021-08-08T08:04:09Z</time>
      </trkpt>
      <trkpt lat="48.96486" lon="7.43943">
        <ele>352</ele>
        <time>2021-08-08T08:04:10Z</time>
      </trkpt>
      <trkpt lat="48.96486" lon="7.43936">
        <ele>352</ele>
        <time>2021-08-08T08:04:11Z</time>
      </trkpt>
      <trkpt lat="48.96486" lon="7.43936">
        <ele>352</ele>
        <time>2021-08-08T08:04:12Z</time>
      </trkpt>
      <trkpt lat="48.96485" lon="7.43928">
        <ele>352</ele>
        <time>2021-08-08T08:04:13Z</time>
      </trkpt>
      <trkpt lat="48.96485" lon="7.43928">
        <ele>353</ele>
        <time>2021-08-08T08:04:14Z</time>
      </trkpt>
      <trkpt lat="48.96484" lon="7.43921">
        <ele>353</ele>
        <time>2021-08-08T08:04:15Z</time>
      </trkpt>
      <trkpt lat="48.96484" lon="7.43921">
        <ele>353</ele>
        <time>2021-08-08T08:04:16Z</time>
      </trkpt>
      <trkpt lat="48.96483" lon="7.43915">
        <ele>353</ele>
        <time>2021-08-08T08:04:17Z</time>
      </trkpt>
      <trkpt lat="48.96482" lon="7.43912">
        <ele>353</ele>
        <time>2021-08-08T08:04:18Z</time>
      </trkpt>
      <trkpt lat="48.96482" lon="7.43912">
        <ele>353</ele>
        <time>2021-08-08T08:04:19Z</time>
      </trkpt>
      <trkpt lat="48.9648" lon="7.43906">
        <ele>353</ele>
        <time>2021-08-08T08:04:20Z</time>
      </trkpt>
      <trkpt lat="48.96478" lon="7.43901">
        <ele>353</ele>
        <time>2021-08-08T08:04:21Z</time>
      </trkpt>
      <trkpt lat="48.96478" lon="7.43901">
        <ele>354</ele>
        <time>2021-08-08T08:04:22Z</time>
      </trkpt>
      <trkpt lat="48.96476" lon="7.43894">
        <ele>354</ele>
        <time>2021-08-08T08:04:23Z</time>
      </trkpt>
      <trkpt lat="48.96476" lon="7.43894">
        <ele>354</ele>
        <time>2021-08-08T08:04:24Z</time>
      </trkpt>
      <trkpt lat="48.96474" lon="7.43887">
        <ele>354</ele>
        <time>2021-08-08T08:04:25Z</time>
      </trkpt>
      <trkpt lat="48.96474" lon="7.43887">
        <ele>354</ele>
        <time>2021-08-08T08:04:26Z</time>
      </trkpt>
      <trkpt lat="48.96473" lon="7.43879">
        <ele>354</ele>
        <time>2021-08-08T08:04:27Z</time>
      </trkpt>
      <trkpt lat="48.96473" lon="7.43876">
        <ele>354</ele>
        <time>2021-08-08T08:04:28Z</time>
      </trkpt>
      <trkpt lat="48.96473" lon="7.43876">
        <ele>354</ele>
        <time>2021-08-08T08:04:29Z</time>
      </trkpt>
      <trkpt lat="48.96471" lon="7.43869">
        <ele>354</ele>
        <time>2021-08-08T08:04:30Z</time>
      </trkpt>
      <trkpt lat="48.9647" lon="7.43865">
        <ele>354</ele>
        <time>2021-08-08T08:04:31Z</time>
      </trkpt>
      <trkpt lat="48.9647" lon="7.43865">
        <ele>354</ele>
        <time>2021-08-08T08:04:32Z</time>
      </trkpt>
      <trkpt lat="48.96467" lon="7.43858">
        <ele>354</ele>
        <time>2021-08-08T08:04:33Z</time>
      </trkpt>
      <trkpt lat="48.96467" lon="7.43858">
        <ele>355</ele>
        <time>2021-08-08T08:04:34Z</time>
      </trkpt>
      <trkpt lat="48.96465" lon="7.43853">
        <ele>355</ele>
        <time>2021-08-08T08:04:35Z</time>
      </trkpt>
      <trkpt lat="48.96465" lon="7.43853">
        <ele>355</ele>
        <time>2021-08-08T08:04:36Z</time>
      </trkpt>
      <trkpt lat="48.96463" lon="7.43847">
        <ele>355</ele>
        <time>2021-08-08T08:04:37Z</time>
      </trkpt>
      <trkpt lat="48.96461" lon="7.43844">
        <ele>356</ele>
        <time>2021-08-08T08:04:38Z</time>
      </trkpt>
      <trkpt lat="48.9646" lon="7.43841">
        <ele>356</ele>
        <time>2021-08-08T08:04:39Z</time>
      </trkpt>
      <trkpt lat="48.9646" lon="7.43841">
        <ele>356</ele>
        <time>2021-08-08T08:04:40Z</time>
      </trkpt>
      <trkpt lat="48.96456" lon="7.43836">
        <ele>356</ele>
        <time>2021-08-08T08:04:41Z</time>
      </trkpt>
      <trkpt lat="48.96456" lon="7.43836">
        <ele>356</ele>
        <time>2021-08-08T08:04:42Z</time>
      </trkpt>
      <trkpt lat="48.96454" lon="7.43831">
        <ele>356</ele>
        <time>2021-08-08T08:04:43Z</time>
      </trkpt>
      <trkpt lat="48.96454" lon="7.43831">
        <ele>357</ele>
        <time>2021-08-08T08:04:44Z</time>
      </trkpt>
      <trkpt lat="48.96451" lon="7.43826">
        <ele>357</ele>
        <time>2021-08-08T08:04:45Z</time>
      </trkpt>
      <trkpt lat="48.96451" lon="7.43826">
        <ele>357</ele>
        <time>2021-08-08T08:04:46Z</time>
      </trkpt>
      <trkpt lat="48.96449" lon="7.43821">
        <ele>357</ele>
        <time>2021-08-08T08:04:47Z</time>
      </trkpt>
      <trkpt lat="48.96449" lon="7.43821">
        <ele>358</ele>
        <time>2021-08-08T08:04:48Z</time>
      </trkpt>
      <trkpt lat="48.96447" lon="7.43816">
        <ele>358</ele>
        <time>2021-08-08T08:04:49Z</time>
      </trkpt>
      <trkpt lat="48.96446" lon="7.43813">
        <ele>358</ele>
        <time>2021-08-08T08:04:50Z</time>
      </trkpt>
      <trkpt lat="48.96444" lon="7.43811">
        <ele>358</ele>
        <time>2021-08-08T08:04:51Z</time>
      </trkpt>
      <trkpt lat="48.96444" lon="7.43811">
        <ele>359</ele>
        <time>2021-08-08T08:04:52Z</time>
      </trkpt>
      <trkpt lat="48.96441" lon="7.43806">
        <ele>359</ele>
        <time>2021-08-08T08:04:53Z</time>
      </trkpt>
      <trkpt lat="48.96441" lon="7.43806">
        <ele>359</ele>
        <time>2021-08-08T08:04:54Z</time>
      </trkpt>
      <trkpt lat="48.96438" lon="7.43801">
        <ele>359</ele>
        <time>2021-08-08T08:04:55Z</time>
      </trkpt>
      <trkpt lat="48.96438" lon="7.43801">
        <ele>359</ele>
        <time>2021-08-08T08:04:56Z</time>
      </trkpt>
      <trkpt lat="48.96435" lon="7.43795">
        <ele>359</ele>
        <time>2021-08-08T08:04:57Z</time>
      </trkpt>
      <trkpt lat="48.96435" lon="7.43795">
        <ele>359</ele>
        <time>2021-08-08T08:04:58Z</time>
      </trkpt>
      <trkpt lat="48.96431" lon="7.43787">
        <ele>360</ele>
        <time>2021-08-08T08:04:59Z</time>
      </trkpt>
      <trkpt lat="48.96431" lon="7.43784">
        <ele>360</ele>
        <time>2021-08-08T08:05:00Z</time>
      </trkpt>
      <trkpt lat="48.96429" lon="7.43781">
        <ele>361</ele>
        <time>2021-08-08T08:05:01Z</time>
      </trkpt>
      <trkpt lat="48.96429" lon="7.43781">
        <ele>361</ele>
        <time>2021-08-08T08:05:02Z</time>
      </trkpt>
      <trkpt lat="48.96426" lon="7.43776">
        <ele>361</ele>
        <time>2021-08-08T08:05:03Z</time>
      </trkpt>
      <trkpt lat="48.96426" lon="7.43776">
        <ele>361</ele>
        <time>2021-08-08T08:05:04Z</time>
      </trkpt>
      <trkpt lat="48.96422" lon="7.43771">
        <ele>362</ele>
        <time>2021-08-08T08:05:05Z</time>
      </trkpt>
      <trkpt lat="48.96421" lon="7.43768">
        <ele>362</ele>
        <time>2021-08-08T08:05:06Z</time>
      </trkpt>
      <trkpt lat="48.96419" lon="7.43766">
        <ele>362</ele>
        <time>2021-08-08T08:05:07Z</time>
      </trkpt>
      <trkpt lat="48.96419" lon="7.43766">
        <ele>362</ele>
        <time>2021-08-08T08:05:08Z</time>
      </trkpt>
      <trkpt lat="48.96416" lon="7.43761">
        <ele>363</ele>
        <time>2021-08-08T08:05:09Z</time>
      </trkpt>
      <trkpt lat="48.96416" lon="7.43761">
        <ele>363</ele>
        <time>2021-08-08T08:05:10Z</time>
      </trkpt>
      <trkpt lat="48.96412" lon="7.43756">
        <ele>363</ele>
        <time>2021-08-08T08:05:11Z</time>
      </trkpt>
      <trkpt lat="48.96412" lon="7.43756">
        <ele>363</ele>
        <time>2021-08-08T08:05:12Z</time>
      </trkpt>
      <trkpt lat="48.96408" lon="7.43752">
        <ele>364</ele>
        <time>2021-08-08T08:05:13Z</time>
      </trkpt>
      <trkpt lat="48.96408" lon="7.43752">
        <ele>364</ele>
        <time>2021-08-08T08:05:14Z</time>
      </trkpt>
      <trkpt lat="48.96405" lon="7.43747">
        <ele>364</ele>
        <time>2021-08-08T08:05:15Z</time>
      </trkpt>
      <trkpt lat="48.96405" lon="7.43747">
        <ele>364</ele>
        <time>2021-08-08T08:05:16Z</time>
      </trkpt>
      <trkpt lat="48.96402" lon="7.43743">
        <ele>364</ele>
        <time>2021-08-08T08:05:17Z</time>
      </trkpt>
      <trkpt lat="48.96402" lon="7.43743">
        <ele>364</ele>
        <time>2021-08-08T08:05:18Z</time>
      </trkpt>
      <trkpt lat="48.964" lon="7.43739">
        <ele>366</ele>
        <time>2021-08-08T08:05:19Z</time>
      </trkpt>
      <trkpt lat="48.964" lon="7.43739">
        <ele>366</ele>
        <time>2021-08-08T08:05:20Z</time>
      </trkpt>
      <trkpt lat="48.96398" lon="7.43736">
        <ele>366</ele>
        <time>2021-08-08T08:05:21Z</time>
      </trkpt>
      <trkpt lat="48.96398" lon="7.43736">
        <ele>366</ele>
        <time>2021-08-08T08:05:22Z</time>
      </trkpt>
      <trkpt lat="48.96395" lon="7.43733">
        <ele>366</ele>
        <time>2021-08-08T08:05:23Z</time>
      </trkpt>
      <trkpt lat="48.96394" lon="7.43731">
        <ele>367</ele>
        <time>2021-08-08T08:05:24Z</time>
      </trkpt>
      <trkpt lat="48.96394" lon="7.43731">
        <ele>367</ele>
        <time>2021-08-08T08:05:25Z</time>
      </trkpt>
      <trkpt lat="48.9639" lon="7.43726">
        <ele>367</ele>
        <time>2021-08-08T08:05:26Z</time>
      </trkpt>
      <trkpt lat="48.96388" lon="7.43724">
        <ele>367</ele>
        <time>2021-08-08T08:05:27Z</time>
      </trkpt>
      <trkpt lat="48.96388" lon="7.43724">
        <ele>368</ele>
        <time>2021-08-08T08:05:28Z</time>
      </trkpt>
      <trkpt lat="48.96385" lon="7.4372">
        <ele>368</ele>
        <time>2021-08-08T08:05:29Z</time>
      </trkpt>
      <trkpt lat="48.96385" lon="7.4372">
        <ele>368</ele>
        <time>2021-08-08T08:05:30Z</time>
      </trkpt>
      <trkpt lat="48.96381" lon="7.43714">
        <ele>368</ele>
        <time>2021-08-08T08:05:31Z</time>
      </trkpt>
      <trkpt lat="48.96381" lon="7.43714">
        <ele>368</ele>
        <time>2021-08-08T08:05:32Z</time>
      </trkpt>
      <trkpt lat="48.96376" lon="7.43709">
        <ele>368</ele>
        <time>2021-08-08T08:05:33Z</time>
      </trkpt>
      <trkpt lat="48.96376" lon="7.43709">
        <ele>368</ele>
        <time>2021-08-08T08:05:34Z</time>
      </trkpt>
      <trkpt lat="48.96373" lon="7.43704">
        <ele>368</ele>
        <time>2021-08-08T08:05:35Z</time>
      </trkpt>
      <trkpt lat="48.96373" lon="7.43704">
        <ele>368</ele>
        <time>2021-08-08T08:05:36Z</time>
      </trkpt>
      <trkpt lat="48.9637" lon="7.43699">
        <ele>368</ele>
        <time>2021-08-08T08:05:37Z</time>
      </trkpt>
      <trkpt lat="48.9637" lon="7.43699">
        <ele>368</ele>
        <time>2021-08-08T08:05:38Z</time>
      </trkpt>
      <trkpt lat="48.96367" lon="7.43693">
        <ele>368</ele>
        <time>2021-08-08T08:05:39Z</time>
      </trkpt>
      <trkpt lat="48.96365" lon="7.4369">
        <ele>368</ele>
        <time>2021-08-08T08:05:40Z</time>
      </trkpt>
      <trkpt lat="48.96365" lon="7.4369">
        <ele>368</ele>
        <time>2021-08-08T08:05:41Z</time>
      </trkpt>
      <trkpt lat="48.96362" lon="7.43683">
        <ele>368</ele>
        <time>2021-08-08T08:05:42Z</time>
      </trkpt>
      <trkpt lat="48.9636" lon="7.4368">
        <ele>368</ele>
        <time>2021-08-08T08:05:43Z</time>
      </trkpt>
      <trkpt lat="48.9636" lon="7.4368">
        <ele>368</ele>
        <time>2021-08-08T08:05:44Z</time>
      </trkpt>
      <trkpt lat="48.96357" lon="7.43672">
        <ele>368</ele>
        <time>2021-08-08T08:05:45Z</time>
      </trkpt>
      <trkpt lat="48.96357" lon="7.43672">
        <ele>369</ele>
        <time>2021-08-08T08:05:46Z</time>
      </trkpt>
      <trkpt lat="48.96354" lon="7.43663">
        <ele>369</ele>
        <time>2021-08-08T08:05:47Z</time>
      </trkpt>
      <trkpt lat="48.96353" lon="7.43659">
        <ele>369</ele>
        <time>2021-08-08T08:05:48Z</time>
      </trkpt>
      <trkpt lat="48.96352" lon="7.43655">
        <ele>369</ele>
        <time>2021-08-08T08:05:49Z</time>
      </trkpt>
      <trkpt lat="48.96352" lon="7.43655">
        <ele>369</ele>
        <time>2021-08-08T08:05:50Z</time>
      </trkpt>
      <trkpt lat="48.9635" lon="7.43647">
        <ele>369</ele>
        <time>2021-08-08T08:05:51Z</time>
      </trkpt>
      <trkpt lat="48.9635" lon="7.43647">
        <ele>369</ele>
        <time>2021-08-08T08:05:52Z</time>
      </trkpt>
      <trkpt lat="48.96349" lon="7.43638">
        <ele>369</ele>
        <time>2021-08-08T08:05:53Z</time>
      </trkpt>
      <trkpt lat="48.96348" lon="7.43634">
        <ele>369</ele>
        <time>2021-08-08T08:05:54Z</time>
      </trkpt>
      <trkpt lat="48.96348" lon="7.43634">
        <ele>370</ele>
        <time>2021-08-08T08:05:55Z</time>
      </trkpt>
      <trkpt lat="48.96347" lon="7.43624">
        <ele>370</ele>
        <time>2021-08-08T08:05:56Z</time>
      </trkpt>
      <trkpt lat="48.96347" lon="7.43624">
        <ele>370</ele>
        <time>2021-08-08T08:05:57Z</time>
      </trkpt>
      <trkpt lat="48.96346" lon="7.43613">
        <ele>370</ele>
        <time>2021-08-08T08:05:58Z</time>
      </trkpt>
      <trkpt lat="48.96346" lon="7.43613">
        <ele>370</ele>
        <time>2021-08-08T08:05:59Z</time>
      </trkpt>
      <trkpt lat="48.96344" lon="7.43602">
        <ele>370</ele>
        <time>2021-08-08T08:06:00Z</time>
      </trkpt>
      <trkpt lat="48.96344" lon="7.43597">
        <ele>371</ele>
        <time>2021-08-08T08:06:01Z</time>
      </trkpt>
      <trkpt lat="48.96344" lon="7.43597">
        <ele>371</ele>
        <time>2021-08-08T08:06:02Z</time>
      </trkpt>
      <trkpt lat="48.96342" lon="7.43587">
        <ele>371</ele>
        <time>2021-08-08T08:06:03Z</time>
      </trkpt>
      <trkpt lat="48.96342" lon="7.43587">
        <ele>371</ele>
        <time>2021-08-08T08:06:04Z</time>
      </trkpt>
      <trkpt lat="48.96339" lon="7.43576">
        <ele>371</ele>
        <time>2021-08-08T08:06:05Z</time>
      </trkpt>
      <trkpt lat="48.96339" lon="7.43576">
        <ele>371</ele>
        <time>2021-08-08T08:06:06Z</time>
      </trkpt>
      <trkpt lat="48.96337" lon="7.43566">
        <ele>371</ele>
        <time>2021-08-08T08:06:07Z</time>
      </trkpt>
      <trkpt lat="48.96337" lon="7.43566">
        <ele>371</ele>
        <time>2021-08-08T08:06:08Z</time>
      </trkpt>
      <trkpt lat="48.96334" lon="7.43555">
        <ele>371</ele>
        <time>2021-08-08T08:06:09Z</time>
      </trkpt>
      <trkpt lat="48.96333" lon="7.4355">
        <ele>371</ele>
        <time>2021-08-08T08:06:10Z</time>
      </trkpt>
      <trkpt lat="48.96333" lon="7.4355">
        <ele>371</ele>
        <time>2021-08-08T08:06:11Z</time>
      </trkpt>
      <trkpt lat="48.9633" lon="7.43539">
        <ele>371</ele>
        <time>2021-08-08T08:06:12Z</time>
      </trkpt>
      <trkpt lat="48.96328" lon="7.43532">
        <ele>371</ele>
        <time>2021-08-08T08:06:13Z</time>
      </trkpt>
      <trkpt lat="48.96328" lon="7.43532">
        <ele>371</ele>
        <time>2021-08-08T08:06:14Z</time>
      </trkpt>
      <trkpt lat="48.96325" lon="7.4352">
        <ele>371</ele>
        <time>2021-08-08T08:06:15Z</time>
      </trkpt>
      <trkpt lat="48.96325" lon="7.4352">
        <ele>371</ele>
        <time>2021-08-08T08:06:16Z</time>
      </trkpt>
      <trkpt lat="48.96321" lon="7.43506">
        <ele>371</ele>
        <time>2021-08-08T08:06:17Z</time>
      </trkpt>
      <trkpt lat="48.96321" lon="7.43506">
        <ele>371</ele>
        <time>2021-08-08T08:06:18Z</time>
      </trkpt>
      <trkpt lat="48.9632" lon="7.43492">
        <ele>371</ele>
        <time>2021-08-08T08:06:19Z</time>
      </trkpt>
      <trkpt lat="48.9632" lon="7.43492">
        <ele>371</ele>
        <time>2021-08-08T08:06:20Z</time>
      </trkpt>
      <trkpt lat="48.96318" lon="7.43479">
        <ele>370</ele>
        <time>2021-08-08T08:06:21Z</time>
      </trkpt>
      <trkpt lat="48.96318" lon="7.43479">
        <ele>370</ele>
        <time>2021-08-08T08:06:22Z</time>
      </trkpt>
      <trkpt lat="48.96316" lon="7.43466">
        <ele>370</ele>
        <time>2021-08-08T08:06:23Z</time>
      </trkpt>
      <trkpt lat="48.96316" lon="7.43466">
        <ele>370</ele>
        <time>2021-08-08T08:06:24Z</time>
      </trkpt>
      <trkpt lat="48.96315" lon="7.43453">
        <ele>370</ele>
        <time>2021-08-08T08:06:25Z</time>
      </trkpt>
      <trkpt lat="48.96315" lon="7.43453">
        <ele>370</ele>
        <time>2021-08-08T08:06:26Z</time>
      </trkpt>
      <trkpt lat="48.96314" lon="7.4344">
        <ele>370</ele>
        <time>2021-08-08T08:06:27Z</time>
      </trkpt>
      <trkpt lat="48.96314" lon="7.4344">
        <ele>370</ele>
        <time>2021-08-08T08:06:28Z</time>
      </trkpt>
      <trkpt lat="48.96312" lon="7.43427">
        <ele>370</ele>
        <time>2021-08-08T08:06:29Z</time>
      </trkpt>
      <trkpt lat="48.96312" lon="7.43427">
        <ele>370</ele>
        <time>2021-08-08T08:06:30Z</time>
      </trkpt>
      <trkpt lat="48.96306" lon="7.43409">
        <ele>370</ele>
        <time>2021-08-08T08:06:31Z</time>
      </trkpt>
      <trkpt lat="48.96306" lon="7.43409">
        <ele>370</ele>
        <time>2021-08-08T08:06:32Z</time>
      </trkpt>
      <trkpt lat="48.96302" lon="7.43392">
        <ele>370</ele>
        <time>2021-08-08T08:06:33Z</time>
      </trkpt>
      <trkpt lat="48.96302" lon="7.43392">
        <ele>370</ele>
        <time>2021-08-08T08:06:34Z</time>
      </trkpt>
      <trkpt lat="48.96297" lon="7.43378">
        <ele>370</ele>
        <time>2021-08-08T08:06:35Z</time>
      </trkpt>
      <trkpt lat="48.96295" lon="7.43371">
        <ele>370</ele>
        <time>2021-08-08T08:06:36Z</time>
      </trkpt>
      <trkpt lat="48.96293" lon="7.43365">
        <ele>370</ele>
        <time>2021-08-08T08:06:37Z</time>
      </trkpt>
      <trkpt lat="48.96293" lon="7.43365">
        <ele>370</ele>
        <time>2021-08-08T08:06:38Z</time>
      </trkpt>
      <trkpt lat="48.96291" lon="7.43354">
        <ele>370</ele>
        <time>2021-08-08T08:06:39Z</time>
      </trkpt>
      <trkpt lat="48.96291" lon="7.4335">
        <ele>370</ele>
        <time>2021-08-08T08:06:40Z</time>
      </trkpt>
      <trkpt lat="48.9629" lon="7.43344">
        <ele>371</ele>
        <time>2021-08-08T08:06:41Z</time>
      </trkpt>
      <trkpt lat="48.9629" lon="7.43344">
        <ele>371</ele>
        <time>2021-08-08T08:06:42Z</time>
      </trkpt>
      <trkpt lat="48.96288" lon="7.43334">
        <ele>371</ele>
        <time>2021-08-08T08:06:43Z</time>
      </trkpt>
      <trkpt lat="48.96288" lon="7.43334">
        <ele>371</ele>
        <time>2021-08-08T08:06:44Z</time>
      </trkpt>
      <trkpt lat="48.96287" lon="7.43321">
        <ele>371</ele>
        <time>2021-08-08T08:06:45Z</time>
      </trkpt>
      <trkpt lat="48.96287" lon="7.43321">
        <ele>371</ele>
        <time>2021-08-08T08:06:46Z</time>
      </trkpt>
      <trkpt lat="48.96284" lon="7.43309">
        <ele>371</ele>
        <time>2021-08-08T08:06:47Z</time>
      </trkpt>
      <trkpt lat="48.96284" lon="7.43309">
        <ele>371</ele>
        <time>2021-08-08T08:06:48Z</time>
      </trkpt>
      <trkpt lat="48.96281" lon="7.43294">
        <ele>371</ele>
        <time>2021-08-08T08:06:49Z</time>
      </trkpt>
      <trkpt lat="48.96281" lon="7.43294">
        <ele>371</ele>
        <time>2021-08-08T08:06:50Z</time>
      </trkpt>
      <trkpt lat="48.96275" lon="7.4328">
        <ele>371</ele>
        <time>2021-08-08T08:06:51Z</time>
      </trkpt>
      <trkpt lat="48.96275" lon="7.4328">
        <ele>371</ele>
        <time>2021-08-08T08:06:52Z</time>
      </trkpt>
      <trkpt lat="48.96268" lon="7.43266">
        <ele>371</ele>
        <time>2021-08-08T08:06:53Z</time>
      </trkpt>
      <trkpt lat="48.96268" lon="7.43266">
        <ele>371</ele>
        <time>2021-08-08T08:06:54Z</time>
      </trkpt>
      <trkpt lat="48.9626" lon="7.43252">
        <ele>371</ele>
        <time>2021-08-08T08:06:55Z</time>
      </trkpt>
      <trkpt lat="48.9626" lon="7.43252">
        <ele>371</ele>
        <time>2021-08-08T08:06:56Z</time>
      </trkpt>
      <trkpt lat="48.96254" lon="7.4324">
        <ele>371</ele>
        <time>2021-08-08T08:06:57Z</time>
      </trkpt>
      <trkpt lat="48.9625" lon="7.43234">
        <ele>371</ele>
        <time>2021-08-08T08:06:58Z</time>
      </trkpt>
      <trkpt lat="48.9625" lon="7.43234">
        <ele>371</ele>
        <time>2021-08-08T08:06:59Z</time>
      </trkpt>
      <trkpt lat="48.96244" lon="7.43223">
        <ele>371</ele>
        <time>2021-08-08T08:07:00Z</time>
      </trkpt>
      <trkpt lat="48.96244" lon="7.43223">
        <ele>370</ele>
        <time>2021-08-08T08:07:01Z</time>
      </trkpt>
      <trkpt lat="48.96237" lon="7.43209">
        <ele>370</ele>
        <time>2021-08-08T08:07:02Z</time>
      </trkpt>
      <trkpt lat="48.96235" lon="7.43204">
        <ele>370</ele>
        <time>2021-08-08T08:07:03Z</time>
      </trkpt>
      <trkpt lat="48.96235" lon="7.43204">
        <ele>370</ele>
        <time>2021-08-08T08:07:04Z</time>
      </trkpt>
      <trkpt lat="48.96225" lon="7.43193">
        <ele>370</ele>
        <time>2021-08-08T08:07:05Z</time>
      </trkpt>
      <trkpt lat="48.96225" lon="7.43193">
        <ele>370</ele>
        <time>2021-08-08T08:07:06Z</time>
      </trkpt>
      <trkpt lat="48.96219" lon="7.43183">
        <ele>370</ele>
        <time>2021-08-08T08:07:07Z</time>
      </trkpt>
      <trkpt lat="48.96219" lon="7.43183">
        <ele>370</ele>
        <time>2021-08-08T08:07:08Z</time>
      </trkpt>
      <trkpt lat="48.96213" lon="7.43172">
        <ele>369</ele>
        <time>2021-08-08T08:07:09Z</time>
      </trkpt>
      <trkpt lat="48.96213" lon="7.43172">
        <ele>369</ele>
        <time>2021-08-08T08:07:10Z</time>
      </trkpt>
      <trkpt lat="48.96202" lon="7.43159">
        <ele>369</ele>
        <time>2021-08-08T08:07:11Z</time>
      </trkpt>
      <trkpt lat="48.96202" lon="7.43159">
        <ele>369</ele>
        <time>2021-08-08T08:07:12Z</time>
      </trkpt>
      <trkpt lat="48.96194" lon="7.43148">
        <ele>369</ele>
        <time>2021-08-08T08:07:13Z</time>
      </trkpt>
      <trkpt lat="48.96194" lon="7.43148">
        <ele>369</ele>
        <time>2021-08-08T08:07:14Z</time>
      </trkpt>
      <trkpt lat="48.96185" lon="7.43136">
        <ele>369</ele>
        <time>2021-08-08T08:07:15Z</time>
      </trkpt>
      <trkpt lat="48.96185" lon="7.43136">
        <ele>369</ele>
        <time>2021-08-08T08:07:16Z</time>
      </trkpt>
      <trkpt lat="48.96176" lon="7.43125">
        <ele>369</ele>
        <time>2021-08-08T08:07:17Z</time>
      </trkpt>
      <trkpt lat="48.9617" lon="7.4312">
        <ele>369</ele>
        <time>2021-08-08T08:07:18Z</time>
      </trkpt>
      <trkpt lat="48.9617" lon="7.4312">
        <ele>369</ele>
        <time>2021-08-08T08:07:19Z</time>
      </trkpt>
      <trkpt lat="48.96161" lon="7.4311">
        <ele>369</ele>
        <time>2021-08-08T08:07:20Z</time>
      </trkpt>
      <trkpt lat="48.96156" lon="7.43105">
        <ele>368</ele>
        <time>2021-08-08T08:07:21Z</time>
      </trkpt>
      <trkpt lat="48.96156" lon="7.43105">
        <ele>368</ele>
        <time>2021-08-08T08:07:22Z</time>
      </trkpt>
      <trkpt lat="48.96147" lon="7.43097">
        <ele>368</ele>
        <time>2021-08-08T08:07:23Z</time>
      </trkpt>
      <trkpt lat="48.96147" lon="7.43097">
        <ele>368</ele>
        <time>2021-08-08T08:07:24Z</time>
      </trkpt>
      <trkpt lat="48.96134" lon="7.43088">
        <ele>367</ele>
        <time>2021-08-08T08:07:25Z</time>
      </trkpt>
      <trkpt lat="48.96134" lon="7.43088">
        <ele>367</ele>
        <time>2021-08-08T08:07:26Z</time>
      </trkpt>
      <trkpt lat="48.96127" lon="7.43076">
        <ele>367</ele>
        <time>2021-08-08T08:07:27Z</time>
      </trkpt>
      <trkpt lat="48.96127" lon="7.43076">
        <ele>367</ele>
        <time>2021-08-08T08:07:28Z</time>
      </trkpt>
      <trkpt lat="48.96121" lon="7.43065">
        <ele>367</ele>
        <time>2021-08-08T08:07:29Z</time>
      </trkpt>
      <trkpt lat="48.96118" lon="7.4306">
        <ele>367</ele>
        <time>2021-08-08T08:07:30Z</time>
      </trkpt>
      <trkpt lat="48.96113" lon="7.43055">
        <ele>367</ele>
        <time>2021-08-08T08:07:31Z</time>
      </trkpt>
      <trkpt lat="48.96113" lon="7.43055">
        <ele>367</ele>
        <time>2021-08-08T08:07:32Z</time>
      </trkpt>
      <trkpt lat="48.96106" lon="7.43044">
        <ele>367</ele>
        <time>2021-08-08T08:07:33Z</time>
      </trkpt>
      <trkpt lat="48.96106" lon="7.43044">
        <ele>367</ele>
        <time>2021-08-08T08:07:34Z</time>
      </trkpt>
      <trkpt lat="48.96099" lon="7.43032">
        <ele>367</ele>
        <time>2021-08-08T08:07:35Z</time>
      </trkpt>
      <trkpt lat="48.96099" lon="7.43032">
        <ele>367</ele>
        <time>2021-08-08T08:07:36Z</time>
      </trkpt>
      <trkpt lat="48.96092" lon="7.43021">
        <ele>367</ele>
        <time>2021-08-08T08:07:37Z</time>
      </trkpt>
      <trkpt lat="48.96092" lon="7.43021">
        <ele>367</ele>
        <time>2021-08-08T08:07:38Z</time>
      </trkpt>
      <trkpt lat="48.96086" lon="7.43009">
        <ele>368</ele>
        <time>2021-08-08T08:07:39Z</time>
      </trkpt>
      <trkpt lat="48.96086" lon="7.43009">
        <ele>368</ele>
        <time>2021-08-08T08:07:40Z</time>
      </trkpt>
      <trkpt lat="48.96081" lon="7.42996">
        <ele>368</ele>
        <time>2021-08-08T08:07:41Z</time>
      </trkpt>
      <trkpt lat="48.96081" lon="7.42996">
        <ele>368</ele>
        <time>2021-08-08T08:07:42Z</time>
      </trkpt>
      <trkpt lat="48.96075" lon="7.42983">
        <ele>368</ele>
        <time>2021-08-08T08:07:43Z</time>
      </trkpt>
      <trkpt lat="48.96075" lon="7.42983">
        <ele>368</ele>
        <time>2021-08-08T08:07:44Z</time>
      </trkpt>
      <trkpt lat="48.96069" lon="7.4297">
        <ele>368</ele>
        <time>2021-08-08T08:07:45Z</time>
      </trkpt>
      <trkpt lat="48.96066" lon="7.42965">
        <ele>368</ele>
        <time>2021-08-08T08:07:46Z</time>
      </trkpt>
      <trkpt lat="48.96066" lon="7.42965">
        <ele>368</ele>
        <time>2021-08-08T08:07:47Z</time>
      </trkpt>
      <trkpt lat="48.96062" lon="7.42953">
        <ele>368</ele>
        <time>2021-08-08T08:07:48Z</time>
      </trkpt>
      <trkpt lat="48.9606" lon="7.42946">
        <ele>368</ele>
        <time>2021-08-08T08:07:49Z</time>
      </trkpt>
      <trkpt lat="48.9606" lon="7.42946">
        <ele>368</ele>
        <time>2021-08-08T08:07:50Z</time>
      </trkpt>
      <trkpt lat="48.96056" lon="7.42935">
        <ele>368</ele>
        <time>2021-08-08T08:07:51Z</time>
      </trkpt>
      <trkpt lat="48.96056" lon="7.42935">
        <ele>368</ele>
        <time>2021-08-08T08:07:52Z</time>
      </trkpt>
      <trkpt lat="48.96052" lon="7.42923">
        <ele>368</ele>
        <time>2021-08-08T08:07:53Z</time>
      </trkpt>
      <trkpt lat="48.96051" lon="7.42917">
        <ele>368</ele>
        <time>2021-08-08T08:07:54Z</time>
      </trkpt>
      <trkpt lat="48.96051" lon="7.42917">
        <ele>368</ele>
        <time>2021-08-08T08:07:55Z</time>
      </trkpt>
      <trkpt lat="48.96047" lon="7.42904">
        <ele>368</ele>
        <time>2021-08-08T08:07:56Z</time>
      </trkpt>
      <trkpt lat="48.96043" lon="7.42898">
        <ele>368</ele>
        <time>2021-08-08T08:07:57Z</time>
      </trkpt>
      <trkpt lat="48.96043" lon="7.42898">
        <ele>369</ele>
        <time>2021-08-08T08:07:58Z</time>
      </trkpt>
      <trkpt lat="48.96039" lon="7.42886">
        <ele>369</ele>
        <time>2021-08-08T08:07:59Z</time>
      </trkpt>
      <trkpt lat="48.96039" lon="7.42886">
        <ele>369</ele>
        <time>2021-08-08T08:08:00Z</time>
      </trkpt>
      <trkpt lat="48.96034" lon="7.42873">
        <ele>369</ele>
        <time>2021-08-08T08:08:01Z</time>
      </trkpt>
      <trkpt lat="48.96034" lon="7.42873">
        <ele>369</ele>
        <time>2021-08-08T08:08:02Z</time>
      </trkpt>
      <trkpt lat="48.96031" lon="7.42861">
        <ele>369</ele>
        <time>2021-08-08T08:08:03Z</time>
      </trkpt>
      <trkpt lat="48.96031" lon="7.42861">
        <ele>369</ele>
        <time>2021-08-08T08:08:04Z</time>
      </trkpt>
      <trkpt lat="48.96026" lon="7.42842">
        <ele>369</ele>
        <time>2021-08-08T08:08:05Z</time>
      </trkpt>
      <trkpt lat="48.96026" lon="7.42842">
        <ele>369</ele>
        <time>2021-08-08T08:08:06Z</time>
      </trkpt>
      <trkpt lat="48.96022" lon="7.42828">
        <ele>369</ele>
        <time>2021-08-08T08:08:07Z</time>
      </trkpt>
      <trkpt lat="48.96022" lon="7.42828">
        <ele>368</ele>
        <time>2021-08-08T08:08:08Z</time>
      </trkpt>
      <trkpt lat="48.96019" lon="7.42809">
        <ele>368</ele>
        <time>2021-08-08T08:08:09Z</time>
      </trkpt>
      <trkpt lat="48.96019" lon="7.42809">
        <ele>368</ele>
        <time>2021-08-08T08:08:10Z</time>
      </trkpt>
      <trkpt lat="48.96015" lon="7.4279">
        <ele>368</ele>
        <time>2021-08-08T08:08:11Z</time>
      </trkpt>
      <trkpt lat="48.96015" lon="7.4279">
        <ele>367</ele>
        <time>2021-08-08T08:08:12Z</time>
      </trkpt>
      <trkpt lat="48.96009" lon="7.42769">
        <ele>367</ele>
        <time>2021-08-08T08:08:13Z</time>
      </trkpt>
      <trkpt lat="48.96006" lon="7.42759">
        <ele>367</ele>
        <time>2021-08-08T08:08:14Z</time>
      </trkpt>
      <trkpt lat="48.96006" lon="7.42759">
        <ele>367</ele>
        <time>2021-08-08T08:08:15Z</time>
      </trkpt>
      <trkpt lat="48.96" lon="7.42739">
        <ele>366</ele>
        <time>2021-08-08T08:08:16Z</time>
      </trkpt>
      <trkpt lat="48.96" lon="7.42739">
        <ele>366</ele>
        <time>2021-08-08T08:08:17Z</time>
      </trkpt>
      <trkpt lat="48.95994" lon="7.42716">
        <ele>365</ele>
        <time>2021-08-08T08:08:18Z</time>
      </trkpt>
      <trkpt lat="48.95994" lon="7.42716">
        <ele>365</ele>
        <time>2021-08-08T08:08:19Z</time>
      </trkpt>
      <trkpt lat="48.95988" lon="7.42695">
        <ele>365</ele>
        <time>2021-08-08T08:08:20Z</time>
      </trkpt>
      <trkpt lat="48.95985" lon="7.42684">
        <ele>365</ele>
        <time>2021-08-08T08:08:21Z</time>
      </trkpt>
      <trkpt lat="48.95985" lon="7.42684">
        <ele>364</ele>
        <time>2021-08-08T08:08:22Z</time>
      </trkpt>
      <trkpt lat="48.9598" lon="7.42665">
        <ele>364</ele>
        <time>2021-08-08T08:08:23Z</time>
      </trkpt>
      <trkpt lat="48.9598" lon="7.42665">
        <ele>364</ele>
        <time>2021-08-08T08:08:24Z</time>
      </trkpt>
      <trkpt lat="48.95975" lon="7.42644">
        <ele>364</ele>
        <time>2021-08-08T08:08:25Z</time>
      </trkpt>
      <trkpt lat="48.95975" lon="7.42644">
        <ele>363</ele>
        <time>2021-08-08T08:08:26Z</time>
      </trkpt>
      <trkpt lat="48.95971" lon="7.42626">
        <ele>363</ele>
        <time>2021-08-08T08:08:27Z</time>
      </trkpt>
      <trkpt lat="48.95971" lon="7.42626">
        <ele>363</ele>
        <time>2021-08-08T08:08:28Z</time>
      </trkpt>
      <trkpt lat="48.95967" lon="7.42606">
        <ele>363</ele>
        <time>2021-08-08T08:08:29Z</time>
      </trkpt>
      <trkpt lat="48.95966" lon="7.42595">
        <ele>363</ele>
        <time>2021-08-08T08:08:30Z</time>
      </trkpt>
      <trkpt lat="48.95965" lon="7.42587">
        <ele>363</ele>
        <time>2021-08-08T08:08:31Z</time>
      </trkpt>
      <trkpt lat="48.95965" lon="7.42587">
        <ele>363</ele>
        <time>2021-08-08T08:08:32Z</time>
      </trkpt>
      <trkpt lat="48.95961" lon="7.42572">
        <ele>363</ele>
        <time>2021-08-08T08:08:33Z</time>
      </trkpt>
      <trkpt lat="48.95961" lon="7.42572">
        <ele>362</ele>
        <time>2021-08-08T08:08:34Z</time>
      </trkpt>
      <trkpt lat="48.95958" lon="7.42553">
        <ele>362</ele>
        <time>2021-08-08T08:08:35Z</time>
      </trkpt>
      <trkpt lat="48.95957" lon="7.42543">
        <ele>362</ele>
        <time>2021-08-08T08:08:36Z</time>
      </trkpt>
      <trkpt lat="48.95956" lon="7.42535">
        <ele>362</ele>
        <time>2021-08-08T08:08:37Z</time>
      </trkpt>
      <trkpt lat="48.95956" lon="7.42535">
        <ele>362</ele>
        <time>2021-08-08T08:08:38Z</time>
      </trkpt>
      <trkpt lat="48.95953" lon="7.42518">
        <ele>362</ele>
        <time>2021-08-08T08:08:39Z</time>
      </trkpt>
      <trkpt lat="48.95953" lon="7.42518">
        <ele>362</ele>
        <time>2021-08-08T08:08:40Z</time>
      </trkpt>
      <trkpt lat="48.95951" lon="7.42499">
        <ele>361</ele>
        <time>2021-08-08T08:08:41Z</time>
      </trkpt>
      <trkpt lat="48.95951" lon="7.42499">
        <ele>361</ele>
        <time>2021-08-08T08:08:42Z</time>
      </trkpt>
      <trkpt lat="48.95954" lon="7.42477">
        <ele>361</ele>
        <time>2021-08-08T08:08:43Z</time>
      </trkpt>
      <trkpt lat="48.95954" lon="7.42477">
        <ele>361</ele>
        <time>2021-08-08T08:08:44Z</time>
      </trkpt>
      <trkpt lat="48.95958" lon="7.42455">
        <ele>359</ele>
        <time>2021-08-08T08:08:45Z</time>
      </trkpt>
      <trkpt lat="48.95958" lon="7.42455">
        <ele>359</ele>
        <time>2021-08-08T08:08:46Z</time>
      </trkpt>
      <trkpt lat="48.9596" lon="7.42434">
        <ele>358</ele>
        <time>2021-08-08T08:08:47Z</time>
      </trkpt>
      <trkpt lat="48.9596" lon="7.42434">
        <ele>358</ele>
        <time>2021-08-08T08:08:48Z</time>
      </trkpt>
      <trkpt lat="48.9596" lon="7.42412">
        <ele>358</ele>
        <time>2021-08-08T08:08:49Z</time>
      </trkpt>
      <trkpt lat="48.95961" lon="7.42402">
        <ele>358</ele>
        <time>2021-08-08T08:08:50Z</time>
      </trkpt>
      <trkpt lat="48.95961" lon="7.42402">
        <ele>358</ele>
        <time>2021-08-08T08:08:51Z</time>
      </trkpt>
      <trkpt lat="48.95963" lon="7.42383">
        <ele>358</ele>
        <time>2021-08-08T08:08:52Z</time>
      </trkpt>
      <trkpt lat="48.95963" lon="7.42383">
        <ele>358</ele>
        <time>2021-08-08T08:08:53Z</time>
      </trkpt>
      <trkpt lat="48.9597" lon="7.42364">
        <ele>358</ele>
        <time>2021-08-08T08:08:54Z</time>
      </trkpt>
      <trkpt lat="48.95974" lon="7.42354">
        <ele>356</ele>
        <time>2021-08-08T08:08:55Z</time>
      </trkpt>
      <trkpt lat="48.95974" lon="7.42354">
        <ele>356</ele>
        <time>2021-08-08T08:08:56Z</time>
      </trkpt>
      <trkpt lat="48.95981" lon="7.42333">
        <ele>355</ele>
        <time>2021-08-08T08:08:57Z</time>
      </trkpt>
      <trkpt lat="48.95981" lon="7.42333">
        <ele>355</ele>
        <time>2021-08-08T08:08:58Z</time>
      </trkpt>
      <trkpt lat="48.95986" lon="7.4231">
        <ele>355</ele>
        <time>2021-08-08T08:08:59Z</time>
      </trkpt>
      <trkpt lat="48.95987" lon="7.423">
        <ele>355</ele>
        <time>2021-08-08T08:09:00Z</time>
      </trkpt>
      <trkpt lat="48.95989" lon="7.42289">
        <ele>354</ele>
        <time>2021-08-08T08:09:01Z</time>
      </trkpt>
      <trkpt lat="48.95989" lon="7.42289">
        <ele>354</ele>
        <time>2021-08-08T08:09:02Z</time>
      </trkpt>
      <trkpt lat="48.95994" lon="7.42271">
        <ele>354</ele>
        <time>2021-08-08T08:09:03Z</time>
      </trkpt>
      <trkpt lat="48.95994" lon="7.42271">
        <ele>354</ele>
        <time>2021-08-08T08:09:04Z</time>
      </trkpt>
      <trkpt lat="48.96" lon="7.42257">
        <ele>353</ele>
        <time>2021-08-08T08:09:05Z</time>
      </trkpt>
      <trkpt lat="48.96" lon="7.42257">
        <ele>353</ele>
        <time>2021-08-08T08:09:06Z</time>
      </trkpt>
      <trkpt lat="48.96006" lon="7.42241">
        <ele>353</ele>
        <time>2021-08-08T08:09:07Z</time>
      </trkpt>
      <trkpt lat="48.96006" lon="7.42241">
        <ele>353</ele>
        <time>2021-08-08T08:09:08Z</time>
      </trkpt>
      <trkpt lat="48.96015" lon="7.42226">
        <ele>353</ele>
        <time>2021-08-08T08:09:09Z</time>
      </trkpt>
      <trkpt lat="48.96015" lon="7.42226">
        <ele>353</ele>
        <time>2021-08-08T08:09:10Z</time>
      </trkpt>
      <trkpt lat="48.96022" lon="7.42216">
        <ele>353</ele>
        <time>2021-08-08T08:09:11Z</time>
      </trkpt>
      <trkpt lat="48.96022" lon="7.42216">
        <ele>353</ele>
        <time>2021-08-08T08:09:12Z</time>
      </trkpt>
      <trkpt lat="48.96026" lon="7.42206">
        <ele>353</ele>
        <time>2021-08-08T08:09:13Z</time>
      </trkpt>
      <trkpt lat="48.96026" lon="7.42206">
        <ele>353</ele>
        <time>2021-08-08T08:09:14Z</time>
      </trkpt>
      <trkpt lat="48.9603" lon="7.42198">
        <ele>353</ele>
        <time>2021-08-08T08:09:15Z</time>
      </trkpt>
      <trkpt lat="48.9603" lon="7.42198">
        <ele>353</ele>
        <time>2021-08-08T08:09:16Z</time>
      </trkpt>
      <trkpt lat="48.96033" lon="7.4219">
        <ele>353</ele>
        <time>2021-08-08T08:09:17Z</time>
      </trkpt>
      <trkpt lat="48.96034" lon="7.42187">
        <ele>353</ele>
        <time>2021-08-08T08:09:18Z</time>
      </trkpt>
      <trkpt lat="48.96034" lon="7.42187">
        <ele>353</ele>
        <time>2021-08-08T08:09:19Z</time>
      </trkpt>
      <trkpt lat="48.96037" lon="7.4218">
        <ele>353</ele>
        <time>2021-08-08T08:09:20Z</time>
      </trkpt>
      <trkpt lat="48.96038" lon="7.42176">
        <ele>354</ele>
        <time>2021-08-08T08:09:21Z</time>
      </trkpt>
      <trkpt lat="48.96038" lon="7.42176">
        <ele>354</ele>
        <time>2021-08-08T08:09:22Z</time>
      </trkpt>
      <trkpt lat="48.96041" lon="7.42168">
        <ele>355</ele>
        <time>2021-08-08T08:09:23Z</time>
      </trkpt>
      <trkpt lat="48.96041" lon="7.42168">
        <ele>355</ele>
        <time>2021-08-08T08:09:24Z</time>
      </trkpt>
      <trkpt lat="48.96043" lon="7.4216">
        <ele>355</ele>
        <time>2021-08-08T08:09:25Z</time>
      </trkpt>
      <trkpt lat="48.96043" lon="7.4216">
        <ele>355</ele>
        <time>2021-08-08T08:09:26Z</time>
      </trkpt>
      <trkpt lat="48.96044" lon="7.42151">
        <ele>355</ele>
        <time>2021-08-08T08:09:27Z</time>
      </trkpt>
      <trkpt lat="48.96044" lon="7.42151">
        <ele>355</ele>
        <time>2021-08-08T08:09:28Z</time>
      </trkpt>
      <trkpt lat="48.96045" lon="7.42144">
        <ele>356</ele>
        <time>2021-08-08T08:09:29Z</time>
      </trkpt>
      <trkpt lat="48.96045" lon="7.42144">
        <ele>356</ele>
        <time>2021-08-08T08:09:30Z</time>
      </trkpt>
      <trkpt lat="48.96044" lon="7.42139">
        <ele>356</ele>
        <time>2021-08-08T08:09:31Z</time>
      </trkpt>
      <trkpt lat="48.96044" lon="7.42139">
        <ele>356</ele>
        <time>2021-08-08T08:09:32Z</time>
      </trkpt>
      <trkpt lat="48.96043" lon="7.42133">
        <ele>357</ele>
        <time>2021-08-08T08:09:33Z</time>
      </trkpt>
      <trkpt lat="48.96043" lon="7.42133">
        <ele>357</ele>
        <time>2021-08-08T08:09:34Z</time>
      </trkpt>
      <trkpt lat="48.96043" lon="7.42123">
        <ele>357</ele>
        <time>2021-08-08T08:09:35Z</time>
      </trkpt>
      <trkpt lat="48.96043" lon="7.42123">
        <ele>357</ele>
        <time>2021-08-08T08:09:36Z</time>
      </trkpt>
      <trkpt lat="48.96041" lon="7.42111">
        <ele>358</ele>
        <time>2021-08-08T08:09:37Z</time>
      </trkpt>
      <trkpt lat="48.96041" lon="7.42111">
        <ele>358</ele>
        <time>2021-08-08T08:09:38Z</time>
      </trkpt>
      <trkpt lat="48.96038" lon="7.42101">
        <ele>358</ele>
        <time>2021-08-08T08:09:39Z</time>
      </trkpt>
      <trkpt lat="48.96038" lon="7.42101">
        <ele>359</ele>
        <time>2021-08-08T08:09:40Z</time>
      </trkpt>
      <trkpt lat="48.96036" lon="7.42094">
        <ele>359</ele>
        <time>2021-08-08T08:09:41Z</time>
      </trkpt>
      <trkpt lat="48.96036" lon="7.42094">
        <ele>359</ele>
        <time>2021-08-08T08:09:42Z</time>
      </trkpt>
      <trkpt lat="48.96034" lon="7.42086">
        <ele>359</ele>
        <time>2021-08-08T08:09:43Z</time>
      </trkpt>
      <trkpt lat="48.96034" lon="7.42086">
        <ele>359</ele>
        <time>2021-08-08T08:09:44Z</time>
      </trkpt>
      <trkpt lat="48.96034" lon="7.42077">
        <ele>359</ele>
        <time>2021-08-08T08:09:45Z</time>
      </trkpt>
      <trkpt lat="48.96034" lon="7.42077">
        <ele>360</ele>
        <time>2021-08-08T08:09:46Z</time>
      </trkpt>
      <trkpt lat="48.96033" lon="7.42071">
        <ele>360</ele>
        <time>2021-08-08T08:09:47Z</time>
      </trkpt>
      <trkpt lat="48.96033" lon="7.42071">
        <ele>360</ele>
        <time>2021-08-08T08:09:48Z</time>
      </trkpt>
      <trkpt lat="48.96031" lon="7.42062">
        <ele>360</ele>
        <time>2021-08-08T08:09:49Z</time>
      </trkpt>
      <trkpt lat="48.96031" lon="7.42062">
        <ele>361</ele>
        <time>2021-08-08T08:09:50Z</time>
      </trkpt>
      <trkpt lat="48.96029" lon="7.42054">
        <ele>361</ele>
        <time>2021-08-08T08:09:51Z</time>
      </trkpt>
      <trkpt lat="48.96029" lon="7.42054">
        <ele>361</ele>
        <time>2021-08-08T08:09:52Z</time>
      </trkpt>
      <trkpt lat="48.96027" lon="7.42049">
        <ele>361</ele>
        <time>2021-08-08T08:09:53Z</time>
      </trkpt>
      <trkpt lat="48.96027" lon="7.42049">
        <ele>361</ele>
        <time>2021-08-08T08:09:54Z</time>
      </trkpt>
      <trkpt lat="48.96026" lon="7.42043">
        <ele>361</ele>
        <time>2021-08-08T08:09:55Z</time>
      </trkpt>
      <trkpt lat="48.96026" lon="7.42043">
        <ele>362</ele>
        <time>2021-08-08T08:09:56Z</time>
      </trkpt>
      <trkpt lat="48.96026" lon="7.42036">
        <ele>362</ele>
        <time>2021-08-08T08:09:57Z</time>
      </trkpt>
      <trkpt lat="48.96026" lon="7.42036">
        <ele>362</ele>
        <time>2021-08-08T08:09:58Z</time>
      </trkpt>
      <trkpt lat="48.96025" lon="7.42029">
        <ele>362</ele>
        <time>2021-08-08T08:09:59Z</time>
      </trkpt>
      <trkpt lat="48.96025" lon="7.42025">
        <ele>362</ele>
        <time>2021-08-08T08:10:00Z</time>
      </trkpt>
      <trkpt lat="48.96024" lon="7.42021">
        <ele>362</ele>
        <time>2021-08-08T08:10:01Z</time>
      </trkpt>
      <trkpt lat="48.96024" lon="7.42021">
        <ele>363</ele>
        <time>2021-08-08T08:10:02Z</time>
      </trkpt>
      <trkpt lat="48.96023" lon="7.42015">
        <ele>363</ele>
        <time>2021-08-08T08:10:03Z</time>
      </trkpt>
      <trkpt lat="48.96023" lon="7.42015">
        <ele>363</ele>
        <time>2021-08-08T08:10:04Z</time>
      </trkpt>
      <trkpt lat="48.96022" lon="7.4201">
        <ele>363</ele>
        <time>2021-08-08T08:10:05Z</time>
      </trkpt>
      <trkpt lat="48.96022" lon="7.4201">
        <ele>364</ele>
        <time>2021-08-08T08:10:06Z</time>
      </trkpt>
      <trkpt lat="48.9602" lon="7.42002">
        <ele>364</ele>
        <time>2021-08-08T08:10:07Z</time>
      </trkpt>
      <trkpt lat="48.9602" lon="7.42002">
        <ele>364</ele>
        <time>2021-08-08T08:10:08Z</time>
      </trkpt>
      <trkpt lat="48.96018" lon="7.41995">
        <ele>364</ele>
        <time>2021-08-08T08:10:09Z</time>
      </trkpt>
      <trkpt lat="48.96017" lon="7.41991">
        <ele>364</ele>
        <time>2021-08-08T08:10:10Z</time>
      </trkpt>
      <trkpt lat="48.96017" lon="7.41991">
        <ele>364</ele>
        <time>2021-08-08T08:10:11Z</time>
      </trkpt>
      <trkpt lat="48.96017" lon="7.41984">
        <ele>364</ele>
        <time>2021-08-08T08:10:12Z</time>
      </trkpt>
      <trkpt lat="48.96017" lon="7.41984">
        <ele>364</ele>
        <time>2021-08-08T08:10:13Z</time>
      </trkpt>
      <trkpt lat="48.96017" lon="7.41977">
        <ele>365</ele>
        <time>2021-08-08T08:10:14Z</time>
      </trkpt>
      <trkpt lat="48.96017" lon="7.41975">
        <ele>365</ele>
        <time>2021-08-08T08:10:15Z</time>
      </trkpt>
      <trkpt lat="48.96017" lon="7.41975">
        <ele>365</ele>
        <time>2021-08-08T08:10:16Z</time>
      </trkpt>
      <trkpt lat="48.96017" lon="7.41969">
        <ele>365</ele>
        <time>2021-08-08T08:10:17Z</time>
      </trkpt>
      <trkpt lat="48.96017" lon="7.41969">
        <ele>366</ele>
        <time>2021-08-08T08:10:18Z</time>
      </trkpt>
      <trkpt lat="48.96016" lon="7.41963">
        <ele>366</ele>
        <time>2021-08-08T08:10:19Z</time>
      </trkpt>
      <trkpt lat="48.96016" lon="7.41963">
        <ele>366</ele>
        <time>2021-08-08T08:10:20Z</time>
      </trkpt>
      <trkpt lat="48.96016" lon="7.41956">
        <ele>366</ele>
        <time>2021-08-08T08:10:21Z</time>
      </trkpt>
      <trkpt lat="48.96016" lon="7.41956">
        <ele>367</ele>
        <time>2021-08-08T08:10:22Z</time>
      </trkpt>
      <trkpt lat="48.96016" lon="7.4195">
        <ele>367</ele>
        <time>2021-08-08T08:10:23Z</time>
      </trkpt>
      <trkpt lat="48.96016" lon="7.4195">
        <ele>367</ele>
        <time>2021-08-08T08:10:24Z</time>
      </trkpt>
      <trkpt lat="48.96015" lon="7.41943">
        <ele>367</ele>
        <time>2021-08-08T08:10:25Z</time>
      </trkpt>
      <trkpt lat="48.96015" lon="7.41943">
        <ele>368</ele>
        <time>2021-08-08T08:10:26Z</time>
      </trkpt>
      <trkpt lat="48.96014" lon="7.41938">
        <ele>368</ele>
        <time>2021-08-08T08:10:27Z</time>
      </trkpt>
      <trkpt lat="48.96014" lon="7.41938">
        <ele>368</ele>
        <time>2021-08-08T08:10:28Z</time>
      </trkpt>
      <trkpt lat="48.96012" lon="7.41932">
        <ele>368</ele>
        <time>2021-08-08T08:10:29Z</time>
      </trkpt>
      <trkpt lat="48.96012" lon="7.41932">
        <ele>368</ele>
        <time>2021-08-08T08:10:30Z</time>
      </trkpt>
      <trkpt lat="48.96012" lon="7.41925">
        <ele>368</ele>
        <time>2021-08-08T08:10:31Z</time>
      </trkpt>
      <trkpt lat="48.96012" lon="7.41925">
        <ele>369</ele>
        <time>2021-08-08T08:10:32Z</time>
      </trkpt>
      <trkpt lat="48.96011" lon="7.41918">
        <ele>369</ele>
        <time>2021-08-08T08:10:33Z</time>
      </trkpt>
      <trkpt lat="48.96011" lon="7.41918">
        <ele>369</ele>
        <time>2021-08-08T08:10:34Z</time>
      </trkpt>
      <trkpt lat="48.9601" lon="7.41909">
        <ele>369</ele>
        <time>2021-08-08T08:10:35Z</time>
      </trkpt>
      <trkpt lat="48.9601" lon="7.41909">
        <ele>369</ele>
        <time>2021-08-08T08:10:36Z</time>
      </trkpt>
      <trkpt lat="48.9601" lon="7.41901">
        <ele>370</ele>
        <time>2021-08-08T08:10:37Z</time>
      </trkpt>
      <trkpt lat="48.9601" lon="7.41901">
        <ele>370</ele>
        <time>2021-08-08T08:10:38Z</time>
      </trkpt>
      <trkpt lat="48.96009" lon="7.41889">
        <ele>370</ele>
        <time>2021-08-08T08:10:39Z</time>
      </trkpt>
      <trkpt lat="48.96009" lon="7.41889">
        <ele>370</ele>
        <time>2021-08-08T08:10:40Z</time>
      </trkpt>
      <trkpt lat="48.96008" lon="7.41878">
        <ele>371</ele>
        <time>2021-08-08T08:10:41Z</time>
      </trkpt>
      <trkpt lat="48.96008" lon="7.41878">
        <ele>371</ele>
        <time>2021-08-08T08:10:42Z</time>
      </trkpt>
      <trkpt lat="48.96007" lon="7.41869">
        <ele>371</ele>
        <time>2021-08-08T08:10:43Z</time>
      </trkpt>
      <trkpt lat="48.96007" lon="7.41869">
        <ele>371</ele>
        <time>2021-08-08T08:10:44Z</time>
      </trkpt>
      <trkpt lat="48.96005" lon="7.41864">
        <ele>372</ele>
        <time>2021-08-08T08:10:45Z</time>
      </trkpt>
      <trkpt lat="48.96005" lon="7.41864">
        <ele>372</ele>
        <time>2021-08-08T08:10:46Z</time>
      </trkpt>
      <trkpt lat="48.96003" lon="7.41857">
        <ele>372</ele>
        <time>2021-08-08T08:10:47Z</time>
      </trkpt>
      <trkpt lat="48.96003" lon="7.41857">
        <ele>372</ele>
        <time>2021-08-08T08:10:48Z</time>
      </trkpt>
      <trkpt lat="48.96002" lon="7.4185">
        <ele>372</ele>
        <time>2021-08-08T08:10:49Z</time>
      </trkpt>
      <trkpt lat="48.96002" lon="7.41847">
        <ele>372</ele>
        <time>2021-08-08T08:10:50Z</time>
      </trkpt>
      <trkpt lat="48.96002" lon="7.41847">
        <ele>373</ele>
        <time>2021-08-08T08:10:51Z</time>
      </trkpt>
      <trkpt lat="48.96" lon="7.4184">
        <ele>373</ele>
        <time>2021-08-08T08:10:52Z</time>
      </trkpt>
      <trkpt lat="48.96" lon="7.4184">
        <ele>373</ele>
        <time>2021-08-08T08:10:53Z</time>
      </trkpt>
      <trkpt lat="48.95999" lon="7.41833">
        <ele>373</ele>
        <time>2021-08-08T08:10:54Z</time>
      </trkpt>
      <trkpt lat="48.95998" lon="7.4183">
        <ele>374</ele>
        <time>2021-08-08T08:10:55Z</time>
      </trkpt>
      <trkpt lat="48.95998" lon="7.4183">
        <ele>374</ele>
        <time>2021-08-08T08:10:56Z</time>
      </trkpt>
      <trkpt lat="48.95997" lon="7.41821">
        <ele>374</ele>
        <time>2021-08-08T08:10:57Z</time>
      </trkpt>
      <trkpt lat="48.95995" lon="7.41818">
        <ele>374</ele>
        <time>2021-08-08T08:10:58Z</time>
      </trkpt>
      <trkpt lat="48.95995" lon="7.41818">
        <ele>374</ele>
        <time>2021-08-08T08:10:59Z</time>
      </trkpt>
      <trkpt lat="48.95994" lon="7.4181">
        <ele>374</ele>
        <time>2021-08-08T08:11:00Z</time>
      </trkpt>
      <trkpt lat="48.95993" lon="7.41805">
        <ele>374</ele>
        <time>2021-08-08T08:11:01Z</time>
      </trkpt>
      <trkpt lat="48.95993" lon="7.41805">
        <ele>374</ele>
        <time>2021-08-08T08:11:02Z</time>
      </trkpt>
      <trkpt lat="48.9599" lon="7.41797">
        <ele>374</ele>
        <time>2021-08-08T08:11:03Z</time>
      </trkpt>
      <trkpt lat="48.9599" lon="7.41797">
        <ele>374</ele>
        <time>2021-08-08T08:11:04Z</time>
      </trkpt>
      <trkpt lat="48.95988" lon="7.41787">
        <ele>374</ele>
        <time>2021-08-08T08:11:05Z</time>
      </trkpt>
      <trkpt lat="48.95988" lon="7.41787">
        <ele>374</ele>
        <time>2021-08-08T08:11:06Z</time>
      </trkpt>
      <trkpt lat="48.95985" lon="7.41777">
        <ele>374</ele>
        <time>2021-08-08T08:11:07Z</time>
      </trkpt>
      <trkpt lat="48.95985" lon="7.41777">
        <ele>374</ele>
        <time>2021-08-08T08:11:08Z</time>
      </trkpt>
      <trkpt lat="48.95981" lon="7.41768">
        <ele>374</ele>
        <time>2021-08-08T08:11:09Z</time>
      </trkpt>
      <trkpt lat="48.95979" lon="7.41762">
        <ele>374</ele>
        <time>2021-08-08T08:11:10Z</time>
      </trkpt>
      <trkpt lat="48.95979" lon="7.41762">
        <ele>374</ele>
        <time>2021-08-08T08:11:11Z</time>
      </trkpt>
      <trkpt lat="48.95975" lon="7.41754">
        <ele>374</ele>
        <time>2021-08-08T08:11:12Z</time>
      </trkpt>
      <trkpt lat="48.95974" lon="7.41748">
        <ele>374</ele>
        <time>2021-08-08T08:11:13Z</time>
      </trkpt>
      <trkpt lat="48.95974" lon="7.41748">
        <ele>374</ele>
        <time>2021-08-08T08:11:14Z</time>
      </trkpt>
      <trkpt lat="48.95971" lon="7.4174">
        <ele>374</ele>
        <time>2021-08-08T08:11:15Z</time>
      </trkpt>
      <trkpt lat="48.95971" lon="7.4174">
        <ele>374</ele>
        <time>2021-08-08T08:11:16Z</time>
      </trkpt>
      <trkpt lat="48.95968" lon="7.41732">
        <ele>374</ele>
        <time>2021-08-08T08:11:17Z</time>
      </trkpt>
      <trkpt lat="48.95967" lon="7.41727">
        <ele>374</ele>
        <time>2021-08-08T08:11:18Z</time>
      </trkpt>
      <trkpt lat="48.95967" lon="7.41727">
        <ele>374</ele>
        <time>2021-08-08T08:11:19Z</time>
      </trkpt>
      <trkpt lat="48.95964" lon="7.41719">
        <ele>374</ele>
        <time>2021-08-08T08:11:20Z</time>
      </trkpt>
      <trkpt lat="48.95962" lon="7.41715">
        <ele>375</ele>
        <time>2021-08-08T08:11:21Z</time>
      </trkpt>
      <trkpt lat="48.95962" lon="7.41715">
        <ele>375</ele>
        <time>2021-08-08T08:11:22Z</time>
      </trkpt>
      <trkpt lat="48.9596" lon="7.41708">
        <ele>375</ele>
        <time>2021-08-08T08:11:23Z</time>
      </trkpt>
      <trkpt lat="48.9596" lon="7.41708">
        <ele>375</ele>
        <time>2021-08-08T08:11:24Z</time>
      </trkpt>
      <trkpt lat="48.95957" lon="7.417">
        <ele>376</ele>
        <time>2021-08-08T08:11:25Z</time>
      </trkpt>
      <trkpt lat="48.95957" lon="7.417">
        <ele>376</ele>
        <time>2021-08-08T08:11:26Z</time>
      </trkpt>
      <trkpt lat="48.95955" lon="7.41692">
        <ele>376</ele>
        <time>2021-08-08T08:11:27Z</time>
      </trkpt>
      <trkpt lat="48.95955" lon="7.41692">
        <ele>376</ele>
        <time>2021-08-08T08:11:28Z</time>
      </trkpt>
      <trkpt lat="48.95953" lon="7.41685">
        <ele>376</ele>
        <time>2021-08-08T08:11:29Z</time>
      </trkpt>
      <trkpt lat="48.95952" lon="7.41682">
        <ele>377</ele>
        <time>2021-08-08T08:11:30Z</time>
      </trkpt>
      <trkpt lat="48.95952" lon="7.41682">
        <ele>377</ele>
        <time>2021-08-08T08:11:31Z</time>
      </trkpt>
      <trkpt lat="48.95952" lon="7.41676">
        <ele>377</ele>
        <time>2021-08-08T08:11:32Z</time>
      </trkpt>
      <trkpt lat="48.95951" lon="7.41673">
        <ele>377</ele>
        <time>2021-08-08T08:11:33Z</time>
      </trkpt>
      <trkpt lat="48.95951" lon="7.41673">
        <ele>378</ele>
        <time>2021-08-08T08:11:34Z</time>
      </trkpt>
      <trkpt lat="48.95949" lon="7.41668">
        <ele>378</ele>
        <time>2021-08-08T08:11:35Z</time>
      </trkpt>
      <trkpt lat="48.95949" lon="7.41668">
        <ele>378</ele>
        <time>2021-08-08T08:11:36Z</time>
      </trkpt>
      <trkpt lat="48.95947" lon="7.4166">
        <ele>378</ele>
        <time>2021-08-08T08:11:37Z</time>
      </trkpt>
      <trkpt lat="48.95947" lon="7.4166">
        <ele>379</ele>
        <time>2021-08-08T08:11:38Z</time>
      </trkpt>
      <trkpt lat="48.95945" lon="7.41652">
        <ele>379</ele>
        <time>2021-08-08T08:11:39Z</time>
      </trkpt>
      <trkpt lat="48.95945" lon="7.41652">
        <ele>379</ele>
        <time>2021-08-08T08:11:40Z</time>
      </trkpt>
      <trkpt lat="48.95942" lon="7.4164">
        <ele>379</ele>
        <time>2021-08-08T08:11:41Z</time>
      </trkpt>
      <trkpt lat="48.9594" lon="7.41633">
        <ele>379</ele>
        <time>2021-08-08T08:11:42Z</time>
      </trkpt>
      <trkpt lat="48.9594" lon="7.41633">
        <ele>379</ele>
        <time>2021-08-08T08:11:43Z</time>
      </trkpt>
      <trkpt lat="48.95937" lon="7.41621">
        <ele>379</ele>
        <time>2021-08-08T08:11:44Z</time>
      </trkpt>
      <trkpt lat="48.95937" lon="7.41615">
        <ele>379</ele>
        <time>2021-08-08T08:11:45Z</time>
      </trkpt>
      <trkpt lat="48.95937" lon="7.41615">
        <ele>379</ele>
        <time>2021-08-08T08:11:46Z</time>
      </trkpt>
      <trkpt lat="48.95935" lon="7.41604">
        <ele>379</ele>
        <time>2021-08-08T08:11:47Z</time>
      </trkpt>
      <trkpt lat="48.95935" lon="7.41604">
        <ele>379</ele>
        <time>2021-08-08T08:11:48Z</time>
      </trkpt>
      <trkpt lat="48.95934" lon="7.41592">
        <ele>379</ele>
        <time>2021-08-08T08:11:49Z</time>
      </trkpt>
      <trkpt lat="48.95934" lon="7.41592">
        <ele>379</ele>
        <time>2021-08-08T08:11:50Z</time>
      </trkpt>
      <trkpt lat="48.95933" lon="7.4158">
        <ele>379</ele>
        <time>2021-08-08T08:11:51Z</time>
      </trkpt>
      <trkpt lat="48.95932" lon="7.41573">
        <ele>379</ele>
        <time>2021-08-08T08:11:52Z</time>
      </trkpt>
      <trkpt lat="48.95932" lon="7.41573">
        <ele>379</ele>
        <time>2021-08-08T08:11:53Z</time>
      </trkpt>
      <trkpt lat="48.95928" lon="7.41559">
        <ele>379</ele>
        <time>2021-08-08T08:11:54Z</time>
      </trkpt>
      <trkpt lat="48.95928" lon="7.41553">
        <ele>379</ele>
        <time>2021-08-08T08:11:55Z</time>
      </trkpt>
      <trkpt lat="48.95928" lon="7.41553">
        <ele>379</ele>
        <time>2021-08-08T08:11:56Z</time>
      </trkpt>
      <trkpt lat="48.95926" lon="7.41541">
        <ele>379</ele>
        <time>2021-08-08T08:11:57Z</time>
      </trkpt>
      <trkpt lat="48.95926" lon="7.41541">
        <ele>379</ele>
        <time>2021-08-08T08:11:58Z</time>
      </trkpt>
      <trkpt lat="48.95924" lon="7.4153">
        <ele>380</ele>
        <time>2021-08-08T08:11:59Z</time>
      </trkpt>
      <trkpt lat="48.95924" lon="7.4153">
        <ele>380</ele>
        <time>2021-08-08T08:12:00Z</time>
      </trkpt>
      <trkpt lat="48.95921" lon="7.41518">
        <ele>380</ele>
        <time>2021-08-08T08:12:01Z</time>
      </trkpt>
      <trkpt lat="48.9592" lon="7.41513">
        <ele>380</ele>
        <time>2021-08-08T08:12:02Z</time>
      </trkpt>
      <trkpt lat="48.95918" lon="7.41507">
        <ele>380</ele>
        <time>2021-08-08T08:12:03Z</time>
      </trkpt>
      <trkpt lat="48.95918" lon="7.41507">
        <ele>380</ele>
        <time>2021-08-08T08:12:04Z</time>
      </trkpt>
      <trkpt lat="48.95915" lon="7.41495">
        <ele>380</ele>
        <time>2021-08-08T08:12:05Z</time>
      </trkpt>
      <trkpt lat="48.95915" lon="7.41495">
        <ele>380</ele>
        <time>2021-08-08T08:12:06Z</time>
      </trkpt>
      <trkpt lat="48.95911" lon="7.41483">
        <ele>380</ele>
        <time>2021-08-08T08:12:07Z</time>
      </trkpt>
      <trkpt lat="48.95911" lon="7.41483">
        <ele>380</ele>
        <time>2021-08-08T08:12:08Z</time>
      </trkpt>
      <trkpt lat="48.95907" lon="7.41469">
        <ele>380</ele>
        <time>2021-08-08T08:12:09Z</time>
      </trkpt>
      <trkpt lat="48.95907" lon="7.41469">
        <ele>380</ele>
        <time>2021-08-08T08:12:10Z</time>
      </trkpt>
      <trkpt lat="48.95903" lon="7.41455">
        <ele>380</ele>
        <time>2021-08-08T08:12:11Z</time>
      </trkpt>
      <trkpt lat="48.959" lon="7.41447">
        <ele>380</ele>
        <time>2021-08-08T08:12:12Z</time>
      </trkpt>
      <trkpt lat="48.95898" lon="7.41441">
        <ele>380</ele>
        <time>2021-08-08T08:12:13Z</time>
      </trkpt>
      <trkpt lat="48.95898" lon="7.41441">
        <ele>380</ele>
        <time>2021-08-08T08:12:14Z</time>
      </trkpt>
      <trkpt lat="48.95894" lon="7.4143">
        <ele>380</ele>
        <time>2021-08-08T08:12:15Z</time>
      </trkpt>
      <trkpt lat="48.95894" lon="7.4143">
        <ele>380</ele>
        <time>2021-08-08T08:12:16Z</time>
      </trkpt>
      <trkpt lat="48.9589" lon="7.4142">
        <ele>380</ele>
        <time>2021-08-08T08:12:17Z</time>
      </trkpt>
      <trkpt lat="48.9589" lon="7.4142">
        <ele>380</ele>
        <time>2021-08-08T08:12:18Z</time>
      </trkpt>
      <trkpt lat="48.95889" lon="7.41409">
        <ele>381</ele>
        <time>2021-08-08T08:12:19Z</time>
      </trkpt>
      <trkpt lat="48.95889" lon="7.41409">
        <ele>381</ele>
        <time>2021-08-08T08:12:20Z</time>
      </trkpt>
      <trkpt lat="48.95887" lon="7.41395">
        <ele>381</ele>
        <time>2021-08-08T08:12:21Z</time>
      </trkpt>
      <trkpt lat="48.95885" lon="7.41388">
        <ele>381</ele>
        <time>2021-08-08T08:12:22Z</time>
      </trkpt>
      <trkpt lat="48.95885" lon="7.41388">
        <ele>381</ele>
        <time>2021-08-08T08:12:23Z</time>
      </trkpt>
      <trkpt lat="48.95882" lon="7.41374">
        <ele>381</ele>
        <time>2021-08-08T08:12:24Z</time>
      </trkpt>
      <trkpt lat="48.95881" lon="7.41366">
        <ele>381</ele>
        <time>2021-08-08T08:12:25Z</time>
      </trkpt>
      <trkpt lat="48.95881" lon="7.41366">
        <ele>381</ele>
        <time>2021-08-08T08:12:26Z</time>
      </trkpt>
      <trkpt lat="48.9588" lon="7.41352">
        <ele>381</ele>
        <time>2021-08-08T08:12:27Z</time>
      </trkpt>
      <trkpt lat="48.9588" lon="7.41352">
        <ele>380</ele>
        <time>2021-08-08T08:12:28Z</time>
      </trkpt>
      <trkpt lat="48.95881" lon="7.41336">
        <ele>380</ele>
        <time>2021-08-08T08:12:29Z</time>
      </trkpt>
      <trkpt lat="48.95882" lon="7.41327">
        <ele>380</ele>
        <time>2021-08-08T08:12:30Z</time>
      </trkpt>
      <trkpt lat="48.95884" lon="7.41317">
        <ele>380</ele>
        <time>2021-08-08T08:12:31Z</time>
      </trkpt>
      <trkpt lat="48.95884" lon="7.41317">
        <ele>378</ele>
        <time>2021-08-08T08:12:32Z</time>
      </trkpt>
      <trkpt lat="48.95885" lon="7.41296">
        <ele>378</ele>
        <time>2021-08-08T08:12:33Z</time>
      </trkpt>
      <trkpt lat="48.95885" lon="7.41296">
        <ele>377</ele>
        <time>2021-08-08T08:12:34Z</time>
      </trkpt>
      <trkpt lat="48.95888" lon="7.41271">
        <ele>377</ele>
        <time>2021-08-08T08:12:35Z</time>
      </trkpt>
      <trkpt lat="48.95888" lon="7.41271">
        <ele>376</ele>
        <time>2021-08-08T08:12:36Z</time>
      </trkpt>
      <trkpt lat="48.9589" lon="7.41249">
        <ele>376</ele>
        <time>2021-08-08T08:12:37Z</time>
      </trkpt>
      <trkpt lat="48.9589" lon="7.41249">
        <ele>376</ele>
        <time>2021-08-08T08:12:38Z</time>
      </trkpt>
      <trkpt lat="48.95892" lon="7.41229">
        <ele>376</ele>
        <time>2021-08-08T08:12:39Z</time>
      </trkpt>
      <trkpt lat="48.95892" lon="7.41229">
        <ele>376</ele>
        <time>2021-08-08T08:12:40Z</time>
      </trkpt>
      <trkpt lat="48.95895" lon="7.41211">
        <ele>376</ele>
        <time>2021-08-08T08:12:41Z</time>
      </trkpt>
      <trkpt lat="48.95895" lon="7.41211">
        <ele>376</ele>
        <time>2021-08-08T08:12:42Z</time>
      </trkpt>
      <trkpt lat="48.95898" lon="7.41193">
        <ele>376</ele>
        <time>2021-08-08T08:12:43Z</time>
      </trkpt>
      <trkpt lat="48.95898" lon="7.41193">
        <ele>376</ele>
        <time>2021-08-08T08:12:44Z</time>
      </trkpt>
      <trkpt lat="48.95901" lon="7.41176">
        <ele>376</ele>
        <time>2021-08-08T08:12:45Z</time>
      </trkpt>
      <trkpt lat="48.95901" lon="7.41176">
        <ele>377</ele>
        <time>2021-08-08T08:12:46Z</time>
      </trkpt>
      <trkpt lat="48.95903" lon="7.41159">
        <ele>377</ele>
        <time>2021-08-08T08:12:47Z</time>
      </trkpt>
      <trkpt lat="48.95903" lon="7.41159">
        <ele>377</ele>
        <time>2021-08-08T08:12:48Z</time>
      </trkpt>
      <trkpt lat="48.95905" lon="7.41148">
        <ele>377</ele>
        <time>2021-08-08T08:12:49Z</time>
      </trkpt>
      <trkpt lat="48.95905" lon="7.41148">
        <ele>378</ele>
        <time>2021-08-08T08:12:50Z</time>
      </trkpt>
      <trkpt lat="48.95906" lon="7.41135">
        <ele>378</ele>
        <time>2021-08-08T08:12:51Z</time>
      </trkpt>
      <trkpt lat="48.95906" lon="7.41135">
        <ele>378</ele>
        <time>2021-08-08T08:12:52Z</time>
      </trkpt>
      <trkpt lat="48.95907" lon="7.41123">
        <ele>378</ele>
        <time>2021-08-08T08:12:53Z</time>
      </trkpt>
      <trkpt lat="48.95907" lon="7.41123">
        <ele>378</ele>
        <time>2021-08-08T08:12:54Z</time>
      </trkpt>
      <trkpt lat="48.95909" lon="7.4111">
        <ele>378</ele>
        <time>2021-08-08T08:12:55Z</time>
      </trkpt>
      <trkpt lat="48.95909" lon="7.4111">
        <ele>378</ele>
        <time>2021-08-08T08:12:56Z</time>
      </trkpt>
      <trkpt lat="48.95912" lon="7.41097">
        <ele>378</ele>
        <time>2021-08-08T08:12:57Z</time>
      </trkpt>
      <trkpt lat="48.95912" lon="7.41097">
        <ele>378</ele>
        <time>2021-08-08T08:12:58Z</time>
      </trkpt>
      <trkpt lat="48.95913" lon="7.41083">
        <ele>380</ele>
        <time>2021-08-08T08:12:59Z</time>
      </trkpt>
      <trkpt lat="48.95913" lon="7.41083">
        <ele>380</ele>
        <time>2021-08-08T08:13:00Z</time>
      </trkpt>
      <trkpt lat="48.95915" lon="7.41071">
        <ele>380</ele>
        <time>2021-08-08T08:13:01Z</time>
      </trkpt>
      <trkpt lat="48.95915" lon="7.41071">
        <ele>380</ele>
        <time>2021-08-08T08:13:02Z</time>
      </trkpt>
      <trkpt lat="48.95917" lon="7.41058">
        <ele>380</ele>
        <time>2021-08-08T08:13:03Z</time>
      </trkpt>
      <trkpt lat="48.95917" lon="7.41058">
        <ele>380</ele>
        <time>2021-08-08T08:13:04Z</time>
      </trkpt>
      <trkpt lat="48.95919" lon="7.41046">
        <ele>381</ele>
        <time>2021-08-08T08:13:05Z</time>
      </trkpt>
      <trkpt lat="48.95919" lon="7.41046">
        <ele>381</ele>
        <time>2021-08-08T08:13:06Z</time>
      </trkpt>
      <trkpt lat="48.9592" lon="7.41033">
        <ele>381</ele>
        <time>2021-08-08T08:13:07Z</time>
      </trkpt>
      <trkpt lat="48.9592" lon="7.41033">
        <ele>381</ele>
        <time>2021-08-08T08:13:08Z</time>
      </trkpt>
      <trkpt lat="48.95921" lon="7.4102">
        <ele>381</ele>
        <time>2021-08-08T08:13:09Z</time>
      </trkpt>
      <trkpt lat="48.95921" lon="7.4102">
        <ele>381</ele>
        <time>2021-08-08T08:13:10Z</time>
      </trkpt>
      <trkpt lat="48.95923" lon="7.41007">
        <ele>381</ele>
        <time>2021-08-08T08:13:11Z</time>
      </trkpt>
      <trkpt lat="48.95923" lon="7.41007">
        <ele>381</ele>
        <time>2021-08-08T08:13:12Z</time>
      </trkpt>
      <trkpt lat="48.95925" lon="7.40995">
        <ele>381</ele>
        <time>2021-08-08T08:13:13Z</time>
      </trkpt>
      <trkpt lat="48.95925" lon="7.40995">
        <ele>381</ele>
        <time>2021-08-08T08:13:14Z</time>
      </trkpt>
      <trkpt lat="48.95927" lon="7.4098">
        <ele>381</ele>
        <time>2021-08-08T08:13:15Z</time>
      </trkpt>
      <trkpt lat="48.95927" lon="7.4098">
        <ele>381</ele>
        <time>2021-08-08T08:13:16Z</time>
      </trkpt>
      <trkpt lat="48.95929" lon="7.40966">
        <ele>381</ele>
        <time>2021-08-08T08:13:17Z</time>
      </trkpt>
      <trkpt lat="48.95929" lon="7.40966">
        <ele>381</ele>
        <time>2021-08-08T08:13:18Z</time>
      </trkpt>
      <trkpt lat="48.9593" lon="7.40953">
        <ele>381</ele>
        <time>2021-08-08T08:13:19Z</time>
      </trkpt>
      <trkpt lat="48.9593" lon="7.40953">
        <ele>381</ele>
        <time>2021-08-08T08:13:20Z</time>
      </trkpt>
      <trkpt lat="48.95927" lon="7.40938">
        <ele>381</ele>
        <time>2021-08-08T08:13:21Z</time>
      </trkpt>
      <trkpt lat="48.95927" lon="7.40938">
        <ele>381</ele>
        <time>2021-08-08T08:13:22Z</time>
      </trkpt>
      <trkpt lat="48.95924" lon="7.40925">
        <ele>381</ele>
        <time>2021-08-08T08:13:23Z</time>
      </trkpt>
      <trkpt lat="48.95924" lon="7.40925">
        <ele>381</ele>
        <time>2021-08-08T08:13:24Z</time>
      </trkpt>
      <trkpt lat="48.95921" lon="7.40913">
        <ele>381</ele>
        <time>2021-08-08T08:13:25Z</time>
      </trkpt>
      <trkpt lat="48.95921" lon="7.40913">
        <ele>381</ele>
        <time>2021-08-08T08:13:26Z</time>
      </trkpt>
      <trkpt lat="48.95917" lon="7.40899">
        <ele>381</ele>
        <time>2021-08-08T08:13:27Z</time>
      </trkpt>
      <trkpt lat="48.95917" lon="7.40899">
        <ele>381</ele>
        <time>2021-08-08T08:13:28Z</time>
      </trkpt>
      <trkpt lat="48.95913" lon="7.40886">
        <ele>381</ele>
        <time>2021-08-08T08:13:29Z</time>
      </trkpt>
      <trkpt lat="48.95911" lon="7.4088">
        <ele>381</ele>
        <time>2021-08-08T08:13:30Z</time>
      </trkpt>
      <trkpt lat="48.95909" lon="7.40873">
        <ele>381</ele>
        <time>2021-08-08T08:13:31Z</time>
      </trkpt>
      <trkpt lat="48.95909" lon="7.40873">
        <ele>381</ele>
        <time>2021-08-08T08:13:32Z</time>
      </trkpt>
      <trkpt lat="48.95905" lon="7.4086">
        <ele>381</ele>
        <time>2021-08-08T08:13:33Z</time>
      </trkpt>
      <trkpt lat="48.95905" lon="7.4086">
        <ele>381</ele>
        <time>2021-08-08T08:13:34Z</time>
      </trkpt>
      <trkpt lat="48.95901" lon="7.40846">
        <ele>381</ele>
        <time>2021-08-08T08:13:35Z</time>
      </trkpt>
      <trkpt lat="48.95901" lon="7.40846">
        <ele>381</ele>
        <time>2021-08-08T08:13:36Z</time>
      </trkpt>
      <trkpt lat="48.95898" lon="7.40832">
        <ele>381</ele>
        <time>2021-08-08T08:13:37Z</time>
      </trkpt>
      <trkpt lat="48.95898" lon="7.40832">
        <ele>381</ele>
        <time>2021-08-08T08:13:38Z</time>
      </trkpt>
      <trkpt lat="48.95895" lon="7.4082">
        <ele>381</ele>
        <time>2021-08-08T08:13:39Z</time>
      </trkpt>
      <trkpt lat="48.95893" lon="7.40813">
        <ele>381</ele>
        <time>2021-08-08T08:13:40Z</time>
      </trkpt>
      <trkpt lat="48.95893" lon="7.40813">
        <ele>381</ele>
        <time>2021-08-08T08:13:41Z</time>
      </trkpt>
      <trkpt lat="48.95889" lon="7.40801">
        <ele>381</ele>
        <time>2021-08-08T08:13:42Z</time>
      </trkpt>
      <trkpt lat="48.95887" lon="7.40795">
        <ele>381</ele>
        <time>2021-08-08T08:13:43Z</time>
      </trkpt>
      <trkpt lat="48.95885" lon="7.40788">
        <ele>381</ele>
        <time>2021-08-08T08:13:44Z</time>
      </trkpt>
      <trkpt lat="48.95886" lon="7.40776">
        <ele>382</ele>
        <time>2021-08-08T08:13:45Z</time>
      </trkpt>
      <trkpt lat="48.95886" lon="7.40776">
        <ele>382</ele>
        <time>2021-08-08T08:13:46Z</time>
      </trkpt>
      <trkpt lat="48.95885" lon="7.40761">
        <ele>382</ele>
        <time>2021-08-08T08:13:47Z</time>
      </trkpt>
      <trkpt lat="48.95885" lon="7.40761">
        <ele>382</ele>
        <time>2021-08-08T08:13:48Z</time>
      </trkpt>
      <trkpt lat="48.95881" lon="7.40748">
        <ele>382</ele>
        <time>2021-08-08T08:13:49Z</time>
      </trkpt>
      <trkpt lat="48.95881" lon="7.40748">
        <ele>382</ele>
        <time>2021-08-08T08:13:50Z</time>
      </trkpt>
      <trkpt lat="48.95878" lon="7.40734">
        <ele>382</ele>
        <time>2021-08-08T08:13:51Z</time>
      </trkpt>
      <trkpt lat="48.95878" lon="7.40734">
        <ele>382</ele>
        <time>2021-08-08T08:13:52Z</time>
      </trkpt>
      <trkpt lat="48.95875" lon="7.40719">
        <ele>382</ele>
        <time>2021-08-08T08:13:53Z</time>
      </trkpt>
      <trkpt lat="48.95872" lon="7.40713">
        <ele>382</ele>
        <time>2021-08-08T08:13:54Z</time>
      </trkpt>
      <trkpt lat="48.95872" lon="7.40713">
        <ele>382</ele>
        <time>2021-08-08T08:13:55Z</time>
      </trkpt>
      <trkpt lat="48.95869" lon="7.40699">
        <ele>382</ele>
        <time>2021-08-08T08:13:56Z</time>
      </trkpt>
      <trkpt lat="48.95869" lon="7.40699">
        <ele>382</ele>
        <time>2021-08-08T08:13:57Z</time>
      </trkpt>
      <trkpt lat="48.95865" lon="7.40685">
        <ele>382</ele>
        <time>2021-08-08T08:13:58Z</time>
      </trkpt>
      <trkpt lat="48.95865" lon="7.40685">
        <ele>382</ele>
        <time>2021-08-08T08:13:59Z</time>
      </trkpt>
      <trkpt lat="48.95861" lon="7.40672">
        <ele>382</ele>
        <time>2021-08-08T08:14:00Z</time>
      </trkpt>
      <trkpt lat="48.9586" lon="7.40666">
        <ele>382</ele>
        <time>2021-08-08T08:14:01Z</time>
      </trkpt>
      <trkpt lat="48.9586" lon="7.40666">
        <ele>382</ele>
        <time>2021-08-08T08:14:02Z</time>
      </trkpt>
      <trkpt lat="48.95856" lon="7.40652">
        <ele>382</ele>
        <time>2021-08-08T08:14:03Z</time>
      </trkpt>
      <trkpt lat="48.95856" lon="7.40652">
        <ele>382</ele>
        <time>2021-08-08T08:14:04Z</time>
      </trkpt>
      <trkpt lat="48.95853" lon="7.40641">
        <ele>382</ele>
        <time>2021-08-08T08:14:05Z</time>
      </trkpt>
      <trkpt lat="48.95853" lon="7.40641">
        <ele>382</ele>
        <time>2021-08-08T08:14:06Z</time>
      </trkpt>
      <trkpt lat="48.9585" lon="7.40629">
        <ele>382</ele>
        <time>2021-08-08T08:14:07Z</time>
      </trkpt>
      <trkpt lat="48.9585" lon="7.40629">
        <ele>382</ele>
        <time>2021-08-08T08:14:08Z</time>
      </trkpt>
      <trkpt lat="48.95847" lon="7.40614">
        <ele>383</ele>
        <time>2021-08-08T08:14:09Z</time>
      </trkpt>
      <trkpt lat="48.95847" lon="7.40614">
        <ele>383</ele>
        <time>2021-08-08T08:14:10Z</time>
      </trkpt>
      <trkpt lat="48.95843" lon="7.40601">
        <ele>383</ele>
        <time>2021-08-08T08:14:11Z</time>
      </trkpt>
      <trkpt lat="48.95842" lon="7.40594">
        <ele>383</ele>
        <time>2021-08-08T08:14:12Z</time>
      </trkpt>
      <trkpt lat="48.9584" lon="7.40587">
        <ele>383</ele>
        <time>2021-08-08T08:14:13Z</time>
      </trkpt>
      <trkpt lat="48.95839" lon="7.40581">
        <ele>383</ele>
        <time>2021-08-08T08:14:14Z</time>
      </trkpt>
      <trkpt lat="48.95839" lon="7.40581">
        <ele>383</ele>
        <time>2021-08-08T08:14:15Z</time>
      </trkpt>
      <trkpt lat="48.95835" lon="7.40568">
        <ele>383</ele>
        <time>2021-08-08T08:14:16Z</time>
      </trkpt>
      <trkpt lat="48.95834" lon="7.40559">
        <ele>383</ele>
        <time>2021-08-08T08:14:17Z</time>
      </trkpt>
      <trkpt lat="48.95834" lon="7.40559">
        <ele>384</ele>
        <time>2021-08-08T08:14:18Z</time>
      </trkpt>
      <trkpt lat="48.95831" lon="7.40546">
        <ele>384</ele>
        <time>2021-08-08T08:14:19Z</time>
      </trkpt>
      <trkpt lat="48.95831" lon="7.40546">
        <ele>384</ele>
        <time>2021-08-08T08:14:20Z</time>
      </trkpt>
      <trkpt lat="48.95829" lon="7.40535">
        <ele>384</ele>
        <time>2021-08-08T08:14:21Z</time>
      </trkpt>
      <trkpt lat="48.95829" lon="7.40535">
        <ele>384</ele>
        <time>2021-08-08T08:14:22Z</time>
      </trkpt>
      <trkpt lat="48.95826" lon="7.40524">
        <ele>384</ele>
        <time>2021-08-08T08:14:23Z</time>
      </trkpt>
      <trkpt lat="48.95826" lon="7.40524">
        <ele>384</ele>
        <time>2021-08-08T08:14:24Z</time>
      </trkpt>
      <trkpt lat="48.95823" lon="7.40513">
        <ele>384</ele>
        <time>2021-08-08T08:14:25Z</time>
      </trkpt>
      <trkpt lat="48.95823" lon="7.40513">
        <ele>384</ele>
        <time>2021-08-08T08:14:26Z</time>
      </trkpt>
      <trkpt lat="48.9582" lon="7.40501">
        <ele>384</ele>
        <time>2021-08-08T08:14:27Z</time>
      </trkpt>
      <trkpt lat="48.9582" lon="7.40501">
        <ele>384</ele>
        <time>2021-08-08T08:14:28Z</time>
      </trkpt>
      <trkpt lat="48.95816" lon="7.40487">
        <ele>384</ele>
        <time>2021-08-08T08:14:29Z</time>
      </trkpt>
      <trkpt lat="48.95816" lon="7.40487">
        <ele>384</ele>
        <time>2021-08-08T08:14:30Z</time>
      </trkpt>
      <trkpt lat="48.95811" lon="7.40474">
        <ele>384</ele>
        <time>2021-08-08T08:14:31Z</time>
      </trkpt>
      <trkpt lat="48.95811" lon="7.40474">
        <ele>384</ele>
        <time>2021-08-08T08:14:32Z</time>
      </trkpt>
      <trkpt lat="48.95807" lon="7.40459">
        <ele>384</ele>
        <time>2021-08-08T08:14:33Z</time>
      </trkpt>
      <trkpt lat="48.95807" lon="7.40459">
        <ele>384</ele>
        <time>2021-08-08T08:14:34Z</time>
      </trkpt>
      <trkpt lat="48.95802" lon="7.40447">
        <ele>384</ele>
        <time>2021-08-08T08:14:35Z</time>
      </trkpt>
      <trkpt lat="48.95802" lon="7.40447">
        <ele>384</ele>
        <time>2021-08-08T08:14:36Z</time>
      </trkpt>
      <trkpt lat="48.95798" lon="7.4043">
        <ele>384</ele>
        <time>2021-08-08T08:14:37Z</time>
      </trkpt>
      <trkpt lat="48.95798" lon="7.4043">
        <ele>384</ele>
        <time>2021-08-08T08:14:38Z</time>
      </trkpt>
      <trkpt lat="48.95794" lon="7.40415">
        <ele>384</ele>
        <time>2021-08-08T08:14:39Z</time>
      </trkpt>
      <trkpt lat="48.95794" lon="7.40415">
        <ele>384</ele>
        <time>2021-08-08T08:14:40Z</time>
      </trkpt>
      <trkpt lat="48.9579" lon="7.40401">
        <ele>384</ele>
        <time>2021-08-08T08:14:41Z</time>
      </trkpt>
      <trkpt lat="48.95788" lon="7.40393">
        <ele>384</ele>
        <time>2021-08-08T08:14:42Z</time>
      </trkpt>
      <trkpt lat="48.95788" lon="7.40393">
        <ele>384</ele>
        <time>2021-08-08T08:14:43Z</time>
      </trkpt>
      <trkpt lat="48.95783" lon="7.4038">
        <ele>384</ele>
        <time>2021-08-08T08:14:44Z</time>
      </trkpt>
      <trkpt lat="48.95783" lon="7.4038">
        <ele>384</ele>
        <time>2021-08-08T08:14:45Z</time>
      </trkpt>
      <trkpt lat="48.95779" lon="7.40364">
        <ele>384</ele>
        <time>2021-08-08T08:14:46Z</time>
      </trkpt>
      <trkpt lat="48.95779" lon="7.40364">
        <ele>384</ele>
        <time>2021-08-08T08:14:47Z</time>
      </trkpt>
      <trkpt lat="48.95775" lon="7.40341">
        <ele>383</ele>
        <time>2021-08-08T08:14:48Z</time>
      </trkpt>
      <trkpt lat="48.95774" lon="7.40332">
        <ele>383</ele>
        <time>2021-08-08T08:14:49Z</time>
      </trkpt>
      <trkpt lat="48.95774" lon="7.40332">
        <ele>383</ele>
        <time>2021-08-08T08:14:50Z</time>
      </trkpt>
      <trkpt lat="48.95771" lon="7.40319">
        <ele>383</ele>
        <time>2021-08-08T08:14:51Z</time>
      </trkpt>
      <trkpt lat="48.9577" lon="7.40312">
        <ele>383</ele>
        <time>2021-08-08T08:14:52Z</time>
      </trkpt>
      <trkpt lat="48.9577" lon="7.40312">
        <ele>383</ele>
        <time>2021-08-08T08:14:53Z</time>
      </trkpt>
      <trkpt lat="48.95766" lon="7.40298">
        <ele>383</ele>
        <time>2021-08-08T08:14:54Z</time>
      </trkpt>
      <trkpt lat="48.95764" lon="7.40292">
        <ele>383</ele>
        <time>2021-08-08T08:14:55Z</time>
      </trkpt>
      <trkpt lat="48.95764" lon="7.40292">
        <ele>383</ele>
        <time>2021-08-08T08:14:56Z</time>
      </trkpt>
      <trkpt lat="48.95759" lon="7.40279">
        <ele>383</ele>
        <time>2021-08-08T08:14:57Z</time>
      </trkpt>
      <trkpt lat="48.95757" lon="7.40273">
        <ele>383</ele>
        <time>2021-08-08T08:14:58Z</time>
      </trkpt>
      <trkpt lat="48.95757" lon="7.40273">
        <ele>383</ele>
        <time>2021-08-08T08:14:59Z</time>
      </trkpt>
      <trkpt lat="48.95752" lon="7.40259">
        <ele>383</ele>
        <time>2021-08-08T08:15:00Z</time>
      </trkpt>
      <trkpt lat="48.95749" lon="7.4025">
        <ele>383</ele>
        <time>2021-08-08T08:15:01Z</time>
      </trkpt>
      <trkpt lat="48.95749" lon="7.4025">
        <ele>383</ele>
        <time>2021-08-08T08:15:02Z</time>
      </trkpt>
      <trkpt lat="48.95744" lon="7.40233">
        <ele>383</ele>
        <time>2021-08-08T08:15:03Z</time>
      </trkpt>
      <trkpt lat="48.95744" lon="7.40233">
        <ele>383</ele>
        <time>2021-08-08T08:15:04Z</time>
      </trkpt>
      <trkpt lat="48.95739" lon="7.40216">
        <ele>382</ele>
        <time>2021-08-08T08:15:05Z</time>
      </trkpt>
      <trkpt lat="48.95739" lon="7.40216">
        <ele>382</ele>
        <time>2021-08-08T08:15:06Z</time>
      </trkpt>
      <trkpt lat="48.95733" lon="7.40196">
        <ele>382</ele>
        <time>2021-08-08T08:15:07Z</time>
      </trkpt>
      <trkpt lat="48.95733" lon="7.40196">
        <ele>382</ele>
        <time>2021-08-08T08:15:08Z</time>
      </trkpt>
      <trkpt lat="48.95726" lon="7.40176">
        <ele>381</ele>
        <time>2021-08-08T08:15:09Z</time>
      </trkpt>
      <trkpt lat="48.95726" lon="7.40176">
        <ele>381</ele>
        <time>2021-08-08T08:15:10Z</time>
      </trkpt>
      <trkpt lat="48.95719" lon="7.40157">
        <ele>381</ele>
        <time>2021-08-08T08:15:11Z</time>
      </trkpt>
      <trkpt lat="48.95719" lon="7.40157">
        <ele>381</ele>
        <time>2021-08-08T08:15:12Z</time>
      </trkpt>
      <trkpt lat="48.95713" lon="7.40135">
        <ele>379</ele>
        <time>2021-08-08T08:15:13Z</time>
      </trkpt>
      <trkpt lat="48.95713" lon="7.40135">
        <ele>379</ele>
        <time>2021-08-08T08:15:14Z</time>
      </trkpt>
      <trkpt lat="48.95706" lon="7.40113">
        <ele>378</ele>
        <time>2021-08-08T08:15:15Z</time>
      </trkpt>
      <trkpt lat="48.95706" lon="7.40113">
        <ele>378</ele>
        <time>2021-08-08T08:15:16Z</time>
      </trkpt>
      <trkpt lat="48.95699" lon="7.40091">
        <ele>377</ele>
        <time>2021-08-08T08:15:17Z</time>
      </trkpt>
      <trkpt lat="48.95699" lon="7.40091">
        <ele>377</ele>
        <time>2021-08-08T08:15:18Z</time>
      </trkpt>
      <trkpt lat="48.95691" lon="7.40063">
        <ele>375</ele>
        <time>2021-08-08T08:15:19Z</time>
      </trkpt>
      <trkpt lat="48.95686" lon="7.40051">
        <ele>375</ele>
        <time>2021-08-08T08:15:20Z</time>
      </trkpt>
      <trkpt lat="48.95686" lon="7.40051">
        <ele>374</ele>
        <time>2021-08-08T08:15:21Z</time>
      </trkpt>
      <trkpt lat="48.95679" lon="7.4002">
        <ele>374</ele>
        <time>2021-08-08T08:15:22Z</time>
      </trkpt>
      <trkpt lat="48.95675" lon="7.40008">
        <ele>373</ele>
        <time>2021-08-08T08:15:23Z</time>
      </trkpt>
      <trkpt lat="48.95671" lon="7.39998">
        <ele>373</ele>
        <time>2021-08-08T08:15:24Z</time>
      </trkpt>
      <trkpt lat="48.95671" lon="7.39998">
        <ele>372</ele>
        <time>2021-08-08T08:15:25Z</time>
      </trkpt>
      <trkpt lat="48.95664" lon="7.39976">
        <ele>372</ele>
        <time>2021-08-08T08:15:26Z</time>
      </trkpt>
      <trkpt lat="48.95664" lon="7.39976">
        <ele>372</ele>
        <time>2021-08-08T08:15:27Z</time>
      </trkpt>
      <trkpt lat="48.95656" lon="7.39954">
        <ele>372</ele>
        <time>2021-08-08T08:15:28Z</time>
      </trkpt>
      <trkpt lat="48.95654" lon="7.39942">
        <ele>371</ele>
        <time>2021-08-08T08:15:29Z</time>
      </trkpt>
      <trkpt lat="48.95654" lon="7.39942">
        <ele>371</ele>
        <time>2021-08-08T08:15:30Z</time>
      </trkpt>
      <trkpt lat="48.95651" lon="7.39919">
        <ele>371</ele>
        <time>2021-08-08T08:15:31Z</time>
      </trkpt>
      <trkpt lat="48.95649" lon="7.39908">
        <ele>371</ele>
        <time>2021-08-08T08:15:32Z</time>
      </trkpt>
      <trkpt lat="48.95649" lon="7.39908">
        <ele>370</ele>
        <time>2021-08-08T08:15:33Z</time>
      </trkpt>
      <trkpt lat="48.95644" lon="7.39886">
        <ele>370</ele>
        <time>2021-08-08T08:15:34Z</time>
      </trkpt>
      <trkpt lat="48.95644" lon="7.39886">
        <ele>370</ele>
        <time>2021-08-08T08:15:35Z</time>
      </trkpt>
      <trkpt lat="48.95639" lon="7.39863">
        <ele>370</ele>
        <time>2021-08-08T08:15:36Z</time>
      </trkpt>
      <trkpt lat="48.95636" lon="7.39852">
        <ele>370</ele>
        <time>2021-08-08T08:15:37Z</time>
      </trkpt>
      <trkpt lat="48.95636" lon="7.39852">
        <ele>370</ele>
        <time>2021-08-08T08:15:38Z</time>
      </trkpt>
      <trkpt lat="48.9563" lon="7.39831">
        <ele>369</ele>
        <time>2021-08-08T08:15:39Z</time>
      </trkpt>
      <trkpt lat="48.9563" lon="7.39831">
        <ele>369</ele>
        <time>2021-08-08T08:15:40Z</time>
      </trkpt>
      <trkpt lat="48.95626" lon="7.39812">
        <ele>369</ele>
        <time>2021-08-08T08:15:41Z</time>
      </trkpt>
      <trkpt lat="48.95626" lon="7.39812">
        <ele>369</ele>
        <time>2021-08-08T08:15:42Z</time>
      </trkpt>
      <trkpt lat="48.95623" lon="7.39792">
        <ele>369</ele>
        <time>2021-08-08T08:15:43Z</time>
      </trkpt>
      <trkpt lat="48.95623" lon="7.39792">
        <ele>369</ele>
        <time>2021-08-08T08:15:44Z</time>
      </trkpt>
      <trkpt lat="48.95618" lon="7.39771">
        <ele>369</ele>
        <time>2021-08-08T08:15:45Z</time>
      </trkpt>
      <trkpt lat="48.95618" lon="7.39771">
        <ele>369</ele>
        <time>2021-08-08T08:15:46Z</time>
      </trkpt>
      <trkpt lat="48.95614" lon="7.39752">
        <ele>369</ele>
        <time>2021-08-08T08:15:47Z</time>
      </trkpt>
      <trkpt lat="48.95614" lon="7.39752">
        <ele>369</ele>
        <time>2021-08-08T08:15:48Z</time>
      </trkpt>
      <trkpt lat="48.95607" lon="7.3973">
        <ele>369</ele>
        <time>2021-08-08T08:15:49Z</time>
      </trkpt>
      <trkpt lat="48.95604" lon="7.3972">
        <ele>369</ele>
        <time>2021-08-08T08:15:50Z</time>
      </trkpt>
      <trkpt lat="48.95601" lon="7.39711">
        <ele>369</ele>
        <time>2021-08-08T08:15:51Z</time>
      </trkpt>
      <trkpt lat="48.95601" lon="7.39711">
        <ele>369</ele>
        <time>2021-08-08T08:15:52Z</time>
      </trkpt>
      <trkpt lat="48.95597" lon="7.39695">
        <ele>369</ele>
        <time>2021-08-08T08:15:53Z</time>
      </trkpt>
      <trkpt lat="48.95596" lon="7.39687">
        <ele>369</ele>
        <time>2021-08-08T08:15:54Z</time>
      </trkpt>
      <trkpt lat="48.95595" lon="7.39679">
        <ele>369</ele>
        <time>2021-08-08T08:15:55Z</time>
      </trkpt>
      <trkpt lat="48.95595" lon="7.39679">
        <ele>369</ele>
        <time>2021-08-08T08:15:56Z</time>
      </trkpt>
      <trkpt lat="48.95591" lon="7.39663">
        <ele>369</ele>
        <time>2021-08-08T08:15:57Z</time>
      </trkpt>
      <trkpt lat="48.95591" lon="7.39663">
        <ele>369</ele>
        <time>2021-08-08T08:15:58Z</time>
      </trkpt>
      <trkpt lat="48.95586" lon="7.39651">
        <ele>369</ele>
        <time>2021-08-08T08:15:59Z</time>
      </trkpt>
      <trkpt lat="48.95586" lon="7.39651">
        <ele>369</ele>
        <time>2021-08-08T08:16:00Z</time>
      </trkpt>
      <trkpt lat="48.95582" lon="7.39639">
        <ele>369</ele>
        <time>2021-08-08T08:16:01Z</time>
      </trkpt>
      <trkpt lat="48.95582" lon="7.39639">
        <ele>369</ele>
        <time>2021-08-08T08:16:02Z</time>
      </trkpt>
      <trkpt lat="48.95576" lon="7.39623">
        <ele>369</ele>
        <time>2021-08-08T08:16:03Z</time>
      </trkpt>
      <trkpt lat="48.95576" lon="7.39623">
        <ele>369</ele>
        <time>2021-08-08T08:16:04Z</time>
      </trkpt>
      <trkpt lat="48.95569" lon="7.39606">
        <ele>370</ele>
        <time>2021-08-08T08:16:05Z</time>
      </trkpt>
      <trkpt lat="48.95566" lon="7.39599">
        <ele>370</ele>
        <time>2021-08-08T08:16:06Z</time>
      </trkpt>
      <trkpt lat="48.95566" lon="7.39599">
        <ele>370</ele>
        <time>2021-08-08T08:16:07Z</time>
      </trkpt>
      <trkpt lat="48.95559" lon="7.39586">
        <ele>370</ele>
        <time>2021-08-08T08:16:08Z</time>
      </trkpt>
      <trkpt lat="48.95556" lon="7.39579">
        <ele>370</ele>
        <time>2021-08-08T08:16:09Z</time>
      </trkpt>
      <trkpt lat="48.95552" lon="7.39572">
        <ele>370</ele>
        <time>2021-08-08T08:16:10Z</time>
      </trkpt>
      <trkpt lat="48.95552" lon="7.39572">
        <ele>370</ele>
        <time>2021-08-08T08:16:11Z</time>
      </trkpt>
      <trkpt lat="48.95546" lon="7.39559">
        <ele>370</ele>
        <time>2021-08-08T08:16:12Z</time>
      </trkpt>
      <trkpt lat="48.95543" lon="7.39553">
        <ele>370</ele>
        <time>2021-08-08T08:16:13Z</time>
      </trkpt>
      <trkpt lat="48.95543" lon="7.39553">
        <ele>370</ele>
        <time>2021-08-08T08:16:14Z</time>
      </trkpt>
      <trkpt lat="48.95536" lon="7.39541">
        <ele>370</ele>
        <time>2021-08-08T08:16:15Z</time>
      </trkpt>
      <trkpt lat="48.95536" lon="7.39541">
        <ele>371</ele>
        <time>2021-08-08T08:16:16Z</time>
      </trkpt>
      <trkpt lat="48.95528" lon="7.3953">
        <ele>371</ele>
        <time>2021-08-08T08:16:17Z</time>
      </trkpt>
      <trkpt lat="48.95528" lon="7.3953">
        <ele>371</ele>
        <time>2021-08-08T08:16:18Z</time>
      </trkpt>
      <trkpt lat="48.9552" lon="7.39521">
        <ele>371</ele>
        <time>2021-08-08T08:16:19Z</time>
      </trkpt>
      <trkpt lat="48.95516" lon="7.39516">
        <ele>371</ele>
        <time>2021-08-08T08:16:20Z</time>
      </trkpt>
      <trkpt lat="48.95512" lon="7.39509">
        <ele>371</ele>
        <time>2021-08-08T08:16:21Z</time>
      </trkpt>
      <trkpt lat="48.95512" lon="7.39509">
        <ele>371</ele>
        <time>2021-08-08T08:16:22Z</time>
      </trkpt>
      <trkpt lat="48.95499" lon="7.39499">
        <ele>371</ele>
        <time>2021-08-08T08:16:23Z</time>
      </trkpt>
      <trkpt lat="48.95499" lon="7.39499">
        <ele>371</ele>
        <time>2021-08-08T08:16:24Z</time>
      </trkpt>
      <trkpt lat="48.9549" lon="7.39491">
        <ele>371</ele>
        <time>2021-08-08T08:16:25Z</time>
      </trkpt>
      <trkpt lat="48.9549" lon="7.39491">
        <ele>371</ele>
        <time>2021-08-08T08:16:26Z</time>
      </trkpt>
      <trkpt lat="48.9548" lon="7.39484">
        <ele>372</ele>
        <time>2021-08-08T08:16:27Z</time>
      </trkpt>
      <trkpt lat="48.9548" lon="7.39484">
        <ele>372</ele>
        <time>2021-08-08T08:16:28Z</time>
      </trkpt>
      <trkpt lat="48.95472" lon="7.39478">
        <ele>372</ele>
        <time>2021-08-08T08:16:29Z</time>
      </trkpt>
      <trkpt lat="48.95467" lon="7.39474">
        <ele>372</ele>
        <time>2021-08-08T08:16:30Z</time>
      </trkpt>
      <trkpt lat="48.95467" lon="7.39474">
        <ele>372</ele>
        <time>2021-08-08T08:16:31Z</time>
      </trkpt>
      <trkpt lat="48.95459" lon="7.39467">
        <ele>372</ele>
        <time>2021-08-08T08:16:32Z</time>
      </trkpt>
      <trkpt lat="48.95455" lon="7.39463">
        <ele>372</ele>
        <time>2021-08-08T08:16:33Z</time>
      </trkpt>
      <trkpt lat="48.95455" lon="7.39463">
        <ele>372</ele>
        <time>2021-08-08T08:16:34Z</time>
      </trkpt>
      <trkpt lat="48.95447" lon="7.39456">
        <ele>372</ele>
        <time>2021-08-08T08:16:35Z</time>
      </trkpt>
      <trkpt lat="48.95447" lon="7.39456">
        <ele>372</ele>
        <time>2021-08-08T08:16:36Z</time>
      </trkpt>
      <trkpt lat="48.9544" lon="7.39447">
        <ele>372</ele>
        <time>2021-08-08T08:16:37Z</time>
      </trkpt>
      <trkpt lat="48.9544" lon="7.39447">
        <ele>372</ele>
        <time>2021-08-08T08:16:38Z</time>
      </trkpt>
      <trkpt lat="48.95432" lon="7.3944">
        <ele>372</ele>
        <time>2021-08-08T08:16:39Z</time>
      </trkpt>
      <trkpt lat="48.95432" lon="7.3944">
        <ele>372</ele>
        <time>2021-08-08T08:16:40Z</time>
      </trkpt>
      <trkpt lat="48.95423" lon="7.39432">
        <ele>372</ele>
        <time>2021-08-08T08:16:41Z</time>
      </trkpt>
      <trkpt lat="48.95423" lon="7.39432">
        <ele>372</ele>
        <time>2021-08-08T08:16:42Z</time>
      </trkpt>
      <trkpt lat="48.95415" lon="7.39424">
        <ele>372</ele>
        <time>2021-08-08T08:16:43Z</time>
      </trkpt>
      <trkpt lat="48.95415" lon="7.39424">
        <ele>372</ele>
        <time>2021-08-08T08:16:44Z</time>
      </trkpt>
      <trkpt lat="48.95403" lon="7.39413">
        <ele>372</ele>
        <time>2021-08-08T08:16:45Z</time>
      </trkpt>
      <trkpt lat="48.95403" lon="7.39413">
        <ele>372</ele>
        <time>2021-08-08T08:16:46Z</time>
      </trkpt>
      <trkpt lat="48.95393" lon="7.39402">
        <ele>372</ele>
        <time>2021-08-08T08:16:47Z</time>
      </trkpt>
      <trkpt lat="48.95393" lon="7.39402">
        <ele>372</ele>
        <time>2021-08-08T08:16:48Z</time>
      </trkpt>
      <trkpt lat="48.95385" lon="7.39393">
        <ele>372</ele>
        <time>2021-08-08T08:16:49Z</time>
      </trkpt>
      <trkpt lat="48.95381" lon="7.3939">
        <ele>372</ele>
        <time>2021-08-08T08:16:50Z</time>
      </trkpt>
      <trkpt lat="48.95381" lon="7.3939">
        <ele>372</ele>
        <time>2021-08-08T08:16:51Z</time>
      </trkpt>
      <trkpt lat="48.95373" lon="7.39383">
        <ele>372</ele>
        <time>2021-08-08T08:16:52Z</time>
      </trkpt>
      <trkpt lat="48.95373" lon="7.39383">
        <ele>372</ele>
        <time>2021-08-08T08:16:53Z</time>
      </trkpt>
      <trkpt lat="48.95365" lon="7.39375">
        <ele>372</ele>
        <time>2021-08-08T08:16:54Z</time>
      </trkpt>
      <trkpt lat="48.95365" lon="7.39375">
        <ele>372</ele>
        <time>2021-08-08T08:16:55Z</time>
      </trkpt>
      <trkpt lat="48.95356" lon="7.39367">
        <ele>372</ele>
        <time>2021-08-08T08:16:56Z</time>
      </trkpt>
      <trkpt lat="48.9535" lon="7.39361">
        <ele>372</ele>
        <time>2021-08-08T08:16:57Z</time>
      </trkpt>
      <trkpt lat="48.9535" lon="7.39361">
        <ele>372</ele>
        <time>2021-08-08T08:16:58Z</time>
      </trkpt>
      <trkpt lat="48.95343" lon="7.39353">
        <ele>372</ele>
        <time>2021-08-08T08:16:59Z</time>
      </trkpt>
      <trkpt lat="48.95343" lon="7.39353">
        <ele>372</ele>
        <time>2021-08-08T08:17:00Z</time>
      </trkpt>
      <trkpt lat="48.95336" lon="7.39343">
        <ele>372</ele>
        <time>2021-08-08T08:17:01Z</time>
      </trkpt>
      <trkpt lat="48.95336" lon="7.39343">
        <ele>372</ele>
        <time>2021-08-08T08:17:02Z</time>
      </trkpt>
      <trkpt lat="48.95327" lon="7.39334">
        <ele>372</ele>
        <time>2021-08-08T08:17:03Z</time>
      </trkpt>
      <trkpt lat="48.95327" lon="7.39334">
        <ele>372</ele>
        <time>2021-08-08T08:17:04Z</time>
      </trkpt>
      <trkpt lat="48.95317" lon="7.39324">
        <ele>372</ele>
        <time>2021-08-08T08:17:05Z</time>
      </trkpt>
      <trkpt lat="48.95317" lon="7.39324">
        <ele>372</ele>
        <time>2021-08-08T08:17:06Z</time>
      </trkpt>
      <trkpt lat="48.95311" lon="7.39314">
        <ele>372</ele>
        <time>2021-08-08T08:17:07Z</time>
      </trkpt>
      <trkpt lat="48.95311" lon="7.39314">
        <ele>372</ele>
        <time>2021-08-08T08:17:08Z</time>
      </trkpt>
      <trkpt lat="48.95305" lon="7.39304">
        <ele>372</ele>
        <time>2021-08-08T08:17:09Z</time>
      </trkpt>
      <trkpt lat="48.95303" lon="7.39299">
        <ele>372</ele>
        <time>2021-08-08T08:17:10Z</time>
      </trkpt>
      <trkpt lat="48.95303" lon="7.39299">
        <ele>373</ele>
        <time>2021-08-08T08:17:11Z</time>
      </trkpt>
      <trkpt lat="48.95297" lon="7.3929">
        <ele>373</ele>
        <time>2021-08-08T08:17:12Z</time>
      </trkpt>
      <trkpt lat="48.95297" lon="7.3929">
        <ele>373</ele>
        <time>2021-08-08T08:17:13Z</time>
      </trkpt>
      <trkpt lat="48.95294" lon="7.39282">
        <ele>373</ele>
        <time>2021-08-08T08:17:14Z</time>
      </trkpt>
      <trkpt lat="48.95292" lon="7.39278">
        <ele>373</ele>
        <time>2021-08-08T08:17:15Z</time>
      </trkpt>
      <trkpt lat="48.95292" lon="7.39278">
        <ele>373</ele>
        <time>2021-08-08T08:17:16Z</time>
      </trkpt>
      <trkpt lat="48.95286" lon="7.39269">
        <ele>373</ele>
        <time>2021-08-08T08:17:17Z</time>
      </trkpt>
      <trkpt lat="48.95286" lon="7.39269">
        <ele>373</ele>
        <time>2021-08-08T08:17:18Z</time>
      </trkpt>
      <trkpt lat="48.95282" lon="7.39259">
        <ele>373</ele>
        <time>2021-08-08T08:17:19Z</time>
      </trkpt>
      <trkpt lat="48.95282" lon="7.39259">
        <ele>373</ele>
        <time>2021-08-08T08:17:20Z</time>
      </trkpt>
      <trkpt lat="48.95278" lon="7.3925">
        <ele>373</ele>
        <time>2021-08-08T08:17:21Z</time>
      </trkpt>
      <trkpt lat="48.95278" lon="7.3925">
        <ele>373</ele>
        <time>2021-08-08T08:17:22Z</time>
      </trkpt>
      <trkpt lat="48.95273" lon="7.3924">
        <ele>373</ele>
        <time>2021-08-08T08:17:23Z</time>
      </trkpt>
      <trkpt lat="48.95273" lon="7.3924">
        <ele>373</ele>
        <time>2021-08-08T08:17:24Z</time>
      </trkpt>
      <trkpt lat="48.95268" lon="7.39231">
        <ele>373</ele>
        <time>2021-08-08T08:17:25Z</time>
      </trkpt>
      <trkpt lat="48.95268" lon="7.39231">
        <ele>373</ele>
        <time>2021-08-08T08:17:26Z</time>
      </trkpt>
      <trkpt lat="48.95263" lon="7.39221">
        <ele>373</ele>
        <time>2021-08-08T08:17:27Z</time>
      </trkpt>
      <trkpt lat="48.95263" lon="7.39221">
        <ele>373</ele>
        <time>2021-08-08T08:17:28Z</time>
      </trkpt>
      <trkpt lat="48.95259" lon="7.39207">
        <ele>373</ele>
        <time>2021-08-08T08:17:29Z</time>
      </trkpt>
      <trkpt lat="48.95254" lon="7.39202">
        <ele>373</ele>
        <time>2021-08-08T08:17:30Z</time>
      </trkpt>
      <trkpt lat="48.95254" lon="7.39202">
        <ele>374</ele>
        <time>2021-08-08T08:17:31Z</time>
      </trkpt>
      <trkpt lat="48.95247" lon="7.39192">
        <ele>374</ele>
        <time>2021-08-08T08:17:32Z</time>
      </trkpt>
      <trkpt lat="48.95245" lon="7.39186">
        <ele>374</ele>
        <time>2021-08-08T08:17:33Z</time>
      </trkpt>
      <trkpt lat="48.95245" lon="7.39186">
        <ele>374</ele>
        <time>2021-08-08T08:17:34Z</time>
      </trkpt>
      <trkpt lat="48.95242" lon="7.39173">
        <ele>374</ele>
        <time>2021-08-08T08:17:35Z</time>
      </trkpt>
      <trkpt lat="48.95242" lon="7.39173">
        <ele>374</ele>
        <time>2021-08-08T08:17:36Z</time>
      </trkpt>
      <trkpt lat="48.95238" lon="7.39159">
        <ele>375</ele>
        <time>2021-08-08T08:17:37Z</time>
      </trkpt>
      <trkpt lat="48.95237" lon="7.39151">
        <ele>375</ele>
        <time>2021-08-08T08:17:38Z</time>
      </trkpt>
      <trkpt lat="48.95235" lon="7.39144">
        <ele>375</ele>
        <time>2021-08-08T08:17:39Z</time>
      </trkpt>
      <trkpt lat="48.95235" lon="7.39144">
        <ele>375</ele>
        <time>2021-08-08T08:17:40Z</time>
      </trkpt>
      <trkpt lat="48.95232" lon="7.39132">
        <ele>375</ele>
        <time>2021-08-08T08:17:41Z</time>
      </trkpt>
      <trkpt lat="48.95232" lon="7.39132">
        <ele>375</ele>
        <time>2021-08-08T08:17:42Z</time>
      </trkpt>
      <trkpt lat="48.9523" lon="7.39119">
        <ele>375</ele>
        <time>2021-08-08T08:17:43Z</time>
      </trkpt>
      <trkpt lat="48.9523" lon="7.39119">
        <ele>375</ele>
        <time>2021-08-08T08:17:44Z</time>
      </trkpt>
      <trkpt lat="48.95224" lon="7.39106">
        <ele>375</ele>
        <time>2021-08-08T08:17:45Z</time>
      </trkpt>
      <trkpt lat="48.95224" lon="7.39106">
        <ele>375</ele>
        <time>2021-08-08T08:17:46Z</time>
      </trkpt>
      <trkpt lat="48.9522" lon="7.39093">
        <ele>375</ele>
        <time>2021-08-08T08:17:47Z</time>
      </trkpt>
      <trkpt lat="48.95219" lon="7.39086">
        <ele>375</ele>
        <time>2021-08-08T08:17:48Z</time>
      </trkpt>
      <trkpt lat="48.95219" lon="7.39086">
        <ele>375</ele>
        <time>2021-08-08T08:17:49Z</time>
      </trkpt>
      <trkpt lat="48.95216" lon="7.39071">
        <ele>375</ele>
        <time>2021-08-08T08:17:50Z</time>
      </trkpt>
      <trkpt lat="48.95214" lon="7.39065">
        <ele>375</ele>
        <time>2021-08-08T08:17:51Z</time>
      </trkpt>
      <trkpt lat="48.95214" lon="7.39065">
        <ele>375</ele>
        <time>2021-08-08T08:17:52Z</time>
      </trkpt>
      <trkpt lat="48.95208" lon="7.39049">
        <ele>375</ele>
        <time>2021-08-08T08:17:53Z</time>
      </trkpt>
      <trkpt lat="48.95208" lon="7.39049">
        <ele>375</ele>
        <time>2021-08-08T08:17:54Z</time>
      </trkpt>
      <trkpt lat="48.95205" lon="7.39033">
        <ele>375</ele>
        <time>2021-08-08T08:17:55Z</time>
      </trkpt>
      <trkpt lat="48.95205" lon="7.39033">
        <ele>375</ele>
        <time>2021-08-08T08:17:56Z</time>
      </trkpt>
      <trkpt lat="48.95202" lon="7.3902">
        <ele>375</ele>
        <time>2021-08-08T08:17:57Z</time>
      </trkpt>
      <trkpt lat="48.952" lon="7.39014">
        <ele>375</ele>
        <time>2021-08-08T08:17:58Z</time>
      </trkpt>
      <trkpt lat="48.952" lon="7.39014">
        <ele>375</ele>
        <time>2021-08-08T08:17:59Z</time>
      </trkpt>
      <trkpt lat="48.95195" lon="7.39003">
        <ele>375</ele>
        <time>2021-08-08T08:18:00Z</time>
      </trkpt>
      <trkpt lat="48.95193" lon="7.38996">
        <ele>375</ele>
        <time>2021-08-08T08:18:01Z</time>
      </trkpt>
      <trkpt lat="48.95193" lon="7.38996">
        <ele>375</ele>
        <time>2021-08-08T08:18:02Z</time>
      </trkpt>
      <trkpt lat="48.9519" lon="7.38984">
        <ele>375</ele>
        <time>2021-08-08T08:18:03Z</time>
      </trkpt>
      <trkpt lat="48.9519" lon="7.38984">
        <ele>375</ele>
        <time>2021-08-08T08:18:04Z</time>
      </trkpt>
      <trkpt lat="48.95187" lon="7.3897">
        <ele>375</ele>
        <time>2021-08-08T08:18:05Z</time>
      </trkpt>
      <trkpt lat="48.95187" lon="7.3897">
        <ele>375</ele>
        <time>2021-08-08T08:18:06Z</time>
      </trkpt>
      <trkpt lat="48.95186" lon="7.38958">
        <ele>375</ele>
        <time>2021-08-08T08:18:07Z</time>
      </trkpt>
      <trkpt lat="48.95186" lon="7.38958">
        <ele>375</ele>
        <time>2021-08-08T08:18:08Z</time>
      </trkpt>
      <trkpt lat="48.95185" lon="7.38944">
        <ele>375</ele>
        <time>2021-08-08T08:18:09Z</time>
      </trkpt>
      <trkpt lat="48.95185" lon="7.38944">
        <ele>375</ele>
        <time>2021-08-08T08:18:10Z</time>
      </trkpt>
      <trkpt lat="48.95184" lon="7.38933">
        <ele>375</ele>
        <time>2021-08-08T08:18:11Z</time>
      </trkpt>
      <trkpt lat="48.95182" lon="7.38929">
        <ele>375</ele>
        <time>2021-08-08T08:18:12Z</time>
      </trkpt>
      <trkpt lat="48.95182" lon="7.38929">
        <ele>375</ele>
        <time>2021-08-08T08:18:13Z</time>
      </trkpt>
      <trkpt lat="48.95178" lon="7.38922">
        <ele>375</ele>
        <time>2021-08-08T08:18:14Z</time>
      </trkpt>
      <trkpt lat="48.95176" lon="7.38919">
        <ele>375</ele>
        <time>2021-08-08T08:18:15Z</time>
      </trkpt>
      <trkpt lat="48.95176" lon="7.38919">
        <ele>375</ele>
        <time>2021-08-08T08:18:16Z</time>
      </trkpt>
      <trkpt lat="48.95172" lon="7.38916">
        <ele>375</ele>
        <time>2021-08-08T08:18:17Z</time>
      </trkpt>
      <trkpt lat="48.95172" lon="7.38916">
        <ele>375</ele>
        <time>2021-08-08T08:18:18Z</time>
      </trkpt>
      <trkpt lat="48.95169" lon="7.3891">
        <ele>375</ele>
        <time>2021-08-08T08:18:19Z</time>
      </trkpt>
      <trkpt lat="48.95169" lon="7.3891">
        <ele>375</ele>
        <time>2021-08-08T08:18:20Z</time>
      </trkpt>
      <trkpt lat="48.95165" lon="7.38906">
        <ele>375</ele>
        <time>2021-08-08T08:18:21Z</time>
      </trkpt>
      <trkpt lat="48.95165" lon="7.38906">
        <ele>375</ele>
        <time>2021-08-08T08:18:22Z</time>
      </trkpt>
      <trkpt lat="48.95161" lon="7.38907">
        <ele>375</ele>
        <time>2021-08-08T08:18:23Z</time>
      </trkpt>
      <trkpt lat="48.95161" lon="7.38907">
        <ele>375</ele>
        <time>2021-08-08T08:18:24Z</time>
      </trkpt>
      <trkpt lat="48.95155" lon="7.389">
        <ele>375</ele>
        <time>2021-08-08T08:18:25Z</time>
      </trkpt>
      <trkpt lat="48.95155" lon="7.389">
        <ele>375</ele>
        <time>2021-08-08T08:18:26Z</time>
      </trkpt>
      <trkpt lat="48.95146" lon="7.38894">
        <ele>375</ele>
        <time>2021-08-08T08:18:27Z</time>
      </trkpt>
      <trkpt lat="48.95146" lon="7.38894">
        <ele>375</ele>
        <time>2021-08-08T08:18:28Z</time>
      </trkpt>
      <trkpt lat="48.95137" lon="7.38888">
        <ele>375</ele>
        <time>2021-08-08T08:18:29Z</time>
      </trkpt>
      <trkpt lat="48.95133" lon="7.38885">
        <ele>374</ele>
        <time>2021-08-08T08:18:30Z</time>
      </trkpt>
      <trkpt lat="48.95133" lon="7.38885">
        <ele>374</ele>
        <time>2021-08-08T08:18:31Z</time>
      </trkpt>
      <trkpt lat="48.95123" lon="7.38878">
        <ele>374</ele>
        <time>2021-08-08T08:18:32Z</time>
      </trkpt>
      <trkpt lat="48.95119" lon="7.38876">
        <ele>374</ele>
        <time>2021-08-08T08:18:33Z</time>
      </trkpt>
      <trkpt lat="48.95115" lon="7.38876">
        <ele>373</ele>
        <time>2021-08-08T08:18:34Z</time>
      </trkpt>
      <trkpt lat="48.95115" lon="7.38876">
        <ele>373</ele>
        <time>2021-08-08T08:18:35Z</time>
      </trkpt>
      <trkpt lat="48.95107" lon="7.38879">
        <ele>373</ele>
        <time>2021-08-08T08:18:36Z</time>
      </trkpt>
      <trkpt lat="48.95104" lon="7.38882">
        <ele>373</ele>
        <time>2021-08-08T08:18:37Z</time>
      </trkpt>
      <trkpt lat="48.95104" lon="7.38882">
        <ele>372</ele>
        <time>2021-08-08T08:18:38Z</time>
      </trkpt>
      <trkpt lat="48.95096" lon="7.38889">
        <ele>372</ele>
        <time>2021-08-08T08:18:39Z</time>
      </trkpt>
      <trkpt lat="48.95096" lon="7.38889">
        <ele>372</ele>
        <time>2021-08-08T08:18:40Z</time>
      </trkpt>
      <trkpt lat="48.95092" lon="7.38897">
        <ele>372</ele>
        <time>2021-08-08T08:18:41Z</time>
      </trkpt>
      <trkpt lat="48.95092" lon="7.38897">
        <ele>372</ele>
        <time>2021-08-08T08:18:42Z</time>
      </trkpt>
      <trkpt lat="48.9509" lon="7.38904">
        <ele>372</ele>
        <time>2021-08-08T08:18:43Z</time>
      </trkpt>
      <trkpt lat="48.9509" lon="7.38904">
        <ele>371</ele>
        <time>2021-08-08T08:18:44Z</time>
      </trkpt>
      <trkpt lat="48.95086" lon="7.38908">
        <ele>371</ele>
        <time>2021-08-08T08:18:45Z</time>
      </trkpt>
      <trkpt lat="48.95086" lon="7.38908">
        <ele>371</ele>
        <time>2021-08-08T08:18:46Z</time>
      </trkpt>
      <trkpt lat="48.95079" lon="7.38913">
        <ele>371</ele>
        <time>2021-08-08T08:18:47Z</time>
      </trkpt>
      <trkpt lat="48.95079" lon="7.38913">
        <ele>371</ele>
        <time>2021-08-08T08:18:48Z</time>
      </trkpt>
      <trkpt lat="48.95074" lon="7.38921">
        <ele>371</ele>
        <time>2021-08-08T08:18:49Z</time>
      </trkpt>
      <trkpt lat="48.95074" lon="7.38921">
        <ele>371</ele>
        <time>2021-08-08T08:18:50Z</time>
      </trkpt>
      <trkpt lat="48.95068" lon="7.3893">
        <ele>371</ele>
        <time>2021-08-08T08:18:51Z</time>
      </trkpt>
      <trkpt lat="48.95068" lon="7.3893">
        <ele>371</ele>
        <time>2021-08-08T08:18:52Z</time>
      </trkpt>
      <trkpt lat="48.95061" lon="7.38941">
        <ele>371</ele>
        <time>2021-08-08T08:18:53Z</time>
      </trkpt>
      <trkpt lat="48.95061" lon="7.38941">
        <ele>371</ele>
        <time>2021-08-08T08:18:54Z</time>
      </trkpt>
      <trkpt lat="48.95052" lon="7.38952">
        <ele>371</ele>
        <time>2021-08-08T08:18:55Z</time>
      </trkpt>
      <trkpt lat="48.95052" lon="7.38952">
        <ele>371</ele>
        <time>2021-08-08T08:18:56Z</time>
      </trkpt>
      <trkpt lat="48.95047" lon="7.38963">
        <ele>371</ele>
        <time>2021-08-08T08:18:57Z</time>
      </trkpt>
      <trkpt lat="48.95045" lon="7.38967">
        <ele>370</ele>
        <time>2021-08-08T08:18:58Z</time>
      </trkpt>
      <trkpt lat="48.95045" lon="7.38967">
        <ele>370</ele>
        <time>2021-08-08T08:18:59Z</time>
      </trkpt>
      <trkpt lat="48.95038" lon="7.38977">
        <ele>370</ele>
        <time>2021-08-08T08:19:00Z</time>
      </trkpt>
      <trkpt lat="48.95036" lon="7.38982">
        <ele>370</ele>
        <time>2021-08-08T08:19:01Z</time>
      </trkpt>
      <trkpt lat="48.95036" lon="7.38982">
        <ele>370</ele>
        <time>2021-08-08T08:19:02Z</time>
      </trkpt>
      <trkpt lat="48.95031" lon="7.38993">
        <ele>370</ele>
        <time>2021-08-08T08:19:03Z</time>
      </trkpt>
      <trkpt lat="48.95031" lon="7.38993">
        <ele>370</ele>
        <time>2021-08-08T08:19:04Z</time>
      </trkpt>
      <trkpt lat="48.95021" lon="7.39007">
        <ele>370</ele>
        <time>2021-08-08T08:19:05Z</time>
      </trkpt>
      <trkpt lat="48.95016" lon="7.39013">
        <ele>370</ele>
        <time>2021-08-08T08:19:06Z</time>
      </trkpt>
      <trkpt lat="48.95013" lon="7.39019">
        <ele>370</ele>
        <time>2021-08-08T08:19:07Z</time>
      </trkpt>
      <trkpt lat="48.95013" lon="7.39019">
        <ele>370</ele>
        <time>2021-08-08T08:19:08Z</time>
      </trkpt>
      <trkpt lat="48.95009" lon="7.39032">
        <ele>370</ele>
        <time>2021-08-08T08:19:09Z</time>
      </trkpt>
      <trkpt lat="48.95009" lon="7.39032">
        <ele>370</ele>
        <time>2021-08-08T08:19:10Z</time>
      </trkpt>
      <trkpt lat="48.95002" lon="7.39047">
        <ele>370</ele>
        <time>2021-08-08T08:19:11Z</time>
      </trkpt>
      <trkpt lat="48.95002" lon="7.39047">
        <ele>370</ele>
        <time>2021-08-08T08:19:12Z</time>
      </trkpt>
      <trkpt lat="48.94995" lon="7.39057">
        <ele>370</ele>
        <time>2021-08-08T08:19:13Z</time>
      </trkpt>
      <trkpt lat="48.94995" lon="7.39057">
        <ele>370</ele>
        <time>2021-08-08T08:19:14Z</time>
      </trkpt>
      <trkpt lat="48.94987" lon="7.39066">
        <ele>370</ele>
        <time>2021-08-08T08:19:15Z</time>
      </trkpt>
      <trkpt lat="48.94983" lon="7.39073">
        <ele>369</ele>
        <time>2021-08-08T08:19:16Z</time>
      </trkpt>
      <trkpt lat="48.94983" lon="7.39073">
        <ele>369</ele>
        <time>2021-08-08T08:19:17Z</time>
      </trkpt>
      <trkpt lat="48.94977" lon="7.39085">
        <ele>369</ele>
        <time>2021-08-08T08:19:18Z</time>
      </trkpt>
      <trkpt lat="48.94973" lon="7.39092">
        <ele>369</ele>
        <time>2021-08-08T08:19:19Z</time>
      </trkpt>
      <trkpt lat="48.94973" lon="7.39092">
        <ele>369</ele>
        <time>2021-08-08T08:19:20Z</time>
      </trkpt>
      <trkpt lat="48.94969" lon="7.39104">
        <ele>369</ele>
        <time>2021-08-08T08:19:21Z</time>
      </trkpt>
      <trkpt lat="48.94969" lon="7.39104">
        <ele>368</ele>
        <time>2021-08-08T08:19:22Z</time>
      </trkpt>
      <trkpt lat="48.94963" lon="7.39121">
        <ele>368</ele>
        <time>2021-08-08T08:19:23Z</time>
      </trkpt>
      <trkpt lat="48.94963" lon="7.39121">
        <ele>367</ele>
        <time>2021-08-08T08:19:24Z</time>
      </trkpt>
      <trkpt lat="48.94958" lon="7.39134">
        <ele>367</ele>
        <time>2021-08-08T08:19:25Z</time>
      </trkpt>
      <trkpt lat="48.94956" lon="7.39139">
        <ele>367</ele>
        <time>2021-08-08T08:19:26Z</time>
      </trkpt>
      <trkpt lat="48.94953" lon="7.39144">
        <ele>367</ele>
        <time>2021-08-08T08:19:27Z</time>
      </trkpt>
      <trkpt lat="48.94953" lon="7.39144">
        <ele>366</ele>
        <time>2021-08-08T08:19:28Z</time>
      </trkpt>
      <trkpt lat="48.94944" lon="7.39158">
        <ele>366</ele>
        <time>2021-08-08T08:19:29Z</time>
      </trkpt>
      <trkpt lat="48.94941" lon="7.39165">
        <ele>366</ele>
        <time>2021-08-08T08:19:30Z</time>
      </trkpt>
      <trkpt lat="48.94941" lon="7.39165">
        <ele>366</ele>
        <time>2021-08-08T08:19:31Z</time>
      </trkpt>
      <trkpt lat="48.94935" lon="7.39177">
        <ele>366</ele>
        <time>2021-08-08T08:19:32Z</time>
      </trkpt>
      <trkpt lat="48.94935" lon="7.39177">
        <ele>366</ele>
        <time>2021-08-08T08:19:33Z</time>
      </trkpt>
      <trkpt lat="48.94926" lon="7.39195">
        <ele>365</ele>
        <time>2021-08-08T08:19:34Z</time>
      </trkpt>
      <trkpt lat="48.94926" lon="7.39195">
        <ele>365</ele>
        <time>2021-08-08T08:19:35Z</time>
      </trkpt>
      <trkpt lat="48.94919" lon="7.39213">
        <ele>364</ele>
        <time>2021-08-08T08:19:36Z</time>
      </trkpt>
      <trkpt lat="48.94914" lon="7.39222">
        <ele>364</ele>
        <time>2021-08-08T08:19:37Z</time>
      </trkpt>
      <trkpt lat="48.94914" lon="7.39222">
        <ele>364</ele>
        <time>2021-08-08T08:19:38Z</time>
      </trkpt>
      <trkpt lat="48.94908" lon="7.39238">
        <ele>364</ele>
        <time>2021-08-08T08:19:39Z</time>
      </trkpt>
      <trkpt lat="48.94908" lon="7.39238">
        <ele>364</ele>
        <time>2021-08-08T08:19:40Z</time>
      </trkpt>
      <trkpt lat="48.94901" lon="7.39254">
        <ele>364</ele>
        <time>2021-08-08T08:19:41Z</time>
      </trkpt>
      <trkpt lat="48.94901" lon="7.39254">
        <ele>364</ele>
        <time>2021-08-08T08:19:42Z</time>
      </trkpt>
      <trkpt lat="48.94895" lon="7.39269">
        <ele>364</ele>
        <time>2021-08-08T08:19:43Z</time>
      </trkpt>
      <trkpt lat="48.94895" lon="7.39269">
        <ele>363</ele>
        <time>2021-08-08T08:19:44Z</time>
      </trkpt>
      <trkpt lat="48.9489" lon="7.39286">
        <ele>363</ele>
        <time>2021-08-08T08:19:45Z</time>
      </trkpt>
      <trkpt lat="48.9489" lon="7.39296">
        <ele>363</ele>
        <time>2021-08-08T08:19:46Z</time>
      </trkpt>
      <trkpt lat="48.94889" lon="7.39309">
        <ele>363</ele>
        <time>2021-08-08T08:19:47Z</time>
      </trkpt>
      <trkpt lat="48.94889" lon="7.39309">
        <ele>363</ele>
        <time>2021-08-08T08:19:48Z</time>
      </trkpt>
      <trkpt lat="48.94886" lon="7.3933">
        <ele>363</ele>
        <time>2021-08-08T08:19:49Z</time>
      </trkpt>
      <trkpt lat="48.94885" lon="7.3934">
        <ele>362</ele>
        <time>2021-08-08T08:19:50Z</time>
      </trkpt>
      <trkpt lat="48.94885" lon="7.3934">
        <ele>362</ele>
        <time>2021-08-08T08:19:51Z</time>
      </trkpt>
      <trkpt lat="48.94878" lon="7.39357">
        <ele>362</ele>
        <time>2021-08-08T08:19:52Z</time>
      </trkpt>
      <trkpt lat="48.94877" lon="7.39364">
        <ele>362</ele>
        <time>2021-08-08T08:19:53Z</time>
      </trkpt>
      <trkpt lat="48.94877" lon="7.39364">
        <ele>362</ele>
        <time>2021-08-08T08:19:54Z</time>
      </trkpt>
      <trkpt lat="48.94872" lon="7.39381">
        <ele>362</ele>
        <time>2021-08-08T08:19:55Z</time>
      </trkpt>
      <trkpt lat="48.94872" lon="7.39381">
        <ele>362</ele>
        <time>2021-08-08T08:19:56Z</time>
      </trkpt>
      <trkpt lat="48.9487" lon="7.39395">
        <ele>362</ele>
        <time>2021-08-08T08:19:57Z</time>
      </trkpt>
      <trkpt lat="48.9487" lon="7.39395">
        <ele>362</ele>
        <time>2021-08-08T08:19:58Z</time>
      </trkpt>
      <trkpt lat="48.94869" lon="7.3941">
        <ele>362</ele>
        <time>2021-08-08T08:19:59Z</time>
      </trkpt>
      <trkpt lat="48.94869" lon="7.3941">
        <ele>362</ele>
        <time>2021-08-08T08:20:00Z</time>
      </trkpt>
      <trkpt lat="48.94868" lon="7.39423">
        <ele>361</ele>
        <time>2021-08-08T08:20:01Z</time>
      </trkpt>
      <trkpt lat="48.94868" lon="7.39423">
        <ele>361</ele>
        <time>2021-08-08T08:20:02Z</time>
      </trkpt>
      <trkpt lat="48.94866" lon="7.39438">
        <ele>360</ele>
        <time>2021-08-08T08:20:03Z</time>
      </trkpt>
      <trkpt lat="48.94866" lon="7.39438">
        <ele>360</ele>
        <time>2021-08-08T08:20:04Z</time>
      </trkpt>
      <trkpt lat="48.94863" lon="7.39453">
        <ele>360</ele>
        <time>2021-08-08T08:20:05Z</time>
      </trkpt>
      <trkpt lat="48.94861" lon="7.39461">
        <ele>360</ele>
        <time>2021-08-08T08:20:06Z</time>
      </trkpt>
      <trkpt lat="48.94861" lon="7.39461">
        <ele>359</ele>
        <time>2021-08-08T08:20:07Z</time>
      </trkpt>
      <trkpt lat="48.94857" lon="7.39476">
        <ele>359</ele>
        <time>2021-08-08T08:20:08Z</time>
      </trkpt>
      <trkpt lat="48.94857" lon="7.39476">
        <ele>358</ele>
        <time>2021-08-08T08:20:09Z</time>
      </trkpt>
      <trkpt lat="48.94854" lon="7.39492">
        <ele>358</ele>
        <time>2021-08-08T08:20:10Z</time>
      </trkpt>
      <trkpt lat="48.94853" lon="7.39501">
        <ele>357</ele>
        <time>2021-08-08T08:20:11Z</time>
      </trkpt>
      <trkpt lat="48.94853" lon="7.39501">
        <ele>357</ele>
        <time>2021-08-08T08:20:12Z</time>
      </trkpt>
      <trkpt lat="48.94848" lon="7.39515">
        <ele>356</ele>
        <time>2021-08-08T08:20:13Z</time>
      </trkpt>
      <trkpt lat="48.94848" lon="7.39515">
        <ele>356</ele>
        <time>2021-08-08T08:20:14Z</time>
      </trkpt>
      <trkpt lat="48.94847" lon="7.39522">
        <ele>354</ele>
        <time>2021-08-08T08:20:15Z</time>
      </trkpt>
      <trkpt lat="48.94847" lon="7.39522">
        <ele>354</ele>
        <time>2021-08-08T08:20:16Z</time>
      </trkpt>
      <trkpt lat="48.94847" lon="7.39525">
        <ele>353</ele>
        <time>2021-08-08T08:20:17Z</time>
      </trkpt>
      <trkpt lat="48.94847" lon="7.39525">
        <ele>353</ele>
        <time>2021-08-08T08:20:18Z</time>
      </trkpt>
      <trkpt lat="48.94848" lon="7.39526">
        <ele>353</ele>
        <time>2021-08-08T08:20:19Z</time>
      </trkpt>
      <trkpt lat="48.94848" lon="7.39526">
        <ele>353</ele>
        <time>2021-08-08T08:20:22Z</time>
      </trkpt>
      <trkpt lat="48.94848" lon="7.39526">
        <ele>353</ele>
        <time>2021-08-08T08:20:23Z</time>
      </trkpt>
      <trkpt lat="48.94844" lon="7.39542">
        <ele>353</ele>
        <time>2021-08-08T08:20:24Z</time>
      </trkpt>
      <trkpt lat="48.94844" lon="7.39542">
        <ele>353</ele>
        <time>2021-08-08T08:20:25Z</time>
      </trkpt>
      <trkpt lat="48.94838" lon="7.39559">
        <ele>352</ele>
        <time>2021-08-08T08:20:26Z</time>
      </trkpt>
      <trkpt lat="48.94838" lon="7.39559">
        <ele>352</ele>
        <time>2021-08-08T08:20:27Z</time>
      </trkpt>
      <trkpt lat="48.94835" lon="7.39576">
        <ele>350</ele>
        <time>2021-08-08T08:20:28Z</time>
      </trkpt>
      <trkpt lat="48.94835" lon="7.39576">
        <ele>350</ele>
        <time>2021-08-08T08:20:29Z</time>
      </trkpt>
      <trkpt lat="48.94834" lon="7.39598">
        <ele>349</ele>
        <time>2021-08-08T08:20:30Z</time>
      </trkpt>
      <trkpt lat="48.94834" lon="7.39598">
        <ele>349</ele>
        <time>2021-08-08T08:20:31Z</time>
      </trkpt>
      <trkpt lat="48.94836" lon="7.39619">
        <ele>348</ele>
        <time>2021-08-08T08:20:32Z</time>
      </trkpt>
      <trkpt lat="48.94839" lon="7.39635">
        <ele>347</ele>
        <time>2021-08-08T08:20:33Z</time>
      </trkpt>
      <trkpt lat="48.94839" lon="7.39635">
        <ele>347</ele>
        <time>2021-08-08T08:20:34Z</time>
      </trkpt>
      <trkpt lat="48.94839" lon="7.39635">
        <ele>347</ele>
        <time>2021-08-08T08:20:35Z</time>
      </trkpt>
      <trkpt lat="48.94844" lon="7.39659">
        <ele>347</ele>
        <time>2021-08-08T08:20:36Z</time>
      </trkpt>
      <trkpt lat="48.94844" lon="7.39659">
        <ele>347</ele>
        <time>2021-08-08T08:20:37Z</time>
      </trkpt>
      <trkpt lat="48.94847" lon="7.39672">
        <ele>347</ele>
        <time>2021-08-08T08:20:38Z</time>
      </trkpt>
      <trkpt lat="48.94847" lon="7.39672">
        <ele>346</ele>
        <time>2021-08-08T08:20:39Z</time>
      </trkpt>
      <trkpt lat="48.94847" lon="7.39672">
        <ele>346</ele>
        <time>2021-08-08T08:20:40Z</time>
      </trkpt>
      <trkpt lat="48.94849" lon="7.39686">
        <ele>346</ele>
        <time>2021-08-08T08:20:41Z</time>
      </trkpt>
      <trkpt lat="48.94848" lon="7.39693">
        <ele>346</ele>
        <time>2021-08-08T08:20:42Z</time>
      </trkpt>
      <trkpt lat="48.94847" lon="7.39708">
        <ele>346</ele>
        <time>2021-08-08T08:20:43Z</time>
      </trkpt>
      <trkpt lat="48.94847" lon="7.39708">
        <ele>346</ele>
        <time>2021-08-08T08:20:44Z</time>
      </trkpt>
      <trkpt lat="48.94847" lon="7.39708">
        <ele>345</ele>
        <time>2021-08-08T08:20:45Z</time>
      </trkpt>
      <trkpt lat="48.94848" lon="7.39724">
        <ele>345</ele>
        <time>2021-08-08T08:20:46Z</time>
      </trkpt>
      <trkpt lat="48.94847" lon="7.39739">
        <ele>345</ele>
        <time>2021-08-08T08:20:47Z</time>
      </trkpt>
      <trkpt lat="48.94847" lon="7.39739">
        <ele>345</ele>
        <time>2021-08-08T08:20:48Z</time>
      </trkpt>
      <trkpt lat="48.94847" lon="7.39739">
        <ele>345</ele>
        <time>2021-08-08T08:20:49Z</time>
      </trkpt>
      <trkpt lat="48.94847" lon="7.39756">
        <ele>345</ele>
        <time>2021-08-08T08:20:50Z</time>
      </trkpt>
      <trkpt lat="48.94845" lon="7.39775">
        <ele>344</ele>
        <time>2021-08-08T08:20:51Z</time>
      </trkpt>
      <trkpt lat="48.94845" lon="7.39775">
        <ele>344</ele>
        <time>2021-08-08T08:20:52Z</time>
      </trkpt>
      <trkpt lat="48.94845" lon="7.39775">
        <ele>344</ele>
        <time>2021-08-08T08:20:53Z</time>
      </trkpt>
      <trkpt lat="48.94843" lon="7.39791">
        <ele>344</ele>
        <time>2021-08-08T08:20:54Z</time>
      </trkpt>
      <trkpt lat="48.94843" lon="7.39791">
        <ele>343</ele>
        <time>2021-08-08T08:20:55Z</time>
      </trkpt>
      <trkpt lat="48.94841" lon="7.39807">
        <ele>343</ele>
        <time>2021-08-08T08:20:56Z</time>
      </trkpt>
      <trkpt lat="48.94841" lon="7.39807">
        <ele>343</ele>
        <time>2021-08-08T08:20:57Z</time>
      </trkpt>
      <trkpt lat="48.94842" lon="7.39835">
        <ele>343</ele>
        <time>2021-08-08T08:20:58Z</time>
      </trkpt>
      <trkpt lat="48.94842" lon="7.39835">
        <ele>343</ele>
        <time>2021-08-08T08:20:59Z</time>
      </trkpt>
      <trkpt lat="48.94837" lon="7.39852">
        <ele>343</ele>
        <time>2021-08-08T08:21:00Z</time>
      </trkpt>
      <trkpt lat="48.94837" lon="7.39852">
        <ele>343</ele>
        <time>2021-08-08T08:21:01Z</time>
      </trkpt>
      <trkpt lat="48.94832" lon="7.39866">
        <ele>343</ele>
        <time>2021-08-08T08:21:02Z</time>
      </trkpt>
      <trkpt lat="48.94826" lon="7.39874">
        <ele>343</ele>
        <time>2021-08-08T08:21:03Z</time>
      </trkpt>
      <trkpt lat="48.94826" lon="7.39874">
        <ele>343</ele>
        <time>2021-08-08T08:21:04Z</time>
      </trkpt>
      <trkpt lat="48.94826" lon="7.39874">
        <ele>343</ele>
        <time>2021-08-08T08:21:05Z</time>
      </trkpt>
      <trkpt lat="48.94816" lon="7.39874">
        <ele>343</ele>
        <time>2021-08-08T08:21:06Z</time>
      </trkpt>
      <trkpt lat="48.94816" lon="7.39874">
        <ele>343</ele>
        <time>2021-08-08T08:21:07Z</time>
      </trkpt>
      <trkpt lat="48.94805" lon="7.39868">
        <ele>343</ele>
        <time>2021-08-08T08:21:08Z</time>
      </trkpt>
      <trkpt lat="48.94805" lon="7.39868">
        <ele>343</ele>
        <time>2021-08-08T08:21:09Z</time>
      </trkpt>
      <trkpt lat="48.948" lon="7.39865">
        <ele>343</ele>
        <time>2021-08-08T08:21:10Z</time>
      </trkpt>
      <trkpt lat="48.948" lon="7.39865">
        <ele>343</ele>
        <time>2021-08-08T08:21:11Z</time>
      </trkpt>
      <trkpt lat="48.94796" lon="7.39864">
        <ele>343</ele>
        <time>2021-08-08T08:21:12Z</time>
      </trkpt>
      <trkpt lat="48.94796" lon="7.39864">
        <ele>343</ele>
        <time>2021-08-08T08:21:13Z</time>
      </trkpt>
      <trkpt lat="48.94794" lon="7.39864">
        <ele>343</ele>
        <time>2021-08-08T08:21:14Z</time>
      </trkpt>
      <trkpt lat="48.94788" lon="7.39866">
        <ele>343</ele>
        <time>2021-08-08T08:21:15Z</time>
      </trkpt>
      <trkpt lat="48.94788" lon="7.39866">
        <ele>343</ele>
        <time>2021-08-08T08:21:16Z</time>
      </trkpt>
      <trkpt lat="48.94788" lon="7.39866">
        <ele>343</ele>
        <time>2021-08-08T08:21:17Z</time>
      </trkpt>
      <trkpt lat="48.94779" lon="7.39869">
        <ele>343</ele>
        <time>2021-08-08T08:21:18Z</time>
      </trkpt>
      <trkpt lat="48.94779" lon="7.39869">
        <ele>343</ele>
        <time>2021-08-08T08:21:19Z</time>
      </trkpt>
      <trkpt lat="48.94762" lon="7.39874">
        <ele>343</ele>
        <time>2021-08-08T08:21:20Z</time>
      </trkpt>
      <trkpt lat="48.94759" lon="7.39874">
        <ele>343</ele>
        <time>2021-08-08T08:21:21Z</time>
      </trkpt>
      <trkpt lat="48.94756" lon="7.39875">
        <ele>343</ele>
        <time>2021-08-08T08:21:22Z</time>
      </trkpt>
      <trkpt lat="48.94751" lon="7.39876">
        <ele>343</ele>
        <time>2021-08-08T08:21:23Z</time>
      </trkpt>
      <trkpt lat="48.94746" lon="7.39877">
        <ele>341</ele>
        <time>2021-08-08T08:21:24Z</time>
      </trkpt>
      <trkpt lat="48.94746" lon="7.39877">
        <ele>341</ele>
        <time>2021-08-08T08:21:25Z</time>
      </trkpt>
      <trkpt lat="48.94736" lon="7.39882">
        <ele>341</ele>
        <time>2021-08-08T08:21:26Z</time>
      </trkpt>
      <trkpt lat="48.94736" lon="7.39882">
        <ele>341</ele>
        <time>2021-08-08T08:21:27Z</time>
      </trkpt>
      <trkpt lat="48.94727" lon="7.39889">
        <ele>341</ele>
        <time>2021-08-08T08:21:28Z</time>
      </trkpt>
      <trkpt lat="48.94727" lon="7.39889">
        <ele>341</ele>
        <time>2021-08-08T08:21:29Z</time>
      </trkpt>
      <trkpt lat="48.94718" lon="7.39897">
        <ele>341</ele>
        <time>2021-08-08T08:21:30Z</time>
      </trkpt>
      <trkpt lat="48.94718" lon="7.39897">
        <ele>340</ele>
        <time>2021-08-08T08:21:31Z</time>
      </trkpt>
      <trkpt lat="48.9471" lon="7.39905">
        <ele>340</ele>
        <time>2021-08-08T08:21:32Z</time>
      </trkpt>
      <trkpt lat="48.94702" lon="7.39914">
        <ele>340</ele>
        <time>2021-08-08T08:21:33Z</time>
      </trkpt>
      <trkpt lat="48.94702" lon="7.39914">
        <ele>340</ele>
        <time>2021-08-08T08:21:34Z</time>
      </trkpt>
      <trkpt lat="48.94702" lon="7.39914">
        <ele>340</ele>
        <time>2021-08-08T08:21:35Z</time>
      </trkpt>
      <trkpt lat="48.94693" lon="7.39921">
        <ele>340</ele>
        <time>2021-08-08T08:21:36Z</time>
      </trkpt>
      <trkpt lat="48.94693" lon="7.39921">
        <ele>340</ele>
        <time>2021-08-08T08:21:37Z</time>
      </trkpt>
      <trkpt lat="48.94685" lon="7.39927">
        <ele>340</ele>
        <time>2021-08-08T08:21:38Z</time>
      </trkpt>
      <trkpt lat="48.9468" lon="7.3993">
        <ele>342</ele>
        <time>2021-08-08T08:21:39Z</time>
      </trkpt>
      <trkpt lat="48.9468" lon="7.3993">
        <ele>342</ele>
        <time>2021-08-08T08:21:40Z</time>
      </trkpt>
      <trkpt lat="48.9467" lon="7.39942">
        <ele>342</ele>
        <time>2021-08-08T08:21:41Z</time>
      </trkpt>
      <trkpt lat="48.94667" lon="7.39946">
        <ele>342</ele>
        <time>2021-08-08T08:21:42Z</time>
      </trkpt>
      <trkpt lat="48.94667" lon="7.39946">
        <ele>342</ele>
        <time>2021-08-08T08:21:43Z</time>
      </trkpt>
      <trkpt lat="48.94664" lon="7.39951">
        <ele>342</ele>
        <time>2021-08-08T08:21:44Z</time>
      </trkpt>
      <trkpt lat="48.94664" lon="7.39951">
        <ele>342</ele>
        <time>2021-08-08T08:21:45Z</time>
      </trkpt>
      <trkpt lat="48.94658" lon="7.39961">
        <ele>342</ele>
        <time>2021-08-08T08:21:46Z</time>
      </trkpt>
      <trkpt lat="48.94658" lon="7.39961">
        <ele>342</ele>
        <time>2021-08-08T08:21:47Z</time>
      </trkpt>
      <trkpt lat="48.94653" lon="7.39969">
        <ele>342</ele>
        <time>2021-08-08T08:21:48Z</time>
      </trkpt>
      <trkpt lat="48.94653" lon="7.39969">
        <ele>343</ele>
        <time>2021-08-08T08:21:49Z</time>
      </trkpt>
      <trkpt lat="48.94649" lon="7.39977">
        <ele>343</ele>
        <time>2021-08-08T08:21:50Z</time>
      </trkpt>
      <trkpt lat="48.94647" lon="7.39987">
        <ele>343</ele>
        <time>2021-08-08T08:21:51Z</time>
      </trkpt>
      <trkpt lat="48.94647" lon="7.39987">
        <ele>343</ele>
        <time>2021-08-08T08:21:52Z</time>
      </trkpt>
      <trkpt lat="48.94642" lon="7.39997">
        <ele>345</ele>
        <time>2021-08-08T08:21:53Z</time>
      </trkpt>
      <trkpt lat="48.94642" lon="7.39997">
        <ele>345</ele>
        <time>2021-08-08T08:21:54Z</time>
      </trkpt>
      <trkpt lat="48.94642" lon="7.39997">
        <ele>345</ele>
        <time>2021-08-08T08:21:55Z</time>
      </trkpt>
      <trkpt lat="48.94638" lon="7.40005">
        <ele>345</ele>
        <time>2021-08-08T08:21:56Z</time>
      </trkpt>
      <trkpt lat="48.94638" lon="7.40005">
        <ele>346</ele>
        <time>2021-08-08T08:21:57Z</time>
      </trkpt>
      <trkpt lat="48.94635" lon="7.40011">
        <ele>346</ele>
        <time>2021-08-08T08:21:58Z</time>
      </trkpt>
      <trkpt lat="48.94628" lon="7.40017">
        <ele>347</ele>
        <time>2021-08-08T08:21:59Z</time>
      </trkpt>
      <trkpt lat="48.94624" lon="7.40021">
        <ele>347</ele>
        <time>2021-08-08T08:22:00Z</time>
      </trkpt>
      <trkpt lat="48.94624" lon="7.40021">
        <ele>347</ele>
        <time>2021-08-08T08:22:01Z</time>
      </trkpt>
      <trkpt lat="48.9462" lon="7.40022">
        <ele>347</ele>
        <time>2021-08-08T08:22:02Z</time>
      </trkpt>
      <trkpt lat="48.9462" lon="7.40022">
        <ele>349</ele>
        <time>2021-08-08T08:22:03Z</time>
      </trkpt>
      <trkpt lat="48.94611" lon="7.40027">
        <ele>349</ele>
        <time>2021-08-08T08:22:04Z</time>
      </trkpt>
      <trkpt lat="48.94611" lon="7.40027">
        <ele>349</ele>
        <time>2021-08-08T08:22:05Z</time>
      </trkpt>
      <trkpt lat="48.94604" lon="7.40031">
        <ele>349</ele>
        <time>2021-08-08T08:22:06Z</time>
      </trkpt>
      <trkpt lat="48.94604" lon="7.40031">
        <ele>350</ele>
        <time>2021-08-08T08:22:07Z</time>
      </trkpt>
      <trkpt lat="48.94597" lon="7.40039">
        <ele>350</ele>
        <time>2021-08-08T08:22:08Z</time>
      </trkpt>
      <trkpt lat="48.94597" lon="7.40039">
        <ele>350</ele>
        <time>2021-08-08T08:22:09Z</time>
      </trkpt>
      <trkpt lat="48.9459" lon="7.40046">
        <ele>350</ele>
        <time>2021-08-08T08:22:10Z</time>
      </trkpt>
      <trkpt lat="48.9459" lon="7.40046">
        <ele>351</ele>
        <time>2021-08-08T08:22:11Z</time>
      </trkpt>
      <trkpt lat="48.94583" lon="7.40049">
        <ele>351</ele>
        <time>2021-08-08T08:22:12Z</time>
      </trkpt>
      <trkpt lat="48.94583" lon="7.40049">
        <ele>352</ele>
        <time>2021-08-08T08:22:13Z</time>
      </trkpt>
      <trkpt lat="48.94575" lon="7.40052">
        <ele>352</ele>
        <time>2021-08-08T08:22:14Z</time>
      </trkpt>
      <trkpt lat="48.94575" lon="7.40052">
        <ele>352</ele>
        <time>2021-08-08T08:22:15Z</time>
      </trkpt>
      <trkpt lat="48.94567" lon="7.40056">
        <ele>352</ele>
        <time>2021-08-08T08:22:16Z</time>
      </trkpt>
      <trkpt lat="48.94567" lon="7.40056">
        <ele>353</ele>
        <time>2021-08-08T08:22:17Z</time>
      </trkpt>
      <trkpt lat="48.94556" lon="7.40062">
        <ele>353</ele>
        <time>2021-08-08T08:22:18Z</time>
      </trkpt>
      <trkpt lat="48.94556" lon="7.40062">
        <ele>353</ele>
        <time>2021-08-08T08:22:19Z</time>
      </trkpt>
      <trkpt lat="48.94552" lon="7.40065">
        <ele>353</ele>
        <time>2021-08-08T08:22:20Z</time>
      </trkpt>
      <trkpt lat="48.94543" lon="7.40068">
        <ele>353</ele>
        <time>2021-08-08T08:22:21Z</time>
      </trkpt>
      <trkpt lat="48.94543" lon="7.40068">
        <ele>353</ele>
        <time>2021-08-08T08:22:22Z</time>
      </trkpt>
      <trkpt lat="48.94538" lon="7.4007">
        <ele>353</ele>
        <time>2021-08-08T08:22:23Z</time>
      </trkpt>
      <trkpt lat="48.94538" lon="7.4007">
        <ele>353</ele>
        <time>2021-08-08T08:22:24Z</time>
      </trkpt>
      <trkpt lat="48.94524" lon="7.40075">
        <ele>353</ele>
        <time>2021-08-08T08:22:25Z</time>
      </trkpt>
      <trkpt lat="48.94524" lon="7.40075">
        <ele>353</ele>
        <time>2021-08-08T08:22:26Z</time>
      </trkpt>
      <trkpt lat="48.94516" lon="7.40077">
        <ele>353</ele>
        <time>2021-08-08T08:22:27Z</time>
      </trkpt>
      <trkpt lat="48.94516" lon="7.40077">
        <ele>353</ele>
        <time>2021-08-08T08:22:28Z</time>
      </trkpt>
      <trkpt lat="48.94516" lon="7.40077">
        <ele>353</ele>
        <time>2021-08-08T08:22:29Z</time>
      </trkpt>
      <trkpt lat="48.94508" lon="7.40081">
        <ele>353</ele>
        <time>2021-08-08T08:22:30Z</time>
      </trkpt>
      <trkpt lat="48.94501" lon="7.40084">
        <ele>353</ele>
        <time>2021-08-08T08:22:31Z</time>
      </trkpt>
      <trkpt lat="48.94501" lon="7.40084">
        <ele>353</ele>
        <time>2021-08-08T08:22:32Z</time>
      </trkpt>
      <trkpt lat="48.94493" lon="7.40085">
        <ele>353</ele>
        <time>2021-08-08T08:22:33Z</time>
      </trkpt>
      <trkpt lat="48.94493" lon="7.40085">
        <ele>353</ele>
        <time>2021-08-08T08:22:34Z</time>
      </trkpt>
      <trkpt lat="48.94485" lon="7.40089">
        <ele>353</ele>
        <time>2021-08-08T08:22:35Z</time>
      </trkpt>
      <trkpt lat="48.94485" lon="7.40089">
        <ele>353</ele>
        <time>2021-08-08T08:22:36Z</time>
      </trkpt>
      <trkpt lat="48.94485" lon="7.40089">
        <ele>353</ele>
        <time>2021-08-08T08:22:37Z</time>
      </trkpt>
      <trkpt lat="48.94478" lon="7.40092">
        <ele>353</ele>
        <time>2021-08-08T08:22:38Z</time>
      </trkpt>
      <trkpt lat="48.94478" lon="7.40092">
        <ele>353</ele>
        <time>2021-08-08T08:22:39Z</time>
      </trkpt>
      <trkpt lat="48.9447" lon="7.40096">
        <ele>354</ele>
        <time>2021-08-08T08:22:40Z</time>
      </trkpt>
      <trkpt lat="48.9447" lon="7.40096">
        <ele>354</ele>
        <time>2021-08-08T08:22:41Z</time>
      </trkpt>
      <trkpt lat="48.94463" lon="7.401">
        <ele>354</ele>
        <time>2021-08-08T08:22:42Z</time>
      </trkpt>
      <trkpt lat="48.94463" lon="7.401">
        <ele>354</ele>
        <time>2021-08-08T08:22:43Z</time>
      </trkpt>
      <trkpt lat="48.94452" lon="7.40104">
        <ele>354</ele>
        <time>2021-08-08T08:22:44Z</time>
      </trkpt>
      <trkpt lat="48.94452" lon="7.40104">
        <ele>354</ele>
        <time>2021-08-08T08:22:45Z</time>
      </trkpt>
      <trkpt lat="48.94452" lon="7.40104">
        <ele>355</ele>
        <time>2021-08-08T08:22:46Z</time>
      </trkpt>
      <trkpt lat="48.94444" lon="7.40106">
        <ele>355</ele>
        <time>2021-08-08T08:22:47Z</time>
      </trkpt>
      <trkpt lat="48.94436" lon="7.4011">
        <ele>355</ele>
        <time>2021-08-08T08:22:48Z</time>
      </trkpt>
      <trkpt lat="48.94436" lon="7.4011">
        <ele>355</ele>
        <time>2021-08-08T08:22:49Z</time>
      </trkpt>
      <trkpt lat="48.94432" lon="7.40111">
        <ele>355</ele>
        <time>2021-08-08T08:22:50Z</time>
      </trkpt>
      <trkpt lat="48.94432" lon="7.40111">
        <ele>355</ele>
        <time>2021-08-08T08:22:51Z</time>
      </trkpt>
      <trkpt lat="48.94424" lon="7.40111">
        <ele>356</ele>
        <time>2021-08-08T08:22:52Z</time>
      </trkpt>
      <trkpt lat="48.94424" lon="7.40111">
        <ele>356</ele>
        <time>2021-08-08T08:22:53Z</time>
      </trkpt>
      <trkpt lat="48.94417" lon="7.40111">
        <ele>356</ele>
        <time>2021-08-08T08:22:54Z</time>
      </trkpt>
      <trkpt lat="48.94417" lon="7.40111">
        <ele>356</ele>
        <time>2021-08-08T08:22:55Z</time>
      </trkpt>
      <trkpt lat="48.94409" lon="7.4011">
        <ele>356</ele>
        <time>2021-08-08T08:22:56Z</time>
      </trkpt>
      <trkpt lat="48.94401" lon="7.40109">
        <ele>356</ele>
        <time>2021-08-08T08:22:57Z</time>
      </trkpt>
      <trkpt lat="48.94401" lon="7.40109">
        <ele>356</ele>
        <time>2021-08-08T08:22:58Z</time>
      </trkpt>
      <trkpt lat="48.94398" lon="7.40108">
        <ele>356</ele>
        <time>2021-08-08T08:22:59Z</time>
      </trkpt>
      <trkpt lat="48.9439" lon="7.40107">
        <ele>356</ele>
        <time>2021-08-08T08:23:00Z</time>
      </trkpt>
      <trkpt lat="48.9439" lon="7.40107">
        <ele>356</ele>
        <time>2021-08-08T08:23:01Z</time>
      </trkpt>
      <trkpt lat="48.94385" lon="7.40106">
        <ele>356</ele>
        <time>2021-08-08T08:23:02Z</time>
      </trkpt>
      <trkpt lat="48.94385" lon="7.40106">
        <ele>356</ele>
        <time>2021-08-08T08:23:03Z</time>
      </trkpt>
      <trkpt lat="48.94375" lon="7.40101">
        <ele>356</ele>
        <time>2021-08-08T08:23:04Z</time>
      </trkpt>
      <trkpt lat="48.94375" lon="7.40101">
        <ele>356</ele>
        <time>2021-08-08T08:23:05Z</time>
      </trkpt>
      <trkpt lat="48.94367" lon="7.40096">
        <ele>356</ele>
        <time>2021-08-08T08:23:06Z</time>
      </trkpt>
      <trkpt lat="48.94367" lon="7.40096">
        <ele>356</ele>
        <time>2021-08-08T08:23:07Z</time>
      </trkpt>
      <trkpt lat="48.94358" lon="7.40091">
        <ele>356</ele>
        <time>2021-08-08T08:23:08Z</time>
      </trkpt>
      <trkpt lat="48.94351" lon="7.40084">
        <ele>356</ele>
        <time>2021-08-08T08:23:09Z</time>
      </trkpt>
      <trkpt lat="48.94351" lon="7.40084">
        <ele>356</ele>
        <time>2021-08-08T08:23:10Z</time>
      </trkpt>
      <trkpt lat="48.94351" lon="7.40084">
        <ele>356</ele>
        <time>2021-08-08T08:23:11Z</time>
      </trkpt>
      <trkpt lat="48.94344" lon="7.40079">
        <ele>356</ele>
        <time>2021-08-08T08:23:12Z</time>
      </trkpt>
      <trkpt lat="48.94335" lon="7.40075">
        <ele>356</ele>
        <time>2021-08-08T08:23:13Z</time>
      </trkpt>
      <trkpt lat="48.94335" lon="7.40075">
        <ele>356</ele>
        <time>2021-08-08T08:23:14Z</time>
      </trkpt>
      <trkpt lat="48.94335" lon="7.40075">
        <ele>356</ele>
        <time>2021-08-08T08:23:15Z</time>
      </trkpt>
      <trkpt lat="48.94324" lon="7.4007">
        <ele>356</ele>
        <time>2021-08-08T08:23:16Z</time>
      </trkpt>
      <trkpt lat="48.94324" lon="7.4007">
        <ele>356</ele>
        <time>2021-08-08T08:23:17Z</time>
      </trkpt>
      <trkpt lat="48.94313" lon="7.40064">
        <ele>356</ele>
        <time>2021-08-08T08:23:18Z</time>
      </trkpt>
      <trkpt lat="48.94307" lon="7.40061">
        <ele>356</ele>
        <time>2021-08-08T08:23:19Z</time>
      </trkpt>
      <trkpt lat="48.94301" lon="7.40059">
        <ele>356</ele>
        <time>2021-08-08T08:23:20Z</time>
      </trkpt>
      <trkpt lat="48.94301" lon="7.40059">
        <ele>354</ele>
        <time>2021-08-08T08:23:21Z</time>
      </trkpt>
      <trkpt lat="48.94289" lon="7.40056">
        <ele>354</ele>
        <time>2021-08-08T08:23:22Z</time>
      </trkpt>
      <trkpt lat="48.94289" lon="7.40056">
        <ele>354</ele>
        <time>2021-08-08T08:23:23Z</time>
      </trkpt>
      <trkpt lat="48.94277" lon="7.40054">
        <ele>354</ele>
        <time>2021-08-08T08:23:24Z</time>
      </trkpt>
      <trkpt lat="48.94264" lon="7.4005">
        <ele>354</ele>
        <time>2021-08-08T08:23:25Z</time>
      </trkpt>
      <trkpt lat="48.94264" lon="7.4005">
        <ele>354</ele>
        <time>2021-08-08T08:23:26Z</time>
      </trkpt>
      <trkpt lat="48.9425" lon="7.40046">
        <ele>354</ele>
        <time>2021-08-08T08:23:27Z</time>
      </trkpt>
      <trkpt lat="48.94244" lon="7.40046">
        <ele>354</ele>
        <time>2021-08-08T08:23:28Z</time>
      </trkpt>
      <trkpt lat="48.94244" lon="7.40046">
        <ele>353</ele>
        <time>2021-08-08T08:23:29Z</time>
      </trkpt>
      <trkpt lat="48.94234" lon="7.4005">
        <ele>353</ele>
        <time>2021-08-08T08:23:30Z</time>
      </trkpt>
      <trkpt lat="48.94234" lon="7.4005">
        <ele>353</ele>
        <time>2021-08-08T08:23:31Z</time>
      </trkpt>
      <trkpt lat="48.94234" lon="7.4005">
        <ele>353</ele>
        <time>2021-08-08T08:23:32Z</time>
      </trkpt>
      <trkpt lat="48.9423" lon="7.40057">
        <ele>353</ele>
        <time>2021-08-08T08:23:33Z</time>
      </trkpt>
      <trkpt lat="48.9423" lon="7.40057">
        <ele>353</ele>
        <time>2021-08-08T08:23:34Z</time>
      </trkpt>
      <trkpt lat="48.94223" lon="7.40067">
        <ele>353</ele>
        <time>2021-08-08T08:23:35Z</time>
      </trkpt>
      <trkpt lat="48.94223" lon="7.40067">
        <ele>353</ele>
        <time>2021-08-08T08:23:36Z</time>
      </trkpt>
      <trkpt lat="48.94216" lon="7.4008">
        <ele>352</ele>
        <time>2021-08-08T08:23:37Z</time>
      </trkpt>
      <trkpt lat="48.94211" lon="7.40087">
        <ele>352</ele>
        <time>2021-08-08T08:23:38Z</time>
      </trkpt>
      <trkpt lat="48.94211" lon="7.40087">
        <ele>352</ele>
        <time>2021-08-08T08:23:39Z</time>
      </trkpt>
      <trkpt lat="48.94203" lon="7.40099">
        <ele>352</ele>
        <time>2021-08-08T08:23:40Z</time>
      </trkpt>
      <trkpt lat="48.94196" lon="7.40111">
        <ele>352</ele>
        <time>2021-08-08T08:23:41Z</time>
      </trkpt>
      <trkpt lat="48.94196" lon="7.40111">
        <ele>352</ele>
        <time>2021-08-08T08:23:42Z</time>
      </trkpt>
      <trkpt lat="48.94196" lon="7.40111">
        <ele>352</ele>
        <time>2021-08-08T08:23:43Z</time>
      </trkpt>
      <trkpt lat="48.94193" lon="7.40126">
        <ele>352</ele>
        <time>2021-08-08T08:23:44Z</time>
      </trkpt>
      <trkpt lat="48.9419" lon="7.40137">
        <ele>352</ele>
        <time>2021-08-08T08:23:45Z</time>
      </trkpt>
      <trkpt lat="48.9419" lon="7.40137">
        <ele>352</ele>
        <time>2021-08-08T08:23:46Z</time>
      </trkpt>
      <trkpt lat="48.94189" lon="7.40149">
        <ele>352</ele>
        <time>2021-08-08T08:23:47Z</time>
      </trkpt>
      <trkpt lat="48.94189" lon="7.40149">
        <ele>352</ele>
        <time>2021-08-08T08:23:48Z</time>
      </trkpt>
      <trkpt lat="48.94188" lon="7.40154">
        <ele>351</ele>
        <time>2021-08-08T08:23:49Z</time>
      </trkpt>
      <trkpt lat="48.94188" lon="7.40154">
        <ele>351</ele>
        <time>2021-08-08T08:23:50Z</time>
      </trkpt>
      <trkpt lat="48.94187" lon="7.40165">
        <ele>351</ele>
        <time>2021-08-08T08:23:51Z</time>
      </trkpt>
      <trkpt lat="48.94187" lon="7.40173">
        <ele>351</ele>
        <time>2021-08-08T08:23:52Z</time>
      </trkpt>
      <trkpt lat="48.94187" lon="7.40173">
        <ele>351</ele>
        <time>2021-08-08T08:23:53Z</time>
      </trkpt>
      <trkpt lat="48.94186" lon="7.40187">
        <ele>351</ele>
        <time>2021-08-08T08:23:54Z</time>
      </trkpt>
      <trkpt lat="48.94186" lon="7.40187">
        <ele>350</ele>
        <time>2021-08-08T08:23:55Z</time>
      </trkpt>
      <trkpt lat="48.94184" lon="7.40203">
        <ele>350</ele>
        <time>2021-08-08T08:23:56Z</time>
      </trkpt>
      <trkpt lat="48.94184" lon="7.40203">
        <ele>350</ele>
        <time>2021-08-08T08:23:57Z</time>
      </trkpt>
      <trkpt lat="48.94189" lon="7.40238">
        <ele>350</ele>
        <time>2021-08-08T08:23:58Z</time>
      </trkpt>
      <trkpt lat="48.94188" lon="7.40246">
        <ele>348</ele>
        <time>2021-08-08T08:23:59Z</time>
      </trkpt>
      <trkpt lat="48.94187" lon="7.40254">
        <ele>348</ele>
        <time>2021-08-08T08:24:00Z</time>
      </trkpt>
      <trkpt lat="48.94185" lon="7.40271">
        <ele>347</ele>
        <time>2021-08-08T08:24:01Z</time>
      </trkpt>
      <trkpt lat="48.94185" lon="7.40271">
        <ele>347</ele>
        <time>2021-08-08T08:24:02Z</time>
      </trkpt>
      <trkpt lat="48.94185" lon="7.40271">
        <ele>346</ele>
        <time>2021-08-08T08:24:03Z</time>
      </trkpt>
      <trkpt lat="48.94181" lon="7.40297">
        <ele>346</ele>
        <time>2021-08-08T08:24:04Z</time>
      </trkpt>
      <trkpt lat="48.94181" lon="7.40297">
        <ele>345</ele>
        <time>2021-08-08T08:24:05Z</time>
      </trkpt>
      <trkpt lat="48.94182" lon="7.40323">
        <ele>345</ele>
        <time>2021-08-08T08:24:06Z</time>
      </trkpt>
      <trkpt lat="48.94181" lon="7.40347">
        <ele>344</ele>
        <time>2021-08-08T08:24:07Z</time>
      </trkpt>
      <trkpt lat="48.94181" lon="7.40347">
        <ele>344</ele>
        <time>2021-08-08T08:24:08Z</time>
      </trkpt>
      <trkpt lat="48.94181" lon="7.40347">
        <ele>342</ele>
        <time>2021-08-08T08:24:09Z</time>
      </trkpt>
      <trkpt lat="48.94178" lon="7.40382">
        <ele>342</ele>
        <time>2021-08-08T08:24:10Z</time>
      </trkpt>
      <trkpt lat="48.94178" lon="7.40382">
        <ele>341</ele>
        <time>2021-08-08T08:24:11Z</time>
      </trkpt>
      <trkpt lat="48.94178" lon="7.40382">
        <ele>341</ele>
        <time>2021-08-08T08:24:12Z</time>
      </trkpt>
      <trkpt lat="48.94179" lon="7.40415">
        <ele>340</ele>
        <time>2021-08-08T08:24:13Z</time>
      </trkpt>
      <trkpt lat="48.94179" lon="7.40415">
        <ele>340</ele>
        <time>2021-08-08T08:24:14Z</time>
      </trkpt>
      <trkpt lat="48.94176" lon="7.40441">
        <ele>339</ele>
        <time>2021-08-08T08:24:15Z</time>
      </trkpt>
      <trkpt lat="48.94174" lon="7.40456">
        <ele>339</ele>
        <time>2021-08-08T08:24:16Z</time>
      </trkpt>
      <trkpt lat="48.94174" lon="7.40456">
        <ele>338</ele>
        <time>2021-08-08T08:24:17Z</time>
      </trkpt>
      <trkpt lat="48.94169" lon="7.40483">
        <ele>338</ele>
        <time>2021-08-08T08:24:18Z</time>
      </trkpt>
      <trkpt lat="48.94169" lon="7.40483">
        <ele>337</ele>
        <time>2021-08-08T08:24:19Z</time>
      </trkpt>
      <trkpt lat="48.94165" lon="7.40506">
        <ele>336</ele>
        <time>2021-08-08T08:24:20Z</time>
      </trkpt>
      <trkpt lat="48.94162" lon="7.40516">
        <ele>336</ele>
        <time>2021-08-08T08:24:21Z</time>
      </trkpt>
      <trkpt lat="48.94159" lon="7.40526">
        <ele>336</ele>
        <time>2021-08-08T08:24:22Z</time>
      </trkpt>
      <trkpt lat="48.94159" lon="7.40526">
        <ele>336</ele>
        <time>2021-08-08T08:24:23Z</time>
      </trkpt>
      <trkpt lat="48.94148" lon="7.40541">
        <ele>335</ele>
        <time>2021-08-08T08:24:24Z</time>
      </trkpt>
      <trkpt lat="48.94148" lon="7.40541">
        <ele>335</ele>
        <time>2021-08-08T08:24:25Z</time>
      </trkpt>
      <trkpt lat="48.94135" lon="7.40553">
        <ele>334</ele>
        <time>2021-08-08T08:24:26Z</time>
      </trkpt>
      <trkpt lat="48.94123" lon="7.40561">
        <ele>334</ele>
        <time>2021-08-08T08:24:27Z</time>
      </trkpt>
      <trkpt lat="48.94123" lon="7.40561">
        <ele>334</ele>
        <time>2021-08-08T08:24:28Z</time>
      </trkpt>
      <trkpt lat="48.94123" lon="7.40561">
        <ele>334</ele>
        <time>2021-08-08T08:24:29Z</time>
      </trkpt>
      <trkpt lat="48.94114" lon="7.40577">
        <ele>333</ele>
        <time>2021-08-08T08:24:30Z</time>
      </trkpt>
      <trkpt lat="48.94114" lon="7.40577">
        <ele>333</ele>
        <time>2021-08-08T08:24:31Z</time>
      </trkpt>
      <trkpt lat="48.94111" lon="7.40596">
        <ele>333</ele>
        <time>2021-08-08T08:24:32Z</time>
      </trkpt>
      <trkpt lat="48.94111" lon="7.40596">
        <ele>333</ele>
        <time>2021-08-08T08:24:33Z</time>
      </trkpt>
      <trkpt lat="48.94109" lon="7.40614">
        <ele>333</ele>
        <time>2021-08-08T08:24:34Z</time>
      </trkpt>
      <trkpt lat="48.94109" lon="7.40614">
        <ele>333</ele>
        <time>2021-08-08T08:24:35Z</time>
      </trkpt>
      <trkpt lat="48.94108" lon="7.40643">
        <ele>333</ele>
        <time>2021-08-08T08:24:36Z</time>
      </trkpt>
      <trkpt lat="48.94108" lon="7.40643">
        <ele>333</ele>
        <time>2021-08-08T08:24:37Z</time>
      </trkpt>
      <trkpt lat="48.94108" lon="7.40643">
        <ele>333</ele>
        <time>2021-08-08T08:24:38Z</time>
      </trkpt>
      <trkpt lat="48.94103" lon="7.40661">
        <ele>333</ele>
        <time>2021-08-08T08:24:39Z</time>
      </trkpt>
      <trkpt lat="48.941" lon="7.4067">
        <ele>333</ele>
        <time>2021-08-08T08:24:40Z</time>
      </trkpt>
      <trkpt lat="48.941" lon="7.4067">
        <ele>333</ele>
        <time>2021-08-08T08:24:41Z</time>
      </trkpt>
      <trkpt lat="48.94095" lon="7.40686">
        <ele>333</ele>
        <time>2021-08-08T08:24:42Z</time>
      </trkpt>
      <trkpt lat="48.94088" lon="7.40702">
        <ele>333</ele>
        <time>2021-08-08T08:24:43Z</time>
      </trkpt>
      <trkpt lat="48.94088" lon="7.40702">
        <ele>333</ele>
        <time>2021-08-08T08:24:44Z</time>
      </trkpt>
      <trkpt lat="48.94084" lon="7.40717">
        <ele>333</ele>
        <time>2021-08-08T08:24:45Z</time>
      </trkpt>
      <trkpt lat="48.94084" lon="7.40717">
        <ele>333</ele>
        <time>2021-08-08T08:24:46Z</time>
      </trkpt>
      <trkpt lat="48.94084" lon="7.40717">
        <ele>333</ele>
        <time>2021-08-08T08:24:47Z</time>
      </trkpt>
      <trkpt lat="48.94078" lon="7.40732">
        <ele>333</ele>
        <time>2021-08-08T08:24:48Z</time>
      </trkpt>
      <trkpt lat="48.94078" lon="7.40732">
        <ele>333</ele>
        <time>2021-08-08T08:24:49Z</time>
      </trkpt>
      <trkpt lat="48.94074" lon="7.40743">
        <ele>333</ele>
        <time>2021-08-08T08:24:50Z</time>
      </trkpt>
      <trkpt lat="48.94074" lon="7.40743">
        <ele>333</ele>
        <time>2021-08-08T08:24:51Z</time>
      </trkpt>
      <trkpt lat="48.94069" lon="7.40755">
        <ele>333</ele>
        <time>2021-08-08T08:24:52Z</time>
      </trkpt>
      <trkpt lat="48.94069" lon="7.40755">
        <ele>333</ele>
        <time>2021-08-08T08:24:53Z</time>
      </trkpt>
      <trkpt lat="48.94057" lon="7.40782">
        <ele>333</ele>
        <time>2021-08-08T08:24:54Z</time>
      </trkpt>
      <trkpt lat="48.94057" lon="7.40782">
        <ele>333</ele>
        <time>2021-08-08T08:24:55Z</time>
      </trkpt>
      <trkpt lat="48.9405" lon="7.40798">
        <ele>333</ele>
        <time>2021-08-08T08:24:56Z</time>
      </trkpt>
      <trkpt lat="48.9405" lon="7.40798">
        <ele>333</ele>
        <time>2021-08-08T08:24:57Z</time>
      </trkpt>
      <trkpt lat="48.94043" lon="7.40811">
        <ele>335</ele>
        <time>2021-08-08T08:24:58Z</time>
      </trkpt>
      <trkpt lat="48.9404" lon="7.40818">
        <ele>335</ele>
        <time>2021-08-08T08:24:59Z</time>
      </trkpt>
      <trkpt lat="48.9404" lon="7.40818">
        <ele>335</ele>
        <time>2021-08-08T08:25:00Z</time>
      </trkpt>
      <trkpt lat="48.94035" lon="7.4083">
        <ele>335</ele>
        <time>2021-08-08T08:25:01Z</time>
      </trkpt>
      <trkpt lat="48.94035" lon="7.4083">
        <ele>335</ele>
        <time>2021-08-08T08:25:02Z</time>
      </trkpt>
      <trkpt lat="48.9403" lon="7.40841">
        <ele>335</ele>
        <time>2021-08-08T08:25:03Z</time>
      </trkpt>
      <trkpt lat="48.9403" lon="7.40841">
        <ele>336</ele>
        <time>2021-08-08T08:25:04Z</time>
      </trkpt>
      <trkpt lat="48.9403" lon="7.40841">
        <ele>336</ele>
        <time>2021-08-08T08:25:05Z</time>
      </trkpt>
      <trkpt lat="48.94026" lon="7.40854">
        <ele>336</ele>
        <time>2021-08-08T08:25:06Z</time>
      </trkpt>
      <trkpt lat="48.94026" lon="7.40854">
        <ele>336</ele>
        <time>2021-08-08T08:25:07Z</time>
      </trkpt>
      <trkpt lat="48.9402" lon="7.40865">
        <ele>337</ele>
        <time>2021-08-08T08:25:08Z</time>
      </trkpt>
      <trkpt lat="48.94016" lon="7.40872">
        <ele>337</ele>
        <time>2021-08-08T08:25:09Z</time>
      </trkpt>
      <trkpt lat="48.94016" lon="7.40872">
        <ele>337</ele>
        <time>2021-08-08T08:25:10Z</time>
      </trkpt>
      <trkpt lat="48.94012" lon="7.40882">
        <ele>337</ele>
        <time>2021-08-08T08:25:11Z</time>
      </trkpt>
      <trkpt lat="48.94012" lon="7.40882">
        <ele>338</ele>
        <time>2021-08-08T08:25:12Z</time>
      </trkpt>
      <trkpt lat="48.94007" lon="7.40894">
        <ele>338</ele>
        <time>2021-08-08T08:25:13Z</time>
      </trkpt>
      <trkpt lat="48.94007" lon="7.40894">
        <ele>338</ele>
        <time>2021-08-08T08:25:14Z</time>
      </trkpt>
      <trkpt lat="48.94007" lon="7.40894">
        <ele>338</ele>
        <time>2021-08-08T08:25:15Z</time>
      </trkpt>
      <trkpt lat="48.94001" lon="7.40904">
        <ele>336</ele>
        <time>2021-08-08T08:25:16Z</time>
      </trkpt>
      <trkpt lat="48.94001" lon="7.40904">
        <ele>335</ele>
        <time>2021-08-08T08:25:17Z</time>
      </trkpt>
      <trkpt lat="48.93996" lon="7.40914">
        <ele>335</ele>
        <time>2021-08-08T08:25:18Z</time>
      </trkpt>
      <trkpt lat="48.93996" lon="7.40914">
        <ele>333</ele>
        <time>2021-08-08T08:25:19Z</time>
      </trkpt>
      <trkpt lat="48.93985" lon="7.4092">
        <ele>333</ele>
        <time>2021-08-08T08:25:20Z</time>
      </trkpt>
      <trkpt lat="48.93985" lon="7.4092">
        <ele>332</ele>
        <time>2021-08-08T08:25:21Z</time>
      </trkpt>
      <trkpt lat="48.93971" lon="7.4092">
        <ele>332</ele>
        <time>2021-08-08T08:25:22Z</time>
      </trkpt>
      <trkpt lat="48.93971" lon="7.4092">
        <ele>331</ele>
        <time>2021-08-08T08:25:23Z</time>
      </trkpt>
      <trkpt lat="48.93955" lon="7.40918">
        <ele>331</ele>
        <time>2021-08-08T08:25:24Z</time>
      </trkpt>
      <trkpt lat="48.93955" lon="7.40918">
        <ele>329</ele>
        <time>2021-08-08T08:25:25Z</time>
      </trkpt>
      <trkpt lat="48.9394" lon="7.40912">
        <ele>329</ele>
        <time>2021-08-08T08:25:26Z</time>
      </trkpt>
      <trkpt lat="48.9394" lon="7.40912">
        <ele>328</ele>
        <time>2021-08-08T08:25:27Z</time>
      </trkpt>
      <trkpt lat="48.93923" lon="7.40896">
        <ele>328</ele>
        <time>2021-08-08T08:25:28Z</time>
      </trkpt>
      <trkpt lat="48.9392" lon="7.40892">
        <ele>328</ele>
        <time>2021-08-08T08:25:29Z</time>
      </trkpt>
      <trkpt lat="48.93914" lon="7.40884">
        <ele>328</ele>
        <time>2021-08-08T08:25:30Z</time>
      </trkpt>
      <trkpt lat="48.93914" lon="7.40884">
        <ele>327</ele>
        <time>2021-08-08T08:25:31Z</time>
      </trkpt>
      <trkpt lat="48.93904" lon="7.40868">
        <ele>327</ele>
        <time>2021-08-08T08:25:32Z</time>
      </trkpt>
      <trkpt lat="48.93904" lon="7.40868">
        <ele>327</ele>
        <time>2021-08-08T08:25:33Z</time>
      </trkpt>
      <trkpt lat="48.93889" lon="7.40846">
        <ele>327</ele>
        <time>2021-08-08T08:25:34Z</time>
      </trkpt>
      <trkpt lat="48.93889" lon="7.40846">
        <ele>326</ele>
        <time>2021-08-08T08:25:35Z</time>
      </trkpt>
      <trkpt lat="48.93876" lon="7.40828">
        <ele>326</ele>
        <time>2021-08-08T08:25:36Z</time>
      </trkpt>
      <trkpt lat="48.93876" lon="7.40828">
        <ele>326</ele>
        <time>2021-08-08T08:25:37Z</time>
      </trkpt>
      <trkpt lat="48.9387" lon="7.40815">
        <ele>326</ele>
        <time>2021-08-08T08:25:38Z</time>
      </trkpt>
      <trkpt lat="48.93868" lon="7.4081">
        <ele>324</ele>
        <time>2021-08-08T08:25:39Z</time>
      </trkpt>
      <trkpt lat="48.93865" lon="7.40801">
        <ele>324</ele>
        <time>2021-08-08T08:25:40Z</time>
      </trkpt>
      <trkpt lat="48.93865" lon="7.40801">
        <ele>324</ele>
        <time>2021-08-08T08:25:41Z</time>
      </trkpt>
      <trkpt lat="48.93857" lon="7.40782">
        <ele>324</ele>
        <time>2021-08-08T08:25:42Z</time>
      </trkpt>
      <trkpt lat="48.93857" lon="7.40782">
        <ele>323</ele>
        <time>2021-08-08T08:25:43Z</time>
      </trkpt>
      <trkpt lat="48.93852" lon="7.40764">
        <ele>323</ele>
        <time>2021-08-08T08:25:44Z</time>
      </trkpt>
      <trkpt lat="48.93852" lon="7.40764">
        <ele>323</ele>
        <time>2021-08-08T08:25:45Z</time>
      </trkpt>
      <trkpt lat="48.93846" lon="7.40751">
        <ele>323</ele>
        <time>2021-08-08T08:25:46Z</time>
      </trkpt>
      <trkpt lat="48.93846" lon="7.40751">
        <ele>322</ele>
        <time>2021-08-08T08:25:47Z</time>
      </trkpt>
      <trkpt lat="48.93835" lon="7.40748">
        <ele>322</ele>
        <time>2021-08-08T08:25:48Z</time>
      </trkpt>
      <trkpt lat="48.93835" lon="7.40748">
        <ele>320</ele>
        <time>2021-08-08T08:25:49Z</time>
      </trkpt>
      <trkpt lat="48.93823" lon="7.40745">
        <ele>320</ele>
        <time>2021-08-08T08:25:50Z</time>
      </trkpt>
      <trkpt lat="48.93823" lon="7.40745">
        <ele>318</ele>
        <time>2021-08-08T08:25:51Z</time>
      </trkpt>
      <trkpt lat="48.93812" lon="7.40739">
        <ele>318</ele>
        <time>2021-08-08T08:25:52Z</time>
      </trkpt>
      <trkpt lat="48.93812" lon="7.40739">
        <ele>316</ele>
        <time>2021-08-08T08:25:53Z</time>
      </trkpt>
      <trkpt lat="48.93794" lon="7.40729">
        <ele>316</ele>
        <time>2021-08-08T08:25:54Z</time>
      </trkpt>
      <trkpt lat="48.93794" lon="7.40729">
        <ele>314</ele>
        <time>2021-08-08T08:25:55Z</time>
      </trkpt>
      <trkpt lat="48.93794" lon="7.40729">
        <ele>314</ele>
        <time>2021-08-08T08:25:56Z</time>
      </trkpt>
      <trkpt lat="48.93783" lon="7.40717">
        <ele>313</ele>
        <time>2021-08-08T08:25:57Z</time>
      </trkpt>
      <trkpt lat="48.93778" lon="7.40711">
        <ele>313</ele>
        <time>2021-08-08T08:25:58Z</time>
      </trkpt>
      <trkpt lat="48.9377" lon="7.40704">
        <ele>312</ele>
        <time>2021-08-08T08:25:59Z</time>
      </trkpt>
      <trkpt lat="48.9377" lon="7.40704">
        <ele>312</ele>
        <time>2021-08-08T08:26:00Z</time>
      </trkpt>
      <trkpt lat="48.9377" lon="7.40704">
        <ele>311</ele>
        <time>2021-08-08T08:26:01Z</time>
      </trkpt>
      <trkpt lat="48.93762" lon="7.40703">
        <ele>311</ele>
        <time>2021-08-08T08:26:02Z</time>
      </trkpt>
      <trkpt lat="48.93762" lon="7.40703">
        <ele>310</ele>
        <time>2021-08-08T08:26:03Z</time>
      </trkpt>
      <trkpt lat="48.93754" lon="7.40702">
        <ele>310</ele>
        <time>2021-08-08T08:26:04Z</time>
      </trkpt>
      <trkpt lat="48.93754" lon="7.40702">
        <ele>309</ele>
        <time>2021-08-08T08:26:05Z</time>
      </trkpt>
      <trkpt lat="48.93746" lon="7.40699">
        <ele>309</ele>
        <time>2021-08-08T08:26:06Z</time>
      </trkpt>
      <trkpt lat="48.93746" lon="7.40699">
        <ele>308</ele>
        <time>2021-08-08T08:26:07Z</time>
      </trkpt>
      <trkpt lat="48.93737" lon="7.40694">
        <ele>308</ele>
        <time>2021-08-08T08:26:08Z</time>
      </trkpt>
      <trkpt lat="48.93737" lon="7.40694">
        <ele>308</ele>
        <time>2021-08-08T08:26:09Z</time>
      </trkpt>
      <trkpt lat="48.93727" lon="7.40695">
        <ele>308</ele>
        <time>2021-08-08T08:26:10Z</time>
      </trkpt>
      <trkpt lat="48.93723" lon="7.40697">
        <ele>308</ele>
        <time>2021-08-08T08:26:11Z</time>
      </trkpt>
      <trkpt lat="48.93719" lon="7.40697">
        <ele>307</ele>
        <time>2021-08-08T08:26:12Z</time>
      </trkpt>
      <trkpt lat="48.93719" lon="7.40697">
        <ele>307</ele>
        <time>2021-08-08T08:26:13Z</time>
      </trkpt>
      <trkpt lat="48.93712" lon="7.40699">
        <ele>307</ele>
        <time>2021-08-08T08:26:14Z</time>
      </trkpt>
      <trkpt lat="48.93712" lon="7.40699">
        <ele>307</ele>
        <time>2021-08-08T08:26:15Z</time>
      </trkpt>
      <trkpt lat="48.93703" lon="7.407">
        <ele>306</ele>
        <time>2021-08-08T08:26:16Z</time>
      </trkpt>
      <trkpt lat="48.93703" lon="7.407">
        <ele>306</ele>
        <time>2021-08-08T08:26:17Z</time>
      </trkpt>
      <trkpt lat="48.93703" lon="7.407">
        <ele>306</ele>
        <time>2021-08-08T08:26:18Z</time>
      </trkpt>
      <trkpt lat="48.937" lon="7.40699">
        <ele>306</ele>
        <time>2021-08-08T08:26:19Z</time>
      </trkpt>
      <trkpt lat="48.937" lon="7.40699">
        <ele>306</ele>
        <time>2021-08-08T08:26:20Z</time>
      </trkpt>
      <trkpt lat="48.937" lon="7.40699">
        <ele>306</ele>
        <time>2021-08-08T08:26:21Z</time>
      </trkpt>
      <trkpt lat="48.937" lon="7.40698">
        <ele>306</ele>
        <time>2021-08-08T08:27:38Z</time>
      </trkpt>
      <trkpt lat="48.9369" lon="7.40702">
        <ele>306</ele>
        <time>2021-08-08T08:27:39Z</time>
      </trkpt>
      <trkpt lat="48.9369" lon="7.40702">
        <ele>306</ele>
        <time>2021-08-08T08:27:40Z</time>
      </trkpt>
      <trkpt lat="48.93687" lon="7.40707">
        <ele>306</ele>
        <time>2021-08-08T08:27:41Z</time>
      </trkpt>
      <trkpt lat="48.93687" lon="7.40707">
        <ele>305</ele>
        <time>2021-08-08T08:27:42Z</time>
      </trkpt>
      <trkpt lat="48.93684" lon="7.40713">
        <ele>305</ele>
        <time>2021-08-08T08:27:43Z</time>
      </trkpt>
      <trkpt lat="48.93684" lon="7.40713">
        <ele>305</ele>
        <time>2021-08-08T08:27:44Z</time>
      </trkpt>
      <trkpt lat="48.93679" lon="7.40721">
        <ele>305</ele>
        <time>2021-08-08T08:27:45Z</time>
      </trkpt>
      <trkpt lat="48.93677" lon="7.40725">
        <ele>305</ele>
        <time>2021-08-08T08:27:46Z</time>
      </trkpt>
      <trkpt lat="48.93677" lon="7.40725">
        <ele>305</ele>
        <time>2021-08-08T08:27:47Z</time>
      </trkpt>
      <trkpt lat="48.93673" lon="7.40735">
        <ele>305</ele>
        <time>2021-08-08T08:27:48Z</time>
      </trkpt>
      <trkpt lat="48.9367" lon="7.40739">
        <ele>305</ele>
        <time>2021-08-08T08:27:49Z</time>
      </trkpt>
      <trkpt lat="48.93667" lon="7.40743">
        <ele>305</ele>
        <time>2021-08-08T08:27:50Z</time>
      </trkpt>
      <trkpt lat="48.93667" lon="7.40743">
        <ele>305</ele>
        <time>2021-08-08T08:27:51Z</time>
      </trkpt>
      <trkpt lat="48.93661" lon="7.4075">
        <ele>306</ele>
        <time>2021-08-08T08:27:52Z</time>
      </trkpt>
      <trkpt lat="48.93659" lon="7.40753">
        <ele>306</ele>
        <time>2021-08-08T08:27:53Z</time>
      </trkpt>
      <trkpt lat="48.93659" lon="7.40753">
        <ele>306</ele>
        <time>2021-08-08T08:27:54Z</time>
      </trkpt>
      <trkpt lat="48.93655" lon="7.4076">
        <ele>306</ele>
        <time>2021-08-08T08:27:55Z</time>
      </trkpt>
      <trkpt lat="48.93655" lon="7.4076">
        <ele>306</ele>
        <time>2021-08-08T08:27:56Z</time>
      </trkpt>
      <trkpt lat="48.93652" lon="7.40764">
        <ele>306</ele>
        <time>2021-08-08T08:27:57Z</time>
      </trkpt>
      <trkpt lat="48.93652" lon="7.40764">
        <ele>306</ele>
        <time>2021-08-08T08:27:58Z</time>
      </trkpt>
      <trkpt lat="48.9365" lon="7.40768">
        <ele>306</ele>
        <time>2021-08-08T08:27:59Z</time>
      </trkpt>
      <trkpt lat="48.93648" lon="7.4077">
        <ele>306</ele>
        <time>2021-08-08T08:28:00Z</time>
      </trkpt>
      <trkpt lat="48.93648" lon="7.4077">
        <ele>306</ele>
        <time>2021-08-08T08:28:01Z</time>
      </trkpt>
      <trkpt lat="48.93644" lon="7.40779">
        <ele>307</ele>
        <time>2021-08-08T08:28:02Z</time>
      </trkpt>
      <trkpt lat="48.93641" lon="7.40783">
        <ele>307</ele>
        <time>2021-08-08T08:28:03Z</time>
      </trkpt>
      <trkpt lat="48.93641" lon="7.40783">
        <ele>307</ele>
        <time>2021-08-08T08:28:04Z</time>
      </trkpt>
      <trkpt lat="48.93636" lon="7.40792">
        <ele>307</ele>
        <time>2021-08-08T08:28:05Z</time>
      </trkpt>
      <trkpt lat="48.93633" lon="7.40797">
        <ele>307</ele>
        <time>2021-08-08T08:28:06Z</time>
      </trkpt>
      <trkpt lat="48.93631" lon="7.40802">
        <ele>307</ele>
        <time>2021-08-08T08:28:07Z</time>
      </trkpt>
      <trkpt lat="48.93628" lon="7.40807">
        <ele>307</ele>
        <time>2021-08-08T08:28:08Z</time>
      </trkpt>
      <trkpt lat="48.93628" lon="7.40807">
        <ele>307</ele>
        <time>2021-08-08T08:28:09Z</time>
      </trkpt>
      <trkpt lat="48.93624" lon="7.4082">
        <ele>308</ele>
        <time>2021-08-08T08:28:10Z</time>
      </trkpt>
      <trkpt lat="48.93624" lon="7.4082">
        <ele>308</ele>
        <time>2021-08-08T08:28:11Z</time>
      </trkpt>
      <trkpt lat="48.9362" lon="7.4083">
        <ele>308</ele>
        <time>2021-08-08T08:28:12Z</time>
      </trkpt>
      <trkpt lat="48.9362" lon="7.40835">
        <ele>308</ele>
        <time>2021-08-08T08:28:13Z</time>
      </trkpt>
      <trkpt lat="48.9362" lon="7.40835">
        <ele>308</ele>
        <time>2021-08-08T08:28:14Z</time>
      </trkpt>
      <trkpt lat="48.93618" lon="7.40844">
        <ele>308</ele>
        <time>2021-08-08T08:28:15Z</time>
      </trkpt>
      <trkpt lat="48.93617" lon="7.40849">
        <ele>308</ele>
        <time>2021-08-08T08:28:16Z</time>
      </trkpt>
      <trkpt lat="48.93617" lon="7.40849">
        <ele>308</ele>
        <time>2021-08-08T08:28:17Z</time>
      </trkpt>
      <trkpt lat="48.93616" lon="7.40857">
        <ele>308</ele>
        <time>2021-08-08T08:28:18Z</time>
      </trkpt>
      <trkpt lat="48.93615" lon="7.40862">
        <ele>308</ele>
        <time>2021-08-08T08:28:19Z</time>
      </trkpt>
      <trkpt lat="48.93615" lon="7.40862">
        <ele>308</ele>
        <time>2021-08-08T08:28:20Z</time>
      </trkpt>
      <trkpt lat="48.93615" lon="7.4087">
        <ele>308</ele>
        <time>2021-08-08T08:28:21Z</time>
      </trkpt>
      <trkpt lat="48.93615" lon="7.4087">
        <ele>309</ele>
        <time>2021-08-08T08:28:22Z</time>
      </trkpt>
      <trkpt lat="48.93613" lon="7.4088">
        <ele>309</ele>
        <time>2021-08-08T08:28:23Z</time>
      </trkpt>
      <trkpt lat="48.93613" lon="7.4088">
        <ele>309</ele>
        <time>2021-08-08T08:28:24Z</time>
      </trkpt>
      <trkpt lat="48.93611" lon="7.40889">
        <ele>309</ele>
        <time>2021-08-08T08:28:25Z</time>
      </trkpt>
      <trkpt lat="48.93611" lon="7.40889">
        <ele>309</ele>
        <time>2021-08-08T08:28:26Z</time>
      </trkpt>
      <trkpt lat="48.93609" lon="7.40895">
        <ele>310</ele>
        <time>2021-08-08T08:28:27Z</time>
      </trkpt>
      <trkpt lat="48.93609" lon="7.40895">
        <ele>310</ele>
        <time>2021-08-08T08:28:28Z</time>
      </trkpt>
      <trkpt lat="48.93607" lon="7.40904">
        <ele>310</ele>
        <time>2021-08-08T08:28:29Z</time>
      </trkpt>
      <trkpt lat="48.93607" lon="7.40904">
        <ele>310</ele>
        <time>2021-08-08T08:28:30Z</time>
      </trkpt>
      <trkpt lat="48.93607" lon="7.40913">
        <ele>310</ele>
        <time>2021-08-08T08:28:31Z</time>
      </trkpt>
      <trkpt lat="48.93607" lon="7.40913">
        <ele>310</ele>
        <time>2021-08-08T08:28:32Z</time>
      </trkpt>
      <trkpt lat="48.93606" lon="7.40925">
        <ele>310</ele>
        <time>2021-08-08T08:28:33Z</time>
      </trkpt>
      <trkpt lat="48.93606" lon="7.40925">
        <ele>310</ele>
        <time>2021-08-08T08:28:34Z</time>
      </trkpt>
      <trkpt lat="48.93606" lon="7.40934">
        <ele>310</ele>
        <time>2021-08-08T08:28:35Z</time>
      </trkpt>
      <trkpt lat="48.93605" lon="7.40939">
        <ele>311</ele>
        <time>2021-08-08T08:28:36Z</time>
      </trkpt>
      <trkpt lat="48.93605" lon="7.40939">
        <ele>311</ele>
        <time>2021-08-08T08:28:37Z</time>
      </trkpt>
      <trkpt lat="48.93605" lon="7.40949">
        <ele>311</ele>
        <time>2021-08-08T08:28:38Z</time>
      </trkpt>
      <trkpt lat="48.93605" lon="7.40949">
        <ele>311</ele>
        <time>2021-08-08T08:28:39Z</time>
      </trkpt>
      <trkpt lat="48.93605" lon="7.40962">
        <ele>311</ele>
        <time>2021-08-08T08:28:40Z</time>
      </trkpt>
      <trkpt lat="48.93605" lon="7.40971">
        <ele>311</ele>
        <time>2021-08-08T08:28:41Z</time>
      </trkpt>
      <trkpt lat="48.93605" lon="7.40971">
        <ele>311</ele>
        <time>2021-08-08T08:28:42Z</time>
      </trkpt>
      <trkpt lat="48.93605" lon="7.4098">
        <ele>311</ele>
        <time>2021-08-08T08:28:43Z</time>
      </trkpt>
      <trkpt lat="48.93605" lon="7.4098">
        <ele>312</ele>
        <time>2021-08-08T08:28:44Z</time>
      </trkpt>
      <trkpt lat="48.93605" lon="7.40991">
        <ele>312</ele>
        <time>2021-08-08T08:28:45Z</time>
      </trkpt>
      <trkpt lat="48.93605" lon="7.40991">
        <ele>312</ele>
        <time>2021-08-08T08:28:46Z</time>
      </trkpt>
      <trkpt lat="48.93605" lon="7.40999">
        <ele>312</ele>
        <time>2021-08-08T08:28:47Z</time>
      </trkpt>
      <trkpt lat="48.93605" lon="7.40999">
        <ele>312</ele>
        <time>2021-08-08T08:28:48Z</time>
      </trkpt>
      <trkpt lat="48.93605" lon="7.41006">
        <ele>312</ele>
        <time>2021-08-08T08:28:49Z</time>
      </trkpt>
      <trkpt lat="48.93605" lon="7.41006">
        <ele>313</ele>
        <time>2021-08-08T08:28:50Z</time>
      </trkpt>
      <trkpt lat="48.93604" lon="7.41015">
        <ele>313</ele>
        <time>2021-08-08T08:28:51Z</time>
      </trkpt>
      <trkpt lat="48.93604" lon="7.41015">
        <ele>313</ele>
        <time>2021-08-08T08:28:52Z</time>
      </trkpt>
      <trkpt lat="48.93603" lon="7.41025">
        <ele>313</ele>
        <time>2021-08-08T08:28:53Z</time>
      </trkpt>
      <trkpt lat="48.93603" lon="7.41025">
        <ele>313</ele>
        <time>2021-08-08T08:28:54Z</time>
      </trkpt>
      <trkpt lat="48.93602" lon="7.41035">
        <ele>313</ele>
        <time>2021-08-08T08:28:55Z</time>
      </trkpt>
      <trkpt lat="48.93602" lon="7.41035">
        <ele>313</ele>
        <time>2021-08-08T08:28:56Z</time>
      </trkpt>
      <trkpt lat="48.93601" lon="7.41051">
        <ele>313</ele>
        <time>2021-08-08T08:28:57Z</time>
      </trkpt>
      <trkpt lat="48.93601" lon="7.41051">
        <ele>313</ele>
        <time>2021-08-08T08:28:58Z</time>
      </trkpt>
      <trkpt lat="48.93599" lon="7.41064">
        <ele>313</ele>
        <time>2021-08-08T08:28:59Z</time>
      </trkpt>
      <trkpt lat="48.93599" lon="7.41064">
        <ele>313</ele>
        <time>2021-08-08T08:29:00Z</time>
      </trkpt>
      <trkpt lat="48.93601" lon="7.41084">
        <ele>313</ele>
        <time>2021-08-08T08:29:01Z</time>
      </trkpt>
      <trkpt lat="48.936" lon="7.41092">
        <ele>313</ele>
        <time>2021-08-08T08:29:02Z</time>
      </trkpt>
      <trkpt lat="48.936" lon="7.41092">
        <ele>313</ele>
        <time>2021-08-08T08:29:03Z</time>
      </trkpt>
      <trkpt lat="48.93597" lon="7.41108">
        <ele>313</ele>
        <time>2021-08-08T08:29:04Z</time>
      </trkpt>
      <trkpt lat="48.93597" lon="7.41108">
        <ele>313</ele>
        <time>2021-08-08T08:29:05Z</time>
      </trkpt>
      <trkpt lat="48.9359" lon="7.41119">
        <ele>313</ele>
        <time>2021-08-08T08:29:06Z</time>
      </trkpt>
      <trkpt lat="48.9359" lon="7.41119">
        <ele>313</ele>
        <time>2021-08-08T08:29:07Z</time>
      </trkpt>
      <trkpt lat="48.93581" lon="7.41127">
        <ele>312</ele>
        <time>2021-08-08T08:29:08Z</time>
      </trkpt>
      <trkpt lat="48.93576" lon="7.4113">
        <ele>312</ele>
        <time>2021-08-08T08:29:09Z</time>
      </trkpt>
      <trkpt lat="48.93576" lon="7.4113">
        <ele>312</ele>
        <time>2021-08-08T08:29:10Z</time>
      </trkpt>
      <trkpt lat="48.93566" lon="7.41135">
        <ele>312</ele>
        <time>2021-08-08T08:29:11Z</time>
      </trkpt>
      <trkpt lat="48.93566" lon="7.41135">
        <ele>311</ele>
        <time>2021-08-08T08:29:12Z</time>
      </trkpt>
      <trkpt lat="48.93554" lon="7.41133">
        <ele>311</ele>
        <time>2021-08-08T08:29:13Z</time>
      </trkpt>
      <trkpt lat="48.93554" lon="7.41133">
        <ele>309</ele>
        <time>2021-08-08T08:29:14Z</time>
      </trkpt>
      <trkpt lat="48.93541" lon="7.41129">
        <ele>309</ele>
        <time>2021-08-08T08:29:15Z</time>
      </trkpt>
      <trkpt lat="48.93541" lon="7.41129">
        <ele>308</ele>
        <time>2021-08-08T08:29:16Z</time>
      </trkpt>
      <trkpt lat="48.93528" lon="7.41124">
        <ele>308</ele>
        <time>2021-08-08T08:29:17Z</time>
      </trkpt>
      <trkpt lat="48.93528" lon="7.41124">
        <ele>307</ele>
        <time>2021-08-08T08:29:18Z</time>
      </trkpt>
      <trkpt lat="48.93514" lon="7.41125">
        <ele>307</ele>
        <time>2021-08-08T08:29:19Z</time>
      </trkpt>
      <trkpt lat="48.93514" lon="7.41125">
        <ele>306</ele>
        <time>2021-08-08T08:29:20Z</time>
      </trkpt>
      <trkpt lat="48.93501" lon="7.4114">
        <ele>306</ele>
        <time>2021-08-08T08:29:21Z</time>
      </trkpt>
      <trkpt lat="48.93501" lon="7.4114">
        <ele>305</ele>
        <time>2021-08-08T08:29:22Z</time>
      </trkpt>
      <trkpt lat="48.93488" lon="7.41153">
        <ele>305</ele>
        <time>2021-08-08T08:29:23Z</time>
      </trkpt>
      <trkpt lat="48.93488" lon="7.41153">
        <ele>303</ele>
        <time>2021-08-08T08:29:24Z</time>
      </trkpt>
      <trkpt lat="48.93476" lon="7.41159">
        <ele>302</ele>
        <time>2021-08-08T08:29:25Z</time>
      </trkpt>
      <trkpt lat="48.93476" lon="7.41159">
        <ele>302</ele>
        <time>2021-08-08T08:29:26Z</time>
      </trkpt>
      <trkpt lat="48.93462" lon="7.41165">
        <ele>301</ele>
        <time>2021-08-08T08:29:27Z</time>
      </trkpt>
      <trkpt lat="48.93456" lon="7.41167">
        <ele>301</ele>
        <time>2021-08-08T08:29:28Z</time>
      </trkpt>
      <trkpt lat="48.93456" lon="7.41167">
        <ele>300</ele>
        <time>2021-08-08T08:29:29Z</time>
      </trkpt>
      <trkpt lat="48.93443" lon="7.4117">
        <ele>300</ele>
        <time>2021-08-08T08:29:30Z</time>
      </trkpt>
      <trkpt lat="48.93436" lon="7.41171">
        <ele>300</ele>
        <time>2021-08-08T08:29:31Z</time>
      </trkpt>
      <trkpt lat="48.93436" lon="7.41171">
        <ele>300</ele>
        <time>2021-08-08T08:29:32Z</time>
      </trkpt>
      <trkpt lat="48.93423" lon="7.41172">
        <ele>299</ele>
        <time>2021-08-08T08:29:33Z</time>
      </trkpt>
      <trkpt lat="48.93423" lon="7.41172">
        <ele>299</ele>
        <time>2021-08-08T08:29:34Z</time>
      </trkpt>
      <trkpt lat="48.9341" lon="7.41173">
        <ele>299</ele>
        <time>2021-08-08T08:29:35Z</time>
      </trkpt>
      <trkpt lat="48.9341" lon="7.41173">
        <ele>299</ele>
        <time>2021-08-08T08:29:36Z</time>
      </trkpt>
      <trkpt lat="48.93398" lon="7.41175">
        <ele>298</ele>
        <time>2021-08-08T08:29:37Z</time>
      </trkpt>
      <trkpt lat="48.93393" lon="7.41175">
        <ele>298</ele>
        <time>2021-08-08T08:29:38Z</time>
      </trkpt>
      <trkpt lat="48.93393" lon="7.41175">
        <ele>298</ele>
        <time>2021-08-08T08:29:39Z</time>
      </trkpt>
      <trkpt lat="48.93384" lon="7.41178">
        <ele>298</ele>
        <time>2021-08-08T08:29:40Z</time>
      </trkpt>
      <trkpt lat="48.93384" lon="7.41178">
        <ele>298</ele>
        <time>2021-08-08T08:29:41Z</time>
      </trkpt>
      <trkpt lat="48.93374" lon="7.4118">
        <ele>298</ele>
        <time>2021-08-08T08:29:42Z</time>
      </trkpt>
      <trkpt lat="48.93374" lon="7.4118">
        <ele>298</ele>
        <time>2021-08-08T08:29:43Z</time>
      </trkpt>
      <trkpt lat="48.93366" lon="7.41183">
        <ele>298</ele>
        <time>2021-08-08T08:29:44Z</time>
      </trkpt>
      <trkpt lat="48.93366" lon="7.41183">
        <ele>298</ele>
        <time>2021-08-08T08:29:45Z</time>
      </trkpt>
      <trkpt lat="48.93355" lon="7.41188">
        <ele>298</ele>
        <time>2021-08-08T08:29:46Z</time>
      </trkpt>
      <trkpt lat="48.93355" lon="7.41188">
        <ele>297</ele>
        <time>2021-08-08T08:29:47Z</time>
      </trkpt>
      <trkpt lat="48.93345" lon="7.41195">
        <ele>297</ele>
        <time>2021-08-08T08:29:48Z</time>
      </trkpt>
      <trkpt lat="48.93345" lon="7.41195">
        <ele>297</ele>
        <time>2021-08-08T08:29:49Z</time>
      </trkpt>
      <trkpt lat="48.93337" lon="7.41204">
        <ele>297</ele>
        <time>2021-08-08T08:29:50Z</time>
      </trkpt>
      <trkpt lat="48.93334" lon="7.41208">
        <ele>297</ele>
        <time>2021-08-08T08:29:51Z</time>
      </trkpt>
      <trkpt lat="48.93334" lon="7.41208">
        <ele>297</ele>
        <time>2021-08-08T08:29:52Z</time>
      </trkpt>
      <trkpt lat="48.93327" lon="7.41216">
        <ele>296</ele>
        <time>2021-08-08T08:29:53Z</time>
      </trkpt>
      <trkpt lat="48.93327" lon="7.41216">
        <ele>296</ele>
        <time>2021-08-08T08:29:54Z</time>
      </trkpt>
      <trkpt lat="48.93322" lon="7.41222">
        <ele>296</ele>
        <time>2021-08-08T08:29:55Z</time>
      </trkpt>
      <trkpt lat="48.93322" lon="7.41222">
        <ele>296</ele>
        <time>2021-08-08T08:29:56Z</time>
      </trkpt>
      <trkpt lat="48.93316" lon="7.41225">
        <ele>296</ele>
        <time>2021-08-08T08:29:57Z</time>
      </trkpt>
      <trkpt lat="48.93313" lon="7.41228">
        <ele>296</ele>
        <time>2021-08-08T08:29:58Z</time>
      </trkpt>
      <trkpt lat="48.93313" lon="7.41228">
        <ele>296</ele>
        <time>2021-08-08T08:29:59Z</time>
      </trkpt>
      <trkpt lat="48.93308" lon="7.41237">
        <ele>296</ele>
        <time>2021-08-08T08:30:00Z</time>
      </trkpt>
      <trkpt lat="48.93306" lon="7.41243">
        <ele>295</ele>
        <time>2021-08-08T08:30:01Z</time>
      </trkpt>
      <trkpt lat="48.93306" lon="7.41243">
        <ele>295</ele>
        <time>2021-08-08T08:30:02Z</time>
      </trkpt>
      <trkpt lat="48.93301" lon="7.41254">
        <ele>295</ele>
        <time>2021-08-08T08:30:03Z</time>
      </trkpt>
      <trkpt lat="48.93301" lon="7.41254">
        <ele>295</ele>
        <time>2021-08-08T08:30:04Z</time>
      </trkpt>
      <trkpt lat="48.93297" lon="7.41264">
        <ele>294</ele>
        <time>2021-08-08T08:30:05Z</time>
      </trkpt>
      <trkpt lat="48.93297" lon="7.41264">
        <ele>294</ele>
        <time>2021-08-08T08:30:06Z</time>
      </trkpt>
      <trkpt lat="48.93293" lon="7.41273">
        <ele>293</ele>
        <time>2021-08-08T08:30:07Z</time>
      </trkpt>
      <trkpt lat="48.93293" lon="7.41273">
        <ele>293</ele>
        <time>2021-08-08T08:30:08Z</time>
      </trkpt>
      <trkpt lat="48.93291" lon="7.4128">
        <ele>292</ele>
        <time>2021-08-08T08:30:09Z</time>
      </trkpt>
      <trkpt lat="48.93291" lon="7.4128">
        <ele>292</ele>
        <time>2021-08-08T08:30:10Z</time>
      </trkpt>
      <trkpt lat="48.93287" lon="7.41289">
        <ele>291</ele>
        <time>2021-08-08T08:30:11Z</time>
      </trkpt>
      <trkpt lat="48.93287" lon="7.41289">
        <ele>291</ele>
        <time>2021-08-08T08:30:12Z</time>
      </trkpt>
      <trkpt lat="48.93282" lon="7.413">
        <ele>289</ele>
        <time>2021-08-08T08:30:13Z</time>
      </trkpt>
      <trkpt lat="48.93282" lon="7.413">
        <ele>289</ele>
        <time>2021-08-08T08:30:14Z</time>
      </trkpt>
      <trkpt lat="48.93277" lon="7.41313">
        <ele>288</ele>
        <time>2021-08-08T08:30:15Z</time>
      </trkpt>
      <trkpt lat="48.93277" lon="7.41313">
        <ele>288</ele>
        <time>2021-08-08T08:30:16Z</time>
      </trkpt>
      <trkpt lat="48.93274" lon="7.41323">
        <ele>286</ele>
        <time>2021-08-08T08:30:17Z</time>
      </trkpt>
      <trkpt lat="48.93274" lon="7.41323">
        <ele>286</ele>
        <time>2021-08-08T08:30:18Z</time>
      </trkpt>
      <trkpt lat="48.9327" lon="7.41333">
        <ele>285</ele>
        <time>2021-08-08T08:30:19Z</time>
      </trkpt>
      <trkpt lat="48.9327" lon="7.41333">
        <ele>283</ele>
        <time>2021-08-08T08:30:20Z</time>
      </trkpt>
      <trkpt lat="48.93265" lon="7.4134">
        <ele>283</ele>
        <time>2021-08-08T08:30:21Z</time>
      </trkpt>
      <trkpt lat="48.93265" lon="7.4134">
        <ele>281</ele>
        <time>2021-08-08T08:30:22Z</time>
      </trkpt>
      <trkpt lat="48.9326" lon="7.41353">
        <ele>281</ele>
        <time>2021-08-08T08:30:23Z</time>
      </trkpt>
      <trkpt lat="48.9326" lon="7.41353">
        <ele>279</ele>
        <time>2021-08-08T08:30:24Z</time>
      </trkpt>
      <trkpt lat="48.93254" lon="7.41369">
        <ele>279</ele>
        <time>2021-08-08T08:30:25Z</time>
      </trkpt>
      <trkpt lat="48.93254" lon="7.41369">
        <ele>277</ele>
        <time>2021-08-08T08:30:26Z</time>
      </trkpt>
      <trkpt lat="48.93247" lon="7.41385">
        <ele>277</ele>
        <time>2021-08-08T08:30:27Z</time>
      </trkpt>
      <trkpt lat="48.93247" lon="7.41385">
        <ele>276</ele>
        <time>2021-08-08T08:30:28Z</time>
      </trkpt>
      <trkpt lat="48.93242" lon="7.414">
        <ele>276</ele>
        <time>2021-08-08T08:30:29Z</time>
      </trkpt>
      <trkpt lat="48.9324" lon="7.41406">
        <ele>274</ele>
        <time>2021-08-08T08:30:30Z</time>
      </trkpt>
      <trkpt lat="48.9324" lon="7.41406">
        <ele>274</ele>
        <time>2021-08-08T08:30:31Z</time>
      </trkpt>
      <trkpt lat="48.93236" lon="7.4142">
        <ele>272</ele>
        <time>2021-08-08T08:30:32Z</time>
      </trkpt>
      <trkpt lat="48.93236" lon="7.4142">
        <ele>272</ele>
        <time>2021-08-08T08:30:33Z</time>
      </trkpt>
      <trkpt lat="48.93228" lon="7.41431">
        <ele>270</ele>
        <time>2021-08-08T08:30:34Z</time>
      </trkpt>
      <trkpt lat="48.93228" lon="7.41431">
        <ele>270</ele>
        <time>2021-08-08T08:30:35Z</time>
      </trkpt>
      <trkpt lat="48.93217" lon="7.41434">
        <ele>268</ele>
        <time>2021-08-08T08:30:36Z</time>
      </trkpt>
      <trkpt lat="48.9321" lon="7.41435">
        <ele>268</ele>
        <time>2021-08-08T08:30:37Z</time>
      </trkpt>
      <trkpt lat="48.9321" lon="7.41435">
        <ele>266</ele>
        <time>2021-08-08T08:30:38Z</time>
      </trkpt>
      <trkpt lat="48.93199" lon="7.41442">
        <ele>266</ele>
        <time>2021-08-08T08:30:39Z</time>
      </trkpt>
      <trkpt lat="48.93199" lon="7.41442">
        <ele>264</ele>
        <time>2021-08-08T08:30:40Z</time>
      </trkpt>
      <trkpt lat="48.93187" lon="7.41454">
        <ele>264</ele>
        <time>2021-08-08T08:30:41Z</time>
      </trkpt>
      <trkpt lat="48.93187" lon="7.41454">
        <ele>263</ele>
        <time>2021-08-08T08:30:42Z</time>
      </trkpt>
      <trkpt lat="48.93174" lon="7.41464">
        <ele>263</ele>
        <time>2021-08-08T08:30:43Z</time>
      </trkpt>
      <trkpt lat="48.93174" lon="7.41464">
        <ele>262</ele>
        <time>2021-08-08T08:30:44Z</time>
      </trkpt>
      <trkpt lat="48.9316" lon="7.41468">
        <ele>262</ele>
        <time>2021-08-08T08:30:45Z</time>
      </trkpt>
      <trkpt lat="48.93152" lon="7.4147">
        <ele>260</ele>
        <time>2021-08-08T08:30:46Z</time>
      </trkpt>
      <trkpt lat="48.93152" lon="7.4147">
        <ele>260</ele>
        <time>2021-08-08T08:30:47Z</time>
      </trkpt>
      <trkpt lat="48.93137" lon="7.41471">
        <ele>259</ele>
        <time>2021-08-08T08:30:48Z</time>
      </trkpt>
      <trkpt lat="48.93131" lon="7.41469">
        <ele>259</ele>
        <time>2021-08-08T08:30:49Z</time>
      </trkpt>
      <trkpt lat="48.93125" lon="7.41465">
        <ele>258</ele>
        <time>2021-08-08T08:30:50Z</time>
      </trkpt>
      <trkpt lat="48.93125" lon="7.41465">
        <ele>258</ele>
        <time>2021-08-08T08:30:51Z</time>
      </trkpt>
      <trkpt lat="48.93116" lon="7.41451">
        <ele>257</ele>
        <time>2021-08-08T08:30:52Z</time>
      </trkpt>
      <trkpt lat="48.93116" lon="7.41451">
        <ele>257</ele>
        <time>2021-08-08T08:30:53Z</time>
      </trkpt>
      <trkpt lat="48.93108" lon="7.41432">
        <ele>256</ele>
        <time>2021-08-08T08:30:54Z</time>
      </trkpt>
      <trkpt lat="48.93104" lon="7.41421">
        <ele>256</ele>
        <time>2021-08-08T08:30:55Z</time>
      </trkpt>
      <trkpt lat="48.93104" lon="7.41421">
        <ele>255</ele>
        <time>2021-08-08T08:30:56Z</time>
      </trkpt>
      <trkpt lat="48.93096" lon="7.41399">
        <ele>255</ele>
        <time>2021-08-08T08:30:57Z</time>
      </trkpt>
      <trkpt lat="48.93096" lon="7.41399">
        <ele>254</ele>
        <time>2021-08-08T08:30:58Z</time>
      </trkpt>
      <trkpt lat="48.93086" lon="7.41379">
        <ele>254</ele>
        <time>2021-08-08T08:30:59Z</time>
      </trkpt>
      <trkpt lat="48.9308" lon="7.4137">
        <ele>253</ele>
        <time>2021-08-08T08:31:00Z</time>
      </trkpt>
      <trkpt lat="48.93073" lon="7.4136">
        <ele>253</ele>
        <time>2021-08-08T08:31:01Z</time>
      </trkpt>
      <trkpt lat="48.93073" lon="7.4136">
        <ele>251</ele>
        <time>2021-08-08T08:31:02Z</time>
      </trkpt>
      <trkpt lat="48.9306" lon="7.41342">
        <ele>251</ele>
        <time>2021-08-08T08:31:03Z</time>
      </trkpt>
      <trkpt lat="48.9306" lon="7.41342">
        <ele>250</ele>
        <time>2021-08-08T08:31:04Z</time>
      </trkpt>
      <trkpt lat="48.93045" lon="7.41323">
        <ele>250</ele>
        <time>2021-08-08T08:31:05Z</time>
      </trkpt>
      <trkpt lat="48.93038" lon="7.41312">
        <ele>249</ele>
        <time>2021-08-08T08:31:06Z</time>
      </trkpt>
      <trkpt lat="48.93038" lon="7.41312">
        <ele>249</ele>
        <time>2021-08-08T08:31:07Z</time>
      </trkpt>
      <trkpt lat="48.93025" lon="7.41292">
        <ele>248</ele>
        <time>2021-08-08T08:31:08Z</time>
      </trkpt>
      <trkpt lat="48.93018" lon="7.41283">
        <ele>248</ele>
        <time>2021-08-08T08:31:09Z</time>
      </trkpt>
      <trkpt lat="48.93018" lon="7.41283">
        <ele>247</ele>
        <time>2021-08-08T08:31:10Z</time>
      </trkpt>
      <trkpt lat="48.93004" lon="7.41264">
        <ele>247</ele>
        <time>2021-08-08T08:31:11Z</time>
      </trkpt>
      <trkpt lat="48.92997" lon="7.41257">
        <ele>246</ele>
        <time>2021-08-08T08:31:12Z</time>
      </trkpt>
      <trkpt lat="48.92989" lon="7.41248">
        <ele>246</ele>
        <time>2021-08-08T08:31:13Z</time>
      </trkpt>
      <trkpt lat="48.92989" lon="7.41248">
        <ele>245</ele>
        <time>2021-08-08T08:31:14Z</time>
      </trkpt>
      <trkpt lat="48.92974" lon="7.41233">
        <ele>245</ele>
        <time>2021-08-08T08:31:15Z</time>
      </trkpt>
      <trkpt lat="48.92974" lon="7.41233">
        <ele>244</ele>
        <time>2021-08-08T08:31:16Z</time>
      </trkpt>
      <trkpt lat="48.92958" lon="7.41221">
        <ele>244</ele>
        <time>2021-08-08T08:31:17Z</time>
      </trkpt>
      <trkpt lat="48.92951" lon="7.41217">
        <ele>244</ele>
        <time>2021-08-08T08:31:18Z</time>
      </trkpt>
      <trkpt lat="48.92951" lon="7.41217">
        <ele>243</ele>
        <time>2021-08-08T08:31:19Z</time>
      </trkpt>
      <trkpt lat="48.92938" lon="7.41212">
        <ele>243</ele>
        <time>2021-08-08T08:31:20Z</time>
      </trkpt>
      <trkpt lat="48.92929" lon="7.41214">
        <ele>243</ele>
        <time>2021-08-08T08:31:21Z</time>
      </trkpt>
      <trkpt lat="48.92929" lon="7.41214">
        <ele>243</ele>
        <time>2021-08-08T08:31:22Z</time>
      </trkpt>
      <trkpt lat="48.92915" lon="7.41218">
        <ele>242</ele>
        <time>2021-08-08T08:31:23Z</time>
      </trkpt>
      <trkpt lat="48.92915" lon="7.41218">
        <ele>242</ele>
        <time>2021-08-08T08:31:24Z</time>
      </trkpt>
      <trkpt lat="48.92901" lon="7.41224">
        <ele>241</ele>
        <time>2021-08-08T08:31:25Z</time>
      </trkpt>
      <trkpt lat="48.92901" lon="7.41224">
        <ele>241</ele>
        <time>2021-08-08T08:31:26Z</time>
      </trkpt>
      <trkpt lat="48.92885" lon="7.41228">
        <ele>241</ele>
        <time>2021-08-08T08:31:27Z</time>
      </trkpt>
      <trkpt lat="48.92885" lon="7.41228">
        <ele>241</ele>
        <time>2021-08-08T08:31:28Z</time>
      </trkpt>
      <trkpt lat="48.92871" lon="7.41234">
        <ele>240</ele>
        <time>2021-08-08T08:31:29Z</time>
      </trkpt>
      <trkpt lat="48.92871" lon="7.41234">
        <ele>240</ele>
        <time>2021-08-08T08:31:30Z</time>
      </trkpt>
      <trkpt lat="48.92856" lon="7.41238">
        <ele>240</ele>
        <time>2021-08-08T08:31:31Z</time>
      </trkpt>
      <trkpt lat="48.92856" lon="7.41238">
        <ele>240</ele>
        <time>2021-08-08T08:31:32Z</time>
      </trkpt>
      <trkpt lat="48.92844" lon="7.41243">
        <ele>239</ele>
        <time>2021-08-08T08:31:33Z</time>
      </trkpt>
      <trkpt lat="48.92844" lon="7.41243">
        <ele>239</ele>
        <time>2021-08-08T08:31:34Z</time>
      </trkpt>
      <trkpt lat="48.92831" lon="7.41247">
        <ele>239</ele>
        <time>2021-08-08T08:31:35Z</time>
      </trkpt>
      <trkpt lat="48.92831" lon="7.41247">
        <ele>239</ele>
        <time>2021-08-08T08:31:36Z</time>
      </trkpt>
      <trkpt lat="48.92818" lon="7.41251">
        <ele>238</ele>
        <time>2021-08-08T08:31:37Z</time>
      </trkpt>
      <trkpt lat="48.92818" lon="7.41251">
        <ele>238</ele>
        <time>2021-08-08T08:31:38Z</time>
      </trkpt>
      <trkpt lat="48.92805" lon="7.41254">
        <ele>238</ele>
        <time>2021-08-08T08:31:39Z</time>
      </trkpt>
      <trkpt lat="48.92805" lon="7.41254">
        <ele>238</ele>
        <time>2021-08-08T08:31:40Z</time>
      </trkpt>
      <trkpt lat="48.92793" lon="7.41256">
        <ele>238</ele>
        <time>2021-08-08T08:31:41Z</time>
      </trkpt>
      <trkpt lat="48.92793" lon="7.41256">
        <ele>238</ele>
        <time>2021-08-08T08:31:42Z</time>
      </trkpt>
      <trkpt lat="48.92779" lon="7.41259">
        <ele>237</ele>
        <time>2021-08-08T08:31:43Z</time>
      </trkpt>
      <trkpt lat="48.92779" lon="7.41259">
        <ele>237</ele>
        <time>2021-08-08T08:31:44Z</time>
      </trkpt>
      <trkpt lat="48.92767" lon="7.41262">
        <ele>237</ele>
        <time>2021-08-08T08:31:45Z</time>
      </trkpt>
      <trkpt lat="48.92767" lon="7.41262">
        <ele>237</ele>
        <time>2021-08-08T08:31:46Z</time>
      </trkpt>
      <trkpt lat="48.92756" lon="7.41264">
        <ele>237</ele>
        <time>2021-08-08T08:31:47Z</time>
      </trkpt>
      <trkpt lat="48.92751" lon="7.41265">
        <ele>237</ele>
        <time>2021-08-08T08:31:48Z</time>
      </trkpt>
      <trkpt lat="48.92751" lon="7.41265">
        <ele>237</ele>
        <time>2021-08-08T08:31:49Z</time>
      </trkpt>
      <trkpt lat="48.92739" lon="7.41267">
        <ele>237</ele>
        <time>2021-08-08T08:31:50Z</time>
      </trkpt>
      <trkpt lat="48.92733" lon="7.41267">
        <ele>237</ele>
        <time>2021-08-08T08:31:51Z</time>
      </trkpt>
      <trkpt lat="48.92733" lon="7.41267">
        <ele>237</ele>
        <time>2021-08-08T08:31:52Z</time>
      </trkpt>
      <trkpt lat="48.92723" lon="7.41266">
        <ele>237</ele>
        <time>2021-08-08T08:31:53Z</time>
      </trkpt>
      <trkpt lat="48.92723" lon="7.41266">
        <ele>237</ele>
        <time>2021-08-08T08:31:54Z</time>
      </trkpt>
      <trkpt lat="48.92712" lon="7.41265">
        <ele>237</ele>
        <time>2021-08-08T08:31:55Z</time>
      </trkpt>
      <trkpt lat="48.92712" lon="7.41265">
        <ele>237</ele>
        <time>2021-08-08T08:31:56Z</time>
      </trkpt>
      <trkpt lat="48.92702" lon="7.41262">
        <ele>237</ele>
        <time>2021-08-08T08:31:57Z</time>
      </trkpt>
      <trkpt lat="48.92702" lon="7.41262">
        <ele>237</ele>
        <time>2021-08-08T08:31:58Z</time>
      </trkpt>
      <trkpt lat="48.92692" lon="7.41257">
        <ele>237</ele>
        <time>2021-08-08T08:31:59Z</time>
      </trkpt>
      <trkpt lat="48.92692" lon="7.41257">
        <ele>237</ele>
        <time>2021-08-08T08:32:00Z</time>
      </trkpt>
      <trkpt lat="48.92682" lon="7.41251">
        <ele>237</ele>
        <time>2021-08-08T08:32:01Z</time>
      </trkpt>
      <trkpt lat="48.92682" lon="7.41251">
        <ele>237</ele>
        <time>2021-08-08T08:32:02Z</time>
      </trkpt>
      <trkpt lat="48.92672" lon="7.41247">
        <ele>237</ele>
        <time>2021-08-08T08:32:03Z</time>
      </trkpt>
      <trkpt lat="48.92672" lon="7.41247">
        <ele>235</ele>
        <time>2021-08-08T08:32:04Z</time>
      </trkpt>
      <trkpt lat="48.9266" lon="7.4125">
        <ele>235</ele>
        <time>2021-08-08T08:32:05Z</time>
      </trkpt>
      <trkpt lat="48.92655" lon="7.41255">
        <ele>235</ele>
        <time>2021-08-08T08:32:06Z</time>
      </trkpt>
      <trkpt lat="48.9265" lon="7.41261">
        <ele>235</ele>
        <time>2021-08-08T08:32:07Z</time>
      </trkpt>
      <trkpt lat="48.9265" lon="7.41261">
        <ele>235</ele>
        <time>2021-08-08T08:32:08Z</time>
      </trkpt>
      <trkpt lat="48.92648" lon="7.41276">
        <ele>235</ele>
        <time>2021-08-08T08:32:09Z</time>
      </trkpt>
      <trkpt lat="48.92648" lon="7.41276">
        <ele>235</ele>
        <time>2021-08-08T08:32:10Z</time>
      </trkpt>
      <trkpt lat="48.92648" lon="7.41292">
        <ele>235</ele>
        <time>2021-08-08T08:32:11Z</time>
      </trkpt>
      <trkpt lat="48.92648" lon="7.41292">
        <ele>235</ele>
        <time>2021-08-08T08:32:12Z</time>
      </trkpt>
      <trkpt lat="48.92648" lon="7.41307">
        <ele>234</ele>
        <time>2021-08-08T08:32:13Z</time>
      </trkpt>
      <trkpt lat="48.92648" lon="7.41307">
        <ele>234</ele>
        <time>2021-08-08T08:32:14Z</time>
      </trkpt>
      <trkpt lat="48.92643" lon="7.41321">
        <ele>233</ele>
        <time>2021-08-08T08:32:15Z</time>
      </trkpt>
      <trkpt lat="48.92638" lon="7.41327">
        <ele>233</ele>
        <time>2021-08-08T08:32:16Z</time>
      </trkpt>
      <trkpt lat="48.92632" lon="7.41335">
        <ele>232</ele>
        <time>2021-08-08T08:32:17Z</time>
      </trkpt>
      <trkpt lat="48.92632" lon="7.41335">
        <ele>232</ele>
        <time>2021-08-08T08:32:18Z</time>
      </trkpt>
      <trkpt lat="48.92619" lon="7.41348">
        <ele>231</ele>
        <time>2021-08-08T08:32:19Z</time>
      </trkpt>
      <trkpt lat="48.92613" lon="7.41353">
        <ele>231</ele>
        <time>2021-08-08T08:32:20Z</time>
      </trkpt>
      <trkpt lat="48.92605" lon="7.41358">
        <ele>230</ele>
        <time>2021-08-08T08:32:21Z</time>
      </trkpt>
      <trkpt lat="48.92605" lon="7.41358">
        <ele>230</ele>
        <time>2021-08-08T08:32:22Z</time>
      </trkpt>
      <trkpt lat="48.9259" lon="7.41368">
        <ele>229</ele>
        <time>2021-08-08T08:32:23Z</time>
      </trkpt>
      <trkpt lat="48.9259" lon="7.41368">
        <ele>229</ele>
        <time>2021-08-08T08:32:24Z</time>
      </trkpt>
      <trkpt lat="48.92573" lon="7.41373">
        <ele>227</ele>
        <time>2021-08-08T08:32:25Z</time>
      </trkpt>
      <trkpt lat="48.92573" lon="7.41373">
        <ele>227</ele>
        <time>2021-08-08T08:32:26Z</time>
      </trkpt>
      <trkpt lat="48.92555" lon="7.4138">
        <ele>226</ele>
        <time>2021-08-08T08:32:27Z</time>
      </trkpt>
      <trkpt lat="48.92555" lon="7.4138">
        <ele>226</ele>
        <time>2021-08-08T08:32:28Z</time>
      </trkpt>
      <trkpt lat="48.9254" lon="7.41388">
        <ele>224</ele>
        <time>2021-08-08T08:32:29Z</time>
      </trkpt>
      <trkpt lat="48.9254" lon="7.41388">
        <ele>224</ele>
        <time>2021-08-08T08:32:30Z</time>
      </trkpt>
      <trkpt lat="48.92526" lon="7.41398">
        <ele>223</ele>
        <time>2021-08-08T08:32:31Z</time>
      </trkpt>
      <trkpt lat="48.92526" lon="7.41398">
        <ele>223</ele>
        <time>2021-08-08T08:32:32Z</time>
      </trkpt>
      <trkpt lat="48.92511" lon="7.41404">
        <ele>222</ele>
        <time>2021-08-08T08:32:33Z</time>
      </trkpt>
      <trkpt lat="48.92511" lon="7.41404">
        <ele>222</ele>
        <time>2021-08-08T08:32:34Z</time>
      </trkpt>
      <trkpt lat="48.92495" lon="7.41412">
        <ele>221</ele>
        <time>2021-08-08T08:32:35Z</time>
      </trkpt>
      <trkpt lat="48.92488" lon="7.41419">
        <ele>221</ele>
        <time>2021-08-08T08:32:36Z</time>
      </trkpt>
      <trkpt lat="48.92483" lon="7.41426">
        <ele>221</ele>
        <time>2021-08-08T08:32:37Z</time>
      </trkpt>
      <trkpt lat="48.92483" lon="7.41426">
        <ele>221</ele>
        <time>2021-08-08T08:32:38Z</time>
      </trkpt>
      <trkpt lat="48.92474" lon="7.41441">
        <ele>221</ele>
        <time>2021-08-08T08:32:39Z</time>
      </trkpt>
      <trkpt lat="48.92474" lon="7.41441">
        <ele>221</ele>
        <time>2021-08-08T08:32:40Z</time>
      </trkpt>
      <trkpt lat="48.92465" lon="7.41455">
        <ele>219</ele>
        <time>2021-08-08T08:32:41Z</time>
      </trkpt>
      <trkpt lat="48.92465" lon="7.41455">
        <ele>219</ele>
        <time>2021-08-08T08:32:42Z</time>
      </trkpt>
      <trkpt lat="48.92453" lon="7.41465">
        <ele>219</ele>
        <time>2021-08-08T08:32:43Z</time>
      </trkpt>
      <trkpt lat="48.92453" lon="7.41465">
        <ele>219</ele>
        <time>2021-08-08T08:32:44Z</time>
      </trkpt>
      <trkpt lat="48.92441" lon="7.41473">
        <ele>218</ele>
        <time>2021-08-08T08:32:45Z</time>
      </trkpt>
      <trkpt lat="48.92434" lon="7.41475">
        <ele>218</ele>
        <time>2021-08-08T08:32:46Z</time>
      </trkpt>
      <trkpt lat="48.92434" lon="7.41475">
        <ele>217</ele>
        <time>2021-08-08T08:32:47Z</time>
      </trkpt>
      <trkpt lat="48.9242" lon="7.41481">
        <ele>217</ele>
        <time>2021-08-08T08:32:48Z</time>
      </trkpt>
      <trkpt lat="48.92413" lon="7.41483">
        <ele>216</ele>
        <time>2021-08-08T08:32:49Z</time>
      </trkpt>
      <trkpt lat="48.92413" lon="7.41483">
        <ele>216</ele>
        <time>2021-08-08T08:32:50Z</time>
      </trkpt>
      <trkpt lat="48.92399" lon="7.41486">
        <ele>216</ele>
        <time>2021-08-08T08:32:51Z</time>
      </trkpt>
      <trkpt lat="48.92399" lon="7.41486">
        <ele>216</ele>
        <time>2021-08-08T08:32:52Z</time>
      </trkpt>
      <trkpt lat="48.92382" lon="7.41488">
        <ele>215</ele>
        <time>2021-08-08T08:32:53Z</time>
      </trkpt>
      <trkpt lat="48.92382" lon="7.41488">
        <ele>215</ele>
        <time>2021-08-08T08:32:54Z</time>
      </trkpt>
      <trkpt lat="48.92365" lon="7.41491">
        <ele>214</ele>
        <time>2021-08-08T08:32:55Z</time>
      </trkpt>
      <trkpt lat="48.92365" lon="7.41491">
        <ele>214</ele>
        <time>2021-08-08T08:32:56Z</time>
      </trkpt>
      <trkpt lat="48.92348" lon="7.41496">
        <ele>214</ele>
        <time>2021-08-08T08:32:57Z</time>
      </trkpt>
      <trkpt lat="48.92348" lon="7.41496">
        <ele>214</ele>
        <time>2021-08-08T08:32:58Z</time>
      </trkpt>
      <trkpt lat="48.92332" lon="7.41498">
        <ele>213</ele>
        <time>2021-08-08T08:32:59Z</time>
      </trkpt>
      <trkpt lat="48.92332" lon="7.41498">
        <ele>213</ele>
        <time>2021-08-08T08:33:00Z</time>
      </trkpt>
      <trkpt lat="48.92318" lon="7.415">
        <ele>213</ele>
        <time>2021-08-08T08:33:01Z</time>
      </trkpt>
      <trkpt lat="48.92318" lon="7.415">
        <ele>213</ele>
        <time>2021-08-08T08:33:02Z</time>
      </trkpt>
      <trkpt lat="48.92304" lon="7.41502">
        <ele>212</ele>
        <time>2021-08-08T08:33:03Z</time>
      </trkpt>
      <trkpt lat="48.92304" lon="7.41502">
        <ele>212</ele>
        <time>2021-08-08T08:33:04Z</time>
      </trkpt>
      <trkpt lat="48.9229" lon="7.41503">
        <ele>212</ele>
        <time>2021-08-08T08:33:05Z</time>
      </trkpt>
      <trkpt lat="48.92283" lon="7.41505">
        <ele>212</ele>
        <time>2021-08-08T08:33:06Z</time>
      </trkpt>
      <trkpt lat="48.92283" lon="7.41505">
        <ele>211</ele>
        <time>2021-08-08T08:33:07Z</time>
      </trkpt>
      <trkpt lat="48.92271" lon="7.41508">
        <ele>211</ele>
        <time>2021-08-08T08:33:08Z</time>
      </trkpt>
      <trkpt lat="48.92271" lon="7.41508">
        <ele>211</ele>
        <time>2021-08-08T08:33:09Z</time>
      </trkpt>
      <trkpt lat="48.92261" lon="7.41511">
        <ele>211</ele>
        <time>2021-08-08T08:33:10Z</time>
      </trkpt>
      <trkpt lat="48.92261" lon="7.41511">
        <ele>211</ele>
        <time>2021-08-08T08:33:11Z</time>
      </trkpt>
      <trkpt lat="48.92249" lon="7.41516">
        <ele>210</ele>
        <time>2021-08-08T08:33:12Z</time>
      </trkpt>
      <trkpt lat="48.92242" lon="7.4152">
        <ele>210</ele>
        <time>2021-08-08T08:33:13Z</time>
      </trkpt>
      <trkpt lat="48.92242" lon="7.4152">
        <ele>210</ele>
        <time>2021-08-08T08:33:14Z</time>
      </trkpt>
      <trkpt lat="48.9223" lon="7.41527">
        <ele>210</ele>
        <time>2021-08-08T08:33:15Z</time>
      </trkpt>
      <trkpt lat="48.92225" lon="7.41532">
        <ele>210</ele>
        <time>2021-08-08T08:33:16Z</time>
      </trkpt>
      <trkpt lat="48.92219" lon="7.41537">
        <ele>208</ele>
        <time>2021-08-08T08:33:17Z</time>
      </trkpt>
      <trkpt lat="48.92219" lon="7.41537">
        <ele>208</ele>
        <time>2021-08-08T08:33:18Z</time>
      </trkpt>
      <trkpt lat="48.92207" lon="7.41546">
        <ele>208</ele>
        <time>2021-08-08T08:33:19Z</time>
      </trkpt>
      <trkpt lat="48.92207" lon="7.41546">
        <ele>208</ele>
        <time>2021-08-08T08:33:20Z</time>
      </trkpt>
      <trkpt lat="48.92195" lon="7.41554">
        <ele>208</ele>
        <time>2021-08-08T08:33:21Z</time>
      </trkpt>
      <trkpt lat="48.92195" lon="7.41554">
        <ele>208</ele>
        <time>2021-08-08T08:33:22Z</time>
      </trkpt>
      <trkpt lat="48.92181" lon="7.41558">
        <ele>207</ele>
        <time>2021-08-08T08:33:23Z</time>
      </trkpt>
      <trkpt lat="48.92181" lon="7.41558">
        <ele>207</ele>
        <time>2021-08-08T08:33:24Z</time>
      </trkpt>
      <trkpt lat="48.9217" lon="7.4156">
        <ele>207</ele>
        <time>2021-08-08T08:33:25Z</time>
      </trkpt>
      <trkpt lat="48.9217" lon="7.4156">
        <ele>207</ele>
        <time>2021-08-08T08:33:26Z</time>
      </trkpt>
      <trkpt lat="48.92158" lon="7.41559">
        <ele>206</ele>
        <time>2021-08-08T08:33:27Z</time>
      </trkpt>
      <trkpt lat="48.92158" lon="7.41559">
        <ele>206</ele>
        <time>2021-08-08T08:33:28Z</time>
      </trkpt>
      <trkpt lat="48.92146" lon="7.41554">
        <ele>206</ele>
        <time>2021-08-08T08:33:29Z</time>
      </trkpt>
      <trkpt lat="48.92146" lon="7.41554">
        <ele>206</ele>
        <time>2021-08-08T08:33:30Z</time>
      </trkpt>
      <trkpt lat="48.92134" lon="7.4155">
        <ele>205</ele>
        <time>2021-08-08T08:33:31Z</time>
      </trkpt>
      <trkpt lat="48.92134" lon="7.4155">
        <ele>205</ele>
        <time>2021-08-08T08:33:32Z</time>
      </trkpt>
      <trkpt lat="48.92123" lon="7.41544">
        <ele>205</ele>
        <time>2021-08-08T08:33:33Z</time>
      </trkpt>
      <trkpt lat="48.92123" lon="7.41544">
        <ele>205</ele>
        <time>2021-08-08T08:33:34Z</time>
      </trkpt>
      <trkpt lat="48.92111" lon="7.4154">
        <ele>205</ele>
        <time>2021-08-08T08:33:35Z</time>
      </trkpt>
      <trkpt lat="48.92111" lon="7.4154">
        <ele>205</ele>
        <time>2021-08-08T08:33:36Z</time>
      </trkpt>
      <trkpt lat="48.921" lon="7.41536">
        <ele>204</ele>
        <time>2021-08-08T08:33:37Z</time>
      </trkpt>
      <trkpt lat="48.921" lon="7.41536">
        <ele>204</ele>
        <time>2021-08-08T08:33:38Z</time>
      </trkpt>
      <trkpt lat="48.92087" lon="7.41534">
        <ele>204</ele>
        <time>2021-08-08T08:33:39Z</time>
      </trkpt>
      <trkpt lat="48.92087" lon="7.41534">
        <ele>204</ele>
        <time>2021-08-08T08:33:40Z</time>
      </trkpt>
      <trkpt lat="48.92076" lon="7.41535">
        <ele>203</ele>
        <time>2021-08-08T08:33:41Z</time>
      </trkpt>
      <trkpt lat="48.92076" lon="7.41535">
        <ele>203</ele>
        <time>2021-08-08T08:33:42Z</time>
      </trkpt>
      <trkpt lat="48.92064" lon="7.41536">
        <ele>203</ele>
        <time>2021-08-08T08:33:43Z</time>
      </trkpt>
      <trkpt lat="48.92064" lon="7.41536">
        <ele>203</ele>
        <time>2021-08-08T08:33:44Z</time>
      </trkpt>
      <trkpt lat="48.92051" lon="7.41537">
        <ele>203</ele>
        <time>2021-08-08T08:33:45Z</time>
      </trkpt>
      <trkpt lat="48.92051" lon="7.41537">
        <ele>203</ele>
        <time>2021-08-08T08:33:46Z</time>
      </trkpt>
      <trkpt lat="48.92038" lon="7.41537">
        <ele>202</ele>
        <time>2021-08-08T08:33:47Z</time>
      </trkpt>
      <trkpt lat="48.92038" lon="7.41537">
        <ele>202</ele>
        <time>2021-08-08T08:33:48Z</time>
      </trkpt>
      <trkpt lat="48.92027" lon="7.41536">
        <ele>202</ele>
        <time>2021-08-08T08:33:49Z</time>
      </trkpt>
      <trkpt lat="48.92027" lon="7.41536">
        <ele>202</ele>
        <time>2021-08-08T08:33:50Z</time>
      </trkpt>
      <trkpt lat="48.92016" lon="7.4153">
        <ele>202</ele>
        <time>2021-08-08T08:33:51Z</time>
      </trkpt>
      <trkpt lat="48.92016" lon="7.4153">
        <ele>201</ele>
        <time>2021-08-08T08:33:52Z</time>
      </trkpt>
      <trkpt lat="48.92004" lon="7.41522">
        <ele>201</ele>
        <time>2021-08-08T08:33:53Z</time>
      </trkpt>
      <trkpt lat="48.91997" lon="7.41519">
        <ele>201</ele>
        <time>2021-08-08T08:33:54Z</time>
      </trkpt>
      <trkpt lat="48.91997" lon="7.41519">
        <ele>201</ele>
        <time>2021-08-08T08:33:55Z</time>
      </trkpt>
      <trkpt lat="48.91986" lon="7.41508">
        <ele>200</ele>
        <time>2021-08-08T08:33:56Z</time>
      </trkpt>
      <trkpt lat="48.9198" lon="7.41503">
        <ele>200</ele>
        <time>2021-08-08T08:33:57Z</time>
      </trkpt>
      <trkpt lat="48.9198" lon="7.41503">
        <ele>200</ele>
        <time>2021-08-08T08:33:58Z</time>
      </trkpt>
      <trkpt lat="48.91969" lon="7.41496">
        <ele>200</ele>
        <time>2021-08-08T08:33:59Z</time>
      </trkpt>
      <trkpt lat="48.91969" lon="7.41496">
        <ele>200</ele>
        <time>2021-08-08T08:34:00Z</time>
      </trkpt>
      <trkpt lat="48.91956" lon="7.41491">
        <ele>200</ele>
        <time>2021-08-08T08:34:01Z</time>
      </trkpt>
      <trkpt lat="48.91956" lon="7.41491">
        <ele>200</ele>
        <time>2021-08-08T08:34:02Z</time>
      </trkpt>
      <trkpt lat="48.91944" lon="7.41486">
        <ele>200</ele>
        <time>2021-08-08T08:34:03Z</time>
      </trkpt>
      <trkpt lat="48.91944" lon="7.41486">
        <ele>200</ele>
        <time>2021-08-08T08:34:04Z</time>
      </trkpt>
      <trkpt lat="48.91934" lon="7.41481">
        <ele>200</ele>
        <time>2021-08-08T08:34:05Z</time>
      </trkpt>
      <trkpt lat="48.91934" lon="7.41481">
        <ele>200</ele>
        <time>2021-08-08T08:34:06Z</time>
      </trkpt>
      <trkpt lat="48.91925" lon="7.41477">
        <ele>200</ele>
        <time>2021-08-08T08:34:07Z</time>
      </trkpt>
      <trkpt lat="48.91925" lon="7.41477">
        <ele>200</ele>
        <time>2021-08-08T08:34:08Z</time>
      </trkpt>
      <trkpt lat="48.91912" lon="7.41477">
        <ele>200</ele>
        <time>2021-08-08T08:34:09Z</time>
      </trkpt>
      <trkpt lat="48.91912" lon="7.41477">
        <ele>200</ele>
        <time>2021-08-08T08:34:10Z</time>
      </trkpt>
      <trkpt lat="48.919" lon="7.41479">
        <ele>199</ele>
        <time>2021-08-08T08:34:11Z</time>
      </trkpt>
      <trkpt lat="48.919" lon="7.41479">
        <ele>199</ele>
        <time>2021-08-08T08:34:12Z</time>
      </trkpt>
      <trkpt lat="48.91888" lon="7.41483">
        <ele>199</ele>
        <time>2021-08-08T08:34:13Z</time>
      </trkpt>
      <trkpt lat="48.91888" lon="7.41483">
        <ele>199</ele>
        <time>2021-08-08T08:34:14Z</time>
      </trkpt>
      <trkpt lat="48.91875" lon="7.41486">
        <ele>199</ele>
        <time>2021-08-08T08:34:15Z</time>
      </trkpt>
      <trkpt lat="48.91875" lon="7.41486">
        <ele>199</ele>
        <time>2021-08-08T08:34:16Z</time>
      </trkpt>
      <trkpt lat="48.91863" lon="7.41489">
        <ele>199</ele>
        <time>2021-08-08T08:34:17Z</time>
      </trkpt>
      <trkpt lat="48.91863" lon="7.41489">
        <ele>199</ele>
        <time>2021-08-08T08:34:18Z</time>
      </trkpt>
      <trkpt lat="48.91851" lon="7.41491">
        <ele>199</ele>
        <time>2021-08-08T08:34:19Z</time>
      </trkpt>
      <trkpt lat="48.91851" lon="7.41491">
        <ele>199</ele>
        <time>2021-08-08T08:34:20Z</time>
      </trkpt>
      <trkpt lat="48.91842" lon="7.41491">
        <ele>199</ele>
        <time>2021-08-08T08:34:21Z</time>
      </trkpt>
      <trkpt lat="48.91842" lon="7.41491">
        <ele>199</ele>
        <time>2021-08-08T08:34:22Z</time>
      </trkpt>
      <trkpt lat="48.91831" lon="7.41492">
        <ele>199</ele>
        <time>2021-08-08T08:34:23Z</time>
      </trkpt>
      <trkpt lat="48.91826" lon="7.41493">
        <ele>199</ele>
        <time>2021-08-08T08:34:24Z</time>
      </trkpt>
      <trkpt lat="48.9182" lon="7.41494">
        <ele>199</ele>
        <time>2021-08-08T08:34:25Z</time>
      </trkpt>
      <trkpt lat="48.9182" lon="7.41494">
        <ele>199</ele>
        <time>2021-08-08T08:34:26Z</time>
      </trkpt>
      <trkpt lat="48.9181" lon="7.41493">
        <ele>199</ele>
        <time>2021-08-08T08:34:27Z</time>
      </trkpt>
      <trkpt lat="48.9181" lon="7.41493">
        <ele>199</ele>
        <time>2021-08-08T08:34:28Z</time>
      </trkpt>
      <trkpt lat="48.918" lon="7.41491">
        <ele>199</ele>
        <time>2021-08-08T08:34:29Z</time>
      </trkpt>
      <trkpt lat="48.918" lon="7.41491">
        <ele>199</ele>
        <time>2021-08-08T08:34:30Z</time>
      </trkpt>
      <trkpt lat="48.91792" lon="7.41489">
        <ele>199</ele>
        <time>2021-08-08T08:34:31Z</time>
      </trkpt>
      <trkpt lat="48.91787" lon="7.41487">
        <ele>199</ele>
        <time>2021-08-08T08:34:32Z</time>
      </trkpt>
      <trkpt lat="48.91787" lon="7.41487">
        <ele>198</ele>
        <time>2021-08-08T08:34:33Z</time>
      </trkpt>
      <trkpt lat="48.91778" lon="7.41483">
        <ele>198</ele>
        <time>2021-08-08T08:34:34Z</time>
      </trkpt>
      <trkpt lat="48.91778" lon="7.41483">
        <ele>198</ele>
        <time>2021-08-08T08:34:35Z</time>
      </trkpt>
      <trkpt lat="48.91766" lon="7.41475">
        <ele>198</ele>
        <time>2021-08-08T08:34:36Z</time>
      </trkpt>
      <trkpt lat="48.9176" lon="7.4147">
        <ele>198</ele>
        <time>2021-08-08T08:34:37Z</time>
      </trkpt>
      <trkpt lat="48.9176" lon="7.4147">
        <ele>198</ele>
        <time>2021-08-08T08:34:38Z</time>
      </trkpt>
      <trkpt lat="48.9175" lon="7.41463">
        <ele>197</ele>
        <time>2021-08-08T08:34:39Z</time>
      </trkpt>
      <trkpt lat="48.9175" lon="7.41463">
        <ele>197</ele>
        <time>2021-08-08T08:34:40Z</time>
      </trkpt>
      <trkpt lat="48.9174" lon="7.41459">
        <ele>197</ele>
        <time>2021-08-08T08:34:41Z</time>
      </trkpt>
      <trkpt lat="48.91735" lon="7.41457">
        <ele>197</ele>
        <time>2021-08-08T08:34:42Z</time>
      </trkpt>
      <trkpt lat="48.91735" lon="7.41457">
        <ele>197</ele>
        <time>2021-08-08T08:34:43Z</time>
      </trkpt>
      <trkpt lat="48.91723" lon="7.41454">
        <ele>197</ele>
        <time>2021-08-08T08:34:44Z</time>
      </trkpt>
      <trkpt lat="48.91717" lon="7.41453">
        <ele>197</ele>
        <time>2021-08-08T08:34:45Z</time>
      </trkpt>
      <trkpt lat="48.91717" lon="7.41453">
        <ele>197</ele>
        <time>2021-08-08T08:34:46Z</time>
      </trkpt>
      <trkpt lat="48.91707" lon="7.41451">
        <ele>197</ele>
        <time>2021-08-08T08:34:47Z</time>
      </trkpt>
      <trkpt lat="48.91707" lon="7.41451">
        <ele>197</ele>
        <time>2021-08-08T08:34:48Z</time>
      </trkpt>
      <trkpt lat="48.91696" lon="7.41451">
        <ele>197</ele>
        <time>2021-08-08T08:34:49Z</time>
      </trkpt>
      <trkpt lat="48.91691" lon="7.41452">
        <ele>197</ele>
        <time>2021-08-08T08:34:50Z</time>
      </trkpt>
      <trkpt lat="48.91691" lon="7.41452">
        <ele>197</ele>
        <time>2021-08-08T08:34:51Z</time>
      </trkpt>
      <trkpt lat="48.9168" lon="7.41454">
        <ele>197</ele>
        <time>2021-08-08T08:34:52Z</time>
      </trkpt>
      <trkpt lat="48.9168" lon="7.41454">
        <ele>197</ele>
        <time>2021-08-08T08:34:53Z</time>
      </trkpt>
      <trkpt lat="48.91669" lon="7.41457">
        <ele>197</ele>
        <time>2021-08-08T08:34:54Z</time>
      </trkpt>
      <trkpt lat="48.91663" lon="7.41459">
        <ele>197</ele>
        <time>2021-08-08T08:34:55Z</time>
      </trkpt>
      <trkpt lat="48.91663" lon="7.41459">
        <ele>197</ele>
        <time>2021-08-08T08:34:56Z</time>
      </trkpt>
      <trkpt lat="48.9165" lon="7.41464">
        <ele>197</ele>
        <time>2021-08-08T08:34:57Z</time>
      </trkpt>
      <trkpt lat="48.9165" lon="7.41464">
        <ele>197</ele>
        <time>2021-08-08T08:34:58Z</time>
      </trkpt>
      <trkpt lat="48.91639" lon="7.4147">
        <ele>196</ele>
        <time>2021-08-08T08:34:59Z</time>
      </trkpt>
      <trkpt lat="48.91639" lon="7.4147">
        <ele>196</ele>
        <time>2021-08-08T08:35:00Z</time>
      </trkpt>
      <trkpt lat="48.91629" lon="7.41474">
        <ele>196</ele>
        <time>2021-08-08T08:35:01Z</time>
      </trkpt>
      <trkpt lat="48.91629" lon="7.41474">
        <ele>196</ele>
        <time>2021-08-08T08:35:02Z</time>
      </trkpt>
      <trkpt lat="48.91618" lon="7.41475">
        <ele>196</ele>
        <time>2021-08-08T08:35:03Z</time>
      </trkpt>
      <trkpt lat="48.91613" lon="7.41476">
        <ele>196</ele>
        <time>2021-08-08T08:35:04Z</time>
      </trkpt>
      <trkpt lat="48.91613" lon="7.41476">
        <ele>196</ele>
        <time>2021-08-08T08:35:05Z</time>
      </trkpt>
      <trkpt lat="48.91603" lon="7.41473">
        <ele>196</ele>
        <time>2021-08-08T08:35:06Z</time>
      </trkpt>
      <trkpt lat="48.91599" lon="7.41469">
        <ele>196</ele>
        <time>2021-08-08T08:35:07Z</time>
      </trkpt>
      <trkpt lat="48.91599" lon="7.41469">
        <ele>196</ele>
        <time>2021-08-08T08:35:08Z</time>
      </trkpt>
      <trkpt lat="48.91592" lon="7.41459">
        <ele>196</ele>
        <time>2021-08-08T08:35:09Z</time>
      </trkpt>
      <trkpt lat="48.91588" lon="7.41454">
        <ele>196</ele>
        <time>2021-08-08T08:35:10Z</time>
      </trkpt>
      <trkpt lat="48.91588" lon="7.41454">
        <ele>196</ele>
        <time>2021-08-08T08:35:11Z</time>
      </trkpt>
      <trkpt lat="48.9158" lon="7.41443">
        <ele>195</ele>
        <time>2021-08-08T08:35:12Z</time>
      </trkpt>
      <trkpt lat="48.91576" lon="7.41437">
        <ele>195</ele>
        <time>2021-08-08T08:35:13Z</time>
      </trkpt>
      <trkpt lat="48.91576" lon="7.41437">
        <ele>195</ele>
        <time>2021-08-08T08:35:14Z</time>
      </trkpt>
      <trkpt lat="48.91569" lon="7.41428">
        <ele>195</ele>
        <time>2021-08-08T08:35:15Z</time>
      </trkpt>
      <trkpt lat="48.91566" lon="7.41424">
        <ele>195</ele>
        <time>2021-08-08T08:35:16Z</time>
      </trkpt>
      <trkpt lat="48.91566" lon="7.41424">
        <ele>195</ele>
        <time>2021-08-08T08:35:17Z</time>
      </trkpt>
      <trkpt lat="48.91558" lon="7.41414">
        <ele>195</ele>
        <time>2021-08-08T08:35:18Z</time>
      </trkpt>
      <trkpt lat="48.91555" lon="7.41409">
        <ele>195</ele>
        <time>2021-08-08T08:35:19Z</time>
      </trkpt>
      <trkpt lat="48.91555" lon="7.41409">
        <ele>195</ele>
        <time>2021-08-08T08:35:20Z</time>
      </trkpt>
      <trkpt lat="48.91548" lon="7.41399">
        <ele>195</ele>
        <time>2021-08-08T08:35:21Z</time>
      </trkpt>
      <trkpt lat="48.91548" lon="7.41399">
        <ele>195</ele>
        <time>2021-08-08T08:35:22Z</time>
      </trkpt>
      <trkpt lat="48.91541" lon="7.41387">
        <ele>195</ele>
        <time>2021-08-08T08:35:23Z</time>
      </trkpt>
      <trkpt lat="48.91541" lon="7.41387">
        <ele>195</ele>
        <time>2021-08-08T08:35:24Z</time>
      </trkpt>
      <trkpt lat="48.91534" lon="7.41373">
        <ele>195</ele>
        <time>2021-08-08T08:35:25Z</time>
      </trkpt>
      <trkpt lat="48.91534" lon="7.41373">
        <ele>195</ele>
        <time>2021-08-08T08:35:26Z</time>
      </trkpt>
      <trkpt lat="48.91526" lon="7.41357">
        <ele>195</ele>
        <time>2021-08-08T08:35:27Z</time>
      </trkpt>
      <trkpt lat="48.91526" lon="7.41357">
        <ele>195</ele>
        <time>2021-08-08T08:35:28Z</time>
      </trkpt>
      <trkpt lat="48.9152" lon="7.4134">
        <ele>195</ele>
        <time>2021-08-08T08:35:29Z</time>
      </trkpt>
      <trkpt lat="48.9152" lon="7.4134">
        <ele>195</ele>
        <time>2021-08-08T08:35:30Z</time>
      </trkpt>
      <trkpt lat="48.91516" lon="7.41325">
        <ele>195</ele>
        <time>2021-08-08T08:35:31Z</time>
      </trkpt>
      <trkpt lat="48.91516" lon="7.41325">
        <ele>194</ele>
        <time>2021-08-08T08:35:32Z</time>
      </trkpt>
      <trkpt lat="48.91513" lon="7.4131">
        <ele>194</ele>
        <time>2021-08-08T08:35:33Z</time>
      </trkpt>
      <trkpt lat="48.91513" lon="7.4131">
        <ele>194</ele>
        <time>2021-08-08T08:35:34Z</time>
      </trkpt>
      <trkpt lat="48.9151" lon="7.41298">
        <ele>194</ele>
        <time>2021-08-08T08:35:35Z</time>
      </trkpt>
      <trkpt lat="48.9151" lon="7.41298">
        <ele>194</ele>
        <time>2021-08-08T08:35:36Z</time>
      </trkpt>
      <trkpt lat="48.91507" lon="7.41283">
        <ele>194</ele>
        <time>2021-08-08T08:35:37Z</time>
      </trkpt>
      <trkpt lat="48.91507" lon="7.41283">
        <ele>193</ele>
        <time>2021-08-08T08:35:38Z</time>
      </trkpt>
      <trkpt lat="48.91504" lon="7.41271">
        <ele>193</ele>
        <time>2021-08-08T08:35:39Z</time>
      </trkpt>
      <trkpt lat="48.91504" lon="7.41271">
        <ele>193</ele>
        <time>2021-08-08T08:35:40Z</time>
      </trkpt>
      <trkpt lat="48.91495" lon="7.41266">
        <ele>193</ele>
        <time>2021-08-08T08:35:41Z</time>
      </trkpt>
      <trkpt lat="48.91495" lon="7.41266">
        <ele>192</ele>
        <time>2021-08-08T08:35:42Z</time>
      </trkpt>
      <trkpt lat="48.91487" lon="7.41262">
        <ele>192</ele>
        <time>2021-08-08T08:35:43Z</time>
      </trkpt>
      <trkpt lat="48.91487" lon="7.41262">
        <ele>192</ele>
        <time>2021-08-08T08:35:44Z</time>
      </trkpt>
      <trkpt lat="48.9148" lon="7.41254">
        <ele>192</ele>
        <time>2021-08-08T08:35:45Z</time>
      </trkpt>
      <trkpt lat="48.9148" lon="7.41254">
        <ele>191</ele>
        <time>2021-08-08T08:35:46Z</time>
      </trkpt>
      <trkpt lat="48.91472" lon="7.41247">
        <ele>191</ele>
        <time>2021-08-08T08:35:47Z</time>
      </trkpt>
      <trkpt lat="48.91472" lon="7.41247">
        <ele>191</ele>
        <time>2021-08-08T08:35:48Z</time>
      </trkpt>
      <trkpt lat="48.91465" lon="7.41238">
        <ele>191</ele>
        <time>2021-08-08T08:35:49Z</time>
      </trkpt>
      <trkpt lat="48.91465" lon="7.41238">
        <ele>191</ele>
        <time>2021-08-08T08:35:50Z</time>
      </trkpt>
      <trkpt lat="48.91459" lon="7.41228">
        <ele>191</ele>
        <time>2021-08-08T08:35:51Z</time>
      </trkpt>
      <trkpt lat="48.91459" lon="7.41228">
        <ele>191</ele>
        <time>2021-08-08T08:35:52Z</time>
      </trkpt>
      <trkpt lat="48.91452" lon="7.41217">
        <ele>191</ele>
        <time>2021-08-08T08:35:53Z</time>
      </trkpt>
      <trkpt lat="48.91449" lon="7.41211">
        <ele>191</ele>
        <time>2021-08-08T08:35:54Z</time>
      </trkpt>
      <trkpt lat="48.91449" lon="7.41211">
        <ele>191</ele>
        <time>2021-08-08T08:35:55Z</time>
      </trkpt>
      <trkpt lat="48.91444" lon="7.412">
        <ele>191</ele>
        <time>2021-08-08T08:35:56Z</time>
      </trkpt>
      <trkpt lat="48.91441" lon="7.41197">
        <ele>191</ele>
        <time>2021-08-08T08:35:57Z</time>
      </trkpt>
      <trkpt lat="48.91441" lon="7.41197">
        <ele>191</ele>
        <time>2021-08-08T08:35:58Z</time>
      </trkpt>
      <trkpt lat="48.91435" lon="7.41193">
        <ele>191</ele>
        <time>2021-08-08T08:35:59Z</time>
      </trkpt>
      <trkpt lat="48.91435" lon="7.41193">
        <ele>191</ele>
        <time>2021-08-08T08:36:00Z</time>
      </trkpt>
      <trkpt lat="48.91427" lon="7.41193">
        <ele>191</ele>
        <time>2021-08-08T08:36:01Z</time>
      </trkpt>
      <trkpt lat="48.91427" lon="7.41193">
        <ele>191</ele>
        <time>2021-08-08T08:36:02Z</time>
      </trkpt>
      <trkpt lat="48.91417" lon="7.41196">
        <ele>191</ele>
        <time>2021-08-08T08:36:03Z</time>
      </trkpt>
      <trkpt lat="48.91417" lon="7.41196">
        <ele>191</ele>
        <time>2021-08-08T08:36:04Z</time>
      </trkpt>
      <trkpt lat="48.91405" lon="7.41199">
        <ele>191</ele>
        <time>2021-08-08T08:36:05Z</time>
      </trkpt>
      <trkpt lat="48.91405" lon="7.41199">
        <ele>191</ele>
        <time>2021-08-08T08:36:06Z</time>
      </trkpt>
      <trkpt lat="48.91394" lon="7.41204">
        <ele>191</ele>
        <time>2021-08-08T08:36:07Z</time>
      </trkpt>
      <trkpt lat="48.91394" lon="7.41204">
        <ele>191</ele>
        <time>2021-08-08T08:36:08Z</time>
      </trkpt>
      <trkpt lat="48.91382" lon="7.41209">
        <ele>191</ele>
        <time>2021-08-08T08:36:09Z</time>
      </trkpt>
      <trkpt lat="48.91382" lon="7.41209">
        <ele>191</ele>
        <time>2021-08-08T08:36:10Z</time>
      </trkpt>
      <trkpt lat="48.9137" lon="7.41214">
        <ele>191</ele>
        <time>2021-08-08T08:36:11Z</time>
      </trkpt>
      <trkpt lat="48.9137" lon="7.41214">
        <ele>191</ele>
        <time>2021-08-08T08:36:12Z</time>
      </trkpt>
      <trkpt lat="48.91358" lon="7.4122">
        <ele>191</ele>
        <time>2021-08-08T08:36:13Z</time>
      </trkpt>
      <trkpt lat="48.91358" lon="7.4122">
        <ele>190</ele>
        <time>2021-08-08T08:36:14Z</time>
      </trkpt>
      <trkpt lat="48.91346" lon="7.41225">
        <ele>190</ele>
        <time>2021-08-08T08:36:15Z</time>
      </trkpt>
      <trkpt lat="48.9134" lon="7.41228">
        <ele>190</ele>
        <time>2021-08-08T08:36:16Z</time>
      </trkpt>
      <trkpt lat="48.91334" lon="7.4123">
        <ele>190</ele>
        <time>2021-08-08T08:36:17Z</time>
      </trkpt>
      <trkpt lat="48.91328" lon="7.41232">
        <ele>190</ele>
        <time>2021-08-08T08:36:18Z</time>
      </trkpt>
      <trkpt lat="48.91328" lon="7.41232">
        <ele>190</ele>
        <time>2021-08-08T08:36:19Z</time>
      </trkpt>
      <trkpt lat="48.91317" lon="7.41232">
        <ele>190</ele>
        <time>2021-08-08T08:36:20Z</time>
      </trkpt>
      <trkpt lat="48.91312" lon="7.4123">
        <ele>190</ele>
        <time>2021-08-08T08:36:21Z</time>
      </trkpt>
      <trkpt lat="48.91312" lon="7.4123">
        <ele>189</ele>
        <time>2021-08-08T08:36:22Z</time>
      </trkpt>
      <trkpt lat="48.91303" lon="7.41225">
        <ele>189</ele>
        <time>2021-08-08T08:36:23Z</time>
      </trkpt>
      <trkpt lat="48.91303" lon="7.41225">
        <ele>189</ele>
        <time>2021-08-08T08:36:24Z</time>
      </trkpt>
      <trkpt lat="48.91294" lon="7.41222">
        <ele>189</ele>
        <time>2021-08-08T08:36:25Z</time>
      </trkpt>
      <trkpt lat="48.91294" lon="7.41222">
        <ele>189</ele>
        <time>2021-08-08T08:36:26Z</time>
      </trkpt>
      <trkpt lat="48.91286" lon="7.41227">
        <ele>189</ele>
        <time>2021-08-08T08:36:27Z</time>
      </trkpt>
      <trkpt lat="48.91286" lon="7.41227">
        <ele>189</ele>
        <time>2021-08-08T08:36:28Z</time>
      </trkpt>
      <trkpt lat="48.91278" lon="7.41238">
        <ele>189</ele>
        <time>2021-08-08T08:36:29Z</time>
      </trkpt>
      <trkpt lat="48.91274" lon="7.41244">
        <ele>189</ele>
        <time>2021-08-08T08:36:30Z</time>
      </trkpt>
      <trkpt lat="48.91271" lon="7.4125">
        <ele>189</ele>
        <time>2021-08-08T08:36:31Z</time>
      </trkpt>
      <trkpt lat="48.91271" lon="7.4125">
        <ele>189</ele>
        <time>2021-08-08T08:36:32Z</time>
      </trkpt>
      <trkpt lat="48.91264" lon="7.41263">
        <ele>189</ele>
        <time>2021-08-08T08:36:33Z</time>
      </trkpt>
      <trkpt lat="48.91264" lon="7.41263">
        <ele>189</ele>
        <time>2021-08-08T08:36:34Z</time>
      </trkpt>
      <trkpt lat="48.91257" lon="7.41277">
        <ele>189</ele>
        <time>2021-08-08T08:36:35Z</time>
      </trkpt>
      <trkpt lat="48.91254" lon="7.41284">
        <ele>189</ele>
        <time>2021-08-08T08:36:36Z</time>
      </trkpt>
      <trkpt lat="48.91254" lon="7.41284">
        <ele>189</ele>
        <time>2021-08-08T08:36:37Z</time>
      </trkpt>
      <trkpt lat="48.91248" lon="7.41298">
        <ele>190</ele>
        <time>2021-08-08T08:36:38Z</time>
      </trkpt>
      <trkpt lat="48.91246" lon="7.41305">
        <ele>190</ele>
        <time>2021-08-08T08:36:39Z</time>
      </trkpt>
      <trkpt lat="48.91246" lon="7.41305">
        <ele>190</ele>
        <time>2021-08-08T08:36:40Z</time>
      </trkpt>
      <trkpt lat="48.91241" lon="7.4132">
        <ele>190</ele>
        <time>2021-08-08T08:36:41Z</time>
      </trkpt>
      <trkpt lat="48.91241" lon="7.4132">
        <ele>190</ele>
        <time>2021-08-08T08:36:42Z</time>
      </trkpt>
      <trkpt lat="48.91235" lon="7.41333">
        <ele>190</ele>
        <time>2021-08-08T08:36:43Z</time>
      </trkpt>
      <trkpt lat="48.91235" lon="7.41333">
        <ele>190</ele>
        <time>2021-08-08T08:36:44Z</time>
      </trkpt>
      <trkpt lat="48.9123" lon="7.41347">
        <ele>190</ele>
        <time>2021-08-08T08:36:45Z</time>
      </trkpt>
      <trkpt lat="48.9123" lon="7.41347">
        <ele>190</ele>
        <time>2021-08-08T08:36:46Z</time>
      </trkpt>
      <trkpt lat="48.91226" lon="7.41361">
        <ele>190</ele>
        <time>2021-08-08T08:36:47Z</time>
      </trkpt>
      <trkpt lat="48.91223" lon="7.41369">
        <ele>190</ele>
        <time>2021-08-08T08:36:48Z</time>
      </trkpt>
      <trkpt lat="48.91221" lon="7.41376">
        <ele>190</ele>
        <time>2021-08-08T08:36:49Z</time>
      </trkpt>
      <trkpt lat="48.91221" lon="7.41376">
        <ele>190</ele>
        <time>2021-08-08T08:36:50Z</time>
      </trkpt>
      <trkpt lat="48.91215" lon="7.4139">
        <ele>190</ele>
        <time>2021-08-08T08:36:51Z</time>
      </trkpt>
      <trkpt lat="48.91215" lon="7.4139">
        <ele>190</ele>
        <time>2021-08-08T08:36:52Z</time>
      </trkpt>
      <trkpt lat="48.91209" lon="7.41404">
        <ele>190</ele>
        <time>2021-08-08T08:36:53Z</time>
      </trkpt>
      <trkpt lat="48.91209" lon="7.41404">
        <ele>190</ele>
        <time>2021-08-08T08:36:54Z</time>
      </trkpt>
      <trkpt lat="48.91204" lon="7.41419">
        <ele>190</ele>
        <time>2021-08-08T08:36:55Z</time>
      </trkpt>
      <trkpt lat="48.91204" lon="7.41419">
        <ele>190</ele>
        <time>2021-08-08T08:36:56Z</time>
      </trkpt>
      <trkpt lat="48.91199" lon="7.41434">
        <ele>190</ele>
        <time>2021-08-08T08:36:57Z</time>
      </trkpt>
      <trkpt lat="48.91199" lon="7.41434">
        <ele>190</ele>
        <time>2021-08-08T08:36:58Z</time>
      </trkpt>
      <trkpt lat="48.91195" lon="7.41448">
        <ele>190</ele>
        <time>2021-08-08T08:36:59Z</time>
      </trkpt>
      <trkpt lat="48.91192" lon="7.41456">
        <ele>190</ele>
        <time>2021-08-08T08:37:00Z</time>
      </trkpt>
      <trkpt lat="48.9119" lon="7.41463">
        <ele>190</ele>
        <time>2021-08-08T08:37:01Z</time>
      </trkpt>
      <trkpt lat="48.9119" lon="7.41463">
        <ele>190</ele>
        <time>2021-08-08T08:37:02Z</time>
      </trkpt>
      <trkpt lat="48.91185" lon="7.41477">
        <ele>190</ele>
        <time>2021-08-08T08:37:03Z</time>
      </trkpt>
      <trkpt lat="48.91185" lon="7.41477">
        <ele>190</ele>
        <time>2021-08-08T08:37:04Z</time>
      </trkpt>
      <trkpt lat="48.9118" lon="7.41491">
        <ele>190</ele>
        <time>2021-08-08T08:37:05Z</time>
      </trkpt>
      <trkpt lat="48.9118" lon="7.41491">
        <ele>189</ele>
        <time>2021-08-08T08:37:06Z</time>
      </trkpt>
      <trkpt lat="48.91176" lon="7.41504">
        <ele>189</ele>
        <time>2021-08-08T08:37:07Z</time>
      </trkpt>
      <trkpt lat="48.91176" lon="7.41504">
        <ele>189</ele>
        <time>2021-08-08T08:37:08Z</time>
      </trkpt>
      <trkpt lat="48.91171" lon="7.41518">
        <ele>189</ele>
        <time>2021-08-08T08:37:09Z</time>
      </trkpt>
      <trkpt lat="48.91171" lon="7.41518">
        <ele>189</ele>
        <time>2021-08-08T08:37:10Z</time>
      </trkpt>
      <trkpt lat="48.91167" lon="7.41532">
        <ele>189</ele>
        <time>2021-08-08T08:37:11Z</time>
      </trkpt>
      <trkpt lat="48.91164" lon="7.41539">
        <ele>189</ele>
        <time>2021-08-08T08:37:12Z</time>
      </trkpt>
      <trkpt lat="48.91164" lon="7.41539">
        <ele>189</ele>
        <time>2021-08-08T08:37:13Z</time>
      </trkpt>
      <trkpt lat="48.91159" lon="7.41552">
        <ele>189</ele>
        <time>2021-08-08T08:37:14Z</time>
      </trkpt>
      <trkpt lat="48.91159" lon="7.41552">
        <ele>189</ele>
        <time>2021-08-08T08:37:15Z</time>
      </trkpt>
      <trkpt lat="48.91154" lon="7.41566">
        <ele>188</ele>
        <time>2021-08-08T08:37:16Z</time>
      </trkpt>
      <trkpt lat="48.91154" lon="7.41566">
        <ele>188</ele>
        <time>2021-08-08T08:37:17Z</time>
      </trkpt>
      <trkpt lat="48.9115" lon="7.4158">
        <ele>188</ele>
        <time>2021-08-08T08:37:18Z</time>
      </trkpt>
      <trkpt lat="48.91148" lon="7.41587">
        <ele>188</ele>
        <time>2021-08-08T08:37:19Z</time>
      </trkpt>
      <trkpt lat="48.91148" lon="7.41587">
        <ele>188</ele>
        <time>2021-08-08T08:37:20Z</time>
      </trkpt>
      <trkpt lat="48.91144" lon="7.41601">
        <ele>188</ele>
        <time>2021-08-08T08:37:21Z</time>
      </trkpt>
      <trkpt lat="48.91144" lon="7.41601">
        <ele>188</ele>
        <time>2021-08-08T08:37:22Z</time>
      </trkpt>
      <trkpt lat="48.91139" lon="7.41616">
        <ele>187</ele>
        <time>2021-08-08T08:37:23Z</time>
      </trkpt>
      <trkpt lat="48.91139" lon="7.41616">
        <ele>187</ele>
        <time>2021-08-08T08:37:24Z</time>
      </trkpt>
      <trkpt lat="48.91135" lon="7.4163">
        <ele>187</ele>
        <time>2021-08-08T08:37:25Z</time>
      </trkpt>
      <trkpt lat="48.91135" lon="7.4163">
        <ele>187</ele>
        <time>2021-08-08T08:37:26Z</time>
      </trkpt>
      <trkpt lat="48.9113" lon="7.41644">
        <ele>187</ele>
        <time>2021-08-08T08:37:27Z</time>
      </trkpt>
      <trkpt lat="48.9113" lon="7.41644">
        <ele>187</ele>
        <time>2021-08-08T08:37:28Z</time>
      </trkpt>
      <trkpt lat="48.91125" lon="7.41658">
        <ele>186</ele>
        <time>2021-08-08T08:37:29Z</time>
      </trkpt>
      <trkpt lat="48.91123" lon="7.41665">
        <ele>186</ele>
        <time>2021-08-08T08:37:30Z</time>
      </trkpt>
      <trkpt lat="48.91123" lon="7.41665">
        <ele>186</ele>
        <time>2021-08-08T08:37:31Z</time>
      </trkpt>
      <trkpt lat="48.91117" lon="7.4168">
        <ele>186</ele>
        <time>2021-08-08T08:37:32Z</time>
      </trkpt>
      <trkpt lat="48.91115" lon="7.41688">
        <ele>186</ele>
        <time>2021-08-08T08:37:33Z</time>
      </trkpt>
      <trkpt lat="48.91115" lon="7.41688">
        <ele>186</ele>
        <time>2021-08-08T08:37:34Z</time>
      </trkpt>
      <trkpt lat="48.9111" lon="7.41704">
        <ele>185</ele>
        <time>2021-08-08T08:37:35Z</time>
      </trkpt>
      <trkpt lat="48.9111" lon="7.41704">
        <ele>185</ele>
        <time>2021-08-08T08:37:36Z</time>
      </trkpt>
      <trkpt lat="48.91104" lon="7.4172">
        <ele>185</ele>
        <time>2021-08-08T08:37:37Z</time>
      </trkpt>
      <trkpt lat="48.91104" lon="7.4172">
        <ele>185</ele>
        <time>2021-08-08T08:37:38Z</time>
      </trkpt>
      <trkpt lat="48.911" lon="7.41736">
        <ele>185</ele>
        <time>2021-08-08T08:37:39Z</time>
      </trkpt>
      <trkpt lat="48.91097" lon="7.41743">
        <ele>185</ele>
        <time>2021-08-08T08:37:40Z</time>
      </trkpt>
      <trkpt lat="48.91097" lon="7.41743">
        <ele>185</ele>
        <time>2021-08-08T08:37:41Z</time>
      </trkpt>
      <trkpt lat="48.91092" lon="7.41758">
        <ele>185</ele>
        <time>2021-08-08T08:37:42Z</time>
      </trkpt>
      <trkpt lat="48.91089" lon="7.41765">
        <ele>185</ele>
        <time>2021-08-08T08:37:43Z</time>
      </trkpt>
      <trkpt lat="48.91089" lon="7.41765">
        <ele>185</ele>
        <time>2021-08-08T08:37:44Z</time>
      </trkpt>
      <trkpt lat="48.91083" lon="7.41774">
        <ele>184</ele>
        <time>2021-08-08T08:37:45Z</time>
      </trkpt>
      <trkpt lat="48.91083" lon="7.41774">
        <ele>184</ele>
        <time>2021-08-08T08:37:46Z</time>
      </trkpt>
      <trkpt lat="48.91075" lon="7.41784">
        <ele>184</ele>
        <time>2021-08-08T08:37:47Z</time>
      </trkpt>
      <trkpt lat="48.91075" lon="7.41784">
        <ele>184</ele>
        <time>2021-08-08T08:37:48Z</time>
      </trkpt>
      <trkpt lat="48.91068" lon="7.41794">
        <ele>184</ele>
        <time>2021-08-08T08:37:49Z</time>
      </trkpt>
      <trkpt lat="48.91064" lon="7.41797">
        <ele>184</ele>
        <time>2021-08-08T08:37:50Z</time>
      </trkpt>
      <trkpt lat="48.9106" lon="7.41798">
        <ele>184</ele>
        <time>2021-08-08T08:37:51Z</time>
      </trkpt>
      <trkpt lat="48.9106" lon="7.41798">
        <ele>184</ele>
        <time>2021-08-08T08:37:52Z</time>
      </trkpt>
      <trkpt lat="48.91052" lon="7.41791">
        <ele>184</ele>
        <time>2021-08-08T08:37:53Z</time>
      </trkpt>
      <trkpt lat="48.91052" lon="7.41791">
        <ele>184</ele>
        <time>2021-08-08T08:37:54Z</time>
      </trkpt>
      <trkpt lat="48.91045" lon="7.41782">
        <ele>184</ele>
        <time>2021-08-08T08:37:55Z</time>
      </trkpt>
      <trkpt lat="48.91045" lon="7.41782">
        <ele>184</ele>
        <time>2021-08-08T08:37:56Z</time>
      </trkpt>
      <trkpt lat="48.91038" lon="7.41774">
        <ele>184</ele>
        <time>2021-08-08T08:37:57Z</time>
      </trkpt>
      <trkpt lat="48.91038" lon="7.41774">
        <ele>184</ele>
        <time>2021-08-08T08:37:58Z</time>
      </trkpt>
      <trkpt lat="48.9103" lon="7.41766">
        <ele>184</ele>
        <time>2021-08-08T08:37:59Z</time>
      </trkpt>
      <trkpt lat="48.9103" lon="7.41766">
        <ele>185</ele>
        <time>2021-08-08T08:38:00Z</time>
      </trkpt>
      <trkpt lat="48.91023" lon="7.4176">
        <ele>185</ele>
        <time>2021-08-08T08:38:01Z</time>
      </trkpt>
      <trkpt lat="48.91023" lon="7.4176">
        <ele>185</ele>
        <time>2021-08-08T08:38:02Z</time>
      </trkpt>
      <trkpt lat="48.91016" lon="7.41754">
        <ele>185</ele>
        <time>2021-08-08T08:38:03Z</time>
      </trkpt>
      <trkpt lat="48.91016" lon="7.41754">
        <ele>185</ele>
        <time>2021-08-08T08:38:04Z</time>
      </trkpt>
      <trkpt lat="48.9101" lon="7.4175">
        <ele>185</ele>
        <time>2021-08-08T08:38:05Z</time>
      </trkpt>
      <trkpt lat="48.91006" lon="7.41748">
        <ele>186</ele>
        <time>2021-08-08T08:38:06Z</time>
      </trkpt>
      <trkpt lat="48.91003" lon="7.41747">
        <ele>186</ele>
        <time>2021-08-08T08:38:07Z</time>
      </trkpt>
      <trkpt lat="48.91003" lon="7.41747">
        <ele>186</ele>
        <time>2021-08-08T08:38:08Z</time>
      </trkpt>
      <trkpt lat="48.90996" lon="7.41743">
        <ele>186</ele>
        <time>2021-08-08T08:38:09Z</time>
      </trkpt>
      <trkpt lat="48.90996" lon="7.41743">
        <ele>186</ele>
        <time>2021-08-08T08:38:10Z</time>
      </trkpt>
      <trkpt lat="48.90989" lon="7.41741">
        <ele>186</ele>
        <time>2021-08-08T08:38:11Z</time>
      </trkpt>
      <trkpt lat="48.90989" lon="7.41741">
        <ele>187</ele>
        <time>2021-08-08T08:38:12Z</time>
      </trkpt>
      <trkpt lat="48.90983" lon="7.41739">
        <ele>187</ele>
        <time>2021-08-08T08:38:13Z</time>
      </trkpt>
      <trkpt lat="48.90983" lon="7.41739">
        <ele>187</ele>
        <time>2021-08-08T08:38:14Z</time>
      </trkpt>
      <trkpt lat="48.90977" lon="7.41738">
        <ele>187</ele>
        <time>2021-08-08T08:38:15Z</time>
      </trkpt>
      <trkpt lat="48.90974" lon="7.41738">
        <ele>188</ele>
        <time>2021-08-08T08:38:16Z</time>
      </trkpt>
      <trkpt lat="48.90974" lon="7.41738">
        <ele>188</ele>
        <time>2021-08-08T08:38:17Z</time>
      </trkpt>
      <trkpt lat="48.90969" lon="7.41739">
        <ele>188</ele>
        <time>2021-08-08T08:38:18Z</time>
      </trkpt>
      <trkpt lat="48.90966" lon="7.41739">
        <ele>188</ele>
        <time>2021-08-08T08:38:19Z</time>
      </trkpt>
      <trkpt lat="48.90966" lon="7.41739">
        <ele>189</ele>
        <time>2021-08-08T08:38:20Z</time>
      </trkpt>
      <trkpt lat="48.9096" lon="7.4174">
        <ele>189</ele>
        <time>2021-08-08T08:38:21Z</time>
      </trkpt>
      <trkpt lat="48.90958" lon="7.4174">
        <ele>190</ele>
        <time>2021-08-08T08:38:22Z</time>
      </trkpt>
      <trkpt lat="48.90958" lon="7.4174">
        <ele>190</ele>
        <time>2021-08-08T08:38:23Z</time>
      </trkpt>
      <trkpt lat="48.90952" lon="7.4174">
        <ele>190</ele>
        <time>2021-08-08T08:38:24Z</time>
      </trkpt>
      <trkpt lat="48.90952" lon="7.4174">
        <ele>190</ele>
        <time>2021-08-08T08:38:25Z</time>
      </trkpt>
      <trkpt lat="48.90946" lon="7.41739">
        <ele>191</ele>
        <time>2021-08-08T08:38:26Z</time>
      </trkpt>
      <trkpt lat="48.90943" lon="7.41739">
        <ele>191</ele>
        <time>2021-08-08T08:38:27Z</time>
      </trkpt>
      <trkpt lat="48.90943" lon="7.41739">
        <ele>191</ele>
        <time>2021-08-08T08:38:28Z</time>
      </trkpt>
      <trkpt lat="48.90937" lon="7.41738">
        <ele>191</ele>
        <time>2021-08-08T08:38:29Z</time>
      </trkpt>
      <trkpt lat="48.90937" lon="7.41738">
        <ele>191</ele>
        <time>2021-08-08T08:38:30Z</time>
      </trkpt>
      <trkpt lat="48.90931" lon="7.41737">
        <ele>191</ele>
        <time>2021-08-08T08:38:31Z</time>
      </trkpt>
      <trkpt lat="48.90931" lon="7.41737">
        <ele>192</ele>
        <time>2021-08-08T08:38:32Z</time>
      </trkpt>
      <trkpt lat="48.90925" lon="7.41737">
        <ele>192</ele>
        <time>2021-08-08T08:38:33Z</time>
      </trkpt>
      <trkpt lat="48.90925" lon="7.41737">
        <ele>192</ele>
        <time>2021-08-08T08:38:34Z</time>
      </trkpt>
      <trkpt lat="48.9092" lon="7.41736">
        <ele>192</ele>
        <time>2021-08-08T08:38:35Z</time>
      </trkpt>
      <trkpt lat="48.9092" lon="7.41736">
        <ele>192</ele>
        <time>2021-08-08T08:38:36Z</time>
      </trkpt>
      <trkpt lat="48.90914" lon="7.41734">
        <ele>192</ele>
        <time>2021-08-08T08:38:37Z</time>
      </trkpt>
      <trkpt lat="48.90914" lon="7.41734">
        <ele>192</ele>
        <time>2021-08-08T08:38:38Z</time>
      </trkpt>
      <trkpt lat="48.90908" lon="7.41732">
        <ele>192</ele>
        <time>2021-08-08T08:38:39Z</time>
      </trkpt>
      <trkpt lat="48.90908" lon="7.41732">
        <ele>192</ele>
        <time>2021-08-08T08:38:40Z</time>
      </trkpt>
      <trkpt lat="48.90903" lon="7.41731">
        <ele>192</ele>
        <time>2021-08-08T08:38:41Z</time>
      </trkpt>
      <trkpt lat="48.90903" lon="7.41731">
        <ele>192</ele>
        <time>2021-08-08T08:38:42Z</time>
      </trkpt>
      <trkpt lat="48.90898" lon="7.41729">
        <ele>192</ele>
        <time>2021-08-08T08:38:43Z</time>
      </trkpt>
      <trkpt lat="48.90898" lon="7.41729">
        <ele>192</ele>
        <time>2021-08-08T08:38:44Z</time>
      </trkpt>
      <trkpt lat="48.90893" lon="7.41727">
        <ele>192</ele>
        <time>2021-08-08T08:38:45Z</time>
      </trkpt>
      <trkpt lat="48.9089" lon="7.41727">
        <ele>192</ele>
        <time>2021-08-08T08:38:46Z</time>
      </trkpt>
      <trkpt lat="48.9089" lon="7.41727">
        <ele>193</ele>
        <time>2021-08-08T08:38:47Z</time>
      </trkpt>
      <trkpt lat="48.90882" lon="7.41724">
        <ele>193</ele>
        <time>2021-08-08T08:38:48Z</time>
      </trkpt>
      <trkpt lat="48.90878" lon="7.41723">
        <ele>193</ele>
        <time>2021-08-08T08:38:49Z</time>
      </trkpt>
      <trkpt lat="48.90875" lon="7.41722">
        <ele>193</ele>
        <time>2021-08-08T08:38:50Z</time>
      </trkpt>
      <trkpt lat="48.90875" lon="7.41722">
        <ele>193</ele>
        <time>2021-08-08T08:38:51Z</time>
      </trkpt>
      <trkpt lat="48.90869" lon="7.41721">
        <ele>193</ele>
        <time>2021-08-08T08:38:52Z</time>
      </trkpt>
      <trkpt lat="48.90866" lon="7.4172">
        <ele>193</ele>
        <time>2021-08-08T08:38:53Z</time>
      </trkpt>
      <trkpt lat="48.90866" lon="7.4172">
        <ele>193</ele>
        <time>2021-08-08T08:38:54Z</time>
      </trkpt>
      <trkpt lat="48.9086" lon="7.41719">
        <ele>194</ele>
        <time>2021-08-08T08:38:55Z</time>
      </trkpt>
      <trkpt lat="48.90857" lon="7.41719">
        <ele>194</ele>
        <time>2021-08-08T08:38:56Z</time>
      </trkpt>
      <trkpt lat="48.90857" lon="7.41719">
        <ele>194</ele>
        <time>2021-08-08T08:38:57Z</time>
      </trkpt>
      <trkpt lat="48.90853" lon="7.41718">
        <ele>194</ele>
        <time>2021-08-08T08:38:58Z</time>
      </trkpt>
      <trkpt lat="48.90853" lon="7.41718">
        <ele>194</ele>
        <time>2021-08-08T08:38:59Z</time>
      </trkpt>
      <trkpt lat="48.9085" lon="7.41717">
        <ele>194</ele>
        <time>2021-08-08T08:39:00Z</time>
      </trkpt>
      <trkpt lat="48.90849" lon="7.41716">
        <ele>194</ele>
        <time>2021-08-08T08:39:01Z</time>
      </trkpt>
      <trkpt lat="48.90849" lon="7.41716">
        <ele>195</ele>
        <time>2021-08-08T08:39:02Z</time>
      </trkpt>
      <trkpt lat="48.90847" lon="7.41716">
        <ele>195</ele>
        <time>2021-08-08T08:39:03Z</time>
      </trkpt>
      <trkpt lat="48.90844" lon="7.41716">
        <ele>195</ele>
        <time>2021-08-08T08:39:04Z</time>
      </trkpt>
      <trkpt lat="48.90844" lon="7.41716">
        <ele>195</ele>
        <time>2021-08-08T08:39:05Z</time>
      </trkpt>
      <trkpt lat="48.9084" lon="7.41716">
        <ele>196</ele>
        <time>2021-08-08T08:39:06Z</time>
      </trkpt>
      <trkpt lat="48.90838" lon="7.41716">
        <ele>196</ele>
        <time>2021-08-08T08:39:07Z</time>
      </trkpt>
      <trkpt lat="48.90838" lon="7.41716">
        <ele>196</ele>
        <time>2021-08-08T08:39:08Z</time>
      </trkpt>
      <trkpt lat="48.90835" lon="7.41716">
        <ele>196</ele>
        <time>2021-08-08T08:39:09Z</time>
      </trkpt>
      <trkpt lat="48.90832" lon="7.41716">
        <ele>196</ele>
        <time>2021-08-08T08:39:10Z</time>
      </trkpt>
      <trkpt lat="48.90832" lon="7.41716">
        <ele>196</ele>
        <time>2021-08-08T08:39:11Z</time>
      </trkpt>
      <trkpt lat="48.90828" lon="7.41716">
        <ele>196</ele>
        <time>2021-08-08T08:39:12Z</time>
      </trkpt>
      <trkpt lat="48.90827" lon="7.41715">
        <ele>196</ele>
        <time>2021-08-08T08:39:13Z</time>
      </trkpt>
      <trkpt lat="48.90827" lon="7.41715">
        <ele>197</ele>
        <time>2021-08-08T08:39:14Z</time>
      </trkpt>
      <trkpt lat="48.90823" lon="7.41715">
        <ele>197</ele>
        <time>2021-08-08T08:39:15Z</time>
      </trkpt>
      <trkpt lat="48.90822" lon="7.41714">
        <ele>197</ele>
        <time>2021-08-08T08:39:16Z</time>
      </trkpt>
      <trkpt lat="48.90819" lon="7.41714">
        <ele>197</ele>
        <time>2021-08-08T08:39:17Z</time>
      </trkpt>
      <trkpt lat="48.90819" lon="7.41714">
        <ele>198</ele>
        <time>2021-08-08T08:39:18Z</time>
      </trkpt>
      <trkpt lat="48.90813" lon="7.41712">
        <ele>198</ele>
        <time>2021-08-08T08:39:19Z</time>
      </trkpt>
      <trkpt lat="48.9081" lon="7.41711">
        <ele>198</ele>
        <time>2021-08-08T08:39:20Z</time>
      </trkpt>
      <trkpt lat="48.9081" lon="7.41711">
        <ele>198</ele>
        <time>2021-08-08T08:39:21Z</time>
      </trkpt>
      <trkpt lat="48.90805" lon="7.4171">
        <ele>199</ele>
        <time>2021-08-08T08:39:22Z</time>
      </trkpt>
      <trkpt lat="48.90803" lon="7.41709">
        <ele>199</ele>
        <time>2021-08-08T08:39:23Z</time>
      </trkpt>
      <trkpt lat="48.90803" lon="7.41709">
        <ele>199</ele>
        <time>2021-08-08T08:39:24Z</time>
      </trkpt>
      <trkpt lat="48.90798" lon="7.41708">
        <ele>199</ele>
        <time>2021-08-08T08:39:25Z</time>
      </trkpt>
      <trkpt lat="48.90798" lon="7.41708">
        <ele>199</ele>
        <time>2021-08-08T08:39:26Z</time>
      </trkpt>
      <trkpt lat="48.90794" lon="7.41706">
        <ele>199</ele>
        <time>2021-08-08T08:39:27Z</time>
      </trkpt>
      <trkpt lat="48.90794" lon="7.41706">
        <ele>200</ele>
        <time>2021-08-08T08:39:28Z</time>
      </trkpt>
      <trkpt lat="48.90789" lon="7.41705">
        <ele>200</ele>
        <time>2021-08-08T08:39:29Z</time>
      </trkpt>
      <trkpt lat="48.90787" lon="7.41705">
        <ele>200</ele>
        <time>2021-08-08T08:39:30Z</time>
      </trkpt>
      <trkpt lat="48.90787" lon="7.41705">
        <ele>200</ele>
        <time>2021-08-08T08:39:31Z</time>
      </trkpt>
      <trkpt lat="48.90782" lon="7.41703">
        <ele>200</ele>
        <time>2021-08-08T08:39:32Z</time>
      </trkpt>
      <trkpt lat="48.90782" lon="7.41703">
        <ele>200</ele>
        <time>2021-08-08T08:39:33Z</time>
      </trkpt>
      <trkpt lat="48.90777" lon="7.41703">
        <ele>200</ele>
        <time>2021-08-08T08:39:34Z</time>
      </trkpt>
      <trkpt lat="48.90777" lon="7.41703">
        <ele>200</ele>
        <time>2021-08-08T08:39:35Z</time>
      </trkpt>
      <trkpt lat="48.90772" lon="7.41703">
        <ele>201</ele>
        <time>2021-08-08T08:39:36Z</time>
      </trkpt>
      <trkpt lat="48.90769" lon="7.41704">
        <ele>201</ele>
        <time>2021-08-08T08:39:37Z</time>
      </trkpt>
      <trkpt lat="48.90769" lon="7.41704">
        <ele>201</ele>
        <time>2021-08-08T08:39:38Z</time>
      </trkpt>
      <trkpt lat="48.90764" lon="7.41704">
        <ele>201</ele>
        <time>2021-08-08T08:39:39Z</time>
      </trkpt>
      <trkpt lat="48.90764" lon="7.41704">
        <ele>201</ele>
        <time>2021-08-08T08:39:40Z</time>
      </trkpt>
      <trkpt lat="48.90759" lon="7.41703">
        <ele>201</ele>
        <time>2021-08-08T08:39:41Z</time>
      </trkpt>
      <trkpt lat="48.90759" lon="7.41703">
        <ele>201</ele>
        <time>2021-08-08T08:39:42Z</time>
      </trkpt>
      <trkpt lat="48.90753" lon="7.41703">
        <ele>202</ele>
        <time>2021-08-08T08:39:43Z</time>
      </trkpt>
      <trkpt lat="48.90753" lon="7.41703">
        <ele>202</ele>
        <time>2021-08-08T08:39:44Z</time>
      </trkpt>
      <trkpt lat="48.90748" lon="7.41703">
        <ele>202</ele>
        <time>2021-08-08T08:39:45Z</time>
      </trkpt>
      <trkpt lat="48.90748" lon="7.41703">
        <ele>202</ele>
        <time>2021-08-08T08:39:46Z</time>
      </trkpt>
      <trkpt lat="48.90743" lon="7.41702">
        <ele>202</ele>
        <time>2021-08-08T08:39:47Z</time>
      </trkpt>
      <trkpt lat="48.90743" lon="7.41702">
        <ele>202</ele>
        <time>2021-08-08T08:39:48Z</time>
      </trkpt>
      <trkpt lat="48.90737" lon="7.41701">
        <ele>202</ele>
        <time>2021-08-08T08:39:49Z</time>
      </trkpt>
      <trkpt lat="48.90737" lon="7.41701">
        <ele>202</ele>
        <time>2021-08-08T08:39:50Z</time>
      </trkpt>
      <trkpt lat="48.90732" lon="7.417">
        <ele>202</ele>
        <time>2021-08-08T08:39:51Z</time>
      </trkpt>
      <trkpt lat="48.90729" lon="7.417">
        <ele>202</ele>
        <time>2021-08-08T08:39:52Z</time>
      </trkpt>
      <trkpt lat="48.90729" lon="7.417">
        <ele>202</ele>
        <time>2021-08-08T08:39:53Z</time>
      </trkpt>
      <trkpt lat="48.90724" lon="7.417">
        <ele>202</ele>
        <time>2021-08-08T08:39:54Z</time>
      </trkpt>
      <trkpt lat="48.90721" lon="7.417">
        <ele>202</ele>
        <time>2021-08-08T08:39:55Z</time>
      </trkpt>
      <trkpt lat="48.90721" lon="7.417">
        <ele>202</ele>
        <time>2021-08-08T08:39:56Z</time>
      </trkpt>
      <trkpt lat="48.90716" lon="7.41699">
        <ele>202</ele>
        <time>2021-08-08T08:39:57Z</time>
      </trkpt>
      <trkpt lat="48.90716" lon="7.41699">
        <ele>202</ele>
        <time>2021-08-08T08:39:58Z</time>
      </trkpt>
      <trkpt lat="48.9071" lon="7.41697">
        <ele>202</ele>
        <time>2021-08-08T08:39:59Z</time>
      </trkpt>
      <trkpt lat="48.90707" lon="7.41696">
        <ele>202</ele>
        <time>2021-08-08T08:40:00Z</time>
      </trkpt>
      <trkpt lat="48.90707" lon="7.41696">
        <ele>202</ele>
        <time>2021-08-08T08:40:01Z</time>
      </trkpt>
      <trkpt lat="48.90702" lon="7.41692">
        <ele>202</ele>
        <time>2021-08-08T08:40:02Z</time>
      </trkpt>
      <trkpt lat="48.90702" lon="7.41692">
        <ele>202</ele>
        <time>2021-08-08T08:40:03Z</time>
      </trkpt>
      <trkpt lat="48.90697" lon="7.41688">
        <ele>202</ele>
        <time>2021-08-08T08:40:04Z</time>
      </trkpt>
      <trkpt lat="48.90697" lon="7.41688">
        <ele>202</ele>
        <time>2021-08-08T08:40:05Z</time>
      </trkpt>
      <trkpt lat="48.90692" lon="7.41685">
        <ele>202</ele>
        <time>2021-08-08T08:40:06Z</time>
      </trkpt>
      <trkpt lat="48.90692" lon="7.41685">
        <ele>202</ele>
        <time>2021-08-08T08:40:07Z</time>
      </trkpt>
      <trkpt lat="48.90688" lon="7.41681">
        <ele>202</ele>
        <time>2021-08-08T08:40:08Z</time>
      </trkpt>
      <trkpt lat="48.90686" lon="7.41679">
        <ele>202</ele>
        <time>2021-08-08T08:40:09Z</time>
      </trkpt>
      <trkpt lat="48.90686" lon="7.41679">
        <ele>202</ele>
        <time>2021-08-08T08:40:10Z</time>
      </trkpt>
      <trkpt lat="48.90681" lon="7.41676">
        <ele>202</ele>
        <time>2021-08-08T08:40:11Z</time>
      </trkpt>
      <trkpt lat="48.90681" lon="7.41676">
        <ele>202</ele>
        <time>2021-08-08T08:40:12Z</time>
      </trkpt>
      <trkpt lat="48.90678" lon="7.41673">
        <ele>202</ele>
        <time>2021-08-08T08:40:13Z</time>
      </trkpt>
      <trkpt lat="48.90678" lon="7.41673">
        <ele>202</ele>
        <time>2021-08-08T08:40:14Z</time>
      </trkpt>
      <trkpt lat="48.90674" lon="7.41671">
        <ele>202</ele>
        <time>2021-08-08T08:40:15Z</time>
      </trkpt>
      <trkpt lat="48.90674" lon="7.41671">
        <ele>202</ele>
        <time>2021-08-08T08:40:16Z</time>
      </trkpt>
      <trkpt lat="48.9067" lon="7.41668">
        <ele>202</ele>
        <time>2021-08-08T08:40:17Z</time>
      </trkpt>
      <trkpt lat="48.9067" lon="7.41668">
        <ele>202</ele>
        <time>2021-08-08T08:40:18Z</time>
      </trkpt>
      <trkpt lat="48.90666" lon="7.41666">
        <ele>202</ele>
        <time>2021-08-08T08:40:19Z</time>
      </trkpt>
      <trkpt lat="48.90666" lon="7.41666">
        <ele>202</ele>
        <time>2021-08-08T08:40:20Z</time>
      </trkpt>
      <trkpt lat="48.90662" lon="7.41662">
        <ele>202</ele>
        <time>2021-08-08T08:40:21Z</time>
      </trkpt>
      <trkpt lat="48.9066" lon="7.41661">
        <ele>202</ele>
        <time>2021-08-08T08:40:22Z</time>
      </trkpt>
      <trkpt lat="48.90657" lon="7.4166">
        <ele>202</ele>
        <time>2021-08-08T08:40:23Z</time>
      </trkpt>
      <trkpt lat="48.90657" lon="7.4166">
        <ele>202</ele>
        <time>2021-08-08T08:40:24Z</time>
      </trkpt>
      <trkpt lat="48.90653" lon="7.41658">
        <ele>202</ele>
        <time>2021-08-08T08:40:25Z</time>
      </trkpt>
      <trkpt lat="48.90653" lon="7.41658">
        <ele>202</ele>
        <time>2021-08-08T08:40:26Z</time>
      </trkpt>
      <trkpt lat="48.9065" lon="7.41656">
        <ele>202</ele>
        <time>2021-08-08T08:40:27Z</time>
      </trkpt>
      <trkpt lat="48.9065" lon="7.41656">
        <ele>202</ele>
        <time>2021-08-08T08:40:28Z</time>
      </trkpt>
      <trkpt lat="48.90647" lon="7.41654">
        <ele>202</ele>
        <time>2021-08-08T08:40:29Z</time>
      </trkpt>
      <trkpt lat="48.90647" lon="7.41654">
        <ele>203</ele>
        <time>2021-08-08T08:40:30Z</time>
      </trkpt>
      <trkpt lat="48.90646" lon="7.41651">
        <ele>203</ele>
        <time>2021-08-08T08:40:31Z</time>
      </trkpt>
      <trkpt lat="48.90646" lon="7.41651">
        <ele>203</ele>
        <time>2021-08-08T08:40:32Z</time>
      </trkpt>
      <trkpt lat="48.90644" lon="7.41646">
        <ele>203</ele>
        <time>2021-08-08T08:40:33Z</time>
      </trkpt>
      <trkpt lat="48.90644" lon="7.41646">
        <ele>203</ele>
        <time>2021-08-08T08:40:34Z</time>
      </trkpt>
      <trkpt lat="48.90643" lon="7.41641">
        <ele>203</ele>
        <time>2021-08-08T08:40:35Z</time>
      </trkpt>
      <trkpt lat="48.90642" lon="7.41639">
        <ele>203</ele>
        <time>2021-08-08T08:40:36Z</time>
      </trkpt>
      <trkpt lat="48.90642" lon="7.41639">
        <ele>204</ele>
        <time>2021-08-08T08:40:37Z</time>
      </trkpt>
      <trkpt lat="48.90641" lon="7.41634">
        <ele>204</ele>
        <time>2021-08-08T08:40:38Z</time>
      </trkpt>
      <trkpt lat="48.90641" lon="7.41631">
        <ele>205</ele>
        <time>2021-08-08T08:40:39Z</time>
      </trkpt>
      <trkpt lat="48.90641" lon="7.41631">
        <ele>205</ele>
        <time>2021-08-08T08:40:40Z</time>
      </trkpt>
      <trkpt lat="48.9064" lon="7.41628">
        <ele>206</ele>
        <time>2021-08-08T08:40:41Z</time>
      </trkpt>
      <trkpt lat="48.9064" lon="7.41628">
        <ele>206</ele>
        <time>2021-08-08T08:40:42Z</time>
      </trkpt>
      <trkpt lat="48.90638" lon="7.41624">
        <ele>207</ele>
        <time>2021-08-08T08:40:43Z</time>
      </trkpt>
      <trkpt lat="48.90638" lon="7.41624">
        <ele>207</ele>
        <time>2021-08-08T08:40:44Z</time>
      </trkpt>
      <trkpt lat="48.90637" lon="7.41619">
        <ele>207</ele>
        <time>2021-08-08T08:40:45Z</time>
      </trkpt>
      <trkpt lat="48.90637" lon="7.41619">
        <ele>207</ele>
        <time>2021-08-08T08:40:46Z</time>
      </trkpt>
      <trkpt lat="48.90636" lon="7.41613">
        <ele>208</ele>
        <time>2021-08-08T08:40:47Z</time>
      </trkpt>
      <trkpt lat="48.90636" lon="7.41613">
        <ele>208</ele>
        <time>2021-08-08T08:40:48Z</time>
      </trkpt>
      <trkpt lat="48.90636" lon="7.41609">
        <ele>208</ele>
        <time>2021-08-08T08:40:49Z</time>
      </trkpt>
      <trkpt lat="48.90636" lon="7.41609">
        <ele>208</ele>
        <time>2021-08-08T08:40:50Z</time>
      </trkpt>
      <trkpt lat="48.90635" lon="7.41603">
        <ele>209</ele>
        <time>2021-08-08T08:40:51Z</time>
      </trkpt>
      <trkpt lat="48.90634" lon="7.416">
        <ele>209</ele>
        <time>2021-08-08T08:40:52Z</time>
      </trkpt>
      <trkpt lat="48.90634" lon="7.416">
        <ele>209</ele>
        <time>2021-08-08T08:40:53Z</time>
      </trkpt>
      <trkpt lat="48.90633" lon="7.41594">
        <ele>209</ele>
        <time>2021-08-08T08:40:54Z</time>
      </trkpt>
      <trkpt lat="48.90633" lon="7.4159">
        <ele>209</ele>
        <time>2021-08-08T08:40:55Z</time>
      </trkpt>
      <trkpt lat="48.90633" lon="7.4159">
        <ele>209</ele>
        <time>2021-08-08T08:40:56Z</time>
      </trkpt>
      <trkpt lat="48.90632" lon="7.41585">
        <ele>210</ele>
        <time>2021-08-08T08:40:57Z</time>
      </trkpt>
      <trkpt lat="48.90632" lon="7.41585">
        <ele>210</ele>
        <time>2021-08-08T08:40:58Z</time>
      </trkpt>
      <trkpt lat="48.9063" lon="7.41581">
        <ele>210</ele>
        <time>2021-08-08T08:40:59Z</time>
      </trkpt>
      <trkpt lat="48.90629" lon="7.41579">
        <ele>210</ele>
        <time>2021-08-08T08:41:00Z</time>
      </trkpt>
      <trkpt lat="48.90629" lon="7.41579">
        <ele>210</ele>
        <time>2021-08-08T08:41:01Z</time>
      </trkpt>
      <trkpt lat="48.90626" lon="7.41576">
        <ele>210</ele>
        <time>2021-08-08T08:41:02Z</time>
      </trkpt>
      <trkpt lat="48.90626" lon="7.41576">
        <ele>210</ele>
        <time>2021-08-08T08:41:03Z</time>
      </trkpt>
      <trkpt lat="48.90624" lon="7.41572">
        <ele>210</ele>
        <time>2021-08-08T08:41:04Z</time>
      </trkpt>
      <trkpt lat="48.90624" lon="7.41572">
        <ele>210</ele>
        <time>2021-08-08T08:41:05Z</time>
      </trkpt>
      <trkpt lat="48.90622" lon="7.41568">
        <ele>210</ele>
        <time>2021-08-08T08:41:06Z</time>
      </trkpt>
      <trkpt lat="48.90622" lon="7.41568">
        <ele>210</ele>
        <time>2021-08-08T08:41:07Z</time>
      </trkpt>
      <trkpt lat="48.9062" lon="7.41563">
        <ele>210</ele>
        <time>2021-08-08T08:41:08Z</time>
      </trkpt>
      <trkpt lat="48.90619" lon="7.4156">
        <ele>210</ele>
        <time>2021-08-08T08:41:09Z</time>
      </trkpt>
      <trkpt lat="48.90618" lon="7.41557">
        <ele>210</ele>
        <time>2021-08-08T08:41:10Z</time>
      </trkpt>
      <trkpt lat="48.90618" lon="7.41557">
        <ele>210</ele>
        <time>2021-08-08T08:41:11Z</time>
      </trkpt>
      <trkpt lat="48.90617" lon="7.41551">
        <ele>210</ele>
        <time>2021-08-08T08:41:12Z</time>
      </trkpt>
      <trkpt lat="48.90617" lon="7.41551">
        <ele>210</ele>
        <time>2021-08-08T08:41:13Z</time>
      </trkpt>
      <trkpt lat="48.90616" lon="7.41546">
        <ele>210</ele>
        <time>2021-08-08T08:41:14Z</time>
      </trkpt>
      <trkpt lat="48.90616" lon="7.41546">
        <ele>210</ele>
        <time>2021-08-08T08:41:15Z</time>
      </trkpt>
      <trkpt lat="48.90613" lon="7.41542">
        <ele>210</ele>
        <time>2021-08-08T08:41:16Z</time>
      </trkpt>
      <trkpt lat="48.90613" lon="7.41542">
        <ele>210</ele>
        <time>2021-08-08T08:41:17Z</time>
      </trkpt>
      <trkpt lat="48.9061" lon="7.41539">
        <ele>210</ele>
        <time>2021-08-08T08:41:18Z</time>
      </trkpt>
      <trkpt lat="48.9061" lon="7.41539">
        <ele>210</ele>
        <time>2021-08-08T08:41:19Z</time>
      </trkpt>
      <trkpt lat="48.90608" lon="7.41535">
        <ele>210</ele>
        <time>2021-08-08T08:41:20Z</time>
      </trkpt>
      <trkpt lat="48.90608" lon="7.41533">
        <ele>211</ele>
        <time>2021-08-08T08:41:21Z</time>
      </trkpt>
      <trkpt lat="48.90608" lon="7.41533">
        <ele>211</ele>
        <time>2021-08-08T08:41:22Z</time>
      </trkpt>
      <trkpt lat="48.90607" lon="7.41526">
        <ele>211</ele>
        <time>2021-08-08T08:41:23Z</time>
      </trkpt>
      <trkpt lat="48.90607" lon="7.41523">
        <ele>211</ele>
        <time>2021-08-08T08:41:24Z</time>
      </trkpt>
      <trkpt lat="48.90607" lon="7.41523">
        <ele>211</ele>
        <time>2021-08-08T08:41:25Z</time>
      </trkpt>
      <trkpt lat="48.90607" lon="7.41519">
        <ele>211</ele>
        <time>2021-08-08T08:41:26Z</time>
      </trkpt>
      <trkpt lat="48.90607" lon="7.41519">
        <ele>212</ele>
        <time>2021-08-08T08:41:27Z</time>
      </trkpt>
      <trkpt lat="48.90606" lon="7.41515">
        <ele>212</ele>
        <time>2021-08-08T08:41:28Z</time>
      </trkpt>
      <trkpt lat="48.90606" lon="7.41513">
        <ele>212</ele>
        <time>2021-08-08T08:41:29Z</time>
      </trkpt>
      <trkpt lat="48.90606" lon="7.41512">
        <ele>212</ele>
        <time>2021-08-08T08:41:30Z</time>
      </trkpt>
      <trkpt lat="48.90606" lon="7.41512">
        <ele>213</ele>
        <time>2021-08-08T08:41:31Z</time>
      </trkpt>
      <trkpt lat="48.90606" lon="7.41508">
        <ele>213</ele>
        <time>2021-08-08T08:41:32Z</time>
      </trkpt>
      <trkpt lat="48.90605" lon="7.41506">
        <ele>213</ele>
        <time>2021-08-08T08:41:33Z</time>
      </trkpt>
      <trkpt lat="48.90605" lon="7.41506">
        <ele>214</ele>
        <time>2021-08-08T08:41:34Z</time>
      </trkpt>
      <trkpt lat="48.90605" lon="7.41501">
        <ele>214</ele>
        <time>2021-08-08T08:41:35Z</time>
      </trkpt>
      <trkpt lat="48.90605" lon="7.41501">
        <ele>214</ele>
        <time>2021-08-08T08:41:36Z</time>
      </trkpt>
      <trkpt lat="48.90604" lon="7.41495">
        <ele>214</ele>
        <time>2021-08-08T08:41:37Z</time>
      </trkpt>
      <trkpt lat="48.90604" lon="7.41495">
        <ele>215</ele>
        <time>2021-08-08T08:41:38Z</time>
      </trkpt>
      <trkpt lat="48.90602" lon="7.41491">
        <ele>215</ele>
        <time>2021-08-08T08:41:39Z</time>
      </trkpt>
      <trkpt lat="48.90602" lon="7.41488">
        <ele>215</ele>
        <time>2021-08-08T08:41:40Z</time>
      </trkpt>
      <trkpt lat="48.90602" lon="7.41488">
        <ele>215</ele>
        <time>2021-08-08T08:41:41Z</time>
      </trkpt>
      <trkpt lat="48.90602" lon="7.41483">
        <ele>215</ele>
        <time>2021-08-08T08:41:42Z</time>
      </trkpt>
      <trkpt lat="48.90602" lon="7.4148">
        <ele>215</ele>
        <time>2021-08-08T08:41:43Z</time>
      </trkpt>
      <trkpt lat="48.90602" lon="7.4148">
        <ele>216</ele>
        <time>2021-08-08T08:41:44Z</time>
      </trkpt>
      <trkpt lat="48.90602" lon="7.41474">
        <ele>216</ele>
        <time>2021-08-08T08:41:45Z</time>
      </trkpt>
      <trkpt lat="48.90602" lon="7.41474">
        <ele>216</ele>
        <time>2021-08-08T08:41:46Z</time>
      </trkpt>
      <trkpt lat="48.90602" lon="7.41468">
        <ele>216</ele>
        <time>2021-08-08T08:41:47Z</time>
      </trkpt>
      <trkpt lat="48.90602" lon="7.41468">
        <ele>216</ele>
        <time>2021-08-08T08:41:48Z</time>
      </trkpt>
      <trkpt lat="48.90601" lon="7.41463">
        <ele>216</ele>
        <time>2021-08-08T08:41:49Z</time>
      </trkpt>
      <trkpt lat="48.90601" lon="7.41463">
        <ele>217</ele>
        <time>2021-08-08T08:41:50Z</time>
      </trkpt>
      <trkpt lat="48.906" lon="7.41457">
        <ele>217</ele>
        <time>2021-08-08T08:41:51Z</time>
      </trkpt>
      <trkpt lat="48.906" lon="7.41457">
        <ele>217</ele>
        <time>2021-08-08T08:41:52Z</time>
      </trkpt>
      <trkpt lat="48.906" lon="7.4145">
        <ele>217</ele>
        <time>2021-08-08T08:41:53Z</time>
      </trkpt>
      <trkpt lat="48.906" lon="7.4145">
        <ele>217</ele>
        <time>2021-08-08T08:41:54Z</time>
      </trkpt>
      <trkpt lat="48.906" lon="7.41444">
        <ele>217</ele>
        <time>2021-08-08T08:41:55Z</time>
      </trkpt>
      <trkpt lat="48.906" lon="7.41444">
        <ele>217</ele>
        <time>2021-08-08T08:41:56Z</time>
      </trkpt>
      <trkpt lat="48.90599" lon="7.41438">
        <ele>217</ele>
        <time>2021-08-08T08:41:57Z</time>
      </trkpt>
      <trkpt lat="48.90599" lon="7.41435">
        <ele>217</ele>
        <time>2021-08-08T08:41:58Z</time>
      </trkpt>
      <trkpt lat="48.90599" lon="7.41435">
        <ele>217</ele>
        <time>2021-08-08T08:41:59Z</time>
      </trkpt>
      <trkpt lat="48.90599" lon="7.41428">
        <ele>217</ele>
        <time>2021-08-08T08:42:00Z</time>
      </trkpt>
      <trkpt lat="48.90599" lon="7.41425">
        <ele>217</ele>
        <time>2021-08-08T08:42:01Z</time>
      </trkpt>
      <trkpt lat="48.90599" lon="7.41425">
        <ele>217</ele>
        <time>2021-08-08T08:42:02Z</time>
      </trkpt>
      <trkpt lat="48.90598" lon="7.41419">
        <ele>217</ele>
        <time>2021-08-08T08:42:03Z</time>
      </trkpt>
      <trkpt lat="48.90598" lon="7.41419">
        <ele>217</ele>
        <time>2021-08-08T08:42:04Z</time>
      </trkpt>
      <trkpt lat="48.90597" lon="7.41414">
        <ele>218</ele>
        <time>2021-08-08T08:42:05Z</time>
      </trkpt>
      <trkpt lat="48.90597" lon="7.41414">
        <ele>218</ele>
        <time>2021-08-08T08:42:06Z</time>
      </trkpt>
      <trkpt lat="48.90594" lon="7.41411">
        <ele>218</ele>
        <time>2021-08-08T08:42:07Z</time>
      </trkpt>
      <trkpt lat="48.90594" lon="7.41411">
        <ele>218</ele>
        <time>2021-08-08T08:42:08Z</time>
      </trkpt>
      <trkpt lat="48.90592" lon="7.41408">
        <ele>218</ele>
        <time>2021-08-08T08:42:09Z</time>
      </trkpt>
      <trkpt lat="48.90592" lon="7.41408">
        <ele>218</ele>
        <time>2021-08-08T08:42:10Z</time>
      </trkpt>
      <trkpt lat="48.90589" lon="7.41405">
        <ele>219</ele>
        <time>2021-08-08T08:42:11Z</time>
      </trkpt>
      <trkpt lat="48.90588" lon="7.41403">
        <ele>219</ele>
        <time>2021-08-08T08:42:12Z</time>
      </trkpt>
      <trkpt lat="48.90587" lon="7.41401">
        <ele>219</ele>
        <time>2021-08-08T08:42:13Z</time>
      </trkpt>
      <trkpt lat="48.90587" lon="7.41401">
        <ele>219</ele>
        <time>2021-08-08T08:42:14Z</time>
      </trkpt>
      <trkpt lat="48.90585" lon="7.41397">
        <ele>219</ele>
        <time>2021-08-08T08:42:15Z</time>
      </trkpt>
      <trkpt lat="48.90585" lon="7.41397">
        <ele>219</ele>
        <time>2021-08-08T08:42:16Z</time>
      </trkpt>
      <trkpt lat="48.90583" lon="7.41394">
        <ele>219</ele>
        <time>2021-08-08T08:42:17Z</time>
      </trkpt>
      <trkpt lat="48.90583" lon="7.41394">
        <ele>219</ele>
        <time>2021-08-08T08:42:18Z</time>
      </trkpt>
      <trkpt lat="48.9058" lon="7.41391">
        <ele>219</ele>
        <time>2021-08-08T08:42:19Z</time>
      </trkpt>
      <trkpt lat="48.9058" lon="7.41391">
        <ele>219</ele>
        <time>2021-08-08T08:42:20Z</time>
      </trkpt>
      <trkpt lat="48.90576" lon="7.41387">
        <ele>221</ele>
        <time>2021-08-08T08:42:21Z</time>
      </trkpt>
      <trkpt lat="48.90576" lon="7.41387">
        <ele>221</ele>
        <time>2021-08-08T08:42:22Z</time>
      </trkpt>
      <trkpt lat="48.90574" lon="7.41384">
        <ele>221</ele>
        <time>2021-08-08T08:42:23Z</time>
      </trkpt>
      <trkpt lat="48.90574" lon="7.41384">
        <ele>221</ele>
        <time>2021-08-08T08:42:24Z</time>
      </trkpt>
      <trkpt lat="48.90571" lon="7.4138">
        <ele>222</ele>
        <time>2021-08-08T08:42:25Z</time>
      </trkpt>
      <trkpt lat="48.90571" lon="7.4138">
        <ele>222</ele>
        <time>2021-08-08T08:42:26Z</time>
      </trkpt>
      <trkpt lat="48.90569" lon="7.41376">
        <ele>222</ele>
        <time>2021-08-08T08:42:27Z</time>
      </trkpt>
      <trkpt lat="48.90568" lon="7.41375">
        <ele>222</ele>
        <time>2021-08-08T08:42:28Z</time>
      </trkpt>
      <trkpt lat="48.90568" lon="7.41375">
        <ele>222</ele>
        <time>2021-08-08T08:42:29Z</time>
      </trkpt>
      <trkpt lat="48.90566" lon="7.41371">
        <ele>222</ele>
        <time>2021-08-08T08:42:30Z</time>
      </trkpt>
      <trkpt lat="48.90564" lon="7.41369">
        <ele>222</ele>
        <time>2021-08-08T08:42:31Z</time>
      </trkpt>
      <trkpt lat="48.90564" lon="7.41369">
        <ele>223</ele>
        <time>2021-08-08T08:42:32Z</time>
      </trkpt>
      <trkpt lat="48.90562" lon="7.41365">
        <ele>223</ele>
        <time>2021-08-08T08:42:33Z</time>
      </trkpt>
      <trkpt lat="48.90562" lon="7.41365">
        <ele>223</ele>
        <time>2021-08-08T08:42:34Z</time>
      </trkpt>
      <trkpt lat="48.9056" lon="7.41361">
        <ele>223</ele>
        <time>2021-08-08T08:42:35Z</time>
      </trkpt>
      <trkpt lat="48.9056" lon="7.41361">
        <ele>223</ele>
        <time>2021-08-08T08:42:36Z</time>
      </trkpt>
      <trkpt lat="48.90559" lon="7.41357">
        <ele>223</ele>
        <time>2021-08-08T08:42:37Z</time>
      </trkpt>
      <trkpt lat="48.90558" lon="7.41355">
        <ele>223</ele>
        <time>2021-08-08T08:42:38Z</time>
      </trkpt>
      <trkpt lat="48.90557" lon="7.41352">
        <ele>223</ele>
        <time>2021-08-08T08:42:39Z</time>
      </trkpt>
      <trkpt lat="48.90557" lon="7.41352">
        <ele>223</ele>
        <time>2021-08-08T08:42:40Z</time>
      </trkpt>
      <trkpt lat="48.90554" lon="7.41347">
        <ele>223</ele>
        <time>2021-08-08T08:42:41Z</time>
      </trkpt>
      <trkpt lat="48.90554" lon="7.41347">
        <ele>223</ele>
        <time>2021-08-08T08:42:42Z</time>
      </trkpt>
      <trkpt lat="48.90553" lon="7.41343">
        <ele>223</ele>
        <time>2021-08-08T08:42:43Z</time>
      </trkpt>
      <trkpt lat="48.90553" lon="7.41343">
        <ele>223</ele>
        <time>2021-08-08T08:42:44Z</time>
      </trkpt>
      <trkpt lat="48.90552" lon="7.4134">
        <ele>223</ele>
        <time>2021-08-08T08:42:45Z</time>
      </trkpt>
      <trkpt lat="48.90552" lon="7.4134">
        <ele>224</ele>
        <time>2021-08-08T08:42:46Z</time>
      </trkpt>
      <trkpt lat="48.9055" lon="7.41335">
        <ele>224</ele>
        <time>2021-08-08T08:42:47Z</time>
      </trkpt>
      <trkpt lat="48.90549" lon="7.41334">
        <ele>224</ele>
        <time>2021-08-08T08:42:48Z</time>
      </trkpt>
      <trkpt lat="48.90547" lon="7.41331">
        <ele>224</ele>
        <time>2021-08-08T08:42:49Z</time>
      </trkpt>
      <trkpt lat="48.90547" lon="7.41331">
        <ele>224</ele>
        <time>2021-08-08T08:42:50Z</time>
      </trkpt>
      <trkpt lat="48.90545" lon="7.41326">
        <ele>224</ele>
        <time>2021-08-08T08:42:51Z</time>
      </trkpt>
      <trkpt lat="48.90545" lon="7.41326">
        <ele>224</ele>
        <time>2021-08-08T08:42:52Z</time>
      </trkpt>
      <trkpt lat="48.90543" lon="7.4132">
        <ele>224</ele>
        <time>2021-08-08T08:42:53Z</time>
      </trkpt>
      <trkpt lat="48.90542" lon="7.41318">
        <ele>225</ele>
        <time>2021-08-08T08:42:54Z</time>
      </trkpt>
      <trkpt lat="48.90542" lon="7.41318">
        <ele>225</ele>
        <time>2021-08-08T08:42:55Z</time>
      </trkpt>
      <trkpt lat="48.90538" lon="7.4131">
        <ele>225</ele>
        <time>2021-08-08T08:42:56Z</time>
      </trkpt>
      <trkpt lat="48.90536" lon="7.41306">
        <ele>225</ele>
        <time>2021-08-08T08:42:57Z</time>
      </trkpt>
      <trkpt lat="48.90536" lon="7.41306">
        <ele>226</ele>
        <time>2021-08-08T08:42:58Z</time>
      </trkpt>
      <trkpt lat="48.90534" lon="7.413">
        <ele>226</ele>
        <time>2021-08-08T08:42:59Z</time>
      </trkpt>
      <trkpt lat="48.90532" lon="7.41297">
        <ele>226</ele>
        <time>2021-08-08T08:43:00Z</time>
      </trkpt>
      <trkpt lat="48.90531" lon="7.41294">
        <ele>226</ele>
        <time>2021-08-08T08:43:01Z</time>
      </trkpt>
      <trkpt lat="48.90531" lon="7.41294">
        <ele>227</ele>
        <time>2021-08-08T08:43:02Z</time>
      </trkpt>
      <trkpt lat="48.90528" lon="7.41289">
        <ele>227</ele>
        <time>2021-08-08T08:43:03Z</time>
      </trkpt>
      <trkpt lat="48.90528" lon="7.41289">
        <ele>227</ele>
        <time>2021-08-08T08:43:04Z</time>
      </trkpt>
      <trkpt lat="48.90526" lon="7.41282">
        <ele>227</ele>
        <time>2021-08-08T08:43:05Z</time>
      </trkpt>
      <trkpt lat="48.90526" lon="7.41282">
        <ele>228</ele>
        <time>2021-08-08T08:43:06Z</time>
      </trkpt>
      <trkpt lat="48.90523" lon="7.41277">
        <ele>228</ele>
        <time>2021-08-08T08:43:07Z</time>
      </trkpt>
      <trkpt lat="48.90523" lon="7.41277">
        <ele>228</ele>
        <time>2021-08-08T08:43:08Z</time>
      </trkpt>
      <trkpt lat="48.90521" lon="7.41273">
        <ele>228</ele>
        <time>2021-08-08T08:43:09Z</time>
      </trkpt>
      <trkpt lat="48.90521" lon="7.41273">
        <ele>228</ele>
        <time>2021-08-08T08:43:10Z</time>
      </trkpt>
      <trkpt lat="48.90519" lon="7.41267">
        <ele>228</ele>
        <time>2021-08-08T08:43:11Z</time>
      </trkpt>
      <trkpt lat="48.90519" lon="7.41267">
        <ele>228</ele>
        <time>2021-08-08T08:43:12Z</time>
      </trkpt>
      <trkpt lat="48.90517" lon="7.41262">
        <ele>228</ele>
        <time>2021-08-08T08:43:13Z</time>
      </trkpt>
      <trkpt lat="48.90517" lon="7.41262">
        <ele>228</ele>
        <time>2021-08-08T08:43:14Z</time>
      </trkpt>
      <trkpt lat="48.90516" lon="7.41258">
        <ele>229</ele>
        <time>2021-08-08T08:43:15Z</time>
      </trkpt>
      <trkpt lat="48.90515" lon="7.41256">
        <ele>229</ele>
        <time>2021-08-08T08:43:16Z</time>
      </trkpt>
      <trkpt lat="48.90515" lon="7.41256">
        <ele>229</ele>
        <time>2021-08-08T08:43:17Z</time>
      </trkpt>
      <trkpt lat="48.90514" lon="7.41251">
        <ele>229</ele>
        <time>2021-08-08T08:43:18Z</time>
      </trkpt>
      <trkpt lat="48.90513" lon="7.41248">
        <ele>229</ele>
        <time>2021-08-08T08:43:19Z</time>
      </trkpt>
      <trkpt lat="48.90513" lon="7.41248">
        <ele>229</ele>
        <time>2021-08-08T08:43:20Z</time>
      </trkpt>
      <trkpt lat="48.90511" lon="7.41243">
        <ele>229</ele>
        <time>2021-08-08T08:43:21Z</time>
      </trkpt>
      <trkpt lat="48.90511" lon="7.41243">
        <ele>229</ele>
        <time>2021-08-08T08:43:22Z</time>
      </trkpt>
      <trkpt lat="48.90509" lon="7.41238">
        <ele>229</ele>
        <time>2021-08-08T08:43:23Z</time>
      </trkpt>
      <trkpt lat="48.90509" lon="7.41238">
        <ele>229</ele>
        <time>2021-08-08T08:43:24Z</time>
      </trkpt>
      <trkpt lat="48.90505" lon="7.41235">
        <ele>229</ele>
        <time>2021-08-08T08:43:25Z</time>
      </trkpt>
      <trkpt lat="48.90505" lon="7.41235">
        <ele>229</ele>
        <time>2021-08-08T08:43:26Z</time>
      </trkpt>
      <trkpt lat="48.905" lon="7.41228">
        <ele>230</ele>
        <time>2021-08-08T08:43:27Z</time>
      </trkpt>
      <trkpt lat="48.905" lon="7.41228">
        <ele>230</ele>
        <time>2021-08-08T08:43:28Z</time>
      </trkpt>
      <trkpt lat="48.90496" lon="7.41222">
        <ele>230</ele>
        <time>2021-08-08T08:43:29Z</time>
      </trkpt>
      <trkpt lat="48.90496" lon="7.41222">
        <ele>230</ele>
        <time>2021-08-08T08:43:30Z</time>
      </trkpt>
      <trkpt lat="48.90492" lon="7.41218">
        <ele>230</ele>
        <time>2021-08-08T08:43:31Z</time>
      </trkpt>
      <trkpt lat="48.90492" lon="7.41218">
        <ele>230</ele>
        <time>2021-08-08T08:43:32Z</time>
      </trkpt>
      <trkpt lat="48.90489" lon="7.41217">
        <ele>230</ele>
        <time>2021-08-08T08:43:33Z</time>
      </trkpt>
      <trkpt lat="48.90489" lon="7.41217">
        <ele>230</ele>
        <time>2021-08-08T08:43:34Z</time>
      </trkpt>
      <trkpt lat="48.90487" lon="7.41215">
        <ele>230</ele>
        <time>2021-08-08T08:43:35Z</time>
      </trkpt>
      <trkpt lat="48.90487" lon="7.41215">
        <ele>230</ele>
        <time>2021-08-08T08:43:36Z</time>
      </trkpt>
      <trkpt lat="48.90484" lon="7.41211">
        <ele>231</ele>
        <time>2021-08-08T08:43:37Z</time>
      </trkpt>
      <trkpt lat="48.90484" lon="7.41211">
        <ele>231</ele>
        <time>2021-08-08T08:43:38Z</time>
      </trkpt>
      <trkpt lat="48.90482" lon="7.41207">
        <ele>231</ele>
        <time>2021-08-08T08:43:39Z</time>
      </trkpt>
      <trkpt lat="48.90482" lon="7.41207">
        <ele>231</ele>
        <time>2021-08-08T08:43:40Z</time>
      </trkpt>
      <trkpt lat="48.90479" lon="7.41203">
        <ele>231</ele>
        <time>2021-08-08T08:43:41Z</time>
      </trkpt>
      <trkpt lat="48.90479" lon="7.41203">
        <ele>231</ele>
        <time>2021-08-08T08:43:42Z</time>
      </trkpt>
      <trkpt lat="48.90476" lon="7.41199">
        <ele>232</ele>
        <time>2021-08-08T08:43:43Z</time>
      </trkpt>
      <trkpt lat="48.90476" lon="7.41199">
        <ele>232</ele>
        <time>2021-08-08T08:43:44Z</time>
      </trkpt>
      <trkpt lat="48.90473" lon="7.41196">
        <ele>232</ele>
        <time>2021-08-08T08:43:45Z</time>
      </trkpt>
      <trkpt lat="48.90473" lon="7.41196">
        <ele>232</ele>
        <time>2021-08-08T08:43:46Z</time>
      </trkpt>
      <trkpt lat="48.90469" lon="7.41191">
        <ele>233</ele>
        <time>2021-08-08T08:43:47Z</time>
      </trkpt>
      <trkpt lat="48.90469" lon="7.41191">
        <ele>233</ele>
        <time>2021-08-08T08:43:48Z</time>
      </trkpt>
      <trkpt lat="48.90466" lon="7.41187">
        <ele>233</ele>
        <time>2021-08-08T08:43:49Z</time>
      </trkpt>
      <trkpt lat="48.90465" lon="7.41184">
        <ele>233</ele>
        <time>2021-08-08T08:43:50Z</time>
      </trkpt>
      <trkpt lat="48.90463" lon="7.41181">
        <ele>233</ele>
        <time>2021-08-08T08:43:51Z</time>
      </trkpt>
      <trkpt lat="48.90463" lon="7.41181">
        <ele>233</ele>
        <time>2021-08-08T08:43:52Z</time>
      </trkpt>
      <trkpt lat="48.9046" lon="7.41176">
        <ele>234</ele>
        <time>2021-08-08T08:43:53Z</time>
      </trkpt>
      <trkpt lat="48.9046" lon="7.41176">
        <ele>234</ele>
        <time>2021-08-08T08:43:54Z</time>
      </trkpt>
      <trkpt lat="48.90458" lon="7.41171">
        <ele>234</ele>
        <time>2021-08-08T08:43:55Z</time>
      </trkpt>
      <trkpt lat="48.90458" lon="7.41171">
        <ele>234</ele>
        <time>2021-08-08T08:43:56Z</time>
      </trkpt>
      <trkpt lat="48.90455" lon="7.41165">
        <ele>235</ele>
        <time>2021-08-08T08:43:57Z</time>
      </trkpt>
      <trkpt lat="48.90453" lon="7.41162">
        <ele>235</ele>
        <time>2021-08-08T08:43:58Z</time>
      </trkpt>
      <trkpt lat="48.90453" lon="7.41162">
        <ele>235</ele>
        <time>2021-08-08T08:43:59Z</time>
      </trkpt>
      <trkpt lat="48.90448" lon="7.41157">
        <ele>235</ele>
        <time>2021-08-08T08:44:00Z</time>
      </trkpt>
      <trkpt lat="48.90445" lon="7.41154">
        <ele>235</ele>
        <time>2021-08-08T08:44:01Z</time>
      </trkpt>
      <trkpt lat="48.90443" lon="7.41151">
        <ele>235</ele>
        <time>2021-08-08T08:44:02Z</time>
      </trkpt>
      <trkpt lat="48.90443" lon="7.41151">
        <ele>235</ele>
        <time>2021-08-08T08:44:03Z</time>
      </trkpt>
      <trkpt lat="48.90439" lon="7.41146">
        <ele>235</ele>
        <time>2021-08-08T08:44:04Z</time>
      </trkpt>
      <trkpt lat="48.90439" lon="7.41145">
        <ele>235</ele>
        <time>2021-08-08T08:44:05Z</time>
      </trkpt>
      <trkpt lat="48.90438" lon="7.41144">
        <ele>235</ele>
        <time>2021-08-08T08:44:06Z</time>
      </trkpt>
      <trkpt lat="48.90438" lon="7.41144">
        <ele>236</ele>
        <time>2021-08-08T08:44:07Z</time>
      </trkpt>
      <trkpt lat="48.90435" lon="7.41141">
        <ele>236</ele>
        <time>2021-08-08T08:44:08Z</time>
      </trkpt>
      <trkpt lat="48.90435" lon="7.41141">
        <ele>236</ele>
        <time>2021-08-08T08:44:09Z</time>
      </trkpt>
      <trkpt lat="48.90432" lon="7.41139">
        <ele>236</ele>
        <time>2021-08-08T08:44:10Z</time>
      </trkpt>
      <trkpt lat="48.90432" lon="7.41138">
        <ele>237</ele>
        <time>2021-08-08T08:44:11Z</time>
      </trkpt>
      <trkpt lat="48.90432" lon="7.41138">
        <ele>237</ele>
        <time>2021-08-08T08:44:12Z</time>
      </trkpt>
      <trkpt lat="48.90429" lon="7.41135">
        <ele>237</ele>
        <time>2021-08-08T08:44:13Z</time>
      </trkpt>
      <trkpt lat="48.90429" lon="7.41135">
        <ele>237</ele>
        <time>2021-08-08T08:44:14Z</time>
      </trkpt>
      <trkpt lat="48.90426" lon="7.41133">
        <ele>237</ele>
        <time>2021-08-08T08:44:15Z</time>
      </trkpt>
      <trkpt lat="48.90426" lon="7.41133">
        <ele>237</ele>
        <time>2021-08-08T08:44:16Z</time>
      </trkpt>
      <trkpt lat="48.90424" lon="7.41132">
        <ele>238</ele>
        <time>2021-08-08T08:44:17Z</time>
      </trkpt>
      <trkpt lat="48.90424" lon="7.41132">
        <ele>238</ele>
        <time>2021-08-08T08:44:18Z</time>
      </trkpt>
      <trkpt lat="48.90421" lon="7.4113">
        <ele>238</ele>
        <time>2021-08-08T08:44:19Z</time>
      </trkpt>
      <trkpt lat="48.9042" lon="7.41129">
        <ele>238</ele>
        <time>2021-08-08T08:44:20Z</time>
      </trkpt>
      <trkpt lat="48.9042" lon="7.41129">
        <ele>238</ele>
        <time>2021-08-08T08:44:21Z</time>
      </trkpt>
      <trkpt lat="48.90416" lon="7.41126">
        <ele>239</ele>
        <time>2021-08-08T08:44:22Z</time>
      </trkpt>
      <trkpt lat="48.90416" lon="7.41126">
        <ele>239</ele>
        <time>2021-08-08T08:44:23Z</time>
      </trkpt>
      <trkpt lat="48.90413" lon="7.41123">
        <ele>239</ele>
        <time>2021-08-08T08:44:24Z</time>
      </trkpt>
      <trkpt lat="48.90411" lon="7.41121">
        <ele>239</ele>
        <time>2021-08-08T08:44:25Z</time>
      </trkpt>
      <trkpt lat="48.90411" lon="7.41121">
        <ele>239</ele>
        <time>2021-08-08T08:44:26Z</time>
      </trkpt>
      <trkpt lat="48.90405" lon="7.41117">
        <ele>239</ele>
        <time>2021-08-08T08:44:27Z</time>
      </trkpt>
      <trkpt lat="48.90405" lon="7.41117">
        <ele>240</ele>
        <time>2021-08-08T08:44:28Z</time>
      </trkpt>
      <trkpt lat="48.90399" lon="7.41112">
        <ele>240</ele>
        <time>2021-08-08T08:44:29Z</time>
      </trkpt>
      <trkpt lat="48.90398" lon="7.41111">
        <ele>240</ele>
        <time>2021-08-08T08:44:30Z</time>
      </trkpt>
      <trkpt lat="48.90396" lon="7.4111">
        <ele>240</ele>
        <time>2021-08-08T08:44:31Z</time>
      </trkpt>
      <trkpt lat="48.90396" lon="7.4111">
        <ele>241</ele>
        <time>2021-08-08T08:44:32Z</time>
      </trkpt>
      <trkpt lat="48.90392" lon="7.41105">
        <ele>241</ele>
        <time>2021-08-08T08:44:33Z</time>
      </trkpt>
      <trkpt lat="48.90391" lon="7.41103">
        <ele>241</ele>
        <time>2021-08-08T08:44:34Z</time>
      </trkpt>
      <trkpt lat="48.90391" lon="7.41103">
        <ele>241</ele>
        <time>2021-08-08T08:44:35Z</time>
      </trkpt>
      <trkpt lat="48.90388" lon="7.41099">
        <ele>241</ele>
        <time>2021-08-08T08:44:36Z</time>
      </trkpt>
      <trkpt lat="48.90388" lon="7.41099">
        <ele>241</ele>
        <time>2021-08-08T08:44:37Z</time>
      </trkpt>
      <trkpt lat="48.90385" lon="7.41095">
        <ele>242</ele>
        <time>2021-08-08T08:44:38Z</time>
      </trkpt>
      <trkpt lat="48.90384" lon="7.41093">
        <ele>242</ele>
        <time>2021-08-08T08:44:39Z</time>
      </trkpt>
      <trkpt lat="48.90384" lon="7.41093">
        <ele>242</ele>
        <time>2021-08-08T08:44:40Z</time>
      </trkpt>
      <trkpt lat="48.90382" lon="7.41091">
        <ele>242</ele>
        <time>2021-08-08T08:44:41Z</time>
      </trkpt>
      <trkpt lat="48.90382" lon="7.41091">
        <ele>242</ele>
        <time>2021-08-08T08:44:42Z</time>
      </trkpt>
      <trkpt lat="48.90379" lon="7.41089">
        <ele>242</ele>
        <time>2021-08-08T08:44:43Z</time>
      </trkpt>
      <trkpt lat="48.90379" lon="7.41089">
        <ele>243</ele>
        <time>2021-08-08T08:44:44Z</time>
      </trkpt>
      <trkpt lat="48.90374" lon="7.41088">
        <ele>243</ele>
        <time>2021-08-08T08:44:45Z</time>
      </trkpt>
      <trkpt lat="48.90372" lon="7.41087">
        <ele>243</ele>
        <time>2021-08-08T08:44:46Z</time>
      </trkpt>
      <trkpt lat="48.90372" lon="7.41087">
        <ele>243</ele>
        <time>2021-08-08T08:44:47Z</time>
      </trkpt>
      <trkpt lat="48.90368" lon="7.41085">
        <ele>244</ele>
        <time>2021-08-08T08:44:48Z</time>
      </trkpt>
      <trkpt lat="48.90367" lon="7.41084">
        <ele>244</ele>
        <time>2021-08-08T08:44:49Z</time>
      </trkpt>
      <trkpt lat="48.90367" lon="7.41084">
        <ele>244</ele>
        <time>2021-08-08T08:44:50Z</time>
      </trkpt>
      <trkpt lat="48.90364" lon="7.41082">
        <ele>244</ele>
        <time>2021-08-08T08:44:51Z</time>
      </trkpt>
      <trkpt lat="48.90364" lon="7.41082">
        <ele>245</ele>
        <time>2021-08-08T08:44:52Z</time>
      </trkpt>
      <trkpt lat="48.9036" lon="7.41081">
        <ele>245</ele>
        <time>2021-08-08T08:44:53Z</time>
      </trkpt>
      <trkpt lat="48.90358" lon="7.4108">
        <ele>245</ele>
        <time>2021-08-08T08:44:54Z</time>
      </trkpt>
      <trkpt lat="48.90357" lon="7.4108">
        <ele>245</ele>
        <time>2021-08-08T08:44:55Z</time>
      </trkpt>
      <trkpt lat="48.90357" lon="7.4108">
        <ele>246</ele>
        <time>2021-08-08T08:44:56Z</time>
      </trkpt>
      <trkpt lat="48.90353" lon="7.41078">
        <ele>246</ele>
        <time>2021-08-08T08:44:57Z</time>
      </trkpt>
      <trkpt lat="48.90353" lon="7.41078">
        <ele>246</ele>
        <time>2021-08-08T08:44:58Z</time>
      </trkpt>
      <trkpt lat="48.90348" lon="7.41076">
        <ele>246</ele>
        <time>2021-08-08T08:44:59Z</time>
      </trkpt>
      <trkpt lat="48.90348" lon="7.41076">
        <ele>246</ele>
        <time>2021-08-08T08:45:00Z</time>
      </trkpt>
      <trkpt lat="48.90344" lon="7.41073">
        <ele>246</ele>
        <time>2021-08-08T08:45:01Z</time>
      </trkpt>
      <trkpt lat="48.90344" lon="7.41073">
        <ele>247</ele>
        <time>2021-08-08T08:45:02Z</time>
      </trkpt>
      <trkpt lat="48.90339" lon="7.4107">
        <ele>247</ele>
        <time>2021-08-08T08:45:03Z</time>
      </trkpt>
      <trkpt lat="48.90339" lon="7.4107">
        <ele>247</ele>
        <time>2021-08-08T08:45:04Z</time>
      </trkpt>
      <trkpt lat="48.90336" lon="7.41068">
        <ele>247</ele>
        <time>2021-08-08T08:45:05Z</time>
      </trkpt>
      <trkpt lat="48.90336" lon="7.41068">
        <ele>247</ele>
        <time>2021-08-08T08:45:06Z</time>
      </trkpt>
      <trkpt lat="48.90335" lon="7.41066">
        <ele>247</ele>
        <time>2021-08-08T08:45:07Z</time>
      </trkpt>
      <trkpt lat="48.90335" lon="7.41066">
        <ele>247</ele>
        <time>2021-08-08T08:45:08Z</time>
      </trkpt>
      <trkpt lat="48.90334" lon="7.41065">
        <ele>247</ele>
        <time>2021-08-08T08:45:09Z</time>
      </trkpt>
      <trkpt lat="48.90334" lon="7.41065">
        <ele>247</ele>
        <time>2021-08-08T08:45:10Z</time>
      </trkpt>
      <trkpt lat="48.90331" lon="7.41063">
        <ele>247</ele>
        <time>2021-08-08T08:45:11Z</time>
      </trkpt>
      <trkpt lat="48.90331" lon="7.41063">
        <ele>248</ele>
        <time>2021-08-08T08:45:12Z</time>
      </trkpt>
      <trkpt lat="48.90328" lon="7.41062">
        <ele>248</ele>
        <time>2021-08-08T08:45:13Z</time>
      </trkpt>
      <trkpt lat="48.90328" lon="7.41062">
        <ele>248</ele>
        <time>2021-08-08T08:45:14Z</time>
      </trkpt>
      <trkpt lat="48.90324" lon="7.4106">
        <ele>249</ele>
        <time>2021-08-08T08:45:15Z</time>
      </trkpt>
      <trkpt lat="48.90324" lon="7.4106">
        <ele>249</ele>
        <time>2021-08-08T08:45:16Z</time>
      </trkpt>
      <trkpt lat="48.90321" lon="7.41058">
        <ele>249</ele>
        <time>2021-08-08T08:45:17Z</time>
      </trkpt>
      <trkpt lat="48.90321" lon="7.41058">
        <ele>249</ele>
        <time>2021-08-08T08:45:18Z</time>
      </trkpt>
      <trkpt lat="48.90318" lon="7.41057">
        <ele>250</ele>
        <time>2021-08-08T08:45:19Z</time>
      </trkpt>
      <trkpt lat="48.90316" lon="7.41055">
        <ele>250</ele>
        <time>2021-08-08T08:45:20Z</time>
      </trkpt>
      <trkpt lat="48.90315" lon="7.41054">
        <ele>250</ele>
        <time>2021-08-08T08:45:21Z</time>
      </trkpt>
      <trkpt lat="48.90315" lon="7.41054">
        <ele>250</ele>
        <time>2021-08-08T08:45:22Z</time>
      </trkpt>
      <trkpt lat="48.90312" lon="7.41053">
        <ele>251</ele>
        <time>2021-08-08T08:45:23Z</time>
      </trkpt>
      <trkpt lat="48.90312" lon="7.41053">
        <ele>251</ele>
        <time>2021-08-08T08:45:24Z</time>
      </trkpt>
      <trkpt lat="48.90309" lon="7.41051">
        <ele>251</ele>
        <time>2021-08-08T08:45:25Z</time>
      </trkpt>
      <trkpt lat="48.90308" lon="7.4105">
        <ele>251</ele>
        <time>2021-08-08T08:45:26Z</time>
      </trkpt>
      <trkpt lat="48.90308" lon="7.4105">
        <ele>251</ele>
        <time>2021-08-08T08:45:27Z</time>
      </trkpt>
      <trkpt lat="48.90305" lon="7.41048">
        <ele>251</ele>
        <time>2021-08-08T08:45:28Z</time>
      </trkpt>
      <trkpt lat="48.90304" lon="7.41047">
        <ele>252</ele>
        <time>2021-08-08T08:45:29Z</time>
      </trkpt>
      <trkpt lat="48.90304" lon="7.41047">
        <ele>252</ele>
        <time>2021-08-08T08:45:30Z</time>
      </trkpt>
      <trkpt lat="48.90299" lon="7.41045">
        <ele>252</ele>
        <time>2021-08-08T08:45:31Z</time>
      </trkpt>
      <trkpt lat="48.90299" lon="7.41045">
        <ele>252</ele>
        <time>2021-08-08T08:45:32Z</time>
      </trkpt>
      <trkpt lat="48.90295" lon="7.41043">
        <ele>252</ele>
        <time>2021-08-08T08:45:33Z</time>
      </trkpt>
      <trkpt lat="48.90293" lon="7.41042">
        <ele>253</ele>
        <time>2021-08-08T08:45:34Z</time>
      </trkpt>
      <trkpt lat="48.90291" lon="7.4104">
        <ele>253</ele>
        <time>2021-08-08T08:45:35Z</time>
      </trkpt>
      <trkpt lat="48.90291" lon="7.4104">
        <ele>253</ele>
        <time>2021-08-08T08:45:36Z</time>
      </trkpt>
      <trkpt lat="48.90289" lon="7.41038">
        <ele>253</ele>
        <time>2021-08-08T08:45:37Z</time>
      </trkpt>
      <trkpt lat="48.90289" lon="7.41038">
        <ele>254</ele>
        <time>2021-08-08T08:45:38Z</time>
      </trkpt>
      <trkpt lat="48.90286" lon="7.41037">
        <ele>254</ele>
        <time>2021-08-08T08:45:39Z</time>
      </trkpt>
      <trkpt lat="48.90286" lon="7.41037">
        <ele>254</ele>
        <time>2021-08-08T08:45:40Z</time>
      </trkpt>
      <trkpt lat="48.90284" lon="7.41036">
        <ele>254</ele>
        <time>2021-08-08T08:45:41Z</time>
      </trkpt>
      <trkpt lat="48.90282" lon="7.41035">
        <ele>254</ele>
        <time>2021-08-08T08:45:42Z</time>
      </trkpt>
      <trkpt lat="48.9028" lon="7.41035">
        <ele>254</ele>
        <time>2021-08-08T08:45:43Z</time>
      </trkpt>
      <trkpt lat="48.9028" lon="7.41035">
        <ele>254</ele>
        <time>2021-08-08T08:45:44Z</time>
      </trkpt>
      <trkpt lat="48.90276" lon="7.41033">
        <ele>254</ele>
        <time>2021-08-08T08:45:45Z</time>
      </trkpt>
      <trkpt lat="48.90276" lon="7.41033">
        <ele>255</ele>
        <time>2021-08-08T08:45:46Z</time>
      </trkpt>
      <trkpt lat="48.90273" lon="7.4103">
        <ele>255</ele>
        <time>2021-08-08T08:45:47Z</time>
      </trkpt>
      <trkpt lat="48.90273" lon="7.4103">
        <ele>255</ele>
        <time>2021-08-08T08:45:48Z</time>
      </trkpt>
      <trkpt lat="48.90272" lon="7.41027">
        <ele>255</ele>
        <time>2021-08-08T08:45:49Z</time>
      </trkpt>
      <trkpt lat="48.90272" lon="7.41027">
        <ele>256</ele>
        <time>2021-08-08T08:45:50Z</time>
      </trkpt>
      <trkpt lat="48.90268" lon="7.41025">
        <ele>256</ele>
        <time>2021-08-08T08:45:51Z</time>
      </trkpt>
      <trkpt lat="48.90268" lon="7.41025">
        <ele>256</ele>
        <time>2021-08-08T08:45:52Z</time>
      </trkpt>
      <trkpt lat="48.90265" lon="7.41023">
        <ele>256</ele>
        <time>2021-08-08T08:45:53Z</time>
      </trkpt>
      <trkpt lat="48.90265" lon="7.41023">
        <ele>256</ele>
        <time>2021-08-08T08:45:54Z</time>
      </trkpt>
      <trkpt lat="48.90262" lon="7.41021">
        <ele>256</ele>
        <time>2021-08-08T08:45:55Z</time>
      </trkpt>
      <trkpt lat="48.90262" lon="7.41021">
        <ele>257</ele>
        <time>2021-08-08T08:45:56Z</time>
      </trkpt>
      <trkpt lat="48.9026" lon="7.41019">
        <ele>257</ele>
        <time>2021-08-08T08:45:57Z</time>
      </trkpt>
      <trkpt lat="48.9026" lon="7.41019">
        <ele>257</ele>
        <time>2021-08-08T08:45:58Z</time>
      </trkpt>
      <trkpt lat="48.90258" lon="7.41018">
        <ele>257</ele>
        <time>2021-08-08T08:45:59Z</time>
      </trkpt>
      <trkpt lat="48.90257" lon="7.41017">
        <ele>258</ele>
        <time>2021-08-08T08:46:00Z</time>
      </trkpt>
      <trkpt lat="48.90256" lon="7.41017">
        <ele>258</ele>
        <time>2021-08-08T08:46:01Z</time>
      </trkpt>
      <trkpt lat="48.90256" lon="7.41017">
        <ele>258</ele>
        <time>2021-08-08T08:46:02Z</time>
      </trkpt>
      <trkpt lat="48.90252" lon="7.41014">
        <ele>258</ele>
        <time>2021-08-08T08:46:03Z</time>
      </trkpt>
      <trkpt lat="48.90252" lon="7.41014">
        <ele>259</ele>
        <time>2021-08-08T08:46:04Z</time>
      </trkpt>
      <trkpt lat="48.90246" lon="7.41012">
        <ele>259</ele>
        <time>2021-08-08T08:46:05Z</time>
      </trkpt>
      <trkpt lat="48.90246" lon="7.41012">
        <ele>259</ele>
        <time>2021-08-08T08:46:06Z</time>
      </trkpt>
      <trkpt lat="48.90243" lon="7.4101">
        <ele>259</ele>
        <time>2021-08-08T08:46:07Z</time>
      </trkpt>
      <trkpt lat="48.90243" lon="7.4101">
        <ele>259</ele>
        <time>2021-08-08T08:46:08Z</time>
      </trkpt>
      <trkpt lat="48.9024" lon="7.41008">
        <ele>260</ele>
        <time>2021-08-08T08:46:09Z</time>
      </trkpt>
      <trkpt lat="48.90238" lon="7.41007">
        <ele>260</ele>
        <time>2021-08-08T08:46:10Z</time>
      </trkpt>
      <trkpt lat="48.90238" lon="7.41007">
        <ele>260</ele>
        <time>2021-08-08T08:46:11Z</time>
      </trkpt>
      <trkpt lat="48.90235" lon="7.41005">
        <ele>260</ele>
        <time>2021-08-08T08:46:12Z</time>
      </trkpt>
      <trkpt lat="48.90234" lon="7.41003">
        <ele>261</ele>
        <time>2021-08-08T08:46:13Z</time>
      </trkpt>
      <trkpt lat="48.90234" lon="7.41003">
        <ele>261</ele>
        <time>2021-08-08T08:46:14Z</time>
      </trkpt>
      <trkpt lat="48.90232" lon="7.41001">
        <ele>261</ele>
        <time>2021-08-08T08:46:15Z</time>
      </trkpt>
      <trkpt lat="48.9023" lon="7.41">
        <ele>261</ele>
        <time>2021-08-08T08:46:16Z</time>
      </trkpt>
      <trkpt lat="48.9023" lon="7.41">
        <ele>262</ele>
        <time>2021-08-08T08:46:17Z</time>
      </trkpt>
      <trkpt lat="48.90228" lon="7.40999">
        <ele>262</ele>
        <time>2021-08-08T08:46:18Z</time>
      </trkpt>
      <trkpt lat="48.90226" lon="7.40999">
        <ele>262</ele>
        <time>2021-08-08T08:46:19Z</time>
      </trkpt>
      <trkpt lat="48.90226" lon="7.40999">
        <ele>262</ele>
        <time>2021-08-08T08:46:20Z</time>
      </trkpt>
      <trkpt lat="48.90223" lon="7.40997">
        <ele>262</ele>
        <time>2021-08-08T08:46:21Z</time>
      </trkpt>
      <trkpt lat="48.90223" lon="7.40997">
        <ele>262</ele>
        <time>2021-08-08T08:46:22Z</time>
      </trkpt>
      <trkpt lat="48.9022" lon="7.40997">
        <ele>262</ele>
        <time>2021-08-08T08:46:23Z</time>
      </trkpt>
      <trkpt lat="48.90219" lon="7.40996">
        <ele>262</ele>
        <time>2021-08-08T08:46:24Z</time>
      </trkpt>
      <trkpt lat="48.90217" lon="7.40996">
        <ele>263</ele>
        <time>2021-08-08T08:46:25Z</time>
      </trkpt>
      <trkpt lat="48.90217" lon="7.40996">
        <ele>263</ele>
        <time>2021-08-08T08:46:26Z</time>
      </trkpt>
      <trkpt lat="48.90214" lon="7.40997">
        <ele>263</ele>
        <time>2021-08-08T08:46:27Z</time>
      </trkpt>
      <trkpt lat="48.90214" lon="7.40997">
        <ele>263</ele>
        <time>2021-08-08T08:46:28Z</time>
      </trkpt>
      <trkpt lat="48.90211" lon="7.40996">
        <ele>263</ele>
        <time>2021-08-08T08:46:29Z</time>
      </trkpt>
      <trkpt lat="48.9021" lon="7.40997">
        <ele>263</ele>
        <time>2021-08-08T08:46:30Z</time>
      </trkpt>
      <trkpt lat="48.90208" lon="7.40997">
        <ele>263</ele>
        <time>2021-08-08T08:46:31Z</time>
      </trkpt>
      <trkpt lat="48.90208" lon="7.40997">
        <ele>264</ele>
        <time>2021-08-08T08:46:32Z</time>
      </trkpt>
      <trkpt lat="48.90205" lon="7.40996">
        <ele>264</ele>
        <time>2021-08-08T08:46:33Z</time>
      </trkpt>
      <trkpt lat="48.90205" lon="7.40996">
        <ele>264</ele>
        <time>2021-08-08T08:46:34Z</time>
      </trkpt>
      <trkpt lat="48.90203" lon="7.40995">
        <ele>264</ele>
        <time>2021-08-08T08:46:35Z</time>
      </trkpt>
      <trkpt lat="48.90203" lon="7.40995">
        <ele>264</ele>
        <time>2021-08-08T08:46:36Z</time>
      </trkpt>
      <trkpt lat="48.90199" lon="7.40994">
        <ele>264</ele>
        <time>2021-08-08T08:46:37Z</time>
      </trkpt>
      <trkpt lat="48.90199" lon="7.40994">
        <ele>264</ele>
        <time>2021-08-08T08:46:38Z</time>
      </trkpt>
      <trkpt lat="48.90194" lon="7.40995">
        <ele>265</ele>
        <time>2021-08-08T08:46:39Z</time>
      </trkpt>
      <trkpt lat="48.90192" lon="7.40995">
        <ele>265</ele>
        <time>2021-08-08T08:46:40Z</time>
      </trkpt>
      <trkpt lat="48.90192" lon="7.40995">
        <ele>265</ele>
        <time>2021-08-08T08:46:41Z</time>
      </trkpt>
      <trkpt lat="48.90189" lon="7.40994">
        <ele>265</ele>
        <time>2021-08-08T08:46:42Z</time>
      </trkpt>
      <trkpt lat="48.90187" lon="7.40995">
        <ele>266</ele>
        <time>2021-08-08T08:46:43Z</time>
      </trkpt>
      <trkpt lat="48.90187" lon="7.40995">
        <ele>266</ele>
        <time>2021-08-08T08:46:44Z</time>
      </trkpt>
      <trkpt lat="48.90183" lon="7.40997">
        <ele>266</ele>
        <time>2021-08-08T08:46:45Z</time>
      </trkpt>
      <trkpt lat="48.90183" lon="7.40997">
        <ele>266</ele>
        <time>2021-08-08T08:46:46Z</time>
      </trkpt>
      <trkpt lat="48.90181" lon="7.40998">
        <ele>266</ele>
        <time>2021-08-08T08:46:47Z</time>
      </trkpt>
      <trkpt lat="48.90181" lon="7.40998">
        <ele>267</ele>
        <time>2021-08-08T08:46:48Z</time>
      </trkpt>
      <trkpt lat="48.90177" lon="7.40998">
        <ele>267</ele>
        <time>2021-08-08T08:46:49Z</time>
      </trkpt>
      <trkpt lat="48.90177" lon="7.40998">
        <ele>267</ele>
        <time>2021-08-08T08:46:50Z</time>
      </trkpt>
      <trkpt lat="48.90173" lon="7.40998">
        <ele>267</ele>
        <time>2021-08-08T08:46:51Z</time>
      </trkpt>
      <trkpt lat="48.90173" lon="7.40998">
        <ele>268</ele>
        <time>2021-08-08T08:46:52Z</time>
      </trkpt>
      <trkpt lat="48.90171" lon="7.40998">
        <ele>268</ele>
        <time>2021-08-08T08:46:53Z</time>
      </trkpt>
      <trkpt lat="48.90171" lon="7.40998">
        <ele>268</ele>
        <time>2021-08-08T08:46:54Z</time>
      </trkpt>
      <trkpt lat="48.90166" lon="7.40997">
        <ele>268</ele>
        <time>2021-08-08T08:46:55Z</time>
      </trkpt>
      <trkpt lat="48.90166" lon="7.40997">
        <ele>268</ele>
        <time>2021-08-08T08:46:56Z</time>
      </trkpt>
      <trkpt lat="48.90163" lon="7.40996">
        <ele>268</ele>
        <time>2021-08-08T08:46:57Z</time>
      </trkpt>
      <trkpt lat="48.90163" lon="7.40996">
        <ele>268</ele>
        <time>2021-08-08T08:46:58Z</time>
      </trkpt>
      <trkpt lat="48.90161" lon="7.40995">
        <ele>268</ele>
        <time>2021-08-08T08:46:59Z</time>
      </trkpt>
      <trkpt lat="48.90159" lon="7.40995">
        <ele>268</ele>
        <time>2021-08-08T08:47:00Z</time>
      </trkpt>
      <trkpt lat="48.90159" lon="7.40995">
        <ele>268</ele>
        <time>2021-08-08T08:47:01Z</time>
      </trkpt>
      <trkpt lat="48.90155" lon="7.40994">
        <ele>269</ele>
        <time>2021-08-08T08:47:02Z</time>
      </trkpt>
      <trkpt lat="48.90153" lon="7.40994">
        <ele>269</ele>
        <time>2021-08-08T08:47:03Z</time>
      </trkpt>
      <trkpt lat="48.90153" lon="7.40994">
        <ele>269</ele>
        <time>2021-08-08T08:47:04Z</time>
      </trkpt>
      <trkpt lat="48.9015" lon="7.40995">
        <ele>270</ele>
        <time>2021-08-08T08:47:05Z</time>
      </trkpt>
      <trkpt lat="48.9015" lon="7.40995">
        <ele>270</ele>
        <time>2021-08-08T08:47:06Z</time>
      </trkpt>
      <trkpt lat="48.90148" lon="7.40995">
        <ele>270</ele>
        <time>2021-08-08T08:47:07Z</time>
      </trkpt>
      <trkpt lat="48.90148" lon="7.40995">
        <ele>270</ele>
        <time>2021-08-08T08:47:08Z</time>
      </trkpt>
      <trkpt lat="48.90144" lon="7.40994">
        <ele>270</ele>
        <time>2021-08-08T08:47:09Z</time>
      </trkpt>
      <trkpt lat="48.90144" lon="7.40994">
        <ele>271</ele>
        <time>2021-08-08T08:47:10Z</time>
      </trkpt>
      <trkpt lat="48.90139" lon="7.40993">
        <ele>271</ele>
        <time>2021-08-08T08:47:11Z</time>
      </trkpt>
      <trkpt lat="48.90139" lon="7.40993">
        <ele>271</ele>
        <time>2021-08-08T08:47:12Z</time>
      </trkpt>
      <trkpt lat="48.90137" lon="7.40994">
        <ele>271</ele>
        <time>2021-08-08T08:47:13Z</time>
      </trkpt>
      <trkpt lat="48.90137" lon="7.40994">
        <ele>271</ele>
        <time>2021-08-08T08:47:14Z</time>
      </trkpt>
      <trkpt lat="48.90135" lon="7.40993">
        <ele>271</ele>
        <time>2021-08-08T08:47:15Z</time>
      </trkpt>
      <trkpt lat="48.90134" lon="7.40993">
        <ele>271</ele>
        <time>2021-08-08T08:47:16Z</time>
      </trkpt>
      <trkpt lat="48.90134" lon="7.40993">
        <ele>271</ele>
        <time>2021-08-08T08:47:17Z</time>
      </trkpt>
      <trkpt lat="48.90132" lon="7.40994">
        <ele>271</ele>
        <time>2021-08-08T08:47:18Z</time>
      </trkpt>
      <trkpt lat="48.90132" lon="7.40994">
        <ele>271</ele>
        <time>2021-08-08T08:47:19Z</time>
      </trkpt>
      <trkpt lat="48.90129" lon="7.40993">
        <ele>272</ele>
        <time>2021-08-08T08:47:20Z</time>
      </trkpt>
      <trkpt lat="48.90128" lon="7.40993">
        <ele>272</ele>
        <time>2021-08-08T08:47:21Z</time>
      </trkpt>
      <trkpt lat="48.90128" lon="7.40993">
        <ele>272</ele>
        <time>2021-08-08T08:47:22Z</time>
      </trkpt>
      <trkpt lat="48.90126" lon="7.40993">
        <ele>272</ele>
        <time>2021-08-08T08:47:23Z</time>
      </trkpt>
      <trkpt lat="48.90124" lon="7.40993">
        <ele>273</ele>
        <time>2021-08-08T08:47:24Z</time>
      </trkpt>
      <trkpt lat="48.90123" lon="7.40993">
        <ele>273</ele>
        <time>2021-08-08T08:47:25Z</time>
      </trkpt>
      <trkpt lat="48.90123" lon="7.40993">
        <ele>273</ele>
        <time>2021-08-08T08:47:26Z</time>
      </trkpt>
      <trkpt lat="48.90122" lon="7.40992">
        <ele>273</ele>
        <time>2021-08-08T08:47:27Z</time>
      </trkpt>
      <trkpt lat="48.90121" lon="7.40993">
        <ele>273</ele>
        <time>2021-08-08T08:47:28Z</time>
      </trkpt>
      <trkpt lat="48.90121" lon="7.40993">
        <ele>273</ele>
        <time>2021-08-08T08:47:29Z</time>
      </trkpt>
      <trkpt lat="48.90118" lon="7.40992">
        <ele>274</ele>
        <time>2021-08-08T08:47:30Z</time>
      </trkpt>
      <trkpt lat="48.90117" lon="7.40992">
        <ele>274</ele>
        <time>2021-08-08T08:47:31Z</time>
      </trkpt>
      <trkpt lat="48.90117" lon="7.40992">
        <ele>274</ele>
        <time>2021-08-08T08:47:32Z</time>
      </trkpt>
      <trkpt lat="48.90113" lon="7.40992">
        <ele>274</ele>
        <time>2021-08-08T08:47:33Z</time>
      </trkpt>
      <trkpt lat="48.90113" lon="7.40992">
        <ele>274</ele>
        <time>2021-08-08T08:47:34Z</time>
      </trkpt>
      <trkpt lat="48.9011" lon="7.40992">
        <ele>274</ele>
        <time>2021-08-08T08:47:35Z</time>
      </trkpt>
      <trkpt lat="48.90109" lon="7.40992">
        <ele>275</ele>
        <time>2021-08-08T08:47:36Z</time>
      </trkpt>
      <trkpt lat="48.90109" lon="7.40992">
        <ele>275</ele>
        <time>2021-08-08T08:47:37Z</time>
      </trkpt>
      <trkpt lat="48.90107" lon="7.40991">
        <ele>275</ele>
        <time>2021-08-08T08:47:38Z</time>
      </trkpt>
      <trkpt lat="48.90106" lon="7.40991">
        <ele>275</ele>
        <time>2021-08-08T08:47:39Z</time>
      </trkpt>
      <trkpt lat="48.90106" lon="7.40991">
        <ele>276</ele>
        <time>2021-08-08T08:47:40Z</time>
      </trkpt>
      <trkpt lat="48.90102" lon="7.4099">
        <ele>276</ele>
        <time>2021-08-08T08:47:41Z</time>
      </trkpt>
      <trkpt lat="48.90102" lon="7.4099">
        <ele>276</ele>
        <time>2021-08-08T08:47:42Z</time>
      </trkpt>
      <trkpt lat="48.90097" lon="7.4099">
        <ele>276</ele>
        <time>2021-08-08T08:47:43Z</time>
      </trkpt>
      <trkpt lat="48.90097" lon="7.4099">
        <ele>276</ele>
        <time>2021-08-08T08:47:44Z</time>
      </trkpt>
      <trkpt lat="48.90093" lon="7.4099">
        <ele>276</ele>
        <time>2021-08-08T08:47:45Z</time>
      </trkpt>
      <trkpt lat="48.90093" lon="7.4099">
        <ele>276</ele>
        <time>2021-08-08T08:47:46Z</time>
      </trkpt>
      <trkpt lat="48.9009" lon="7.40991">
        <ele>277</ele>
        <time>2021-08-08T08:47:47Z</time>
      </trkpt>
      <trkpt lat="48.9009" lon="7.40991">
        <ele>277</ele>
        <time>2021-08-08T08:47:48Z</time>
      </trkpt>
      <trkpt lat="48.90086" lon="7.40991">
        <ele>277</ele>
        <time>2021-08-08T08:47:49Z</time>
      </trkpt>
      <trkpt lat="48.90086" lon="7.40991">
        <ele>277</ele>
        <time>2021-08-08T08:47:50Z</time>
      </trkpt>
      <trkpt lat="48.90082" lon="7.40991">
        <ele>277</ele>
        <time>2021-08-08T08:47:51Z</time>
      </trkpt>
      <trkpt lat="48.90082" lon="7.40991">
        <ele>277</ele>
        <time>2021-08-08T08:47:52Z</time>
      </trkpt>
      <trkpt lat="48.90079" lon="7.40991">
        <ele>278</ele>
        <time>2021-08-08T08:47:53Z</time>
      </trkpt>
      <trkpt lat="48.90079" lon="7.40991">
        <ele>278</ele>
        <time>2021-08-08T08:47:54Z</time>
      </trkpt>
      <trkpt lat="48.90075" lon="7.40991">
        <ele>278</ele>
        <time>2021-08-08T08:47:55Z</time>
      </trkpt>
      <trkpt lat="48.90075" lon="7.40991">
        <ele>278</ele>
        <time>2021-08-08T08:47:56Z</time>
      </trkpt>
      <trkpt lat="48.90072" lon="7.40991">
        <ele>279</ele>
        <time>2021-08-08T08:47:57Z</time>
      </trkpt>
      <trkpt lat="48.90072" lon="7.40991">
        <ele>279</ele>
        <time>2021-08-08T08:47:58Z</time>
      </trkpt>
      <trkpt lat="48.90069" lon="7.4099">
        <ele>279</ele>
        <time>2021-08-08T08:47:59Z</time>
      </trkpt>
      <trkpt lat="48.90069" lon="7.4099">
        <ele>280</ele>
        <time>2021-08-08T08:48:00Z</time>
      </trkpt>
      <trkpt lat="48.90067" lon="7.40989">
        <ele>280</ele>
        <time>2021-08-08T08:48:01Z</time>
      </trkpt>
      <trkpt lat="48.90067" lon="7.40989">
        <ele>280</ele>
        <time>2021-08-08T08:48:02Z</time>
      </trkpt>
      <trkpt lat="48.90065" lon="7.40988">
        <ele>280</ele>
        <time>2021-08-08T08:48:03Z</time>
      </trkpt>
      <trkpt lat="48.90065" lon="7.40988">
        <ele>280</ele>
        <time>2021-08-08T08:48:04Z</time>
      </trkpt>
      <trkpt lat="48.90063" lon="7.40988">
        <ele>280</ele>
        <time>2021-08-08T08:48:05Z</time>
      </trkpt>
      <trkpt lat="48.90063" lon="7.40988">
        <ele>280</ele>
        <time>2021-08-08T08:48:06Z</time>
      </trkpt>
      <trkpt lat="48.9006" lon="7.40988">
        <ele>280</ele>
        <time>2021-08-08T08:48:07Z</time>
      </trkpt>
      <trkpt lat="48.9006" lon="7.40988">
        <ele>281</ele>
        <time>2021-08-08T08:48:08Z</time>
      </trkpt>
      <trkpt lat="48.90056" lon="7.40988">
        <ele>281</ele>
        <time>2021-08-08T08:48:09Z</time>
      </trkpt>
      <trkpt lat="48.90056" lon="7.40988">
        <ele>281</ele>
        <time>2021-08-08T08:48:10Z</time>
      </trkpt>
      <trkpt lat="48.90053" lon="7.40989">
        <ele>281</ele>
        <time>2021-08-08T08:48:11Z</time>
      </trkpt>
      <trkpt lat="48.90053" lon="7.40989">
        <ele>283</ele>
        <time>2021-08-08T08:48:12Z</time>
      </trkpt>
      <trkpt lat="48.90047" lon="7.4099">
        <ele>283</ele>
        <time>2021-08-08T08:48:13Z</time>
      </trkpt>
      <trkpt lat="48.90047" lon="7.4099">
        <ele>283</ele>
        <time>2021-08-08T08:48:14Z</time>
      </trkpt>
      <trkpt lat="48.90042" lon="7.40991">
        <ele>283</ele>
        <time>2021-08-08T08:48:15Z</time>
      </trkpt>
      <trkpt lat="48.90042" lon="7.40991">
        <ele>283</ele>
        <time>2021-08-08T08:48:16Z</time>
      </trkpt>
      <trkpt lat="48.9004" lon="7.40991">
        <ele>283</ele>
        <time>2021-08-08T08:48:17Z</time>
      </trkpt>
      <trkpt lat="48.90038" lon="7.4099">
        <ele>283</ele>
        <time>2021-08-08T08:48:18Z</time>
      </trkpt>
      <trkpt lat="48.90038" lon="7.4099">
        <ele>283</ele>
        <time>2021-08-08T08:48:19Z</time>
      </trkpt>
      <trkpt lat="48.90036" lon="7.40989">
        <ele>283</ele>
        <time>2021-08-08T08:48:20Z</time>
      </trkpt>
      <trkpt lat="48.90034" lon="7.40988">
        <ele>283</ele>
        <time>2021-08-08T08:48:21Z</time>
      </trkpt>
      <trkpt lat="48.90034" lon="7.40988">
        <ele>283</ele>
        <time>2021-08-08T08:48:22Z</time>
      </trkpt>
      <trkpt lat="48.90031" lon="7.40987">
        <ele>283</ele>
        <time>2021-08-08T08:48:23Z</time>
      </trkpt>
      <trkpt lat="48.90031" lon="7.40987">
        <ele>284</ele>
        <time>2021-08-08T08:48:24Z</time>
      </trkpt>
      <trkpt lat="48.90028" lon="7.40986">
        <ele>284</ele>
        <time>2021-08-08T08:48:25Z</time>
      </trkpt>
      <trkpt lat="48.90028" lon="7.40986">
        <ele>284</ele>
        <time>2021-08-08T08:48:26Z</time>
      </trkpt>
      <trkpt lat="48.90024" lon="7.40986">
        <ele>284</ele>
        <time>2021-08-08T08:48:27Z</time>
      </trkpt>
      <trkpt lat="48.90024" lon="7.40986">
        <ele>284</ele>
        <time>2021-08-08T08:48:28Z</time>
      </trkpt>
      <trkpt lat="48.9002" lon="7.40985">
        <ele>284</ele>
        <time>2021-08-08T08:48:29Z</time>
      </trkpt>
      <trkpt lat="48.9002" lon="7.40985">
        <ele>284</ele>
        <time>2021-08-08T08:48:30Z</time>
      </trkpt>
      <trkpt lat="48.90016" lon="7.40984">
        <ele>284</ele>
        <time>2021-08-08T08:48:31Z</time>
      </trkpt>
      <trkpt lat="48.90016" lon="7.40984">
        <ele>284</ele>
        <time>2021-08-08T08:48:32Z</time>
      </trkpt>
      <trkpt lat="48.90013" lon="7.40983">
        <ele>284</ele>
        <time>2021-08-08T08:48:33Z</time>
      </trkpt>
      <trkpt lat="48.90013" lon="7.40983">
        <ele>284</ele>
        <time>2021-08-08T08:48:34Z</time>
      </trkpt>
      <trkpt lat="48.90009" lon="7.40983">
        <ele>284</ele>
        <time>2021-08-08T08:48:35Z</time>
      </trkpt>
      <trkpt lat="48.90007" lon="7.40984">
        <ele>284</ele>
        <time>2021-08-08T08:48:36Z</time>
      </trkpt>
      <trkpt lat="48.90007" lon="7.40984">
        <ele>284</ele>
        <time>2021-08-08T08:48:37Z</time>
      </trkpt>
      <trkpt lat="48.90005" lon="7.40984">
        <ele>284</ele>
        <time>2021-08-08T08:48:38Z</time>
      </trkpt>
      <trkpt lat="48.90002" lon="7.40984">
        <ele>284</ele>
        <time>2021-08-08T08:48:39Z</time>
      </trkpt>
      <trkpt lat="48.90002" lon="7.40984">
        <ele>285</ele>
        <time>2021-08-08T08:48:40Z</time>
      </trkpt>
      <trkpt lat="48.89998" lon="7.40982">
        <ele>285</ele>
        <time>2021-08-08T08:48:41Z</time>
      </trkpt>
      <trkpt lat="48.89998" lon="7.40982">
        <ele>285</ele>
        <time>2021-08-08T08:48:42Z</time>
      </trkpt>
      <trkpt lat="48.89993" lon="7.4098">
        <ele>285</ele>
        <time>2021-08-08T08:48:43Z</time>
      </trkpt>
      <trkpt lat="48.89993" lon="7.4098">
        <ele>285</ele>
        <time>2021-08-08T08:48:44Z</time>
      </trkpt>
      <trkpt lat="48.89987" lon="7.40979">
        <ele>285</ele>
        <time>2021-08-08T08:48:45Z</time>
      </trkpt>
      <trkpt lat="48.89987" lon="7.40979">
        <ele>285</ele>
        <time>2021-08-08T08:48:46Z</time>
      </trkpt>
      <trkpt lat="48.89984" lon="7.40977">
        <ele>285</ele>
        <time>2021-08-08T08:48:47Z</time>
      </trkpt>
      <trkpt lat="48.89984" lon="7.40977">
        <ele>285</ele>
        <time>2021-08-08T08:48:48Z</time>
      </trkpt>
      <trkpt lat="48.89982" lon="7.40978">
        <ele>285</ele>
        <time>2021-08-08T08:48:49Z</time>
      </trkpt>
      <trkpt lat="48.89982" lon="7.40978">
        <ele>285</ele>
        <time>2021-08-08T08:48:50Z</time>
      </trkpt>
      <trkpt lat="48.89981" lon="7.40977">
        <ele>285</ele>
        <time>2021-08-08T08:48:51Z</time>
      </trkpt>
      <trkpt lat="48.89981" lon="7.40977">
        <ele>285</ele>
        <time>2021-08-08T08:48:52Z</time>
      </trkpt>
      <trkpt lat="48.89981" lon="7.40977">
        <ele>286</ele>
        <time>2021-08-08T08:49:19Z</time>
      </trkpt>
      <trkpt lat="48.89983" lon="7.40963">
        <ele>286</ele>
        <time>2021-08-08T08:49:20Z</time>
      </trkpt>
      <trkpt lat="48.89983" lon="7.40964">
        <ele>286</ele>
        <time>2021-08-08T08:49:21Z</time>
      </trkpt>
      <trkpt lat="48.89971" lon="7.40975">
        <ele>286</ele>
        <time>2021-08-08T08:51:07Z</time>
      </trkpt>
      <trkpt lat="48.89971" lon="7.40975">
        <ele>286</ele>
        <time>2021-08-08T08:51:08Z</time>
      </trkpt>
      <trkpt lat="48.89967" lon="7.40975">
        <ele>286</ele>
        <time>2021-08-08T08:51:09Z</time>
      </trkpt>
      <trkpt lat="48.89967" lon="7.40975">
        <ele>286</ele>
        <time>2021-08-08T08:51:10Z</time>
      </trkpt>
      <trkpt lat="48.89964" lon="7.40973">
        <ele>286</ele>
        <time>2021-08-08T08:51:11Z</time>
      </trkpt>
      <trkpt lat="48.89963" lon="7.40973">
        <ele>286</ele>
        <time>2021-08-08T08:51:12Z</time>
      </trkpt>
      <trkpt lat="48.89963" lon="7.40973">
        <ele>286</ele>
        <time>2021-08-08T08:51:13Z</time>
      </trkpt>
      <trkpt lat="48.89961" lon="7.40971">
        <ele>286</ele>
        <time>2021-08-08T08:51:14Z</time>
      </trkpt>
      <trkpt lat="48.8996" lon="7.40971">
        <ele>286</ele>
        <time>2021-08-08T08:51:15Z</time>
      </trkpt>
      <trkpt lat="48.8996" lon="7.40971">
        <ele>286</ele>
        <time>2021-08-08T08:51:16Z</time>
      </trkpt>
      <trkpt lat="48.89958" lon="7.4097">
        <ele>286</ele>
        <time>2021-08-08T08:51:17Z</time>
      </trkpt>
      <trkpt lat="48.89958" lon="7.4097">
        <ele>286</ele>
        <time>2021-08-08T08:51:18Z</time>
      </trkpt>
      <trkpt lat="48.89958" lon="7.4097">
        <ele>286</ele>
        <time>2021-08-08T08:51:19Z</time>
      </trkpt>
      <trkpt lat="48.89956" lon="7.4097">
        <ele>286</ele>
        <time>2021-08-08T08:51:20Z</time>
      </trkpt>
      <trkpt lat="48.89954" lon="7.4097">
        <ele>286</ele>
        <time>2021-08-08T08:51:21Z</time>
      </trkpt>
      <trkpt lat="48.89954" lon="7.4097">
        <ele>286</ele>
        <time>2021-08-08T08:51:22Z</time>
      </trkpt>
      <trkpt lat="48.8995" lon="7.40971">
        <ele>286</ele>
        <time>2021-08-08T08:51:23Z</time>
      </trkpt>
      <trkpt lat="48.8995" lon="7.40971">
        <ele>286</ele>
        <time>2021-08-08T08:51:24Z</time>
      </trkpt>
      <trkpt lat="48.89947" lon="7.40971">
        <ele>287</ele>
        <time>2021-08-08T08:51:25Z</time>
      </trkpt>
      <trkpt lat="48.89947" lon="7.40971">
        <ele>287</ele>
        <time>2021-08-08T08:51:26Z</time>
      </trkpt>
      <trkpt lat="48.89942" lon="7.40972">
        <ele>287</ele>
        <time>2021-08-08T08:51:27Z</time>
      </trkpt>
      <trkpt lat="48.89942" lon="7.40972">
        <ele>287</ele>
        <time>2021-08-08T08:51:28Z</time>
      </trkpt>
      <trkpt lat="48.89937" lon="7.40973">
        <ele>287</ele>
        <time>2021-08-08T08:51:29Z</time>
      </trkpt>
      <trkpt lat="48.89937" lon="7.40973">
        <ele>287</ele>
        <time>2021-08-08T08:51:30Z</time>
      </trkpt>
      <trkpt lat="48.89932" lon="7.40974">
        <ele>287</ele>
        <time>2021-08-08T08:51:31Z</time>
      </trkpt>
      <trkpt lat="48.89932" lon="7.40974">
        <ele>287</ele>
        <time>2021-08-08T08:51:32Z</time>
      </trkpt>
      <trkpt lat="48.89929" lon="7.40976">
        <ele>287</ele>
        <time>2021-08-08T08:51:33Z</time>
      </trkpt>
      <trkpt lat="48.89927" lon="7.40976">
        <ele>287</ele>
        <time>2021-08-08T08:51:34Z</time>
      </trkpt>
      <trkpt lat="48.89926" lon="7.40977">
        <ele>287</ele>
        <time>2021-08-08T08:51:35Z</time>
      </trkpt>
      <trkpt lat="48.89926" lon="7.40977">
        <ele>287</ele>
        <time>2021-08-08T08:51:36Z</time>
      </trkpt>
      <trkpt lat="48.89923" lon="7.4098">
        <ele>287</ele>
        <time>2021-08-08T08:51:37Z</time>
      </trkpt>
      <trkpt lat="48.89923" lon="7.4098">
        <ele>287</ele>
        <time>2021-08-08T08:51:38Z</time>
      </trkpt>
      <trkpt lat="48.89919" lon="7.40982">
        <ele>287</ele>
        <time>2021-08-08T08:51:39Z</time>
      </trkpt>
      <trkpt lat="48.89919" lon="7.40982">
        <ele>287</ele>
        <time>2021-08-08T08:51:40Z</time>
      </trkpt>
      <trkpt lat="48.89912" lon="7.40985">
        <ele>288</ele>
        <time>2021-08-08T08:51:41Z</time>
      </trkpt>
      <trkpt lat="48.89912" lon="7.40985">
        <ele>288</ele>
        <time>2021-08-08T08:51:42Z</time>
      </trkpt>
      <trkpt lat="48.89906" lon="7.40986">
        <ele>288</ele>
        <time>2021-08-08T08:51:43Z</time>
      </trkpt>
      <trkpt lat="48.89906" lon="7.40986">
        <ele>288</ele>
        <time>2021-08-08T08:51:44Z</time>
      </trkpt>
      <trkpt lat="48.89901" lon="7.40987">
        <ele>288</ele>
        <time>2021-08-08T08:51:45Z</time>
      </trkpt>
      <trkpt lat="48.89901" lon="7.40987">
        <ele>288</ele>
        <time>2021-08-08T08:51:46Z</time>
      </trkpt>
      <trkpt lat="48.89896" lon="7.40988">
        <ele>289</ele>
        <time>2021-08-08T08:51:47Z</time>
      </trkpt>
      <trkpt lat="48.89894" lon="7.40988">
        <ele>289</ele>
        <time>2021-08-08T08:51:48Z</time>
      </trkpt>
      <trkpt lat="48.89894" lon="7.40988">
        <ele>289</ele>
        <time>2021-08-08T08:51:49Z</time>
      </trkpt>
      <trkpt lat="48.8989" lon="7.40988">
        <ele>289</ele>
        <time>2021-08-08T08:51:50Z</time>
      </trkpt>
      <trkpt lat="48.89888" lon="7.40988">
        <ele>290</ele>
        <time>2021-08-08T08:51:51Z</time>
      </trkpt>
      <trkpt lat="48.89888" lon="7.40988">
        <ele>290</ele>
        <time>2021-08-08T08:51:52Z</time>
      </trkpt>
      <trkpt lat="48.89884" lon="7.40988">
        <ele>290</ele>
        <time>2021-08-08T08:51:53Z</time>
      </trkpt>
      <trkpt lat="48.89884" lon="7.40988">
        <ele>290</ele>
        <time>2021-08-08T08:51:54Z</time>
      </trkpt>
      <trkpt lat="48.8988" lon="7.40987">
        <ele>290</ele>
        <time>2021-08-08T08:51:55Z</time>
      </trkpt>
      <trkpt lat="48.8988" lon="7.40987">
        <ele>290</ele>
        <time>2021-08-08T08:51:56Z</time>
      </trkpt>
      <trkpt lat="48.89877" lon="7.40986">
        <ele>290</ele>
        <time>2021-08-08T08:51:57Z</time>
      </trkpt>
      <trkpt lat="48.89877" lon="7.40986">
        <ele>290</ele>
        <time>2021-08-08T08:51:58Z</time>
      </trkpt>
      <trkpt lat="48.89873" lon="7.40985">
        <ele>290</ele>
        <time>2021-08-08T08:51:59Z</time>
      </trkpt>
      <trkpt lat="48.89871" lon="7.40984">
        <ele>290</ele>
        <time>2021-08-08T08:52:00Z</time>
      </trkpt>
      <trkpt lat="48.89869" lon="7.40982">
        <ele>290</ele>
        <time>2021-08-08T08:52:01Z</time>
      </trkpt>
      <trkpt lat="48.89869" lon="7.40982">
        <ele>291</ele>
        <time>2021-08-08T08:52:02Z</time>
      </trkpt>
      <trkpt lat="48.89866" lon="7.40981">
        <ele>291</ele>
        <time>2021-08-08T08:52:03Z</time>
      </trkpt>
      <trkpt lat="48.89865" lon="7.4098">
        <ele>291</ele>
        <time>2021-08-08T08:52:04Z</time>
      </trkpt>
      <trkpt lat="48.89865" lon="7.4098">
        <ele>291</ele>
        <time>2021-08-08T08:52:05Z</time>
      </trkpt>
      <trkpt lat="48.89861" lon="7.40979">
        <ele>293</ele>
        <time>2021-08-08T08:52:06Z</time>
      </trkpt>
      <trkpt lat="48.8986" lon="7.40978">
        <ele>293</ele>
        <time>2021-08-08T08:52:07Z</time>
      </trkpt>
      <trkpt lat="48.8986" lon="7.40978">
        <ele>293</ele>
        <time>2021-08-08T08:52:08Z</time>
      </trkpt>
      <trkpt lat="48.89857" lon="7.40977">
        <ele>293</ele>
        <time>2021-08-08T08:52:09Z</time>
      </trkpt>
      <trkpt lat="48.89857" lon="7.40977">
        <ele>293</ele>
        <time>2021-08-08T08:52:10Z</time>
      </trkpt>
      <trkpt lat="48.89853" lon="7.40978">
        <ele>293</ele>
        <time>2021-08-08T08:52:11Z</time>
      </trkpt>
      <trkpt lat="48.89853" lon="7.40978">
        <ele>293</ele>
        <time>2021-08-08T08:52:12Z</time>
      </trkpt>
      <trkpt lat="48.89848" lon="7.40977">
        <ele>294</ele>
        <time>2021-08-08T08:52:13Z</time>
      </trkpt>
      <trkpt lat="48.89848" lon="7.40977">
        <ele>294</ele>
        <time>2021-08-08T08:52:14Z</time>
      </trkpt>
      <trkpt lat="48.89844" lon="7.40976">
        <ele>294</ele>
        <time>2021-08-08T08:52:15Z</time>
      </trkpt>
      <trkpt lat="48.89844" lon="7.40976">
        <ele>294</ele>
        <time>2021-08-08T08:52:16Z</time>
      </trkpt>
      <trkpt lat="48.8984" lon="7.40977">
        <ele>294</ele>
        <time>2021-08-08T08:52:17Z</time>
      </trkpt>
      <trkpt lat="48.8984" lon="7.40977">
        <ele>294</ele>
        <time>2021-08-08T08:52:18Z</time>
      </trkpt>
      <trkpt lat="48.89835" lon="7.40978">
        <ele>294</ele>
        <time>2021-08-08T08:52:19Z</time>
      </trkpt>
      <trkpt lat="48.89832" lon="7.40978">
        <ele>294</ele>
        <time>2021-08-08T08:52:20Z</time>
      </trkpt>
      <trkpt lat="48.89829" lon="7.40979">
        <ele>294</ele>
        <time>2021-08-08T08:52:21Z</time>
      </trkpt>
      <trkpt lat="48.89829" lon="7.40979">
        <ele>294</ele>
        <time>2021-08-08T08:52:22Z</time>
      </trkpt>
      <trkpt lat="48.89825" lon="7.40979">
        <ele>294</ele>
        <time>2021-08-08T08:52:23Z</time>
      </trkpt>
      <trkpt lat="48.89824" lon="7.4098">
        <ele>294</ele>
        <time>2021-08-08T08:52:24Z</time>
      </trkpt>
      <trkpt lat="48.89824" lon="7.4098">
        <ele>295</ele>
        <time>2021-08-08T08:52:25Z</time>
      </trkpt>
      <trkpt lat="48.8982" lon="7.4098">
        <ele>295</ele>
        <time>2021-08-08T08:52:26Z</time>
      </trkpt>
      <trkpt lat="48.89818" lon="7.4098">
        <ele>295</ele>
        <time>2021-08-08T08:52:27Z</time>
      </trkpt>
      <trkpt lat="48.89818" lon="7.4098">
        <ele>295</ele>
        <time>2021-08-08T08:52:28Z</time>
      </trkpt>
      <trkpt lat="48.89818" lon="7.4098">
        <ele>295</ele>
        <time>2021-08-08T08:52:29Z</time>
      </trkpt>
      <trkpt lat="48.89814" lon="7.40982">
        <ele>295</ele>
        <time>2021-08-08T08:52:30Z</time>
      </trkpt>
      <trkpt lat="48.89809" lon="7.40984">
        <ele>295</ele>
        <time>2021-08-08T08:52:31Z</time>
      </trkpt>
      <trkpt lat="48.89809" lon="7.40984">
        <ele>295</ele>
        <time>2021-08-08T08:52:32Z</time>
      </trkpt>
      <trkpt lat="48.89804" lon="7.40985">
        <ele>295</ele>
        <time>2021-08-08T08:52:33Z</time>
      </trkpt>
      <trkpt lat="48.89804" lon="7.40985">
        <ele>295</ele>
        <time>2021-08-08T08:52:34Z</time>
      </trkpt>
      <trkpt lat="48.898" lon="7.40988">
        <ele>295</ele>
        <time>2021-08-08T08:52:35Z</time>
      </trkpt>
      <trkpt lat="48.89798" lon="7.4099">
        <ele>295</ele>
        <time>2021-08-08T08:52:36Z</time>
      </trkpt>
      <trkpt lat="48.89798" lon="7.4099">
        <ele>295</ele>
        <time>2021-08-08T08:52:37Z</time>
      </trkpt>
      <trkpt lat="48.89794" lon="7.40992">
        <ele>295</ele>
        <time>2021-08-08T08:52:38Z</time>
      </trkpt>
      <trkpt lat="48.89794" lon="7.40992">
        <ele>295</ele>
        <time>2021-08-08T08:52:39Z</time>
      </trkpt>
      <trkpt lat="48.89789" lon="7.40995">
        <ele>295</ele>
        <time>2021-08-08T08:52:40Z</time>
      </trkpt>
      <trkpt lat="48.89789" lon="7.40995">
        <ele>295</ele>
        <time>2021-08-08T08:52:41Z</time>
      </trkpt>
      <trkpt lat="48.89783" lon="7.40998">
        <ele>295</ele>
        <time>2021-08-08T08:52:42Z</time>
      </trkpt>
      <trkpt lat="48.89783" lon="7.40998">
        <ele>295</ele>
        <time>2021-08-08T08:52:43Z</time>
      </trkpt>
      <trkpt lat="48.89772" lon="7.41002">
        <ele>295</ele>
        <time>2021-08-08T08:52:44Z</time>
      </trkpt>
      <trkpt lat="48.89767" lon="7.41003">
        <ele>295</ele>
        <time>2021-08-08T08:52:45Z</time>
      </trkpt>
      <trkpt lat="48.89767" lon="7.41003">
        <ele>295</ele>
        <time>2021-08-08T08:52:46Z</time>
      </trkpt>
      <trkpt lat="48.89761" lon="7.41006">
        <ele>295</ele>
        <time>2021-08-08T08:52:47Z</time>
      </trkpt>
      <trkpt lat="48.89761" lon="7.41006">
        <ele>295</ele>
        <time>2021-08-08T08:52:48Z</time>
      </trkpt>
      <trkpt lat="48.89756" lon="7.41008">
        <ele>296</ele>
        <time>2021-08-08T08:52:49Z</time>
      </trkpt>
      <trkpt lat="48.89754" lon="7.41008">
        <ele>296</ele>
        <time>2021-08-08T08:52:50Z</time>
      </trkpt>
      <trkpt lat="48.89754" lon="7.41008">
        <ele>296</ele>
        <time>2021-08-08T08:52:51Z</time>
      </trkpt>
      <trkpt lat="48.89754" lon="7.41008">
        <ele>296</ele>
        <time>2021-08-08T08:52:52Z</time>
      </trkpt>
      <trkpt lat="48.89746" lon="7.41009">
        <ele>296</ele>
        <time>2021-08-08T08:52:53Z</time>
      </trkpt>
      <trkpt lat="48.89746" lon="7.41009">
        <ele>296</ele>
        <time>2021-08-08T08:52:54Z</time>
      </trkpt>
      <trkpt lat="48.89741" lon="7.4101">
        <ele>297</ele>
        <time>2021-08-08T08:52:55Z</time>
      </trkpt>
      <trkpt lat="48.89739" lon="7.4101">
        <ele>297</ele>
        <time>2021-08-08T08:52:56Z</time>
      </trkpt>
      <trkpt lat="48.89736" lon="7.4101">
        <ele>297</ele>
        <time>2021-08-08T08:52:57Z</time>
      </trkpt>
      <trkpt lat="48.89736" lon="7.4101">
        <ele>297</ele>
        <time>2021-08-08T08:52:58Z</time>
      </trkpt>
      <trkpt lat="48.89731" lon="7.41011">
        <ele>297</ele>
        <time>2021-08-08T08:52:59Z</time>
      </trkpt>
      <trkpt lat="48.89728" lon="7.41011">
        <ele>297</ele>
        <time>2021-08-08T08:53:00Z</time>
      </trkpt>
      <trkpt lat="48.89726" lon="7.41011">
        <ele>297</ele>
        <time>2021-08-08T08:53:01Z</time>
      </trkpt>
      <trkpt lat="48.89726" lon="7.41011">
        <ele>297</ele>
        <time>2021-08-08T08:53:02Z</time>
      </trkpt>
      <trkpt lat="48.8972" lon="7.4101">
        <ele>297</ele>
        <time>2021-08-08T08:53:03Z</time>
      </trkpt>
      <trkpt lat="48.8972" lon="7.4101">
        <ele>297</ele>
        <time>2021-08-08T08:53:04Z</time>
      </trkpt>
      <trkpt lat="48.89714" lon="7.41009">
        <ele>297</ele>
        <time>2021-08-08T08:53:05Z</time>
      </trkpt>
      <trkpt lat="48.89714" lon="7.41009">
        <ele>297</ele>
        <time>2021-08-08T08:53:06Z</time>
      </trkpt>
      <trkpt lat="48.89708" lon="7.41008">
        <ele>297</ele>
        <time>2021-08-08T08:53:07Z</time>
      </trkpt>
      <trkpt lat="48.89705" lon="7.41008">
        <ele>297</ele>
        <time>2021-08-08T08:53:08Z</time>
      </trkpt>
      <trkpt lat="48.89705" lon="7.41008">
        <ele>297</ele>
        <time>2021-08-08T08:53:09Z</time>
      </trkpt>
      <trkpt lat="48.897" lon="7.41006">
        <ele>297</ele>
        <time>2021-08-08T08:53:10Z</time>
      </trkpt>
      <trkpt lat="48.897" lon="7.41006">
        <ele>297</ele>
        <time>2021-08-08T08:53:11Z</time>
      </trkpt>
      <trkpt lat="48.89697" lon="7.41004">
        <ele>297</ele>
        <time>2021-08-08T08:53:12Z</time>
      </trkpt>
      <trkpt lat="48.89695" lon="7.41003">
        <ele>297</ele>
        <time>2021-08-08T08:53:13Z</time>
      </trkpt>
      <trkpt lat="48.89695" lon="7.41003">
        <ele>298</ele>
        <time>2021-08-08T08:53:14Z</time>
      </trkpt>
      <trkpt lat="48.8969" lon="7.41">
        <ele>298</ele>
        <time>2021-08-08T08:53:15Z</time>
      </trkpt>
      <trkpt lat="48.8969" lon="7.41">
        <ele>298</ele>
        <time>2021-08-08T08:53:16Z</time>
      </trkpt>
      <trkpt lat="48.89686" lon="7.40999">
        <ele>298</ele>
        <time>2021-08-08T08:53:17Z</time>
      </trkpt>
      <trkpt lat="48.89686" lon="7.40999">
        <ele>298</ele>
        <time>2021-08-08T08:53:18Z</time>
      </trkpt>
      <trkpt lat="48.8968" lon="7.40998">
        <ele>298</ele>
        <time>2021-08-08T08:53:19Z</time>
      </trkpt>
      <trkpt lat="48.8968" lon="7.40998">
        <ele>298</ele>
        <time>2021-08-08T08:53:20Z</time>
      </trkpt>
      <trkpt lat="48.89677" lon="7.40998">
        <ele>299</ele>
        <time>2021-08-08T08:53:21Z</time>
      </trkpt>
      <trkpt lat="48.89675" lon="7.40997">
        <ele>299</ele>
        <time>2021-08-08T08:53:22Z</time>
      </trkpt>
      <trkpt lat="48.89675" lon="7.40997">
        <ele>299</ele>
        <time>2021-08-08T08:53:23Z</time>
      </trkpt>
      <trkpt lat="48.89674" lon="7.40998">
        <ele>299</ele>
        <time>2021-08-08T08:53:24Z</time>
      </trkpt>
      <trkpt lat="48.89674" lon="7.40998">
        <ele>300</ele>
        <time>2021-08-08T08:53:25Z</time>
      </trkpt>
      <trkpt lat="48.8967" lon="7.40999">
        <ele>300</ele>
        <time>2021-08-08T08:53:26Z</time>
      </trkpt>
      <trkpt lat="48.89668" lon="7.40999">
        <ele>300</ele>
        <time>2021-08-08T08:53:27Z</time>
      </trkpt>
      <trkpt lat="48.89668" lon="7.40999">
        <ele>300</ele>
        <time>2021-08-08T08:53:28Z</time>
      </trkpt>
      <trkpt lat="48.89664" lon="7.40999">
        <ele>301</ele>
        <time>2021-08-08T08:53:29Z</time>
      </trkpt>
      <trkpt lat="48.89664" lon="7.40999">
        <ele>301</ele>
        <time>2021-08-08T08:53:30Z</time>
      </trkpt>
      <trkpt lat="48.89661" lon="7.41">
        <ele>301</ele>
        <time>2021-08-08T08:53:31Z</time>
      </trkpt>
      <trkpt lat="48.89661" lon="7.41">
        <ele>301</ele>
        <time>2021-08-08T08:53:32Z</time>
      </trkpt>
      <trkpt lat="48.89657" lon="7.40999">
        <ele>301</ele>
        <time>2021-08-08T08:53:33Z</time>
      </trkpt>
      <trkpt lat="48.89657" lon="7.40999">
        <ele>301</ele>
        <time>2021-08-08T08:53:34Z</time>
      </trkpt>
      <trkpt lat="48.89653" lon="7.40997">
        <ele>301</ele>
        <time>2021-08-08T08:53:35Z</time>
      </trkpt>
      <trkpt lat="48.89653" lon="7.40997">
        <ele>302</ele>
        <time>2021-08-08T08:53:36Z</time>
      </trkpt>
      <trkpt lat="48.8965" lon="7.40994">
        <ele>302</ele>
        <time>2021-08-08T08:53:37Z</time>
      </trkpt>
      <trkpt lat="48.8965" lon="7.40994">
        <ele>302</ele>
        <time>2021-08-08T08:53:38Z</time>
      </trkpt>
      <trkpt lat="48.89648" lon="7.40991">
        <ele>302</ele>
        <time>2021-08-08T08:53:39Z</time>
      </trkpt>
      <trkpt lat="48.89647" lon="7.40989">
        <ele>303</ele>
        <time>2021-08-08T08:53:40Z</time>
      </trkpt>
      <trkpt lat="48.89647" lon="7.40989">
        <ele>303</ele>
        <time>2021-08-08T08:53:41Z</time>
      </trkpt>
      <trkpt lat="48.89645" lon="7.40985">
        <ele>304</ele>
        <time>2021-08-08T08:53:42Z</time>
      </trkpt>
      <trkpt lat="48.89645" lon="7.40985">
        <ele>304</ele>
        <time>2021-08-08T08:53:43Z</time>
      </trkpt>
      <trkpt lat="48.89644" lon="7.40981">
        <ele>304</ele>
        <time>2021-08-08T08:53:44Z</time>
      </trkpt>
      <trkpt lat="48.89643" lon="7.4098">
        <ele>304</ele>
        <time>2021-08-08T08:53:45Z</time>
      </trkpt>
      <trkpt lat="48.89642" lon="7.40978">
        <ele>304</ele>
        <time>2021-08-08T08:53:46Z</time>
      </trkpt>
      <trkpt lat="48.89642" lon="7.40978">
        <ele>304</ele>
        <time>2021-08-08T08:53:47Z</time>
      </trkpt>
      <trkpt lat="48.89641" lon="7.40975">
        <ele>305</ele>
        <time>2021-08-08T08:53:48Z</time>
      </trkpt>
      <trkpt lat="48.89641" lon="7.40973">
        <ele>305</ele>
        <time>2021-08-08T08:53:49Z</time>
      </trkpt>
      <trkpt lat="48.89641" lon="7.40971">
        <ele>305</ele>
        <time>2021-08-08T08:53:50Z</time>
      </trkpt>
      <trkpt lat="48.89642" lon="7.40969">
        <ele>305</ele>
        <time>2021-08-08T08:53:51Z</time>
      </trkpt>
      <trkpt lat="48.89642" lon="7.40969">
        <ele>306</ele>
        <time>2021-08-08T08:53:52Z</time>
      </trkpt>
      <trkpt lat="48.89641" lon="7.40965">
        <ele>306</ele>
        <time>2021-08-08T08:53:53Z</time>
      </trkpt>
      <trkpt lat="48.89641" lon="7.40963">
        <ele>306</ele>
        <time>2021-08-08T08:53:54Z</time>
      </trkpt>
      <trkpt lat="48.89641" lon="7.40963">
        <ele>306</ele>
        <time>2021-08-08T08:53:55Z</time>
      </trkpt>
      <trkpt lat="48.89641" lon="7.40958">
        <ele>306</ele>
        <time>2021-08-08T08:53:56Z</time>
      </trkpt>
      <trkpt lat="48.89641" lon="7.40958">
        <ele>306</ele>
        <time>2021-08-08T08:53:57Z</time>
      </trkpt>
      <trkpt lat="48.8964" lon="7.40953">
        <ele>307</ele>
        <time>2021-08-08T08:53:58Z</time>
      </trkpt>
      <trkpt lat="48.8964" lon="7.4095">
        <ele>307</ele>
        <time>2021-08-08T08:53:59Z</time>
      </trkpt>
      <trkpt lat="48.8964" lon="7.4095">
        <ele>307</ele>
        <time>2021-08-08T08:54:00Z</time>
      </trkpt>
      <trkpt lat="48.8964" lon="7.40946">
        <ele>307</ele>
        <time>2021-08-08T08:54:01Z</time>
      </trkpt>
      <trkpt lat="48.8964" lon="7.40946">
        <ele>308</ele>
        <time>2021-08-08T08:54:02Z</time>
      </trkpt>
      <trkpt lat="48.8964" lon="7.40941">
        <ele>308</ele>
        <time>2021-08-08T08:54:03Z</time>
      </trkpt>
      <trkpt lat="48.8964" lon="7.40938">
        <ele>308</ele>
        <time>2021-08-08T08:54:04Z</time>
      </trkpt>
      <trkpt lat="48.8964" lon="7.40936">
        <ele>308</ele>
        <time>2021-08-08T08:54:05Z</time>
      </trkpt>
      <trkpt lat="48.8964" lon="7.40936">
        <ele>308</ele>
        <time>2021-08-08T08:54:06Z</time>
      </trkpt>
      <trkpt lat="48.8964" lon="7.40932">
        <ele>308</ele>
        <time>2021-08-08T08:54:07Z</time>
      </trkpt>
      <trkpt lat="48.8964" lon="7.40932">
        <ele>308</ele>
        <time>2021-08-08T08:54:08Z</time>
      </trkpt>
      <trkpt lat="48.8964" lon="7.40932">
        <ele>308</ele>
        <time>2021-08-08T08:54:09Z</time>
      </trkpt>
      <trkpt lat="48.8964" lon="7.40928">
        <ele>309</ele>
        <time>2021-08-08T08:54:10Z</time>
      </trkpt>
      <trkpt lat="48.8964" lon="7.40925">
        <ele>309</ele>
        <time>2021-08-08T08:54:11Z</time>
      </trkpt>
      <trkpt lat="48.8964" lon="7.40925">
        <ele>309</ele>
        <time>2021-08-08T08:54:12Z</time>
      </trkpt>
      <trkpt lat="48.89639" lon="7.40921">
        <ele>309</ele>
        <time>2021-08-08T08:54:13Z</time>
      </trkpt>
      <trkpt lat="48.89638" lon="7.4092">
        <ele>310</ele>
        <time>2021-08-08T08:54:14Z</time>
      </trkpt>
      <trkpt lat="48.89638" lon="7.4092">
        <ele>310</ele>
        <time>2021-08-08T08:54:15Z</time>
      </trkpt>
      <trkpt lat="48.89637" lon="7.40917">
        <ele>310</ele>
        <time>2021-08-08T08:54:16Z</time>
      </trkpt>
      <trkpt lat="48.89635" lon="7.40915">
        <ele>310</ele>
        <time>2021-08-08T08:54:17Z</time>
      </trkpt>
      <trkpt lat="48.89635" lon="7.40915">
        <ele>310</ele>
        <time>2021-08-08T08:54:18Z</time>
      </trkpt>
      <trkpt lat="48.89632" lon="7.40913">
        <ele>310</ele>
        <time>2021-08-08T08:54:19Z</time>
      </trkpt>
      <trkpt lat="48.89632" lon="7.40912">
        <ele>311</ele>
        <time>2021-08-08T08:54:20Z</time>
      </trkpt>
      <trkpt lat="48.89632" lon="7.40912">
        <ele>311</ele>
        <time>2021-08-08T08:54:21Z</time>
      </trkpt>
      <trkpt lat="48.8963" lon="7.40912">
        <ele>311</ele>
        <time>2021-08-08T08:54:22Z</time>
      </trkpt>
      <trkpt lat="48.8963" lon="7.40912">
        <ele>311</ele>
        <time>2021-08-08T08:54:23Z</time>
      </trkpt>
      <trkpt lat="48.89628" lon="7.40912">
        <ele>312</ele>
        <time>2021-08-08T08:54:24Z</time>
      </trkpt>
      <trkpt lat="48.89626" lon="7.40912">
        <ele>312</ele>
        <time>2021-08-08T08:54:25Z</time>
      </trkpt>
      <trkpt lat="48.89626" lon="7.40912">
        <ele>312</ele>
        <time>2021-08-08T08:54:26Z</time>
      </trkpt>
      <trkpt lat="48.89625" lon="7.40912">
        <ele>312</ele>
        <time>2021-08-08T08:54:27Z</time>
      </trkpt>
      <trkpt lat="48.89624" lon="7.40913">
        <ele>313</ele>
        <time>2021-08-08T08:54:28Z</time>
      </trkpt>
      <trkpt lat="48.89623" lon="7.40913">
        <ele>313</ele>
        <time>2021-08-08T08:54:29Z</time>
      </trkpt>
      <trkpt lat="48.89623" lon="7.40913">
        <ele>313</ele>
        <time>2021-08-08T08:54:30Z</time>
      </trkpt>
      <trkpt lat="48.8962" lon="7.40914">
        <ele>313</ele>
        <time>2021-08-08T08:54:31Z</time>
      </trkpt>
      <trkpt lat="48.8962" lon="7.40914">
        <ele>314</ele>
        <time>2021-08-08T08:54:32Z</time>
      </trkpt>
      <trkpt lat="48.89618" lon="7.40915">
        <ele>314</ele>
        <time>2021-08-08T08:54:33Z</time>
      </trkpt>
      <trkpt lat="48.89617" lon="7.40915">
        <ele>314</ele>
        <time>2021-08-08T08:54:34Z</time>
      </trkpt>
      <trkpt lat="48.89616" lon="7.40915">
        <ele>314</ele>
        <time>2021-08-08T08:54:35Z</time>
      </trkpt>
      <trkpt lat="48.89616" lon="7.40915">
        <ele>315</ele>
        <time>2021-08-08T08:54:36Z</time>
      </trkpt>
      <trkpt lat="48.89613" lon="7.40915">
        <ele>315</ele>
        <time>2021-08-08T08:54:37Z</time>
      </trkpt>
      <trkpt lat="48.89613" lon="7.40915">
        <ele>315</ele>
        <time>2021-08-08T08:54:38Z</time>
      </trkpt>
      <trkpt lat="48.8961" lon="7.40915">
        <ele>315</ele>
        <time>2021-08-08T08:54:39Z</time>
      </trkpt>
      <trkpt lat="48.89609" lon="7.40914">
        <ele>315</ele>
        <time>2021-08-08T08:54:40Z</time>
      </trkpt>
      <trkpt lat="48.89609" lon="7.40914">
        <ele>315</ele>
        <time>2021-08-08T08:54:41Z</time>
      </trkpt>
      <trkpt lat="48.89605" lon="7.40913">
        <ele>316</ele>
        <time>2021-08-08T08:54:42Z</time>
      </trkpt>
      <trkpt lat="48.89603" lon="7.40913">
        <ele>316</ele>
        <time>2021-08-08T08:54:43Z</time>
      </trkpt>
      <trkpt lat="48.89603" lon="7.40913">
        <ele>316</ele>
        <time>2021-08-08T08:54:44Z</time>
      </trkpt>
      <trkpt lat="48.896" lon="7.40912">
        <ele>316</ele>
        <time>2021-08-08T08:54:45Z</time>
      </trkpt>
      <trkpt lat="48.89599" lon="7.40911">
        <ele>316</ele>
        <time>2021-08-08T08:54:46Z</time>
      </trkpt>
      <trkpt lat="48.89599" lon="7.40911">
        <ele>316</ele>
        <time>2021-08-08T08:54:47Z</time>
      </trkpt>
      <trkpt lat="48.89596" lon="7.4091">
        <ele>316</ele>
        <time>2021-08-08T08:54:48Z</time>
      </trkpt>
      <trkpt lat="48.89594" lon="7.4091">
        <ele>317</ele>
        <time>2021-08-08T08:54:49Z</time>
      </trkpt>
      <trkpt lat="48.89594" lon="7.4091">
        <ele>317</ele>
        <time>2021-08-08T08:54:50Z</time>
      </trkpt>
      <trkpt lat="48.89592" lon="7.40908">
        <ele>317</ele>
        <time>2021-08-08T08:54:51Z</time>
      </trkpt>
      <trkpt lat="48.89592" lon="7.40908">
        <ele>317</ele>
        <time>2021-08-08T08:54:52Z</time>
      </trkpt>
      <trkpt lat="48.8959" lon="7.40907">
        <ele>317</ele>
        <time>2021-08-08T08:54:53Z</time>
      </trkpt>
      <trkpt lat="48.8959" lon="7.40907">
        <ele>317</ele>
        <time>2021-08-08T08:54:54Z</time>
      </trkpt>
      <trkpt lat="48.89588" lon="7.40906">
        <ele>317</ele>
        <time>2021-08-08T08:54:55Z</time>
      </trkpt>
      <trkpt lat="48.89588" lon="7.40906">
        <ele>317</ele>
        <time>2021-08-08T08:54:56Z</time>
      </trkpt>
      <trkpt lat="48.89585" lon="7.40904">
        <ele>317</ele>
        <time>2021-08-08T08:54:57Z</time>
      </trkpt>
      <trkpt lat="48.89585" lon="7.40904">
        <ele>318</ele>
        <time>2021-08-08T08:54:58Z</time>
      </trkpt>
      <trkpt lat="48.89585" lon="7.40904">
        <ele>318</ele>
        <time>2021-08-08T08:54:59Z</time>
      </trkpt>
      <trkpt lat="48.89584" lon="7.40903">
        <ele>318</ele>
        <time>2021-08-08T08:55:00Z</time>
      </trkpt>
      <trkpt lat="48.89581" lon="7.40901">
        <ele>319</ele>
        <time>2021-08-08T08:55:01Z</time>
      </trkpt>
      <trkpt lat="48.89581" lon="7.40901">
        <ele>319</ele>
        <time>2021-08-08T08:55:02Z</time>
      </trkpt>
      <trkpt lat="48.8958" lon="7.409">
        <ele>319</ele>
        <time>2021-08-08T08:55:03Z</time>
      </trkpt>
      <trkpt lat="48.89578" lon="7.40898">
        <ele>319</ele>
        <time>2021-08-08T08:55:04Z</time>
      </trkpt>
      <trkpt lat="48.89578" lon="7.40898">
        <ele>319</ele>
        <time>2021-08-08T08:55:05Z</time>
      </trkpt>
      <trkpt lat="48.89577" lon="7.40896">
        <ele>319</ele>
        <time>2021-08-08T08:55:06Z</time>
      </trkpt>
      <trkpt lat="48.89576" lon="7.40895">
        <ele>319</ele>
        <time>2021-08-08T08:55:07Z</time>
      </trkpt>
      <trkpt lat="48.89576" lon="7.40895">
        <ele>320</ele>
        <time>2021-08-08T08:55:08Z</time>
      </trkpt>
      <trkpt lat="48.89575" lon="7.40893">
        <ele>320</ele>
        <time>2021-08-08T08:55:09Z</time>
      </trkpt>
      <trkpt lat="48.89575" lon="7.40893">
        <ele>320</ele>
        <time>2021-08-08T08:55:10Z</time>
      </trkpt>
      <trkpt lat="48.89573" lon="7.40891">
        <ele>320</ele>
        <time>2021-08-08T08:55:11Z</time>
      </trkpt>
      <trkpt lat="48.89573" lon="7.40891">
        <ele>321</ele>
        <time>2021-08-08T08:55:12Z</time>
      </trkpt>
      <trkpt lat="48.89571" lon="7.40889">
        <ele>321</ele>
        <time>2021-08-08T08:55:13Z</time>
      </trkpt>
      <trkpt lat="48.89571" lon="7.40889">
        <ele>321</ele>
        <time>2021-08-08T08:55:14Z</time>
      </trkpt>
      <trkpt lat="48.89569" lon="7.40887">
        <ele>321</ele>
        <time>2021-08-08T08:55:15Z</time>
      </trkpt>
      <trkpt lat="48.89569" lon="7.40887">
        <ele>322</ele>
        <time>2021-08-08T08:55:16Z</time>
      </trkpt>
      <trkpt lat="48.89569" lon="7.40887">
        <ele>322</ele>
        <time>2021-08-08T08:55:17Z</time>
      </trkpt>
      <trkpt lat="48.89567" lon="7.40885">
        <ele>322</ele>
        <time>2021-08-08T08:55:18Z</time>
      </trkpt>
      <trkpt lat="48.89566" lon="7.40884">
        <ele>322</ele>
        <time>2021-08-08T08:55:19Z</time>
      </trkpt>
      <trkpt lat="48.89566" lon="7.40884">
        <ele>323</ele>
        <time>2021-08-08T08:55:20Z</time>
      </trkpt>
      <trkpt lat="48.89564" lon="7.40882">
        <ele>323</ele>
        <time>2021-08-08T08:55:21Z</time>
      </trkpt>
      <trkpt lat="48.89564" lon="7.40882">
        <ele>323</ele>
        <time>2021-08-08T08:55:22Z</time>
      </trkpt>
      <trkpt lat="48.89562" lon="7.40879">
        <ele>323</ele>
        <time>2021-08-08T08:55:23Z</time>
      </trkpt>
      <trkpt lat="48.89562" lon="7.40879">
        <ele>324</ele>
        <time>2021-08-08T08:55:24Z</time>
      </trkpt>
      <trkpt lat="48.8956" lon="7.40875">
        <ele>324</ele>
        <time>2021-08-08T08:55:25Z</time>
      </trkpt>
      <trkpt lat="48.8956" lon="7.40875">
        <ele>324</ele>
        <time>2021-08-08T08:55:26Z</time>
      </trkpt>
      <trkpt lat="48.89557" lon="7.4087">
        <ele>324</ele>
        <time>2021-08-08T08:55:27Z</time>
      </trkpt>
      <trkpt lat="48.89555" lon="7.40869">
        <ele>324</ele>
        <time>2021-08-08T08:55:28Z</time>
      </trkpt>
      <trkpt lat="48.89555" lon="7.40869">
        <ele>324</ele>
        <time>2021-08-08T08:55:29Z</time>
      </trkpt>
      <trkpt lat="48.89551" lon="7.40865">
        <ele>324</ele>
        <time>2021-08-08T08:55:30Z</time>
      </trkpt>
      <trkpt lat="48.89551" lon="7.40865">
        <ele>324</ele>
        <time>2021-08-08T08:55:31Z</time>
      </trkpt>
      <trkpt lat="48.89551" lon="7.40865">
        <ele>325</ele>
        <time>2021-08-08T08:55:32Z</time>
      </trkpt>
      <trkpt lat="48.89549" lon="7.40862">
        <ele>325</ele>
        <time>2021-08-08T08:55:33Z</time>
      </trkpt>
      <trkpt lat="48.89547" lon="7.40859">
        <ele>325</ele>
        <time>2021-08-08T08:55:34Z</time>
      </trkpt>
      <trkpt lat="48.89546" lon="7.40858">
        <ele>325</ele>
        <time>2021-08-08T08:55:35Z</time>
      </trkpt>
      <trkpt lat="48.89545" lon="7.40857">
        <ele>326</ele>
        <time>2021-08-08T08:55:36Z</time>
      </trkpt>
      <trkpt lat="48.89545" lon="7.40856">
        <ele>326</ele>
        <time>2021-08-08T08:55:37Z</time>
      </trkpt>
      <trkpt lat="48.89545" lon="7.40856">
        <ele>326</ele>
        <time>2021-08-08T08:55:38Z</time>
      </trkpt>
      <trkpt lat="48.89542" lon="7.40853">
        <ele>326</ele>
        <time>2021-08-08T08:55:39Z</time>
      </trkpt>
      <trkpt lat="48.8954" lon="7.40852">
        <ele>327</ele>
        <time>2021-08-08T08:55:40Z</time>
      </trkpt>
      <trkpt lat="48.89539" lon="7.40851">
        <ele>327</ele>
        <time>2021-08-08T08:55:41Z</time>
      </trkpt>
      <trkpt lat="48.89539" lon="7.40851">
        <ele>327</ele>
        <time>2021-08-08T08:55:42Z</time>
      </trkpt>
      <trkpt lat="48.89537" lon="7.40848">
        <ele>327</ele>
        <time>2021-08-08T08:55:43Z</time>
      </trkpt>
      <trkpt lat="48.89537" lon="7.40848">
        <ele>328</ele>
        <time>2021-08-08T08:55:44Z</time>
      </trkpt>
      <trkpt lat="48.89534" lon="7.40845">
        <ele>328</ele>
        <time>2021-08-08T08:55:45Z</time>
      </trkpt>
      <trkpt lat="48.89534" lon="7.40845">
        <ele>328</ele>
        <time>2021-08-08T08:55:46Z</time>
      </trkpt>
      <trkpt lat="48.89532" lon="7.40842">
        <ele>328</ele>
        <time>2021-08-08T08:55:47Z</time>
      </trkpt>
      <trkpt lat="48.8953" lon="7.40841">
        <ele>330</ele>
        <time>2021-08-08T08:55:48Z</time>
      </trkpt>
      <trkpt lat="48.8953" lon="7.40841">
        <ele>330</ele>
        <time>2021-08-08T08:55:49Z</time>
      </trkpt>
      <trkpt lat="48.89528" lon="7.40839">
        <ele>330</ele>
        <time>2021-08-08T08:55:50Z</time>
      </trkpt>
      <trkpt lat="48.89527" lon="7.40837">
        <ele>330</ele>
        <time>2021-08-08T08:55:51Z</time>
      </trkpt>
      <trkpt lat="48.89527" lon="7.40837">
        <ele>330</ele>
        <time>2021-08-08T08:55:52Z</time>
      </trkpt>
      <trkpt lat="48.89524" lon="7.40834">
        <ele>330</ele>
        <time>2021-08-08T08:55:53Z</time>
      </trkpt>
      <trkpt lat="48.89524" lon="7.40834">
        <ele>330</ele>
        <time>2021-08-08T08:55:54Z</time>
      </trkpt>
      <trkpt lat="48.89522" lon="7.40833">
        <ele>331</ele>
        <time>2021-08-08T08:55:55Z</time>
      </trkpt>
      <trkpt lat="48.89522" lon="7.40833">
        <ele>331</ele>
        <time>2021-08-08T08:55:56Z</time>
      </trkpt>
      <trkpt lat="48.89521" lon="7.40831">
        <ele>331</ele>
        <time>2021-08-08T08:55:57Z</time>
      </trkpt>
      <trkpt lat="48.89521" lon="7.40831">
        <ele>332</ele>
        <time>2021-08-08T08:55:58Z</time>
      </trkpt>
      <trkpt lat="48.89519" lon="7.40828">
        <ele>332</ele>
        <time>2021-08-08T08:55:59Z</time>
      </trkpt>
      <trkpt lat="48.89519" lon="7.40828">
        <ele>332</ele>
        <time>2021-08-08T08:56:00Z</time>
      </trkpt>
      <trkpt lat="48.89517" lon="7.40825">
        <ele>332</ele>
        <time>2021-08-08T08:56:01Z</time>
      </trkpt>
      <trkpt lat="48.89517" lon="7.40825">
        <ele>333</ele>
        <time>2021-08-08T08:56:02Z</time>
      </trkpt>
      <trkpt lat="48.89515" lon="7.4082">
        <ele>333</ele>
        <time>2021-08-08T08:56:03Z</time>
      </trkpt>
      <trkpt lat="48.89515" lon="7.4082">
        <ele>333</ele>
        <time>2021-08-08T08:56:04Z</time>
      </trkpt>
      <trkpt lat="48.89513" lon="7.40818">
        <ele>333</ele>
        <time>2021-08-08T08:56:05Z</time>
      </trkpt>
      <trkpt lat="48.89513" lon="7.40818">
        <ele>333</ele>
        <time>2021-08-08T08:56:06Z</time>
      </trkpt>
      <trkpt lat="48.89511" lon="7.40816">
        <ele>334</ele>
        <time>2021-08-08T08:56:07Z</time>
      </trkpt>
      <trkpt lat="48.89511" lon="7.40816">
        <ele>334</ele>
        <time>2021-08-08T08:56:08Z</time>
      </trkpt>
      <trkpt lat="48.8951" lon="7.40813">
        <ele>334</ele>
        <time>2021-08-08T08:56:09Z</time>
      </trkpt>
      <trkpt lat="48.8951" lon="7.40813">
        <ele>334</ele>
        <time>2021-08-08T08:56:10Z</time>
      </trkpt>
      <trkpt lat="48.89509" lon="7.40811">
        <ele>335</ele>
        <time>2021-08-08T08:56:11Z</time>
      </trkpt>
      <trkpt lat="48.89509" lon="7.40811">
        <ele>335</ele>
        <time>2021-08-08T08:56:12Z</time>
      </trkpt>
      <trkpt lat="48.89507" lon="7.40809">
        <ele>335</ele>
        <time>2021-08-08T08:56:13Z</time>
      </trkpt>
      <trkpt lat="48.89507" lon="7.40809">
        <ele>335</ele>
        <time>2021-08-08T08:56:14Z</time>
      </trkpt>
      <trkpt lat="48.89505" lon="7.40807">
        <ele>336</ele>
        <time>2021-08-08T08:56:15Z</time>
      </trkpt>
      <trkpt lat="48.89505" lon="7.40807">
        <ele>336</ele>
        <time>2021-08-08T08:56:16Z</time>
      </trkpt>
      <trkpt lat="48.89503" lon="7.40805">
        <ele>336</ele>
        <time>2021-08-08T08:56:17Z</time>
      </trkpt>
      <trkpt lat="48.89503" lon="7.40805">
        <ele>336</ele>
        <time>2021-08-08T08:56:18Z</time>
      </trkpt>
      <trkpt lat="48.89502" lon="7.40803">
        <ele>336</ele>
        <time>2021-08-08T08:56:19Z</time>
      </trkpt>
      <trkpt lat="48.89502" lon="7.40803">
        <ele>336</ele>
        <time>2021-08-08T08:56:20Z</time>
      </trkpt>
      <trkpt lat="48.89499" lon="7.408">
        <ele>337</ele>
        <time>2021-08-08T08:56:21Z</time>
      </trkpt>
      <trkpt lat="48.89499" lon="7.408">
        <ele>337</ele>
        <time>2021-08-08T08:56:22Z</time>
      </trkpt>
      <trkpt lat="48.89498" lon="7.40797">
        <ele>337</ele>
        <time>2021-08-08T08:56:23Z</time>
      </trkpt>
      <trkpt lat="48.89498" lon="7.40797">
        <ele>337</ele>
        <time>2021-08-08T08:56:24Z</time>
      </trkpt>
      <trkpt lat="48.89496" lon="7.40795">
        <ele>337</ele>
        <time>2021-08-08T08:56:25Z</time>
      </trkpt>
      <trkpt lat="48.89496" lon="7.40795">
        <ele>338</ele>
        <time>2021-08-08T08:56:26Z</time>
      </trkpt>
      <trkpt lat="48.89495" lon="7.40792">
        <ele>338</ele>
        <time>2021-08-08T08:56:27Z</time>
      </trkpt>
      <trkpt lat="48.89495" lon="7.40792">
        <ele>338</ele>
        <time>2021-08-08T08:56:28Z</time>
      </trkpt>
      <trkpt lat="48.89495" lon="7.40792">
        <ele>338</ele>
        <time>2021-08-08T08:56:29Z</time>
      </trkpt>
      <trkpt lat="48.89493" lon="7.4079">
        <ele>338</ele>
        <time>2021-08-08T08:56:30Z</time>
      </trkpt>
      <trkpt lat="48.89492" lon="7.40786">
        <ele>338</ele>
        <time>2021-08-08T08:56:31Z</time>
      </trkpt>
      <trkpt lat="48.89492" lon="7.40786">
        <ele>339</ele>
        <time>2021-08-08T08:56:32Z</time>
      </trkpt>
      <trkpt lat="48.8949" lon="7.40784">
        <ele>339</ele>
        <time>2021-08-08T08:56:33Z</time>
      </trkpt>
      <trkpt lat="48.8949" lon="7.40784">
        <ele>339</ele>
        <time>2021-08-08T08:56:34Z</time>
      </trkpt>
      <trkpt lat="48.89488" lon="7.40781">
        <ele>339</ele>
        <time>2021-08-08T08:56:35Z</time>
      </trkpt>
      <trkpt lat="48.89488" lon="7.40781">
        <ele>339</ele>
        <time>2021-08-08T08:56:36Z</time>
      </trkpt>
      <trkpt lat="48.89486" lon="7.40779">
        <ele>339</ele>
        <time>2021-08-08T08:56:37Z</time>
      </trkpt>
      <trkpt lat="48.89486" lon="7.40779">
        <ele>340</ele>
        <time>2021-08-08T08:56:38Z</time>
      </trkpt>
      <trkpt lat="48.89484" lon="7.40776">
        <ele>340</ele>
        <time>2021-08-08T08:56:39Z</time>
      </trkpt>
      <trkpt lat="48.89484" lon="7.40776">
        <ele>340</ele>
        <time>2021-08-08T08:56:40Z</time>
      </trkpt>
      <trkpt lat="48.89483" lon="7.40774">
        <ele>340</ele>
        <time>2021-08-08T08:56:41Z</time>
      </trkpt>
      <trkpt lat="48.89483" lon="7.40774">
        <ele>341</ele>
        <time>2021-08-08T08:56:42Z</time>
      </trkpt>
      <trkpt lat="48.89482" lon="7.40772">
        <ele>341</ele>
        <time>2021-08-08T08:56:43Z</time>
      </trkpt>
      <trkpt lat="48.89482" lon="7.40772">
        <ele>341</ele>
        <time>2021-08-08T08:56:44Z</time>
      </trkpt>
      <trkpt lat="48.8948" lon="7.40768">
        <ele>341</ele>
        <time>2021-08-08T08:56:45Z</time>
      </trkpt>
      <trkpt lat="48.8948" lon="7.40768">
        <ele>342</ele>
        <time>2021-08-08T08:56:46Z</time>
      </trkpt>
      <trkpt lat="48.89476" lon="7.40763">
        <ele>342</ele>
        <time>2021-08-08T08:56:47Z</time>
      </trkpt>
      <trkpt lat="48.89476" lon="7.40763">
        <ele>343</ele>
        <time>2021-08-08T08:56:48Z</time>
      </trkpt>
      <trkpt lat="48.89476" lon="7.40763">
        <ele>343</ele>
        <time>2021-08-08T08:56:49Z</time>
      </trkpt>
      <trkpt lat="48.89473" lon="7.4076">
        <ele>344</ele>
        <time>2021-08-08T08:56:50Z</time>
      </trkpt>
      <trkpt lat="48.89472" lon="7.40759">
        <ele>344</ele>
        <time>2021-08-08T08:56:51Z</time>
      </trkpt>
      <trkpt lat="48.89471" lon="7.40757">
        <ele>344</ele>
        <time>2021-08-08T08:56:52Z</time>
      </trkpt>
      <trkpt lat="48.89471" lon="7.40757">
        <ele>344</ele>
        <time>2021-08-08T08:56:53Z</time>
      </trkpt>
      <trkpt lat="48.89469" lon="7.40755">
        <ele>345</ele>
        <time>2021-08-08T08:56:54Z</time>
      </trkpt>
      <trkpt lat="48.89469" lon="7.40755">
        <ele>345</ele>
        <time>2021-08-08T08:56:55Z</time>
      </trkpt>
      <trkpt lat="48.89468" lon="7.40752">
        <ele>345</ele>
        <time>2021-08-08T08:56:56Z</time>
      </trkpt>
      <trkpt lat="48.89466" lon="7.4075">
        <ele>345</ele>
        <time>2021-08-08T08:56:57Z</time>
      </trkpt>
      <trkpt lat="48.89466" lon="7.4075">
        <ele>346</ele>
        <time>2021-08-08T08:56:58Z</time>
      </trkpt>
      <trkpt lat="48.89464" lon="7.40747">
        <ele>346</ele>
        <time>2021-08-08T08:56:59Z</time>
      </trkpt>
      <trkpt lat="48.89464" lon="7.40747">
        <ele>346</ele>
        <time>2021-08-08T08:57:00Z</time>
      </trkpt>
      <trkpt lat="48.89462" lon="7.40745">
        <ele>346</ele>
        <time>2021-08-08T08:57:01Z</time>
      </trkpt>
      <trkpt lat="48.89462" lon="7.40745">
        <ele>347</ele>
        <time>2021-08-08T08:57:02Z</time>
      </trkpt>
      <trkpt lat="48.8946" lon="7.40742">
        <ele>347</ele>
        <time>2021-08-08T08:57:03Z</time>
      </trkpt>
      <trkpt lat="48.8946" lon="7.40742">
        <ele>347</ele>
        <time>2021-08-08T08:57:04Z</time>
      </trkpt>
      <trkpt lat="48.8946" lon="7.40739">
        <ele>347</ele>
        <time>2021-08-08T08:57:05Z</time>
      </trkpt>
      <trkpt lat="48.89459" lon="7.40738">
        <ele>348</ele>
        <time>2021-08-08T08:57:06Z</time>
      </trkpt>
      <trkpt lat="48.89458" lon="7.40737">
        <ele>348</ele>
        <time>2021-08-08T08:57:07Z</time>
      </trkpt>
      <trkpt lat="48.89458" lon="7.40737">
        <ele>348</ele>
        <time>2021-08-08T08:57:08Z</time>
      </trkpt>
      <trkpt lat="48.89456" lon="7.40735">
        <ele>348</ele>
        <time>2021-08-08T08:57:09Z</time>
      </trkpt>
      <trkpt lat="48.89456" lon="7.40735">
        <ele>349</ele>
        <time>2021-08-08T08:57:10Z</time>
      </trkpt>
      <trkpt lat="48.89455" lon="7.40733">
        <ele>349</ele>
        <time>2021-08-08T08:57:11Z</time>
      </trkpt>
      <trkpt lat="48.89455" lon="7.40733">
        <ele>349</ele>
        <time>2021-08-08T08:57:12Z</time>
      </trkpt>
      <trkpt lat="48.89452" lon="7.4073">
        <ele>349</ele>
        <time>2021-08-08T08:57:13Z</time>
      </trkpt>
      <trkpt lat="48.89452" lon="7.4073">
        <ele>349</ele>
        <time>2021-08-08T08:57:14Z</time>
      </trkpt>
      <trkpt lat="48.8945" lon="7.40727">
        <ele>349</ele>
        <time>2021-08-08T08:57:15Z</time>
      </trkpt>
      <trkpt lat="48.8945" lon="7.40727">
        <ele>349</ele>
        <time>2021-08-08T08:57:16Z</time>
      </trkpt>
      <trkpt lat="48.89449" lon="7.40725">
        <ele>349</ele>
        <time>2021-08-08T08:57:17Z</time>
      </trkpt>
      <trkpt lat="48.89449" lon="7.40725">
        <ele>350</ele>
        <time>2021-08-08T08:57:18Z</time>
      </trkpt>
      <trkpt lat="48.89447" lon="7.40722">
        <ele>350</ele>
        <time>2021-08-08T08:57:19Z</time>
      </trkpt>
      <trkpt lat="48.89447" lon="7.40722">
        <ele>350</ele>
        <time>2021-08-08T08:57:20Z</time>
      </trkpt>
      <trkpt lat="48.89445" lon="7.4072">
        <ele>350</ele>
        <time>2021-08-08T08:57:21Z</time>
      </trkpt>
      <trkpt lat="48.89445" lon="7.4072">
        <ele>351</ele>
        <time>2021-08-08T08:57:22Z</time>
      </trkpt>
      <trkpt lat="48.8944" lon="7.40715">
        <ele>351</ele>
        <time>2021-08-08T08:57:23Z</time>
      </trkpt>
      <trkpt lat="48.8944" lon="7.40715">
        <ele>351</ele>
        <time>2021-08-08T08:57:24Z</time>
      </trkpt>
      <trkpt lat="48.89438" lon="7.40713">
        <ele>351</ele>
        <time>2021-08-08T08:57:25Z</time>
      </trkpt>
      <trkpt lat="48.89437" lon="7.40713">
        <ele>352</ele>
        <time>2021-08-08T08:57:26Z</time>
      </trkpt>
      <trkpt lat="48.89437" lon="7.40713">
        <ele>352</ele>
        <time>2021-08-08T08:57:27Z</time>
      </trkpt>
      <trkpt lat="48.89435" lon="7.40712">
        <ele>352</ele>
        <time>2021-08-08T08:57:28Z</time>
      </trkpt>
      <trkpt lat="48.89435" lon="7.40712">
        <ele>352</ele>
        <time>2021-08-08T08:57:29Z</time>
      </trkpt>
      <trkpt lat="48.89435" lon="7.40712">
        <ele>352</ele>
        <time>2021-08-08T08:57:30Z</time>
      </trkpt>
      <trkpt lat="48.89433" lon="7.40709">
        <ele>352</ele>
        <time>2021-08-08T08:57:31Z</time>
      </trkpt>
      <trkpt lat="48.89433" lon="7.40709">
        <ele>352</ele>
        <time>2021-08-08T08:57:32Z</time>
      </trkpt>
      <trkpt lat="48.8943" lon="7.40707">
        <ele>352</ele>
        <time>2021-08-08T08:57:33Z</time>
      </trkpt>
      <trkpt lat="48.8943" lon="7.40707">
        <ele>352</ele>
        <time>2021-08-08T08:57:34Z</time>
      </trkpt>
      <trkpt lat="48.89427" lon="7.40704">
        <ele>352</ele>
        <time>2021-08-08T08:57:35Z</time>
      </trkpt>
      <trkpt lat="48.89426" lon="7.40703">
        <ele>352</ele>
        <time>2021-08-08T08:57:36Z</time>
      </trkpt>
      <trkpt lat="48.89426" lon="7.40703">
        <ele>352</ele>
        <time>2021-08-08T08:57:37Z</time>
      </trkpt>
      <trkpt lat="48.89423" lon="7.40698">
        <ele>352</ele>
        <time>2021-08-08T08:57:38Z</time>
      </trkpt>
      <trkpt lat="48.89421" lon="7.40696">
        <ele>352</ele>
        <time>2021-08-08T08:57:39Z</time>
      </trkpt>
      <trkpt lat="48.89421" lon="7.40696">
        <ele>351</ele>
        <time>2021-08-08T08:57:40Z</time>
      </trkpt>
      <trkpt lat="48.89417" lon="7.40692">
        <ele>351</ele>
        <time>2021-08-08T08:57:41Z</time>
      </trkpt>
      <trkpt lat="48.89417" lon="7.40692">
        <ele>351</ele>
        <time>2021-08-08T08:57:42Z</time>
      </trkpt>
      <trkpt lat="48.89417" lon="7.40692">
        <ele>351</ele>
        <time>2021-08-08T08:57:43Z</time>
      </trkpt>
      <trkpt lat="48.89415" lon="7.40688">
        <ele>350</ele>
        <time>2021-08-08T08:57:44Z</time>
      </trkpt>
      <trkpt lat="48.89411" lon="7.40685">
        <ele>350</ele>
        <time>2021-08-08T08:57:45Z</time>
      </trkpt>
      <trkpt lat="48.8941" lon="7.40683">
        <ele>350</ele>
        <time>2021-08-08T08:57:46Z</time>
      </trkpt>
      <trkpt lat="48.8941" lon="7.40683">
        <ele>349</ele>
        <time>2021-08-08T08:57:47Z</time>
      </trkpt>
      <trkpt lat="48.89407" lon="7.4068">
        <ele>349</ele>
        <time>2021-08-08T08:57:48Z</time>
      </trkpt>
      <trkpt lat="48.89405" lon="7.40677">
        <ele>348</ele>
        <time>2021-08-08T08:57:49Z</time>
      </trkpt>
      <trkpt lat="48.89405" lon="7.40677">
        <ele>348</ele>
        <time>2021-08-08T08:57:50Z</time>
      </trkpt>
      <trkpt lat="48.894" lon="7.40668">
        <ele>347</ele>
        <time>2021-08-08T08:57:51Z</time>
      </trkpt>
      <trkpt lat="48.894" lon="7.40668">
        <ele>347</ele>
        <time>2021-08-08T08:57:52Z</time>
      </trkpt>
      <trkpt lat="48.894" lon="7.40668">
        <ele>346</ele>
        <time>2021-08-08T08:57:53Z</time>
      </trkpt>
      <trkpt lat="48.89393" lon="7.40658">
        <ele>346</ele>
        <time>2021-08-08T08:57:54Z</time>
      </trkpt>
      <trkpt lat="48.89393" lon="7.40658">
        <ele>345</ele>
        <time>2021-08-08T08:57:55Z</time>
      </trkpt>
      <trkpt lat="48.89386" lon="7.40647">
        <ele>345</ele>
        <time>2021-08-08T08:57:56Z</time>
      </trkpt>
      <trkpt lat="48.89383" lon="7.40643">
        <ele>343</ele>
        <time>2021-08-08T08:57:57Z</time>
      </trkpt>
      <trkpt lat="48.89383" lon="7.40643">
        <ele>343</ele>
        <time>2021-08-08T08:57:58Z</time>
      </trkpt>
      <trkpt lat="48.89377" lon="7.40636">
        <ele>342</ele>
        <time>2021-08-08T08:57:59Z</time>
      </trkpt>
      <trkpt lat="48.89374" lon="7.40632">
        <ele>342</ele>
        <time>2021-08-08T08:58:00Z</time>
      </trkpt>
      <trkpt lat="48.89374" lon="7.40632">
        <ele>340</ele>
        <time>2021-08-08T08:58:01Z</time>
      </trkpt>
      <trkpt lat="48.89365" lon="7.40623">
        <ele>340</ele>
        <time>2021-08-08T08:58:02Z</time>
      </trkpt>
      <trkpt lat="48.8936" lon="7.40618">
        <ele>339</ele>
        <time>2021-08-08T08:58:03Z</time>
      </trkpt>
      <trkpt lat="48.8936" lon="7.40618">
        <ele>339</ele>
        <time>2021-08-08T08:58:04Z</time>
      </trkpt>
      <trkpt lat="48.89351" lon="7.4061">
        <ele>338</ele>
        <time>2021-08-08T08:58:05Z</time>
      </trkpt>
      <trkpt lat="48.89351" lon="7.4061">
        <ele>338</ele>
        <time>2021-08-08T08:58:06Z</time>
      </trkpt>
      <trkpt lat="48.89344" lon="7.40604">
        <ele>336</ele>
        <time>2021-08-08T08:58:07Z</time>
      </trkpt>
      <trkpt lat="48.89344" lon="7.40604">
        <ele>336</ele>
        <time>2021-08-08T08:58:08Z</time>
      </trkpt>
      <trkpt lat="48.89338" lon="7.40596">
        <ele>334</ele>
        <time>2021-08-08T08:58:09Z</time>
      </trkpt>
      <trkpt lat="48.89338" lon="7.40596">
        <ele>334</ele>
        <time>2021-08-08T08:58:10Z</time>
      </trkpt>
      <trkpt lat="48.89334" lon="7.4059">
        <ele>332</ele>
        <time>2021-08-08T08:58:11Z</time>
      </trkpt>
      <trkpt lat="48.89334" lon="7.4059">
        <ele>332</ele>
        <time>2021-08-08T08:58:12Z</time>
      </trkpt>
      <trkpt lat="48.8933" lon="7.40586">
        <ele>331</ele>
        <time>2021-08-08T08:58:13Z</time>
      </trkpt>
      <trkpt lat="48.8933" lon="7.40586">
        <ele>331</ele>
        <time>2021-08-08T08:58:14Z</time>
      </trkpt>
      <trkpt lat="48.89325" lon="7.4058">
        <ele>330</ele>
        <time>2021-08-08T08:58:15Z</time>
      </trkpt>
      <trkpt lat="48.89325" lon="7.4058">
        <ele>330</ele>
        <time>2021-08-08T08:58:16Z</time>
      </trkpt>
      <trkpt lat="48.89318" lon="7.40575">
        <ele>329</ele>
        <time>2021-08-08T08:58:17Z</time>
      </trkpt>
      <trkpt lat="48.89318" lon="7.40575">
        <ele>329</ele>
        <time>2021-08-08T08:58:18Z</time>
      </trkpt>
      <trkpt lat="48.89318" lon="7.40575">
        <ele>328</ele>
        <time>2021-08-08T08:58:19Z</time>
      </trkpt>
      <trkpt lat="48.89308" lon="7.40565">
        <ele>328</ele>
        <time>2021-08-08T08:58:20Z</time>
      </trkpt>
      <trkpt lat="48.893" lon="7.40555">
        <ele>326</ele>
        <time>2021-08-08T08:58:21Z</time>
      </trkpt>
      <trkpt lat="48.893" lon="7.40555">
        <ele>326</ele>
        <time>2021-08-08T08:58:22Z</time>
      </trkpt>
      <trkpt lat="48.89292" lon="7.40547">
        <ele>324</ele>
        <time>2021-08-08T08:58:23Z</time>
      </trkpt>
      <trkpt lat="48.89292" lon="7.40547">
        <ele>324</ele>
        <time>2021-08-08T08:58:24Z</time>
      </trkpt>
      <trkpt lat="48.89282" lon="7.40534">
        <ele>323</ele>
        <time>2021-08-08T08:58:25Z</time>
      </trkpt>
      <trkpt lat="48.89278" lon="7.40529">
        <ele>323</ele>
        <time>2021-08-08T08:58:26Z</time>
      </trkpt>
      <trkpt lat="48.89278" lon="7.40529">
        <ele>321</ele>
        <time>2021-08-08T08:58:27Z</time>
      </trkpt>
      <trkpt lat="48.8927" lon="7.40518">
        <ele>321</ele>
        <time>2021-08-08T08:58:28Z</time>
      </trkpt>
      <trkpt lat="48.8927" lon="7.40518">
        <ele>319</ele>
        <time>2021-08-08T08:58:29Z</time>
      </trkpt>
      <trkpt lat="48.89259" lon="7.40508">
        <ele>319</ele>
        <time>2021-08-08T08:58:30Z</time>
      </trkpt>
      <trkpt lat="48.89255" lon="7.40503">
        <ele>318</ele>
        <time>2021-08-08T08:58:31Z</time>
      </trkpt>
      <trkpt lat="48.89255" lon="7.40503">
        <ele>318</ele>
        <time>2021-08-08T08:58:32Z</time>
      </trkpt>
      <trkpt lat="48.89249" lon="7.40497">
        <ele>316</ele>
        <time>2021-08-08T08:58:33Z</time>
      </trkpt>
      <trkpt lat="48.89249" lon="7.40497">
        <ele>316</ele>
        <time>2021-08-08T08:58:34Z</time>
      </trkpt>
      <trkpt lat="48.89245" lon="7.40494">
        <ele>314</ele>
        <time>2021-08-08T08:58:35Z</time>
      </trkpt>
      <trkpt lat="48.89245" lon="7.40494">
        <ele>314</ele>
        <time>2021-08-08T08:58:36Z</time>
      </trkpt>
      <trkpt lat="48.89242" lon="7.40491">
        <ele>313</ele>
        <time>2021-08-08T08:58:37Z</time>
      </trkpt>
      <trkpt lat="48.89242" lon="7.40491">
        <ele>313</ele>
        <time>2021-08-08T08:58:38Z</time>
      </trkpt>
      <trkpt lat="48.89239" lon="7.40488">
        <ele>312</ele>
        <time>2021-08-08T08:58:39Z</time>
      </trkpt>
      <trkpt lat="48.89239" lon="7.40488">
        <ele>311</ele>
        <time>2021-08-08T08:58:40Z</time>
      </trkpt>
      <trkpt lat="48.89236" lon="7.40485">
        <ele>311</ele>
        <time>2021-08-08T08:58:41Z</time>
      </trkpt>
      <trkpt lat="48.89233" lon="7.40482">
        <ele>311</ele>
        <time>2021-08-08T08:58:42Z</time>
      </trkpt>
      <trkpt lat="48.89233" lon="7.40482">
        <ele>311</ele>
        <time>2021-08-08T08:58:43Z</time>
      </trkpt>
      <trkpt lat="48.89229" lon="7.40474">
        <ele>310</ele>
        <time>2021-08-08T08:58:44Z</time>
      </trkpt>
      <trkpt lat="48.89229" lon="7.40474">
        <ele>310</ele>
        <time>2021-08-08T08:58:45Z</time>
      </trkpt>
      <trkpt lat="48.89229" lon="7.40474">
        <ele>310</ele>
        <time>2021-08-08T08:58:46Z</time>
      </trkpt>
      <trkpt lat="48.89222" lon="7.40462">
        <ele>310</ele>
        <time>2021-08-08T08:58:47Z</time>
      </trkpt>
      <trkpt lat="48.89214" lon="7.40447">
        <ele>308</ele>
        <time>2021-08-08T08:58:48Z</time>
      </trkpt>
      <trkpt lat="48.89214" lon="7.40447">
        <ele>308</ele>
        <time>2021-08-08T08:58:49Z</time>
      </trkpt>
      <trkpt lat="48.89203" lon="7.40436">
        <ele>306</ele>
        <time>2021-08-08T08:58:50Z</time>
      </trkpt>
      <trkpt lat="48.89194" lon="7.40431">
        <ele>306</ele>
        <time>2021-08-08T08:58:51Z</time>
      </trkpt>
      <trkpt lat="48.89194" lon="7.40431">
        <ele>305</ele>
        <time>2021-08-08T08:58:52Z</time>
      </trkpt>
      <trkpt lat="48.89178" lon="7.40418">
        <ele>305</ele>
        <time>2021-08-08T08:58:53Z</time>
      </trkpt>
      <trkpt lat="48.89178" lon="7.40418">
        <ele>302</ele>
        <time>2021-08-08T08:58:54Z</time>
      </trkpt>
      <trkpt lat="48.89178" lon="7.40418">
        <ele>302</ele>
        <time>2021-08-08T08:58:55Z</time>
      </trkpt>
      <trkpt lat="48.8916" lon="7.40415">
        <ele>300</ele>
        <time>2021-08-08T08:58:56Z</time>
      </trkpt>
      <trkpt lat="48.89143" lon="7.40413">
        <ele>300</ele>
        <time>2021-08-08T08:58:57Z</time>
      </trkpt>
      <trkpt lat="48.89143" lon="7.40413">
        <ele>297</ele>
        <time>2021-08-08T08:58:58Z</time>
      </trkpt>
      <trkpt lat="48.89119" lon="7.40413">
        <ele>297</ele>
        <time>2021-08-08T08:58:59Z</time>
      </trkpt>
      <trkpt lat="48.8911" lon="7.40412">
        <ele>295</ele>
        <time>2021-08-08T08:59:00Z</time>
      </trkpt>
      <trkpt lat="48.89104" lon="7.40413">
        <ele>295</ele>
        <time>2021-08-08T08:59:01Z</time>
      </trkpt>
      <trkpt lat="48.89104" lon="7.40413">
        <ele>293</ele>
        <time>2021-08-08T08:59:02Z</time>
      </trkpt>
      <trkpt lat="48.8909" lon="7.40424">
        <ele>293</ele>
        <time>2021-08-08T08:59:03Z</time>
      </trkpt>
      <trkpt lat="48.8909" lon="7.40424">
        <ele>292</ele>
        <time>2021-08-08T08:59:04Z</time>
      </trkpt>
      <trkpt lat="48.89079" lon="7.40432">
        <ele>292</ele>
        <time>2021-08-08T08:59:05Z</time>
      </trkpt>
      <trkpt lat="48.89079" lon="7.40432">
        <ele>292</ele>
        <time>2021-08-08T08:59:06Z</time>
      </trkpt>
      <trkpt lat="48.89068" lon="7.40437">
        <ele>292</ele>
        <time>2021-08-08T08:59:07Z</time>
      </trkpt>
      <trkpt lat="48.89068" lon="7.40437">
        <ele>292</ele>
        <time>2021-08-08T08:59:08Z</time>
      </trkpt>
      <trkpt lat="48.89062" lon="7.40441">
        <ele>292</ele>
        <time>2021-08-08T08:59:09Z</time>
      </trkpt>
      <trkpt lat="48.89062" lon="7.40441">
        <ele>292</ele>
        <time>2021-08-08T08:59:10Z</time>
      </trkpt>
      <trkpt lat="48.89054" lon="7.40445">
        <ele>292</ele>
        <time>2021-08-08T08:59:11Z</time>
      </trkpt>
      <trkpt lat="48.8905" lon="7.40447">
        <ele>292</ele>
        <time>2021-08-08T08:59:12Z</time>
      </trkpt>
      <trkpt lat="48.8905" lon="7.40447">
        <ele>292</ele>
        <time>2021-08-08T08:59:13Z</time>
      </trkpt>
      <trkpt lat="48.89044" lon="7.40452">
        <ele>292</ele>
        <time>2021-08-08T08:59:14Z</time>
      </trkpt>
      <trkpt lat="48.89042" lon="7.40454">
        <ele>292</ele>
        <time>2021-08-08T08:59:15Z</time>
      </trkpt>
      <trkpt lat="48.89042" lon="7.40454">
        <ele>292</ele>
        <time>2021-08-08T08:59:16Z</time>
      </trkpt>
      <trkpt lat="48.89036" lon="7.40456">
        <ele>292</ele>
        <time>2021-08-08T08:59:17Z</time>
      </trkpt>
      <trkpt lat="48.89036" lon="7.40456">
        <ele>292</ele>
        <time>2021-08-08T08:59:18Z</time>
      </trkpt>
      <trkpt lat="48.89028" lon="7.40459">
        <ele>292</ele>
        <time>2021-08-08T08:59:19Z</time>
      </trkpt>
      <trkpt lat="48.89024" lon="7.4046">
        <ele>292</ele>
        <time>2021-08-08T08:59:20Z</time>
      </trkpt>
      <trkpt lat="48.89021" lon="7.40461">
        <ele>292</ele>
        <time>2021-08-08T08:59:21Z</time>
      </trkpt>
      <trkpt lat="48.89021" lon="7.40461">
        <ele>293</ele>
        <time>2021-08-08T08:59:22Z</time>
      </trkpt>
      <trkpt lat="48.89013" lon="7.40463">
        <ele>293</ele>
        <time>2021-08-08T08:59:23Z</time>
      </trkpt>
      <trkpt lat="48.89013" lon="7.40463">
        <ele>293</ele>
        <time>2021-08-08T08:59:24Z</time>
      </trkpt>
      <trkpt lat="48.89007" lon="7.40463">
        <ele>293</ele>
        <time>2021-08-08T08:59:25Z</time>
      </trkpt>
      <trkpt lat="48.89007" lon="7.40463">
        <ele>293</ele>
        <time>2021-08-08T08:59:26Z</time>
      </trkpt>
      <trkpt lat="48.88999" lon="7.40464">
        <ele>293</ele>
        <time>2021-08-08T08:59:27Z</time>
      </trkpt>
      <trkpt lat="48.88995" lon="7.40464">
        <ele>293</ele>
        <time>2021-08-08T08:59:28Z</time>
      </trkpt>
      <trkpt lat="48.88995" lon="7.40464">
        <ele>293</ele>
        <time>2021-08-08T08:59:29Z</time>
      </trkpt>
      <trkpt lat="48.8899" lon="7.40466">
        <ele>293</ele>
        <time>2021-08-08T08:59:30Z</time>
      </trkpt>
      <trkpt lat="48.88983" lon="7.40467">
        <ele>293</ele>
        <time>2021-08-08T08:59:31Z</time>
      </trkpt>
      <trkpt lat="48.88983" lon="7.40467">
        <ele>294</ele>
        <time>2021-08-08T08:59:32Z</time>
      </trkpt>
      <trkpt lat="48.88977" lon="7.40469">
        <ele>294</ele>
        <time>2021-08-08T08:59:33Z</time>
      </trkpt>
      <trkpt lat="48.88977" lon="7.40469">
        <ele>294</ele>
        <time>2021-08-08T08:59:34Z</time>
      </trkpt>
      <trkpt lat="48.8897" lon="7.40471">
        <ele>294</ele>
        <time>2021-08-08T08:59:35Z</time>
      </trkpt>
      <trkpt lat="48.8897" lon="7.40471">
        <ele>294</ele>
        <time>2021-08-08T08:59:36Z</time>
      </trkpt>
      <trkpt lat="48.88964" lon="7.40472">
        <ele>294</ele>
        <time>2021-08-08T08:59:37Z</time>
      </trkpt>
      <trkpt lat="48.88964" lon="7.40472">
        <ele>294</ele>
        <time>2021-08-08T08:59:38Z</time>
      </trkpt>
      <trkpt lat="48.88956" lon="7.40473">
        <ele>294</ele>
        <time>2021-08-08T08:59:39Z</time>
      </trkpt>
      <trkpt lat="48.88956" lon="7.40473">
        <ele>294</ele>
        <time>2021-08-08T08:59:40Z</time>
      </trkpt>
      <trkpt lat="48.88949" lon="7.40479">
        <ele>294</ele>
        <time>2021-08-08T08:59:41Z</time>
      </trkpt>
      <trkpt lat="48.88949" lon="7.40479">
        <ele>294</ele>
        <time>2021-08-08T08:59:42Z</time>
      </trkpt>
      <trkpt lat="48.88944" lon="7.40484">
        <ele>294</ele>
        <time>2021-08-08T08:59:43Z</time>
      </trkpt>
      <trkpt lat="48.88944" lon="7.40484">
        <ele>294</ele>
        <time>2021-08-08T08:59:44Z</time>
      </trkpt>
      <trkpt lat="48.88935" lon="7.40487">
        <ele>294</ele>
        <time>2021-08-08T08:59:45Z</time>
      </trkpt>
      <trkpt lat="48.88935" lon="7.40487">
        <ele>294</ele>
        <time>2021-08-08T08:59:46Z</time>
      </trkpt>
      <trkpt lat="48.88928" lon="7.4049">
        <ele>294</ele>
        <time>2021-08-08T08:59:47Z</time>
      </trkpt>
      <trkpt lat="48.88924" lon="7.40492">
        <ele>294</ele>
        <time>2021-08-08T08:59:48Z</time>
      </trkpt>
      <trkpt lat="48.88924" lon="7.40492">
        <ele>294</ele>
        <time>2021-08-08T08:59:49Z</time>
      </trkpt>
      <trkpt lat="48.88917" lon="7.40497">
        <ele>294</ele>
        <time>2021-08-08T08:59:50Z</time>
      </trkpt>
      <trkpt lat="48.88917" lon="7.40497">
        <ele>294</ele>
        <time>2021-08-08T08:59:51Z</time>
      </trkpt>
      <trkpt lat="48.88914" lon="7.40502">
        <ele>294</ele>
        <time>2021-08-08T08:59:52Z</time>
      </trkpt>
      <trkpt lat="48.88914" lon="7.40502">
        <ele>294</ele>
        <time>2021-08-08T08:59:53Z</time>
      </trkpt>
      <trkpt lat="48.8891" lon="7.40509">
        <ele>294</ele>
        <time>2021-08-08T08:59:54Z</time>
      </trkpt>
      <trkpt lat="48.88909" lon="7.40512">
        <ele>294</ele>
        <time>2021-08-08T08:59:55Z</time>
      </trkpt>
      <trkpt lat="48.88909" lon="7.40512">
        <ele>294</ele>
        <time>2021-08-08T08:59:56Z</time>
      </trkpt>
      <trkpt lat="48.88906" lon="7.40521">
        <ele>294</ele>
        <time>2021-08-08T08:59:57Z</time>
      </trkpt>
      <trkpt lat="48.88906" lon="7.40521">
        <ele>294</ele>
        <time>2021-08-08T08:59:58Z</time>
      </trkpt>
      <trkpt lat="48.88902" lon="7.40532">
        <ele>294</ele>
        <time>2021-08-08T08:59:59Z</time>
      </trkpt>
      <trkpt lat="48.88902" lon="7.40532">
        <ele>294</ele>
        <time>2021-08-08T09:00:00Z</time>
      </trkpt>
      <trkpt lat="48.88897" lon="7.4055">
        <ele>293</ele>
        <time>2021-08-08T09:00:01Z</time>
      </trkpt>
      <trkpt lat="48.88897" lon="7.4055">
        <ele>293</ele>
        <time>2021-08-08T09:00:02Z</time>
      </trkpt>
      <trkpt lat="48.88897" lon="7.4055">
        <ele>292</ele>
        <time>2021-08-08T09:00:03Z</time>
      </trkpt>
      <trkpt lat="48.88893" lon="7.40564">
        <ele>292</ele>
        <time>2021-08-08T09:00:04Z</time>
      </trkpt>
      <trkpt lat="48.88885" lon="7.4057">
        <ele>291</ele>
        <time>2021-08-08T09:00:05Z</time>
      </trkpt>
      <trkpt lat="48.88885" lon="7.4057">
        <ele>291</ele>
        <time>2021-08-08T09:00:06Z</time>
      </trkpt>
      <trkpt lat="48.88885" lon="7.4057">
        <ele>290</ele>
        <time>2021-08-08T09:00:07Z</time>
      </trkpt>
      <trkpt lat="48.88874" lon="7.40566">
        <ele>290</ele>
        <time>2021-08-08T09:00:08Z</time>
      </trkpt>
      <trkpt lat="48.88863" lon="7.40559">
        <ele>289</ele>
        <time>2021-08-08T09:00:09Z</time>
      </trkpt>
      <trkpt lat="48.88856" lon="7.40557">
        <ele>289</ele>
        <time>2021-08-08T09:00:10Z</time>
      </trkpt>
      <trkpt lat="48.88856" lon="7.40557">
        <ele>288</ele>
        <time>2021-08-08T09:00:11Z</time>
      </trkpt>
      <trkpt lat="48.88843" lon="7.40567">
        <ele>288</ele>
        <time>2021-08-08T09:00:12Z</time>
      </trkpt>
      <trkpt lat="48.88836" lon="7.40572">
        <ele>286</ele>
        <time>2021-08-08T09:00:13Z</time>
      </trkpt>
      <trkpt lat="48.88836" lon="7.40572">
        <ele>286</ele>
        <time>2021-08-08T09:00:14Z</time>
      </trkpt>
      <trkpt lat="48.88826" lon="7.40586">
        <ele>285</ele>
        <time>2021-08-08T09:00:15Z</time>
      </trkpt>
      <trkpt lat="48.88826" lon="7.40586">
        <ele>285</ele>
        <time>2021-08-08T09:00:16Z</time>
      </trkpt>
      <trkpt lat="48.88816" lon="7.40603">
        <ele>284</ele>
        <time>2021-08-08T09:00:17Z</time>
      </trkpt>
      <trkpt lat="48.88816" lon="7.40603">
        <ele>284</ele>
        <time>2021-08-08T09:00:18Z</time>
      </trkpt>
      <trkpt lat="48.88805" lon="7.4062">
        <ele>283</ele>
        <time>2021-08-08T09:00:19Z</time>
      </trkpt>
      <trkpt lat="48.88805" lon="7.4062">
        <ele>283</ele>
        <time>2021-08-08T09:00:20Z</time>
      </trkpt>
      <trkpt lat="48.88793" lon="7.40638">
        <ele>281</ele>
        <time>2021-08-08T09:00:21Z</time>
      </trkpt>
      <trkpt lat="48.88793" lon="7.40638">
        <ele>281</ele>
        <time>2021-08-08T09:00:22Z</time>
      </trkpt>
      <trkpt lat="48.88781" lon="7.40653">
        <ele>280</ele>
        <time>2021-08-08T09:00:23Z</time>
      </trkpt>
      <trkpt lat="48.88781" lon="7.40653">
        <ele>280</ele>
        <time>2021-08-08T09:00:24Z</time>
      </trkpt>
      <trkpt lat="48.88769" lon="7.40668">
        <ele>280</ele>
        <time>2021-08-08T09:00:25Z</time>
      </trkpt>
      <trkpt lat="48.88762" lon="7.40676">
        <ele>280</ele>
        <time>2021-08-08T09:00:26Z</time>
      </trkpt>
      <trkpt lat="48.88762" lon="7.40676">
        <ele>279</ele>
        <time>2021-08-08T09:00:27Z</time>
      </trkpt>
      <trkpt lat="48.88749" lon="7.40688">
        <ele>279</ele>
        <time>2021-08-08T09:00:28Z</time>
      </trkpt>
      <trkpt lat="48.88749" lon="7.40688">
        <ele>278</ele>
        <time>2021-08-08T09:00:29Z</time>
      </trkpt>
      <trkpt lat="48.88733" lon="7.40695">
        <ele>277</ele>
        <time>2021-08-08T09:00:30Z</time>
      </trkpt>
      <trkpt lat="48.88724" lon="7.40698">
        <ele>277</ele>
        <time>2021-08-08T09:00:31Z</time>
      </trkpt>
      <trkpt lat="48.88724" lon="7.40698">
        <ele>276</ele>
        <time>2021-08-08T09:00:32Z</time>
      </trkpt>
      <trkpt lat="48.88707" lon="7.40707">
        <ele>276</ele>
        <time>2021-08-08T09:00:33Z</time>
      </trkpt>
      <trkpt lat="48.88707" lon="7.40707">
        <ele>276</ele>
        <time>2021-08-08T09:00:34Z</time>
      </trkpt>
      <trkpt lat="48.88691" lon="7.40714">
        <ele>275</ele>
        <time>2021-08-08T09:00:35Z</time>
      </trkpt>
      <trkpt lat="48.88691" lon="7.40714">
        <ele>275</ele>
        <time>2021-08-08T09:00:36Z</time>
      </trkpt>
      <trkpt lat="48.88674" lon="7.40722">
        <ele>273</ele>
        <time>2021-08-08T09:00:37Z</time>
      </trkpt>
      <trkpt lat="48.88674" lon="7.40722">
        <ele>273</ele>
        <time>2021-08-08T09:00:38Z</time>
      </trkpt>
      <trkpt lat="48.88655" lon="7.4073">
        <ele>272</ele>
        <time>2021-08-08T09:00:39Z</time>
      </trkpt>
      <trkpt lat="48.88655" lon="7.4073">
        <ele>272</ele>
        <time>2021-08-08T09:00:40Z</time>
      </trkpt>
      <trkpt lat="48.88636" lon="7.40741">
        <ele>271</ele>
        <time>2021-08-08T09:00:41Z</time>
      </trkpt>
      <trkpt lat="48.88636" lon="7.40741">
        <ele>271</ele>
        <time>2021-08-08T09:00:42Z</time>
      </trkpt>
      <trkpt lat="48.88623" lon="7.40757">
        <ele>269</ele>
        <time>2021-08-08T09:00:43Z</time>
      </trkpt>
      <trkpt lat="48.88623" lon="7.40757">
        <ele>269</ele>
        <time>2021-08-08T09:00:44Z</time>
      </trkpt>
      <trkpt lat="48.88612" lon="7.40776">
        <ele>268</ele>
        <time>2021-08-08T09:00:45Z</time>
      </trkpt>
      <trkpt lat="48.88612" lon="7.40776">
        <ele>268</ele>
        <time>2021-08-08T09:00:46Z</time>
      </trkpt>
      <trkpt lat="48.88601" lon="7.40798">
        <ele>267</ele>
        <time>2021-08-08T09:00:47Z</time>
      </trkpt>
      <trkpt lat="48.88601" lon="7.40798">
        <ele>267</ele>
        <time>2021-08-08T09:00:48Z</time>
      </trkpt>
      <trkpt lat="48.88601" lon="7.40798">
        <ele>266</ele>
        <time>2021-08-08T09:00:49Z</time>
      </trkpt>
      <trkpt lat="48.88591" lon="7.40818">
        <ele>266</ele>
        <time>2021-08-08T09:00:50Z</time>
      </trkpt>
      <trkpt lat="48.88579" lon="7.40836">
        <ele>265</ele>
        <time>2021-08-08T09:00:51Z</time>
      </trkpt>
      <trkpt lat="48.88579" lon="7.40836">
        <ele>265</ele>
        <time>2021-08-08T09:00:52Z</time>
      </trkpt>
      <trkpt lat="48.88565" lon="7.4085">
        <ele>265</ele>
        <time>2021-08-08T09:00:53Z</time>
      </trkpt>
      <trkpt lat="48.88557" lon="7.40854">
        <ele>265</ele>
        <time>2021-08-08T09:00:54Z</time>
      </trkpt>
      <trkpt lat="48.88557" lon="7.40854">
        <ele>264</ele>
        <time>2021-08-08T09:00:55Z</time>
      </trkpt>
      <trkpt lat="48.88541" lon="7.40855">
        <ele>264</ele>
        <time>2021-08-08T09:00:56Z</time>
      </trkpt>
      <trkpt lat="48.88541" lon="7.40855">
        <ele>264</ele>
        <time>2021-08-08T09:00:57Z</time>
      </trkpt>
      <trkpt lat="48.88527" lon="7.40853">
        <ele>264</ele>
        <time>2021-08-08T09:00:58Z</time>
      </trkpt>
      <trkpt lat="48.88527" lon="7.40853">
        <ele>264</ele>
        <time>2021-08-08T09:00:59Z</time>
      </trkpt>
      <trkpt lat="48.88514" lon="7.40847">
        <ele>264</ele>
        <time>2021-08-08T09:01:00Z</time>
      </trkpt>
      <trkpt lat="48.88514" lon="7.40847">
        <ele>263</ele>
        <time>2021-08-08T09:01:01Z</time>
      </trkpt>
      <trkpt lat="48.88499" lon="7.40839">
        <ele>263</ele>
        <time>2021-08-08T09:01:02Z</time>
      </trkpt>
      <trkpt lat="48.88499" lon="7.40839">
        <ele>262</ele>
        <time>2021-08-08T09:01:03Z</time>
      </trkpt>
      <trkpt lat="48.88486" lon="7.4083">
        <ele>262</ele>
        <time>2021-08-08T09:01:04Z</time>
      </trkpt>
      <trkpt lat="48.88478" lon="7.40827">
        <ele>261</ele>
        <time>2021-08-08T09:01:05Z</time>
      </trkpt>
      <trkpt lat="48.88478" lon="7.40827">
        <ele>261</ele>
        <time>2021-08-08T09:01:06Z</time>
      </trkpt>
      <trkpt lat="48.88463" lon="7.40822">
        <ele>260</ele>
        <time>2021-08-08T09:01:07Z</time>
      </trkpt>
      <trkpt lat="48.88455" lon="7.40819">
        <ele>260</ele>
        <time>2021-08-08T09:01:08Z</time>
      </trkpt>
      <trkpt lat="48.88455" lon="7.40819">
        <ele>259</ele>
        <time>2021-08-08T09:01:09Z</time>
      </trkpt>
      <trkpt lat="48.88439" lon="7.40816">
        <ele>259</ele>
        <time>2021-08-08T09:01:10Z</time>
      </trkpt>
      <trkpt lat="48.88439" lon="7.40816">
        <ele>259</ele>
        <time>2021-08-08T09:01:11Z</time>
      </trkpt>
      <trkpt lat="48.88423" lon="7.40815">
        <ele>259</ele>
        <time>2021-08-08T09:01:12Z</time>
      </trkpt>
      <trkpt lat="48.88415" lon="7.40816">
        <ele>257</ele>
        <time>2021-08-08T09:01:13Z</time>
      </trkpt>
      <trkpt lat="48.88415" lon="7.40816">
        <ele>257</ele>
        <time>2021-08-08T09:01:14Z</time>
      </trkpt>
      <trkpt lat="48.88401" lon="7.40822">
        <ele>257</ele>
        <time>2021-08-08T09:01:15Z</time>
      </trkpt>
      <trkpt lat="48.88401" lon="7.40822">
        <ele>257</ele>
        <time>2021-08-08T09:01:16Z</time>
      </trkpt>
      <trkpt lat="48.88387" lon="7.40832">
        <ele>256</ele>
        <time>2021-08-08T09:01:17Z</time>
      </trkpt>
      <trkpt lat="48.8838" lon="7.40838">
        <ele>256</ele>
        <time>2021-08-08T09:01:18Z</time>
      </trkpt>
      <trkpt lat="48.8838" lon="7.40838">
        <ele>255</ele>
        <time>2021-08-08T09:01:19Z</time>
      </trkpt>
      <trkpt lat="48.8838" lon="7.40838">
        <ele>255</ele>
        <time>2021-08-08T09:01:20Z</time>
      </trkpt>
      <trkpt lat="48.88365" lon="7.4085">
        <ele>254</ele>
        <time>2021-08-08T09:01:21Z</time>
      </trkpt>
      <trkpt lat="48.88352" lon="7.40865">
        <ele>254</ele>
        <time>2021-08-08T09:01:22Z</time>
      </trkpt>
      <trkpt lat="48.88352" lon="7.40865">
        <ele>253</ele>
        <time>2021-08-08T09:01:23Z</time>
      </trkpt>
      <trkpt lat="48.88341" lon="7.40883">
        <ele>253</ele>
        <time>2021-08-08T09:01:24Z</time>
      </trkpt>
      <trkpt lat="48.88341" lon="7.40883">
        <ele>252</ele>
        <time>2021-08-08T09:01:25Z</time>
      </trkpt>
      <trkpt lat="48.88329" lon="7.40901">
        <ele>252</ele>
        <time>2021-08-08T09:01:26Z</time>
      </trkpt>
      <trkpt lat="48.88329" lon="7.40901">
        <ele>252</ele>
        <time>2021-08-08T09:01:27Z</time>
      </trkpt>
      <trkpt lat="48.8832" lon="7.40919">
        <ele>251</ele>
        <time>2021-08-08T09:01:28Z</time>
      </trkpt>
      <trkpt lat="48.8832" lon="7.40919">
        <ele>251</ele>
        <time>2021-08-08T09:01:29Z</time>
      </trkpt>
      <trkpt lat="48.88313" lon="7.40934">
        <ele>250</ele>
        <time>2021-08-08T09:01:30Z</time>
      </trkpt>
      <trkpt lat="48.88313" lon="7.40934">
        <ele>250</ele>
        <time>2021-08-08T09:01:31Z</time>
      </trkpt>
      <trkpt lat="48.8831" lon="7.40942">
        <ele>250</ele>
        <time>2021-08-08T09:01:32Z</time>
      </trkpt>
      <trkpt lat="48.88304" lon="7.40961">
        <ele>250</ele>
        <time>2021-08-08T09:01:33Z</time>
      </trkpt>
      <trkpt lat="48.88304" lon="7.40961">
        <ele>249</ele>
        <time>2021-08-08T09:01:34Z</time>
      </trkpt>
      <trkpt lat="48.88297" lon="7.40977">
        <ele>249</ele>
        <time>2021-08-08T09:01:35Z</time>
      </trkpt>
      <trkpt lat="48.88297" lon="7.40977">
        <ele>249</ele>
        <time>2021-08-08T09:01:36Z</time>
      </trkpt>
      <trkpt lat="48.8829" lon="7.40993">
        <ele>249</ele>
        <time>2021-08-08T09:01:37Z</time>
      </trkpt>
      <trkpt lat="48.8829" lon="7.40993">
        <ele>248</ele>
        <time>2021-08-08T09:01:38Z</time>
      </trkpt>
      <trkpt lat="48.88285" lon="7.4101">
        <ele>248</ele>
        <time>2021-08-08T09:01:39Z</time>
      </trkpt>
      <trkpt lat="48.88283" lon="7.4102">
        <ele>248</ele>
        <time>2021-08-08T09:01:40Z</time>
      </trkpt>
      <trkpt lat="48.88283" lon="7.4102">
        <ele>248</ele>
        <time>2021-08-08T09:01:41Z</time>
      </trkpt>
      <trkpt lat="48.88283" lon="7.4102">
        <ele>248</ele>
        <time>2021-08-08T09:01:42Z</time>
      </trkpt>
      <trkpt lat="48.88278" lon="7.41055">
        <ele>248</ele>
        <time>2021-08-08T09:01:43Z</time>
      </trkpt>
      <trkpt lat="48.88278" lon="7.41055">
        <ele>248</ele>
        <time>2021-08-08T09:01:44Z</time>
      </trkpt>
      <trkpt lat="48.88276" lon="7.41077">
        <ele>248</ele>
        <time>2021-08-08T09:01:45Z</time>
      </trkpt>
      <trkpt lat="48.88275" lon="7.41087">
        <ele>248</ele>
        <time>2021-08-08T09:01:46Z</time>
      </trkpt>
      <trkpt lat="48.88275" lon="7.41087">
        <ele>248</ele>
        <time>2021-08-08T09:01:47Z</time>
      </trkpt>
      <trkpt lat="48.88271" lon="7.41107">
        <ele>248</ele>
        <time>2021-08-08T09:01:48Z</time>
      </trkpt>
      <trkpt lat="48.88271" lon="7.41107">
        <ele>247</ele>
        <time>2021-08-08T09:01:49Z</time>
      </trkpt>
      <trkpt lat="48.88268" lon="7.41132">
        <ele>247</ele>
        <time>2021-08-08T09:01:50Z</time>
      </trkpt>
      <trkpt lat="48.88268" lon="7.41132">
        <ele>247</ele>
        <time>2021-08-08T09:01:51Z</time>
      </trkpt>
      <trkpt lat="48.88266" lon="7.41157">
        <ele>247</ele>
        <time>2021-08-08T09:01:52Z</time>
      </trkpt>
      <trkpt lat="48.88266" lon="7.41157">
        <ele>246</ele>
        <time>2021-08-08T09:01:53Z</time>
      </trkpt>
      <trkpt lat="48.88264" lon="7.41181">
        <ele>246</ele>
        <time>2021-08-08T09:01:54Z</time>
      </trkpt>
      <trkpt lat="48.88263" lon="7.41193">
        <ele>246</ele>
        <time>2021-08-08T09:01:55Z</time>
      </trkpt>
      <trkpt lat="48.88263" lon="7.41193">
        <ele>246</ele>
        <time>2021-08-08T09:01:56Z</time>
      </trkpt>
      <trkpt lat="48.88262" lon="7.41212">
        <ele>245</ele>
        <time>2021-08-08T09:01:57Z</time>
      </trkpt>
      <trkpt lat="48.8826" lon="7.41224">
        <ele>245</ele>
        <time>2021-08-08T09:01:58Z</time>
      </trkpt>
      <trkpt lat="48.8826" lon="7.41224">
        <ele>245</ele>
        <time>2021-08-08T09:01:59Z</time>
      </trkpt>
      <trkpt lat="48.88257" lon="7.41241">
        <ele>245</ele>
        <time>2021-08-08T09:02:00Z</time>
      </trkpt>
      <trkpt lat="48.88257" lon="7.41241">
        <ele>244</ele>
        <time>2021-08-08T09:02:01Z</time>
      </trkpt>
      <trkpt lat="48.88255" lon="7.4125">
        <ele>244</ele>
        <time>2021-08-08T09:02:02Z</time>
      </trkpt>
      <trkpt lat="48.88249" lon="7.41268">
        <ele>244</ele>
        <time>2021-08-08T09:02:03Z</time>
      </trkpt>
      <trkpt lat="48.88249" lon="7.41268">
        <ele>244</ele>
        <time>2021-08-08T09:02:04Z</time>
      </trkpt>
      <trkpt lat="48.88242" lon="7.41294">
        <ele>244</ele>
        <time>2021-08-08T09:02:05Z</time>
      </trkpt>
      <trkpt lat="48.88242" lon="7.41294">
        <ele>244</ele>
        <time>2021-08-08T09:02:06Z</time>
      </trkpt>
      <trkpt lat="48.88238" lon="7.41316">
        <ele>244</ele>
        <time>2021-08-08T09:02:07Z</time>
      </trkpt>
      <trkpt lat="48.88238" lon="7.41316">
        <ele>244</ele>
        <time>2021-08-08T09:02:08Z</time>
      </trkpt>
      <trkpt lat="48.88237" lon="7.41338">
        <ele>243</ele>
        <time>2021-08-08T09:02:09Z</time>
      </trkpt>
      <trkpt lat="48.88237" lon="7.41338">
        <ele>243</ele>
        <time>2021-08-08T09:02:10Z</time>
      </trkpt>
      <trkpt lat="48.88238" lon="7.4136">
        <ele>243</ele>
        <time>2021-08-08T09:02:11Z</time>
      </trkpt>
      <trkpt lat="48.88238" lon="7.4136">
        <ele>243</ele>
        <time>2021-08-08T09:02:12Z</time>
      </trkpt>
      <trkpt lat="48.88241" lon="7.41382">
        <ele>243</ele>
        <time>2021-08-08T09:02:13Z</time>
      </trkpt>
      <trkpt lat="48.88241" lon="7.41382">
        <ele>243</ele>
        <time>2021-08-08T09:02:14Z</time>
      </trkpt>
      <trkpt lat="48.88243" lon="7.41402">
        <ele>243</ele>
        <time>2021-08-08T09:02:15Z</time>
      </trkpt>
      <trkpt lat="48.88243" lon="7.41402">
        <ele>242</ele>
        <time>2021-08-08T09:02:16Z</time>
      </trkpt>
      <trkpt lat="48.88249" lon="7.41423">
        <ele>242</ele>
        <time>2021-08-08T09:02:17Z</time>
      </trkpt>
      <trkpt lat="48.88249" lon="7.41423">
        <ele>242</ele>
        <time>2021-08-08T09:02:18Z</time>
      </trkpt>
      <trkpt lat="48.88255" lon="7.41442">
        <ele>242</ele>
        <time>2021-08-08T09:02:19Z</time>
      </trkpt>
      <trkpt lat="48.88258" lon="7.41452">
        <ele>240</ele>
        <time>2021-08-08T09:02:20Z</time>
      </trkpt>
      <trkpt lat="48.88261" lon="7.41462">
        <ele>240</ele>
        <time>2021-08-08T09:02:21Z</time>
      </trkpt>
      <trkpt lat="48.88261" lon="7.41462">
        <ele>240</ele>
        <time>2021-08-08T09:02:22Z</time>
      </trkpt>
      <trkpt lat="48.88265" lon="7.41481">
        <ele>239</ele>
        <time>2021-08-08T09:02:23Z</time>
      </trkpt>
      <trkpt lat="48.88265" lon="7.41481">
        <ele>239</ele>
        <time>2021-08-08T09:02:24Z</time>
      </trkpt>
      <trkpt lat="48.88267" lon="7.41498">
        <ele>239</ele>
        <time>2021-08-08T09:02:25Z</time>
      </trkpt>
      <trkpt lat="48.88267" lon="7.41498">
        <ele>239</ele>
        <time>2021-08-08T09:02:26Z</time>
      </trkpt>
      <trkpt lat="48.88261" lon="7.4151">
        <ele>238</ele>
        <time>2021-08-08T09:02:27Z</time>
      </trkpt>
      <trkpt lat="48.88261" lon="7.4151">
        <ele>238</ele>
        <time>2021-08-08T09:02:28Z</time>
      </trkpt>
      <trkpt lat="48.88257" lon="7.41513">
        <ele>238</ele>
        <time>2021-08-08T09:02:29Z</time>
      </trkpt>
      <trkpt lat="48.88257" lon="7.41513">
        <ele>238</ele>
        <time>2021-08-08T09:02:30Z</time>
      </trkpt>
      <trkpt lat="48.88247" lon="7.41512">
        <ele>237</ele>
        <time>2021-08-08T09:02:31Z</time>
      </trkpt>
      <trkpt lat="48.88237" lon="7.415">
        <ele>237</ele>
        <time>2021-08-08T09:02:32Z</time>
      </trkpt>
      <trkpt lat="48.88234" lon="7.41494">
        <ele>235</ele>
        <time>2021-08-08T09:02:33Z</time>
      </trkpt>
      <trkpt lat="48.88234" lon="7.41494">
        <ele>235</ele>
        <time>2021-08-08T09:02:34Z</time>
      </trkpt>
      <trkpt lat="48.88227" lon="7.41481">
        <ele>234</ele>
        <time>2021-08-08T09:02:35Z</time>
      </trkpt>
      <trkpt lat="48.88227" lon="7.41481">
        <ele>234</ele>
        <time>2021-08-08T09:02:36Z</time>
      </trkpt>
      <trkpt lat="48.88219" lon="7.41468">
        <ele>234</ele>
        <time>2021-08-08T09:02:37Z</time>
      </trkpt>
      <trkpt lat="48.88219" lon="7.41468">
        <ele>234</ele>
        <time>2021-08-08T09:02:38Z</time>
      </trkpt>
      <trkpt lat="48.88211" lon="7.4145">
        <ele>233</ele>
        <time>2021-08-08T09:02:39Z</time>
      </trkpt>
      <trkpt lat="48.88211" lon="7.4145">
        <ele>233</ele>
        <time>2021-08-08T09:02:40Z</time>
      </trkpt>
      <trkpt lat="48.88204" lon="7.41432">
        <ele>232</ele>
        <time>2021-08-08T09:02:41Z</time>
      </trkpt>
      <trkpt lat="48.88204" lon="7.41432">
        <ele>232</ele>
        <time>2021-08-08T09:02:42Z</time>
      </trkpt>
      <trkpt lat="48.88197" lon="7.41413">
        <ele>231</ele>
        <time>2021-08-08T09:02:43Z</time>
      </trkpt>
      <trkpt lat="48.88193" lon="7.41401">
        <ele>231</ele>
        <time>2021-08-08T09:02:44Z</time>
      </trkpt>
      <trkpt lat="48.8819" lon="7.41388">
        <ele>230</ele>
        <time>2021-08-08T09:02:45Z</time>
      </trkpt>
      <trkpt lat="48.8819" lon="7.41388">
        <ele>230</ele>
        <time>2021-08-08T09:02:46Z</time>
      </trkpt>
      <trkpt lat="48.88182" lon="7.41364">
        <ele>229</ele>
        <time>2021-08-08T09:02:47Z</time>
      </trkpt>
      <trkpt lat="48.88182" lon="7.41364">
        <ele>229</ele>
        <time>2021-08-08T09:02:48Z</time>
      </trkpt>
      <trkpt lat="48.88174" lon="7.4134">
        <ele>228</ele>
        <time>2021-08-08T09:02:49Z</time>
      </trkpt>
      <trkpt lat="48.88171" lon="7.41326">
        <ele>228</ele>
        <time>2021-08-08T09:02:50Z</time>
      </trkpt>
      <trkpt lat="48.88171" lon="7.41326">
        <ele>227</ele>
        <time>2021-08-08T09:02:51Z</time>
      </trkpt>
      <trkpt lat="48.88165" lon="7.413">
        <ele>227</ele>
        <time>2021-08-08T09:02:52Z</time>
      </trkpt>
      <trkpt lat="48.88165" lon="7.413">
        <ele>226</ele>
        <time>2021-08-08T09:02:53Z</time>
      </trkpt>
      <trkpt lat="48.88157" lon="7.41272">
        <ele>226</ele>
        <time>2021-08-08T09:02:54Z</time>
      </trkpt>
      <trkpt lat="48.88153" lon="7.4126">
        <ele>224</ele>
        <time>2021-08-08T09:02:55Z</time>
      </trkpt>
      <trkpt lat="48.88153" lon="7.4126">
        <ele>224</ele>
        <time>2021-08-08T09:02:56Z</time>
      </trkpt>
      <trkpt lat="48.88148" lon="7.41234">
        <ele>223</ele>
        <time>2021-08-08T09:02:57Z</time>
      </trkpt>
      <trkpt lat="48.88148" lon="7.41234">
        <ele>223</ele>
        <time>2021-08-08T09:02:58Z</time>
      </trkpt>
      <trkpt lat="48.88142" lon="7.41211">
        <ele>222</ele>
        <time>2021-08-08T09:02:59Z</time>
      </trkpt>
      <trkpt lat="48.88139" lon="7.41198">
        <ele>222</ele>
        <time>2021-08-08T09:03:00Z</time>
      </trkpt>
      <trkpt lat="48.88136" lon="7.41186">
        <ele>221</ele>
        <time>2021-08-08T09:03:01Z</time>
      </trkpt>
      <trkpt lat="48.88136" lon="7.41186">
        <ele>221</ele>
        <time>2021-08-08T09:03:02Z</time>
      </trkpt>
      <trkpt lat="48.88131" lon="7.41162">
        <ele>220</ele>
        <time>2021-08-08T09:03:03Z</time>
      </trkpt>
      <trkpt lat="48.88131" lon="7.41162">
        <ele>220</ele>
        <time>2021-08-08T09:03:04Z</time>
      </trkpt>
      <trkpt lat="48.88124" lon="7.41134">
        <ele>218</ele>
        <time>2021-08-08T09:03:05Z</time>
      </trkpt>
      <trkpt lat="48.88124" lon="7.41134">
        <ele>218</ele>
        <time>2021-08-08T09:03:06Z</time>
      </trkpt>
      <trkpt lat="48.88117" lon="7.41108">
        <ele>217</ele>
        <time>2021-08-08T09:03:07Z</time>
      </trkpt>
      <trkpt lat="48.88117" lon="7.41108">
        <ele>217</ele>
        <time>2021-08-08T09:03:08Z</time>
      </trkpt>
      <trkpt lat="48.88106" lon="7.41087">
        <ele>215</ele>
        <time>2021-08-08T09:03:09Z</time>
      </trkpt>
      <trkpt lat="48.88106" lon="7.41087">
        <ele>215</ele>
        <time>2021-08-08T09:03:10Z</time>
      </trkpt>
      <trkpt lat="48.88093" lon="7.4107">
        <ele>214</ele>
        <time>2021-08-08T09:03:11Z</time>
      </trkpt>
      <trkpt lat="48.88093" lon="7.4107">
        <ele>214</ele>
        <time>2021-08-08T09:03:12Z</time>
      </trkpt>
      <trkpt lat="48.88075" lon="7.41056">
        <ele>212</ele>
        <time>2021-08-08T09:03:13Z</time>
      </trkpt>
      <trkpt lat="48.88075" lon="7.41056">
        <ele>212</ele>
        <time>2021-08-08T09:03:14Z</time>
      </trkpt>
      <trkpt lat="48.88059" lon="7.41055">
        <ele>211</ele>
        <time>2021-08-08T09:03:15Z</time>
      </trkpt>
      <trkpt lat="48.88059" lon="7.41055">
        <ele>210</ele>
        <time>2021-08-08T09:03:16Z</time>
      </trkpt>
      <trkpt lat="48.88045" lon="7.41064">
        <ele>210</ele>
        <time>2021-08-08T09:03:17Z</time>
      </trkpt>
      <trkpt lat="48.88045" lon="7.41064">
        <ele>208</ele>
        <time>2021-08-08T09:03:18Z</time>
      </trkpt>
      <trkpt lat="48.8803" lon="7.41072">
        <ele>208</ele>
        <time>2021-08-08T09:03:19Z</time>
      </trkpt>
      <trkpt lat="48.8803" lon="7.41072">
        <ele>207</ele>
        <time>2021-08-08T09:03:20Z</time>
      </trkpt>
      <trkpt lat="48.88016" lon="7.41066">
        <ele>207</ele>
        <time>2021-08-08T09:03:21Z</time>
      </trkpt>
      <trkpt lat="48.88016" lon="7.41066">
        <ele>206</ele>
        <time>2021-08-08T09:03:22Z</time>
      </trkpt>
      <trkpt lat="48.88005" lon="7.41055">
        <ele>206</ele>
        <time>2021-08-08T09:03:23Z</time>
      </trkpt>
      <trkpt lat="48.88005" lon="7.41055">
        <ele>206</ele>
        <time>2021-08-08T09:03:24Z</time>
      </trkpt>
      <trkpt lat="48.87995" lon="7.41044">
        <ele>206</ele>
        <time>2021-08-08T09:03:25Z</time>
      </trkpt>
      <trkpt lat="48.87995" lon="7.41044">
        <ele>206</ele>
        <time>2021-08-08T09:03:26Z</time>
      </trkpt>
      <trkpt lat="48.87985" lon="7.41033">
        <ele>206</ele>
        <time>2021-08-08T09:03:27Z</time>
      </trkpt>
      <trkpt lat="48.87985" lon="7.41033">
        <ele>206</ele>
        <time>2021-08-08T09:03:28Z</time>
      </trkpt>
      <trkpt lat="48.87985" lon="7.41033">
        <ele>206</ele>
        <time>2021-08-08T09:03:29Z</time>
      </trkpt>
      <trkpt lat="48.87975" lon="7.41019">
        <ele>205</ele>
        <time>2021-08-08T09:03:30Z</time>
      </trkpt>
      <trkpt lat="48.87965" lon="7.41005">
        <ele>205</ele>
        <time>2021-08-08T09:03:31Z</time>
      </trkpt>
      <trkpt lat="48.87965" lon="7.41005">
        <ele>205</ele>
        <time>2021-08-08T09:03:32Z</time>
      </trkpt>
      <trkpt lat="48.87956" lon="7.4099">
        <ele>205</ele>
        <time>2021-08-08T09:03:33Z</time>
      </trkpt>
      <trkpt lat="48.87956" lon="7.4099">
        <ele>205</ele>
        <time>2021-08-08T09:03:34Z</time>
      </trkpt>
      <trkpt lat="48.87944" lon="7.40978">
        <ele>205</ele>
        <time>2021-08-08T09:03:35Z</time>
      </trkpt>
      <trkpt lat="48.87944" lon="7.40978">
        <ele>204</ele>
        <time>2021-08-08T09:03:36Z</time>
      </trkpt>
      <trkpt lat="48.87929" lon="7.40971">
        <ele>204</ele>
        <time>2021-08-08T09:03:37Z</time>
      </trkpt>
      <trkpt lat="48.87929" lon="7.40971">
        <ele>204</ele>
        <time>2021-08-08T09:03:38Z</time>
      </trkpt>
      <trkpt lat="48.87914" lon="7.40965">
        <ele>204</ele>
        <time>2021-08-08T09:03:39Z</time>
      </trkpt>
      <trkpt lat="48.87914" lon="7.40965">
        <ele>203</ele>
        <time>2021-08-08T09:03:40Z</time>
      </trkpt>
      <trkpt lat="48.87899" lon="7.40953">
        <ele>203</ele>
        <time>2021-08-08T09:03:41Z</time>
      </trkpt>
      <trkpt lat="48.87899" lon="7.40953">
        <ele>202</ele>
        <time>2021-08-08T09:03:42Z</time>
      </trkpt>
      <trkpt lat="48.87888" lon="7.40936">
        <ele>202</ele>
        <time>2021-08-08T09:03:43Z</time>
      </trkpt>
      <trkpt lat="48.87888" lon="7.40936">
        <ele>202</ele>
        <time>2021-08-08T09:03:44Z</time>
      </trkpt>
      <trkpt lat="48.87888" lon="7.40936">
        <ele>202</ele>
        <time>2021-08-08T09:03:45Z</time>
      </trkpt>
      <trkpt lat="48.8788" lon="7.40919">
        <ele>201</ele>
        <time>2021-08-08T09:03:46Z</time>
      </trkpt>
      <trkpt lat="48.87874" lon="7.40904">
        <ele>201</ele>
        <time>2021-08-08T09:03:47Z</time>
      </trkpt>
      <trkpt lat="48.87874" lon="7.40904">
        <ele>201</ele>
        <time>2021-08-08T09:03:48Z</time>
      </trkpt>
      <trkpt lat="48.87874" lon="7.40904">
        <ele>201</ele>
        <time>2021-08-08T09:03:49Z</time>
      </trkpt>
      <trkpt lat="48.87862" lon="7.40896">
        <ele>200</ele>
        <time>2021-08-08T09:03:50Z</time>
      </trkpt>
      <trkpt lat="48.87858" lon="7.40896">
        <ele>200</ele>
        <time>2021-08-08T09:03:51Z</time>
      </trkpt>
      <trkpt lat="48.87858" lon="7.40896">
        <ele>200</ele>
        <time>2021-08-08T09:03:52Z</time>
      </trkpt>
      <trkpt lat="48.8785" lon="7.40901">
        <ele>200</ele>
        <time>2021-08-08T09:03:53Z</time>
      </trkpt>
      <trkpt lat="48.8785" lon="7.40901">
        <ele>199</ele>
        <time>2021-08-08T09:03:54Z</time>
      </trkpt>
      <trkpt lat="48.87846" lon="7.40912">
        <ele>199</ele>
        <time>2021-08-08T09:03:55Z</time>
      </trkpt>
      <trkpt lat="48.87846" lon="7.40912">
        <ele>199</ele>
        <time>2021-08-08T09:03:56Z</time>
      </trkpt>
      <trkpt lat="48.87843" lon="7.40925">
        <ele>199</ele>
        <time>2021-08-08T09:03:57Z</time>
      </trkpt>
      <trkpt lat="48.87843" lon="7.40925">
        <ele>199</ele>
        <time>2021-08-08T09:03:58Z</time>
      </trkpt>
      <trkpt lat="48.87841" lon="7.40938">
        <ele>199</ele>
        <time>2021-08-08T09:03:59Z</time>
      </trkpt>
      <trkpt lat="48.87841" lon="7.40938">
        <ele>199</ele>
        <time>2021-08-08T09:04:00Z</time>
      </trkpt>
      <trkpt lat="48.8784" lon="7.40951">
        <ele>199</ele>
        <time>2021-08-08T09:04:01Z</time>
      </trkpt>
      <trkpt lat="48.8784" lon="7.40951">
        <ele>199</ele>
        <time>2021-08-08T09:04:02Z</time>
      </trkpt>
      <trkpt lat="48.8784" lon="7.40963">
        <ele>199</ele>
        <time>2021-08-08T09:04:03Z</time>
      </trkpt>
      <trkpt lat="48.8784" lon="7.40963">
        <ele>198</ele>
        <time>2021-08-08T09:04:04Z</time>
      </trkpt>
      <trkpt lat="48.87838" lon="7.40976">
        <ele>198</ele>
        <time>2021-08-08T09:04:05Z</time>
      </trkpt>
      <trkpt lat="48.87838" lon="7.40976">
        <ele>198</ele>
        <time>2021-08-08T09:04:06Z</time>
      </trkpt>
      <trkpt lat="48.87835" lon="7.40987">
        <ele>198</ele>
        <time>2021-08-08T09:04:07Z</time>
      </trkpt>
      <trkpt lat="48.87835" lon="7.40987">
        <ele>198</ele>
        <time>2021-08-08T09:04:08Z</time>
      </trkpt>
      <trkpt lat="48.87833" lon="7.40998">
        <ele>198</ele>
        <time>2021-08-08T09:04:09Z</time>
      </trkpt>
      <trkpt lat="48.87832" lon="7.41002">
        <ele>198</ele>
        <time>2021-08-08T09:04:10Z</time>
      </trkpt>
      <trkpt lat="48.87832" lon="7.41002">
        <ele>198</ele>
        <time>2021-08-08T09:04:11Z</time>
      </trkpt>
      <trkpt lat="48.87829" lon="7.41011">
        <ele>198</ele>
        <time>2021-08-08T09:04:12Z</time>
      </trkpt>
      <trkpt lat="48.87827" lon="7.41015">
        <ele>198</ele>
        <time>2021-08-08T09:04:13Z</time>
      </trkpt>
      <trkpt lat="48.87827" lon="7.41015">
        <ele>198</ele>
        <time>2021-08-08T09:04:14Z</time>
      </trkpt>
      <trkpt lat="48.87824" lon="7.41024">
        <ele>198</ele>
        <time>2021-08-08T09:04:15Z</time>
      </trkpt>
      <trkpt lat="48.87823" lon="7.41031">
        <ele>198</ele>
        <time>2021-08-08T09:04:16Z</time>
      </trkpt>
      <trkpt lat="48.87821" lon="7.41037">
        <ele>198</ele>
        <time>2021-08-08T09:04:17Z</time>
      </trkpt>
      <trkpt lat="48.87821" lon="7.41037">
        <ele>198</ele>
        <time>2021-08-08T09:04:18Z</time>
      </trkpt>
      <trkpt lat="48.87818" lon="7.41053">
        <ele>197</ele>
        <time>2021-08-08T09:04:19Z</time>
      </trkpt>
      <trkpt lat="48.87818" lon="7.41053">
        <ele>197</ele>
        <time>2021-08-08T09:04:20Z</time>
      </trkpt>
      <trkpt lat="48.87818" lon="7.41072">
        <ele>196</ele>
        <time>2021-08-08T09:04:21Z</time>
      </trkpt>
      <trkpt lat="48.87818" lon="7.41072">
        <ele>196</ele>
        <time>2021-08-08T09:04:22Z</time>
      </trkpt>
      <trkpt lat="48.87819" lon="7.41095">
        <ele>195</ele>
        <time>2021-08-08T09:04:23Z</time>
      </trkpt>
      <trkpt lat="48.8782" lon="7.41107">
        <ele>195</ele>
        <time>2021-08-08T09:04:24Z</time>
      </trkpt>
      <trkpt lat="48.87821" lon="7.41117">
        <ele>194</ele>
        <time>2021-08-08T09:04:25Z</time>
      </trkpt>
      <trkpt lat="48.87821" lon="7.41117">
        <ele>194</ele>
        <time>2021-08-08T09:04:26Z</time>
      </trkpt>
      <trkpt lat="48.87823" lon="7.4114">
        <ele>193</ele>
        <time>2021-08-08T09:04:27Z</time>
      </trkpt>
      <trkpt lat="48.87823" lon="7.4114">
        <ele>193</ele>
        <time>2021-08-08T09:04:28Z</time>
      </trkpt>
      <trkpt lat="48.87827" lon="7.41164">
        <ele>192</ele>
        <time>2021-08-08T09:04:29Z</time>
      </trkpt>
      <trkpt lat="48.87827" lon="7.41164">
        <ele>192</ele>
        <time>2021-08-08T09:04:30Z</time>
      </trkpt>
      <trkpt lat="48.87833" lon="7.41186">
        <ele>192</ele>
        <time>2021-08-08T09:04:31Z</time>
      </trkpt>
      <trkpt lat="48.87833" lon="7.41186">
        <ele>192</ele>
        <time>2021-08-08T09:04:32Z</time>
      </trkpt>
      <trkpt lat="48.87843" lon="7.41206">
        <ele>191</ele>
        <time>2021-08-08T09:04:33Z</time>
      </trkpt>
      <trkpt lat="48.87843" lon="7.41206">
        <ele>191</ele>
        <time>2021-08-08T09:04:34Z</time>
      </trkpt>
      <trkpt lat="48.87854" lon="7.41226">
        <ele>191</ele>
        <time>2021-08-08T09:04:35Z</time>
      </trkpt>
      <trkpt lat="48.87854" lon="7.41226">
        <ele>191</ele>
        <time>2021-08-08T09:04:36Z</time>
      </trkpt>
      <trkpt lat="48.87865" lon="7.41245">
        <ele>191</ele>
        <time>2021-08-08T09:04:37Z</time>
      </trkpt>
      <trkpt lat="48.87865" lon="7.41245">
        <ele>189</ele>
        <time>2021-08-08T09:04:38Z</time>
      </trkpt>
      <trkpt lat="48.87876" lon="7.4126">
        <ele>189</ele>
        <time>2021-08-08T09:04:39Z</time>
      </trkpt>
      <trkpt lat="48.8788" lon="7.41268">
        <ele>189</ele>
        <time>2021-08-08T09:04:40Z</time>
      </trkpt>
      <trkpt lat="48.8788" lon="7.41268">
        <ele>189</ele>
        <time>2021-08-08T09:04:41Z</time>
      </trkpt>
      <trkpt lat="48.87888" lon="7.41287">
        <ele>188</ele>
        <time>2021-08-08T09:04:42Z</time>
      </trkpt>
      <trkpt lat="48.8789" lon="7.41298">
        <ele>188</ele>
        <time>2021-08-08T09:04:43Z</time>
      </trkpt>
      <trkpt lat="48.8789" lon="7.41298">
        <ele>188</ele>
        <time>2021-08-08T09:04:44Z</time>
      </trkpt>
      <trkpt lat="48.87896" lon="7.41319">
        <ele>188</ele>
        <time>2021-08-08T09:04:45Z</time>
      </trkpt>
      <trkpt lat="48.87896" lon="7.41319">
        <ele>187</ele>
        <time>2021-08-08T09:04:46Z</time>
      </trkpt>
      <trkpt lat="48.87901" lon="7.41339">
        <ele>187</ele>
        <time>2021-08-08T09:04:47Z</time>
      </trkpt>
      <trkpt lat="48.87901" lon="7.41339">
        <ele>187</ele>
        <time>2021-08-08T09:04:48Z</time>
      </trkpt>
      <trkpt lat="48.87901" lon="7.41359">
        <ele>187</ele>
        <time>2021-08-08T09:04:49Z</time>
      </trkpt>
      <trkpt lat="48.87901" lon="7.41359">
        <ele>186</ele>
        <time>2021-08-08T09:04:50Z</time>
      </trkpt>
      <trkpt lat="48.87899" lon="7.41379">
        <ele>186</ele>
        <time>2021-08-08T09:04:51Z</time>
      </trkpt>
      <trkpt lat="48.87899" lon="7.41379">
        <ele>185</ele>
        <time>2021-08-08T09:04:52Z</time>
      </trkpt>
      <trkpt lat="48.87895" lon="7.41397">
        <ele>185</ele>
        <time>2021-08-08T09:04:53Z</time>
      </trkpt>
      <trkpt lat="48.87895" lon="7.41397">
        <ele>185</ele>
        <time>2021-08-08T09:04:54Z</time>
      </trkpt>
      <trkpt lat="48.87895" lon="7.41397">
        <ele>185</ele>
        <time>2021-08-08T09:04:55Z</time>
      </trkpt>
      <trkpt lat="48.87884" lon="7.41412">
        <ele>184</ele>
        <time>2021-08-08T09:04:56Z</time>
      </trkpt>
      <trkpt lat="48.87875" lon="7.41424">
        <ele>184</ele>
        <time>2021-08-08T09:04:57Z</time>
      </trkpt>
      <trkpt lat="48.87875" lon="7.41424">
        <ele>184</ele>
        <time>2021-08-08T09:04:58Z</time>
      </trkpt>
      <trkpt lat="48.87868" lon="7.41437">
        <ele>184</ele>
        <time>2021-08-08T09:04:59Z</time>
      </trkpt>
      <trkpt lat="48.87865" lon="7.41444">
        <ele>184</ele>
        <time>2021-08-08T09:05:00Z</time>
      </trkpt>
      <trkpt lat="48.87862" lon="7.41452">
        <ele>184</ele>
        <time>2021-08-08T09:05:01Z</time>
      </trkpt>
      <trkpt lat="48.87862" lon="7.41452">
        <ele>184</ele>
        <time>2021-08-08T09:05:02Z</time>
      </trkpt>
      <trkpt lat="48.87857" lon="7.41467">
        <ele>184</ele>
        <time>2021-08-08T09:05:03Z</time>
      </trkpt>
      <trkpt lat="48.87857" lon="7.41467">
        <ele>184</ele>
        <time>2021-08-08T09:05:04Z</time>
      </trkpt>
      <trkpt lat="48.87853" lon="7.41481">
        <ele>184</ele>
        <time>2021-08-08T09:05:05Z</time>
      </trkpt>
      <trkpt lat="48.87851" lon="7.41488">
        <ele>184</ele>
        <time>2021-08-08T09:05:06Z</time>
      </trkpt>
      <trkpt lat="48.87851" lon="7.41488">
        <ele>184</ele>
        <time>2021-08-08T09:05:07Z</time>
      </trkpt>
      <trkpt lat="48.87847" lon="7.41501">
        <ele>184</ele>
        <time>2021-08-08T09:05:08Z</time>
      </trkpt>
      <trkpt lat="48.87845" lon="7.41507">
        <ele>184</ele>
        <time>2021-08-08T09:05:09Z</time>
      </trkpt>
      <trkpt lat="48.87843" lon="7.41512">
        <ele>184</ele>
        <time>2021-08-08T09:05:10Z</time>
      </trkpt>
      <trkpt lat="48.87843" lon="7.41512">
        <ele>184</ele>
        <time>2021-08-08T09:05:11Z</time>
      </trkpt>
      <trkpt lat="48.87838" lon="7.41522">
        <ele>184</ele>
        <time>2021-08-08T09:05:12Z</time>
      </trkpt>
      <trkpt lat="48.87838" lon="7.41522">
        <ele>184</ele>
        <time>2021-08-08T09:05:13Z</time>
      </trkpt>
      <trkpt lat="48.87836" lon="7.41526">
        <ele>185</ele>
        <time>2021-08-08T09:05:14Z</time>
      </trkpt>
      <trkpt lat="48.8783" lon="7.41532">
        <ele>185</ele>
        <time>2021-08-08T09:05:15Z</time>
      </trkpt>
      <trkpt lat="48.8783" lon="7.41532">
        <ele>185</ele>
        <time>2021-08-08T09:05:16Z</time>
      </trkpt>
      <trkpt lat="48.8783" lon="7.41532">
        <ele>185</ele>
        <time>2021-08-08T09:05:17Z</time>
      </trkpt>
      <trkpt lat="48.87824" lon="7.41536">
        <ele>185</ele>
        <time>2021-08-08T09:05:18Z</time>
      </trkpt>
      <trkpt lat="48.8782" lon="7.4154">
        <ele>185</ele>
        <time>2021-08-08T09:05:19Z</time>
      </trkpt>
      <trkpt lat="48.8782" lon="7.4154">
        <ele>186</ele>
        <time>2021-08-08T09:05:20Z</time>
      </trkpt>
      <trkpt lat="48.87817" lon="7.41543">
        <ele>186</ele>
        <time>2021-08-08T09:05:21Z</time>
      </trkpt>
      <trkpt lat="48.87817" lon="7.41543">
        <ele>186</ele>
        <time>2021-08-08T09:05:22Z</time>
      </trkpt>
      <trkpt lat="48.87813" lon="7.41547">
        <ele>186</ele>
        <time>2021-08-08T09:05:23Z</time>
      </trkpt>
      <trkpt lat="48.8781" lon="7.41549">
        <ele>186</ele>
        <time>2021-08-08T09:05:24Z</time>
      </trkpt>
      <trkpt lat="48.8781" lon="7.41549">
        <ele>186</ele>
        <time>2021-08-08T09:05:25Z</time>
      </trkpt>
      <trkpt lat="48.87804" lon="7.41552">
        <ele>187</ele>
        <time>2021-08-08T09:05:26Z</time>
      </trkpt>
      <trkpt lat="48.87804" lon="7.41552">
        <ele>187</ele>
        <time>2021-08-08T09:05:27Z</time>
      </trkpt>
      <trkpt lat="48.87799" lon="7.41555">
        <ele>187</ele>
        <time>2021-08-08T09:05:28Z</time>
      </trkpt>
      <trkpt lat="48.87799" lon="7.41555">
        <ele>187</ele>
        <time>2021-08-08T09:05:29Z</time>
      </trkpt>
      <trkpt lat="48.87795" lon="7.41558">
        <ele>187</ele>
        <time>2021-08-08T09:05:30Z</time>
      </trkpt>
      <trkpt lat="48.87793" lon="7.41559">
        <ele>188</ele>
        <time>2021-08-08T09:05:31Z</time>
      </trkpt>
      <trkpt lat="48.87793" lon="7.41559">
        <ele>188</ele>
        <time>2021-08-08T09:05:32Z</time>
      </trkpt>
      <trkpt lat="48.87787" lon="7.41562">
        <ele>188</ele>
        <time>2021-08-08T09:05:33Z</time>
      </trkpt>
      <trkpt lat="48.87787" lon="7.41562">
        <ele>188</ele>
        <time>2021-08-08T09:05:34Z</time>
      </trkpt>
      <trkpt lat="48.87782" lon="7.41566">
        <ele>189</ele>
        <time>2021-08-08T09:05:35Z</time>
      </trkpt>
      <trkpt lat="48.87782" lon="7.41566">
        <ele>189</ele>
        <time>2021-08-08T09:05:36Z</time>
      </trkpt>
      <trkpt lat="48.87776" lon="7.41569">
        <ele>189</ele>
        <time>2021-08-08T09:05:37Z</time>
      </trkpt>
      <trkpt lat="48.87776" lon="7.41569">
        <ele>189</ele>
        <time>2021-08-08T09:05:38Z</time>
      </trkpt>
      <trkpt lat="48.87772" lon="7.41574">
        <ele>190</ele>
        <time>2021-08-08T09:05:39Z</time>
      </trkpt>
      <trkpt lat="48.8777" lon="7.41577">
        <ele>190</ele>
        <time>2021-08-08T09:05:40Z</time>
      </trkpt>
      <trkpt lat="48.8777" lon="7.41577">
        <ele>190</ele>
        <time>2021-08-08T09:05:41Z</time>
      </trkpt>
      <trkpt lat="48.87767" lon="7.41584">
        <ele>190</ele>
        <time>2021-08-08T09:05:42Z</time>
      </trkpt>
      <trkpt lat="48.87764" lon="7.41587">
        <ele>190</ele>
        <time>2021-08-08T09:05:43Z</time>
      </trkpt>
      <trkpt lat="48.87764" lon="7.41587">
        <ele>190</ele>
        <time>2021-08-08T09:05:44Z</time>
      </trkpt>
      <trkpt lat="48.87761" lon="7.41595">
        <ele>190</ele>
        <time>2021-08-08T09:05:45Z</time>
      </trkpt>
      <trkpt lat="48.87761" lon="7.41595">
        <ele>190</ele>
        <time>2021-08-08T09:05:46Z</time>
      </trkpt>
      <trkpt lat="48.87757" lon="7.41602">
        <ele>190</ele>
        <time>2021-08-08T09:05:47Z</time>
      </trkpt>
      <trkpt lat="48.87757" lon="7.41602">
        <ele>190</ele>
        <time>2021-08-08T09:05:48Z</time>
      </trkpt>
      <trkpt lat="48.87754" lon="7.41609">
        <ele>191</ele>
        <time>2021-08-08T09:05:49Z</time>
      </trkpt>
      <trkpt lat="48.87752" lon="7.41612">
        <ele>191</ele>
        <time>2021-08-08T09:05:50Z</time>
      </trkpt>
      <trkpt lat="48.87751" lon="7.41615">
        <ele>191</ele>
        <time>2021-08-08T09:05:51Z</time>
      </trkpt>
      <trkpt lat="48.87751" lon="7.41615">
        <ele>191</ele>
        <time>2021-08-08T09:05:52Z</time>
      </trkpt>
      <trkpt lat="48.87747" lon="7.41622">
        <ele>191</ele>
        <time>2021-08-08T09:05:53Z</time>
      </trkpt>
      <trkpt lat="48.87747" lon="7.41622">
        <ele>191</ele>
        <time>2021-08-08T09:05:54Z</time>
      </trkpt>
      <trkpt lat="48.87744" lon="7.41629">
        <ele>191</ele>
        <time>2021-08-08T09:05:55Z</time>
      </trkpt>
      <trkpt lat="48.87744" lon="7.41629">
        <ele>191</ele>
        <time>2021-08-08T09:05:56Z</time>
      </trkpt>
      <trkpt lat="48.87739" lon="7.41635">
        <ele>191</ele>
        <time>2021-08-08T09:05:57Z</time>
      </trkpt>
      <trkpt lat="48.87739" lon="7.41635">
        <ele>191</ele>
        <time>2021-08-08T09:05:58Z</time>
      </trkpt>
      <trkpt lat="48.87735" lon="7.41642">
        <ele>192</ele>
        <time>2021-08-08T09:05:59Z</time>
      </trkpt>
      <trkpt lat="48.87732" lon="7.41645">
        <ele>192</ele>
        <time>2021-08-08T09:06:00Z</time>
      </trkpt>
      <trkpt lat="48.87732" lon="7.41645">
        <ele>192</ele>
        <time>2021-08-08T09:06:01Z</time>
      </trkpt>
      <trkpt lat="48.8773" lon="7.41648">
        <ele>193</ele>
        <time>2021-08-08T09:06:02Z</time>
      </trkpt>
      <trkpt lat="48.87726" lon="7.41654">
        <ele>193</ele>
        <time>2021-08-08T09:06:03Z</time>
      </trkpt>
      <trkpt lat="48.87726" lon="7.41654">
        <ele>193</ele>
        <time>2021-08-08T09:06:04Z</time>
      </trkpt>
      <trkpt lat="48.87724" lon="7.41661">
        <ele>193</ele>
        <time>2021-08-08T09:06:05Z</time>
      </trkpt>
      <trkpt lat="48.87724" lon="7.41661">
        <ele>193</ele>
        <time>2021-08-08T09:06:06Z</time>
      </trkpt>
      <trkpt lat="48.87721" lon="7.41668">
        <ele>193</ele>
        <time>2021-08-08T09:06:07Z</time>
      </trkpt>
      <trkpt lat="48.87721" lon="7.41668">
        <ele>193</ele>
        <time>2021-08-08T09:06:08Z</time>
      </trkpt>
      <trkpt lat="48.87717" lon="7.41675">
        <ele>193</ele>
        <time>2021-08-08T09:06:09Z</time>
      </trkpt>
      <trkpt lat="48.87717" lon="7.41675">
        <ele>193</ele>
        <time>2021-08-08T09:06:10Z</time>
      </trkpt>
      <trkpt lat="48.87715" lon="7.41681">
        <ele>194</ele>
        <time>2021-08-08T09:06:11Z</time>
      </trkpt>
      <trkpt lat="48.87715" lon="7.41681">
        <ele>194</ele>
        <time>2021-08-08T09:06:12Z</time>
      </trkpt>
      <trkpt lat="48.87713" lon="7.41687">
        <ele>194</ele>
        <time>2021-08-08T09:06:13Z</time>
      </trkpt>
      <trkpt lat="48.87713" lon="7.41687">
        <ele>194</ele>
        <time>2021-08-08T09:06:14Z</time>
      </trkpt>
      <trkpt lat="48.87709" lon="7.41693">
        <ele>194</ele>
        <time>2021-08-08T09:06:15Z</time>
      </trkpt>
      <trkpt lat="48.87707" lon="7.41696">
        <ele>194</ele>
        <time>2021-08-08T09:06:16Z</time>
      </trkpt>
      <trkpt lat="48.87706" lon="7.417">
        <ele>194</ele>
        <time>2021-08-08T09:06:17Z</time>
      </trkpt>
      <trkpt lat="48.87706" lon="7.417">
        <ele>194</ele>
        <time>2021-08-08T09:06:18Z</time>
      </trkpt>
      <trkpt lat="48.87706" lon="7.417">
        <ele>194</ele>
        <time>2021-08-08T09:06:19Z</time>
      </trkpt>
      <trkpt lat="48.87703" lon="7.41707">
        <ele>194</ele>
        <time>2021-08-08T09:06:20Z</time>
      </trkpt>
      <trkpt lat="48.877" lon="7.41713">
        <ele>194</ele>
        <time>2021-08-08T09:06:21Z</time>
      </trkpt>
      <trkpt lat="48.877" lon="7.41713">
        <ele>194</ele>
        <time>2021-08-08T09:06:22Z</time>
      </trkpt>
      <trkpt lat="48.87696" lon="7.41719">
        <ele>194</ele>
        <time>2021-08-08T09:06:23Z</time>
      </trkpt>
      <trkpt lat="48.87696" lon="7.41719">
        <ele>194</ele>
        <time>2021-08-08T09:06:24Z</time>
      </trkpt>
      <trkpt lat="48.87693" lon="7.41725">
        <ele>194</ele>
        <time>2021-08-08T09:06:25Z</time>
      </trkpt>
      <trkpt lat="48.87693" lon="7.41725">
        <ele>195</ele>
        <time>2021-08-08T09:06:26Z</time>
      </trkpt>
      <trkpt lat="48.87688" lon="7.41733">
        <ele>195</ele>
        <time>2021-08-08T09:06:27Z</time>
      </trkpt>
      <trkpt lat="48.87688" lon="7.41733">
        <ele>195</ele>
        <time>2021-08-08T09:06:28Z</time>
      </trkpt>
      <trkpt lat="48.87684" lon="7.4174">
        <ele>195</ele>
        <time>2021-08-08T09:06:29Z</time>
      </trkpt>
      <trkpt lat="48.87682" lon="7.41744">
        <ele>195</ele>
        <time>2021-08-08T09:06:30Z</time>
      </trkpt>
      <trkpt lat="48.8768" lon="7.41747">
        <ele>195</ele>
        <time>2021-08-08T09:06:31Z</time>
      </trkpt>
      <trkpt lat="48.8768" lon="7.41747">
        <ele>195</ele>
        <time>2021-08-08T09:06:32Z</time>
      </trkpt>
      <trkpt lat="48.87676" lon="7.41753">
        <ele>195</ele>
        <time>2021-08-08T09:06:33Z</time>
      </trkpt>
      <trkpt lat="48.87676" lon="7.41753">
        <ele>195</ele>
        <time>2021-08-08T09:06:34Z</time>
      </trkpt>
      <trkpt lat="48.87672" lon="7.4176">
        <ele>195</ele>
        <time>2021-08-08T09:06:35Z</time>
      </trkpt>
      <trkpt lat="48.87672" lon="7.4176">
        <ele>196</ele>
        <time>2021-08-08T09:06:36Z</time>
      </trkpt>
      <trkpt lat="48.87669" lon="7.41766">
        <ele>196</ele>
        <time>2021-08-08T09:06:37Z</time>
      </trkpt>
      <trkpt lat="48.87669" lon="7.41766">
        <ele>196</ele>
        <time>2021-08-08T09:06:38Z</time>
      </trkpt>
      <trkpt lat="48.87665" lon="7.41772">
        <ele>196</ele>
        <time>2021-08-08T09:06:39Z</time>
      </trkpt>
      <trkpt lat="48.87665" lon="7.41772">
        <ele>196</ele>
        <time>2021-08-08T09:06:40Z</time>
      </trkpt>
      <trkpt lat="48.87663" lon="7.41775">
        <ele>196</ele>
        <time>2021-08-08T09:06:41Z</time>
      </trkpt>
      <trkpt lat="48.87661" lon="7.41781">
        <ele>197</ele>
        <time>2021-08-08T09:06:42Z</time>
      </trkpt>
      <trkpt lat="48.8766" lon="7.41783">
        <ele>197</ele>
        <time>2021-08-08T09:06:43Z</time>
      </trkpt>
      <trkpt lat="48.8766" lon="7.41783">
        <ele>197</ele>
        <time>2021-08-08T09:06:44Z</time>
      </trkpt>
      <trkpt lat="48.87656" lon="7.41789">
        <ele>197</ele>
        <time>2021-08-08T09:06:45Z</time>
      </trkpt>
      <trkpt lat="48.87655" lon="7.41792">
        <ele>197</ele>
        <time>2021-08-08T09:06:46Z</time>
      </trkpt>
      <trkpt lat="48.87655" lon="7.41792">
        <ele>197</ele>
        <time>2021-08-08T09:06:47Z</time>
      </trkpt>
      <trkpt lat="48.87651" lon="7.41798">
        <ele>198</ele>
        <time>2021-08-08T09:06:48Z</time>
      </trkpt>
      <trkpt lat="48.8765" lon="7.41801">
        <ele>198</ele>
        <time>2021-08-08T09:06:49Z</time>
      </trkpt>
      <trkpt lat="48.8765" lon="7.41801">
        <ele>198</ele>
        <time>2021-08-08T09:06:50Z</time>
      </trkpt>
      <trkpt lat="48.87646" lon="7.41807">
        <ele>198</ele>
        <time>2021-08-08T09:06:51Z</time>
      </trkpt>
      <trkpt lat="48.87645" lon="7.4181">
        <ele>199</ele>
        <time>2021-08-08T09:06:52Z</time>
      </trkpt>
      <trkpt lat="48.87643" lon="7.41813">
        <ele>199</ele>
        <time>2021-08-08T09:06:53Z</time>
      </trkpt>
      <trkpt lat="48.87643" lon="7.41813">
        <ele>199</ele>
        <time>2021-08-08T09:06:54Z</time>
      </trkpt>
      <trkpt lat="48.8764" lon="7.4182">
        <ele>199</ele>
        <time>2021-08-08T09:06:55Z</time>
      </trkpt>
      <trkpt lat="48.8764" lon="7.4182">
        <ele>199</ele>
        <time>2021-08-08T09:06:56Z</time>
      </trkpt>
      <trkpt lat="48.87638" lon="7.41827">
        <ele>200</ele>
        <time>2021-08-08T09:06:57Z</time>
      </trkpt>
      <trkpt lat="48.87638" lon="7.41827">
        <ele>200</ele>
        <time>2021-08-08T09:06:58Z</time>
      </trkpt>
      <trkpt lat="48.87635" lon="7.41835">
        <ele>200</ele>
        <time>2021-08-08T09:06:59Z</time>
      </trkpt>
      <trkpt lat="48.87633" lon="7.41839">
        <ele>200</ele>
        <time>2021-08-08T09:07:00Z</time>
      </trkpt>
      <trkpt lat="48.87633" lon="7.41839">
        <ele>200</ele>
        <time>2021-08-08T09:07:01Z</time>
      </trkpt>
      <trkpt lat="48.87632" lon="7.41843">
        <ele>200</ele>
        <time>2021-08-08T09:07:02Z</time>
      </trkpt>
      <trkpt lat="48.87631" lon="7.41851">
        <ele>200</ele>
        <time>2021-08-08T09:07:03Z</time>
      </trkpt>
      <trkpt lat="48.87631" lon="7.41851">
        <ele>200</ele>
        <time>2021-08-08T09:07:04Z</time>
      </trkpt>
      <trkpt lat="48.8763" lon="7.41859">
        <ele>200</ele>
        <time>2021-08-08T09:07:05Z</time>
      </trkpt>
      <trkpt lat="48.8763" lon="7.41859">
        <ele>200</ele>
        <time>2021-08-08T09:07:06Z</time>
      </trkpt>
      <trkpt lat="48.87629" lon="7.41867">
        <ele>200</ele>
        <time>2021-08-08T09:07:07Z</time>
      </trkpt>
      <trkpt lat="48.87629" lon="7.41867">
        <ele>200</ele>
        <time>2021-08-08T09:07:08Z</time>
      </trkpt>
      <trkpt lat="48.87629" lon="7.41867">
        <ele>200</ele>
        <time>2021-08-08T09:07:09Z</time>
      </trkpt>
      <trkpt lat="48.87627" lon="7.41875">
        <ele>200</ele>
        <time>2021-08-08T09:07:10Z</time>
      </trkpt>
      <trkpt lat="48.87627" lon="7.41875">
        <ele>201</ele>
        <time>2021-08-08T09:07:11Z</time>
      </trkpt>
      <trkpt lat="48.87626" lon="7.41882">
        <ele>201</ele>
        <time>2021-08-08T09:07:12Z</time>
      </trkpt>
      <trkpt lat="48.87625" lon="7.41885">
        <ele>201</ele>
        <time>2021-08-08T09:07:13Z</time>
      </trkpt>
      <trkpt lat="48.87625" lon="7.41893">
        <ele>201</ele>
        <time>2021-08-08T09:07:14Z</time>
      </trkpt>
      <trkpt lat="48.87625" lon="7.41897">
        <ele>201</ele>
        <time>2021-08-08T09:07:15Z</time>
      </trkpt>
      <trkpt lat="48.87625" lon="7.41897">
        <ele>201</ele>
        <time>2021-08-08T09:07:16Z</time>
      </trkpt>
      <trkpt lat="48.87624" lon="7.41904">
        <ele>202</ele>
        <time>2021-08-08T09:07:17Z</time>
      </trkpt>
      <trkpt lat="48.87624" lon="7.41904">
        <ele>202</ele>
        <time>2021-08-08T09:07:18Z</time>
      </trkpt>
      <trkpt lat="48.87623" lon="7.41912">
        <ele>202</ele>
        <time>2021-08-08T09:07:19Z</time>
      </trkpt>
      <trkpt lat="48.87623" lon="7.41912">
        <ele>202</ele>
        <time>2021-08-08T09:07:20Z</time>
      </trkpt>
      <trkpt lat="48.87622" lon="7.4192">
        <ele>203</ele>
        <time>2021-08-08T09:07:21Z</time>
      </trkpt>
      <trkpt lat="48.87622" lon="7.4192">
        <ele>203</ele>
        <time>2021-08-08T09:07:22Z</time>
      </trkpt>
      <trkpt lat="48.87622" lon="7.4192">
        <ele>203</ele>
        <time>2021-08-08T09:07:23Z</time>
      </trkpt>
      <trkpt lat="48.87622" lon="7.41927">
        <ele>203</ele>
        <time>2021-08-08T09:07:24Z</time>
      </trkpt>
      <trkpt lat="48.87621" lon="7.41934">
        <ele>204</ele>
        <time>2021-08-08T09:07:25Z</time>
      </trkpt>
      <trkpt lat="48.87621" lon="7.41934">
        <ele>204</ele>
        <time>2021-08-08T09:07:26Z</time>
      </trkpt>
      <trkpt lat="48.87621" lon="7.41941">
        <ele>204</ele>
        <time>2021-08-08T09:07:27Z</time>
      </trkpt>
      <trkpt lat="48.87621" lon="7.41941">
        <ele>204</ele>
        <time>2021-08-08T09:07:28Z</time>
      </trkpt>
      <trkpt lat="48.87619" lon="7.41948">
        <ele>204</ele>
        <time>2021-08-08T09:07:29Z</time>
      </trkpt>
      <trkpt lat="48.87619" lon="7.41948">
        <ele>204</ele>
        <time>2021-08-08T09:07:30Z</time>
      </trkpt>
      <trkpt lat="48.87619" lon="7.41948">
        <ele>205</ele>
        <time>2021-08-08T09:07:31Z</time>
      </trkpt>
      <trkpt lat="48.87619" lon="7.41956">
        <ele>205</ele>
        <time>2021-08-08T09:07:32Z</time>
      </trkpt>
      <trkpt lat="48.87618" lon="7.41963">
        <ele>205</ele>
        <time>2021-08-08T09:07:33Z</time>
      </trkpt>
      <trkpt lat="48.87618" lon="7.41963">
        <ele>205</ele>
        <time>2021-08-08T09:07:34Z</time>
      </trkpt>
      <trkpt lat="48.87617" lon="7.4197">
        <ele>206</ele>
        <time>2021-08-08T09:07:35Z</time>
      </trkpt>
      <trkpt lat="48.87617" lon="7.41975">
        <ele>206</ele>
        <time>2021-08-08T09:07:36Z</time>
      </trkpt>
      <trkpt lat="48.87617" lon="7.41975">
        <ele>206</ele>
        <time>2021-08-08T09:07:37Z</time>
      </trkpt>
      <trkpt lat="48.87617" lon="7.41984">
        <ele>206</ele>
        <time>2021-08-08T09:07:38Z</time>
      </trkpt>
      <trkpt lat="48.87617" lon="7.41989">
        <ele>207</ele>
        <time>2021-08-08T09:07:39Z</time>
      </trkpt>
      <trkpt lat="48.87617" lon="7.41989">
        <ele>207</ele>
        <time>2021-08-08T09:07:40Z</time>
      </trkpt>
      <trkpt lat="48.87617" lon="7.41989">
        <ele>207</ele>
        <time>2021-08-08T09:07:41Z</time>
      </trkpt>
      <trkpt lat="48.87617" lon="7.41998">
        <ele>207</ele>
        <time>2021-08-08T09:07:42Z</time>
      </trkpt>
      <trkpt lat="48.87617" lon="7.42007">
        <ele>207</ele>
        <time>2021-08-08T09:07:43Z</time>
      </trkpt>
      <trkpt lat="48.87617" lon="7.42007">
        <ele>207</ele>
        <time>2021-08-08T09:07:44Z</time>
      </trkpt>
      <trkpt lat="48.87618" lon="7.42016">
        <ele>208</ele>
        <time>2021-08-08T09:07:45Z</time>
      </trkpt>
      <trkpt lat="48.87618" lon="7.42016">
        <ele>208</ele>
        <time>2021-08-08T09:07:46Z</time>
      </trkpt>
      <trkpt lat="48.8762" lon="7.42024">
        <ele>208</ele>
        <time>2021-08-08T09:07:47Z</time>
      </trkpt>
      <trkpt lat="48.8762" lon="7.42024">
        <ele>208</ele>
        <time>2021-08-08T09:07:48Z</time>
      </trkpt>
      <trkpt lat="48.87621" lon="7.42033">
        <ele>209</ele>
        <time>2021-08-08T09:07:49Z</time>
      </trkpt>
      <trkpt lat="48.87621" lon="7.42033">
        <ele>209</ele>
        <time>2021-08-08T09:07:50Z</time>
      </trkpt>
      <trkpt lat="48.87621" lon="7.42041">
        <ele>209</ele>
        <time>2021-08-08T09:07:51Z</time>
      </trkpt>
      <trkpt lat="48.87621" lon="7.42041">
        <ele>209</ele>
        <time>2021-08-08T09:07:52Z</time>
      </trkpt>
      <trkpt lat="48.8762" lon="7.42049">
        <ele>209</ele>
        <time>2021-08-08T09:07:53Z</time>
      </trkpt>
      <trkpt lat="48.8762" lon="7.42049">
        <ele>209</ele>
        <time>2021-08-08T09:07:54Z</time>
      </trkpt>
      <trkpt lat="48.87619" lon="7.42056">
        <ele>209</ele>
        <time>2021-08-08T09:07:55Z</time>
      </trkpt>
      <trkpt lat="48.87619" lon="7.42059">
        <ele>209</ele>
        <time>2021-08-08T09:07:56Z</time>
      </trkpt>
      <trkpt lat="48.87619" lon="7.42059">
        <ele>209</ele>
        <time>2021-08-08T09:07:57Z</time>
      </trkpt>
      <trkpt lat="48.87616" lon="7.42065">
        <ele>209</ele>
        <time>2021-08-08T09:07:58Z</time>
      </trkpt>
      <trkpt lat="48.87615" lon="7.42069">
        <ele>209</ele>
        <time>2021-08-08T09:07:59Z</time>
      </trkpt>
      <trkpt lat="48.87615" lon="7.42069">
        <ele>210</ele>
        <time>2021-08-08T09:08:00Z</time>
      </trkpt>
      <trkpt lat="48.87615" lon="7.42069">
        <ele>210</ele>
        <time>2021-08-08T09:08:01Z</time>
      </trkpt>
      <trkpt lat="48.87614" lon="7.42074">
        <ele>210</ele>
        <time>2021-08-08T09:08:02Z</time>
      </trkpt>
      <trkpt lat="48.87612" lon="7.42079">
        <ele>210</ele>
        <time>2021-08-08T09:08:03Z</time>
      </trkpt>
      <trkpt lat="48.8761" lon="7.42082">
        <ele>211</ele>
        <time>2021-08-08T09:08:04Z</time>
      </trkpt>
      <trkpt lat="48.8761" lon="7.42082">
        <ele>211</ele>
        <time>2021-08-08T09:08:05Z</time>
      </trkpt>
      <trkpt lat="48.8761" lon="7.42082">
        <ele>211</ele>
        <time>2021-08-08T09:08:06Z</time>
      </trkpt>
      <trkpt lat="48.87607" lon="7.42087">
        <ele>211</ele>
        <time>2021-08-08T09:08:07Z</time>
      </trkpt>
      <trkpt lat="48.87603" lon="7.42091">
        <ele>211</ele>
        <time>2021-08-08T09:08:08Z</time>
      </trkpt>
      <trkpt lat="48.87602" lon="7.42094">
        <ele>211</ele>
        <time>2021-08-08T09:08:09Z</time>
      </trkpt>
      <trkpt lat="48.87602" lon="7.42094">
        <ele>212</ele>
        <time>2021-08-08T09:08:10Z</time>
      </trkpt>
      <trkpt lat="48.87602" lon="7.42094">
        <ele>212</ele>
        <time>2021-08-08T09:08:11Z</time>
      </trkpt>
      <trkpt lat="48.876" lon="7.42103">
        <ele>212</ele>
        <time>2021-08-08T09:08:12Z</time>
      </trkpt>
      <trkpt lat="48.876" lon="7.42103">
        <ele>212</ele>
        <time>2021-08-08T09:08:13Z</time>
      </trkpt>
      <trkpt lat="48.876" lon="7.42106">
        <ele>212</ele>
        <time>2021-08-08T09:08:14Z</time>
      </trkpt>
      <trkpt lat="48.87599" lon="7.42112">
        <ele>212</ele>
        <time>2021-08-08T09:08:15Z</time>
      </trkpt>
      <trkpt lat="48.876" lon="7.42116">
        <ele>213</ele>
        <time>2021-08-08T09:08:16Z</time>
      </trkpt>
      <trkpt lat="48.876" lon="7.4212">
        <ele>213</ele>
        <time>2021-08-08T09:08:17Z</time>
      </trkpt>
      <trkpt lat="48.876" lon="7.4212">
        <ele>213</ele>
        <time>2021-08-08T09:08:18Z</time>
      </trkpt>
      <trkpt lat="48.87602" lon="7.42127">
        <ele>213</ele>
        <time>2021-08-08T09:08:19Z</time>
      </trkpt>
      <trkpt lat="48.87602" lon="7.42127">
        <ele>213</ele>
        <time>2021-08-08T09:08:20Z</time>
      </trkpt>
      <trkpt lat="48.87603" lon="7.42134">
        <ele>213</ele>
        <time>2021-08-08T09:08:21Z</time>
      </trkpt>
      <trkpt lat="48.87603" lon="7.42134">
        <ele>213</ele>
        <time>2021-08-08T09:08:22Z</time>
      </trkpt>
      <trkpt lat="48.87604" lon="7.42139">
        <ele>213</ele>
        <time>2021-08-08T09:08:23Z</time>
      </trkpt>
      <trkpt lat="48.87604" lon="7.42139">
        <ele>213</ele>
        <time>2021-08-08T09:08:24Z</time>
      </trkpt>
      <trkpt lat="48.87606" lon="7.42148">
        <ele>214</ele>
        <time>2021-08-08T09:08:25Z</time>
      </trkpt>
      <trkpt lat="48.87608" lon="7.42158">
        <ele>214</ele>
        <time>2021-08-08T09:08:26Z</time>
      </trkpt>
      <trkpt lat="48.87609" lon="7.42162">
        <ele>214</ele>
        <time>2021-08-08T09:08:27Z</time>
      </trkpt>
      <trkpt lat="48.87609" lon="7.42162">
        <ele>214</ele>
        <time>2021-08-08T09:08:28Z</time>
      </trkpt>
      <trkpt lat="48.87611" lon="7.42172">
        <ele>214</ele>
        <time>2021-08-08T09:08:29Z</time>
      </trkpt>
      <trkpt lat="48.87611" lon="7.42172">
        <ele>214</ele>
        <time>2021-08-08T09:08:30Z</time>
      </trkpt>
      <trkpt lat="48.87614" lon="7.42184">
        <ele>214</ele>
        <time>2021-08-08T09:08:31Z</time>
      </trkpt>
      <trkpt lat="48.87614" lon="7.42184">
        <ele>214</ele>
        <time>2021-08-08T09:08:32Z</time>
      </trkpt>
      <trkpt lat="48.87614" lon="7.42184">
        <ele>214</ele>
        <time>2021-08-08T09:08:33Z</time>
      </trkpt>
      <trkpt lat="48.87616" lon="7.422">
        <ele>214</ele>
        <time>2021-08-08T09:08:34Z</time>
      </trkpt>
      <trkpt lat="48.87616" lon="7.422">
        <ele>214</ele>
        <time>2021-08-08T09:08:35Z</time>
      </trkpt>
      <trkpt lat="48.87616" lon="7.422">
        <ele>214</ele>
        <time>2021-08-08T09:08:36Z</time>
      </trkpt>
      <trkpt lat="48.87619" lon="7.42209">
        <ele>214</ele>
        <time>2021-08-08T09:08:37Z</time>
      </trkpt>
      <trkpt lat="48.8762" lon="7.42214">
        <ele>214</ele>
        <time>2021-08-08T09:08:38Z</time>
      </trkpt>
      <trkpt lat="48.87623" lon="7.42224">
        <ele>214</ele>
        <time>2021-08-08T09:08:39Z</time>
      </trkpt>
      <trkpt lat="48.87624" lon="7.42229">
        <ele>214</ele>
        <time>2021-08-08T09:08:40Z</time>
      </trkpt>
      <trkpt lat="48.87624" lon="7.42229">
        <ele>214</ele>
        <time>2021-08-08T09:08:41Z</time>
      </trkpt>
      <trkpt lat="48.87624" lon="7.42229">
        <ele>215</ele>
        <time>2021-08-08T09:08:42Z</time>
      </trkpt>
      <trkpt lat="48.87627" lon="7.42243">
        <ele>215</ele>
        <time>2021-08-08T09:08:43Z</time>
      </trkpt>
      <trkpt lat="48.87627" lon="7.42243">
        <ele>215</ele>
        <time>2021-08-08T09:08:44Z</time>
      </trkpt>
      <trkpt lat="48.87628" lon="7.42252">
        <ele>215</ele>
        <time>2021-08-08T09:08:45Z</time>
      </trkpt>
      <trkpt lat="48.87628" lon="7.42252">
        <ele>215</ele>
        <time>2021-08-08T09:08:46Z</time>
      </trkpt>
      <trkpt lat="48.87631" lon="7.4226">
        <ele>215</ele>
        <time>2021-08-08T09:08:47Z</time>
      </trkpt>
      <trkpt lat="48.87631" lon="7.4226">
        <ele>215</ele>
        <time>2021-08-08T09:08:48Z</time>
      </trkpt>
      <trkpt lat="48.87633" lon="7.42269">
        <ele>215</ele>
        <time>2021-08-08T09:08:49Z</time>
      </trkpt>
      <trkpt lat="48.87634" lon="7.42273">
        <ele>215</ele>
        <time>2021-08-08T09:08:50Z</time>
      </trkpt>
      <trkpt lat="48.87634" lon="7.42273">
        <ele>215</ele>
        <time>2021-08-08T09:08:51Z</time>
      </trkpt>
      <trkpt lat="48.87636" lon="7.42277">
        <ele>215</ele>
        <time>2021-08-08T09:08:52Z</time>
      </trkpt>
      <trkpt lat="48.87638" lon="7.42286">
        <ele>215</ele>
        <time>2021-08-08T09:08:53Z</time>
      </trkpt>
      <trkpt lat="48.87638" lon="7.42286">
        <ele>215</ele>
        <time>2021-08-08T09:08:54Z</time>
      </trkpt>
      <trkpt lat="48.87638" lon="7.42286">
        <ele>215</ele>
        <time>2021-08-08T09:08:55Z</time>
      </trkpt>
      <trkpt lat="48.87639" lon="7.42295">
        <ele>215</ele>
        <time>2021-08-08T09:08:56Z</time>
      </trkpt>
      <trkpt lat="48.87639" lon="7.42295">
        <ele>215</ele>
        <time>2021-08-08T09:08:57Z</time>
      </trkpt>
      <trkpt lat="48.87641" lon="7.42304">
        <ele>215</ele>
        <time>2021-08-08T09:08:58Z</time>
      </trkpt>
      <trkpt lat="48.87644" lon="7.42314">
        <ele>215</ele>
        <time>2021-08-08T09:08:59Z</time>
      </trkpt>
      <trkpt lat="48.87645" lon="7.42318">
        <ele>215</ele>
        <time>2021-08-08T09:09:00Z</time>
      </trkpt>
      <trkpt lat="48.87646" lon="7.42323">
        <ele>215</ele>
        <time>2021-08-08T09:09:01Z</time>
      </trkpt>
      <trkpt lat="48.87646" lon="7.42323">
        <ele>215</ele>
        <time>2021-08-08T09:09:02Z</time>
      </trkpt>
      <trkpt lat="48.87649" lon="7.42332">
        <ele>215</ele>
        <time>2021-08-08T09:09:03Z</time>
      </trkpt>
      <trkpt lat="48.87649" lon="7.42332">
        <ele>215</ele>
        <time>2021-08-08T09:09:04Z</time>
      </trkpt>
      <trkpt lat="48.87649" lon="7.42332">
        <ele>215</ele>
        <time>2021-08-08T09:09:05Z</time>
      </trkpt>
      <trkpt lat="48.87653" lon="7.42346">
        <ele>215</ele>
        <time>2021-08-08T09:09:06Z</time>
      </trkpt>
      <trkpt lat="48.87653" lon="7.42346">
        <ele>215</ele>
        <time>2021-08-08T09:09:07Z</time>
      </trkpt>
      <trkpt lat="48.87655" lon="7.42355">
        <ele>215</ele>
        <time>2021-08-08T09:09:08Z</time>
      </trkpt>
      <trkpt lat="48.87655" lon="7.42355">
        <ele>215</ele>
        <time>2021-08-08T09:09:09Z</time>
      </trkpt>
      <trkpt lat="48.87655" lon="7.42355">
        <ele>215</ele>
        <time>2021-08-08T09:09:10Z</time>
      </trkpt>
      <trkpt lat="48.87658" lon="7.42365">
        <ele>215</ele>
        <time>2021-08-08T09:09:11Z</time>
      </trkpt>
      <trkpt lat="48.8766" lon="7.42375">
        <ele>215</ele>
        <time>2021-08-08T09:09:12Z</time>
      </trkpt>
      <trkpt lat="48.8766" lon="7.42375">
        <ele>215</ele>
        <time>2021-08-08T09:09:13Z</time>
      </trkpt>
      <trkpt lat="48.87662" lon="7.42384">
        <ele>215</ele>
        <time>2021-08-08T09:09:14Z</time>
      </trkpt>
      <trkpt lat="48.87662" lon="7.42384">
        <ele>215</ele>
        <time>2021-08-08T09:09:15Z</time>
      </trkpt>
      <trkpt lat="48.87663" lon="7.42389">
        <ele>215</ele>
        <time>2021-08-08T09:09:16Z</time>
      </trkpt>
      <trkpt lat="48.87666" lon="7.42398">
        <ele>215</ele>
        <time>2021-08-08T09:09:17Z</time>
      </trkpt>
      <trkpt lat="48.87666" lon="7.42398">
        <ele>215</ele>
        <time>2021-08-08T09:09:18Z</time>
      </trkpt>
      <trkpt lat="48.87666" lon="7.42398">
        <ele>215</ele>
        <time>2021-08-08T09:09:19Z</time>
      </trkpt>
      <trkpt lat="48.87668" lon="7.42407">
        <ele>215</ele>
        <time>2021-08-08T09:09:20Z</time>
      </trkpt>
      <trkpt lat="48.8767" lon="7.42416">
        <ele>215</ele>
        <time>2021-08-08T09:09:21Z</time>
      </trkpt>
      <trkpt lat="48.87671" lon="7.42421">
        <ele>215</ele>
        <time>2021-08-08T09:09:22Z</time>
      </trkpt>
      <trkpt lat="48.87671" lon="7.42421">
        <ele>215</ele>
        <time>2021-08-08T09:09:23Z</time>
      </trkpt>
      <trkpt lat="48.87673" lon="7.4243">
        <ele>216</ele>
        <time>2021-08-08T09:09:24Z</time>
      </trkpt>
      <trkpt lat="48.87673" lon="7.4243">
        <ele>216</ele>
        <time>2021-08-08T09:09:25Z</time>
      </trkpt>
      <trkpt lat="48.87673" lon="7.4243">
        <ele>216</ele>
        <time>2021-08-08T09:09:26Z</time>
      </trkpt>
      <trkpt lat="48.87675" lon="7.42439">
        <ele>216</ele>
        <time>2021-08-08T09:09:27Z</time>
      </trkpt>
      <trkpt lat="48.87676" lon="7.42448">
        <ele>216</ele>
        <time>2021-08-08T09:09:28Z</time>
      </trkpt>
      <trkpt lat="48.87677" lon="7.42453">
        <ele>216</ele>
        <time>2021-08-08T09:09:29Z</time>
      </trkpt>
      <trkpt lat="48.87677" lon="7.42453">
        <ele>216</ele>
        <time>2021-08-08T09:09:30Z</time>
      </trkpt>
      <trkpt lat="48.87678" lon="7.42458">
        <ele>216</ele>
        <time>2021-08-08T09:09:31Z</time>
      </trkpt>
      <trkpt lat="48.87678" lon="7.42458">
        <ele>216</ele>
        <time>2021-08-08T09:09:32Z</time>
      </trkpt>
      <trkpt lat="48.87681" lon="7.42467">
        <ele>216</ele>
        <time>2021-08-08T09:09:33Z</time>
      </trkpt>
      <trkpt lat="48.87681" lon="7.42472">
        <ele>216</ele>
        <time>2021-08-08T09:09:34Z</time>
      </trkpt>
      <trkpt lat="48.87682" lon="7.4248">
        <ele>216</ele>
        <time>2021-08-08T09:09:35Z</time>
      </trkpt>
      <trkpt lat="48.87682" lon="7.4248">
        <ele>216</ele>
        <time>2021-08-08T09:09:36Z</time>
      </trkpt>
      <trkpt lat="48.87683" lon="7.42488">
        <ele>216</ele>
        <time>2021-08-08T09:09:37Z</time>
      </trkpt>
      <trkpt lat="48.87683" lon="7.42488">
        <ele>217</ele>
        <time>2021-08-08T09:09:38Z</time>
      </trkpt>
      <trkpt lat="48.87685" lon="7.42495">
        <ele>217</ele>
        <time>2021-08-08T09:09:39Z</time>
      </trkpt>
      <trkpt lat="48.87685" lon="7.42495">
        <ele>217</ele>
        <time>2021-08-08T09:09:40Z</time>
      </trkpt>
      <trkpt lat="48.87685" lon="7.42495">
        <ele>217</ele>
        <time>2021-08-08T09:09:41Z</time>
      </trkpt>
      <trkpt lat="48.87687" lon="7.42503">
        <ele>217</ele>
        <time>2021-08-08T09:09:42Z</time>
      </trkpt>
      <trkpt lat="48.87688" lon="7.42506">
        <ele>217</ele>
        <time>2021-08-08T09:09:43Z</time>
      </trkpt>
      <trkpt lat="48.87689" lon="7.42514">
        <ele>217</ele>
        <time>2021-08-08T09:09:44Z</time>
      </trkpt>
      <trkpt lat="48.8769" lon="7.42518">
        <ele>217</ele>
        <time>2021-08-08T09:09:45Z</time>
      </trkpt>
      <trkpt lat="48.8769" lon="7.42518">
        <ele>217</ele>
        <time>2021-08-08T09:09:46Z</time>
      </trkpt>
      <trkpt lat="48.87692" lon="7.42526">
        <ele>217</ele>
        <time>2021-08-08T09:09:47Z</time>
      </trkpt>
      <trkpt lat="48.87692" lon="7.42526">
        <ele>217</ele>
        <time>2021-08-08T09:09:48Z</time>
      </trkpt>
      <trkpt lat="48.87694" lon="7.42534">
        <ele>218</ele>
        <time>2021-08-08T09:09:49Z</time>
      </trkpt>
      <trkpt lat="48.87694" lon="7.42534">
        <ele>218</ele>
        <time>2021-08-08T09:09:50Z</time>
      </trkpt>
      <trkpt lat="48.87694" lon="7.42534">
        <ele>218</ele>
        <time>2021-08-08T09:09:51Z</time>
      </trkpt>
      <trkpt lat="48.87695" lon="7.42542">
        <ele>218</ele>
        <time>2021-08-08T09:09:52Z</time>
      </trkpt>
      <trkpt lat="48.87696" lon="7.4255">
        <ele>218</ele>
        <time>2021-08-08T09:09:53Z</time>
      </trkpt>
      <trkpt lat="48.87696" lon="7.4255">
        <ele>218</ele>
        <time>2021-08-08T09:09:54Z</time>
      </trkpt>
      <trkpt lat="48.87698" lon="7.42558">
        <ele>218</ele>
        <time>2021-08-08T09:09:55Z</time>
      </trkpt>
      <trkpt lat="48.87699" lon="7.42562">
        <ele>218</ele>
        <time>2021-08-08T09:09:56Z</time>
      </trkpt>
      <trkpt lat="48.87699" lon="7.42562">
        <ele>218</ele>
        <time>2021-08-08T09:09:57Z</time>
      </trkpt>
      <trkpt lat="48.877" lon="7.4257">
        <ele>218</ele>
        <time>2021-08-08T09:09:58Z</time>
      </trkpt>
      <trkpt lat="48.87701" lon="7.42574">
        <ele>219</ele>
        <time>2021-08-08T09:09:59Z</time>
      </trkpt>
      <trkpt lat="48.87701" lon="7.42574">
        <ele>219</ele>
        <time>2021-08-08T09:10:00Z</time>
      </trkpt>
      <trkpt lat="48.87701" lon="7.42574">
        <ele>219</ele>
        <time>2021-08-08T09:10:01Z</time>
      </trkpt>
      <trkpt lat="48.87703" lon="7.42582">
        <ele>219</ele>
        <time>2021-08-08T09:10:02Z</time>
      </trkpt>
      <trkpt lat="48.87704" lon="7.4259">
        <ele>219</ele>
        <time>2021-08-08T09:10:03Z</time>
      </trkpt>
      <trkpt lat="48.87705" lon="7.42594">
        <ele>219</ele>
        <time>2021-08-08T09:10:04Z</time>
      </trkpt>
      <trkpt lat="48.87705" lon="7.42594">
        <ele>220</ele>
        <time>2021-08-08T09:10:05Z</time>
      </trkpt>
      <trkpt lat="48.87707" lon="7.42601">
        <ele>220</ele>
        <time>2021-08-08T09:10:06Z</time>
      </trkpt>
      <trkpt lat="48.87708" lon="7.42605">
        <ele>220</ele>
        <time>2021-08-08T09:10:07Z</time>
      </trkpt>
      <trkpt lat="48.87708" lon="7.42605">
        <ele>220</ele>
        <time>2021-08-08T09:10:08Z</time>
      </trkpt>
      <trkpt lat="48.87709" lon="7.42611">
        <ele>220</ele>
        <time>2021-08-08T09:10:09Z</time>
      </trkpt>
      <trkpt lat="48.87709" lon="7.42611">
        <ele>220</ele>
        <time>2021-08-08T09:10:10Z</time>
      </trkpt>
      <trkpt lat="48.87709" lon="7.42611">
        <ele>220</ele>
        <time>2021-08-08T09:10:11Z</time>
      </trkpt>
      <trkpt lat="48.8771" lon="7.42618">
        <ele>220</ele>
        <time>2021-08-08T09:10:12Z</time>
      </trkpt>
      <trkpt lat="48.8771" lon="7.42618">
        <ele>220</ele>
        <time>2021-08-08T09:10:13Z</time>
      </trkpt>
      <trkpt lat="48.87711" lon="7.42624">
        <ele>220</ele>
        <time>2021-08-08T09:10:14Z</time>
      </trkpt>
      <trkpt lat="48.87711" lon="7.42624">
        <ele>220</ele>
        <time>2021-08-08T09:10:15Z</time>
      </trkpt>
      <trkpt lat="48.87711" lon="7.42629">
        <ele>220</ele>
        <time>2021-08-08T09:10:16Z</time>
      </trkpt>
      <trkpt lat="48.87711" lon="7.42629">
        <ele>220</ele>
        <time>2021-08-08T09:10:17Z</time>
      </trkpt>
      <trkpt lat="48.87712" lon="7.42634">
        <ele>220</ele>
        <time>2021-08-08T09:10:18Z</time>
      </trkpt>
      <trkpt lat="48.87712" lon="7.42634">
        <ele>220</ele>
        <time>2021-08-08T09:10:19Z</time>
      </trkpt>
      <trkpt lat="48.87713" lon="7.42639">
        <ele>220</ele>
        <time>2021-08-08T09:10:20Z</time>
      </trkpt>
      <trkpt lat="48.87713" lon="7.42639">
        <ele>220</ele>
        <time>2021-08-08T09:10:21Z</time>
      </trkpt>
      <trkpt lat="48.87714" lon="7.42645">
        <ele>220</ele>
        <time>2021-08-08T09:10:22Z</time>
      </trkpt>
      <trkpt lat="48.87715" lon="7.42651">
        <ele>221</ele>
        <time>2021-08-08T09:10:23Z</time>
      </trkpt>
      <trkpt lat="48.87715" lon="7.42651">
        <ele>221</ele>
        <time>2021-08-08T09:10:24Z</time>
      </trkpt>
      <trkpt lat="48.87716" lon="7.42656">
        <ele>221</ele>
        <time>2021-08-08T09:10:25Z</time>
      </trkpt>
      <trkpt lat="48.87716" lon="7.42656">
        <ele>221</ele>
        <time>2021-08-08T09:10:26Z</time>
      </trkpt>
      <trkpt lat="48.87716" lon="7.42661">
        <ele>221</ele>
        <time>2021-08-08T09:10:27Z</time>
      </trkpt>
      <trkpt lat="48.87716" lon="7.42661">
        <ele>221</ele>
        <time>2021-08-08T09:10:28Z</time>
      </trkpt>
      <trkpt lat="48.87715" lon="7.42665">
        <ele>221</ele>
        <time>2021-08-08T09:10:29Z</time>
      </trkpt>
      <trkpt lat="48.87715" lon="7.42665">
        <ele>221</ele>
        <time>2021-08-08T09:10:30Z</time>
      </trkpt>
      <trkpt lat="48.87715" lon="7.42665">
        <ele>222</ele>
        <time>2021-08-08T09:10:31Z</time>
      </trkpt>
      <trkpt lat="48.87715" lon="7.42669">
        <ele>222</ele>
        <time>2021-08-08T09:10:32Z</time>
      </trkpt>
      <trkpt lat="48.87715" lon="7.42669">
        <ele>223</ele>
        <time>2021-08-08T09:10:33Z</time>
      </trkpt>
      <trkpt lat="48.87714" lon="7.42673">
        <ele>223</ele>
        <time>2021-08-08T09:10:34Z</time>
      </trkpt>
      <trkpt lat="48.87714" lon="7.42673">
        <ele>223</ele>
        <time>2021-08-08T09:10:35Z</time>
      </trkpt>
      <trkpt lat="48.87713" lon="7.42681">
        <ele>224</ele>
        <time>2021-08-08T09:10:36Z</time>
      </trkpt>
      <trkpt lat="48.87712" lon="7.42688">
        <ele>224</ele>
        <time>2021-08-08T09:10:37Z</time>
      </trkpt>
      <trkpt lat="48.87712" lon="7.42688">
        <ele>224</ele>
        <time>2021-08-08T09:10:38Z</time>
      </trkpt>
      <trkpt lat="48.87713" lon="7.42694">
        <ele>224</ele>
        <time>2021-08-08T09:10:39Z</time>
      </trkpt>
      <trkpt lat="48.87713" lon="7.42694">
        <ele>224</ele>
        <time>2021-08-08T09:10:40Z</time>
      </trkpt>
      <trkpt lat="48.87713" lon="7.42694">
        <ele>224</ele>
        <time>2021-08-08T09:10:41Z</time>
      </trkpt>
      <trkpt lat="48.87713" lon="7.42698">
        <ele>225</ele>
        <time>2021-08-08T09:10:42Z</time>
      </trkpt>
      <trkpt lat="48.87713" lon="7.42698">
        <ele>225</ele>
        <time>2021-08-08T09:10:43Z</time>
      </trkpt>
      <trkpt lat="48.87715" lon="7.42706">
        <ele>225</ele>
        <time>2021-08-08T09:10:44Z</time>
      </trkpt>
      <trkpt lat="48.87715" lon="7.42706">
        <ele>225</ele>
        <time>2021-08-08T09:10:45Z</time>
      </trkpt>
      <trkpt lat="48.87715" lon="7.42711">
        <ele>225</ele>
        <time>2021-08-08T09:10:46Z</time>
      </trkpt>
      <trkpt lat="48.87715" lon="7.42711">
        <ele>226</ele>
        <time>2021-08-08T09:10:47Z</time>
      </trkpt>
      <trkpt lat="48.87715" lon="7.42715">
        <ele>226</ele>
        <time>2021-08-08T09:10:48Z</time>
      </trkpt>
      <trkpt lat="48.87715" lon="7.42718">
        <ele>226</ele>
        <time>2021-08-08T09:10:49Z</time>
      </trkpt>
      <trkpt lat="48.87715" lon="7.42718">
        <ele>226</ele>
        <time>2021-08-08T09:10:50Z</time>
      </trkpt>
      <trkpt lat="48.87715" lon="7.42718">
        <ele>226</ele>
        <time>2021-08-08T09:10:51Z</time>
      </trkpt>
      <trkpt lat="48.87716" lon="7.42721">
        <ele>226</ele>
        <time>2021-08-08T09:10:52Z</time>
      </trkpt>
      <trkpt lat="48.87716" lon="7.42723">
        <ele>226</ele>
        <time>2021-08-08T09:10:53Z</time>
      </trkpt>
      <trkpt lat="48.87716" lon="7.42725">
        <ele>226</ele>
        <time>2021-08-08T09:10:54Z</time>
      </trkpt>
      <trkpt lat="48.87716" lon="7.42725">
        <ele>226</ele>
        <time>2021-08-08T09:10:55Z</time>
      </trkpt>
      <trkpt lat="48.87715" lon="7.42728">
        <ele>226</ele>
        <time>2021-08-08T09:10:56Z</time>
      </trkpt>
      <trkpt lat="48.87715" lon="7.42728">
        <ele>227</ele>
        <time>2021-08-08T09:10:57Z</time>
      </trkpt>
      <trkpt lat="48.87715" lon="7.42733">
        <ele>227</ele>
        <time>2021-08-08T09:10:58Z</time>
      </trkpt>
      <trkpt lat="48.87715" lon="7.42735">
        <ele>227</ele>
        <time>2021-08-08T09:10:59Z</time>
      </trkpt>
      <trkpt lat="48.87715" lon="7.42735">
        <ele>227</ele>
        <time>2021-08-08T09:11:00Z</time>
      </trkpt>
      <trkpt lat="48.87715" lon="7.42735">
        <ele>227</ele>
        <time>2021-08-08T09:11:01Z</time>
      </trkpt>
      <trkpt lat="48.87715" lon="7.42739">
        <ele>227</ele>
        <time>2021-08-08T09:11:02Z</time>
      </trkpt>
      <trkpt lat="48.87715" lon="7.42739">
        <ele>228</ele>
        <time>2021-08-08T09:11:03Z</time>
      </trkpt>
      <trkpt lat="48.87715" lon="7.42742">
        <ele>228</ele>
        <time>2021-08-08T09:11:04Z</time>
      </trkpt>
      <trkpt lat="48.87715" lon="7.42742">
        <ele>228</ele>
        <time>2021-08-08T09:11:05Z</time>
      </trkpt>
      <trkpt lat="48.87716" lon="7.42746">
        <ele>228</ele>
        <time>2021-08-08T09:11:06Z</time>
      </trkpt>
      <trkpt lat="48.87716" lon="7.42746">
        <ele>229</ele>
        <time>2021-08-08T09:11:07Z</time>
      </trkpt>
      <trkpt lat="48.87714" lon="7.42752">
        <ele>229</ele>
        <time>2021-08-08T09:11:08Z</time>
      </trkpt>
      <trkpt lat="48.87714" lon="7.42752">
        <ele>229</ele>
        <time>2021-08-08T09:11:09Z</time>
      </trkpt>
      <trkpt lat="48.87714" lon="7.42757">
        <ele>229</ele>
        <time>2021-08-08T09:11:10Z</time>
      </trkpt>
      <trkpt lat="48.87714" lon="7.42757">
        <ele>229</ele>
        <time>2021-08-08T09:11:11Z</time>
      </trkpt>
      <trkpt lat="48.87714" lon="7.42762">
        <ele>229</ele>
        <time>2021-08-08T09:11:12Z</time>
      </trkpt>
      <trkpt lat="48.87714" lon="7.42762">
        <ele>230</ele>
        <time>2021-08-08T09:11:13Z</time>
      </trkpt>
      <trkpt lat="48.87715" lon="7.42767">
        <ele>230</ele>
        <time>2021-08-08T09:11:14Z</time>
      </trkpt>
      <trkpt lat="48.87715" lon="7.42772">
        <ele>230</ele>
        <time>2021-08-08T09:11:15Z</time>
      </trkpt>
      <trkpt lat="48.87715" lon="7.42772">
        <ele>230</ele>
        <time>2021-08-08T09:11:16Z</time>
      </trkpt>
      <trkpt lat="48.87715" lon="7.42772">
        <ele>230</ele>
        <time>2021-08-08T09:11:17Z</time>
      </trkpt>
      <trkpt lat="48.87715" lon="7.42775">
        <ele>230</ele>
        <time>2021-08-08T09:11:18Z</time>
      </trkpt>
      <trkpt lat="48.87715" lon="7.42775">
        <ele>231</ele>
        <time>2021-08-08T09:11:19Z</time>
      </trkpt>
      <trkpt lat="48.87715" lon="7.4278">
        <ele>231</ele>
        <time>2021-08-08T09:11:20Z</time>
      </trkpt>
      <trkpt lat="48.87715" lon="7.42783">
        <ele>231</ele>
        <time>2021-08-08T09:11:21Z</time>
      </trkpt>
      <trkpt lat="48.87715" lon="7.42783">
        <ele>231</ele>
        <time>2021-08-08T09:11:22Z</time>
      </trkpt>
      <trkpt lat="48.87715" lon="7.42783">
        <ele>232</ele>
        <time>2021-08-08T09:11:23Z</time>
      </trkpt>
      <trkpt lat="48.87715" lon="7.42787">
        <ele>232</ele>
        <time>2021-08-08T09:11:24Z</time>
      </trkpt>
      <trkpt lat="48.87714" lon="7.42792">
        <ele>232</ele>
        <time>2021-08-08T09:11:25Z</time>
      </trkpt>
      <trkpt lat="48.87714" lon="7.42792">
        <ele>232</ele>
        <time>2021-08-08T09:11:26Z</time>
      </trkpt>
      <trkpt lat="48.87714" lon="7.42797">
        <ele>233</ele>
        <time>2021-08-08T09:11:27Z</time>
      </trkpt>
      <trkpt lat="48.87714" lon="7.42797">
        <ele>233</ele>
        <time>2021-08-08T09:11:28Z</time>
      </trkpt>
      <trkpt lat="48.87714" lon="7.42797">
        <ele>233</ele>
        <time>2021-08-08T09:11:29Z</time>
      </trkpt>
      <trkpt lat="48.87714" lon="7.42802">
        <ele>234</ele>
        <time>2021-08-08T09:11:30Z</time>
      </trkpt>
      <trkpt lat="48.87714" lon="7.42804">
        <ele>234</ele>
        <time>2021-08-08T09:11:31Z</time>
      </trkpt>
      <trkpt lat="48.87713" lon="7.42806">
        <ele>234</ele>
        <time>2021-08-08T09:11:32Z</time>
      </trkpt>
      <trkpt lat="48.87712" lon="7.42811">
        <ele>234</ele>
        <time>2021-08-08T09:11:33Z</time>
      </trkpt>
      <trkpt lat="48.87712" lon="7.42811">
        <ele>235</ele>
        <time>2021-08-08T09:11:34Z</time>
      </trkpt>
      <trkpt lat="48.87712" lon="7.42811">
        <ele>235</ele>
        <time>2021-08-08T09:11:35Z</time>
      </trkpt>
      <trkpt lat="48.87711" lon="7.42815">
        <ele>236</ele>
        <time>2021-08-08T09:11:36Z</time>
      </trkpt>
      <trkpt lat="48.87711" lon="7.42815">
        <ele>236</ele>
        <time>2021-08-08T09:11:37Z</time>
      </trkpt>
      <trkpt lat="48.8771" lon="7.42821">
        <ele>237</ele>
        <time>2021-08-08T09:11:38Z</time>
      </trkpt>
      <trkpt lat="48.8771" lon="7.42821">
        <ele>237</ele>
        <time>2021-08-08T09:11:39Z</time>
      </trkpt>
      <trkpt lat="48.8771" lon="7.42826">
        <ele>237</ele>
        <time>2021-08-08T09:11:40Z</time>
      </trkpt>
      <trkpt lat="48.8771" lon="7.42826">
        <ele>237</ele>
        <time>2021-08-08T09:11:41Z</time>
      </trkpt>
      <trkpt lat="48.8771" lon="7.4283">
        <ele>238</ele>
        <time>2021-08-08T09:11:42Z</time>
      </trkpt>
      <trkpt lat="48.8771" lon="7.4283">
        <ele>238</ele>
        <time>2021-08-08T09:11:43Z</time>
      </trkpt>
      <trkpt lat="48.8771" lon="7.42834">
        <ele>238</ele>
        <time>2021-08-08T09:11:44Z</time>
      </trkpt>
      <trkpt lat="48.8771" lon="7.42837">
        <ele>238</ele>
        <time>2021-08-08T09:11:45Z</time>
      </trkpt>
      <trkpt lat="48.8771" lon="7.42837">
        <ele>238</ele>
        <time>2021-08-08T09:11:46Z</time>
      </trkpt>
      <trkpt lat="48.8771" lon="7.42837">
        <ele>238</ele>
        <time>2021-08-08T09:11:47Z</time>
      </trkpt>
      <trkpt lat="48.8771" lon="7.42841">
        <ele>239</ele>
        <time>2021-08-08T09:11:48Z</time>
      </trkpt>
      <trkpt lat="48.8771" lon="7.42841">
        <ele>239</ele>
        <time>2021-08-08T09:11:49Z</time>
      </trkpt>
      <trkpt lat="48.8771" lon="7.42848">
        <ele>239</ele>
        <time>2021-08-08T09:11:50Z</time>
      </trkpt>
      <trkpt lat="48.8771" lon="7.42848">
        <ele>239</ele>
        <time>2021-08-08T09:11:51Z</time>
      </trkpt>
      <trkpt lat="48.8771" lon="7.42848">
        <ele>240</ele>
        <time>2021-08-08T09:11:52Z</time>
      </trkpt>
      <trkpt lat="48.8771" lon="7.42851">
        <ele>240</ele>
        <time>2021-08-08T09:11:53Z</time>
      </trkpt>
      <trkpt lat="48.87711" lon="7.42853">
        <ele>240</ele>
        <time>2021-08-08T09:11:54Z</time>
      </trkpt>
      <trkpt lat="48.8771" lon="7.42855">
        <ele>240</ele>
        <time>2021-08-08T09:11:55Z</time>
      </trkpt>
      <trkpt lat="48.8771" lon="7.42855">
        <ele>240</ele>
        <time>2021-08-08T09:11:56Z</time>
      </trkpt>
      <trkpt lat="48.8771" lon="7.42858">
        <ele>241</ele>
        <time>2021-08-08T09:11:57Z</time>
      </trkpt>
      <trkpt lat="48.8771" lon="7.42858">
        <ele>241</ele>
        <time>2021-08-08T09:11:58Z</time>
      </trkpt>
      <trkpt lat="48.8771" lon="7.42861">
        <ele>241</ele>
        <time>2021-08-08T09:11:59Z</time>
      </trkpt>
      <trkpt lat="48.8771" lon="7.42861">
        <ele>241</ele>
        <time>2021-08-08T09:12:00Z</time>
      </trkpt>
      <trkpt lat="48.8771" lon="7.42864">
        <ele>242</ele>
        <time>2021-08-08T09:12:01Z</time>
      </trkpt>
      <trkpt lat="48.8771" lon="7.42864">
        <ele>242</ele>
        <time>2021-08-08T09:12:02Z</time>
      </trkpt>
      <trkpt lat="48.87709" lon="7.42868">
        <ele>242</ele>
        <time>2021-08-08T09:12:03Z</time>
      </trkpt>
      <trkpt lat="48.87709" lon="7.42868">
        <ele>242</ele>
        <time>2021-08-08T09:12:04Z</time>
      </trkpt>
      <trkpt lat="48.8771" lon="7.42872">
        <ele>242</ele>
        <time>2021-08-08T09:12:05Z</time>
      </trkpt>
      <trkpt lat="48.8771" lon="7.42875">
        <ele>242</ele>
        <time>2021-08-08T09:12:06Z</time>
      </trkpt>
      <trkpt lat="48.8771" lon="7.42875">
        <ele>242</ele>
        <time>2021-08-08T09:12:07Z</time>
      </trkpt>
      <trkpt lat="48.8771" lon="7.42876">
        <ele>243</ele>
        <time>2021-08-08T09:12:08Z</time>
      </trkpt>
      <trkpt lat="48.8771" lon="7.42876">
        <ele>243</ele>
        <time>2021-08-08T09:12:09Z</time>
      </trkpt>
      <trkpt lat="48.87709" lon="7.42882">
        <ele>243</ele>
        <time>2021-08-08T09:12:10Z</time>
      </trkpt>
      <trkpt lat="48.87709" lon="7.42882">
        <ele>243</ele>
        <time>2021-08-08T09:12:11Z</time>
      </trkpt>
      <trkpt lat="48.87709" lon="7.42886">
        <ele>244</ele>
        <time>2021-08-08T09:12:12Z</time>
      </trkpt>
      <trkpt lat="48.8771" lon="7.4289">
        <ele>244</ele>
        <time>2021-08-08T09:12:13Z</time>
      </trkpt>
      <trkpt lat="48.8771" lon="7.4289">
        <ele>244</ele>
        <time>2021-08-08T09:12:14Z</time>
      </trkpt>
      <trkpt lat="48.8771" lon="7.4289">
        <ele>244</ele>
        <time>2021-08-08T09:12:15Z</time>
      </trkpt>
      <trkpt lat="48.8771" lon="7.42893">
        <ele>244</ele>
        <time>2021-08-08T09:12:16Z</time>
      </trkpt>
      <trkpt lat="48.8771" lon="7.42893">
        <ele>244</ele>
        <time>2021-08-08T09:12:17Z</time>
      </trkpt>
      <trkpt lat="48.87709" lon="7.42897">
        <ele>245</ele>
        <time>2021-08-08T09:12:18Z</time>
      </trkpt>
      <trkpt lat="48.87709" lon="7.42902">
        <ele>245</ele>
        <time>2021-08-08T09:12:19Z</time>
      </trkpt>
      <trkpt lat="48.87709" lon="7.42902">
        <ele>245</ele>
        <time>2021-08-08T09:12:20Z</time>
      </trkpt>
      <trkpt lat="48.87708" lon="7.42904">
        <ele>245</ele>
        <time>2021-08-08T09:12:21Z</time>
      </trkpt>
      <trkpt lat="48.87708" lon="7.42908">
        <ele>246</ele>
        <time>2021-08-08T09:12:22Z</time>
      </trkpt>
      <trkpt lat="48.87708" lon="7.42908">
        <ele>246</ele>
        <time>2021-08-08T09:12:23Z</time>
      </trkpt>
      <trkpt lat="48.87708" lon="7.42908">
        <ele>246</ele>
        <time>2021-08-08T09:12:24Z</time>
      </trkpt>
      <trkpt lat="48.87708" lon="7.42912">
        <ele>247</ele>
        <time>2021-08-08T09:12:25Z</time>
      </trkpt>
      <trkpt lat="48.87709" lon="7.42913">
        <ele>247</ele>
        <time>2021-08-08T09:12:26Z</time>
      </trkpt>
      <trkpt lat="48.87709" lon="7.42916">
        <ele>247</ele>
        <time>2021-08-08T09:12:27Z</time>
      </trkpt>
      <trkpt lat="48.87709" lon="7.42916">
        <ele>247</ele>
        <time>2021-08-08T09:12:28Z</time>
      </trkpt>
      <trkpt lat="48.87709" lon="7.42919">
        <ele>248</ele>
        <time>2021-08-08T09:12:29Z</time>
      </trkpt>
      <trkpt lat="48.87709" lon="7.42919">
        <ele>248</ele>
        <time>2021-08-08T09:12:30Z</time>
      </trkpt>
      <trkpt lat="48.87708" lon="7.42923">
        <ele>248</ele>
        <time>2021-08-08T09:12:31Z</time>
      </trkpt>
      <trkpt lat="48.87708" lon="7.42923">
        <ele>248</ele>
        <time>2021-08-08T09:12:32Z</time>
      </trkpt>
      <trkpt lat="48.87708" lon="7.42926">
        <ele>249</ele>
        <time>2021-08-08T09:12:33Z</time>
      </trkpt>
      <trkpt lat="48.87708" lon="7.42926">
        <ele>249</ele>
        <time>2021-08-08T09:12:34Z</time>
      </trkpt>
      <trkpt lat="48.87708" lon="7.4293">
        <ele>249</ele>
        <time>2021-08-08T09:12:35Z</time>
      </trkpt>
      <trkpt lat="48.87708" lon="7.4293">
        <ele>249</ele>
        <time>2021-08-08T09:12:36Z</time>
      </trkpt>
      <trkpt lat="48.87708" lon="7.42932">
        <ele>250</ele>
        <time>2021-08-08T09:12:37Z</time>
      </trkpt>
      <trkpt lat="48.87709" lon="7.42934">
        <ele>250</ele>
        <time>2021-08-08T09:12:38Z</time>
      </trkpt>
      <trkpt lat="48.87709" lon="7.42938">
        <ele>250</ele>
        <time>2021-08-08T09:12:39Z</time>
      </trkpt>
      <trkpt lat="48.87709" lon="7.42938">
        <ele>250</ele>
        <time>2021-08-08T09:12:40Z</time>
      </trkpt>
      <trkpt lat="48.87709" lon="7.42938">
        <ele>250</ele>
        <time>2021-08-08T09:12:41Z</time>
      </trkpt>
      <trkpt lat="48.87709" lon="7.42942">
        <ele>250</ele>
        <time>2021-08-08T09:12:42Z</time>
      </trkpt>
      <trkpt lat="48.87709" lon="7.42942">
        <ele>250</ele>
        <time>2021-08-08T09:12:43Z</time>
      </trkpt>
      <trkpt lat="48.87707" lon="7.4295">
        <ele>250</ele>
        <time>2021-08-08T09:12:44Z</time>
      </trkpt>
      <trkpt lat="48.87706" lon="7.42954">
        <ele>250</ele>
        <time>2021-08-08T09:12:45Z</time>
      </trkpt>
      <trkpt lat="48.87706" lon="7.42954">
        <ele>250</ele>
        <time>2021-08-08T09:12:46Z</time>
      </trkpt>
      <trkpt lat="48.87706" lon="7.42954">
        <ele>250</ele>
        <time>2021-08-08T09:12:47Z</time>
      </trkpt>
      <trkpt lat="48.87706" lon="7.42958">
        <ele>250</ele>
        <time>2021-08-08T09:12:48Z</time>
      </trkpt>
      <trkpt lat="48.87706" lon="7.42958">
        <ele>251</ele>
        <time>2021-08-08T09:12:49Z</time>
      </trkpt>
      <trkpt lat="48.87707" lon="7.42963">
        <ele>251</ele>
        <time>2021-08-08T09:12:50Z</time>
      </trkpt>
      <trkpt lat="48.87707" lon="7.42967">
        <ele>251</ele>
        <time>2021-08-08T09:12:51Z</time>
      </trkpt>
      <trkpt lat="48.87707" lon="7.42967">
        <ele>251</ele>
        <time>2021-08-08T09:12:52Z</time>
      </trkpt>
      <trkpt lat="48.87707" lon="7.42967">
        <ele>252</ele>
        <time>2021-08-08T09:12:53Z</time>
      </trkpt>
      <trkpt lat="48.87708" lon="7.42975">
        <ele>252</ele>
        <time>2021-08-08T09:12:54Z</time>
      </trkpt>
      <trkpt lat="48.87708" lon="7.42975">
        <ele>252</ele>
        <time>2021-08-08T09:12:55Z</time>
      </trkpt>
      <trkpt lat="48.87709" lon="7.42979">
        <ele>252</ele>
        <time>2021-08-08T09:12:56Z</time>
      </trkpt>
      <trkpt lat="48.87709" lon="7.42979">
        <ele>252</ele>
        <time>2021-08-08T09:12:57Z</time>
      </trkpt>
      <trkpt lat="48.87709" lon="7.42982">
        <ele>252</ele>
        <time>2021-08-08T09:12:58Z</time>
      </trkpt>
      <trkpt lat="48.87709" lon="7.42982">
        <ele>253</ele>
        <time>2021-08-08T09:12:59Z</time>
      </trkpt>
      <trkpt lat="48.87709" lon="7.42984">
        <ele>253</ele>
        <time>2021-08-08T09:13:00Z</time>
      </trkpt>
      <trkpt lat="48.87709" lon="7.42984">
        <ele>253</ele>
        <time>2021-08-08T09:13:01Z</time>
      </trkpt>
      <trkpt lat="48.8771" lon="7.42988">
        <ele>253</ele>
        <time>2021-08-08T09:13:02Z</time>
      </trkpt>
      <trkpt lat="48.8771" lon="7.42988">
        <ele>253</ele>
        <time>2021-08-08T09:13:03Z</time>
      </trkpt>
      <trkpt lat="48.87711" lon="7.42991">
        <ele>253</ele>
        <time>2021-08-08T09:13:04Z</time>
      </trkpt>
      <trkpt lat="48.87711" lon="7.42991">
        <ele>254</ele>
        <time>2021-08-08T09:13:05Z</time>
      </trkpt>
      <trkpt lat="48.87712" lon="7.42994">
        <ele>254</ele>
        <time>2021-08-08T09:13:06Z</time>
      </trkpt>
      <trkpt lat="48.87712" lon="7.42994">
        <ele>254</ele>
        <time>2021-08-08T09:13:07Z</time>
      </trkpt>
      <trkpt lat="48.87711" lon="7.42998">
        <ele>254</ele>
        <time>2021-08-08T09:13:08Z</time>
      </trkpt>
      <trkpt lat="48.87711" lon="7.43001">
        <ele>254</ele>
        <time>2021-08-08T09:13:09Z</time>
      </trkpt>
      <trkpt lat="48.87711" lon="7.43002">
        <ele>254</ele>
        <time>2021-08-08T09:13:10Z</time>
      </trkpt>
      <trkpt lat="48.87711" lon="7.43002">
        <ele>255</ele>
        <time>2021-08-08T09:13:11Z</time>
      </trkpt>
      <trkpt lat="48.87711" lon="7.43002">
        <ele>255</ele>
        <time>2021-08-08T09:13:12Z</time>
      </trkpt>
      <trkpt lat="48.8771" lon="7.43005">
        <ele>255</ele>
        <time>2021-08-08T09:13:13Z</time>
      </trkpt>
      <trkpt lat="48.8771" lon="7.43008">
        <ele>255</ele>
        <time>2021-08-08T09:13:14Z</time>
      </trkpt>
      <trkpt lat="48.8771" lon="7.43008">
        <ele>255</ele>
        <time>2021-08-08T09:13:15Z</time>
      </trkpt>
      <trkpt lat="48.8771" lon="7.43009">
        <ele>255</ele>
        <time>2021-08-08T09:13:16Z</time>
      </trkpt>
      <trkpt lat="48.8771" lon="7.43009">
        <ele>256</ele>
        <time>2021-08-08T09:13:17Z</time>
      </trkpt>
      <trkpt lat="48.87709" lon="7.43013">
        <ele>256</ele>
        <time>2021-08-08T09:13:18Z</time>
      </trkpt>
      <trkpt lat="48.87709" lon="7.43017">
        <ele>256</ele>
        <time>2021-08-08T09:13:19Z</time>
      </trkpt>
      <trkpt lat="48.87709" lon="7.43017">
        <ele>257</ele>
        <time>2021-08-08T09:13:20Z</time>
      </trkpt>
      <trkpt lat="48.87708" lon="7.43021">
        <ele>257</ele>
        <time>2021-08-08T09:13:21Z</time>
      </trkpt>
      <trkpt lat="48.87708" lon="7.43021">
        <ele>257</ele>
        <time>2021-08-08T09:13:22Z</time>
      </trkpt>
      <trkpt lat="48.87707" lon="7.43029">
        <ele>257</ele>
        <time>2021-08-08T09:13:23Z</time>
      </trkpt>
      <trkpt lat="48.87707" lon="7.43029">
        <ele>258</ele>
        <time>2021-08-08T09:13:24Z</time>
      </trkpt>
      <trkpt lat="48.87707" lon="7.43032">
        <ele>258</ele>
        <time>2021-08-08T09:13:25Z</time>
      </trkpt>
      <trkpt lat="48.87706" lon="7.43036">
        <ele>258</ele>
        <time>2021-08-08T09:13:26Z</time>
      </trkpt>
      <trkpt lat="48.87706" lon="7.43036">
        <ele>258</ele>
        <time>2021-08-08T09:13:27Z</time>
      </trkpt>
      <trkpt lat="48.87706" lon="7.43036">
        <ele>258</ele>
        <time>2021-08-08T09:13:28Z</time>
      </trkpt>
      <trkpt lat="48.87706" lon="7.43039">
        <ele>258</ele>
        <time>2021-08-08T09:13:29Z</time>
      </trkpt>
      <trkpt lat="48.87706" lon="7.43039">
        <ele>259</ele>
        <time>2021-08-08T09:13:30Z</time>
      </trkpt>
      <trkpt lat="48.87706" lon="7.43045">
        <ele>259</ele>
        <time>2021-08-08T09:13:31Z</time>
      </trkpt>
      <trkpt lat="48.87706" lon="7.43045">
        <ele>259</ele>
        <time>2021-08-08T09:13:32Z</time>
      </trkpt>
      <trkpt lat="48.87707" lon="7.43048">
        <ele>259</ele>
        <time>2021-08-08T09:13:33Z</time>
      </trkpt>
      <trkpt lat="48.87707" lon="7.43048">
        <ele>260</ele>
        <time>2021-08-08T09:13:34Z</time>
      </trkpt>
      <trkpt lat="48.87707" lon="7.43051">
        <ele>260</ele>
        <time>2021-08-08T09:13:35Z</time>
      </trkpt>
      <trkpt lat="48.87707" lon="7.43051">
        <ele>260</ele>
        <time>2021-08-08T09:13:36Z</time>
      </trkpt>
      <trkpt lat="48.87707" lon="7.43051">
        <ele>260</ele>
        <time>2021-08-08T09:13:37Z</time>
      </trkpt>
      <trkpt lat="48.87706" lon="7.43055">
        <ele>260</ele>
        <time>2021-08-08T09:13:38Z</time>
      </trkpt>
      <trkpt lat="48.87706" lon="7.43059">
        <ele>260</ele>
        <time>2021-08-08T09:13:39Z</time>
      </trkpt>
      <trkpt lat="48.87706" lon="7.43059">
        <ele>260</ele>
        <time>2021-08-08T09:13:40Z</time>
      </trkpt>
      <trkpt lat="48.87706" lon="7.43061">
        <ele>260</ele>
        <time>2021-08-08T09:13:41Z</time>
      </trkpt>
      <trkpt lat="48.87706" lon="7.43061">
        <ele>260</ele>
        <time>2021-08-08T09:13:42Z</time>
      </trkpt>
      <trkpt lat="48.87707" lon="7.43065">
        <ele>260</ele>
        <time>2021-08-08T09:13:43Z</time>
      </trkpt>
      <trkpt lat="48.87707" lon="7.43065">
        <ele>261</ele>
        <time>2021-08-08T09:13:44Z</time>
      </trkpt>
      <trkpt lat="48.87707" lon="7.43065">
        <ele>261</ele>
        <time>2021-08-08T09:13:45Z</time>
      </trkpt>
      <trkpt lat="48.87707" lon="7.43069">
        <ele>261</ele>
        <time>2021-08-08T09:13:46Z</time>
      </trkpt>
      <trkpt lat="48.87707" lon="7.43069">
        <ele>261</ele>
        <time>2021-08-08T09:13:47Z</time>
      </trkpt>
      <trkpt lat="48.87707" lon="7.43072">
        <ele>262</ele>
        <time>2021-08-08T09:13:48Z</time>
      </trkpt>
      <trkpt lat="48.87707" lon="7.43072">
        <ele>262</ele>
        <time>2021-08-08T09:13:49Z</time>
      </trkpt>
      <trkpt lat="48.87707" lon="7.43074">
        <ele>262</ele>
        <time>2021-08-08T09:13:50Z</time>
      </trkpt>
      <trkpt lat="48.87707" lon="7.43074">
        <ele>262</ele>
        <time>2021-08-08T09:13:51Z</time>
      </trkpt>
      <trkpt lat="48.87708" lon="7.43078">
        <ele>262</ele>
        <time>2021-08-08T09:13:52Z</time>
      </trkpt>
      <trkpt lat="48.87707" lon="7.43082">
        <ele>262</ele>
        <time>2021-08-08T09:13:53Z</time>
      </trkpt>
      <trkpt lat="48.87707" lon="7.43082">
        <ele>263</ele>
        <time>2021-08-08T09:13:54Z</time>
      </trkpt>
      <trkpt lat="48.87706" lon="7.43087">
        <ele>263</ele>
        <time>2021-08-08T09:13:55Z</time>
      </trkpt>
      <trkpt lat="48.87706" lon="7.43087">
        <ele>263</ele>
        <time>2021-08-08T09:13:56Z</time>
      </trkpt>
      <trkpt lat="48.87706" lon="7.43087">
        <ele>263</ele>
        <time>2021-08-08T09:13:57Z</time>
      </trkpt>
      <trkpt lat="48.87704" lon="7.43095">
        <ele>264</ele>
        <time>2021-08-08T09:13:58Z</time>
      </trkpt>
      <trkpt lat="48.87705" lon="7.43099">
        <ele>264</ele>
        <time>2021-08-08T09:13:59Z</time>
      </trkpt>
      <trkpt lat="48.87705" lon="7.43099">
        <ele>264</ele>
        <time>2021-08-08T09:14:00Z</time>
      </trkpt>
      <trkpt lat="48.87707" lon="7.43102">
        <ele>264</ele>
        <time>2021-08-08T09:14:01Z</time>
      </trkpt>
      <trkpt lat="48.87707" lon="7.43104">
        <ele>265</ele>
        <time>2021-08-08T09:14:02Z</time>
      </trkpt>
      <trkpt lat="48.87707" lon="7.43104">
        <ele>265</ele>
        <time>2021-08-08T09:14:03Z</time>
      </trkpt>
      <trkpt lat="48.87707" lon="7.43108">
        <ele>265</ele>
        <time>2021-08-08T09:14:04Z</time>
      </trkpt>
      <trkpt lat="48.87707" lon="7.43108">
        <ele>265</ele>
        <time>2021-08-08T09:14:05Z</time>
      </trkpt>
      <trkpt lat="48.87707" lon="7.4311">
        <ele>265</ele>
        <time>2021-08-08T09:14:06Z</time>
      </trkpt>
      <trkpt lat="48.87706" lon="7.43113">
        <ele>265</ele>
        <time>2021-08-08T09:14:07Z</time>
      </trkpt>
      <trkpt lat="48.87706" lon="7.43113">
        <ele>265</ele>
        <time>2021-08-08T09:14:08Z</time>
      </trkpt>
      <trkpt lat="48.87706" lon="7.43113">
        <ele>265</ele>
        <time>2021-08-08T09:14:09Z</time>
      </trkpt>
      <trkpt lat="48.87706" lon="7.43117">
        <ele>265</ele>
        <time>2021-08-08T09:14:10Z</time>
      </trkpt>
      <trkpt lat="48.87705" lon="7.4312">
        <ele>265</ele>
        <time>2021-08-08T09:14:11Z</time>
      </trkpt>
      <trkpt lat="48.87705" lon="7.4312">
        <ele>266</ele>
        <time>2021-08-08T09:14:12Z</time>
      </trkpt>
      <trkpt lat="48.87705" lon="7.4312">
        <ele>266</ele>
        <time>2021-08-08T09:14:13Z</time>
      </trkpt>
      <trkpt lat="48.87705" lon="7.43124">
        <ele>266</ele>
        <time>2021-08-08T09:14:14Z</time>
      </trkpt>
      <trkpt lat="48.87705" lon="7.43124">
        <ele>267</ele>
        <time>2021-08-08T09:14:15Z</time>
      </trkpt>
      <trkpt lat="48.87705" lon="7.43128">
        <ele>267</ele>
        <time>2021-08-08T09:14:16Z</time>
      </trkpt>
      <trkpt lat="48.87704" lon="7.43131">
        <ele>267</ele>
        <time>2021-08-08T09:14:17Z</time>
      </trkpt>
      <trkpt lat="48.87704" lon="7.43131">
        <ele>267</ele>
        <time>2021-08-08T09:14:18Z</time>
      </trkpt>
      <trkpt lat="48.87704" lon="7.43131">
        <ele>267</ele>
        <time>2021-08-08T09:14:19Z</time>
      </trkpt>
      <trkpt lat="48.87705" lon="7.43136">
        <ele>267</ele>
        <time>2021-08-08T09:14:20Z</time>
      </trkpt>
      <trkpt lat="48.87705" lon="7.43136">
        <ele>267</ele>
        <time>2021-08-08T09:14:21Z</time>
      </trkpt>
      <trkpt lat="48.87705" lon="7.43141">
        <ele>268</ele>
        <time>2021-08-08T09:14:22Z</time>
      </trkpt>
      <trkpt lat="48.87704" lon="7.43142">
        <ele>268</ele>
        <time>2021-08-08T09:14:23Z</time>
      </trkpt>
      <trkpt lat="48.87704" lon="7.43142">
        <ele>268</ele>
        <time>2021-08-08T09:14:24Z</time>
      </trkpt>
      <trkpt lat="48.87705" lon="7.43149">
        <ele>268</ele>
        <time>2021-08-08T09:14:25Z</time>
      </trkpt>
      <trkpt lat="48.87705" lon="7.43149">
        <ele>269</ele>
        <time>2021-08-08T09:14:26Z</time>
      </trkpt>
      <trkpt lat="48.87705" lon="7.43152">
        <ele>269</ele>
        <time>2021-08-08T09:14:27Z</time>
      </trkpt>
      <trkpt lat="48.87705" lon="7.43152">
        <ele>269</ele>
        <time>2021-08-08T09:14:28Z</time>
      </trkpt>
      <trkpt lat="48.87705" lon="7.43155">
        <ele>269</ele>
        <time>2021-08-08T09:14:29Z</time>
      </trkpt>
      <trkpt lat="48.87704" lon="7.43156">
        <ele>269</ele>
        <time>2021-08-08T09:14:30Z</time>
      </trkpt>
      <trkpt lat="48.87704" lon="7.43156">
        <ele>269</ele>
        <time>2021-08-08T09:14:31Z</time>
      </trkpt>
      <trkpt lat="48.87704" lon="7.43158">
        <ele>270</ele>
        <time>2021-08-08T09:14:32Z</time>
      </trkpt>
      <trkpt lat="48.87704" lon="7.43158">
        <ele>270</ele>
        <time>2021-08-08T09:14:33Z</time>
      </trkpt>
      <trkpt lat="48.87705" lon="7.43163">
        <ele>270</ele>
        <time>2021-08-08T09:14:34Z</time>
      </trkpt>
      <trkpt lat="48.87705" lon="7.43169">
        <ele>270</ele>
        <time>2021-08-08T09:14:35Z</time>
      </trkpt>
      <trkpt lat="48.87705" lon="7.43169">
        <ele>270</ele>
        <time>2021-08-08T09:14:36Z</time>
      </trkpt>
      <trkpt lat="48.87705" lon="7.43169">
        <ele>271</ele>
        <time>2021-08-08T09:14:37Z</time>
      </trkpt>
      <trkpt lat="48.87705" lon="7.43176">
        <ele>271</ele>
        <time>2021-08-08T09:14:38Z</time>
      </trkpt>
      <trkpt lat="48.87706" lon="7.43181">
        <ele>271</ele>
        <time>2021-08-08T09:14:39Z</time>
      </trkpt>
      <trkpt lat="48.87706" lon="7.43181">
        <ele>271</ele>
        <time>2021-08-08T09:14:40Z</time>
      </trkpt>
      <trkpt lat="48.87705" lon="7.43185">
        <ele>272</ele>
        <time>2021-08-08T09:14:41Z</time>
      </trkpt>
      <trkpt lat="48.87705" lon="7.43185">
        <ele>272</ele>
        <time>2021-08-08T09:14:42Z</time>
      </trkpt>
      <trkpt lat="48.87705" lon="7.43185">
        <ele>272</ele>
        <time>2021-08-08T09:14:43Z</time>
      </trkpt>
      <trkpt lat="48.87704" lon="7.4319">
        <ele>272</ele>
        <time>2021-08-08T09:14:44Z</time>
      </trkpt>
      <trkpt lat="48.87704" lon="7.4319">
        <ele>273</ele>
        <time>2021-08-08T09:14:45Z</time>
      </trkpt>
      <trkpt lat="48.87703" lon="7.43195">
        <ele>273</ele>
        <time>2021-08-08T09:14:46Z</time>
      </trkpt>
      <trkpt lat="48.87703" lon="7.43195">
        <ele>273</ele>
        <time>2021-08-08T09:14:47Z</time>
      </trkpt>
      <trkpt lat="48.87703" lon="7.432">
        <ele>273</ele>
        <time>2021-08-08T09:14:48Z</time>
      </trkpt>
      <trkpt lat="48.87704" lon="7.43204">
        <ele>274</ele>
        <time>2021-08-08T09:14:49Z</time>
      </trkpt>
      <trkpt lat="48.87704" lon="7.43204">
        <ele>274</ele>
        <time>2021-08-08T09:14:50Z</time>
      </trkpt>
      <trkpt lat="48.87704" lon="7.43204">
        <ele>274</ele>
        <time>2021-08-08T09:14:51Z</time>
      </trkpt>
      <trkpt lat="48.87704" lon="7.43208">
        <ele>274</ele>
        <time>2021-08-08T09:14:52Z</time>
      </trkpt>
      <trkpt lat="48.87704" lon="7.43213">
        <ele>274</ele>
        <time>2021-08-08T09:14:53Z</time>
      </trkpt>
      <trkpt lat="48.87704" lon="7.43213">
        <ele>274</ele>
        <time>2021-08-08T09:14:54Z</time>
      </trkpt>
      <trkpt lat="48.87704" lon="7.43213">
        <ele>274</ele>
        <time>2021-08-08T09:14:55Z</time>
      </trkpt>
      <trkpt lat="48.87703" lon="7.43217">
        <ele>274</ele>
        <time>2021-08-08T09:14:56Z</time>
      </trkpt>
      <trkpt lat="48.87703" lon="7.43217">
        <ele>274</ele>
        <time>2021-08-08T09:14:57Z</time>
      </trkpt>
      <trkpt lat="48.87704" lon="7.43223">
        <ele>274</ele>
        <time>2021-08-08T09:14:58Z</time>
      </trkpt>
      <trkpt lat="48.87704" lon="7.43223">
        <ele>275</ele>
        <time>2021-08-08T09:14:59Z</time>
      </trkpt>
      <trkpt lat="48.87704" lon="7.43227">
        <ele>275</ele>
        <time>2021-08-08T09:15:00Z</time>
      </trkpt>
      <trkpt lat="48.87704" lon="7.43228">
        <ele>275</ele>
        <time>2021-08-08T09:15:01Z</time>
      </trkpt>
      <trkpt lat="48.87705" lon="7.43234">
        <ele>275</ele>
        <time>2021-08-08T09:15:02Z</time>
      </trkpt>
      <trkpt lat="48.87705" lon="7.43234">
        <ele>275</ele>
        <time>2021-08-08T09:15:03Z</time>
      </trkpt>
      <trkpt lat="48.87705" lon="7.43237">
        <ele>275</ele>
        <time>2021-08-08T09:15:04Z</time>
      </trkpt>
      <trkpt lat="48.87705" lon="7.43237">
        <ele>275</ele>
        <time>2021-08-08T09:15:05Z</time>
      </trkpt>
      <trkpt lat="48.87705" lon="7.43243">
        <ele>275</ele>
        <time>2021-08-08T09:15:06Z</time>
      </trkpt>
      <trkpt lat="48.87706" lon="7.43252">
        <ele>275</ele>
        <time>2021-08-08T09:15:07Z</time>
      </trkpt>
      <trkpt lat="48.87706" lon="7.43252">
        <ele>275</ele>
        <time>2021-08-08T09:15:08Z</time>
      </trkpt>
      <trkpt lat="48.87706" lon="7.43252">
        <ele>275</ele>
        <time>2021-08-08T09:15:09Z</time>
      </trkpt>
      <trkpt lat="48.87706" lon="7.43259">
        <ele>275</ele>
        <time>2021-08-08T09:15:10Z</time>
      </trkpt>
      <trkpt lat="48.87706" lon="7.43259">
        <ele>275</ele>
        <time>2021-08-08T09:15:11Z</time>
      </trkpt>
      <trkpt lat="48.87706" lon="7.43265">
        <ele>275</ele>
        <time>2021-08-08T09:15:12Z</time>
      </trkpt>
      <trkpt lat="48.87706" lon="7.43265">
        <ele>275</ele>
        <time>2021-08-08T09:15:13Z</time>
      </trkpt>
      <trkpt lat="48.87706" lon="7.43272">
        <ele>275</ele>
        <time>2021-08-08T09:15:14Z</time>
      </trkpt>
      <trkpt lat="48.87706" lon="7.43272">
        <ele>275</ele>
        <time>2021-08-08T09:15:15Z</time>
      </trkpt>
      <trkpt lat="48.87707" lon="7.43278">
        <ele>275</ele>
        <time>2021-08-08T09:15:16Z</time>
      </trkpt>
      <trkpt lat="48.87708" lon="7.43281">
        <ele>275</ele>
        <time>2021-08-08T09:15:17Z</time>
      </trkpt>
      <trkpt lat="48.8771" lon="7.43286">
        <ele>276</ele>
        <time>2021-08-08T09:15:18Z</time>
      </trkpt>
      <trkpt lat="48.8771" lon="7.4329">
        <ele>276</ele>
        <time>2021-08-08T09:15:19Z</time>
      </trkpt>
      <trkpt lat="48.8771" lon="7.4329">
        <ele>276</ele>
        <time>2021-08-08T09:15:20Z</time>
      </trkpt>
      <trkpt lat="48.87711" lon="7.43294">
        <ele>276</ele>
        <time>2021-08-08T09:15:21Z</time>
      </trkpt>
      <trkpt lat="48.87711" lon="7.43294">
        <ele>276</ele>
        <time>2021-08-08T09:15:22Z</time>
      </trkpt>
      <trkpt lat="48.87712" lon="7.433">
        <ele>276</ele>
        <time>2021-08-08T09:15:23Z</time>
      </trkpt>
      <trkpt lat="48.87712" lon="7.43307">
        <ele>276</ele>
        <time>2021-08-08T09:15:24Z</time>
      </trkpt>
      <trkpt lat="48.87712" lon="7.43311">
        <ele>276</ele>
        <time>2021-08-08T09:15:25Z</time>
      </trkpt>
      <trkpt lat="48.87712" lon="7.43311">
        <ele>276</ele>
        <time>2021-08-08T09:15:26Z</time>
      </trkpt>
      <trkpt lat="48.87711" lon="7.43319">
        <ele>276</ele>
        <time>2021-08-08T09:15:27Z</time>
      </trkpt>
      <trkpt lat="48.87712" lon="7.43323">
        <ele>276</ele>
        <time>2021-08-08T09:15:28Z</time>
      </trkpt>
      <trkpt lat="48.87712" lon="7.43323">
        <ele>276</ele>
        <time>2021-08-08T09:15:29Z</time>
      </trkpt>
      <trkpt lat="48.87712" lon="7.43323">
        <ele>276</ele>
        <time>2021-08-08T09:15:30Z</time>
      </trkpt>
      <trkpt lat="48.87713" lon="7.4333">
        <ele>276</ele>
        <time>2021-08-08T09:15:31Z</time>
      </trkpt>
      <trkpt lat="48.87713" lon="7.43333">
        <ele>276</ele>
        <time>2021-08-08T09:15:32Z</time>
      </trkpt>
      <trkpt lat="48.87713" lon="7.43333">
        <ele>276</ele>
        <time>2021-08-08T09:15:33Z</time>
      </trkpt>
      <trkpt lat="48.87714" lon="7.43341">
        <ele>276</ele>
        <time>2021-08-08T09:15:34Z</time>
      </trkpt>
      <trkpt lat="48.87715" lon="7.43345">
        <ele>276</ele>
        <time>2021-08-08T09:15:35Z</time>
      </trkpt>
      <trkpt lat="48.87715" lon="7.43345">
        <ele>276</ele>
        <time>2021-08-08T09:15:36Z</time>
      </trkpt>
      <trkpt lat="48.87715" lon="7.43352">
        <ele>276</ele>
        <time>2021-08-08T09:15:37Z</time>
      </trkpt>
      <trkpt lat="48.87716" lon="7.43359">
        <ele>276</ele>
        <time>2021-08-08T09:15:38Z</time>
      </trkpt>
      <trkpt lat="48.87716" lon="7.43359">
        <ele>277</ele>
        <time>2021-08-08T09:15:39Z</time>
      </trkpt>
      <trkpt lat="48.87721" lon="7.43376">
        <ele>277</ele>
        <time>2021-08-08T09:15:40Z</time>
      </trkpt>
      <trkpt lat="48.87721" lon="7.43376">
        <ele>277</ele>
        <time>2021-08-08T09:15:41Z</time>
      </trkpt>
      <trkpt lat="48.87722" lon="7.43385">
        <ele>277</ele>
        <time>2021-08-08T09:15:42Z</time>
      </trkpt>
      <trkpt lat="48.87723" lon="7.43394">
        <ele>277</ele>
        <time>2021-08-08T09:15:43Z</time>
      </trkpt>
      <trkpt lat="48.87723" lon="7.43394">
        <ele>277</ele>
        <time>2021-08-08T09:15:44Z</time>
      </trkpt>
      <trkpt lat="48.87723" lon="7.43404">
        <ele>277</ele>
        <time>2021-08-08T09:15:45Z</time>
      </trkpt>
      <trkpt lat="48.87723" lon="7.43404">
        <ele>277</ele>
        <time>2021-08-08T09:15:46Z</time>
      </trkpt>
      <trkpt lat="48.87724" lon="7.4341">
        <ele>277</ele>
        <time>2021-08-08T09:15:47Z</time>
      </trkpt>
      <trkpt lat="48.87724" lon="7.4341">
        <ele>277</ele>
        <time>2021-08-08T09:15:48Z</time>
      </trkpt>
      <trkpt lat="48.87726" lon="7.43422">
        <ele>277</ele>
        <time>2021-08-08T09:15:49Z</time>
      </trkpt>
      <trkpt lat="48.87727" lon="7.43428">
        <ele>277</ele>
        <time>2021-08-08T09:15:50Z</time>
      </trkpt>
      <trkpt lat="48.87727" lon="7.43428">
        <ele>277</ele>
        <time>2021-08-08T09:15:51Z</time>
      </trkpt>
      <trkpt lat="48.87727" lon="7.4344">
        <ele>277</ele>
        <time>2021-08-08T09:15:52Z</time>
      </trkpt>
      <trkpt lat="48.87727" lon="7.4344">
        <ele>277</ele>
        <time>2021-08-08T09:15:53Z</time>
      </trkpt>
      <trkpt lat="48.87727" lon="7.4344">
        <ele>277</ele>
        <time>2021-08-08T09:15:54Z</time>
      </trkpt>
      <trkpt lat="48.87727" lon="7.43449">
        <ele>278</ele>
        <time>2021-08-08T09:15:55Z</time>
      </trkpt>
      <trkpt lat="48.87727" lon="7.43453">
        <ele>278</ele>
        <time>2021-08-08T09:15:56Z</time>
      </trkpt>
      <trkpt lat="48.87727" lon="7.43453">
        <ele>278</ele>
        <time>2021-08-08T09:15:57Z</time>
      </trkpt>
      <trkpt lat="48.87728" lon="7.4346">
        <ele>278</ele>
        <time>2021-08-08T09:15:58Z</time>
      </trkpt>
      <trkpt lat="48.87728" lon="7.4346">
        <ele>278</ele>
        <time>2021-08-08T09:15:59Z</time>
      </trkpt>
      <trkpt lat="48.87729" lon="7.43466">
        <ele>278</ele>
        <time>2021-08-08T09:16:00Z</time>
      </trkpt>
      <trkpt lat="48.87729" lon="7.4347">
        <ele>278</ele>
        <time>2021-08-08T09:16:01Z</time>
      </trkpt>
      <trkpt lat="48.8773" lon="7.43475">
        <ele>278</ele>
        <time>2021-08-08T09:16:02Z</time>
      </trkpt>
      <trkpt lat="48.8773" lon="7.43485">
        <ele>278</ele>
        <time>2021-08-08T09:16:03Z</time>
      </trkpt>
      <trkpt lat="48.8773" lon="7.43485">
        <ele>278</ele>
        <time>2021-08-08T09:16:04Z</time>
      </trkpt>
      <trkpt lat="48.8773" lon="7.43485">
        <ele>278</ele>
        <time>2021-08-08T09:16:05Z</time>
      </trkpt>
      <trkpt lat="48.8773" lon="7.43497">
        <ele>278</ele>
        <time>2021-08-08T09:16:06Z</time>
      </trkpt>
      <trkpt lat="48.8773" lon="7.43497">
        <ele>278</ele>
        <time>2021-08-08T09:16:07Z</time>
      </trkpt>
      <trkpt lat="48.8773" lon="7.43503">
        <ele>279</ele>
        <time>2021-08-08T09:16:08Z</time>
      </trkpt>
      <trkpt lat="48.87732" lon="7.43523">
        <ele>279</ele>
        <time>2021-08-08T09:16:09Z</time>
      </trkpt>
      <trkpt lat="48.87732" lon="7.43523">
        <ele>279</ele>
        <time>2021-08-08T09:16:10Z</time>
      </trkpt>
      <trkpt lat="48.87732" lon="7.4353">
        <ele>279</ele>
        <time>2021-08-08T09:16:11Z</time>
      </trkpt>
      <trkpt lat="48.8773" lon="7.43542">
        <ele>279</ele>
        <time>2021-08-08T09:16:12Z</time>
      </trkpt>
      <trkpt lat="48.8773" lon="7.43542">
        <ele>279</ele>
        <time>2021-08-08T09:16:13Z</time>
      </trkpt>
      <trkpt lat="48.87731" lon="7.43547">
        <ele>280</ele>
        <time>2021-08-08T09:16:14Z</time>
      </trkpt>
      <trkpt lat="48.87731" lon="7.43547">
        <ele>280</ele>
        <time>2021-08-08T09:16:15Z</time>
      </trkpt>
      <trkpt lat="48.87732" lon="7.4356">
        <ele>280</ele>
        <time>2021-08-08T09:16:16Z</time>
      </trkpt>
      <trkpt lat="48.87732" lon="7.4356">
        <ele>280</ele>
        <time>2021-08-08T09:16:17Z</time>
      </trkpt>
      <trkpt lat="48.87732" lon="7.4356">
        <ele>280</ele>
        <time>2021-08-08T09:16:18Z</time>
      </trkpt>
      <trkpt lat="48.87733" lon="7.43576">
        <ele>280</ele>
        <time>2021-08-08T09:16:19Z</time>
      </trkpt>
      <trkpt lat="48.87733" lon="7.43576">
        <ele>280</ele>
        <time>2021-08-08T09:16:20Z</time>
      </trkpt>
      <trkpt lat="48.87733" lon="7.43586">
        <ele>280</ele>
        <time>2021-08-08T09:16:21Z</time>
      </trkpt>
      <trkpt lat="48.87733" lon="7.43586">
        <ele>280</ele>
        <time>2021-08-08T09:16:22Z</time>
      </trkpt>
      <trkpt lat="48.87734" lon="7.43592">
        <ele>280</ele>
        <time>2021-08-08T09:16:23Z</time>
      </trkpt>
      <trkpt lat="48.87735" lon="7.436">
        <ele>280</ele>
        <time>2021-08-08T09:16:24Z</time>
      </trkpt>
      <trkpt lat="48.87735" lon="7.43605">
        <ele>280</ele>
        <time>2021-08-08T09:16:25Z</time>
      </trkpt>
      <trkpt lat="48.87735" lon="7.43605">
        <ele>280</ele>
        <time>2021-08-08T09:16:26Z</time>
      </trkpt>
      <trkpt lat="48.87734" lon="7.43616">
        <ele>280</ele>
        <time>2021-08-08T09:16:27Z</time>
      </trkpt>
      <trkpt lat="48.87736" lon="7.43621">
        <ele>280</ele>
        <time>2021-08-08T09:16:28Z</time>
      </trkpt>
      <trkpt lat="48.87736" lon="7.43621">
        <ele>280</ele>
        <time>2021-08-08T09:16:29Z</time>
      </trkpt>
      <trkpt lat="48.87736" lon="7.43631">
        <ele>281</ele>
        <time>2021-08-08T09:16:30Z</time>
      </trkpt>
      <trkpt lat="48.87736" lon="7.43631">
        <ele>281</ele>
        <time>2021-08-08T09:16:31Z</time>
      </trkpt>
      <trkpt lat="48.87736" lon="7.43635">
        <ele>281</ele>
        <time>2021-08-08T09:16:32Z</time>
      </trkpt>
      <trkpt lat="48.87736" lon="7.43644">
        <ele>281</ele>
        <time>2021-08-08T09:16:33Z</time>
      </trkpt>
      <trkpt lat="48.87736" lon="7.43644">
        <ele>281</ele>
        <time>2021-08-08T09:16:34Z</time>
      </trkpt>
      <trkpt lat="48.87738" lon="7.43655">
        <ele>281</ele>
        <time>2021-08-08T09:16:35Z</time>
      </trkpt>
      <trkpt lat="48.87738" lon="7.43655">
        <ele>281</ele>
        <time>2021-08-08T09:16:36Z</time>
      </trkpt>
      <trkpt lat="48.87738" lon="7.43664">
        <ele>281</ele>
        <time>2021-08-08T09:16:37Z</time>
      </trkpt>
      <trkpt lat="48.87738" lon="7.43664">
        <ele>281</ele>
        <time>2021-08-08T09:16:38Z</time>
      </trkpt>
      <trkpt lat="48.87739" lon="7.43677">
        <ele>281</ele>
        <time>2021-08-08T09:16:39Z</time>
      </trkpt>
      <trkpt lat="48.87739" lon="7.43677">
        <ele>281</ele>
        <time>2021-08-08T09:16:40Z</time>
      </trkpt>
      <trkpt lat="48.87739" lon="7.43677">
        <ele>281</ele>
        <time>2021-08-08T09:16:41Z</time>
      </trkpt>
      <trkpt lat="48.8774" lon="7.43691">
        <ele>281</ele>
        <time>2021-08-08T09:16:42Z</time>
      </trkpt>
      <trkpt lat="48.8774" lon="7.43691">
        <ele>281</ele>
        <time>2021-08-08T09:16:43Z</time>
      </trkpt>
      <trkpt lat="48.87741" lon="7.43704">
        <ele>281</ele>
        <time>2021-08-08T09:16:44Z</time>
      </trkpt>
      <trkpt lat="48.87741" lon="7.43704">
        <ele>281</ele>
        <time>2021-08-08T09:16:45Z</time>
      </trkpt>
      <trkpt lat="48.87741" lon="7.43718">
        <ele>281</ele>
        <time>2021-08-08T09:16:46Z</time>
      </trkpt>
      <trkpt lat="48.87741" lon="7.43718">
        <ele>281</ele>
        <time>2021-08-08T09:16:47Z</time>
      </trkpt>
      <trkpt lat="48.87744" lon="7.43736">
        <ele>281</ele>
        <time>2021-08-08T09:16:48Z</time>
      </trkpt>
      <trkpt lat="48.87747" lon="7.43751">
        <ele>281</ele>
        <time>2021-08-08T09:16:49Z</time>
      </trkpt>
      <trkpt lat="48.87747" lon="7.43751">
        <ele>280</ele>
        <time>2021-08-08T09:16:50Z</time>
      </trkpt>
      <trkpt lat="48.87748" lon="7.43765">
        <ele>280</ele>
        <time>2021-08-08T09:16:51Z</time>
      </trkpt>
      <trkpt lat="48.87748" lon="7.43765">
        <ele>280</ele>
        <time>2021-08-08T09:16:52Z</time>
      </trkpt>
      <trkpt lat="48.87748" lon="7.43765">
        <ele>280</ele>
        <time>2021-08-08T09:16:53Z</time>
      </trkpt>
      <trkpt lat="48.87753" lon="7.43793">
        <ele>279</ele>
        <time>2021-08-08T09:16:54Z</time>
      </trkpt>
      <trkpt lat="48.87753" lon="7.43793">
        <ele>279</ele>
        <time>2021-08-08T09:16:55Z</time>
      </trkpt>
      <trkpt lat="48.87754" lon="7.43801">
        <ele>279</ele>
        <time>2021-08-08T09:16:56Z</time>
      </trkpt>
      <trkpt lat="48.87754" lon="7.43801">
        <ele>279</ele>
        <time>2021-08-08T09:16:57Z</time>
      </trkpt>
      <trkpt lat="48.87758" lon="7.43813">
        <ele>278</ele>
        <time>2021-08-08T09:16:58Z</time>
      </trkpt>
      <trkpt lat="48.87758" lon="7.43813">
        <ele>278</ele>
        <time>2021-08-08T09:16:59Z</time>
      </trkpt>
      <trkpt lat="48.87759" lon="7.43822">
        <ele>278</ele>
        <time>2021-08-08T09:17:00Z</time>
      </trkpt>
      <trkpt lat="48.87759" lon="7.43822">
        <ele>278</ele>
        <time>2021-08-08T09:17:01Z</time>
      </trkpt>
      <trkpt lat="48.8776" lon="7.43831">
        <ele>278</ele>
        <time>2021-08-08T09:17:02Z</time>
      </trkpt>
      <trkpt lat="48.8776" lon="7.43831">
        <ele>277</ele>
        <time>2021-08-08T09:17:03Z</time>
      </trkpt>
      <trkpt lat="48.87763" lon="7.4384">
        <ele>277</ele>
        <time>2021-08-08T09:17:04Z</time>
      </trkpt>
      <trkpt lat="48.87763" lon="7.4384">
        <ele>277</ele>
        <time>2021-08-08T09:17:05Z</time>
      </trkpt>
      <trkpt lat="48.87766" lon="7.4385">
        <ele>277</ele>
        <time>2021-08-08T09:17:06Z</time>
      </trkpt>
      <trkpt lat="48.87769" lon="7.43858">
        <ele>277</ele>
        <time>2021-08-08T09:17:07Z</time>
      </trkpt>
      <trkpt lat="48.87769" lon="7.43858">
        <ele>277</ele>
        <time>2021-08-08T09:17:08Z</time>
      </trkpt>
      <trkpt lat="48.87769" lon="7.43858">
        <ele>277</ele>
        <time>2021-08-08T09:17:09Z</time>
      </trkpt>
      <trkpt lat="48.87774" lon="7.4387">
        <ele>277</ele>
        <time>2021-08-08T09:17:10Z</time>
      </trkpt>
      <trkpt lat="48.87774" lon="7.4387">
        <ele>277</ele>
        <time>2021-08-08T09:17:11Z</time>
      </trkpt>
      <trkpt lat="48.87774" lon="7.4387">
        <ele>277</ele>
        <time>2021-08-08T09:17:12Z</time>
      </trkpt>
      <trkpt lat="48.87781" lon="7.43888">
        <ele>277</ele>
        <time>2021-08-08T09:17:13Z</time>
      </trkpt>
      <trkpt lat="48.87781" lon="7.43888">
        <ele>277</ele>
        <time>2021-08-08T09:17:14Z</time>
      </trkpt>
      <trkpt lat="48.87785" lon="7.43894">
        <ele>277</ele>
        <time>2021-08-08T09:17:15Z</time>
      </trkpt>
      <trkpt lat="48.87785" lon="7.43894">
        <ele>277</ele>
        <time>2021-08-08T09:17:16Z</time>
      </trkpt>
      <trkpt lat="48.87785" lon="7.43894">
        <ele>277</ele>
        <time>2021-08-08T09:17:17Z</time>
      </trkpt>
      <trkpt lat="48.87785" lon="7.43901">
        <ele>277</ele>
        <time>2021-08-08T09:17:18Z</time>
      </trkpt>
      <trkpt lat="48.87785" lon="7.43904">
        <ele>277</ele>
        <time>2021-08-08T09:17:19Z</time>
      </trkpt>
      <trkpt lat="48.87785" lon="7.43904">
        <ele>277</ele>
        <time>2021-08-08T09:17:20Z</time>
      </trkpt>
      <trkpt lat="48.87788" lon="7.43915">
        <ele>277</ele>
        <time>2021-08-08T09:17:21Z</time>
      </trkpt>
      <trkpt lat="48.87788" lon="7.43915">
        <ele>277</ele>
        <time>2021-08-08T09:17:22Z</time>
      </trkpt>
      <trkpt lat="48.87788" lon="7.43915">
        <ele>277</ele>
        <time>2021-08-08T09:17:23Z</time>
      </trkpt>
      <trkpt lat="48.87791" lon="7.4392">
        <ele>277</ele>
        <time>2021-08-08T09:17:24Z</time>
      </trkpt>
      <trkpt lat="48.87791" lon="7.43927">
        <ele>277</ele>
        <time>2021-08-08T09:17:25Z</time>
      </trkpt>
      <trkpt lat="48.87792" lon="7.43931">
        <ele>277</ele>
        <time>2021-08-08T09:17:26Z</time>
      </trkpt>
      <trkpt lat="48.87792" lon="7.43931">
        <ele>277</ele>
        <time>2021-08-08T09:17:27Z</time>
      </trkpt>
      <trkpt lat="48.87792" lon="7.43931">
        <ele>277</ele>
        <time>2021-08-08T09:17:28Z</time>
      </trkpt>
      <trkpt lat="48.87794" lon="7.4394">
        <ele>277</ele>
        <time>2021-08-08T09:17:29Z</time>
      </trkpt>
      <trkpt lat="48.87794" lon="7.4394">
        <ele>277</ele>
        <time>2021-08-08T09:17:30Z</time>
      </trkpt>
      <trkpt lat="48.87796" lon="7.43957">
        <ele>277</ele>
        <time>2021-08-08T09:17:31Z</time>
      </trkpt>
      <trkpt lat="48.87796" lon="7.43957">
        <ele>277</ele>
        <time>2021-08-08T09:17:32Z</time>
      </trkpt>
      <trkpt lat="48.87797" lon="7.43966">
        <ele>276</ele>
        <time>2021-08-08T09:17:33Z</time>
      </trkpt>
      <trkpt lat="48.87798" lon="7.4397">
        <ele>276</ele>
        <time>2021-08-08T09:17:34Z</time>
      </trkpt>
      <trkpt lat="48.87798" lon="7.4397">
        <ele>276</ele>
        <time>2021-08-08T09:17:35Z</time>
      </trkpt>
      <trkpt lat="48.87799" lon="7.43973">
        <ele>276</ele>
        <time>2021-08-08T09:17:36Z</time>
      </trkpt>
      <trkpt lat="48.87802" lon="7.43985">
        <ele>276</ele>
        <time>2021-08-08T09:17:37Z</time>
      </trkpt>
      <trkpt lat="48.87802" lon="7.43985">
        <ele>276</ele>
        <time>2021-08-08T09:17:38Z</time>
      </trkpt>
      <trkpt lat="48.87802" lon="7.43985">
        <ele>276</ele>
        <time>2021-08-08T09:17:39Z</time>
      </trkpt>
      <trkpt lat="48.87804" lon="7.43997">
        <ele>276</ele>
        <time>2021-08-08T09:17:40Z</time>
      </trkpt>
      <trkpt lat="48.87804" lon="7.43997">
        <ele>275</ele>
        <time>2021-08-08T09:17:41Z</time>
      </trkpt>
      <trkpt lat="48.87806" lon="7.44016">
        <ele>275</ele>
        <time>2021-08-08T09:17:42Z</time>
      </trkpt>
      <trkpt lat="48.87806" lon="7.44016">
        <ele>274</ele>
        <time>2021-08-08T09:17:43Z</time>
      </trkpt>
      <trkpt lat="48.87806" lon="7.44023">
        <ele>274</ele>
        <time>2021-08-08T09:17:44Z</time>
      </trkpt>
      <trkpt lat="48.87806" lon="7.44023">
        <ele>274</ele>
        <time>2021-08-08T09:17:45Z</time>
      </trkpt>
      <trkpt lat="48.87808" lon="7.44024">
        <ele>274</ele>
        <time>2021-08-08T09:17:46Z</time>
      </trkpt>
      <trkpt lat="48.87813" lon="7.44021">
        <ele>274</ele>
        <time>2021-08-08T09:17:47Z</time>
      </trkpt>
      <trkpt lat="48.87813" lon="7.44021">
        <ele>274</ele>
        <time>2021-08-08T09:17:48Z</time>
      </trkpt>
      <trkpt lat="48.87817" lon="7.44019">
        <ele>274</ele>
        <time>2021-08-08T09:17:49Z</time>
      </trkpt>
      <trkpt lat="48.87817" lon="7.44019">
        <ele>274</ele>
        <time>2021-08-08T09:17:50Z</time>
      </trkpt>
      <trkpt lat="48.87818" lon="7.44021">
        <ele>274</ele>
        <time>2021-08-08T09:17:51Z</time>
      </trkpt>
      <trkpt lat="48.87819" lon="7.44023">
        <ele>274</ele>
        <time>2021-08-08T09:17:52Z</time>
      </trkpt>
      <trkpt lat="48.8782" lon="7.4403">
        <ele>274</ele>
        <time>2021-08-08T09:17:53Z</time>
      </trkpt>
      <trkpt lat="48.8782" lon="7.4403">
        <ele>274</ele>
        <time>2021-08-08T09:17:54Z</time>
      </trkpt>
      <trkpt lat="48.87818" lon="7.44039">
        <ele>274</ele>
        <time>2021-08-08T09:17:55Z</time>
      </trkpt>
      <trkpt lat="48.87818" lon="7.44039">
        <ele>273</ele>
        <time>2021-08-08T09:17:56Z</time>
      </trkpt>
      <trkpt lat="48.87818" lon="7.44043">
        <ele>273</ele>
        <time>2021-08-08T09:17:57Z</time>
      </trkpt>
      <trkpt lat="48.87818" lon="7.44051">
        <ele>273</ele>
        <time>2021-08-08T09:17:58Z</time>
      </trkpt>
      <trkpt lat="48.87818" lon="7.44051">
        <ele>273</ele>
        <time>2021-08-08T09:17:59Z</time>
      </trkpt>
      <trkpt lat="48.87818" lon="7.44055">
        <ele>273</ele>
        <time>2021-08-08T09:18:00Z</time>
      </trkpt>
      <trkpt lat="48.87818" lon="7.44055">
        <ele>273</ele>
        <time>2021-08-08T09:18:01Z</time>
      </trkpt>
      <trkpt lat="48.87818" lon="7.44067">
        <ele>273</ele>
        <time>2021-08-08T09:18:02Z</time>
      </trkpt>
      <trkpt lat="48.87818" lon="7.44067">
        <ele>273</ele>
        <time>2021-08-08T09:18:03Z</time>
      </trkpt>
      <trkpt lat="48.87818" lon="7.44077">
        <ele>273</ele>
        <time>2021-08-08T09:18:04Z</time>
      </trkpt>
      <trkpt lat="48.8782" lon="7.44089">
        <ele>273</ele>
        <time>2021-08-08T09:18:05Z</time>
      </trkpt>
      <trkpt lat="48.8782" lon="7.44089">
        <ele>273</ele>
        <time>2021-08-08T09:18:06Z</time>
      </trkpt>
      <trkpt lat="48.8782" lon="7.44089">
        <ele>273</ele>
        <time>2021-08-08T09:18:07Z</time>
      </trkpt>
      <trkpt lat="48.87821" lon="7.44101">
        <ele>273</ele>
        <time>2021-08-08T09:18:08Z</time>
      </trkpt>
      <trkpt lat="48.87821" lon="7.44101">
        <ele>273</ele>
        <time>2021-08-08T09:18:09Z</time>
      </trkpt>
      <trkpt lat="48.87822" lon="7.44114">
        <ele>273</ele>
        <time>2021-08-08T09:18:10Z</time>
      </trkpt>
      <trkpt lat="48.87822" lon="7.44114">
        <ele>273</ele>
        <time>2021-08-08T09:18:11Z</time>
      </trkpt>
      <trkpt lat="48.87823" lon="7.44123">
        <ele>273</ele>
        <time>2021-08-08T09:18:12Z</time>
      </trkpt>
      <trkpt lat="48.87823" lon="7.44123">
        <ele>273</ele>
        <time>2021-08-08T09:18:13Z</time>
      </trkpt>
      <trkpt lat="48.87826" lon="7.4414">
        <ele>273</ele>
        <time>2021-08-08T09:18:14Z</time>
      </trkpt>
      <trkpt lat="48.87826" lon="7.4414">
        <ele>273</ele>
        <time>2021-08-08T09:18:15Z</time>
      </trkpt>
      <trkpt lat="48.87826" lon="7.44153">
        <ele>273</ele>
        <time>2021-08-08T09:18:16Z</time>
      </trkpt>
      <trkpt lat="48.87827" lon="7.44166">
        <ele>273</ele>
        <time>2021-08-08T09:18:17Z</time>
      </trkpt>
      <trkpt lat="48.87827" lon="7.44166">
        <ele>273</ele>
        <time>2021-08-08T09:18:18Z</time>
      </trkpt>
      <trkpt lat="48.87827" lon="7.44178">
        <ele>273</ele>
        <time>2021-08-08T09:18:19Z</time>
      </trkpt>
      <trkpt lat="48.87827" lon="7.44178">
        <ele>273</ele>
        <time>2021-08-08T09:18:20Z</time>
      </trkpt>
      <trkpt lat="48.87826" lon="7.44189">
        <ele>273</ele>
        <time>2021-08-08T09:18:21Z</time>
      </trkpt>
      <trkpt lat="48.87826" lon="7.44189">
        <ele>273</ele>
        <time>2021-08-08T09:18:22Z</time>
      </trkpt>
      <trkpt lat="48.87829" lon="7.44206">
        <ele>273</ele>
        <time>2021-08-08T09:18:23Z</time>
      </trkpt>
      <trkpt lat="48.87829" lon="7.44206">
        <ele>273</ele>
        <time>2021-08-08T09:18:24Z</time>
      </trkpt>
      <trkpt lat="48.87831" lon="7.44215">
        <ele>273</ele>
        <time>2021-08-08T09:18:25Z</time>
      </trkpt>
      <trkpt lat="48.87831" lon="7.44215">
        <ele>273</ele>
        <time>2021-08-08T09:18:26Z</time>
      </trkpt>
      <trkpt lat="48.87831" lon="7.44215">
        <ele>273</ele>
        <time>2021-08-08T09:18:27Z</time>
      </trkpt>
      <trkpt lat="48.87834" lon="7.44229">
        <ele>273</ele>
        <time>2021-08-08T09:18:28Z</time>
      </trkpt>
      <trkpt lat="48.87834" lon="7.44229">
        <ele>273</ele>
        <time>2021-08-08T09:18:29Z</time>
      </trkpt>
      <trkpt lat="48.87838" lon="7.44242">
        <ele>273</ele>
        <time>2021-08-08T09:18:30Z</time>
      </trkpt>
      <trkpt lat="48.87838" lon="7.44242">
        <ele>273</ele>
        <time>2021-08-08T09:18:31Z</time>
      </trkpt>
      <trkpt lat="48.8784" lon="7.44251">
        <ele>273</ele>
        <time>2021-08-08T09:18:32Z</time>
      </trkpt>
      <trkpt lat="48.8784" lon="7.44251">
        <ele>274</ele>
        <time>2021-08-08T09:18:33Z</time>
      </trkpt>
      <trkpt lat="48.87844" lon="7.44261">
        <ele>274</ele>
        <time>2021-08-08T09:18:34Z</time>
      </trkpt>
      <trkpt lat="48.87844" lon="7.44261">
        <ele>274</ele>
        <time>2021-08-08T09:18:35Z</time>
      </trkpt>
      <trkpt lat="48.87848" lon="7.4427">
        <ele>274</ele>
        <time>2021-08-08T09:18:36Z</time>
      </trkpt>
      <trkpt lat="48.87848" lon="7.4427">
        <ele>275</ele>
        <time>2021-08-08T09:18:37Z</time>
      </trkpt>
      <trkpt lat="48.87851" lon="7.44278">
        <ele>275</ele>
        <time>2021-08-08T09:18:38Z</time>
      </trkpt>
      <trkpt lat="48.87851" lon="7.44278">
        <ele>275</ele>
        <time>2021-08-08T09:18:39Z</time>
      </trkpt>
      <trkpt lat="48.87856" lon="7.4429">
        <ele>275</ele>
        <time>2021-08-08T09:18:40Z</time>
      </trkpt>
      <trkpt lat="48.87858" lon="7.44296">
        <ele>275</ele>
        <time>2021-08-08T09:18:41Z</time>
      </trkpt>
      <trkpt lat="48.87858" lon="7.44296">
        <ele>275</ele>
        <time>2021-08-08T09:18:42Z</time>
      </trkpt>
      <trkpt lat="48.87861" lon="7.44305">
        <ele>276</ele>
        <time>2021-08-08T09:18:43Z</time>
      </trkpt>
      <trkpt lat="48.87861" lon="7.44305">
        <ele>276</ele>
        <time>2021-08-08T09:18:44Z</time>
      </trkpt>
      <trkpt lat="48.87861" lon="7.44305">
        <ele>276</ele>
        <time>2021-08-08T09:18:45Z</time>
      </trkpt>
      <trkpt lat="48.87866" lon="7.44315">
        <ele>276</ele>
        <time>2021-08-08T09:18:46Z</time>
      </trkpt>
      <trkpt lat="48.87866" lon="7.44315">
        <ele>276</ele>
        <time>2021-08-08T09:18:47Z</time>
      </trkpt>
      <trkpt lat="48.87876" lon="7.44333">
        <ele>276</ele>
        <time>2021-08-08T09:18:48Z</time>
      </trkpt>
      <trkpt lat="48.87876" lon="7.44333">
        <ele>276</ele>
        <time>2021-08-08T09:18:49Z</time>
      </trkpt>
      <trkpt lat="48.87882" lon="7.44347">
        <ele>276</ele>
        <time>2021-08-08T09:18:50Z</time>
      </trkpt>
      <trkpt lat="48.87882" lon="7.44347">
        <ele>276</ele>
        <time>2021-08-08T09:18:51Z</time>
      </trkpt>
      <trkpt lat="48.87888" lon="7.44362">
        <ele>276</ele>
        <time>2021-08-08T09:18:52Z</time>
      </trkpt>
      <trkpt lat="48.87888" lon="7.44369">
        <ele>276</ele>
        <time>2021-08-08T09:18:53Z</time>
      </trkpt>
      <trkpt lat="48.87888" lon="7.44369">
        <ele>276</ele>
        <time>2021-08-08T09:18:54Z</time>
      </trkpt>
      <trkpt lat="48.8789" lon="7.44391">
        <ele>276</ele>
        <time>2021-08-08T09:18:55Z</time>
      </trkpt>
      <trkpt lat="48.8789" lon="7.44391">
        <ele>276</ele>
        <time>2021-08-08T09:18:56Z</time>
      </trkpt>
      <trkpt lat="48.8789" lon="7.44391">
        <ele>276</ele>
        <time>2021-08-08T09:18:57Z</time>
      </trkpt>
      <trkpt lat="48.87893" lon="7.44406">
        <ele>276</ele>
        <time>2021-08-08T09:18:58Z</time>
      </trkpt>
      <trkpt lat="48.87893" lon="7.44406">
        <ele>276</ele>
        <time>2021-08-08T09:18:59Z</time>
      </trkpt>
      <trkpt lat="48.87896" lon="7.44421">
        <ele>276</ele>
        <time>2021-08-08T09:19:00Z</time>
      </trkpt>
      <trkpt lat="48.87896" lon="7.44421">
        <ele>274</ele>
        <time>2021-08-08T09:19:01Z</time>
      </trkpt>
      <trkpt lat="48.87896" lon="7.44434">
        <ele>274</ele>
        <time>2021-08-08T09:19:02Z</time>
      </trkpt>
      <trkpt lat="48.87896" lon="7.44434">
        <ele>274</ele>
        <time>2021-08-08T09:19:03Z</time>
      </trkpt>
      <trkpt lat="48.87898" lon="7.44447">
        <ele>274</ele>
        <time>2021-08-08T09:19:04Z</time>
      </trkpt>
      <trkpt lat="48.87898" lon="7.4446">
        <ele>274</ele>
        <time>2021-08-08T09:19:05Z</time>
      </trkpt>
      <trkpt lat="48.87898" lon="7.4446">
        <ele>274</ele>
        <time>2021-08-08T09:19:06Z</time>
      </trkpt>
      <trkpt lat="48.87896" lon="7.44478">
        <ele>274</ele>
        <time>2021-08-08T09:19:07Z</time>
      </trkpt>
      <trkpt lat="48.87896" lon="7.44478">
        <ele>274</ele>
        <time>2021-08-08T09:19:08Z</time>
      </trkpt>
      <trkpt lat="48.87896" lon="7.44478">
        <ele>274</ele>
        <time>2021-08-08T09:19:09Z</time>
      </trkpt>
      <trkpt lat="48.87892" lon="7.44499">
        <ele>274</ele>
        <time>2021-08-08T09:19:10Z</time>
      </trkpt>
      <trkpt lat="48.87892" lon="7.44499">
        <ele>274</ele>
        <time>2021-08-08T09:19:11Z</time>
      </trkpt>
      <trkpt lat="48.87891" lon="7.44507">
        <ele>273</ele>
        <time>2021-08-08T09:19:12Z</time>
      </trkpt>
      <trkpt lat="48.87887" lon="7.44527">
        <ele>273</ele>
        <time>2021-08-08T09:19:13Z</time>
      </trkpt>
      <trkpt lat="48.87887" lon="7.44527">
        <ele>273</ele>
        <time>2021-08-08T09:19:14Z</time>
      </trkpt>
      <trkpt lat="48.87887" lon="7.44527">
        <ele>273</ele>
        <time>2021-08-08T09:19:15Z</time>
      </trkpt>
      <trkpt lat="48.87882" lon="7.44553">
        <ele>271</ele>
        <time>2021-08-08T09:19:16Z</time>
      </trkpt>
      <trkpt lat="48.87882" lon="7.44553">
        <ele>271</ele>
        <time>2021-08-08T09:19:17Z</time>
      </trkpt>
      <trkpt lat="48.87878" lon="7.44574">
        <ele>270</ele>
        <time>2021-08-08T09:19:18Z</time>
      </trkpt>
      <trkpt lat="48.87881" lon="7.44593">
        <ele>270</ele>
        <time>2021-08-08T09:19:19Z</time>
      </trkpt>
      <trkpt lat="48.87881" lon="7.44593">
        <ele>269</ele>
        <time>2021-08-08T09:19:20Z</time>
      </trkpt>
      <trkpt lat="48.87881" lon="7.44593">
        <ele>269</ele>
        <time>2021-08-08T09:19:21Z</time>
      </trkpt>
      <trkpt lat="48.87886" lon="7.44611">
        <ele>269</ele>
        <time>2021-08-08T09:19:22Z</time>
      </trkpt>
      <trkpt lat="48.87886" lon="7.44611">
        <ele>269</ele>
        <time>2021-08-08T09:19:23Z</time>
      </trkpt>
      <trkpt lat="48.8789" lon="7.44631">
        <ele>269</ele>
        <time>2021-08-08T09:19:24Z</time>
      </trkpt>
      <trkpt lat="48.87896" lon="7.44651">
        <ele>269</ele>
        <time>2021-08-08T09:19:25Z</time>
      </trkpt>
      <trkpt lat="48.87896" lon="7.44651">
        <ele>268</ele>
        <time>2021-08-08T09:19:26Z</time>
      </trkpt>
      <trkpt lat="48.87904" lon="7.44675">
        <ele>268</ele>
        <time>2021-08-08T09:19:27Z</time>
      </trkpt>
      <trkpt lat="48.87904" lon="7.44675">
        <ele>267</ele>
        <time>2021-08-08T09:19:28Z</time>
      </trkpt>
      <trkpt lat="48.87908" lon="7.44686">
        <ele>267</ele>
        <time>2021-08-08T09:19:29Z</time>
      </trkpt>
      <trkpt lat="48.87908" lon="7.44686">
        <ele>266</ele>
        <time>2021-08-08T09:19:30Z</time>
      </trkpt>
      <trkpt lat="48.87918" lon="7.44722">
        <ele>266</ele>
        <time>2021-08-08T09:19:31Z</time>
      </trkpt>
      <trkpt lat="48.87918" lon="7.44722">
        <ele>265</ele>
        <time>2021-08-08T09:19:32Z</time>
      </trkpt>
      <trkpt lat="48.87918" lon="7.44722">
        <ele>265</ele>
        <time>2021-08-08T09:19:33Z</time>
      </trkpt>
      <trkpt lat="48.87923" lon="7.44753">
        <ele>265</ele>
        <time>2021-08-08T09:19:34Z</time>
      </trkpt>
      <trkpt lat="48.87923" lon="7.44753">
        <ele>265</ele>
        <time>2021-08-08T09:19:35Z</time>
      </trkpt>
      <trkpt lat="48.87924" lon="7.44761">
        <ele>264</ele>
        <time>2021-08-08T09:19:36Z</time>
      </trkpt>
      <trkpt lat="48.87924" lon="7.44761">
        <ele>264</ele>
        <time>2021-08-08T09:19:37Z</time>
      </trkpt>
      <trkpt lat="48.87925" lon="7.44775">
        <ele>264</ele>
        <time>2021-08-08T09:19:38Z</time>
      </trkpt>
      <trkpt lat="48.87925" lon="7.44775">
        <ele>264</ele>
        <time>2021-08-08T09:19:39Z</time>
      </trkpt>
      <trkpt lat="48.87926" lon="7.44784">
        <ele>264</ele>
        <time>2021-08-08T09:19:40Z</time>
      </trkpt>
      <trkpt lat="48.87926" lon="7.44784">
        <ele>264</ele>
        <time>2021-08-08T09:19:41Z</time>
      </trkpt>
      <trkpt lat="48.87928" lon="7.44792">
        <ele>264</ele>
        <time>2021-08-08T09:19:42Z</time>
      </trkpt>
      <trkpt lat="48.87928" lon="7.44792">
        <ele>264</ele>
        <time>2021-08-08T09:19:43Z</time>
      </trkpt>
      <trkpt lat="48.87933" lon="7.44803">
        <ele>264</ele>
        <time>2021-08-08T09:19:44Z</time>
      </trkpt>
      <trkpt lat="48.87938" lon="7.44817">
        <ele>264</ele>
        <time>2021-08-08T09:19:45Z</time>
      </trkpt>
      <trkpt lat="48.87938" lon="7.44817">
        <ele>264</ele>
        <time>2021-08-08T09:19:46Z</time>
      </trkpt>
      <trkpt lat="48.87938" lon="7.44817">
        <ele>263</ele>
        <time>2021-08-08T09:19:47Z</time>
      </trkpt>
      <trkpt lat="48.87942" lon="7.44832">
        <ele>263</ele>
        <time>2021-08-08T09:19:48Z</time>
      </trkpt>
      <trkpt lat="48.87942" lon="7.44832">
        <ele>262</ele>
        <time>2021-08-08T09:19:49Z</time>
      </trkpt>
      <trkpt lat="48.87945" lon="7.44849">
        <ele>262</ele>
        <time>2021-08-08T09:19:50Z</time>
      </trkpt>
      <trkpt lat="48.87945" lon="7.44849">
        <ele>262</ele>
        <time>2021-08-08T09:19:51Z</time>
      </trkpt>
      <trkpt lat="48.87944" lon="7.44868">
        <ele>262</ele>
        <time>2021-08-08T09:19:52Z</time>
      </trkpt>
      <trkpt lat="48.87944" lon="7.44868">
        <ele>261</ele>
        <time>2021-08-08T09:19:53Z</time>
      </trkpt>
      <trkpt lat="48.87941" lon="7.44881">
        <ele>261</ele>
        <time>2021-08-08T09:19:54Z</time>
      </trkpt>
      <trkpt lat="48.87941" lon="7.44881">
        <ele>261</ele>
        <time>2021-08-08T09:19:55Z</time>
      </trkpt>
      <trkpt lat="48.87939" lon="7.4489">
        <ele>261</ele>
        <time>2021-08-08T09:19:56Z</time>
      </trkpt>
      <trkpt lat="48.87939" lon="7.4489">
        <ele>261</ele>
        <time>2021-08-08T09:19:57Z</time>
      </trkpt>
      <trkpt lat="48.87941" lon="7.44903">
        <ele>261</ele>
        <time>2021-08-08T09:19:58Z</time>
      </trkpt>
      <trkpt lat="48.87941" lon="7.44903">
        <ele>261</ele>
        <time>2021-08-08T09:19:59Z</time>
      </trkpt>
      <trkpt lat="48.87942" lon="7.44906">
        <ele>261</ele>
        <time>2021-08-08T09:20:00Z</time>
      </trkpt>
      <trkpt lat="48.87942" lon="7.44906">
        <ele>261</ele>
        <time>2021-08-08T09:20:01Z</time>
      </trkpt>
      <trkpt lat="48.87945" lon="7.44918">
        <ele>261</ele>
        <time>2021-08-08T09:20:02Z</time>
      </trkpt>
      <trkpt lat="48.87945" lon="7.44918">
        <ele>261</ele>
        <time>2021-08-08T09:20:03Z</time>
      </trkpt>
      <trkpt lat="48.87949" lon="7.44932">
        <ele>261</ele>
        <time>2021-08-08T09:20:04Z</time>
      </trkpt>
      <trkpt lat="48.87949" lon="7.44932">
        <ele>261</ele>
        <time>2021-08-08T09:20:05Z</time>
      </trkpt>
      <trkpt lat="48.87952" lon="7.44947">
        <ele>261</ele>
        <time>2021-08-08T09:20:06Z</time>
      </trkpt>
      <trkpt lat="48.87952" lon="7.44947">
        <ele>260</ele>
        <time>2021-08-08T09:20:07Z</time>
      </trkpt>
      <trkpt lat="48.87953" lon="7.44959">
        <ele>260</ele>
        <time>2021-08-08T09:20:08Z</time>
      </trkpt>
      <trkpt lat="48.87953" lon="7.44959">
        <ele>259</ele>
        <time>2021-08-08T09:20:09Z</time>
      </trkpt>
      <trkpt lat="48.87957" lon="7.44975">
        <ele>259</ele>
        <time>2021-08-08T09:20:10Z</time>
      </trkpt>
      <trkpt lat="48.87957" lon="7.44975">
        <ele>259</ele>
        <time>2021-08-08T09:20:11Z</time>
      </trkpt>
      <trkpt lat="48.87962" lon="7.44994">
        <ele>258</ele>
        <time>2021-08-08T09:20:12Z</time>
      </trkpt>
      <trkpt lat="48.87962" lon="7.44994">
        <ele>258</ele>
        <time>2021-08-08T09:20:13Z</time>
      </trkpt>
      <trkpt lat="48.87968" lon="7.45015">
        <ele>257</ele>
        <time>2021-08-08T09:20:14Z</time>
      </trkpt>
      <trkpt lat="48.87976" lon="7.45033">
        <ele>257</ele>
        <time>2021-08-08T09:20:15Z</time>
      </trkpt>
      <trkpt lat="48.87976" lon="7.45033">
        <ele>256</ele>
        <time>2021-08-08T09:20:16Z</time>
      </trkpt>
      <trkpt lat="48.87984" lon="7.45051">
        <ele>256</ele>
        <time>2021-08-08T09:20:17Z</time>
      </trkpt>
      <trkpt lat="48.87984" lon="7.45051">
        <ele>255</ele>
        <time>2021-08-08T09:20:18Z</time>
      </trkpt>
      <trkpt lat="48.87991" lon="7.4507">
        <ele>255</ele>
        <time>2021-08-08T09:20:19Z</time>
      </trkpt>
      <trkpt lat="48.87991" lon="7.4507">
        <ele>254</ele>
        <time>2021-08-08T09:20:20Z</time>
      </trkpt>
      <trkpt lat="48.87991" lon="7.4507">
        <ele>254</ele>
        <time>2021-08-08T09:20:21Z</time>
      </trkpt>
      <trkpt lat="48.87997" lon="7.45096">
        <ele>252</ele>
        <time>2021-08-08T09:20:22Z</time>
      </trkpt>
      <trkpt lat="48.87997" lon="7.45096">
        <ele>252</ele>
        <time>2021-08-08T09:20:23Z</time>
      </trkpt>
      <trkpt lat="48.88" lon="7.45113">
        <ele>251</ele>
        <time>2021-08-08T09:20:24Z</time>
      </trkpt>
      <trkpt lat="48.88002" lon="7.45121">
        <ele>251</ele>
        <time>2021-08-08T09:20:25Z</time>
      </trkpt>
      <trkpt lat="48.88002" lon="7.45121">
        <ele>249</ele>
        <time>2021-08-08T09:20:26Z</time>
      </trkpt>
      <trkpt lat="48.88002" lon="7.45121">
        <ele>249</ele>
        <time>2021-08-08T09:20:27Z</time>
      </trkpt>
      <trkpt lat="48.88004" lon="7.45134">
        <ele>248</ele>
        <time>2021-08-08T09:20:28Z</time>
      </trkpt>
      <trkpt lat="48.88007" lon="7.45146">
        <ele>248</ele>
        <time>2021-08-08T09:20:29Z</time>
      </trkpt>
      <trkpt lat="48.88007" lon="7.45146">
        <ele>246</ele>
        <time>2021-08-08T09:20:30Z</time>
      </trkpt>
      <trkpt lat="48.88007" lon="7.45146">
        <ele>246</ele>
        <time>2021-08-08T09:20:31Z</time>
      </trkpt>
      <trkpt lat="48.8801" lon="7.45159">
        <ele>245</ele>
        <time>2021-08-08T09:20:32Z</time>
      </trkpt>
      <trkpt lat="48.8801" lon="7.45159">
        <ele>245</ele>
        <time>2021-08-08T09:20:33Z</time>
      </trkpt>
      <trkpt lat="48.88014" lon="7.4517">
        <ele>244</ele>
        <time>2021-08-08T09:20:34Z</time>
      </trkpt>
      <trkpt lat="48.88017" lon="7.45178">
        <ele>244</ele>
        <time>2021-08-08T09:20:35Z</time>
      </trkpt>
      <trkpt lat="48.88017" lon="7.45178">
        <ele>243</ele>
        <time>2021-08-08T09:20:36Z</time>
      </trkpt>
      <trkpt lat="48.88019" lon="7.45184">
        <ele>243</ele>
        <time>2021-08-08T09:20:37Z</time>
      </trkpt>
      <trkpt lat="48.88019" lon="7.45184">
        <ele>242</ele>
        <time>2021-08-08T09:20:38Z</time>
      </trkpt>
      <trkpt lat="48.88019" lon="7.45184">
        <ele>242</ele>
        <time>2021-08-08T09:20:39Z</time>
      </trkpt>
      <trkpt lat="48.88018" lon="7.45193">
        <ele>241</ele>
        <time>2021-08-08T09:20:40Z</time>
      </trkpt>
      <trkpt lat="48.88018" lon="7.45198">
        <ele>240</ele>
        <time>2021-08-08T09:20:41Z</time>
      </trkpt>
      <trkpt lat="48.88018" lon="7.45198">
        <ele>240</ele>
        <time>2021-08-08T09:20:42Z</time>
      </trkpt>
      <trkpt lat="48.88021" lon="7.4521">
        <ele>239</ele>
        <time>2021-08-08T09:20:43Z</time>
      </trkpt>
      <trkpt lat="48.88021" lon="7.4521">
        <ele>239</ele>
        <time>2021-08-08T09:20:44Z</time>
      </trkpt>
      <trkpt lat="48.88021" lon="7.4521">
        <ele>238</ele>
        <time>2021-08-08T09:20:45Z</time>
      </trkpt>
      <trkpt lat="48.88024" lon="7.45219">
        <ele>238</ele>
        <time>2021-08-08T09:20:46Z</time>
      </trkpt>
      <trkpt lat="48.88024" lon="7.45219">
        <ele>236</ele>
        <time>2021-08-08T09:20:47Z</time>
      </trkpt>
      <trkpt lat="48.88029" lon="7.45238">
        <ele>236</ele>
        <time>2021-08-08T09:20:48Z</time>
      </trkpt>
      <trkpt lat="48.88029" lon="7.45238">
        <ele>234</ele>
        <time>2021-08-08T09:20:49Z</time>
      </trkpt>
      <trkpt lat="48.88031" lon="7.45244">
        <ele>234</ele>
        <time>2021-08-08T09:20:50Z</time>
      </trkpt>
      <trkpt lat="48.88031" lon="7.45244">
        <ele>233</ele>
        <time>2021-08-08T09:20:51Z</time>
      </trkpt>
      <trkpt lat="48.88039" lon="7.45257">
        <ele>233</ele>
        <time>2021-08-08T09:20:52Z</time>
      </trkpt>
      <trkpt lat="48.88039" lon="7.45257">
        <ele>231</ele>
        <time>2021-08-08T09:20:53Z</time>
      </trkpt>
      <trkpt lat="48.88045" lon="7.45265">
        <ele>231</ele>
        <time>2021-08-08T09:20:54Z</time>
      </trkpt>
      <trkpt lat="48.88045" lon="7.45265">
        <ele>230</ele>
        <time>2021-08-08T09:20:55Z</time>
      </trkpt>
      <trkpt lat="48.88045" lon="7.45265">
        <ele>230</ele>
        <time>2021-08-08T09:20:56Z</time>
      </trkpt>
      <trkpt lat="48.88051" lon="7.45272">
        <ele>228</ele>
        <time>2021-08-08T09:20:57Z</time>
      </trkpt>
      <trkpt lat="48.88055" lon="7.45278">
        <ele>228</ele>
        <time>2021-08-08T09:20:58Z</time>
      </trkpt>
      <trkpt lat="48.88055" lon="7.45278">
        <ele>226</ele>
        <time>2021-08-08T09:20:59Z</time>
      </trkpt>
      <trkpt lat="48.88057" lon="7.45281">
        <ele>226</ele>
        <time>2021-08-08T09:21:00Z</time>
      </trkpt>
      <trkpt lat="48.88057" lon="7.45292">
        <ele>225</ele>
        <time>2021-08-08T09:21:01Z</time>
      </trkpt>
      <trkpt lat="48.88057" lon="7.45292">
        <ele>225</ele>
        <time>2021-08-08T09:21:02Z</time>
      </trkpt>
      <trkpt lat="48.88057" lon="7.45292">
        <ele>223</ele>
        <time>2021-08-08T09:21:03Z</time>
      </trkpt>
      <trkpt lat="48.88056" lon="7.45306">
        <ele>223</ele>
        <time>2021-08-08T09:21:04Z</time>
      </trkpt>
      <trkpt lat="48.88057" lon="7.4532">
        <ele>222</ele>
        <time>2021-08-08T09:21:05Z</time>
      </trkpt>
      <trkpt lat="48.88057" lon="7.4532">
        <ele>222</ele>
        <time>2021-08-08T09:21:06Z</time>
      </trkpt>
      <trkpt lat="48.88057" lon="7.4532">
        <ele>220</ele>
        <time>2021-08-08T09:21:07Z</time>
      </trkpt>
      <trkpt lat="48.88056" lon="7.45333">
        <ele>220</ele>
        <time>2021-08-08T09:21:08Z</time>
      </trkpt>
      <trkpt lat="48.88057" lon="7.45346">
        <ele>219</ele>
        <time>2021-08-08T09:21:09Z</time>
      </trkpt>
      <trkpt lat="48.88057" lon="7.45346">
        <ele>219</ele>
        <time>2021-08-08T09:21:10Z</time>
      </trkpt>
      <trkpt lat="48.88057" lon="7.45346">
        <ele>218</ele>
        <time>2021-08-08T09:21:11Z</time>
      </trkpt>
      <trkpt lat="48.88051" lon="7.45355">
        <ele>218</ele>
        <time>2021-08-08T09:21:12Z</time>
      </trkpt>
      <trkpt lat="48.88051" lon="7.45355">
        <ele>217</ele>
        <time>2021-08-08T09:21:13Z</time>
      </trkpt>
      <trkpt lat="48.88045" lon="7.45355">
        <ele>217</ele>
        <time>2021-08-08T09:21:14Z</time>
      </trkpt>
      <trkpt lat="48.88045" lon="7.45355">
        <ele>216</ele>
        <time>2021-08-08T09:21:15Z</time>
      </trkpt>
      <trkpt lat="48.88044" lon="7.45354">
        <ele>216</ele>
        <time>2021-08-08T09:21:16Z</time>
      </trkpt>
      <trkpt lat="48.88035" lon="7.45356">
        <ele>215</ele>
        <time>2021-08-08T09:21:17Z</time>
      </trkpt>
      <trkpt lat="48.88033" lon="7.4536">
        <ele>215</ele>
        <time>2021-08-08T09:21:18Z</time>
      </trkpt>
      <trkpt lat="48.88033" lon="7.4536">
        <ele>214</ele>
        <time>2021-08-08T09:21:19Z</time>
      </trkpt>
      <trkpt lat="48.8803" lon="7.45363">
        <ele>214</ele>
        <time>2021-08-08T09:21:20Z</time>
      </trkpt>
      <trkpt lat="48.88021" lon="7.45362">
        <ele>213</ele>
        <time>2021-08-08T09:21:21Z</time>
      </trkpt>
      <trkpt lat="48.88021" lon="7.45362">
        <ele>213</ele>
        <time>2021-08-08T09:21:22Z</time>
      </trkpt>
      <trkpt lat="48.88021" lon="7.45362">
        <ele>212</ele>
        <time>2021-08-08T09:21:23Z</time>
      </trkpt>
      <trkpt lat="48.88015" lon="7.4536">
        <ele>212</ele>
        <time>2021-08-08T09:21:24Z</time>
      </trkpt>
      <trkpt lat="48.88015" lon="7.4536">
        <ele>211</ele>
        <time>2021-08-08T09:21:25Z</time>
      </trkpt>
      <trkpt lat="48.88009" lon="7.45365">
        <ele>211</ele>
        <time>2021-08-08T09:21:26Z</time>
      </trkpt>
      <trkpt lat="48.88009" lon="7.45365">
        <ele>210</ele>
        <time>2021-08-08T09:21:27Z</time>
      </trkpt>
      <trkpt lat="48.88009" lon="7.45365">
        <ele>210</ele>
        <time>2021-08-08T09:21:28Z</time>
      </trkpt>
      <trkpt lat="48.88006" lon="7.45378">
        <ele>209</ele>
        <time>2021-08-08T09:21:29Z</time>
      </trkpt>
      <trkpt lat="48.88006" lon="7.45378">
        <ele>209</ele>
        <time>2021-08-08T09:21:30Z</time>
      </trkpt>
      <trkpt lat="48.88006" lon="7.45378">
        <ele>208</ele>
        <time>2021-08-08T09:21:31Z</time>
      </trkpt>
      <trkpt lat="48.88" lon="7.4539">
        <ele>208</ele>
        <time>2021-08-08T09:21:32Z</time>
      </trkpt>
      <trkpt lat="48.87992" lon="7.45399">
        <ele>208</ele>
        <time>2021-08-08T09:21:33Z</time>
      </trkpt>
      <trkpt lat="48.87992" lon="7.45399">
        <ele>208</ele>
        <time>2021-08-08T09:21:34Z</time>
      </trkpt>
      <trkpt lat="48.87989" lon="7.45413">
        <ele>207</ele>
        <time>2021-08-08T09:21:35Z</time>
      </trkpt>
      <trkpt lat="48.87989" lon="7.45413">
        <ele>207</ele>
        <time>2021-08-08T09:21:36Z</time>
      </trkpt>
      <trkpt lat="48.87988" lon="7.45421">
        <ele>207</ele>
        <time>2021-08-08T09:21:37Z</time>
      </trkpt>
      <trkpt lat="48.87984" lon="7.45429">
        <ele>206</ele>
        <time>2021-08-08T09:21:38Z</time>
      </trkpt>
      <trkpt lat="48.87984" lon="7.45429">
        <ele>206</ele>
        <time>2021-08-08T09:21:39Z</time>
      </trkpt>
      <trkpt lat="48.87975" lon="7.45453">
        <ele>206</ele>
        <time>2021-08-08T09:21:40Z</time>
      </trkpt>
      <trkpt lat="48.87975" lon="7.45453">
        <ele>206</ele>
        <time>2021-08-08T09:21:41Z</time>
      </trkpt>
      <trkpt lat="48.87964" lon="7.45468">
        <ele>205</ele>
        <time>2021-08-08T09:21:42Z</time>
      </trkpt>
      <trkpt lat="48.87964" lon="7.45468">
        <ele>205</ele>
        <time>2021-08-08T09:21:43Z</time>
      </trkpt>
      <trkpt lat="48.87964" lon="7.45468">
        <ele>204</ele>
        <time>2021-08-08T09:21:44Z</time>
      </trkpt>
      <trkpt lat="48.8795" lon="7.45484">
        <ele>204</ele>
        <time>2021-08-08T09:21:45Z</time>
      </trkpt>
      <trkpt lat="48.87943" lon="7.45492">
        <ele>203</ele>
        <time>2021-08-08T09:21:46Z</time>
      </trkpt>
      <trkpt lat="48.87927" lon="7.45509">
        <ele>203</ele>
        <time>2021-08-08T09:21:47Z</time>
      </trkpt>
      <trkpt lat="48.87927" lon="7.45509">
        <ele>201</ele>
        <time>2021-08-08T09:21:48Z</time>
      </trkpt>
      <trkpt lat="48.87911" lon="7.45526">
        <ele>201</ele>
        <time>2021-08-08T09:21:49Z</time>
      </trkpt>
      <trkpt lat="48.87911" lon="7.45526">
        <ele>200</ele>
        <time>2021-08-08T09:21:50Z</time>
      </trkpt>
      <trkpt lat="48.87911" lon="7.45526">
        <ele>200</ele>
        <time>2021-08-08T09:21:51Z</time>
      </trkpt>
      <trkpt lat="48.87894" lon="7.45544">
        <ele>198</ele>
        <time>2021-08-08T09:21:52Z</time>
      </trkpt>
      <trkpt lat="48.87894" lon="7.45544">
        <ele>198</ele>
        <time>2021-08-08T09:21:53Z</time>
      </trkpt>
      <trkpt lat="48.87876" lon="7.45563">
        <ele>197</ele>
        <time>2021-08-08T09:21:54Z</time>
      </trkpt>
      <trkpt lat="48.87876" lon="7.45563">
        <ele>197</ele>
        <time>2021-08-08T09:21:55Z</time>
      </trkpt>
      <trkpt lat="48.87849" lon="7.45592">
        <ele>195</ele>
        <time>2021-08-08T09:21:56Z</time>
      </trkpt>
      <trkpt lat="48.87849" lon="7.45592">
        <ele>195</ele>
        <time>2021-08-08T09:21:57Z</time>
      </trkpt>
      <trkpt lat="48.8784" lon="7.45602">
        <ele>194</ele>
        <time>2021-08-08T09:21:58Z</time>
      </trkpt>
      <trkpt lat="48.8784" lon="7.45602">
        <ele>194</ele>
        <time>2021-08-08T09:21:59Z</time>
      </trkpt>
      <trkpt lat="48.87824" lon="7.45624">
        <ele>193</ele>
        <time>2021-08-08T09:22:00Z</time>
      </trkpt>
      <trkpt lat="48.87824" lon="7.45624">
        <ele>193</ele>
        <time>2021-08-08T09:22:01Z</time>
      </trkpt>
      <trkpt lat="48.87808" lon="7.45647">
        <ele>191</ele>
        <time>2021-08-08T09:22:02Z</time>
      </trkpt>
      <trkpt lat="48.87808" lon="7.45647">
        <ele>191</ele>
        <time>2021-08-08T09:22:03Z</time>
      </trkpt>
      <trkpt lat="48.87794" lon="7.4567">
        <ele>190</ele>
        <time>2021-08-08T09:22:04Z</time>
      </trkpt>
      <trkpt lat="48.87794" lon="7.4567">
        <ele>190</ele>
        <time>2021-08-08T09:22:05Z</time>
      </trkpt>
      <trkpt lat="48.87781" lon="7.45691">
        <ele>190</ele>
        <time>2021-08-08T09:22:06Z</time>
      </trkpt>
      <trkpt lat="48.87781" lon="7.45691">
        <ele>190</ele>
        <time>2021-08-08T09:22:07Z</time>
      </trkpt>
      <trkpt lat="48.87768" lon="7.45711">
        <ele>189</ele>
        <time>2021-08-08T09:22:08Z</time>
      </trkpt>
      <trkpt lat="48.87768" lon="7.45711">
        <ele>189</ele>
        <time>2021-08-08T09:22:09Z</time>
      </trkpt>
      <trkpt lat="48.87751" lon="7.45739">
        <ele>189</ele>
        <time>2021-08-08T09:22:10Z</time>
      </trkpt>
      <trkpt lat="48.87751" lon="7.45739">
        <ele>188</ele>
        <time>2021-08-08T09:22:11Z</time>
      </trkpt>
      <trkpt lat="48.87745" lon="7.45747">
        <ele>188</ele>
        <time>2021-08-08T09:22:12Z</time>
      </trkpt>
      <trkpt lat="48.87739" lon="7.45756">
        <ele>188</ele>
        <time>2021-08-08T09:22:13Z</time>
      </trkpt>
      <trkpt lat="48.87728" lon="7.45775">
        <ele>188</ele>
        <time>2021-08-08T09:22:14Z</time>
      </trkpt>
      <trkpt lat="48.87728" lon="7.45775">
        <ele>188</ele>
        <time>2021-08-08T09:22:15Z</time>
      </trkpt>
      <trkpt lat="48.87718" lon="7.45793">
        <ele>187</ele>
        <time>2021-08-08T09:22:16Z</time>
      </trkpt>
      <trkpt lat="48.87718" lon="7.45793">
        <ele>187</ele>
        <time>2021-08-08T09:22:17Z</time>
      </trkpt>
      <trkpt lat="48.87718" lon="7.45793">
        <ele>187</ele>
        <time>2021-08-08T09:22:18Z</time>
      </trkpt>
      <trkpt lat="48.87704" lon="7.45816">
        <ele>187</ele>
        <time>2021-08-08T09:22:19Z</time>
      </trkpt>
      <trkpt lat="48.87704" lon="7.45816">
        <ele>187</ele>
        <time>2021-08-08T09:22:20Z</time>
      </trkpt>
      <trkpt lat="48.87697" lon="7.45829">
        <ele>187</ele>
        <time>2021-08-08T09:22:21Z</time>
      </trkpt>
      <trkpt lat="48.87697" lon="7.45829">
        <ele>188</ele>
        <time>2021-08-08T09:22:22Z</time>
      </trkpt>
      <trkpt lat="48.87694" lon="7.45835">
        <ele>188</ele>
        <time>2021-08-08T09:22:23Z</time>
      </trkpt>
      <trkpt lat="48.87694" lon="7.45835">
        <ele>188</ele>
        <time>2021-08-08T09:22:24Z</time>
      </trkpt>
      <trkpt lat="48.87684" lon="7.45851">
        <ele>189</ele>
        <time>2021-08-08T09:22:25Z</time>
      </trkpt>
      <trkpt lat="48.87684" lon="7.45851">
        <ele>189</ele>
        <time>2021-08-08T09:22:26Z</time>
      </trkpt>
      <trkpt lat="48.87678" lon="7.45861">
        <ele>189</ele>
        <time>2021-08-08T09:22:27Z</time>
      </trkpt>
      <trkpt lat="48.87678" lon="7.45861">
        <ele>189</ele>
        <time>2021-08-08T09:22:28Z</time>
      </trkpt>
      <trkpt lat="48.87675" lon="7.45866">
        <ele>189</ele>
        <time>2021-08-08T09:22:29Z</time>
      </trkpt>
      <trkpt lat="48.87675" lon="7.45866">
        <ele>190</ele>
        <time>2021-08-08T09:22:30Z</time>
      </trkpt>
      <trkpt lat="48.87669" lon="7.45877">
        <ele>190</ele>
        <time>2021-08-08T09:22:31Z</time>
      </trkpt>
      <trkpt lat="48.87669" lon="7.45877">
        <ele>190</ele>
        <time>2021-08-08T09:22:32Z</time>
      </trkpt>
      <trkpt lat="48.87661" lon="7.45893">
        <ele>190</ele>
        <time>2021-08-08T09:22:33Z</time>
      </trkpt>
      <trkpt lat="48.87661" lon="7.45893">
        <ele>190</ele>
        <time>2021-08-08T09:22:34Z</time>
      </trkpt>
      <trkpt lat="48.87661" lon="7.45893">
        <ele>190</ele>
        <time>2021-08-08T09:22:35Z</time>
      </trkpt>
      <trkpt lat="48.87655" lon="7.45902">
        <ele>190</ele>
        <time>2021-08-08T09:22:36Z</time>
      </trkpt>
      <trkpt lat="48.87648" lon="7.45913">
        <ele>191</ele>
        <time>2021-08-08T09:22:37Z</time>
      </trkpt>
      <trkpt lat="48.87648" lon="7.45913">
        <ele>191</ele>
        <time>2021-08-08T09:22:38Z</time>
      </trkpt>
      <trkpt lat="48.87648" lon="7.45913">
        <ele>191</ele>
        <time>2021-08-08T09:22:39Z</time>
      </trkpt>
      <trkpt lat="48.8764" lon="7.45923">
        <ele>191</ele>
        <time>2021-08-08T09:22:40Z</time>
      </trkpt>
      <trkpt lat="48.8763" lon="7.45934">
        <ele>191</ele>
        <time>2021-08-08T09:22:41Z</time>
      </trkpt>
      <trkpt lat="48.8763" lon="7.45934">
        <ele>191</ele>
        <time>2021-08-08T09:22:42Z</time>
      </trkpt>
      <trkpt lat="48.8763" lon="7.45934">
        <ele>190</ele>
        <time>2021-08-08T09:22:43Z</time>
      </trkpt>
      <trkpt lat="48.8762" lon="7.45946">
        <ele>190</ele>
        <time>2021-08-08T09:22:44Z</time>
      </trkpt>
      <trkpt lat="48.8762" lon="7.45946">
        <ele>190</ele>
        <time>2021-08-08T09:22:45Z</time>
      </trkpt>
      <trkpt lat="48.87611" lon="7.45959">
        <ele>190</ele>
        <time>2021-08-08T09:22:46Z</time>
      </trkpt>
      <trkpt lat="48.87611" lon="7.45959">
        <ele>190</ele>
        <time>2021-08-08T09:22:47Z</time>
      </trkpt>
      <trkpt lat="48.87603" lon="7.45972">
        <ele>190</ele>
        <time>2021-08-08T09:22:48Z</time>
      </trkpt>
      <trkpt lat="48.87603" lon="7.45972">
        <ele>190</ele>
        <time>2021-08-08T09:22:49Z</time>
      </trkpt>
      <trkpt lat="48.87596" lon="7.4598">
        <ele>190</ele>
        <time>2021-08-08T09:22:50Z</time>
      </trkpt>
      <trkpt lat="48.87596" lon="7.4598">
        <ele>190</ele>
        <time>2021-08-08T09:22:51Z</time>
      </trkpt>
      <trkpt lat="48.8759" lon="7.45986">
        <ele>190</ele>
        <time>2021-08-08T09:22:52Z</time>
      </trkpt>
      <trkpt lat="48.8759" lon="7.45986">
        <ele>190</ele>
        <time>2021-08-08T09:22:53Z</time>
      </trkpt>
      <trkpt lat="48.87586" lon="7.45991">
        <ele>190</ele>
        <time>2021-08-08T09:22:54Z</time>
      </trkpt>
      <trkpt lat="48.87584" lon="7.45994">
        <ele>190</ele>
        <time>2021-08-08T09:22:55Z</time>
      </trkpt>
      <trkpt lat="48.87582" lon="7.45996">
        <ele>190</ele>
        <time>2021-08-08T09:22:56Z</time>
      </trkpt>
      <trkpt lat="48.87582" lon="7.45996">
        <ele>190</ele>
        <time>2021-08-08T09:22:57Z</time>
      </trkpt>
      <trkpt lat="48.87578" lon="7.46001">
        <ele>191</ele>
        <time>2021-08-08T09:22:58Z</time>
      </trkpt>
      <trkpt lat="48.87578" lon="7.46001">
        <ele>191</ele>
        <time>2021-08-08T09:22:59Z</time>
      </trkpt>
      <trkpt lat="48.87574" lon="7.46007">
        <ele>191</ele>
        <time>2021-08-08T09:23:00Z</time>
      </trkpt>
      <trkpt lat="48.87574" lon="7.46007">
        <ele>191</ele>
        <time>2021-08-08T09:23:01Z</time>
      </trkpt>
      <trkpt lat="48.87563" lon="7.46019">
        <ele>191</ele>
        <time>2021-08-08T09:23:02Z</time>
      </trkpt>
      <trkpt lat="48.87563" lon="7.46019">
        <ele>191</ele>
        <time>2021-08-08T09:23:03Z</time>
      </trkpt>
      <trkpt lat="48.87553" lon="7.46028">
        <ele>190</ele>
        <time>2021-08-08T09:23:04Z</time>
      </trkpt>
      <trkpt lat="48.87553" lon="7.46028">
        <ele>190</ele>
        <time>2021-08-08T09:23:05Z</time>
      </trkpt>
      <trkpt lat="48.87548" lon="7.46033">
        <ele>189</ele>
        <time>2021-08-08T09:23:06Z</time>
      </trkpt>
      <trkpt lat="48.87548" lon="7.46033">
        <ele>189</ele>
        <time>2021-08-08T09:23:07Z</time>
      </trkpt>
      <trkpt lat="48.87534" lon="7.46044">
        <ele>188</ele>
        <time>2021-08-08T09:23:08Z</time>
      </trkpt>
      <trkpt lat="48.87519" lon="7.46056">
        <ele>188</ele>
        <time>2021-08-08T09:23:09Z</time>
      </trkpt>
      <trkpt lat="48.87511" lon="7.46063">
        <ele>187</ele>
        <time>2021-08-08T09:23:10Z</time>
      </trkpt>
      <trkpt lat="48.87511" lon="7.46063">
        <ele>187</ele>
        <time>2021-08-08T09:23:11Z</time>
      </trkpt>
      <trkpt lat="48.87493" lon="7.46076">
        <ele>186</ele>
        <time>2021-08-08T09:23:12Z</time>
      </trkpt>
      <trkpt lat="48.87493" lon="7.46076">
        <ele>186</ele>
        <time>2021-08-08T09:23:13Z</time>
      </trkpt>
      <trkpt lat="48.87484" lon="7.46084">
        <ele>184</ele>
        <time>2021-08-08T09:23:14Z</time>
      </trkpt>
      <trkpt lat="48.87484" lon="7.46084">
        <ele>184</ele>
        <time>2021-08-08T09:23:15Z</time>
      </trkpt>
      <trkpt lat="48.87467" lon="7.461">
        <ele>183</ele>
        <time>2021-08-08T09:23:16Z</time>
      </trkpt>
      <trkpt lat="48.87452" lon="7.4612">
        <ele>183</ele>
        <time>2021-08-08T09:23:17Z</time>
      </trkpt>
      <trkpt lat="48.87452" lon="7.4612">
        <ele>182</ele>
        <time>2021-08-08T09:23:18Z</time>
      </trkpt>
      <trkpt lat="48.87438" lon="7.46139">
        <ele>182</ele>
        <time>2021-08-08T09:23:19Z</time>
      </trkpt>
      <trkpt lat="48.87438" lon="7.46139">
        <ele>181</ele>
        <time>2021-08-08T09:23:20Z</time>
      </trkpt>
      <trkpt lat="48.87424" lon="7.46157">
        <ele>181</ele>
        <time>2021-08-08T09:23:21Z</time>
      </trkpt>
      <trkpt lat="48.87424" lon="7.46157">
        <ele>181</ele>
        <time>2021-08-08T09:23:22Z</time>
      </trkpt>
      <trkpt lat="48.87418" lon="7.46165">
        <ele>180</ele>
        <time>2021-08-08T09:23:23Z</time>
      </trkpt>
      <trkpt lat="48.87418" lon="7.46165">
        <ele>180</ele>
        <time>2021-08-08T09:23:24Z</time>
      </trkpt>
      <trkpt lat="48.87398" lon="7.4618">
        <ele>180</ele>
        <time>2021-08-08T09:23:25Z</time>
      </trkpt>
      <trkpt lat="48.87398" lon="7.4618">
        <ele>180</ele>
        <time>2021-08-08T09:23:26Z</time>
      </trkpt>
      <trkpt lat="48.87398" lon="7.4618">
        <ele>180</ele>
        <time>2021-08-08T09:23:27Z</time>
      </trkpt>
      <trkpt lat="48.87389" lon="7.46173">
        <ele>180</ele>
        <time>2021-08-08T09:23:28Z</time>
      </trkpt>
      <trkpt lat="48.87389" lon="7.46173">
        <ele>180</ele>
        <time>2021-08-08T09:23:29Z</time>
      </trkpt>
      <trkpt lat="48.87382" lon="7.46162">
        <ele>180</ele>
        <time>2021-08-08T09:23:30Z</time>
      </trkpt>
      <trkpt lat="48.87382" lon="7.46162">
        <ele>180</ele>
        <time>2021-08-08T09:23:31Z</time>
      </trkpt>
      <trkpt lat="48.87375" lon="7.4615">
        <ele>180</ele>
        <time>2021-08-08T09:23:32Z</time>
      </trkpt>
      <trkpt lat="48.87375" lon="7.4615">
        <ele>180</ele>
        <time>2021-08-08T09:23:33Z</time>
      </trkpt>
      <trkpt lat="48.87366" lon="7.4614">
        <ele>178</ele>
        <time>2021-08-08T09:23:34Z</time>
      </trkpt>
      <trkpt lat="48.87366" lon="7.4614">
        <ele>178</ele>
        <time>2021-08-08T09:23:35Z</time>
      </trkpt>
      <trkpt lat="48.87357" lon="7.46137">
        <ele>178</ele>
        <time>2021-08-08T09:23:36Z</time>
      </trkpt>
      <trkpt lat="48.87357" lon="7.46137">
        <ele>178</ele>
        <time>2021-08-08T09:23:37Z</time>
      </trkpt>
      <trkpt lat="48.87346" lon="7.46142">
        <ele>177</ele>
        <time>2021-08-08T09:23:38Z</time>
      </trkpt>
      <trkpt lat="48.87346" lon="7.46142">
        <ele>177</ele>
        <time>2021-08-08T09:23:39Z</time>
      </trkpt>
      <trkpt lat="48.87338" lon="7.46153">
        <ele>177</ele>
        <time>2021-08-08T09:23:40Z</time>
      </trkpt>
      <trkpt lat="48.87329" lon="7.46165">
        <ele>177</ele>
        <time>2021-08-08T09:23:41Z</time>
      </trkpt>
      <trkpt lat="48.87329" lon="7.46165">
        <ele>177</ele>
        <time>2021-08-08T09:23:42Z</time>
      </trkpt>
      <trkpt lat="48.87322" lon="7.46179">
        <ele>177</ele>
        <time>2021-08-08T09:23:43Z</time>
      </trkpt>
      <trkpt lat="48.87322" lon="7.46179">
        <ele>177</ele>
        <time>2021-08-08T09:23:44Z</time>
      </trkpt>
      <trkpt lat="48.87318" lon="7.46186">
        <ele>177</ele>
        <time>2021-08-08T09:23:45Z</time>
      </trkpt>
      <trkpt lat="48.87318" lon="7.46186">
        <ele>177</ele>
        <time>2021-08-08T09:23:46Z</time>
      </trkpt>
      <trkpt lat="48.87311" lon="7.462">
        <ele>177</ele>
        <time>2021-08-08T09:23:47Z</time>
      </trkpt>
      <trkpt lat="48.87305" lon="7.46214">
        <ele>177</ele>
        <time>2021-08-08T09:23:48Z</time>
      </trkpt>
      <trkpt lat="48.87305" lon="7.46214">
        <ele>177</ele>
        <time>2021-08-08T09:23:49Z</time>
      </trkpt>
      <trkpt lat="48.87302" lon="7.46221">
        <ele>177</ele>
        <time>2021-08-08T09:23:50Z</time>
      </trkpt>
      <trkpt lat="48.87302" lon="7.46221">
        <ele>177</ele>
        <time>2021-08-08T09:23:51Z</time>
      </trkpt>
    </trkseg>
  </trk>
</gpx>